<?xml version="1.0" encoding="UTF-8"?>
<gpx xmlns="http://www.topografix.com/GPX/1/1" xmlns:xsi="http://www.w3.org/2001/XMLSchema-instance" xsi:schemaLocation="http://www.topografix.com/GPX/1/1 http://www.topografix.com/GPX/1/1/gpx.xsd" version="1.1" creator="Cyclorama">
  <trk>
    <name>Activity</name>
    <trkseg>
      <trkpt lat="36.015372946858406" lon="129.3522379361093">
        <ele>9.8</ele>
        <time>2026-06-05T10:36:56</time>
      </trkpt>
      <trkpt lat="36.015457939356565" lon="129.3523039855063">
        <ele>9.8</ele>
        <time>2026-06-05T10:36:57</time>
      </trkpt>
      <trkpt lat="36.01548593491316" lon="129.3523259460926">
        <ele>9.8</ele>
        <time>2026-06-05T10:36:58</time>
      </trkpt>
      <trkpt lat="36.015539998188615" lon="129.35237196274102">
        <ele>9.8</ele>
        <time>2026-06-05T10:36:59</time>
      </trkpt>
      <trkpt lat="36.01559397764504" lon="129.35241596773267">
        <ele>9.8</ele>
        <time>2026-06-05T10:37:00</time>
      </trkpt>
      <trkpt lat="36.01564493961632" lon="129.35245896689594">
        <ele>9.8</ele>
        <time>2026-06-05T10:37:01</time>
      </trkpt>
      <trkpt lat="36.015692967921495" lon="129.3525019660592">
        <ele>9.8</ele>
        <time>2026-06-05T10:37:02</time>
      </trkpt>
      <trkpt lat="36.01573898456991" lon="129.35254496522248">
        <ele>9.8</ele>
        <time>2026-06-05T10:37:03</time>
      </trkpt>
      <trkpt lat="36.01578399538994" lon="129.3525849469006">
        <ele>9.8</ele>
        <time>2026-06-05T10:37:04</time>
      </trkpt>
      <trkpt lat="36.01582498289645" lon="129.35262593440711">
        <ele>9.8</ele>
        <time>2026-06-05T10:37:05</time>
      </trkpt>
      <trkpt lat="36.015861947089434" lon="129.35267094522715">
        <ele>9.8</ele>
        <time>2026-06-05T10:37:06</time>
      </trkpt>
      <trkpt lat="36.01589698344469" lon="129.35271293856204">
        <ele>9.8</ele>
        <time>2026-06-05T10:37:07</time>
      </trkpt>
      <trkpt lat="36.01593495346606" lon="129.35274898074567">
        <ele>9.8</ele>
        <time>2026-06-05T10:37:08</time>
      </trkpt>
      <trkpt lat="36.015972923487425" lon="129.35278192162514">
        <ele>9.8</ele>
        <time>2026-06-05T10:37:09</time>
      </trkpt>
      <trkpt lat="36.016013994812965" lon="129.3528169579804">
        <ele>9.8</ele>
        <time>2026-06-05T10:37:10</time>
      </trkpt>
      <trkpt lat="36.016056993976235" lon="129.352852916345">
        <ele>9.8</ele>
        <time>2026-06-05T10:37:11</time>
      </trkpt>
      <trkpt lat="36.016098987311125" lon="129.35288493521512">
        <ele>9.8</ele>
        <time>2026-06-05T10:37:12</time>
      </trkpt>
      <trkpt lat="36.016141986474395" lon="129.35291594825685">
        <ele>9.8</ele>
        <time>2026-06-05T10:37:13</time>
      </trkpt>
      <trkpt lat="36.016182973980904" lon="129.35294494964182">
        <ele>9.8</ele>
        <time>2026-06-05T10:37:14</time>
      </trkpt>
      <trkpt lat="36.01622094400227" lon="129.35297294519842">
        <ele>9.8</ele>
        <time>2026-06-05T10:37:15</time>
      </trkpt>
      <trkpt lat="36.01625396870077" lon="129.35299892909825">
        <ele>9.8</ele>
        <time>2026-06-05T10:37:16</time>
      </trkpt>
      <trkpt lat="36.01627794094384" lon="129.3530249968171">
        <ele>9.8</ele>
        <time>2026-06-05T10:37:17</time>
      </trkpt>
      <trkpt lat="36.01629093289375" lon="129.35305492021143">
        <ele>9.8</ele>
        <time>2026-06-05T10:37:18</time>
      </trkpt>
      <trkpt lat="36.01629696786404" lon="129.35308593325317">
        <ele>9.8</ele>
        <time>2026-06-05T10:37:19</time>
      </trkpt>
      <trkpt lat="36.01630493067205" lon="129.35310998931527">
        <ele>9.8</ele>
        <time>2026-06-05T10:37:20</time>
      </trkpt>
      <trkpt lat="36.016313983127475" lon="129.35312599875033">
        <ele>9.8</ele>
        <time>2026-06-05T10:37:21</time>
      </trkpt>
      <trkpt lat="36.01631993427873" lon="129.3531309440732">
        <ele>9.8</ele>
        <time>2026-06-05T10:37:22</time>
      </trkpt>
      <trkpt lat="36.01632094010711" lon="129.35313194990158">
        <ele>9.8</ele>
        <time>2026-06-05T10:37:23</time>
      </trkpt>
      <trkpt lat="36.01632094010711" lon="129.35312993824482">
        <ele>9.8</ele>
        <time>2026-06-05T10:37:24</time>
      </trkpt>
      <trkpt lat="36.016317922621965" lon="129.35312792658806">
        <ele>9.8</ele>
        <time>2026-06-05T10:37:25</time>
      </trkpt>
      <trkpt lat="36.016336949542165" lon="129.35315491631627">
        <ele>9.8</ele>
        <time>2026-06-05T10:37:55</time>
      </trkpt>
      <trkpt lat="36.016354970633984" lon="129.3531689979136">
        <ele>9.6</ele>
        <time>2026-06-05T10:37:56</time>
      </trkpt>
      <trkpt lat="36.01637693122029" lon="129.35318492352962">
        <ele>9.8</ele>
        <time>2026-06-05T10:37:57</time>
      </trkpt>
      <trkpt lat="36.016401993110776" lon="129.3531999271363">
        <ele>9.8</ele>
        <time>2026-06-05T10:37:58</time>
      </trkpt>
      <trkpt lat="36.01642898283899" lon="129.35321493074298">
        <ele>9.8</ele>
        <time>2026-06-05T10:37:59</time>
      </trkpt>
      <trkpt lat="36.01645295508206" lon="129.35323194600642">
        <ele>9.6</ele>
        <time>2026-06-05T10:38:00</time>
      </trkpt>
      <trkpt lat="36.01647298783064" lon="129.35325097292662">
        <ele>9.8</ele>
        <time>2026-06-05T10:38:01</time>
      </trkpt>
      <trkpt lat="36.01649293676019" lon="129.35326999984682">
        <ele>9.8</ele>
        <time>2026-06-05T10:38:02</time>
      </trkpt>
      <trkpt lat="36.01651699282229" lon="129.35328491963446">
        <ele>9.8</ele>
        <time>2026-06-05T10:38:03</time>
      </trkpt>
      <trkpt lat="36.01654498837888" lon="129.35329698957503">
        <ele>9.8</ele>
        <time>2026-06-05T10:38:04</time>
      </trkpt>
      <trkpt lat="36.016573989763856" lon="129.35330998152494">
        <ele>10.0</ele>
        <time>2026-06-05T10:38:05</time>
      </trkpt>
      <trkpt lat="36.016596956178546" lon="129.3533159326762">
        <ele>10.2</ele>
        <time>2026-06-05T10:38:06</time>
      </trkpt>
      <trkpt lat="36.016619922593236" lon="129.35331995598972">
        <ele>10.4</ele>
        <time>2026-06-05T10:38:07</time>
      </trkpt>
      <trkpt lat="36.01664699614048" lon="129.35332791879773">
        <ele>10.4</ele>
        <time>2026-06-05T10:38:08</time>
      </trkpt>
      <trkpt lat="36.01667499169707" lon="129.3533349595964">
        <ele>10.6</ele>
        <time>2026-06-05T10:38:09</time>
      </trkpt>
      <trkpt lat="36.016702987253666" lon="129.3533489573747">
        <ele>10.8</ele>
        <time>2026-06-05T10:38:10</time>
      </trkpt>
      <trkpt lat="36.01673198863864" lon="129.3533669784665">
        <ele>10.8</ele>
        <time>2026-06-05T10:38:11</time>
      </trkpt>
      <trkpt lat="36.01676099002361" lon="129.35338793322444">
        <ele>11.0</ele>
        <time>2026-06-05T10:38:12</time>
      </trkpt>
      <trkpt lat="36.01678999140859" lon="129.3534089718014">
        <ele>11.0</ele>
        <time>2026-06-05T10:38:13</time>
      </trkpt>
      <trkpt lat="36.01681798696518" lon="129.3534309323877">
        <ele>11.2</ele>
        <time>2026-06-05T10:38:14</time>
      </trkpt>
      <trkpt lat="36.01684598252177" lon="129.35345398262143">
        <ele>11.2</ele>
        <time>2026-06-05T10:38:15</time>
      </trkpt>
      <trkpt lat="36.016874983906746" lon="129.3534779548645">
        <ele>11.4</ele>
        <time>2026-06-05T10:38:16</time>
      </trkpt>
      <trkpt lat="36.0169049911201" lon="129.3535009212792">
        <ele>11.4</ele>
        <time>2026-06-05T10:38:17</time>
      </trkpt>
      <trkpt lat="36.0169359203428" lon="129.3535239715129">
        <ele>11.4</ele>
        <time>2026-06-05T10:38:18</time>
      </trkpt>
      <trkpt lat="36.01696793921292" lon="129.3535519670695">
        <ele>11.4</ele>
        <time>2026-06-05T10:38:19</time>
      </trkpt>
      <trkpt lat="36.01699895225465" lon="129.35357795096934">
        <ele>11.4</ele>
        <time>2026-06-05T10:38:20</time>
      </trkpt>
      <trkpt lat="36.017022924497724" lon="129.3535989895463">
        <ele>11.4</ele>
        <time>2026-06-05T10:38:21</time>
      </trkpt>
      <trkpt lat="36.01703591644764" lon="129.35360896401107">
        <ele>11.4</ele>
        <time>2026-06-05T10:38:22</time>
      </trkpt>
      <trkpt lat="36.01703993976116" lon="129.35361198149621">
        <ele>11.6</ele>
        <time>2026-06-05T10:38:23</time>
      </trkpt>
      <trkpt lat="36.01703893393278" lon="129.35361097566783">
        <ele>11.6</ele>
        <time>2026-06-05T10:38:24</time>
      </trkpt>
      <trkpt lat="36.01703692227602" lon="129.3536079581827">
        <ele>11.6</ele>
        <time>2026-06-05T10:38:25</time>
      </trkpt>
      <trkpt lat="36.017067935317755" lon="129.35363796539605">
        <ele>11.4</ele>
        <time>2026-06-05T10:38:35</time>
      </trkpt>
      <trkpt lat="36.017085956409574" lon="129.35365699231625">
        <ele>11.4</ele>
        <time>2026-06-05T10:38:36</time>
      </trkpt>
      <trkpt lat="36.017106994986534" lon="129.35367895290256">
        <ele>11.4</ele>
        <time>2026-06-05T10:38:37</time>
      </trkpt>
      <trkpt lat="36.017129961401224" lon="129.35369999147952">
        <ele>11.2</ele>
        <time>2026-06-05T10:38:38</time>
      </trkpt>
      <trkpt lat="36.017153933644295" lon="129.35372195206583">
        <ele>11.2</ele>
        <time>2026-06-05T10:38:39</time>
      </trkpt>
      <trkpt lat="36.01717991754413" lon="129.3537459243089">
        <ele>11.2</ele>
        <time>2026-06-05T10:38:40</time>
      </trkpt>
      <trkpt lat="36.0172089189291" lon="129.353769980371">
        <ele>11.2</ele>
        <time>2026-06-05T10:38:41</time>
      </trkpt>
      <trkpt lat="36.017238926142454" lon="129.35379495844245">
        <ele>11.2</ele>
        <time>2026-06-05T10:38:42</time>
      </trkpt>
      <trkpt lat="36.01726993918419" lon="129.3538199365139">
        <ele>11.0</ele>
        <time>2026-06-05T10:38:43</time>
      </trkpt>
      <trkpt lat="36.017301958054304" lon="129.35384499840438">
        <ele>11.0</ele>
        <time>2026-06-05T10:38:44</time>
      </trkpt>
      <trkpt lat="36.0173349827528" lon="129.35386997647583">
        <ele>11.0</ele>
        <time>2026-06-05T10:38:45</time>
      </trkpt>
      <trkpt lat="36.017367923632264" lon="129.35389696620405">
        <ele>10.8</ele>
        <time>2026-06-05T10:38:46</time>
      </trkpt>
      <trkpt lat="36.01740094833076" lon="129.35392395593226">
        <ele>10.8</ele>
        <time>2026-06-05T10:38:47</time>
      </trkpt>
      <trkpt lat="36.017431961372495" lon="129.35395195148885">
        <ele>10.8</ele>
        <time>2026-06-05T10:38:48</time>
      </trkpt>
      <trkpt lat="36.01746196858585" lon="129.35397994704545">
        <ele>10.6</ele>
        <time>2026-06-05T10:38:49</time>
      </trkpt>
      <trkpt lat="36.017494993284345" lon="129.35400593094528">
        <ele>10.6</ele>
        <time>2026-06-05T10:38:50</time>
      </trkpt>
      <trkpt lat="36.01752793416381" lon="129.35403099283576">
        <ele>10.6</ele>
        <time>2026-06-05T10:38:51</time>
      </trkpt>
      <trkpt lat="36.017560958862305" lon="129.3540559709072">
        <ele>10.4</ele>
        <time>2026-06-05T10:38:52</time>
      </trkpt>
      <trkpt lat="36.01759297773242" lon="129.35408195480704">
        <ele>10.4</ele>
        <time>2026-06-05T10:38:53</time>
      </trkpt>
      <trkpt lat="36.017624996602535" lon="129.35410793870687">
        <ele>10.4</ele>
        <time>2026-06-05T10:38:54</time>
      </trkpt>
      <trkpt lat="36.01765592582524" lon="129.35413291677833">
        <ele>10.4</ele>
        <time>2026-06-05T10:38:55</time>
      </trkpt>
      <trkpt lat="36.01768794469535" lon="129.3541579786688">
        <ele>10.4</ele>
        <time>2026-06-05T10:38:56</time>
      </trkpt>
      <trkpt lat="36.01771895773709" lon="129.35418295674026">
        <ele>10.4</ele>
        <time>2026-06-05T10:38:57</time>
      </trkpt>
      <trkpt lat="36.01774896495044" lon="129.35420692898333">
        <ele>10.6</ele>
        <time>2026-06-05T10:38:58</time>
      </trkpt>
      <trkpt lat="36.01777997799218" lon="129.35422997921705">
        <ele>10.6</ele>
        <time>2026-06-05T10:38:59</time>
      </trkpt>
      <trkpt lat="36.01780998520553" lon="129.35425395146012">
        <ele>10.4</ele>
        <time>2026-06-05T10:39:00</time>
      </trkpt>
      <trkpt lat="36.01783596910536" lon="129.35427892953157">
        <ele>10.4</ele>
        <time>2026-06-05T10:39:01</time>
      </trkpt>
      <trkpt lat="36.01785792969167" lon="129.35430097393692">
        <ele>10.4</ele>
        <time>2026-06-05T10:39:02</time>
      </trkpt>
      <trkpt lat="36.01787896826863" lon="129.35431698337197">
        <ele>10.4</ele>
        <time>2026-06-05T10:39:03</time>
      </trkpt>
      <trkpt lat="36.01790092885494" lon="129.3543299753219">
        <ele>10.4</ele>
        <time>2026-06-05T10:39:04</time>
      </trkpt>
      <trkpt lat="36.0179219674319" lon="129.35434497892857">
        <ele>10.4</ele>
        <time>2026-06-05T10:39:05</time>
      </trkpt>
      <trkpt lat="36.01794593967497" lon="129.35436492785811">
        <ele>10.4</ele>
        <time>2026-06-05T10:39:06</time>
      </trkpt>
      <trkpt lat="36.017972929403186" lon="129.3543899897486">
        <ele>10.4</ele>
        <time>2026-06-05T10:39:07</time>
      </trkpt>
      <trkpt lat="36.01800293661654" lon="129.3544169794768">
        <ele>10.6</ele>
        <time>2026-06-05T10:39:08</time>
      </trkpt>
      <trkpt lat="36.018035961315036" lon="129.35444598086178">
        <ele>10.6</ele>
        <time>2026-06-05T10:39:09</time>
      </trkpt>
      <trkpt lat="36.01807191967964" lon="129.35447699390352">
        <ele>10.6</ele>
        <time>2026-06-05T10:39:10</time>
      </trkpt>
      <trkpt lat="36.01810896769166" lon="129.35450792312622">
        <ele>10.6</ele>
        <time>2026-06-05T10:39:11</time>
      </trkpt>
      <trkpt lat="36.01814693771303" lon="129.35453793033957">
        <ele>10.6</ele>
        <time>2026-06-05T10:39:12</time>
      </trkpt>
      <trkpt lat="36.018188931047916" lon="129.35456399805844">
        <ele>10.8</ele>
        <time>2026-06-05T10:39:13</time>
      </trkpt>
      <trkpt lat="36.01823394186795" lon="129.35459593310952">
        <ele>10.8</ele>
        <time>2026-06-05T10:39:14</time>
      </trkpt>
      <trkpt lat="36.01827694103122" lon="129.3546249344945">
        <ele>10.8</ele>
        <time>2026-06-05T10:39:15</time>
      </trkpt>
      <trkpt lat="36.01831994019449" lon="129.35465494170785">
        <ele>11.0</ele>
        <time>2026-06-05T10:39:16</time>
      </trkpt>
      <trkpt lat="36.018359921872616" lon="129.35468595474958">
        <ele>11.0</ele>
        <time>2026-06-05T10:39:17</time>
      </trkpt>
      <trkpt lat="36.01839495822787" lon="129.35471897944808">
        <ele>11.2</ele>
        <time>2026-06-05T10:39:18</time>
      </trkpt>
      <trkpt lat="36.01842898875475" lon="129.35474999248981">
        <ele>11.2</ele>
        <time>2026-06-05T10:39:19</time>
      </trkpt>
      <trkpt lat="36.018462935462594" lon="129.35478092171252">
        <ele>11.2</ele>
        <time>2026-06-05T10:39:20</time>
      </trkpt>
      <trkpt lat="36.01849495433271" lon="129.3548099230975">
        <ele>11.4</ele>
        <time>2026-06-05T10:39:21</time>
      </trkpt>
      <trkpt lat="36.018527979031205" lon="129.35483498498797">
        <ele>11.4</ele>
        <time>2026-06-05T10:39:22</time>
      </trkpt>
      <trkpt lat="36.01856091991067" lon="129.3548559397459">
        <ele>11.4</ele>
        <time>2026-06-05T10:39:23</time>
      </trkpt>
      <trkpt lat="36.018592938780785" lon="129.35487898997962">
        <ele>11.6</ele>
        <time>2026-06-05T10:39:24</time>
      </trkpt>
      <trkpt lat="36.01862596347928" lon="129.3549079913646">
        <ele>11.6</ele>
        <time>2026-06-05T10:39:25</time>
      </trkpt>
      <trkpt lat="36.018658988177776" lon="129.35493992641568">
        <ele>11.6</ele>
        <time>2026-06-05T10:39:26</time>
      </trkpt>
      <trkpt lat="36.01869595237076" lon="129.3549719452858">
        <ele>11.4</ele>
        <time>2026-06-05T10:39:27</time>
      </trkpt>
      <trkpt lat="36.01873492822051" lon="129.35500295832753">
        <ele>11.4</ele>
        <time>2026-06-05T10:39:28</time>
      </trkpt>
      <trkpt lat="36.0187769215554" lon="129.35503598302603">
        <ele>11.4</ele>
        <time>2026-06-05T10:39:29</time>
      </trkpt>
      <trkpt lat="36.01881899870932" lon="129.35506992973387">
        <ele>11.2</ele>
        <time>2026-06-05T10:39:30</time>
      </trkpt>
      <trkpt lat="36.01886199787259" lon="129.3551059719175">
        <ele>11.2</ele>
        <time>2026-06-05T10:39:31</time>
      </trkpt>
      <trkpt lat="36.01890692487359" lon="129.35514092445374">
        <ele>11.2</ele>
        <time>2026-06-05T10:39:32</time>
      </trkpt>
      <trkpt lat="36.018952941522" lon="129.35517696663737">
        <ele>11.2</ele>
        <time>2026-06-05T10:39:33</time>
      </trkpt>
      <trkpt lat="36.019000969827175" lon="129.35521393083036">
        <ele>11.2</ele>
        <time>2026-06-05T10:39:34</time>
      </trkpt>
      <trkpt lat="36.01905092597008" lon="129.35525299049914">
        <ele>11.2</ele>
        <time>2026-06-05T10:39:35</time>
      </trkpt>
      <trkpt lat="36.01909996010363" lon="129.35529397800565">
        <ele>11.0</ele>
        <time>2026-06-05T10:39:36</time>
      </trkpt>
      <trkpt lat="36.019148994237185" lon="129.35533395968378">
        <ele>11.0</ele>
        <time>2026-06-05T10:39:37</time>
      </trkpt>
      <trkpt lat="36.01919895038009" lon="129.35537192970514">
        <ele>11.0</ele>
        <time>2026-06-05T10:39:38</time>
      </trkpt>
      <trkpt lat="36.0192449670285" lon="129.3554119952023">
        <ele>11.2</ele>
        <time>2026-06-05T10:39:39</time>
      </trkpt>
      <trkpt lat="36.01928997784853" lon="129.35545097105205">
        <ele>11.2</ele>
        <time>2026-06-05T10:39:40</time>
      </trkpt>
      <trkpt lat="36.01933197118342" lon="129.35548692941666">
        <ele>11.2</ele>
        <time>2026-06-05T10:39:41</time>
      </trkpt>
      <trkpt lat="36.019369941204786" lon="129.35551593080163">
        <ele>11.2</ele>
        <time>2026-06-05T10:39:42</time>
      </trkpt>
      <trkpt lat="36.01940095424652" lon="129.35553998686373">
        <ele>11.2</ele>
        <time>2026-06-05T10:39:43</time>
      </trkpt>
      <trkpt lat="36.019430961459875" lon="129.35556094162166">
        <ele>11.2</ele>
        <time>2026-06-05T10:39:44</time>
      </trkpt>
      <trkpt lat="36.01945895701647" lon="129.35558198019862">
        <ele>11.0</ele>
        <time>2026-06-05T10:39:45</time>
      </trkpt>
      <trkpt lat="36.01948695257306" lon="129.3556059524417">
        <ele>11.0</ele>
        <time>2026-06-05T10:39:46</time>
      </trkpt>
      <trkpt lat="36.019517965614796" lon="129.35562699101865">
        <ele>11.0</ele>
        <time>2026-06-05T10:39:47</time>
      </trkpt>
      <trkpt lat="36.01954696699977" lon="129.35565398074687">
        <ele>11.2</ele>
        <time>2026-06-05T10:39:48</time>
      </trkpt>
      <trkpt lat="36.01957496255636" lon="129.35568398796022">
        <ele>11.2</ele>
        <time>2026-06-05T10:39:49</time>
      </trkpt>
      <trkpt lat="36.019603963941336" lon="129.3557129893452">
        <ele>11.2</ele>
        <time>2026-06-05T10:39:50</time>
      </trkpt>
      <trkpt lat="36.01963195949793" lon="129.3557409849018">
        <ele>11.2</ele>
        <time>2026-06-05T10:39:51</time>
      </trkpt>
      <trkpt lat="36.01965794339776" lon="129.35576495714486">
        <ele>11.2</ele>
        <time>2026-06-05T10:39:52</time>
      </trkpt>
      <trkpt lat="36.01968292146921" lon="129.3557899352163">
        <ele>11.2</ele>
        <time>2026-06-05T10:39:53</time>
      </trkpt>
      <trkpt lat="36.019706977531314" lon="129.35582396574318">
        <ele>11.4</ele>
        <time>2026-06-05T10:39:54</time>
      </trkpt>
      <trkpt lat="36.01972692646086" lon="129.3558639474213">
        <ele>11.4</ele>
        <time>2026-06-05T10:39:55</time>
      </trkpt>
      <trkpt lat="36.0197489708662" lon="129.35590493492782">
        <ele>11.4</ele>
        <time>2026-06-05T10:39:56</time>
      </trkpt>
      <trkpt lat="36.019776966422796" lon="129.35594298876822">
        <ele>11.4</ele>
        <time>2026-06-05T10:39:57</time>
      </trkpt>
      <trkpt lat="36.01980999112129" lon="129.35597592964768">
        <ele>11.4</ele>
        <time>2026-06-05T10:39:58</time>
      </trkpt>
      <trkpt lat="36.01984393782914" lon="129.35600493103266">
        <ele>11.4</ele>
        <time>2026-06-05T10:39:59</time>
      </trkpt>
      <trkpt lat="36.019879980012774" lon="129.35602898709476">
        <ele>11.2</ele>
        <time>2026-06-05T10:40:00</time>
      </trkpt>
      <trkpt lat="36.01991292089224" lon="129.35604793019593">
        <ele>11.2</ele>
        <time>2026-06-05T10:40:01</time>
      </trkpt>
      <trkpt lat="36.01994192227721" lon="129.3560589943081">
        <ele>11.2</ele>
        <time>2026-06-05T10:40:02</time>
      </trkpt>
      <trkpt lat="36.01996195502579" lon="129.3560589943081">
        <ele>11.0</ele>
        <time>2026-06-05T10:40:03</time>
      </trkpt>
      <trkpt lat="36.01997394114733" lon="129.35604793019593">
        <ele>11.0</ele>
        <time>2026-06-05T10:40:04</time>
      </trkpt>
      <trkpt lat="36.01997796446085" lon="129.35603694990277">
        <ele>11.2</ele>
        <time>2026-06-05T10:40:05</time>
      </trkpt>
      <trkpt lat="36.01997695863247" lon="129.35602798126638">
        <ele>11.2</ele>
        <time>2026-06-05T10:40:06</time>
      </trkpt>
      <trkpt lat="36.01997494697571" lon="129.3560219462961">
        <ele>11.2</ele>
        <time>2026-06-05T10:40:07</time>
      </trkpt>
      <trkpt lat="36.01997293531895" lon="129.35601993463933">
        <ele>11.2</ele>
        <time>2026-06-05T10:40:08</time>
      </trkpt>
      <trkpt lat="36.02004493586719" lon="129.3560499418527">
        <ele>11.8</ele>
        <time>2026-06-05T10:41:50</time>
      </trkpt>
      <trkpt lat="36.02006899192929" lon="129.35606595128775">
        <ele>11.6</ele>
        <time>2026-06-05T10:41:51</time>
      </trkpt>
      <trkpt lat="36.020093970000744" lon="129.35608992353082">
        <ele>11.4</ele>
        <time>2026-06-05T10:41:52</time>
      </trkpt>
      <trkpt lat="36.020120959728956" lon="129.35611699707806">
        <ele>11.2</ele>
        <time>2026-06-05T10:41:53</time>
      </trkpt>
      <trkpt lat="36.02014895528555" lon="129.35614599846303">
        <ele>11.2</ele>
        <time>2026-06-05T10:41:54</time>
      </trkpt>
      <trkpt lat="36.02017695084214" lon="129.35617399401963">
        <ele>11.2</ele>
        <time>2026-06-05T10:41:55</time>
      </trkpt>
      <trkpt lat="36.020203940570354" lon="129.35620198957622">
        <ele>11.2</ele>
        <time>2026-06-05T10:41:56</time>
      </trkpt>
      <trkpt lat="36.020228918641806" lon="129.3562299851328">
        <ele>11.2</ele>
        <time>2026-06-05T10:41:57</time>
      </trkpt>
      <trkpt lat="36.02025196887553" lon="129.35625999234617">
        <ele>11.2</ele>
        <time>2026-06-05T10:41:58</time>
      </trkpt>
      <trkpt lat="36.020272923633456" lon="129.35629293322563">
        <ele>11.2</ele>
        <time>2026-06-05T10:41:59</time>
      </trkpt>
      <trkpt lat="36.020290944725275" lon="129.35632595792413">
        <ele>11.4</ele>
        <time>2026-06-05T10:42:00</time>
      </trkpt>
      <trkpt lat="36.02030695416033" lon="129.35635697096586">
        <ele>11.6</ele>
        <time>2026-06-05T10:42:01</time>
      </trkpt>
      <trkpt lat="36.02031994611025" lon="129.35638597235084">
        <ele>11.6</ele>
        <time>2026-06-05T10:42:02</time>
      </trkpt>
      <trkpt lat="36.0203309264034" lon="129.3564159795642">
        <ele>11.6</ele>
        <time>2026-06-05T10:42:03</time>
      </trkpt>
      <trkpt lat="36.0203449241817" lon="129.35644699260592">
        <ele>11.4</ele>
        <time>2026-06-05T10:42:04</time>
      </trkpt>
      <trkpt lat="36.0203639511019" lon="129.35647792182863">
        <ele>11.4</ele>
        <time>2026-06-05T10:42:05</time>
      </trkpt>
      <trkpt lat="36.02038792334497" lon="129.35650591738522">
        <ele>11.2</ele>
        <time>2026-06-05T10:42:06</time>
      </trkpt>
      <trkpt lat="36.020417930558324" lon="129.35652293264866">
        <ele>11.2</ele>
        <time>2026-06-05T10:42:07</time>
      </trkpt>
      <trkpt lat="36.0204519610852" lon="129.35652494430542">
        <ele>11.0</ele>
        <time>2026-06-05T10:42:08</time>
      </trkpt>
      <trkpt lat="36.020487919449806" lon="129.35651597566903">
        <ele>11.0</ele>
        <time>2026-06-05T10:42:09</time>
      </trkpt>
      <trkpt lat="36.020524967461824" lon="129.35650499537587">
        <ele>10.8</ele>
        <time>2026-06-05T10:42:10</time>
      </trkpt>
      <trkpt lat="36.02056293748319" lon="129.35649694874883">
        <ele>10.8</ele>
        <time>2026-06-05T10:42:11</time>
      </trkpt>
      <trkpt lat="36.02060099132359" lon="129.35649594292045">
        <ele>10.6</ele>
        <time>2026-06-05T10:42:12</time>
      </trkpt>
      <trkpt lat="36.02063795551658" lon="129.3565029837191">
        <ele>10.6</ele>
        <time>2026-06-05T10:42:13</time>
      </trkpt>
      <trkpt lat="36.020673997700214" lon="129.35651899315417">
        <ele>10.4</ele>
        <time>2026-06-05T10:42:14</time>
      </trkpt>
      <trkpt lat="36.0207059327513" lon="129.35654095374048">
        <ele>10.4</ele>
        <time>2026-06-05T10:42:15</time>
      </trkpt>
      <trkpt lat="36.02073392830789" lon="129.35656593181193">
        <ele>10.4</ele>
        <time>2026-06-05T10:42:16</time>
      </trkpt>
      <trkpt lat="36.020759996026754" lon="129.35658898204565">
        <ele>10.4</ele>
        <time>2026-06-05T10:42:17</time>
      </trkpt>
      <trkpt lat="36.02078095078468" lon="129.3566089309752">
        <ele>10.4</ele>
        <time>2026-06-05T10:42:18</time>
      </trkpt>
      <trkpt lat="36.02079696021974" lon="129.35662494041026">
        <ele>10.2</ele>
        <time>2026-06-05T10:42:19</time>
      </trkpt>
      <trkpt lat="36.02081498131156" lon="129.3566409498453">
        <ele>10.2</ele>
        <time>2026-06-05T10:42:20</time>
      </trkpt>
      <trkpt lat="36.02083392441273" lon="129.35665695928037">
        <ele>10.2</ele>
        <time>2026-06-05T10:42:21</time>
      </trkpt>
      <trkpt lat="36.02085395716131" lon="129.35667598620057">
        <ele>10.0</ele>
        <time>2026-06-05T10:42:22</time>
      </trkpt>
      <trkpt lat="36.020876923576" lon="129.35669593513012">
        <ele>10.2</ele>
        <time>2026-06-05T10:42:23</time>
      </trkpt>
      <trkpt lat="36.0209009796381" lon="129.35671395622194">
        <ele>10.2</ele>
        <time>2026-06-05T10:42:24</time>
      </trkpt>
      <trkpt lat="36.02092696353793" lon="129.35673398897052">
        <ele>10.2</ele>
        <time>2026-06-05T10:42:25</time>
      </trkpt>
      <trkpt lat="36.020955964922905" lon="129.35675494372845">
        <ele>10.2</ele>
        <time>2026-06-05T10:42:26</time>
      </trkpt>
      <trkpt lat="36.02098798379302" lon="129.3567759823054">
        <ele>10.2</ele>
        <time>2026-06-05T10:42:27</time>
      </trkpt>
      <trkpt lat="36.021020924672484" lon="129.35679995454848">
        <ele>10.2</ele>
        <time>2026-06-05T10:42:28</time>
      </trkpt>
      <trkpt lat="36.02105696685612" lon="129.3568259384483">
        <ele>10.2</ele>
        <time>2026-06-05T10:42:29</time>
      </trkpt>
      <trkpt lat="36.02109493687749" lon="129.3568539340049">
        <ele>10.4</ele>
        <time>2026-06-05T10:42:30</time>
      </trkpt>
      <trkpt lat="36.02113491855562" lon="129.35688293538988">
        <ele>10.4</ele>
        <time>2026-06-05T10:42:31</time>
      </trkpt>
      <trkpt lat="36.02117498405278" lon="129.35691294260323">
        <ele>10.6</ele>
        <time>2026-06-05T10:42:32</time>
      </trkpt>
      <trkpt lat="36.021215971559286" lon="129.35694395564497">
        <ele>10.6</ele>
        <time>2026-06-05T10:42:33</time>
      </trkpt>
      <trkpt lat="36.021257964894176" lon="129.35697597451508">
        <ele>10.6</ele>
        <time>2026-06-05T10:42:34</time>
      </trkpt>
      <trkpt lat="36.021298952400684" lon="129.35700899921358">
        <ele>10.6</ele>
        <time>2026-06-05T10:42:35</time>
      </trkpt>
      <trkpt lat="36.02133893407881" lon="129.35704194009304">
        <ele>10.6</ele>
        <time>2026-06-05T10:42:36</time>
      </trkpt>
      <trkpt lat="36.02137899957597" lon="129.35707597061992">
        <ele>10.6</ele>
        <time>2026-06-05T10:42:37</time>
      </trkpt>
      <trkpt lat="36.0214189812541" lon="129.35710991732776">
        <ele>10.6</ele>
        <time>2026-06-05T10:42:38</time>
      </trkpt>
      <trkpt lat="36.02145896293223" lon="129.35714394785464">
        <ele>10.6</ele>
        <time>2026-06-05T10:42:39</time>
      </trkpt>
      <trkpt lat="36.021496932953596" lon="129.35717496089637">
        <ele>10.6</ele>
        <time>2026-06-05T10:42:40</time>
      </trkpt>
      <trkpt lat="36.021534986793995" lon="129.3572059739381">
        <ele>10.6</ele>
        <time>2026-06-05T10:42:41</time>
      </trkpt>
      <trkpt lat="36.02156993933022" lon="129.35723296366632">
        <ele>10.6</ele>
        <time>2026-06-05T10:42:42</time>
      </trkpt>
      <trkpt lat="36.02159692905843" lon="129.3572569359094">
        <ele>10.6</ele>
        <time>2026-06-05T10:42:43</time>
      </trkpt>
      <trkpt lat="36.02161595597863" lon="129.35727797448635">
        <ele>10.6</ele>
        <time>2026-06-05T10:42:44</time>
      </trkpt>
      <trkpt lat="36.02162794210017" lon="129.35729993507266">
        <ele>10.6</ele>
        <time>2026-06-05T10:42:45</time>
      </trkpt>
      <trkpt lat="36.02163196541369" lon="129.35731996782124">
        <ele>10.8</ele>
        <time>2026-06-05T10:42:46</time>
      </trkpt>
      <trkpt lat="36.02163397707045" lon="129.35733497142792">
        <ele>11.0</ele>
        <time>2026-06-05T10:42:47</time>
      </trkpt>
      <trkpt lat="36.02163196541369" lon="129.35734192840755">
        <ele>11.2</ele>
        <time>2026-06-05T10:42:48</time>
      </trkpt>
      <trkpt lat="36.02162894792855" lon="129.3573439400643">
        <ele>11.2</ele>
        <time>2026-06-05T10:42:49</time>
      </trkpt>
      <trkpt lat="36.021625930443406" lon="129.35734293423593">
        <ele>11.2</ele>
        <time>2026-06-05T10:42:50</time>
      </trkpt>
      <trkpt lat="36.021661972627044" lon="129.3573629669845">
        <ele>10.4</ele>
        <time>2026-06-05T10:44:11</time>
      </trkpt>
      <trkpt lat="36.02168192155659" lon="129.35736497864127">
        <ele>10.8</ele>
        <time>2026-06-05T10:44:12</time>
      </trkpt>
      <trkpt lat="36.02170396596193" lon="129.35736992396414">
        <ele>11.0</ele>
        <time>2026-06-05T10:44:13</time>
      </trkpt>
      <trkpt lat="36.02172693237662" lon="129.35738098807633">
        <ele>11.2</ele>
        <time>2026-06-05T10:44:14</time>
      </trkpt>
      <trkpt lat="36.021750988438725" lon="129.35739791952074">
        <ele>11.4</ele>
        <time>2026-06-05T10:44:15</time>
      </trkpt>
      <trkpt lat="36.02177797816694" lon="129.35741795226932">
        <ele>11.4</ele>
        <time>2026-06-05T10:44:16</time>
      </trkpt>
      <trkpt lat="36.02180798538029" lon="129.35743899084628">
        <ele>11.6</ele>
        <time>2026-06-05T10:44:17</time>
      </trkpt>
      <trkpt lat="36.02184193208814" lon="129.35746195726097">
        <ele>11.4</ele>
        <time>2026-06-05T10:44:18</time>
      </trkpt>
      <trkpt lat="36.02187596261501" lon="129.35748693533242">
        <ele>11.4</ele>
        <time>2026-06-05T10:44:19</time>
      </trkpt>
      <trkpt lat="36.02191192097962" lon="129.3575159367174">
        <ele>11.2</ele>
        <time>2026-06-05T10:44:20</time>
      </trkpt>
      <trkpt lat="36.02194997482002" lon="129.35754694975913">
        <ele>11.0</ele>
        <time>2026-06-05T10:44:21</time>
      </trkpt>
      <trkpt lat="36.021986939013004" lon="129.35757796280086">
        <ele>11.0</ele>
        <time>2026-06-05T10:44:22</time>
      </trkpt>
      <trkpt lat="36.02202692069113" lon="129.3576089758426">
        <ele>11.0</ele>
        <time>2026-06-05T10:44:23</time>
      </trkpt>
      <trkpt lat="36.0220699198544" lon="129.35763998888433">
        <ele>11.0</ele>
        <time>2026-06-05T10:44:24</time>
      </trkpt>
      <trkpt lat="36.02211099117994" lon="129.3576729297638">
        <ele>11.0</ele>
        <time>2026-06-05T10:44:25</time>
      </trkpt>
      <trkpt lat="36.02215298451483" lon="129.35770796611905">
        <ele>11.0</ele>
        <time>2026-06-05T10:44:26</time>
      </trkpt>
      <trkpt lat="36.02219497784972" lon="129.35774593614042">
        <ele>11.0</ele>
        <time>2026-06-05T10:44:27</time>
      </trkpt>
      <trkpt lat="36.02223697118461" lon="129.35778398998082">
        <ele>11.0</ele>
        <time>2026-06-05T10:44:28</time>
      </trkpt>
      <trkpt lat="36.02227997034788" lon="129.3578209541738">
        <ele>11.0</ele>
        <time>2026-06-05T10:44:29</time>
      </trkpt>
      <trkpt lat="36.02232498116791" lon="129.35785699635744">
        <ele>11.0</ele>
        <time>2026-06-05T10:44:30</time>
      </trkpt>
      <trkpt lat="36.022372925654054" lon="129.35789295472205">
        <ele>11.0</ele>
        <time>2026-06-05T10:44:31</time>
      </trkpt>
      <trkpt lat="36.022419948130846" lon="129.35792899690568">
        <ele>11.0</ele>
        <time>2026-06-05T10:44:32</time>
      </trkpt>
      <trkpt lat="36.02246797643602" lon="129.35796596109867">
        <ele>11.0</ele>
        <time>2026-06-05T10:44:33</time>
      </trkpt>
      <trkpt lat="36.02251399308443" lon="129.35800191946328">
        <ele>11.0</ele>
        <time>2026-06-05T10:44:34</time>
      </trkpt>
      <trkpt lat="36.02255799807608" lon="129.35804097913206">
        <ele>11.2</ele>
        <time>2026-06-05T10:44:35</time>
      </trkpt>
      <trkpt lat="36.02259898558259" lon="129.3580799549818">
        <ele>11.2</ele>
        <time>2026-06-05T10:44:36</time>
      </trkpt>
      <trkpt lat="36.02263695560396" lon="129.35811499133706">
        <ele>11.2</ele>
        <time>2026-06-05T10:44:37</time>
      </trkpt>
      <trkpt lat="36.022675931453705" lon="129.35814499855042">
        <ele>11.4</ele>
        <time>2026-06-05T10:44:38</time>
      </trkpt>
      <trkpt lat="36.022714991122484" lon="129.35817198827863">
        <ele>11.4</ele>
        <time>2026-06-05T10:44:39</time>
      </trkpt>
      <trkpt lat="36.02275296114385" lon="129.35819998383522">
        <ele>11.2</ele>
        <time>2026-06-05T10:44:40</time>
      </trkpt>
      <trkpt lat="36.02279294282198" lon="129.35822596773505">
        <ele>11.0</ele>
        <time>2026-06-05T10:44:41</time>
      </trkpt>
      <trkpt lat="36.02283191867173" lon="129.35825396329165">
        <ele>11.0</ele>
        <time>2026-06-05T10:44:42</time>
      </trkpt>
      <trkpt lat="36.022869972512126" lon="129.35828195884824">
        <ele>10.8</ele>
        <time>2026-06-05T10:44:43</time>
      </trkpt>
      <trkpt lat="36.02290593087673" lon="129.3583109602332">
        <ele>10.8</ele>
        <time>2026-06-05T10:44:44</time>
      </trkpt>
      <trkpt lat="36.02293996140361" lon="129.35833794996142">
        <ele>10.6</ele>
        <time>2026-06-05T10:44:45</time>
      </trkpt>
      <trkpt lat="36.02296996861696" lon="129.35836594551802">
        <ele>10.4</ele>
        <time>2026-06-05T10:44:46</time>
      </trkpt>
      <trkpt lat="36.022995952516794" lon="129.35839293524623">
        <ele>10.4</ele>
        <time>2026-06-05T10:44:47</time>
      </trkpt>
      <trkpt lat="36.023018918931484" lon="129.35841497965157">
        <ele>10.4</ele>
        <time>2026-06-05T10:44:48</time>
      </trkpt>
      <trkpt lat="36.02304498665035" lon="129.3584359344095">
        <ele>10.6</ele>
        <time>2026-06-05T10:44:49</time>
      </trkpt>
      <trkpt lat="36.02307097055018" lon="129.35845797881484">
        <ele>10.4</ele>
        <time>2026-06-05T10:44:50</time>
      </trkpt>
      <trkpt lat="36.023100977763534" lon="129.3584829568863">
        <ele>10.4</ele>
        <time>2026-06-05T10:44:51</time>
      </trkpt>
      <trkpt lat="36.02313299663365" lon="129.35850692912936">
        <ele>10.2</ele>
        <time>2026-06-05T10:44:52</time>
      </trkpt>
      <trkpt lat="36.023166943341494" lon="129.35853299684823">
        <ele>10.2</ele>
        <time>2026-06-05T10:44:53</time>
      </trkpt>
      <trkpt lat="36.02320197969675" lon="129.3585619982332">
        <ele>10.0</ele>
        <time>2026-06-05T10:44:54</time>
      </trkpt>
      <trkpt lat="36.02323994971812" lon="129.35859393328428">
        <ele>9.8</ele>
        <time>2026-06-05T10:44:55</time>
      </trkpt>
      <trkpt lat="36.023279931396246" lon="129.35862695798278">
        <ele>9.8</ele>
        <time>2026-06-05T10:44:56</time>
      </trkpt>
      <trkpt lat="36.023319996893406" lon="129.35865998268127">
        <ele>9.8</ele>
        <time>2026-06-05T10:44:57</time>
      </trkpt>
      <trkpt lat="36.023362996056676" lon="129.358690995723">
        <ele>9.8</ele>
        <time>2026-06-05T10:44:58</time>
      </trkpt>
      <trkpt lat="36.023404989391565" lon="129.35872091911733">
        <ele>9.8</ele>
        <time>2026-06-05T10:44:59</time>
      </trkpt>
      <trkpt lat="36.023449916392565" lon="129.35875092633069">
        <ele>9.8</ele>
        <time>2026-06-05T10:45:00</time>
      </trkpt>
      <trkpt lat="36.023493921384215" lon="129.35877992771566">
        <ele>9.6</ele>
        <time>2026-06-05T10:45:01</time>
      </trkpt>
      <trkpt lat="36.02351697161794" lon="129.35880599543452">
        <ele>9.8</ele>
        <time>2026-06-05T10:45:02</time>
      </trkpt>
      <trkpt lat="36.02354094386101" lon="129.35883298516273">
        <ele>9.8</ele>
        <time>2026-06-05T10:45:03</time>
      </trkpt>
      <trkpt lat="36.02356499992311" lon="129.3588619865477">
        <ele>10.0</ele>
        <time>2026-06-05T10:45:04</time>
      </trkpt>
      <trkpt lat="36.02359492331743" lon="129.35888897627592">
        <ele>10.2</ele>
        <time>2026-06-05T10:45:05</time>
      </trkpt>
      <trkpt lat="36.02362995967269" lon="129.35891395434737">
        <ele>10.4</ele>
        <time>2026-06-05T10:45:06</time>
      </trkpt>
      <trkpt lat="36.02366792969406" lon="129.3589399382472">
        <ele>10.4</ele>
        <time>2026-06-05T10:45:07</time>
      </trkpt>
      <trkpt lat="36.02371394634247" lon="129.35896692797542">
        <ele>10.6</ele>
        <time>2026-06-05T10:45:08</time>
      </trkpt>
      <trkpt lat="36.0237639863044" lon="129.35899794101715">
        <ele>10.6</ele>
        <time>2026-06-05T10:45:09</time>
      </trkpt>
      <trkpt lat="36.02380991913378" lon="129.35903498902917">
        <ele>10.8</ele>
        <time>2026-06-05T10:45:10</time>
      </trkpt>
      <trkpt lat="36.0238469671458" lon="129.35907798819244">
        <ele>10.8</ele>
        <time>2026-06-05T10:45:11</time>
      </trkpt>
      <trkpt lat="36.02387295104563" lon="129.35912392102182">
        <ele>11.0</ele>
        <time>2026-06-05T10:45:12</time>
      </trkpt>
      <trkpt lat="36.02388594299555" lon="129.35916893184185">
        <ele>11.2</ele>
        <time>2026-06-05T10:45:13</time>
      </trkpt>
      <trkpt lat="36.023899940773845" lon="129.35920991934836">
        <ele>11.2</ele>
        <time>2026-06-05T10:45:14</time>
      </trkpt>
      <trkpt lat="36.023924918845296" lon="129.35924294404685">
        <ele>11.2</ele>
        <time>2026-06-05T10:45:15</time>
      </trkpt>
      <trkpt lat="36.02395794354379" lon="129.3592689279467">
        <ele>11.2</ele>
        <time>2026-06-05T10:45:16</time>
      </trkpt>
      <trkpt lat="36.0239989310503" lon="129.35928493738174">
        <ele>11.2</ele>
        <time>2026-06-05T10:45:17</time>
      </trkpt>
      <trkpt lat="36.02404193021357" lon="129.3592919781804">
        <ele>11.0</ele>
        <time>2026-06-05T10:45:18</time>
      </trkpt>
      <trkpt lat="36.02408492937684" lon="129.35929398983717">
        <ele>11.0</ele>
        <time>2026-06-05T10:45:19</time>
      </trkpt>
      <trkpt lat="36.02412398904562" lon="129.35929792933166">
        <ele>11.0</ele>
        <time>2026-06-05T10:45:20</time>
      </trkpt>
      <trkpt lat="36.024159947410226" lon="129.35931092128158">
        <ele>11.0</ele>
        <time>2026-06-05T10:45:21</time>
      </trkpt>
      <trkpt lat="36.02419498376548" lon="129.35932994820178">
        <ele>11.0</ele>
        <time>2026-06-05T10:45:22</time>
      </trkpt>
      <trkpt lat="36.02422792464495" lon="129.35935492627323">
        <ele>11.0</ele>
        <time>2026-06-05T10:45:23</time>
      </trkpt>
      <trkpt lat="36.02426094934344" lon="129.3593809939921">
        <ele>11.0</ele>
        <time>2026-06-05T10:45:24</time>
      </trkpt>
      <trkpt lat="36.02429699152708" lon="129.3594119232148">
        <ele>11.0</ele>
        <time>2026-06-05T10:45:25</time>
      </trkpt>
      <trkpt lat="36.02433395572007" lon="129.35944595374167">
        <ele>11.0</ele>
        <time>2026-06-05T10:45:26</time>
      </trkpt>
      <trkpt lat="36.024371925741434" lon="129.35947897844017">
        <ele>11.0</ele>
        <time>2026-06-05T10:45:27</time>
      </trkpt>
      <trkpt lat="36.02441098541021" lon="129.359512925148">
        <ele>11.0</ele>
        <time>2026-06-05T10:45:28</time>
      </trkpt>
      <trkpt lat="36.0244479496032" lon="129.35954393818974">
        <ele>11.0</ele>
        <time>2026-06-05T10:45:29</time>
      </trkpt>
      <trkpt lat="36.02448591962457" lon="129.35957696288824">
        <ele>11.0</ele>
        <time>2026-06-05T10:45:30</time>
      </trkpt>
      <trkpt lat="36.024524979293346" lon="129.35961292125285">
        <ele>11.0</ele>
        <time>2026-06-05T10:45:31</time>
      </trkpt>
      <trkpt lat="36.024564960971475" lon="129.35964695177972">
        <ele>11.0</ele>
        <time>2026-06-05T10:45:32</time>
      </trkpt>
      <trkpt lat="36.024606954306364" lon="129.3596809823066">
        <ele>11.0</ele>
        <time>2026-06-05T10:45:33</time>
      </trkpt>
      <trkpt lat="36.02464894764125" lon="129.35971199534833">
        <ele>11.0</ele>
        <time>2026-06-05T10:45:34</time>
      </trkpt>
      <trkpt lat="36.024692952632904" lon="129.35974393039942">
        <ele>11.0</ele>
        <time>2026-06-05T10:45:35</time>
      </trkpt>
      <trkpt lat="36.024736957624555" lon="129.35977494344115">
        <ele>11.0</ele>
        <time>2026-06-05T10:45:36</time>
      </trkpt>
      <trkpt lat="36.024779956787825" lon="129.35980696231127">
        <ele>11.0</ele>
        <time>2026-06-05T10:45:37</time>
      </trkpt>
      <trkpt lat="36.024821950122714" lon="129.35983998700976">
        <ele>11.0</ele>
        <time>2026-06-05T10:45:38</time>
      </trkpt>
      <trkpt lat="36.02486293762922" lon="129.35987091623247">
        <ele>11.0</ele>
        <time>2026-06-05T10:45:39</time>
      </trkpt>
      <trkpt lat="36.02490291930735" lon="129.35990293510258">
        <ele>11.0</ele>
        <time>2026-06-05T10:45:40</time>
      </trkpt>
      <trkpt lat="36.02494197897613" lon="129.35993394814432">
        <ele>10.8</ele>
        <time>2026-06-05T10:45:41</time>
      </trkpt>
      <trkpt lat="36.02498095482588" lon="129.35996496118605">
        <ele>10.8</ele>
        <time>2026-06-05T10:45:42</time>
      </trkpt>
      <trkpt lat="36.025019930675626" lon="129.35999698005617">
        <ele>10.8</ele>
        <time>2026-06-05T10:45:43</time>
      </trkpt>
      <trkpt lat="36.025058990344405" lon="129.36002497561276">
        <ele>10.8</ele>
        <time>2026-06-05T10:45:44</time>
      </trkpt>
      <trkpt lat="36.02509897202253" lon="129.36005196534097">
        <ele>10.6</ele>
        <time>2026-06-05T10:45:45</time>
      </trkpt>
      <trkpt lat="36.0251369420439" lon="129.3600779492408">
        <ele>10.6</ele>
        <time>2026-06-05T10:45:46</time>
      </trkpt>
      <trkpt lat="36.02517399005592" lon="129.3601059447974">
        <ele>10.6</ele>
        <time>2026-06-05T10:45:47</time>
      </trkpt>
      <trkpt lat="36.025210954248905" lon="129.36013595201075">
        <ele>10.4</ele>
        <time>2026-06-05T10:45:48</time>
      </trkpt>
      <trkpt lat="36.02524699643254" lon="129.36016696505249">
        <ele>10.4</ele>
        <time>2026-06-05T10:45:49</time>
      </trkpt>
      <trkpt lat="36.02528396062553" lon="129.36019797809422">
        <ele>10.4</ele>
        <time>2026-06-05T10:45:50</time>
      </trkpt>
      <trkpt lat="36.025319918990135" lon="129.36022899113595">
        <ele>10.2</ele>
        <time>2026-06-05T10:45:51</time>
      </trkpt>
      <trkpt lat="36.02535294368863" lon="129.36026193201542">
        <ele>10.2</ele>
        <time>2026-06-05T10:45:52</time>
      </trkpt>
      <trkpt lat="36.025384962558746" lon="129.36029395088553">
        <ele>10.2</ele>
        <time>2026-06-05T10:45:53</time>
      </trkpt>
      <trkpt lat="36.02541698142886" lon="129.3603229522705">
        <ele>10.2</ele>
        <time>2026-06-05T10:45:54</time>
      </trkpt>
      <trkpt lat="36.025449922308326" lon="129.36035295948386">
        <ele>10.2</ele>
        <time>2026-06-05T10:45:55</time>
      </trkpt>
      <trkpt lat="36.02548495866358" lon="129.3603779375553">
        <ele>10.2</ele>
        <time>2026-06-05T10:45:56</time>
      </trkpt>
      <trkpt lat="36.02552192285657" lon="129.36039998196065">
        <ele>10.2</ele>
        <time>2026-06-05T10:45:57</time>
      </trkpt>
      <trkpt lat="36.02555796504021" lon="129.36042395420372">
        <ele>10.4</ele>
        <time>2026-06-05T10:45:58</time>
      </trkpt>
      <trkpt lat="36.02559492923319" lon="129.36045094393194">
        <ele>10.4</ele>
        <time>2026-06-05T10:45:59</time>
      </trkpt>
      <trkpt lat="36.02562895976007" lon="129.36048296280205">
        <ele>10.6</ele>
        <time>2026-06-05T10:46:00</time>
      </trkpt>
      <trkpt lat="36.025662990286946" lon="129.36051498167217">
        <ele>10.8</ele>
        <time>2026-06-05T10:46:01</time>
      </trkpt>
      <trkpt lat="36.02569794282317" lon="129.36054197140038">
        <ele>11.0</ele>
        <time>2026-06-05T10:46:02</time>
      </trkpt>
      <trkpt lat="36.02573398500681" lon="129.3605599924922">
        <ele>11.2</ele>
        <time>2026-06-05T10:46:03</time>
      </trkpt>
      <trkpt lat="36.02576692588627" lon="129.36057499609888">
        <ele>11.2</ele>
        <time>2026-06-05T10:46:04</time>
      </trkpt>
      <trkpt lat="36.02579793892801" lon="129.36059393920004">
        <ele>11.0</ele>
        <time>2026-06-05T10:46:05</time>
      </trkpt>
      <trkpt lat="36.02582794614136" lon="129.36061992309988">
        <ele>11.0</ele>
        <time>2026-06-05T10:46:06</time>
      </trkpt>
      <trkpt lat="36.025856947526336" lon="129.36064791865647">
        <ele>11.0</ele>
        <time>2026-06-05T10:46:07</time>
      </trkpt>
      <trkpt lat="36.02588796056807" lon="129.3606789316982">
        <ele>11.0</ele>
        <time>2026-06-05T10:46:08</time>
      </trkpt>
      <trkpt lat="36.02592199109495" lon="129.36070994473994">
        <ele>11.0</ele>
        <time>2026-06-05T10:46:09</time>
      </trkpt>
      <trkpt lat="36.02595794945955" lon="129.36074196361005">
        <ele>11.0</ele>
        <time>2026-06-05T10:46:10</time>
      </trkpt>
      <trkpt lat="36.0259969253093" lon="129.36077398248017">
        <ele>11.0</ele>
        <time>2026-06-05T10:46:11</time>
      </trkpt>
      <trkpt lat="36.02603799663484" lon="129.36080591753125">
        <ele>11.0</ele>
        <time>2026-06-05T10:46:12</time>
      </trkpt>
      <trkpt lat="36.02607998996973" lon="129.36083894222975">
        <ele>11.0</ele>
        <time>2026-06-05T10:46:13</time>
      </trkpt>
      <trkpt lat="36.02612097747624" lon="129.36087297275662">
        <ele>11.0</ele>
        <time>2026-06-05T10:46:14</time>
      </trkpt>
      <trkpt lat="36.02616095915437" lon="129.36090792529285">
        <ele>11.0</ele>
        <time>2026-06-05T10:46:15</time>
      </trkpt>
      <trkpt lat="36.02620295248926" lon="129.36094195581973">
        <ele>11.0</ele>
        <time>2026-06-05T10:46:16</time>
      </trkpt>
      <trkpt lat="36.026243939995766" lon="129.36097498051822">
        <ele>11.0</ele>
        <time>2026-06-05T10:46:17</time>
      </trkpt>
      <trkpt lat="36.026285933330655" lon="129.3610079213977">
        <ele>11.0</ele>
        <time>2026-06-05T10:46:18</time>
      </trkpt>
      <trkpt lat="36.026327926665545" lon="129.3610399402678">
        <ele>11.0</ele>
        <time>2026-06-05T10:46:19</time>
      </trkpt>
      <trkpt lat="36.026369920000434" lon="129.3610729649663">
        <ele>11.0</ele>
        <time>2026-06-05T10:46:20</time>
      </trkpt>
      <trkpt lat="36.026411997154355" lon="129.3611049838364">
        <ele>11.0</ele>
        <time>2026-06-05T10:46:21</time>
      </trkpt>
      <trkpt lat="36.02645197883248" lon="129.36113599687815">
        <ele>11.0</ele>
        <time>2026-06-05T10:46:22</time>
      </trkpt>
      <trkpt lat="36.02648994885385" lon="129.36116592027247">
        <ele>11.0</ele>
        <time>2026-06-05T10:46:23</time>
      </trkpt>
      <trkpt lat="36.02652699686587" lon="129.36119492165744">
        <ele>10.8</ele>
        <time>2026-06-05T10:46:24</time>
      </trkpt>
      <trkpt lat="36.026561949402094" lon="129.36122291721404">
        <ele>10.8</ele>
        <time>2026-06-05T10:46:25</time>
      </trkpt>
      <trkpt lat="36.02659597992897" lon="129.36125099658966">
        <ele>10.8</ele>
        <time>2026-06-05T10:46:26</time>
      </trkpt>
      <trkpt lat="36.026629926636815" lon="129.36127999797463">
        <ele>10.8</ele>
        <time>2026-06-05T10:46:28</time>
      </trkpt>
      <trkpt lat="36.02666295133531" lon="129.36130799353123">
        <ele>10.8</ele>
        <time>2026-06-05T10:46:29</time>
      </trkpt>
      <trkpt lat="36.026694970205426" lon="129.3613369949162">
        <ele>10.8</ele>
        <time>2026-06-05T10:46:30</time>
      </trkpt>
      <trkpt lat="36.02672598324716" lon="129.3613649904728">
        <ele>10.8</ele>
        <time>2026-06-05T10:46:31</time>
      </trkpt>
      <trkpt lat="36.026757918298244" lon="129.361391980201">
        <ele>10.8</ele>
        <time>2026-06-05T10:46:32</time>
      </trkpt>
      <trkpt lat="36.02679094299674" lon="129.36141695827246">
        <ele>10.8</ele>
        <time>2026-06-05T10:46:33</time>
      </trkpt>
      <trkpt lat="36.02682497352362" lon="129.36144394800067">
        <ele>10.8</ele>
        <time>2026-06-05T10:46:34</time>
      </trkpt>
      <trkpt lat="36.02685992605984" lon="129.36147093772888">
        <ele>10.6</ele>
        <time>2026-06-05T10:46:35</time>
      </trkpt>
      <trkpt lat="36.02691499516368" lon="129.36151494272053">
        <ele>10.6</ele>
        <time>2026-06-05T10:46:36</time>
      </trkpt>
      <trkpt lat="36.02696193382144" lon="129.36155593022704">
        <ele>10.6</ele>
        <time>2026-06-05T10:46:37</time>
      </trkpt>
      <trkpt lat="36.02700292132795" lon="129.36158996075392">
        <ele>10.6</ele>
        <time>2026-06-05T10:46:38</time>
      </trkpt>
      <trkpt lat="36.027038963511586" lon="129.36162097379565">
        <ele>10.6</ele>
        <time>2026-06-05T10:46:39</time>
      </trkpt>
      <trkpt lat="36.02706997655332" lon="129.3616519868374">
        <ele>10.6</ele>
        <time>2026-06-05T10:46:40</time>
      </trkpt>
      <trkpt lat="36.02709596045315" lon="129.36168492771685">
        <ele>10.6</ele>
        <time>2026-06-05T10:46:41</time>
      </trkpt>
      <trkpt lat="36.027120938524604" lon="129.36171694658697">
        <ele>10.6</ele>
        <time>2026-06-05T10:46:42</time>
      </trkpt>
      <trkpt lat="36.027146922424436" lon="129.36174594797194">
        <ele>10.4</ele>
        <time>2026-06-05T10:46:43</time>
      </trkpt>
      <trkpt lat="36.02717592380941" lon="129.36177293770015">
        <ele>10.4</ele>
        <time>2026-06-05T10:46:44</time>
      </trkpt>
      <trkpt lat="36.027206936851144" lon="129.3617949821055">
        <ele>10.4</ele>
        <time>2026-06-05T10:46:45</time>
      </trkpt>
      <trkpt lat="36.02723593823612" lon="129.36180998571217">
        <ele>10.4</ele>
        <time>2026-06-05T10:46:46</time>
      </trkpt>
      <trkpt lat="36.027253959327936" lon="129.3618169426918">
        <ele>10.4</ele>
        <time>2026-06-05T10:46:47</time>
      </trkpt>
      <trkpt lat="36.02726192213595" lon="129.3618169426918">
        <ele>10.4</ele>
        <time>2026-06-05T10:46:48</time>
      </trkpt>
      <trkpt lat="36.02726292796433" lon="129.36181392520666">
        <ele>10.4</ele>
        <time>2026-06-05T10:46:49</time>
      </trkpt>
      <trkpt lat="36.02726091630757" lon="129.36180998571217">
        <ele>10.4</ele>
        <time>2026-06-05T10:46:50</time>
      </trkpt>
      <trkpt lat="36.02728798985481" lon="129.3618309404701">
        <ele>10.8</ele>
        <time>2026-06-05T10:48:04</time>
      </trkpt>
      <trkpt lat="36.02730894461274" lon="129.36185097321868">
        <ele>10.8</ele>
        <time>2026-06-05T10:48:05</time>
      </trkpt>
      <trkpt lat="36.02733199484646" lon="129.3618719279766">
        <ele>10.8</ele>
        <time>2026-06-05T10:48:06</time>
      </trkpt>
      <trkpt lat="36.027356972917914" lon="129.3618919607252">
        <ele>10.8</ele>
        <time>2026-06-05T10:48:07</time>
      </trkpt>
      <trkpt lat="36.02738597430289" lon="129.361909981817">
        <ele>10.8</ele>
        <time>2026-06-05T10:48:08</time>
      </trkpt>
      <trkpt lat="36.027418999001384" lon="129.36192699708045">
        <ele>10.8</ele>
        <time>2026-06-05T10:48:09</time>
      </trkpt>
      <trkpt lat="36.02745395153761" lon="129.3619459401816">
        <ele>10.8</ele>
        <time>2026-06-05T10:48:10</time>
      </trkpt>
      <trkpt lat="36.02749099954963" lon="129.36196798458695">
        <ele>10.8</ele>
        <time>2026-06-05T10:48:11</time>
      </trkpt>
      <trkpt lat="36.027529975399375" lon="129.36199497431517">
        <ele>10.8</ele>
        <time>2026-06-05T10:48:12</time>
      </trkpt>
      <trkpt lat="36.0275699570775" lon="129.36202296987176">
        <ele>10.8</ele>
        <time>2026-06-05T10:48:13</time>
      </trkpt>
      <trkpt lat="36.02760993875563" lon="129.36205197125673">
        <ele>10.8</ele>
        <time>2026-06-05T10:48:14</time>
      </trkpt>
      <trkpt lat="36.02765092626214" lon="129.3620819784701">
        <ele>10.8</ele>
        <time>2026-06-05T10:48:15</time>
      </trkpt>
      <trkpt lat="36.02768998593092" lon="129.36211198568344">
        <ele>10.8</ele>
        <time>2026-06-05T10:48:16</time>
      </trkpt>
      <trkpt lat="36.027726950123906" lon="129.36213998124003">
        <ele>10.8</ele>
        <time>2026-06-05T10:48:17</time>
      </trkpt>
      <trkpt lat="36.027762992307544" lon="129.36216697096825">
        <ele>10.8</ele>
        <time>2026-06-05T10:48:18</time>
      </trkpt>
      <trkpt lat="36.02779492735863" lon="129.3621919490397">
        <ele>10.8</ele>
        <time>2026-06-05T10:48:19</time>
      </trkpt>
      <trkpt lat="36.02782292291522" lon="129.36221592128277">
        <ele>10.8</ele>
        <time>2026-06-05T10:48:20</time>
      </trkpt>
      <trkpt lat="36.0278479848057" lon="129.36223595403135">
        <ele>10.8</ele>
        <time>2026-06-05T10:48:21</time>
      </trkpt>
      <trkpt lat="36.027872962877154" lon="129.36225095763803">
        <ele>10.8</ele>
        <time>2026-06-05T10:48:22</time>
      </trkpt>
      <trkpt lat="36.02790095843375" lon="129.36226696707308">
        <ele>10.8</ele>
        <time>2026-06-05T10:48:23</time>
      </trkpt>
      <trkpt lat="36.02792895399034" lon="129.36229093931615">
        <ele>10.8</ele>
        <time>2026-06-05T10:48:24</time>
      </trkpt>
      <trkpt lat="36.027958961203694" lon="129.3623219523579">
        <ele>10.6</ele>
        <time>2026-06-05T10:48:25</time>
      </trkpt>
      <trkpt lat="36.02799098007381" lon="129.36235497705638">
        <ele>10.6</ele>
        <time>2026-06-05T10:48:26</time>
      </trkpt>
      <trkpt lat="36.028024926781654" lon="129.36238791793585">
        <ele>10.6</ele>
        <time>2026-06-05T10:48:27</time>
      </trkpt>
      <trkpt lat="36.02806197479367" lon="129.36241993680596">
        <ele>10.6</ele>
        <time>2026-06-05T10:48:28</time>
      </trkpt>
      <trkpt lat="36.02809793315828" lon="129.3624509498477">
        <ele>10.6</ele>
        <time>2026-06-05T10:48:29</time>
      </trkpt>
      <trkpt lat="36.028133975341916" lon="129.36248095706105">
        <ele>10.6</ele>
        <time>2026-06-05T10:48:30</time>
      </trkpt>
      <trkpt lat="36.02816892787814" lon="129.36250995844603">
        <ele>10.6</ele>
        <time>2026-06-05T10:48:31</time>
      </trkpt>
      <trkpt lat="36.02820295840502" lon="129.362538959831">
        <ele>10.8</ele>
        <time>2026-06-05T10:48:32</time>
      </trkpt>
      <trkpt lat="36.028236988931894" lon="129.3625669553876">
        <ele>10.8</ele>
        <time>2026-06-05T10:48:33</time>
      </trkpt>
      <trkpt lat="36.02827093563974" lon="129.3625939451158">
        <ele>10.8</ele>
        <time>2026-06-05T10:48:34</time>
      </trkpt>
      <trkpt lat="36.028303960338235" lon="129.3626219406724">
        <ele>10.8</ele>
        <time>2026-06-05T10:48:35</time>
      </trkpt>
      <trkpt lat="36.02833991870284" lon="129.36264792457223">
        <ele>10.6</ele>
        <time>2026-06-05T10:48:36</time>
      </trkpt>
      <trkpt lat="36.02837596088648" lon="129.36267592012882">
        <ele>10.4</ele>
        <time>2026-06-05T10:48:37</time>
      </trkpt>
      <trkpt lat="36.028412925079465" lon="129.36270693317056">
        <ele>10.2</ele>
        <time>2026-06-05T10:48:38</time>
      </trkpt>
      <trkpt lat="36.028451984748244" lon="129.36273995786905">
        <ele>10.0</ele>
        <time>2026-06-05T10:48:39</time>
      </trkpt>
      <trkpt lat="36.02849096059799" lon="129.36277298256755">
        <ele>10.0</ele>
        <time>2026-06-05T10:48:40</time>
      </trkpt>
      <trkpt lat="36.02853094227612" lon="129.362805923447">
        <ele>10.2</ele>
        <time>2026-06-05T10:48:41</time>
      </trkpt>
      <trkpt lat="36.02857092395425" lon="129.3628399539739">
        <ele>10.2</ele>
        <time>2026-06-05T10:48:42</time>
      </trkpt>
      <trkpt lat="36.02861098945141" lon="129.36287297867239">
        <ele>10.4</ele>
        <time>2026-06-05T10:48:43</time>
      </trkpt>
      <trkpt lat="36.02865197695792" lon="129.3629049975425">
        <ele>10.4</ele>
        <time>2026-06-05T10:48:44</time>
      </trkpt>
      <trkpt lat="36.028692964464426" lon="129.36293399892747">
        <ele>10.6</ele>
        <time>2026-06-05T10:48:45</time>
      </trkpt>
      <trkpt lat="36.028731940314174" lon="129.36296199448407">
        <ele>10.6</ele>
        <time>2026-06-05T10:48:46</time>
      </trkpt>
      <trkpt lat="36.02876999415457" lon="129.36298898421228">
        <ele>10.6</ele>
        <time>2026-06-05T10:48:47</time>
      </trkpt>
      <trkpt lat="36.02880796417594" lon="129.3630159739405">
        <ele>10.8</ele>
        <time>2026-06-05T10:48:48</time>
      </trkpt>
      <trkpt lat="36.028843922540545" lon="129.36304396949708">
        <ele>10.8</ele>
        <time>2026-06-05T10:48:49</time>
      </trkpt>
      <trkpt lat="36.028880970552564" lon="129.36307196505368">
        <ele>11.0</ele>
        <time>2026-06-05T10:48:50</time>
      </trkpt>
      <trkpt lat="36.02891793474555" lon="129.36310096643865">
        <ele>11.0</ele>
        <time>2026-06-05T10:48:51</time>
      </trkpt>
      <trkpt lat="36.02895598858595" lon="129.36312896199524">
        <ele>11.0</ele>
        <time>2026-06-05T10:48:52</time>
      </trkpt>
      <trkpt lat="36.028993958607316" lon="129.36315595172346">
        <ele>11.0</ele>
        <time>2026-06-05T10:48:53</time>
      </trkpt>
      <trkpt lat="36.02903192862868" lon="129.36317992396653">
        <ele>11.0</ele>
        <time>2026-06-05T10:48:54</time>
      </trkpt>
      <trkpt lat="36.0290689766407" lon="129.3632059916854">
        <ele>11.0</ele>
        <time>2026-06-05T10:48:55</time>
      </trkpt>
      <trkpt lat="36.029102923348546" lon="129.36323599889874">
        <ele>11.0</ele>
        <time>2026-06-05T10:48:56</time>
      </trkpt>
      <trkpt lat="36.02913393639028" lon="129.3632689397782">
        <ele>11.0</ele>
        <time>2026-06-05T10:48:57</time>
      </trkpt>
      <trkpt lat="36.029165955260396" lon="129.36330397613347">
        <ele>11.0</ele>
        <time>2026-06-05T10:48:58</time>
      </trkpt>
      <trkpt lat="36.02919596247375" lon="129.36334194615483">
        <ele>11.0</ele>
        <time>2026-06-05T10:48:59</time>
      </trkpt>
      <trkpt lat="36.029227981343865" lon="129.36337798833847">
        <ele>11.0</ele>
        <time>2026-06-05T10:49:00</time>
      </trkpt>
      <trkpt lat="36.02926092222333" lon="129.36340992338955">
        <ele>10.8</ele>
        <time>2026-06-05T10:49:01</time>
      </trkpt>
      <trkpt lat="36.029294952750206" lon="129.36343892477453">
        <ele>10.8</ele>
        <time>2026-06-05T10:49:02</time>
      </trkpt>
      <trkpt lat="36.02932697162032" lon="129.3634679261595">
        <ele>10.8</ele>
        <time>2026-06-05T10:49:03</time>
      </trkpt>
      <trkpt lat="36.029356978833675" lon="129.3634959217161">
        <ele>11.0</ele>
        <time>2026-06-05T10:49:04</time>
      </trkpt>
      <trkpt lat="36.02938799187541" lon="129.3635199777782">
        <ele>11.2</ele>
        <time>2026-06-05T10:49:05</time>
      </trkpt>
      <trkpt lat="36.02941892109811" lon="129.3635429441929">
        <ele>11.4</ele>
        <time>2026-06-05T10:49:06</time>
      </trkpt>
      <trkpt lat="36.02944993413985" lon="129.3635609652847">
        <ele>11.6</ele>
        <time>2026-06-05T10:49:07</time>
      </trkpt>
      <trkpt lat="36.02948094718158" lon="129.3635799922049">
        <ele>11.4</ele>
        <time>2026-06-05T10:49:08</time>
      </trkpt>
      <trkpt lat="36.029509948566556" lon="129.36359994113445">
        <ele>11.2</ele>
        <time>2026-06-05T10:49:09</time>
      </trkpt>
      <trkpt lat="36.02953794412315" lon="129.36362399719656">
        <ele>11.0</ele>
        <time>2026-06-05T10:49:10</time>
      </trkpt>
      <trkpt lat="36.02956694550812" lon="129.36365098692477">
        <ele>10.6</ele>
        <time>2026-06-05T10:49:11</time>
      </trkpt>
      <trkpt lat="36.02959795854986" lon="129.36367898248136">
        <ele>10.2</ele>
        <time>2026-06-05T10:49:12</time>
      </trkpt>
      <trkpt lat="36.02962897159159" lon="129.36370597220957">
        <ele>10.0</ele>
        <time>2026-06-05T10:49:13</time>
      </trkpt>
      <trkpt lat="36.02966199629009" lon="129.36373095028102">
        <ele>9.8</ele>
        <time>2026-06-05T10:49:14</time>
      </trkpt>
      <trkpt lat="36.02969191968441" lon="129.3637539166957">
        <ele>9.6</ele>
        <time>2026-06-05T10:49:15</time>
      </trkpt>
      <trkpt lat="36.029717987403274" lon="129.3637739494443">
        <ele>9.6</ele>
        <time>2026-06-05T10:49:16</time>
      </trkpt>
      <trkpt lat="36.029741959646344" lon="129.36379398219287">
        <ele>9.6</ele>
        <time>2026-06-05T10:49:17</time>
      </trkpt>
      <trkpt lat="36.029761992394924" lon="129.3638109974563">
        <ele>9.8</ele>
        <time>2026-06-05T10:49:18</time>
      </trkpt>
      <trkpt lat="36.02977992966771" lon="129.36382398940623">
        <ele>10.0</ele>
        <time>2026-06-05T10:49:19</time>
      </trkpt>
      <trkpt lat="36.02979199960828" lon="129.36383094638586">
        <ele>10.4</ele>
        <time>2026-06-05T10:49:20</time>
      </trkpt>
      <trkpt lat="36.02979795075953" lon="129.36383195221424">
        <ele>10.8</ele>
        <time>2026-06-05T10:49:21</time>
      </trkpt>
      <trkpt lat="36.02979996241629" lon="129.36383094638586">
        <ele>11.2</ele>
        <time>2026-06-05T10:49:22</time>
      </trkpt>
      <trkpt lat="36.02980096824467" lon="129.36382792890072">
        <ele>11.4</ele>
        <time>2026-06-05T10:49:23</time>
      </trkpt>
      <trkpt lat="36.029935916885734" lon="129.3638059683144">
        <ele>11.2</ele>
        <time>2026-06-05T10:51:04</time>
      </trkpt>
      <trkpt lat="36.029956955462694" lon="129.36382591724396">
        <ele>11.2</ele>
        <time>2026-06-05T10:51:05</time>
      </trkpt>
      <trkpt lat="36.029980927705765" lon="129.36385097913444">
        <ele>11.2</ele>
        <time>2026-06-05T10:51:06</time>
      </trkpt>
      <trkpt lat="36.03000699542463" lon="129.36387796886265">
        <ele>11.0</ele>
        <time>2026-06-05T10:51:07</time>
      </trkpt>
      <trkpt lat="36.03003499098122" lon="129.363907976076">
        <ele>11.0</ele>
        <time>2026-06-05T10:51:08</time>
      </trkpt>
      <trkpt lat="36.030064998194575" lon="129.36393999494612">
        <ele>10.8</ele>
        <time>2026-06-05T10:51:09</time>
      </trkpt>
      <trkpt lat="36.03009793907404" lon="129.3639729358256">
        <ele>10.8</ele>
        <time>2026-06-05T10:51:10</time>
      </trkpt>
      <trkpt lat="36.0301329754293" lon="129.36400596052408">
        <ele>10.8</ele>
        <time>2026-06-05T10:51:11</time>
      </trkpt>
      <trkpt lat="36.03016993962228" lon="129.3640379793942">
        <ele>10.6</ele>
        <time>2026-06-05T10:51:12</time>
      </trkpt>
      <trkpt lat="36.03020598180592" lon="129.36407192610204">
        <ele>10.6</ele>
        <time>2026-06-05T10:51:13</time>
      </trkpt>
      <trkpt lat="36.03024194017053" lon="129.36410495080054">
        <ele>10.6</ele>
        <time>2026-06-05T10:51:14</time>
      </trkpt>
      <trkpt lat="36.03027697652578" lon="129.36413898132741">
        <ele>10.4</ele>
        <time>2026-06-05T10:51:15</time>
      </trkpt>
      <trkpt lat="36.03031293489039" lon="129.36417192220688">
        <ele>10.4</ele>
        <time>2026-06-05T10:51:16</time>
      </trkpt>
      <trkpt lat="36.03034797124565" lon="129.3642029352486">
        <ele>10.6</ele>
        <time>2026-06-05T10:51:17</time>
      </trkpt>
      <trkpt lat="36.03038292378187" lon="129.36422891914845">
        <ele>10.6</ele>
        <time>2026-06-05T10:51:18</time>
      </trkpt>
      <trkpt lat="36.03041695430875" lon="129.36425398103893">
        <ele>10.6</ele>
        <time>2026-06-05T10:51:19</time>
      </trkpt>
      <trkpt lat="36.030451990664005" lon="129.364277953282">
        <ele>10.8</ele>
        <time>2026-06-05T10:51:20</time>
      </trkpt>
      <trkpt lat="36.03048593737185" lon="129.36430192552507">
        <ele>10.8</ele>
        <time>2026-06-05T10:51:21</time>
      </trkpt>
      <trkpt lat="36.030518962070346" lon="129.3643249757588">
        <ele>10.8</ele>
        <time>2026-06-05T10:51:22</time>
      </trkpt>
      <trkpt lat="36.03054695762694" lon="129.3643469363451">
        <ele>11.0</ele>
        <time>2026-06-05T10:51:23</time>
      </trkpt>
      <trkpt lat="36.03057294152677" lon="129.36436998657882">
        <ele>11.0</ele>
        <time>2026-06-05T10:51:24</time>
      </trkpt>
      <trkpt lat="36.03059791959822" lon="129.36439496465027">
        <ele>11.0</ele>
        <time>2026-06-05T10:51:25</time>
      </trkpt>
      <trkpt lat="36.030623987317085" lon="129.36442195437849">
        <ele>11.0</ele>
        <time>2026-06-05T10:51:26</time>
      </trkpt>
      <trkpt lat="36.03064997121692" lon="129.36444693244994">
        <ele>11.2</ele>
        <time>2026-06-05T10:51:27</time>
      </trkpt>
      <trkpt lat="36.03067696094513" lon="129.36446998268366">
        <ele>11.2</ele>
        <time>2026-06-05T10:51:28</time>
      </trkpt>
      <trkpt lat="36.03070395067334" lon="129.3644949607551">
        <ele>11.2</ele>
        <time>2026-06-05T10:51:29</time>
      </trkpt>
      <trkpt lat="36.03072993457317" lon="129.3645179271698">
        <ele>11.2</ele>
        <time>2026-06-05T10:51:30</time>
      </trkpt>
      <trkpt lat="36.030755918473005" lon="129.3645419832319">
        <ele>11.2</ele>
        <time>2026-06-05T10:51:31</time>
      </trkpt>
      <trkpt lat="36.03078098036349" lon="129.36456696130335">
        <ele>11.2</ele>
        <time>2026-06-05T10:51:32</time>
      </trkpt>
      <trkpt lat="36.03080495260656" lon="129.36459294520319">
        <ele>11.4</ele>
        <time>2026-06-05T10:51:33</time>
      </trkpt>
      <trkpt lat="36.03083294816315" lon="129.36462395824492">
        <ele>11.4</ele>
        <time>2026-06-05T10:51:34</time>
      </trkpt>
      <trkpt lat="36.030862955376506" lon="129.36465497128665">
        <ele>11.4</ele>
        <time>2026-06-05T10:51:35</time>
      </trkpt>
      <trkpt lat="36.030895980075" lon="129.3646849785">
        <ele>11.4</ele>
        <time>2026-06-05T10:51:36</time>
      </trkpt>
      <trkpt lat="36.03093093261123" lon="129.36471397988498">
        <ele>11.6</ele>
        <time>2026-06-05T10:51:37</time>
      </trkpt>
      <trkpt lat="36.0309649631381" lon="129.36474298126996">
        <ele>11.6</ele>
        <time>2026-06-05T10:51:38</time>
      </trkpt>
      <trkpt lat="36.03099899366498" lon="129.36476997099817">
        <ele>11.4</ele>
        <time>2026-06-05T10:51:39</time>
      </trkpt>
      <trkpt lat="36.031033946201205" lon="129.36479494906962">
        <ele>11.4</ele>
        <time>2026-06-05T10:51:40</time>
      </trkpt>
      <trkpt lat="36.03106898255646" lon="129.36481397598982">
        <ele>11.4</ele>
        <time>2026-06-05T10:51:41</time>
      </trkpt>
      <trkpt lat="36.0310999955982" lon="129.36482696793973">
        <ele>11.4</ele>
        <time>2026-06-05T10:51:42</time>
      </trkpt>
      <trkpt lat="36.0311309248209" lon="129.3648429773748">
        <ele>11.4</ele>
        <time>2026-06-05T10:51:43</time>
      </trkpt>
      <trkpt lat="36.03115892037749" lon="129.36486192047596">
        <ele>11.4</ele>
        <time>2026-06-05T10:51:44</time>
      </trkpt>
      <trkpt lat="36.03117694146931" lon="129.36488798819482">
        <ele>11.4</ele>
        <time>2026-06-05T10:51:45</time>
      </trkpt>
      <trkpt lat="36.031187921762466" lon="129.36491598375142">
        <ele>11.4</ele>
        <time>2026-06-05T10:51:46</time>
      </trkpt>
      <trkpt lat="36.03119697421789" lon="129.36494096182287">
        <ele>11.4</ele>
        <time>2026-06-05T10:51:47</time>
      </trkpt>
      <trkpt lat="36.03121197782457" lon="129.36496292240918">
        <ele>11.4</ele>
        <time>2026-06-05T10:51:48</time>
      </trkpt>
      <trkpt lat="36.0312329325825" lon="129.364980943501">
        <ele>11.4</ele>
        <time>2026-06-05T10:51:49</time>
      </trkpt>
      <trkpt lat="36.03125891648233" lon="129.36499695293605">
        <ele>11.2</ele>
        <time>2026-06-05T10:51:50</time>
      </trkpt>
      <trkpt lat="36.031289929524064" lon="129.36501597985625">
        <ele>11.2</ele>
        <time>2026-06-05T10:51:51</time>
      </trkpt>
      <trkpt lat="36.03132396005094" lon="129.36503391712904">
        <ele>11.0</ele>
        <time>2026-06-05T10:51:52</time>
      </trkpt>
      <trkpt lat="36.0313589964062" lon="129.365054955706">
        <ele>11.0</ele>
        <time>2026-06-05T10:51:53</time>
      </trkpt>
      <trkpt lat="36.0313949547708" lon="129.36507599428296">
        <ele>10.8</ele>
        <time>2026-06-05T10:51:54</time>
      </trkpt>
      <trkpt lat="36.03142999112606" lon="129.36509996652603">
        <ele>10.8</ele>
        <time>2026-06-05T10:51:55</time>
      </trkpt>
      <trkpt lat="36.031464943662286" lon="129.36512695625424">
        <ele>10.8</ele>
        <time>2026-06-05T10:51:56</time>
      </trkpt>
      <trkpt lat="36.03150098584592" lon="129.36515394598246">
        <ele>10.8</ele>
        <time>2026-06-05T10:51:57</time>
      </trkpt>
      <trkpt lat="36.03153493255377" lon="129.36518093571067">
        <ele>10.6</ele>
        <time>2026-06-05T10:51:58</time>
      </trkpt>
      <trkpt lat="36.03156695142388" lon="129.36520792543888">
        <ele>10.6</ele>
        <time>2026-06-05T10:51:59</time>
      </trkpt>
      <trkpt lat="36.03159796446562" lon="129.36523692682385">
        <ele>10.4</ele>
        <time>2026-06-05T10:52:00</time>
      </trkpt>
      <trkpt lat="36.03162797167897" lon="129.36526592820883">
        <ele>10.4</ele>
        <time>2026-06-05T10:52:01</time>
      </trkpt>
      <trkpt lat="36.031657978892326" lon="129.3652909900993">
        <ele>10.4</ele>
        <time>2026-06-05T10:52:02</time>
      </trkpt>
      <trkpt lat="36.03168798610568" lon="129.36531596817076">
        <ele>10.4</ele>
        <time>2026-06-05T10:52:03</time>
      </trkpt>
      <trkpt lat="36.03171598166227" lon="129.3653409462422">
        <ele>10.4</ele>
        <time>2026-06-05T10:52:04</time>
      </trkpt>
      <trkpt lat="36.031743977218866" lon="129.36536693014205">
        <ele>10.4</ele>
        <time>2026-06-05T10:52:05</time>
      </trkpt>
      <trkpt lat="36.03177398443222" lon="129.36539391987026">
        <ele>10.4</ele>
        <time>2026-06-05T10:52:06</time>
      </trkpt>
      <trkpt lat="36.031808936968446" lon="129.36541998758912">
        <ele>10.6</ele>
        <time>2026-06-05T10:52:07</time>
      </trkpt>
      <trkpt lat="36.031846990808845" lon="129.36544597148895">
        <ele>10.6</ele>
        <time>2026-06-05T10:52:08</time>
      </trkpt>
      <trkpt lat="36.03188395500183" lon="129.36547497287393">
        <ele>10.6</ele>
        <time>2026-06-05T10:52:09</time>
      </trkpt>
      <trkpt lat="36.03191899135709" lon="129.36550498008728">
        <ele>10.6</ele>
        <time>2026-06-05T10:52:10</time>
      </trkpt>
      <trkpt lat="36.03194992057979" lon="129.36553498730063">
        <ele>10.6</ele>
        <time>2026-06-05T10:52:11</time>
      </trkpt>
      <trkpt lat="36.031976994127035" lon="129.3655589595437">
        <ele>10.8</ele>
        <time>2026-06-05T10:52:12</time>
      </trkpt>
      <trkpt lat="36.03200398385525" lon="129.36558393761516">
        <ele>10.8</ele>
        <time>2026-06-05T10:52:13</time>
      </trkpt>
      <trkpt lat="36.03203499689698" lon="129.36560899950564">
        <ele>10.8</ele>
        <time>2026-06-05T10:52:14</time>
      </trkpt>
      <trkpt lat="36.032067937776446" lon="129.3656329717487">
        <ele>11.0</ele>
        <time>2026-06-05T10:52:15</time>
      </trkpt>
      <trkpt lat="36.03209593333304" lon="129.36565694399178">
        <ele>11.0</ele>
        <time>2026-06-05T10:52:16</time>
      </trkpt>
      <trkpt lat="36.03212099522352" lon="129.36568192206323">
        <ele>11.0</ele>
        <time>2026-06-05T10:52:17</time>
      </trkpt>
      <trkpt lat="36.032151924446225" lon="129.36570396646857">
        <ele>11.0</ele>
        <time>2026-06-05T10:52:18</time>
      </trkpt>
      <trkpt lat="36.03218293748796" lon="129.36572399921715">
        <ele>11.0</ele>
        <time>2026-06-05T10:52:19</time>
      </trkpt>
      <trkpt lat="36.03221193887293" lon="129.3657439481467">
        <ele>11.0</ele>
        <time>2026-06-05T10:52:20</time>
      </trkpt>
      <trkpt lat="36.032239934429526" lon="129.36576699838042">
        <ele>11.2</ele>
        <time>2026-06-05T10:52:21</time>
      </trkpt>
      <trkpt lat="36.03226499632001" lon="129.36578795313835">
        <ele>11.2</ele>
        <time>2026-06-05T10:52:22</time>
      </trkpt>
      <trkpt lat="36.03228595107794" lon="129.3658039625734">
        <ele>11.2</ele>
        <time>2026-06-05T10:52:23</time>
      </trkpt>
      <trkpt lat="36.03230397216976" lon="129.3658229894936">
        <ele>11.2</ele>
        <time>2026-06-05T10:52:24</time>
      </trkpt>
      <trkpt lat="36.03231294080615" lon="129.36584796756506">
        <ele>11.2</ele>
        <time>2026-06-05T10:52:25</time>
      </trkpt>
      <trkpt lat="36.03231495246291" lon="129.3658789806068">
        <ele>11.2</ele>
        <time>2026-06-05T10:52:26</time>
      </trkpt>
      <trkpt lat="36.03231696411967" lon="129.36590999364853">
        <ele>11.2</ele>
        <time>2026-06-05T10:52:27</time>
      </trkpt>
      <trkpt lat="36.032323921099305" lon="129.365942934528">
        <ele>11.4</ele>
        <time>2026-06-05T10:52:28</time>
      </trkpt>
      <trkpt lat="36.0323379188776" lon="129.36597797088325">
        <ele>11.4</ele>
        <time>2026-06-05T10:52:29</time>
      </trkpt>
      <trkpt lat="36.0323569457978" lon="129.36601392924786">
        <ele>11.4</ele>
        <time>2026-06-05T10:52:30</time>
      </trkpt>
      <trkpt lat="36.03237999603152" lon="129.3660489656031">
        <ele>11.4</ele>
        <time>2026-06-05T10:52:31</time>
      </trkpt>
      <trkpt lat="36.03240195661783" lon="129.36608492396772">
        <ele>11.4</ele>
        <time>2026-06-05T10:52:32</time>
      </trkpt>
      <trkpt lat="36.03242693468928" lon="129.36611794866621">
        <ele>11.4</ele>
        <time>2026-06-05T10:52:33</time>
      </trkpt>
      <trkpt lat="36.03245694190264" lon="129.36614192090929">
        <ele>11.2</ele>
        <time>2026-06-05T10:52:34</time>
      </trkpt>
      <trkpt lat="36.03248896077275" lon="129.36615793034434">
        <ele>11.2</ele>
        <time>2026-06-05T10:52:35</time>
      </trkpt>
      <trkpt lat="36.03251997381449" lon="129.36616798862815">
        <ele>11.2</ele>
        <time>2026-06-05T10:52:36</time>
      </trkpt>
      <trkpt lat="36.03254495188594" lon="129.36617595143616">
        <ele>11.0</ele>
        <time>2026-06-05T10:52:37</time>
      </trkpt>
      <trkpt lat="36.032560961320996" lon="129.36618098057806">
        <ele>11.0</ele>
        <time>2026-06-05T10:52:38</time>
      </trkpt>
      <trkpt lat="36.03256892412901" lon="129.36618198640645">
        <ele>11.0</ele>
        <time>2026-06-05T10:52:39</time>
      </trkpt>
      <trkpt lat="36.03257093578577" lon="129.36618299223483">
        <ele>11.0</ele>
        <time>2026-06-05T10:52:40</time>
      </trkpt>
      <trkpt lat="36.03257093578577" lon="129.36618299223483">
        <ele>11.0</ele>
        <time>2026-06-05T10:52:41</time>
      </trkpt>
      <trkpt lat="36.03264796547592" lon="129.3662069644779">
        <ele>10.2</ele>
        <time>2026-06-05T10:54:11</time>
      </trkpt>
      <trkpt lat="36.03267193771899" lon="129.36619699001312">
        <ele>10.2</ele>
        <time>2026-06-05T10:54:12</time>
      </trkpt>
      <trkpt lat="36.0326989274472" lon="129.36618693172932">
        <ele>10.2</ele>
        <time>2026-06-05T10:54:13</time>
      </trkpt>
      <trkpt lat="36.032728934660554" lon="129.36617595143616">
        <ele>10.2</ele>
        <time>2026-06-05T10:54:14</time>
      </trkpt>
      <trkpt lat="36.03276095353067" lon="129.3661659769714">
        <ele>10.0</ele>
        <time>2026-06-05T10:54:15</time>
      </trkpt>
      <trkpt lat="36.032792972400784" lon="129.36616094782948">
        <ele>10.0</ele>
        <time>2026-06-05T10:54:16</time>
      </trkpt>
      <trkpt lat="36.0328249912709" lon="129.36616094782948">
        <ele>10.0</ele>
        <time>2026-06-05T10:54:17</time>
      </trkpt>
      <trkpt lat="36.032854998484254" lon="129.36616195365787">
        <ele>10.0</ele>
        <time>2026-06-05T10:54:18</time>
      </trkpt>
      <trkpt lat="36.032880982384086" lon="129.366164971143">
        <ele>10.0</ele>
        <time>2026-06-05T10:54:19</time>
      </trkpt>
      <trkpt lat="36.03289992548525" lon="129.36616698279977">
        <ele>10.0</ele>
        <time>2026-06-05T10:54:20</time>
      </trkpt>
      <trkpt lat="36.03291392326355" lon="129.36616899445653">
        <ele>9.8</ele>
        <time>2026-06-05T10:54:21</time>
      </trkpt>
      <trkpt lat="36.032924987375736" lon="129.36617092229426">
        <ele>9.8</ele>
        <time>2026-06-05T10:54:22</time>
      </trkpt>
      <trkpt lat="36.03293596766889" lon="129.36617293395102">
        <ele>9.8</ele>
        <time>2026-06-05T10:54:23</time>
      </trkpt>
      <trkpt lat="36.032947953790426" lon="129.36617695726454">
        <ele>9.6</ele>
        <time>2026-06-05T10:54:24</time>
      </trkpt>
      <trkpt lat="36.0329629573971" lon="129.36618492007256">
        <ele>9.6</ele>
        <time>2026-06-05T10:54:25</time>
      </trkpt>
      <trkpt lat="36.03298097848892" lon="129.36618994921446">
        <ele>9.4</ele>
        <time>2026-06-05T10:54:26</time>
      </trkpt>
      <trkpt lat="36.03300595656037" lon="129.36619095504284">
        <ele>9.4</ele>
        <time>2026-06-05T10:54:27</time>
      </trkpt>
      <trkpt lat="36.033030934631824" lon="129.36618299223483">
        <ele>9.4</ele>
        <time>2026-06-05T10:54:28</time>
      </trkpt>
      <trkpt lat="36.033052979037166" lon="129.366164971143">
        <ele>9.4</ele>
        <time>2026-06-05T10:54:29</time>
      </trkpt>
      <trkpt lat="36.033072927966714" lon="129.36613898724318">
        <ele>9.2</ele>
        <time>2026-06-05T10:54:30</time>
      </trkpt>
      <trkpt lat="36.03308994323015" lon="129.36610797420144">
        <ele>9.4</ele>
        <time>2026-06-05T10:54:31</time>
      </trkpt>
      <trkpt lat="36.03310494683683" lon="129.36607494950294">
        <ele>9.4</ele>
        <time>2026-06-05T10:54:32</time>
      </trkpt>
      <trkpt lat="36.033116932958364" lon="129.36604293063283">
        <ele>9.4</ele>
        <time>2026-06-05T10:54:33</time>
      </trkpt>
      <trkpt lat="36.03313294239342" lon="129.36601895838976">
        <ele>9.6</ele>
        <time>2026-06-05T10:54:34</time>
      </trkpt>
      <trkpt lat="36.03315498679876" lon="129.36600395478308">
        <ele>9.6</ele>
        <time>2026-06-05T10:54:35</time>
      </trkpt>
      <trkpt lat="36.033181976526976" lon="129.3659939803183">
        <ele>9.6</ele>
        <time>2026-06-05T10:54:36</time>
      </trkpt>
      <trkpt lat="36.03320997208357" lon="129.36598593369126">
        <ele>9.6</ele>
        <time>2026-06-05T10:54:37</time>
      </trkpt>
      <trkpt lat="36.03323997929692" lon="129.36597998254">
        <ele>9.6</ele>
        <time>2026-06-05T10:54:38</time>
      </trkpt>
      <trkpt lat="36.033268980681896" lon="129.3659759592265">
        <ele>9.8</ele>
        <time>2026-06-05T10:54:39</time>
      </trkpt>
      <trkpt lat="36.03329697623849" lon="129.36597193591297">
        <ele>9.8</ele>
        <time>2026-06-05T10:54:40</time>
      </trkpt>
      <trkpt lat="36.03332195430994" lon="129.3659699242562">
        <ele>10.0</ele>
        <time>2026-06-05T10:54:41</time>
      </trkpt>
      <trkpt lat="36.03334399871528" lon="129.36596799641848">
        <ele>10.0</ele>
        <time>2026-06-05T10:54:42</time>
      </trkpt>
      <trkpt lat="36.03336394764483" lon="129.36596296727657">
        <ele>10.0</ele>
        <time>2026-06-05T10:54:43</time>
      </trkpt>
      <trkpt lat="36.03338398039341" lon="129.3659559264779">
        <ele>10.0</ele>
        <time>2026-06-05T10:54:44</time>
      </trkpt>
      <trkpt lat="36.03340493515134" lon="129.3659479636699">
        <ele>10.0</ele>
        <time>2026-06-05T10:54:45</time>
      </trkpt>
      <trkpt lat="36.03342899121344" lon="129.3659419286996">
        <ele>10.0</ele>
        <time>2026-06-05T10:54:46</time>
      </trkpt>
      <trkpt lat="36.03345296345651" lon="129.36593597754836">
        <ele>10.0</ele>
        <time>2026-06-05T10:54:47</time>
      </trkpt>
      <trkpt lat="36.0334759298712" lon="129.36592793092132">
        <ele>10.0</ele>
        <time>2026-06-05T10:54:48</time>
      </trkpt>
      <trkpt lat="36.033499985933304" lon="129.36591795645654">
        <ele>10.0</ele>
        <time>2026-06-05T10:54:49</time>
      </trkpt>
      <trkpt lat="36.033523958176374" lon="129.36590496450663">
        <ele>10.0</ele>
        <time>2026-06-05T10:54:50</time>
      </trkpt>
      <trkpt lat="36.03355094790459" lon="129.36588895507157">
        <ele>10.0</ele>
        <time>2026-06-05T10:54:51</time>
      </trkpt>
      <trkpt lat="36.03357994928956" lon="129.36587193980813">
        <ele>10.0</ele>
        <time>2026-06-05T10:54:52</time>
      </trkpt>
      <trkpt lat="36.033611968159676" lon="129.36585593037307">
        <ele>9.8</ele>
        <time>2026-06-05T10:54:53</time>
      </trkpt>
      <trkpt lat="36.0336469206959" lon="129.36583992093801">
        <ele>9.8</ele>
        <time>2026-06-05T10:54:54</time>
      </trkpt>
      <trkpt lat="36.0336849745363" lon="129.36582592315972">
        <ele>9.8</ele>
        <time>2026-06-05T10:54:55</time>
      </trkpt>
      <trkpt lat="36.03372495621443" lon="129.3658099975437">
        <ele>9.8</ele>
        <time>2026-06-05T10:54:56</time>
      </trkpt>
      <trkpt lat="36.03376694954932" lon="129.36579398810863">
        <ele>9.8</ele>
        <time>2026-06-05T10:54:57</time>
      </trkpt>
      <trkpt lat="36.03381196036935" lon="129.36577898450196">
        <ele>9.8</ele>
        <time>2026-06-05T10:54:58</time>
      </trkpt>
      <trkpt lat="36.03385898284614" lon="129.3657629750669">
        <ele>9.8</ele>
        <time>2026-06-05T10:54:59</time>
      </trkpt>
      <trkpt lat="36.03390893898904" lon="129.36574696563184">
        <ele>9.8</ele>
        <time>2026-06-05T10:55:00</time>
      </trkpt>
      <trkpt lat="36.03395998477936" lon="129.36573095619678">
        <ele>9.8</ele>
        <time>2026-06-05T10:55:01</time>
      </trkpt>
      <trkpt lat="36.03401195257902" lon="129.3657159525901">
        <ele>9.8</ele>
        <time>2026-06-05T10:55:02</time>
      </trkpt>
      <trkpt lat="36.034064926207066" lon="129.36569994315505">
        <ele>9.6</ele>
        <time>2026-06-05T10:55:03</time>
      </trkpt>
      <trkpt lat="36.03411898948252" lon="129.36568493954837">
        <ele>9.6</ele>
        <time>2026-06-05T10:55:04</time>
      </trkpt>
      <trkpt lat="36.03417397476733" lon="129.36567094177008">
        <ele>9.6</ele>
        <time>2026-06-05T10:55:05</time>
      </trkpt>
      <trkpt lat="36.03422896005213" lon="129.36565493233502">
        <ele>9.6</ele>
        <time>2026-06-05T10:55:06</time>
      </trkpt>
      <trkpt lat="36.03428394533694" lon="129.36563892289996">
        <ele>9.8</ele>
        <time>2026-06-05T10:55:07</time>
      </trkpt>
      <trkpt lat="36.03433893062174" lon="129.36562299728394">
        <ele>9.8</ele>
        <time>2026-06-05T10:55:08</time>
      </trkpt>
      <trkpt lat="36.03439198806882" lon="129.3656059820205">
        <ele>9.8</ele>
        <time>2026-06-05T10:55:09</time>
      </trkpt>
      <trkpt lat="36.03444496169686" lon="129.36558896675706">
        <ele>9.8</ele>
        <time>2026-06-05T10:55:10</time>
      </trkpt>
      <trkpt lat="36.03449692949653" lon="129.36557496897876">
        <ele>10.0</ele>
        <time>2026-06-05T10:55:11</time>
      </trkpt>
      <trkpt lat="36.03454797528684" lon="129.36556298285723">
        <ele>10.0</ele>
        <time>2026-06-05T10:55:12</time>
      </trkpt>
      <trkpt lat="36.03459692560136" lon="129.3655509967357">
        <ele>10.0</ele>
        <time>2026-06-05T10:55:13</time>
      </trkpt>
      <trkpt lat="36.034643948078156" lon="129.3655399326235">
        <ele>10.0</ele>
        <time>2026-06-05T10:55:14</time>
      </trkpt>
      <trkpt lat="36.03468895889819" lon="129.36552895233035">
        <ele>10.2</ele>
        <time>2026-06-05T10:55:15</time>
      </trkpt>
      <trkpt lat="36.034730952233076" lon="129.36551495455205">
        <ele>10.2</ele>
        <time>2026-06-05T10:55:16</time>
      </trkpt>
      <trkpt lat="36.034772945567966" lon="129.36549793928862">
        <ele>10.4</ele>
        <time>2026-06-05T10:55:17</time>
      </trkpt>
      <trkpt lat="36.034813933074474" lon="129.36547899618745">
        <ele>10.4</ele>
        <time>2026-06-05T10:55:18</time>
      </trkpt>
      <trkpt lat="36.034856932237744" lon="129.36545996926725">
        <ele>10.4</ele>
        <time>2026-06-05T10:55:19</time>
      </trkpt>
      <trkpt lat="36.034899931401014" lon="129.36543993651867">
        <ele>10.6</ele>
        <time>2026-06-05T10:55:20</time>
      </trkpt>
      <trkpt lat="36.034942930564284" lon="129.36541998758912">
        <ele>10.6</ele>
        <time>2026-06-05T10:55:21</time>
      </trkpt>
      <trkpt lat="36.034987941384315" lon="129.3654019664973">
        <ele>10.6</ele>
        <time>2026-06-05T10:55:22</time>
      </trkpt>
      <trkpt lat="36.03503395803273" lon="129.3653889745474">
        <ele>10.6</ele>
        <time>2026-06-05T10:55:23</time>
      </trkpt>
      <trkpt lat="36.03508098050952" lon="129.36537698842585">
        <ele>10.6</ele>
        <time>2026-06-05T10:55:24</time>
      </trkpt>
      <trkpt lat="36.03512993082404" lon="129.36536399647593">
        <ele>10.8</ele>
        <time>2026-06-05T10:55:25</time>
      </trkpt>
      <trkpt lat="36.035180976614356" lon="129.36534899286926">
        <ele>10.8</ele>
        <time>2026-06-05T10:55:26</time>
      </trkpt>
      <trkpt lat="36.03523193858564" lon="129.36532996594906">
        <ele>10.8</ele>
        <time>2026-06-05T10:55:27</time>
      </trkpt>
      <trkpt lat="36.03528197854757" lon="129.36531093902886">
        <ele>11.0</ele>
        <time>2026-06-05T10:55:28</time>
      </trkpt>
      <trkpt lat="36.035330928862095" lon="129.3652909900993">
        <ele>11.0</ele>
        <time>2026-06-05T10:55:29</time>
      </trkpt>
      <trkpt lat="36.03537895716727" lon="129.3652729690075">
        <ele>11.0</ele>
        <time>2026-06-05T10:55:30</time>
      </trkpt>
      <trkpt lat="36.03542497381568" lon="129.36525695957243">
        <ele>11.2</ele>
        <time>2026-06-05T10:55:31</time>
      </trkpt>
      <trkpt lat="36.03546596132219" lon="129.36524195596576">
        <ele>11.2</ele>
        <time>2026-06-05T10:55:32</time>
      </trkpt>
      <trkpt lat="36.035500997677445" lon="129.3652309756726">
        <ele>11.2</ele>
        <time>2026-06-05T10:55:33</time>
      </trkpt>
      <trkpt lat="36.03553192690015" lon="129.36522292904556">
        <ele>11.2</ele>
        <time>2026-06-05T10:55:34</time>
      </trkpt>
      <trkpt lat="36.03555891662836" lon="129.3652179837227">
        <ele>11.2</ele>
        <time>2026-06-05T10:55:35</time>
      </trkpt>
      <trkpt lat="36.03558297269046" lon="129.3652119487524">
        <ele>11.2</ele>
        <time>2026-06-05T10:55:36</time>
      </trkpt>
      <trkpt lat="36.03560593910515" lon="129.36520792543888">
        <ele>11.4</ele>
        <time>2026-06-05T10:55:37</time>
      </trkpt>
      <trkpt lat="36.03562496602535" lon="129.365202980116">
        <ele>11.4</ele>
        <time>2026-06-05T10:55:38</time>
      </trkpt>
      <trkpt lat="36.03563896380365" lon="129.36519996263087">
        <ele>11.2</ele>
        <time>2026-06-05T10:55:39</time>
      </trkpt>
      <trkpt lat="36.03564592078328" lon="129.3651979509741">
        <ele>11.2</ele>
        <time>2026-06-05T10:55:40</time>
      </trkpt>
      <trkpt lat="36.03564793244004" lon="129.3651979509741">
        <ele>11.2</ele>
        <time>2026-06-05T10:55:41</time>
      </trkpt>
      <trkpt lat="36.03564592078328" lon="129.3651979509741">
        <ele>11.2</ele>
        <time>2026-06-05T10:55:42</time>
      </trkpt>
      <trkpt lat="36.03564499877393" lon="129.3651979509741">
        <ele>11.0</ele>
        <time>2026-06-05T10:55:43</time>
      </trkpt>
      <trkpt lat="36.035712976008654" lon="129.36521496623755">
        <ele>11.6</ele>
        <time>2026-06-05T10:55:55</time>
      </trkpt>
      <trkpt lat="36.03572194464505" lon="129.3652119487524">
        <ele>11.6</ele>
        <time>2026-06-05T10:55:56</time>
      </trkpt>
      <trkpt lat="36.03573099710047" lon="129.36520893126726">
        <ele>11.6</ele>
        <time>2026-06-05T10:55:57</time>
      </trkpt>
      <trkpt lat="36.03574197739363" lon="129.36520096845925">
        <ele>11.6</ele>
        <time>2026-06-05T10:55:58</time>
      </trkpt>
      <trkpt lat="36.03575496934354" lon="129.36519199982285">
        <ele>11.8</ele>
        <time>2026-06-05T10:55:59</time>
      </trkpt>
      <trkpt lat="36.03576896712184" lon="129.36518294736743">
        <ele>11.8</ele>
        <time>2026-06-05T10:56:00</time>
      </trkpt>
      <trkpt lat="36.035781959071755" lon="129.36517297290266">
        <ele>12.0</ele>
        <time>2026-06-05T10:56:01</time>
      </trkpt>
      <trkpt lat="36.03579696267843" lon="129.365165932104">
        <ele>12.0</ele>
        <time>2026-06-05T10:56:02</time>
      </trkpt>
      <trkpt lat="36.03581297211349" lon="129.36515998095274">
        <ele>12.0</ele>
        <time>2026-06-05T10:56:03</time>
      </trkpt>
      <trkpt lat="36.03582898154855" lon="129.36515394598246">
        <ele>12.0</ele>
        <time>2026-06-05T10:56:04</time>
      </trkpt>
      <trkpt lat="36.035843985155225" lon="129.36514698900282">
        <ele>12.2</ele>
        <time>2026-06-05T10:56:05</time>
      </trkpt>
      <trkpt lat="36.0358589887619" lon="129.36513994820416">
        <ele>12.4</ele>
        <time>2026-06-05T10:56:06</time>
      </trkpt>
      <trkpt lat="36.03587399236858" lon="129.36513592489064">
        <ele>12.6</ele>
        <time>2026-06-05T10:56:07</time>
      </trkpt>
      <trkpt lat="36.035886984318495" lon="129.3651339970529">
        <ele>12.6</ele>
        <time>2026-06-05T10:56:08</time>
      </trkpt>
      <trkpt lat="36.03589997626841" lon="129.36513491906226">
        <ele>12.8</ele>
        <time>2026-06-05T10:56:09</time>
      </trkpt>
      <trkpt lat="36.03591397404671" lon="129.3651339970529">
        <ele>12.6</ele>
        <time>2026-06-05T10:56:10</time>
      </trkpt>
      <trkpt lat="36.035927971825004" lon="129.36512796208262">
        <ele>12.6</ele>
        <time>2026-06-05T10:56:11</time>
      </trkpt>
      <trkpt lat="36.03594398126006" lon="129.36511798761785">
        <ele>12.6</ele>
        <time>2026-06-05T10:56:12</time>
      </trkpt>
      <trkpt lat="36.03596292436123" lon="129.36510692350566">
        <ele>12.6</ele>
        <time>2026-06-05T10:56:13</time>
      </trkpt>
      <trkpt lat="36.03598496876657" lon="129.3650969490409">
        <ele>12.6</ele>
        <time>2026-06-05T10:56:14</time>
      </trkpt>
      <trkpt lat="36.03600894100964" lon="129.3650879804045">
        <ele>12.6</ele>
        <time>2026-06-05T10:56:15</time>
      </trkpt>
      <trkpt lat="36.03603391908109" lon="129.36507892794907">
        <ele>12.4</ele>
        <time>2026-06-05T10:56:16</time>
      </trkpt>
      <trkpt lat="36.036060992628336" lon="129.36507096514106">
        <ele>12.4</ele>
        <time>2026-06-05T10:56:17</time>
      </trkpt>
      <trkpt lat="36.03608898818493" lon="129.36506199650466">
        <ele>12.4</ele>
        <time>2026-06-05T10:56:18</time>
      </trkpt>
      <trkpt lat="36.03611497208476" lon="129.36505394987762">
        <ele>12.2</ele>
        <time>2026-06-05T10:56:19</time>
      </trkpt>
      <trkpt lat="36.03613693267107" lon="129.36505093239248">
        <ele>12.2</ele>
        <time>2026-06-05T10:56:20</time>
      </trkpt>
      <trkpt lat="36.03615394793451" lon="129.365054955706">
        <ele>12.0</ele>
        <time>2026-06-05T10:56:21</time>
      </trkpt>
      <trkpt lat="36.036166939884424" lon="129.36507096514106">
        <ele>11.8</ele>
        <time>2026-06-05T10:56:22</time>
      </trkpt>
      <trkpt lat="36.03617792017758" lon="129.3651019781828">
        <ele>11.6</ele>
        <time>2026-06-05T10:56:23</time>
      </trkpt>
      <trkpt lat="36.036188984289765" lon="129.36514397151768">
        <ele>11.4</ele>
        <time>2026-06-05T10:56:24</time>
      </trkpt>
      <trkpt lat="36.0362009704113" lon="129.3651929218322">
        <ele>11.4</ele>
        <time>2026-06-05T10:56:25</time>
      </trkpt>
      <trkpt lat="36.036211950704455" lon="129.36524597927928">
        <ele>11.2</ele>
        <time>2026-06-05T10:56:26</time>
      </trkpt>
      <trkpt lat="36.03622494265437" lon="129.36530096456409">
        <ele>11.2</ele>
        <time>2026-06-05T10:56:27</time>
      </trkpt>
      <trkpt lat="36.03623692877591" lon="129.3653549440205">
        <ele>11.2</ele>
        <time>2026-06-05T10:56:28</time>
      </trkpt>
      <trkpt lat="36.036251932382584" lon="129.36541194096208">
        <ele>11.0</ele>
        <time>2026-06-05T10:56:29</time>
      </trkpt>
      <trkpt lat="36.03626894764602" lon="129.36546893790364">
        <ele>11.0</ele>
        <time>2026-06-05T10:56:30</time>
      </trkpt>
      <trkpt lat="36.03628998622298" lon="129.36552895233035">
        <ele>11.0</ele>
        <time>2026-06-05T10:56:31</time>
      </trkpt>
      <trkpt lat="36.03630993515253" lon="129.3655919842422">
        <ele>11.0</ele>
        <time>2026-06-05T10:56:32</time>
      </trkpt>
      <trkpt lat="36.03632795624435" lon="129.36565794982016">
        <ele>11.0</ele>
        <time>2026-06-05T10:56:33</time>
      </trkpt>
      <trkpt lat="36.03634396567941" lon="129.36572592705488">
        <ele>11.0</ele>
        <time>2026-06-05T10:56:34</time>
      </trkpt>
      <trkpt lat="36.036359975114465" lon="129.36579398810863">
        <ele>11.0</ele>
        <time>2026-06-05T10:56:35</time>
      </trkpt>
      <trkpt lat="36.03637397289276" lon="129.36586297117174">
        <ele>11.0</ele>
        <time>2026-06-05T10:56:36</time>
      </trkpt>
      <trkpt lat="36.03638797067106" lon="129.36593094840646">
        <ele>11.0</ele>
        <time>2026-06-05T10:56:37</time>
      </trkpt>
      <trkpt lat="36.036402974277735" lon="129.36599993146956">
        <ele>11.0</ele>
        <time>2026-06-05T10:56:38</time>
      </trkpt>
      <trkpt lat="36.03641797788441" lon="129.36606992036104">
        <ele>11.0</ele>
        <time>2026-06-05T10:56:39</time>
      </trkpt>
      <trkpt lat="36.03643692098558" lon="129.36614192090929">
        <ele>11.0</ele>
        <time>2026-06-05T10:56:40</time>
      </trkpt>
      <trkpt lat="36.03645795956254" lon="129.3662149272859">
        <ele>11.0</ele>
        <time>2026-06-05T10:56:41</time>
      </trkpt>
      <trkpt lat="36.03648092597723" lon="129.36629095114768">
        <ele>11.0</ele>
        <time>2026-06-05T10:56:42</time>
      </trkpt>
      <trkpt lat="36.03650397621095" lon="129.3663689866662">
        <ele>11.0</ele>
        <time>2026-06-05T10:56:43</time>
      </trkpt>
      <trkpt lat="36.03652694262564" lon="129.36644794419408">
        <ele>11.0</ele>
        <time>2026-06-05T10:56:44</time>
      </trkpt>
      <trkpt lat="36.03654697537422" lon="129.36652799136937">
        <ele>11.0</ele>
        <time>2026-06-05T10:56:45</time>
      </trkpt>
      <trkpt lat="36.03656591847539" lon="129.36660795472562">
        <ele>11.0</ele>
        <time>2026-06-05T10:56:46</time>
      </trkpt>
      <trkpt lat="36.03658092208207" lon="129.36668892391026">
        <ele>11.0</ele>
        <time>2026-06-05T10:56:47</time>
      </trkpt>
      <trkpt lat="36.03659491986036" lon="129.36676897108555">
        <ele>11.0</ele>
        <time>2026-06-05T10:56:48</time>
      </trkpt>
      <trkpt lat="36.03660891763866" lon="129.36684692278504">
        <ele>11.0</ele>
        <time>2026-06-05T10:56:49</time>
      </trkpt>
      <trkpt lat="36.03662299923599" lon="129.36692194081843">
        <ele>10.8</ele>
        <time>2026-06-05T10:56:50</time>
      </trkpt>
      <trkpt lat="36.03663791902363" lon="129.36699394136667">
        <ele>10.8</ele>
        <time>2026-06-05T10:56:51</time>
      </trkpt>
      <trkpt lat="36.03665493428707" lon="129.36706493608654">
        <ele>10.8</ele>
        <time>2026-06-05T10:56:52</time>
      </trkpt>
      <trkpt lat="36.03667094372213" lon="129.3671359308064">
        <ele>10.8</ele>
        <time>2026-06-05T10:56:53</time>
      </trkpt>
      <trkpt lat="36.03668695315719" lon="129.36720692552626">
        <ele>10.8</ele>
        <time>2026-06-05T10:56:54</time>
      </trkpt>
      <trkpt lat="36.036703968420625" lon="129.3672789260745">
        <ele>10.8</ele>
        <time>2026-06-05T10:56:55</time>
      </trkpt>
      <trkpt lat="36.03672098368406" lon="129.36735092662275">
        <ele>10.8</ele>
        <time>2026-06-05T10:56:56</time>
      </trkpt>
      <trkpt lat="36.03673699311912" lon="129.36742393299937">
        <ele>10.6</ele>
        <time>2026-06-05T10:56:57</time>
      </trkpt>
      <trkpt lat="36.03675392456353" lon="129.36749593354762">
        <ele>10.6</ele>
        <time>2026-06-05T10:56:58</time>
      </trkpt>
      <trkpt lat="36.036770939826965" lon="129.36756491661072">
        <ele>10.6</ele>
        <time>2026-06-05T10:56:59</time>
      </trkpt>
      <trkpt lat="36.036787955090404" lon="129.36763297766447">
        <ele>10.6</ele>
        <time>2026-06-05T10:57:00</time>
      </trkpt>
      <trkpt lat="36.03680597618222" lon="129.36769793741405">
        <ele>10.6</ele>
        <time>2026-06-05T10:57:01</time>
      </trkpt>
      <trkpt lat="36.03682491928339" lon="129.36775996349752">
        <ele>10.6</ele>
        <time>2026-06-05T10:57:02</time>
      </trkpt>
      <trkpt lat="36.03684294037521" lon="129.3678209837526">
        <ele>10.6</ele>
        <time>2026-06-05T10:57:03</time>
      </trkpt>
      <trkpt lat="36.036856938153505" lon="129.36788192018867">
        <ele>10.6</ele>
        <time>2026-06-05T10:57:04</time>
      </trkpt>
      <trkpt lat="36.03686791844666" lon="129.36794394627213">
        <ele>10.6</ele>
        <time>2026-06-05T10:57:05</time>
      </trkpt>
      <trkpt lat="36.036876970902085" lon="129.3680059723556">
        <ele>10.6</ele>
        <time>2026-06-05T10:57:06</time>
      </trkpt>
      <trkpt lat="36.03688593953848" lon="129.36806799843907">
        <ele>10.6</ele>
        <time>2026-06-05T10:57:07</time>
      </trkpt>
      <trkpt lat="36.036898931488395" lon="129.36812692321837">
        <ele>10.6</ele>
        <time>2026-06-05T10:57:08</time>
      </trkpt>
      <trkpt lat="36.03691393509507" lon="129.36818392015994">
        <ele>10.4</ele>
        <time>2026-06-05T10:57:09</time>
      </trkpt>
      <trkpt lat="36.03693296201527" lon="129.36823597177863">
        <ele>10.4</ele>
        <time>2026-06-05T10:57:10</time>
      </trkpt>
      <trkpt lat="36.03695299476385" lon="129.3682789709419">
        <ele>10.4</ele>
        <time>2026-06-05T10:57:11</time>
      </trkpt>
      <trkpt lat="36.03697093203664" lon="129.3683119956404">
        <ele>10.4</ele>
        <time>2026-06-05T10:57:12</time>
      </trkpt>
      <trkpt lat="36.036984929814935" lon="129.36834099702537">
        <ele>10.4</ele>
        <time>2026-06-05T10:57:13</time>
      </trkpt>
      <trkpt lat="36.03699599392712" lon="129.36837192624807">
        <ele>10.4</ele>
        <time>2026-06-05T10:57:14</time>
      </trkpt>
      <trkpt lat="36.03700194507837" lon="129.3684089742601">
        <ele>10.2</ele>
        <time>2026-06-05T10:57:15</time>
      </trkpt>
      <trkpt lat="36.037004962563515" lon="129.36845096759498">
        <ele>10.2</ele>
        <time>2026-06-05T10:57:16</time>
      </trkpt>
      <trkpt lat="36.03700898587704" lon="129.36849799007177">
        <ele>10.2</ele>
        <time>2026-06-05T10:57:17</time>
      </trkpt>
      <trkpt lat="36.03701594285667" lon="129.36854794621468">
        <ele>10.2</ele>
        <time>2026-06-05T10:57:18</time>
      </trkpt>
      <trkpt lat="36.037025917321444" lon="129.36859999783337">
        <ele>10.2</ele>
        <time>2026-06-05T10:57:19</time>
      </trkpt>
      <trkpt lat="36.03703597560525" lon="129.36865598894656">
        <ele>10.2</ele>
        <time>2026-06-05T10:57:20</time>
      </trkpt>
      <trkpt lat="36.037046955898404" lon="129.3687139917165">
        <ele>10.2</ele>
        <time>2026-06-05T10:57:21</time>
      </trkpt>
      <trkpt lat="36.03705994784832" lon="129.36877492815256">
        <ele>10.0</ele>
        <time>2026-06-05T10:57:22</time>
      </trkpt>
      <trkpt lat="36.037074951455" lon="129.3688379600644">
        <ele>10.0</ele>
        <time>2026-06-05T10:57:23</time>
      </trkpt>
      <trkpt lat="36.037090960890055" lon="129.36890199780464">
        <ele>10.0</ele>
        <time>2026-06-05T10:57:24</time>
      </trkpt>
      <trkpt lat="36.03710596449673" lon="129.36896896921098">
        <ele>10.0</ele>
        <time>2026-06-05T10:57:25</time>
      </trkpt>
      <trkpt lat="36.03712096810341" lon="129.36903996393085">
        <ele>10.0</ele>
        <time>2026-06-05T10:57:26</time>
      </trkpt>
      <trkpt lat="36.037135971710086" lon="129.36911397613585">
        <ele>10.0</ele>
        <time>2026-06-05T10:57:27</time>
      </trkpt>
      <trkpt lat="36.037152986973524" lon="129.36918899416924">
        <ele>10.0</ele>
        <time>2026-06-05T10:57:28</time>
      </trkpt>
      <trkpt lat="36.03716991841793" lon="129.36926594004035">
        <ele>10.2</ele>
        <time>2026-06-05T10:57:29</time>
      </trkpt>
      <trkpt lat="36.03718894533813" lon="129.36933995224535">
        <ele>10.2</ele>
        <time>2026-06-05T10:57:30</time>
      </trkpt>
      <trkpt lat="36.03721199557185" lon="129.36941094696522">
        <ele>10.2</ele>
        <time>2026-06-05T10:57:31</time>
      </trkpt>
      <trkpt lat="36.037239991128445" lon="129.36947397887707">
        <ele>10.2</ele>
        <time>2026-06-05T10:57:32</time>
      </trkpt>
      <trkpt lat="36.03727695532143" lon="129.3695279583335">
        <ele>10.2</ele>
        <time>2026-06-05T10:57:33</time>
      </trkpt>
      <trkpt lat="36.0373199544847" lon="129.36957498081028">
        <ele>10.2</ele>
        <time>2026-06-05T10:57:34</time>
      </trkpt>
      <trkpt lat="36.037369994446635" lon="129.3696099333465">
        <ele>10.2</ele>
        <time>2026-06-05T10:57:35</time>
      </trkpt>
      <trkpt lat="36.03742598555982" lon="129.36963197775185">
        <ele>10.2</ele>
        <time>2026-06-05T10:57:36</time>
      </trkpt>
      <trkpt lat="36.03748599998653" lon="129.3696439638734">
        <ele>10.2</ele>
        <time>2026-06-05T10:57:37</time>
      </trkpt>
      <trkpt lat="36.03754894807935" lon="129.36964999884367">
        <ele>10.2</ele>
        <time>2026-06-05T10:57:38</time>
      </trkpt>
      <trkpt lat="36.0376119799912" lon="129.36965494416654">
        <ele>10.2</ele>
        <time>2026-06-05T10:57:39</time>
      </trkpt>
      <trkpt lat="36.037674928084016" lon="129.36965896748006">
        <ele>10.2</ele>
        <time>2026-06-05T10:57:40</time>
      </trkpt>
      <trkpt lat="36.037737959995866" lon="129.36966399662197">
        <ele>10.2</ele>
        <time>2026-06-05T10:57:41</time>
      </trkpt>
      <trkpt lat="36.037798980250955" lon="129.3696709536016">
        <ele>10.2</ele>
        <time>2026-06-05T10:57:42</time>
      </trkpt>
      <trkpt lat="36.03785899467766" lon="129.3696789164096">
        <ele>10.2</ele>
        <time>2026-06-05T10:57:43</time>
      </trkpt>
      <trkpt lat="36.03791599161923" lon="129.36968897469342">
        <ele>10.2</ele>
        <time>2026-06-05T10:57:44</time>
      </trkpt>
      <trkpt lat="36.037972988560796" lon="129.36969995498657">
        <ele>10.4</ele>
        <time>2026-06-05T10:57:45</time>
      </trkpt>
      <trkpt lat="36.0380279738456" lon="129.36971093527973">
        <ele>10.4</ele>
        <time>2026-06-05T10:57:46</time>
      </trkpt>
      <trkpt lat="36.038082959130406" lon="129.36971998773515">
        <ele>10.4</ele>
        <time>2026-06-05T10:57:47</time>
      </trkpt>
      <trkpt lat="36.03813593275845" lon="129.36972895637155">
        <ele>10.4</ele>
        <time>2026-06-05T10:57:48</time>
      </trkpt>
      <trkpt lat="36.038188990205526" lon="129.36973792500794">
        <ele>10.4</ele>
        <time>2026-06-05T10:57:49</time>
      </trkpt>
      <trkpt lat="36.03824196383357" lon="129.36974697746336">
        <ele>10.4</ele>
        <time>2026-06-05T10:57:50</time>
      </trkpt>
      <trkpt lat="36.038293931633234" lon="129.36975695192814">
        <ele>10.2</ele>
        <time>2026-06-05T10:57:51</time>
      </trkpt>
      <trkpt lat="36.03834497742355" lon="129.36976994387805">
        <ele>10.2</ele>
        <time>2026-06-05T10:57:52</time>
      </trkpt>
      <trkpt lat="36.03839593939483" lon="129.3697809241712">
        <ele>10.2</ele>
        <time>2026-06-05T10:57:53</time>
      </trkpt>
      <trkpt lat="36.03844799101353" lon="129.36978997662663">
        <ele>10.2</ele>
        <time>2026-06-05T10:57:54</time>
      </trkpt>
      <trkpt lat="36.03850197046995" lon="129.3697959277779">
        <ele>10.2</ele>
        <time>2026-06-05T10:57:55</time>
      </trkpt>
      <trkpt lat="36.03855695575476" lon="129.36980196274817">
        <ele>10.2</ele>
        <time>2026-06-05T10:57:56</time>
      </trkpt>
      <trkpt lat="36.03861395269632" lon="129.36980799771845">
        <ele>10.2</ele>
        <time>2026-06-05T10:57:57</time>
      </trkpt>
      <trkpt lat="36.03867195546627" lon="129.36981596052647">
        <ele>10.4</ele>
        <time>2026-06-05T10:57:58</time>
      </trkpt>
      <trkpt lat="36.0387309640646" lon="129.36982694081962">
        <ele>10.4</ele>
        <time>2026-06-05T10:57:59</time>
      </trkpt>
      <trkpt lat="36.038789972662926" lon="129.36983993276954">
        <ele>10.4</ele>
        <time>2026-06-05T10:58:00</time>
      </trkpt>
      <trkpt lat="36.03884898126125" lon="129.36985099688172">
        <ele>10.6</ele>
        <time>2026-06-05T10:58:01</time>
      </trkpt>
      <trkpt lat="36.03890798985958" lon="129.36985996551812">
        <ele>10.8</ele>
        <time>2026-06-05T10:58:02</time>
      </trkpt>
      <trkpt lat="36.03896599262953" lon="129.3698699399829">
        <ele>10.8</ele>
        <time>2026-06-05T10:58:03</time>
      </trkpt>
      <trkpt lat="36.039024917408824" lon="129.36988192610443">
        <ele>10.8</ele>
        <time>2026-06-05T10:58:04</time>
      </trkpt>
      <trkpt lat="36.03908392600715" lon="129.369893996045">
        <ele>10.8</ele>
        <time>2026-06-05T10:58:05</time>
      </trkpt>
      <trkpt lat="36.03914293460548" lon="129.36990497633815">
        <ele>10.8</ele>
        <time>2026-06-05T10:58:06</time>
      </trkpt>
      <trkpt lat="36.03920294903219" lon="129.3699159566313">
        <ele>10.8</ele>
        <time>2026-06-05T10:58:07</time>
      </trkpt>
      <trkpt lat="36.039262963458896" lon="129.36992794275284">
        <ele>10.8</ele>
        <time>2026-06-05T10:58:08</time>
      </trkpt>
      <trkpt lat="36.03932096622884" lon="129.369938923046">
        <ele>10.8</ele>
        <time>2026-06-05T10:58:09</time>
      </trkpt>
      <trkpt lat="36.03937896899879" lon="129.36994797550142">
        <ele>10.8</ele>
        <time>2026-06-05T10:58:10</time>
      </trkpt>
      <trkpt lat="36.03943697176874" lon="129.3699569441378">
        <ele>10.8</ele>
        <time>2026-06-05T10:58:11</time>
      </trkpt>
      <trkpt lat="36.0394939687103" lon="129.3699669186026">
        <ele>10.8</ele>
        <time>2026-06-05T10:58:12</time>
      </trkpt>
      <trkpt lat="36.03955096565187" lon="129.3699769768864">
        <ele>10.8</ele>
        <time>2026-06-05T10:58:13</time>
      </trkpt>
      <trkpt lat="36.039607962593436" lon="129.36998695135117">
        <ele>10.8</ele>
        <time>2026-06-05T10:58:14</time>
      </trkpt>
      <trkpt lat="36.03966294787824" lon="129.3699989374727">
        <ele>10.8</ele>
        <time>2026-06-05T10:58:15</time>
      </trkpt>
      <trkpt lat="36.03971499949694" lon="129.3700089957565">
        <ele>10.8</ele>
        <time>2026-06-05T10:58:16</time>
      </trkpt>
      <trkpt lat="36.03976596146822" lon="129.37001897022128">
        <ele>10.8</ele>
        <time>2026-06-05T10:58:17</time>
      </trkpt>
      <trkpt lat="36.03981298394501" lon="129.37002894468606">
        <ele>10.8</ele>
        <time>2026-06-05T10:58:18</time>
      </trkpt>
      <trkpt lat="36.03985698893666" lon="129.37003799714148">
        <ele>10.8</ele>
        <time>2026-06-05T10:58:19</time>
      </trkpt>
      <trkpt lat="36.03989797644317" lon="129.3700459599495">
        <ele>10.8</ele>
        <time>2026-06-05T10:58:20</time>
      </trkpt>
      <trkpt lat="36.03993594646454" lon="129.3700539227575">
        <ele>10.8</ele>
        <time>2026-06-05T10:58:21</time>
      </trkpt>
      <trkpt lat="36.039968971163034" lon="129.37006096355617">
        <ele>10.8</ele>
        <time>2026-06-05T10:58:22</time>
      </trkpt>
      <trkpt lat="36.03999897837639" lon="129.37006599269807">
        <ele>10.8</ele>
        <time>2026-06-05T10:58:23</time>
      </trkpt>
      <trkpt lat="36.04002496227622" lon="129.37007194384933">
        <ele>10.8</ele>
        <time>2026-06-05T10:58:24</time>
      </trkpt>
      <trkpt lat="36.04004792869091" lon="129.37007596716285">
        <ele>10.8</ele>
        <time>2026-06-05T10:58:25</time>
      </trkpt>
      <trkpt lat="36.04006796143949" lon="129.3700819183141">
        <ele>11.0</ele>
        <time>2026-06-05T10:58:26</time>
      </trkpt>
      <trkpt lat="36.04008598253131" lon="129.37008895911276">
        <ele>11.0</ele>
        <time>2026-06-05T10:58:27</time>
      </trkpt>
      <trkpt lat="36.040100986137986" lon="129.37009792774916">
        <ele>11.2</ele>
        <time>2026-06-05T10:58:28</time>
      </trkpt>
      <trkpt lat="36.0401139780879" lon="129.37010999768972">
        <ele>11.2</ele>
        <time>2026-06-05T10:58:29</time>
      </trkpt>
      <trkpt lat="36.04012596420944" lon="129.37012198381126">
        <ele>11.4</ele>
        <time>2026-06-05T10:58:30</time>
      </trkpt>
      <trkpt lat="36.04013493284583" lon="129.3701339699328">
        <ele>11.4</ele>
        <time>2026-06-05T10:58:31</time>
      </trkpt>
      <trkpt lat="36.040140967816114" lon="129.37014595605433">
        <ele>11.6</ele>
        <time>2026-06-05T10:58:32</time>
      </trkpt>
      <trkpt lat="36.04014792479575" lon="129.37015995383263">
        <ele>11.6</ele>
        <time>2026-06-05T10:58:33</time>
      </trkpt>
      <trkpt lat="36.04015295393765" lon="129.37017696909606">
        <ele>11.6</ele>
        <time>2026-06-05T10:58:34</time>
      </trkpt>
      <trkpt lat="36.04015496559441" lon="129.37019096687436">
        <ele>11.8</ele>
        <time>2026-06-05T10:58:35</time>
      </trkpt>
      <trkpt lat="36.04015597142279" lon="129.37019993551075">
        <ele>11.8</ele>
        <time>2026-06-05T10:58:36</time>
      </trkpt>
      <trkpt lat="36.04015597142279" lon="129.3702029529959">
        <ele>12.0</ele>
        <time>2026-06-05T10:58:37</time>
      </trkpt>
      <trkpt lat="36.04015496559441" lon="129.37020395882428">
        <ele>12.0</ele>
        <time>2026-06-05T10:58:38</time>
      </trkpt>
      <trkpt lat="36.040207939222455" lon="129.37022097408772">
        <ele>12.8</ele>
        <time>2026-06-05T11:00:06</time>
      </trkpt>
      <trkpt lat="36.04023492895067" lon="129.3702169507742">
        <ele>12.8</ele>
        <time>2026-06-05T11:00:07</time>
      </trkpt>
      <trkpt lat="36.04026493616402" lon="129.37020898796618">
        <ele>12.8</ele>
        <time>2026-06-05T11:00:08</time>
      </trkpt>
      <trkpt lat="36.04029796086252" lon="129.370197923854">
        <ele>12.6</ele>
        <time>2026-06-05T11:00:09</time>
      </trkpt>
      <trkpt lat="36.040331991389394" lon="129.37018493190408">
        <ele>12.6</ele>
        <time>2026-06-05T11:00:10</time>
      </trkpt>
      <trkpt lat="36.04036694392562" lon="129.37017696909606">
        <ele>12.4</ele>
        <time>2026-06-05T11:00:11</time>
      </trkpt>
      <trkpt lat="36.040400974452496" lon="129.37017596326768">
        <ele>12.4</ele>
        <time>2026-06-05T11:00:12</time>
      </trkpt>
      <trkpt lat="36.0404369328171" lon="129.37018199823797">
        <ele>12.4</ele>
        <time>2026-06-05T11:00:13</time>
      </trkpt>
      <trkpt lat="36.0404749866575" lon="129.3701889552176">
        <ele>12.2</ele>
        <time>2026-06-05T11:00:14</time>
      </trkpt>
      <trkpt lat="36.04051697999239" lon="129.37019892968237">
        <ele>12.2</ele>
        <time>2026-06-05T11:00:15</time>
      </trkpt>
      <trkpt lat="36.04056199081242" lon="129.37021292746067">
        <ele>12.0</ele>
        <time>2026-06-05T11:00:16</time>
      </trkpt>
      <trkpt lat="36.04060599580407" lon="129.37023396603763">
        <ele>12.0</ele>
        <time>2026-06-05T11:00:17</time>
      </trkpt>
      <trkpt lat="36.04064991697669" lon="129.3702629674226">
        <ele>11.8</ele>
        <time>2026-06-05T11:00:18</time>
      </trkpt>
      <trkpt lat="36.04069693945348" lon="129.37029196880758">
        <ele>11.6</ele>
        <time>2026-06-05T11:00:19</time>
      </trkpt>
      <trkpt lat="36.040745973587036" lon="129.3703139293939">
        <ele>11.6</ele>
        <time>2026-06-05T11:00:20</time>
      </trkpt>
      <trkpt lat="36.04079693555832" lon="129.3703239876777">
        <ele>11.4</ele>
        <time>2026-06-05T11:00:21</time>
      </trkpt>
      <trkpt lat="36.040848987177014" lon="129.37032499350607">
        <ele>11.4</ele>
        <time>2026-06-05T11:00:22</time>
      </trkpt>
      <trkpt lat="36.0408999491483" lon="129.37032097019255">
        <ele>11.2</ele>
        <time>2026-06-05T11:00:23</time>
      </trkpt>
      <trkpt lat="36.04094998911023" lon="129.3703189585358">
        <ele>11.2</ele>
        <time>2026-06-05T11:00:24</time>
      </trkpt>
      <trkpt lat="36.041000951081514" lon="129.37031996436417">
        <ele>11.2</ele>
        <time>2026-06-05T11:00:25</time>
      </trkpt>
      <trkpt lat="36.04105199687183" lon="129.37032599933445">
        <ele>11.2</ele>
        <time>2026-06-05T11:00:26</time>
      </trkpt>
      <trkpt lat="36.04110195301473" lon="129.370337985456">
        <ele>11.2</ele>
        <time>2026-06-05T11:00:27</time>
      </trkpt>
      <trkpt lat="36.041151992976665" lon="129.37035399489105">
        <ele>11.0</ele>
        <time>2026-06-05T11:00:28</time>
      </trkpt>
      <trkpt lat="36.04120194911957" lon="129.37037293799222">
        <ele>11.0</ele>
        <time>2026-06-05T11:00:29</time>
      </trkpt>
      <trkpt lat="36.04125098325312" lon="129.37039095908403">
        <ele>11.0</ele>
        <time>2026-06-05T11:00:30</time>
      </trkpt>
      <trkpt lat="36.041300939396024" lon="129.37040294520557">
        <ele>11.0</ele>
        <time>2026-06-05T11:00:31</time>
      </trkpt>
      <trkpt lat="36.0413489677012" lon="129.37040898017585">
        <ele>11.0</ele>
        <time>2026-06-05T11:00:32</time>
      </trkpt>
      <trkpt lat="36.04139699600637" lon="129.37040797434747">
        <ele>11.0</ele>
        <time>2026-06-05T11:00:33</time>
      </trkpt>
      <trkpt lat="36.04144494049251" lon="129.37040797434747">
        <ele>11.0</ele>
        <time>2026-06-05T11:00:34</time>
      </trkpt>
      <trkpt lat="36.04149095714092" lon="129.37041593715549">
        <ele>11.0</ele>
        <time>2026-06-05T11:00:35</time>
      </trkpt>
      <trkpt lat="36.041537979617715" lon="129.37042993493378">
        <ele>11.0</ele>
        <time>2026-06-05T11:00:36</time>
      </trkpt>
      <trkpt lat="36.041584918275476" lon="129.37044393271208">
        <ele>11.2</ele>
        <time>2026-06-05T11:00:37</time>
      </trkpt>
      <trkpt lat="36.04163395240903" lon="129.3704529851675">
        <ele>11.2</ele>
        <time>2026-06-05T11:00:38</time>
      </trkpt>
      <trkpt lat="36.04168298654258" lon="129.37045499682426">
        <ele>11.2</ele>
        <time>2026-06-05T11:00:39</time>
      </trkpt>
      <trkpt lat="36.041733948513865" lon="129.37045197933912">
        <ele>11.2</ele>
        <time>2026-06-05T11:00:40</time>
      </trkpt>
      <trkpt lat="36.04178499430418" lon="129.37044996768236">
        <ele>11.2</ele>
        <time>2026-06-05T11:00:41</time>
      </trkpt>
      <trkpt lat="36.04183495044708" lon="129.37045399099588">
        <ele>11.2</ele>
        <time>2026-06-05T11:00:42</time>
      </trkpt>
      <trkpt lat="36.04188499040902" lon="129.37046396546066">
        <ele>11.2</ele>
        <time>2026-06-05T11:00:43</time>
      </trkpt>
      <trkpt lat="36.0419359523803" lon="129.3704749457538">
        <ele>11.2</ele>
        <time>2026-06-05T11:00:44</time>
      </trkpt>
      <trkpt lat="36.041985992342234" lon="129.37048399820924">
        <ele>11.2</ele>
        <time>2026-06-05T11:00:45</time>
      </trkpt>
      <trkpt lat="36.0420379601419" lon="129.37049095518887">
        <ele>11.2</ele>
        <time>2026-06-05T11:00:46</time>
      </trkpt>
      <trkpt lat="36.0420879162848" lon="129.37049992382526">
        <ele>11.2</ele>
        <time>2026-06-05T11:00:47</time>
      </trkpt>
      <trkpt lat="36.042137956246734" lon="129.37051199376583">
        <ele>11.2</ele>
        <time>2026-06-05T11:00:48</time>
      </trkpt>
      <trkpt lat="36.042184978723526" lon="129.37052791938186">
        <ele>11.2</ele>
        <time>2026-06-05T11:00:49</time>
      </trkpt>
      <trkpt lat="36.04223099537194" lon="129.37054694630206">
        <ele>11.2</ele>
        <time>2026-06-05T11:00:50</time>
      </trkpt>
      <trkpt lat="36.04227692820132" lon="129.37056496739388">
        <ele>11.2</ele>
        <time>2026-06-05T11:00:51</time>
      </trkpt>
      <trkpt lat="36.04232294484973" lon="129.3705769535154">
        <ele>11.2</ele>
        <time>2026-06-05T11:00:52</time>
      </trkpt>
      <trkpt lat="36.04236694984138" lon="129.37058399431407">
        <ele>11.2</ele>
        <time>2026-06-05T11:00:53</time>
      </trkpt>
      <trkpt lat="36.04241095483303" lon="129.37058893963695">
        <ele>11.2</ele>
        <time>2026-06-05T11:00:54</time>
      </trkpt>
      <trkpt lat="36.0424539539963" lon="129.3705959804356">
        <ele>11.2</ele>
        <time>2026-06-05T11:00:55</time>
      </trkpt>
      <trkpt lat="36.04249594733119" lon="129.37060595490038">
        <ele>11.2</ele>
        <time>2026-06-05T11:00:56</time>
      </trkpt>
      <trkpt lat="36.0425369348377" lon="129.3706189468503">
        <ele>11.0</ele>
        <time>2026-06-05T11:00:57</time>
      </trkpt>
      <trkpt lat="36.04257792234421" lon="129.3706329446286">
        <ele>11.2</ele>
        <time>2026-06-05T11:00:58</time>
      </trkpt>
      <trkpt lat="36.04261899366975" lon="129.37064392492175">
        <ele>11.2</ele>
        <time>2026-06-05T11:00:59</time>
      </trkpt>
      <trkpt lat="36.04266199283302" lon="129.37064995989203">
        <ele>11.2</ele>
        <time>2026-06-05T11:01:00</time>
      </trkpt>
      <trkpt lat="36.04270599782467" lon="129.3706519715488">
        <ele>11.2</ele>
        <time>2026-06-05T11:01:01</time>
      </trkpt>
      <trkpt lat="36.04275193065405" lon="129.3706519715488">
        <ele>11.2</ele>
        <time>2026-06-05T11:01:02</time>
      </trkpt>
      <trkpt lat="36.04279995895922" lon="129.37065297737718">
        <ele>11.2</ele>
        <time>2026-06-05T11:01:03</time>
      </trkpt>
      <trkpt lat="36.04284496977925" lon="129.37065297737718">
        <ele>11.4</ele>
        <time>2026-06-05T11:01:04</time>
      </trkpt>
      <trkpt lat="36.042889980599284" lon="129.37065599486232">
        <ele>11.4</ele>
        <time>2026-06-05T11:01:05</time>
      </trkpt>
      <trkpt lat="36.042935997247696" lon="129.37066295184195">
        <ele>11.6</ele>
        <time>2026-06-05T11:01:06</time>
      </trkpt>
      <trkpt lat="36.04298394173384" lon="129.37067192047834">
        <ele>11.6</ele>
        <time>2026-06-05T11:01:07</time>
      </trkpt>
      <trkpt lat="36.04303398169577" lon="129.37068298459053">
        <ele>11.6</ele>
        <time>2026-06-05T11:01:08</time>
      </trkpt>
      <trkpt lat="36.043084943667054" lon="129.37069698236883">
        <ele>11.8</ele>
        <time>2026-06-05T11:01:09</time>
      </trkpt>
      <trkpt lat="36.04313498362899" lon="129.3707119859755">
        <ele>11.8</ele>
        <time>2026-06-05T11:01:10</time>
      </trkpt>
      <trkpt lat="36.04318594560027" lon="129.3707299232483">
        <ele>11.8</ele>
        <time>2026-06-05T11:01:11</time>
      </trkpt>
      <trkpt lat="36.043235985562205" lon="129.3707489501685">
        <ele>11.8</ele>
        <time>2026-06-05T11:01:12</time>
      </trkpt>
      <trkpt lat="36.04328694753349" lon="129.37076898291707">
        <ele>12.0</ele>
        <time>2026-06-05T11:01:13</time>
      </trkpt>
      <trkpt lat="36.0433379933238" lon="129.37078499235213">
        <ele>12.0</ele>
        <time>2026-06-05T11:01:14</time>
      </trkpt>
      <trkpt lat="36.043387949466705" lon="129.3707999959588">
        <ele>12.0</ele>
        <time>2026-06-05T11:01:15</time>
      </trkpt>
      <trkpt lat="36.04343798942864" lon="129.3708169274032">
        <ele>12.0</ele>
        <time>2026-06-05T11:01:16</time>
      </trkpt>
      <trkpt lat="36.04348593391478" lon="129.37083796598017">
        <ele>12.0</ele>
        <time>2026-06-05T11:01:17</time>
      </trkpt>
      <trkpt lat="36.04353195056319" lon="129.37086294405162">
        <ele>12.0</ele>
        <time>2026-06-05T11:01:18</time>
      </trkpt>
      <trkpt lat="36.043577967211604" lon="129.3708829768002">
        <ele>12.0</ele>
        <time>2026-06-05T11:01:19</time>
      </trkpt>
      <trkpt lat="36.043623983860016" lon="129.37089596875012">
        <ele>12.0</ele>
        <time>2026-06-05T11:01:20</time>
      </trkpt>
      <trkpt lat="36.04367092251778" lon="129.37090099789202">
        <ele>12.0</ele>
        <time>2026-06-05T11:01:21</time>
      </trkpt>
      <trkpt lat="36.04371895082295" lon="129.37090191990137">
        <ele>12.0</ele>
        <time>2026-06-05T11:01:22</time>
      </trkpt>
      <trkpt lat="36.04376597329974" lon="129.37090099789202">
        <ele>12.0</ele>
        <time>2026-06-05T11:01:23</time>
      </trkpt>
      <trkpt lat="36.04381391778588" lon="129.37089999206364">
        <ele>12.0</ele>
        <time>2026-06-05T11:01:24</time>
      </trkpt>
      <trkpt lat="36.043861946091056" lon="129.37090292572975">
        <ele>12.0</ele>
        <time>2026-06-05T11:01:25</time>
      </trkpt>
      <trkpt lat="36.04390896856785" lon="129.37090896070004">
        <ele>12.0</ele>
        <time>2026-06-05T11:01:26</time>
      </trkpt>
      <trkpt lat="36.04395699687302" lon="129.37091792933643">
        <ele>12.0</ele>
        <time>2026-06-05T11:01:27</time>
      </trkpt>
      <trkpt lat="36.04400494135916" lon="129.370929999277">
        <ele>12.0</ele>
        <time>2026-06-05T11:01:28</time>
      </trkpt>
      <trkpt lat="36.044052969664335" lon="129.37094592489302">
        <ele>12.0</ele>
        <time>2026-06-05T11:01:29</time>
      </trkpt>
      <trkpt lat="36.04409999214113" lon="129.37096495181322">
        <ele>12.0</ele>
        <time>2026-06-05T11:01:30</time>
      </trkpt>
      <trkpt lat="36.04414793662727" lon="129.3709849845618">
        <ele>12.0</ele>
        <time>2026-06-05T11:01:31</time>
      </trkpt>
      <trkpt lat="36.04419596493244" lon="129.37100493349135">
        <ele>12.0</ele>
        <time>2026-06-05T11:01:32</time>
      </trkpt>
      <trkpt lat="36.044243993237615" lon="129.3710269778967">
        <ele>12.0</ele>
        <time>2026-06-05T11:01:33</time>
      </trkpt>
      <trkpt lat="36.044292943552136" lon="129.3710449989885">
        <ele>11.8</ele>
        <time>2026-06-05T11:01:34</time>
      </trkpt>
      <trkpt lat="36.04434197768569" lon="129.37105799093843">
        <ele>11.8</ele>
        <time>2026-06-05T11:01:35</time>
      </trkpt>
      <trkpt lat="36.04439193382859" lon="129.37106997705996">
        <ele>11.8</ele>
        <time>2026-06-05T11:01:36</time>
      </trkpt>
      <trkpt lat="36.044440967962146" lon="129.37108598649502">
        <ele>11.6</ele>
        <time>2026-06-05T11:01:37</time>
      </trkpt>
      <trkpt lat="36.04448698461056" lon="129.3711089529097">
        <ele>11.6</ele>
        <time>2026-06-05T11:01:38</time>
      </trkpt>
      <trkpt lat="36.04453291743994" lon="129.37112999148667">
        <ele>11.6</ele>
        <time>2026-06-05T11:01:39</time>
      </trkpt>
      <trkpt lat="36.04457893408835" lon="129.3711459171027">
        <ele>11.6</ele>
        <time>2026-06-05T11:01:40</time>
      </trkpt>
      <trkpt lat="36.04462595656514" lon="129.37115295790136">
        <ele>11.4</ele>
        <time>2026-06-05T11:01:41</time>
      </trkpt>
      <trkpt lat="36.04467197321355" lon="129.37115396372974">
        <ele>11.4</ele>
        <time>2026-06-05T11:01:42</time>
      </trkpt>
      <trkpt lat="36.044718995690346" lon="129.37115295790136">
        <ele>11.4</ele>
        <time>2026-06-05T11:01:43</time>
      </trkpt>
      <trkpt lat="36.044764928519726" lon="129.3711559753865">
        <ele>11.4</ele>
        <time>2026-06-05T11:01:44</time>
      </trkpt>
      <trkpt lat="36.04481094516814" lon="129.3711649440229">
        <ele>11.4</ele>
        <time>2026-06-05T11:01:45</time>
      </trkpt>
      <trkpt lat="36.04485595598817" lon="129.37118095345795">
        <ele>11.4</ele>
        <time>2026-06-05T11:01:46</time>
      </trkpt>
      <trkpt lat="36.0449009668082" lon="129.37120098620653">
        <ele>11.4</ele>
        <time>2026-06-05T11:01:47</time>
      </trkpt>
      <trkpt lat="36.04494698345661" lon="129.37121892347932">
        <ele>11.4</ele>
        <time>2026-06-05T11:01:48</time>
      </trkpt>
      <trkpt lat="36.04499291628599" lon="129.37123199924827">
        <ele>11.4</ele>
        <time>2026-06-05T11:01:49</time>
      </trkpt>
      <trkpt lat="36.045040944591165" lon="129.3712439853698">
        <ele>11.6</ele>
        <time>2026-06-05T11:01:50</time>
      </trkpt>
      <trkpt lat="36.04508997872472" lon="129.37125697731972">
        <ele>11.6</ele>
        <time>2026-06-05T11:01:51</time>
      </trkpt>
      <trkpt lat="36.04513892903924" lon="129.3712719809264">
        <ele>11.6</ele>
        <time>2026-06-05T11:01:52</time>
      </trkpt>
      <trkpt lat="36.04518796317279" lon="129.37128698453307">
        <ele>11.6</ele>
        <time>2026-06-05T11:01:53</time>
      </trkpt>
      <trkpt lat="36.045237919315696" lon="129.3712989706546">
        <ele>11.6</ele>
        <time>2026-06-05T11:01:54</time>
      </trkpt>
      <trkpt lat="36.04528795927763" lon="129.371307939291">
        <ele>11.6</ele>
        <time>2026-06-05T11:01:55</time>
      </trkpt>
      <trkpt lat="36.045337999239564" lon="129.37131699174643">
        <ele>11.6</ele>
        <time>2026-06-05T11:01:56</time>
      </trkpt>
      <trkpt lat="36.045386949554086" lon="129.3713269662112">
        <ele>11.6</ele>
        <time>2026-06-05T11:01:57</time>
      </trkpt>
      <trkpt lat="36.04543598368764" lon="129.37134196981788">
        <ele>11.6</ele>
        <time>2026-06-05T11:01:58</time>
      </trkpt>
      <trkpt lat="36.04548493400216" lon="129.37135596759617">
        <ele>11.6</ele>
        <time>2026-06-05T11:01:59</time>
      </trkpt>
      <trkpt lat="36.045534973964095" lon="129.3713679537177">
        <ele>11.4</ele>
        <time>2026-06-05T11:02:00</time>
      </trkpt>
      <trkpt lat="36.04558593593538" lon="129.37137591652572">
        <ele>11.4</ele>
        <time>2026-06-05T11:02:01</time>
      </trkpt>
      <trkpt lat="36.04563698172569" lon="129.37138396315277">
        <ele>11.4</ele>
        <time>2026-06-05T11:02:02</time>
      </trkpt>
      <trkpt lat="36.045687943696976" lon="129.37139293178916">
        <ele>11.4</ele>
        <time>2026-06-05T11:02:03</time>
      </trkpt>
      <trkpt lat="36.04573898948729" lon="129.37140198424459">
        <ele>11.4</ele>
        <time>2026-06-05T11:02:04</time>
      </trkpt>
      <trkpt lat="36.04578894563019" lon="129.37141397036612">
        <ele>11.4</ele>
        <time>2026-06-05T11:02:05</time>
      </trkpt>
      <trkpt lat="36.045836973935366" lon="129.37143299728632">
        <ele>11.4</ele>
        <time>2026-06-05T11:02:06</time>
      </trkpt>
      <trkpt lat="36.0458819847554" lon="129.3714569695294">
        <ele>11.4</ele>
        <time>2026-06-05T11:02:07</time>
      </trkpt>
      <trkpt lat="36.04592598974705" lon="129.37147691845894">
        <ele>11.4</ele>
        <time>2026-06-05T11:02:08</time>
      </trkpt>
      <trkpt lat="36.04597091674805" lon="129.3714889883995">
        <ele>11.4</ele>
        <time>2026-06-05T11:02:09</time>
      </trkpt>
      <trkpt lat="36.04601592756808" lon="129.37149695120752">
        <ele>11.4</ele>
        <time>2026-06-05T11:02:10</time>
      </trkpt>
      <trkpt lat="36.04606395587325" lon="129.3715059198439">
        <ele>11.6</ele>
        <time>2026-06-05T11:02:11</time>
      </trkpt>
      <trkpt lat="36.046112990006804" lon="129.37151396647096">
        <ele>11.6</ele>
        <time>2026-06-05T11:02:12</time>
      </trkpt>
      <trkpt lat="36.04616294614971" lon="129.37152293510735">
        <ele>11.6</ele>
        <time>2026-06-05T11:02:13</time>
      </trkpt>
      <trkpt lat="36.04621298611164" lon="129.37153492122889">
        <ele>11.6</ele>
        <time>2026-06-05T11:02:14</time>
      </trkpt>
      <trkpt lat="36.04626294225454" lon="129.37154891900718">
        <ele>11.8</ele>
        <time>2026-06-05T11:02:15</time>
      </trkpt>
      <trkpt lat="36.04631398804486" lon="129.37156392261386">
        <ele>11.8</ele>
        <time>2026-06-05T11:02:16</time>
      </trkpt>
      <trkpt lat="36.04636595584452" lon="129.37157792039216">
        <ele>11.8</ele>
        <time>2026-06-05T11:02:17</time>
      </trkpt>
      <trkpt lat="36.046417923644185" lon="129.37158999033272">
        <ele>11.8</ele>
        <time>2026-06-05T11:02:18</time>
      </trkpt>
      <trkpt lat="36.0464689694345" lon="129.3716049939394">
        <ele>11.8</ele>
        <time>2026-06-05T11:02:19</time>
      </trkpt>
      <trkpt lat="36.04651993140578" lon="129.3716189917177">
        <ele>11.8</ele>
        <time>2026-06-05T11:02:20</time>
      </trkpt>
      <trkpt lat="36.0465709771961" lon="129.3716319836676">
        <ele>11.8</ele>
        <time>2026-06-05T11:02:21</time>
      </trkpt>
      <trkpt lat="36.04662294499576" lon="129.37164296396077">
        <ele>11.8</ele>
        <time>2026-06-05T11:02:22</time>
      </trkpt>
      <trkpt lat="36.046673990786076" lon="129.37165193259716">
        <ele>11.8</ele>
        <time>2026-06-05T11:02:23</time>
      </trkpt>
      <trkpt lat="36.04672394692898" lon="129.37166299670935">
        <ele>11.6</ele>
        <time>2026-06-05T11:02:24</time>
      </trkpt>
      <trkpt lat="36.04677499271929" lon="129.37167196534574">
        <ele>11.6</ele>
        <time>2026-06-05T11:02:25</time>
      </trkpt>
      <trkpt lat="36.046824948862195" lon="129.37167992815375">
        <ele>11.6</ele>
        <time>2026-06-05T11:02:26</time>
      </trkpt>
      <trkpt lat="36.04687599465251" lon="129.37168898060918">
        <ele>11.6</ele>
        <time>2026-06-05T11:02:27</time>
      </trkpt>
      <trkpt lat="36.04692595079541" lon="129.3717009667307">
        <ele>11.6</ele>
        <time>2026-06-05T11:02:28</time>
      </trkpt>
      <trkpt lat="36.046975990757346" lon="129.3717159703374">
        <ele>11.6</ele>
        <time>2026-06-05T11:02:29</time>
      </trkpt>
      <trkpt lat="36.04702695272863" lon="129.3717339914292">
        <ele>11.6</ele>
        <time>2026-06-05T11:02:30</time>
      </trkpt>
      <trkpt lat="36.04707699269056" lon="129.371751928702">
        <ele>11.4</ele>
        <time>2026-06-05T11:02:31</time>
      </trkpt>
      <trkpt lat="36.04712896049023" lon="129.37176894396544">
        <ele>11.4</ele>
        <time>2026-06-05T11:02:32</time>
      </trkpt>
      <trkpt lat="36.04718092828989" lon="129.3717849534005">
        <ele>11.4</ele>
        <time>2026-06-05T11:02:33</time>
      </trkpt>
      <trkpt lat="36.047233985736966" lon="129.37179995700717">
        <ele>11.2</ele>
        <time>2026-06-05T11:02:34</time>
      </trkpt>
      <trkpt lat="36.04728796519339" lon="129.37181496061385">
        <ele>11.2</ele>
        <time>2026-06-05T11:02:35</time>
      </trkpt>
      <trkpt lat="36.047341944649816" lon="129.37182895839214">
        <ele>11.2</ele>
        <time>2026-06-05T11:02:36</time>
      </trkpt>
      <trkpt lat="36.04739491827786" lon="129.37184295617044">
        <ele>11.2</ele>
        <time>2026-06-05T11:02:37</time>
      </trkpt>
      <trkpt lat="36.047448981553316" lon="129.37185795977712">
        <ele>11.0</ele>
        <time>2026-06-05T11:02:38</time>
      </trkpt>
      <trkpt lat="36.04750195518136" lon="129.3718719575554">
        <ele>11.2</ele>
        <time>2026-06-05T11:02:39</time>
      </trkpt>
      <trkpt lat="36.047554928809404" lon="129.3718869611621">
        <ele>11.2</ele>
        <time>2026-06-05T11:02:40</time>
      </trkpt>
      <trkpt lat="36.0476069804281" lon="129.3719009589404">
        <ele>11.2</ele>
        <time>2026-06-05T11:02:41</time>
      </trkpt>
      <trkpt lat="36.04765894822776" lon="129.3719139508903">
        <ele>11.2</ele>
        <time>2026-06-05T11:02:42</time>
      </trkpt>
      <trkpt lat="36.0477089881897" lon="129.3719279486686">
        <ele>11.4</ele>
        <time>2026-06-05T11:02:43</time>
      </trkpt>
      <trkpt lat="36.04775793850422" lon="129.37193993479013">
        <ele>11.4</ele>
        <time>2026-06-05T11:02:44</time>
      </trkpt>
      <trkpt lat="36.04780697263777" lon="129.37195099890232">
        <ele>11.6</ele>
        <time>2026-06-05T11:02:45</time>
      </trkpt>
      <trkpt lat="36.047854917123914" lon="129.37196197919548">
        <ele>11.6</ele>
        <time>2026-06-05T11:02:46</time>
      </trkpt>
      <trkpt lat="36.047901939600706" lon="129.37197597697377">
        <ele>11.8</ele>
        <time>2026-06-05T11:02:47</time>
      </trkpt>
      <trkpt lat="36.04794996790588" lon="129.37198997475207">
        <ele>11.8</ele>
        <time>2026-06-05T11:02:48</time>
      </trkpt>
      <trkpt lat="36.04799799621105" lon="129.3720019608736">
        <ele>11.6</ele>
        <time>2026-06-05T11:02:49</time>
      </trkpt>
      <trkpt lat="36.04804594069719" lon="129.37201193533838">
        <ele>11.6</ele>
        <time>2026-06-05T11:02:50</time>
      </trkpt>
      <trkpt lat="36.04809598065913" lon="129.3720209877938">
        <ele>11.4</ele>
        <time>2026-06-05T11:02:51</time>
      </trkpt>
      <trkpt lat="36.04814593680203" lon="129.3720299564302">
        <ele>11.4</ele>
        <time>2026-06-05T11:02:52</time>
      </trkpt>
      <trkpt lat="36.04819497093558" lon="129.37204093672335">
        <ele>11.4</ele>
        <time>2026-06-05T11:02:53</time>
      </trkpt>
      <trkpt lat="36.048244927078485" lon="129.37205493450165">
        <ele>11.4</ele>
        <time>2026-06-05T11:02:54</time>
      </trkpt>
      <trkpt lat="36.04829496704042" lon="129.37206993810833">
        <ele>11.4</ele>
        <time>2026-06-05T11:02:55</time>
      </trkpt>
      <trkpt lat="36.0483459290117" lon="129.37208293005824">
        <ele>11.4</ele>
        <time>2026-06-05T11:02:56</time>
      </trkpt>
      <trkpt lat="36.048394963145256" lon="129.37209592200816">
        <ele>11.6</ele>
        <time>2026-06-05T11:02:57</time>
      </trkpt>
      <trkpt lat="36.04843997396529" lon="129.37210799194872">
        <ele>11.6</ele>
        <time>2026-06-05T11:02:58</time>
      </trkpt>
      <trkpt lat="36.048478949815035" lon="129.37211897224188">
        <ele>11.6</ele>
        <time>2026-06-05T11:02:59</time>
      </trkpt>
      <trkpt lat="36.04851499199867" lon="129.37212995253503">
        <ele>11.8</ele>
        <time>2026-06-05T11:03:00</time>
      </trkpt>
      <trkpt lat="36.04854793287814" lon="129.3721449561417">
        <ele>11.8</ele>
        <time>2026-06-05T11:03:01</time>
      </trkpt>
      <trkpt lat="36.04857794009149" lon="129.37215895392">
        <ele>12.0</ele>
        <time>2026-06-05T11:03:02</time>
      </trkpt>
      <trkpt lat="36.048606941476464" lon="129.37217094004154">
        <ele>12.2</ele>
        <time>2026-06-05T11:03:03</time>
      </trkpt>
      <trkpt lat="36.04863594286144" lon="129.37217999249697">
        <ele>12.2</ele>
        <time>2026-06-05T11:03:04</time>
      </trkpt>
      <trkpt lat="36.04866494424641" lon="129.37218795530498">
        <ele>12.4</ele>
        <time>2026-06-05T11:03:05</time>
      </trkpt>
      <trkpt lat="36.04869696311653" lon="129.37219792976975">
        <ele>12.4</ele>
        <time>2026-06-05T11:03:06</time>
      </trkpt>
      <trkpt lat="36.0487309936434" lon="129.37220899388194">
        <ele>12.6</ele>
        <time>2026-06-05T11:03:07</time>
      </trkpt>
      <trkpt lat="36.04876795783639" lon="129.3722199741751">
        <ele>12.6</ele>
        <time>2026-06-05T11:03:08</time>
      </trkpt>
      <trkpt lat="36.04880592785776" lon="129.37222994863987">
        <ele>12.6</ele>
        <time>2026-06-05T11:03:09</time>
      </trkpt>
      <trkpt lat="36.048842975869775" lon="129.37223598361015">
        <ele>12.6</ele>
        <time>2026-06-05T11:03:10</time>
      </trkpt>
      <trkpt lat="36.04888094589114" lon="129.37223799526691">
        <ele>12.6</ele>
        <time>2026-06-05T11:03:11</time>
      </trkpt>
      <trkpt lat="36.04891992174089" lon="129.37223891727626">
        <ele>12.6</ele>
        <time>2026-06-05T11:03:12</time>
      </trkpt>
      <trkpt lat="36.04895998723805" lon="129.37223698943853">
        <ele>12.6</ele>
        <time>2026-06-05T11:03:13</time>
      </trkpt>
      <trkpt lat="36.04900198057294" lon="129.37223698943853">
        <ele>12.6</ele>
        <time>2026-06-05T11:03:14</time>
      </trkpt>
      <trkpt lat="36.04904598556459" lon="129.37224595807493">
        <ele>12.6</ele>
        <time>2026-06-05T11:03:15</time>
      </trkpt>
      <trkpt lat="36.04908797889948" lon="129.372269930318">
        <ele>12.4</ele>
        <time>2026-06-05T11:03:16</time>
      </trkpt>
      <trkpt lat="36.04913097806275" lon="129.37230597250164">
        <ele>12.2</ele>
        <time>2026-06-05T11:03:17</time>
      </trkpt>
      <trkpt lat="36.04917699471116" lon="129.37234696000814">
        <ele>12.0</ele>
        <time>2026-06-05T11:03:18</time>
      </trkpt>
      <trkpt lat="36.049227956682444" lon="129.37237998470664">
        <ele>11.8</ele>
        <time>2026-06-05T11:03:19</time>
      </trkpt>
      <trkpt lat="36.04928294196725" lon="129.37240194529295">
        <ele>11.6</ele>
        <time>2026-06-05T11:03:20</time>
      </trkpt>
      <trkpt lat="36.049339938908815" lon="129.37241493724287">
        <ele>11.4</ele>
        <time>2026-06-05T11:03:21</time>
      </trkpt>
      <trkpt lat="36.04939693585038" lon="129.37242499552667">
        <ele>11.2</ele>
        <time>2026-06-05T11:03:22</time>
      </trkpt>
      <trkpt lat="36.04945393279195" lon="129.37243597581983">
        <ele>11.0</ele>
        <time>2026-06-05T11:03:23</time>
      </trkpt>
      <trkpt lat="36.049508918076754" lon="129.3724509794265">
        <ele>11.0</ele>
        <time>2026-06-05T11:03:24</time>
      </trkpt>
      <trkpt lat="36.04956298135221" lon="129.37246698886156">
        <ele>10.8</ele>
        <time>2026-06-05T11:03:25</time>
      </trkpt>
      <trkpt lat="36.049617966637015" lon="129.37247998081148">
        <ele>10.8</ele>
        <time>2026-06-05T11:03:26</time>
      </trkpt>
      <trkpt lat="36.04967194609344" lon="129.37248995527625">
        <ele>10.8</ele>
        <time>2026-06-05T11:03:27</time>
      </trkpt>
      <trkpt lat="36.049722991883755" lon="129.37249892391264">
        <ele>10.8</ele>
        <time>2026-06-05T11:03:28</time>
      </trkpt>
      <trkpt lat="36.04977395385504" lon="129.37250797636807">
        <ele>10.8</ele>
        <time>2026-06-05T11:03:29</time>
      </trkpt>
      <trkpt lat="36.04982399381697" lon="129.37251795083284">
        <ele>10.8</ele>
        <time>2026-06-05T11:03:30</time>
      </trkpt>
      <trkpt lat="36.049873949959874" lon="129.37252993695438">
        <ele>11.0</ele>
        <time>2026-06-05T11:03:31</time>
      </trkpt>
      <trkpt lat="36.04992499575019" lon="129.3725429289043">
        <ele>11.0</ele>
        <time>2026-06-05T11:03:32</time>
      </trkpt>
      <trkpt lat="36.04997696354985" lon="129.3725559208542">
        <ele>11.0</ele>
        <time>2026-06-05T11:03:33</time>
      </trkpt>
      <trkpt lat="36.050028931349516" lon="129.3725709244609">
        <ele>11.0</ele>
        <time>2026-06-05T11:03:34</time>
      </trkpt>
      <trkpt lat="36.05008098296821" lon="129.37258693389595">
        <ele>11.0</ele>
        <time>2026-06-05T11:03:35</time>
      </trkpt>
      <trkpt lat="36.050132950767875" lon="129.37260394915938">
        <ele>11.0</ele>
        <time>2026-06-05T11:03:36</time>
      </trkpt>
      <trkpt lat="36.05018491856754" lon="129.37261794693768">
        <ele>11.0</ele>
        <time>2026-06-05T11:03:37</time>
      </trkpt>
      <trkpt lat="36.050238981842995" lon="129.37262892723083">
        <ele>11.0</ele>
        <time>2026-06-05T11:03:38</time>
      </trkpt>
      <trkpt lat="36.05029296129942" lon="129.37263797968626">
        <ele>11.0</ele>
        <time>2026-06-05T11:03:39</time>
      </trkpt>
      <trkpt lat="36.050346940755844" lon="129.37264795415103">
        <ele>11.2</ele>
        <time>2026-06-05T11:03:40</time>
      </trkpt>
      <trkpt lat="36.05039899237454" lon="129.3726579286158">
        <ele>11.2</ele>
        <time>2026-06-05T11:03:41</time>
      </trkpt>
      <trkpt lat="36.05044794268906" lon="129.3726719263941">
        <ele>11.2</ele>
        <time>2026-06-05T11:03:42</time>
      </trkpt>
      <trkpt lat="36.05049496516585" lon="129.3726859241724">
        <ele>11.4</ele>
        <time>2026-06-05T11:03:43</time>
      </trkpt>
      <trkpt lat="36.050540981814265" lon="129.3726999219507">
        <ele>11.4</ele>
        <time>2026-06-05T11:03:44</time>
      </trkpt>
      <trkpt lat="36.050585992634296" lon="129.37271299771965">
        <ele>11.4</ele>
        <time>2026-06-05T11:03:45</time>
      </trkpt>
      <trkpt lat="36.050628991797566" lon="129.37272498384118">
        <ele>11.4</ele>
        <time>2026-06-05T11:03:46</time>
      </trkpt>
      <trkpt lat="36.050669979304075" lon="129.37273395247757">
        <ele>11.6</ele>
        <time>2026-06-05T11:03:47</time>
      </trkpt>
      <trkpt lat="36.05070895515382" lon="129.37274099327624">
        <ele>11.6</ele>
        <time>2026-06-05T11:03:48</time>
      </trkpt>
      <trkpt lat="36.05074591934681" lon="129.3727469444275">
        <ele>11.8</ele>
        <time>2026-06-05T11:03:49</time>
      </trkpt>
      <trkpt lat="36.05078196153045" lon="129.37275297939777">
        <ele>12.0</ele>
        <time>2026-06-05T11:03:50</time>
      </trkpt>
      <trkpt lat="36.05081498622894" lon="129.37276798300445">
        <ele>12.0</ele>
        <time>2026-06-05T11:03:51</time>
      </trkpt>
      <trkpt lat="36.050840970128775" lon="129.37279698438942">
        <ele>12.0</ele>
        <time>2026-06-05T11:03:52</time>
      </trkpt>
      <trkpt lat="36.05086091905832" lon="129.37283797189593">
        <ele>11.8</ele>
        <time>2026-06-05T11:03:53</time>
      </trkpt>
      <trkpt lat="36.050875922665" lon="129.37288792803884">
        <ele>11.8</ele>
        <time>2026-06-05T11:03:54</time>
      </trkpt>
      <trkpt lat="36.05089293792844" lon="129.37294299714267">
        <ele>11.8</ele>
        <time>2026-06-05T11:03:55</time>
      </trkpt>
      <trkpt lat="36.05091297067702" lon="129.37299898825586">
        <ele>11.8</ele>
        <time>2026-06-05T11:03:56</time>
      </trkpt>
      <trkpt lat="36.05093694292009" lon="129.37305397354066">
        <ele>11.6</ele>
        <time>2026-06-05T11:03:57</time>
      </trkpt>
      <trkpt lat="36.0509639326483" lon="129.3731079529971">
        <ele>11.6</ele>
        <time>2026-06-05T11:03:58</time>
      </trkpt>
      <trkpt lat="36.050993939861655" lon="129.37315992079675">
        <ele>11.4</ele>
        <time>2026-06-05T11:03:59</time>
      </trkpt>
      <trkpt lat="36.05102495290339" lon="129.37321197241545">
        <ele>11.4</ele>
        <time>2026-06-05T11:04:00</time>
      </trkpt>
      <trkpt lat="36.051055965945125" lon="129.37326293438673">
        <ele>11.0</ele>
        <time>2026-06-05T11:04:01</time>
      </trkpt>
      <trkpt lat="36.05108798481524" lon="129.37331297434866">
        <ele>10.8</ele>
        <time>2026-06-05T11:04:02</time>
      </trkpt>
      <trkpt lat="36.05111698620021" lon="129.3733659479767">
        <ele>10.8</ele>
        <time>2026-06-05T11:04:03</time>
      </trkpt>
      <trkpt lat="36.051141964271665" lon="129.3734219390899">
        <ele>10.6</ele>
        <time>2026-06-05T11:04:04</time>
      </trkpt>
      <trkpt lat="36.051166942343116" lon="129.37347994185984">
        <ele>10.6</ele>
        <time>2026-06-05T11:04:05</time>
      </trkpt>
      <trkpt lat="36.05119393207133" lon="129.3735369388014">
        <ele>10.4</ele>
        <time>2026-06-05T11:04:06</time>
      </trkpt>
      <trkpt lat="36.05122393928468" lon="129.3735919240862">
        <ele>10.4</ele>
        <time>2026-06-05T11:04:07</time>
      </trkpt>
      <trkpt lat="36.0512559581548" lon="129.3736439757049">
        <ele>10.4</ele>
        <time>2026-06-05T11:04:08</time>
      </trkpt>
      <trkpt lat="36.05128797702491" lon="129.37369694933295">
        <ele>10.4</ele>
        <time>2026-06-05T11:04:09</time>
      </trkpt>
      <trkpt lat="36.051315972581506" lon="129.37375394627452">
        <ele>10.4</ele>
        <time>2026-06-05T11:04:10</time>
      </trkpt>
      <trkpt lat="36.05134195648134" lon="129.37381094321609">
        <ele>10.6</ele>
        <time>2026-06-05T11:04:11</time>
      </trkpt>
      <trkpt lat="36.05136794038117" lon="129.3738699518144">
        <ele>10.6</ele>
        <time>2026-06-05T11:04:12</time>
      </trkpt>
      <trkpt lat="36.05139694176614" lon="129.37392694875598">
        <ele>10.6</ele>
        <time>2026-06-05T11:04:13</time>
      </trkpt>
      <trkpt lat="36.051425943151116" lon="129.37398193404078">
        <ele>10.6</ele>
        <time>2026-06-05T11:04:14</time>
      </trkpt>
      <trkpt lat="36.05145393870771" lon="129.37403499148786">
        <ele>10.8</ele>
        <time>2026-06-05T11:04:15</time>
      </trkpt>
      <trkpt lat="36.0514819342643" lon="129.374082935974">
        <ele>10.8</ele>
        <time>2026-06-05T11:04:16</time>
      </trkpt>
      <trkpt lat="36.051509929820895" lon="129.37412794679403">
        <ele>11.0</ele>
        <time>2026-06-05T11:04:17</time>
      </trkpt>
      <trkpt lat="36.05153599753976" lon="129.3741709459573">
        <ele>11.0</ele>
        <time>2026-06-05T11:04:18</time>
      </trkpt>
      <trkpt lat="36.05155795812607" lon="129.37420992180705">
        <ele>11.0</ele>
        <time>2026-06-05T11:04:19</time>
      </trkpt>
      <trkpt lat="36.05158092454076" lon="129.37424294650555">
        <ele>11.0</ele>
        <time>2026-06-05T11:04:20</time>
      </trkpt>
      <trkpt lat="36.05160699225962" lon="129.37425996176898">
        <ele>11.0</ele>
        <time>2026-06-05T11:04:21</time>
      </trkpt>
      <trkpt lat="36.051634987816215" lon="129.37426297925413">
        <ele>11.0</ele>
        <time>2026-06-05T11:04:22</time>
      </trkpt>
      <trkpt lat="36.05166398920119" lon="129.37425199896097">
        <ele>11.0</ele>
        <time>2026-06-05T11:04:23</time>
      </trkpt>
      <trkpt lat="36.05169198475778" lon="129.37423297204077">
        <ele>10.8</ele>
        <time>2026-06-05T11:04:24</time>
      </trkpt>
      <trkpt lat="36.05171897448599" lon="129.37421092763543">
        <ele>11.0</ele>
        <time>2026-06-05T11:04:25</time>
      </trkpt>
      <trkpt lat="36.051743952557445" lon="129.37418796122074">
        <ele>11.0</ele>
        <time>2026-06-05T11:04:26</time>
      </trkpt>
      <trkpt lat="36.051767924800515" lon="129.37416792847216">
        <ele>11.2</ele>
        <time>2026-06-05T11:04:27</time>
      </trkpt>
      <trkpt lat="36.05179399251938" lon="129.374148985371">
        <ele>11.4</ele>
        <time>2026-06-05T11:04:28</time>
      </trkpt>
      <trkpt lat="36.05181997641921" lon="129.37413197010756">
        <ele>11.6</ele>
        <time>2026-06-05T11:04:29</time>
      </trkpt>
      <trkpt lat="36.05184596031904" lon="129.37411495484412">
        <ele>11.6</ele>
        <time>2026-06-05T11:04:30</time>
      </trkpt>
      <trkpt lat="36.05187093839049" lon="129.37410095706582">
        <ele>11.8</ele>
        <time>2026-06-05T11:04:31</time>
      </trkpt>
      <trkpt lat="36.051894994452596" lon="129.3740929942578">
        <ele>11.8</ele>
        <time>2026-06-05T11:04:32</time>
      </trkpt>
      <trkpt lat="36.051916955038905" lon="129.3740969337523">
        <ele>11.6</ele>
        <time>2026-06-05T11:04:33</time>
      </trkpt>
      <trkpt lat="36.051934976130724" lon="129.37411696650088">
        <ele>11.6</ele>
        <time>2026-06-05T11:04:34</time>
      </trkpt>
      <trkpt lat="36.05194696225226" lon="129.37415099702775">
        <ele>11.6</ele>
        <time>2026-06-05T11:04:35</time>
      </trkpt>
      <trkpt lat="36.05195593088865" lon="129.37419491820037">
        <ele>11.4</ele>
        <time>2026-06-05T11:04:36</time>
      </trkpt>
      <trkpt lat="36.0519639775157" lon="129.37424395233393">
        <ele>11.4</ele>
        <time>2026-06-05T11:04:37</time>
      </trkpt>
      <trkpt lat="36.05197093449533" lon="129.37429692596197">
        <ele>11.4</ele>
        <time>2026-06-05T11:04:38</time>
      </trkpt>
      <trkpt lat="36.051978981122375" lon="129.37434998340905">
        <ele>11.6</ele>
        <time>2026-06-05T11:04:39</time>
      </trkpt>
      <trkpt lat="36.05198895558715" lon="129.37440396286547">
        <ele>11.6</ele>
        <time>2026-06-05T11:04:40</time>
      </trkpt>
      <trkpt lat="36.0519999358803" lon="129.37445894815028">
        <ele>11.6</ele>
        <time>2026-06-05T11:04:41</time>
      </trkpt>
      <trkpt lat="36.05201192200184" lon="129.37451393343508">
        <ele>11.6</ele>
        <time>2026-06-05T11:04:42</time>
      </trkpt>
      <trkpt lat="36.052022986114025" lon="129.37456992454827">
        <ele>11.4</ele>
        <time>2026-06-05T11:04:43</time>
      </trkpt>
      <trkpt lat="36.05203396640718" lon="129.37462692148983">
        <ele>11.4</ele>
        <time>2026-06-05T11:04:44</time>
      </trkpt>
      <trkpt lat="36.052043940871954" lon="129.37468299642205">
        <ele>11.4</ele>
        <time>2026-06-05T11:04:45</time>
      </trkpt>
      <trkpt lat="36.05205492116511" lon="129.37473798170686">
        <ele>11.4</ele>
        <time>2026-06-05T11:04:46</time>
      </trkpt>
      <trkpt lat="36.052065985277295" lon="129.37479397282004">
        <ele>11.4</ele>
        <time>2026-06-05T11:04:47</time>
      </trkpt>
      <trkpt lat="36.05207595974207" lon="129.37484795227647">
        <ele>11.6</ele>
        <time>2026-06-05T11:04:48</time>
      </trkpt>
      <trkpt lat="36.052086940035224" lon="129.37490394338965">
        <ele>11.6</ele>
        <time>2026-06-05T11:04:49</time>
      </trkpt>
      <trkpt lat="36.05209792032838" lon="129.37495993450284">
        <ele>11.6</ele>
        <time>2026-06-05T11:04:50</time>
      </trkpt>
      <trkpt lat="36.052106972783804" lon="129.3750169314444">
        <ele>11.8</ele>
        <time>2026-06-05T11:04:51</time>
      </trkpt>
      <trkpt lat="36.05211694724858" lon="129.37507594004273">
        <ele>11.8</ele>
        <time>2026-06-05T11:04:52</time>
      </trkpt>
      <trkpt lat="36.052125999704" lon="129.37513494864106">
        <ele>12.0</ele>
        <time>2026-06-05T11:04:53</time>
      </trkpt>
      <trkpt lat="36.05213597416878" lon="129.3751979805529">
        <ele>12.2</ele>
        <time>2026-06-05T11:04:54</time>
      </trkpt>
      <trkpt lat="36.05214494280517" lon="129.3752619344741">
        <ele>12.4</ele>
        <time>2026-06-05T11:04:55</time>
      </trkpt>
      <trkpt lat="36.052152989432216" lon="129.37532697804272">
        <ele>12.6</ele>
        <time>2026-06-05T11:04:56</time>
      </trkpt>
      <trkpt lat="36.05215994641185" lon="129.3753919377923">
        <ele>12.8</ele>
        <time>2026-06-05T11:04:57</time>
      </trkpt>
      <trkpt lat="36.05217796750367" lon="129.37545597553253">
        <ele>12.8</ele>
        <time>2026-06-05T11:04:58</time>
      </trkpt>
      <trkpt lat="36.052195988595486" lon="129.3755219411105">
        <ele>12.8</ele>
        <time>2026-06-05T11:04:59</time>
      </trkpt>
      <trkpt lat="36.05221292003989" lon="129.3755909241736">
        <ele>13.0</ele>
        <time>2026-06-05T11:05:00</time>
      </trkpt>
      <trkpt lat="36.05222691781819" lon="129.3756609968841">
        <ele>13.0</ele>
        <time>2026-06-05T11:05:01</time>
      </trkpt>
      <trkpt lat="36.052239993587136" lon="129.37573199160397">
        <ele>13.0</ele>
        <time>2026-06-05T11:05:02</time>
      </trkpt>
      <trkpt lat="36.05225399136543" lon="129.3758039921522">
        <ele>13.0</ele>
        <time>2026-06-05T11:05:03</time>
      </trkpt>
      <trkpt lat="36.05226698331535" lon="129.37587498687208">
        <ele>13.2</ele>
        <time>2026-06-05T11:05:04</time>
      </trkpt>
      <trkpt lat="36.052279975265265" lon="129.3759429641068">
        <ele>13.2</ele>
        <time>2026-06-05T11:05:05</time>
      </trkpt>
      <trkpt lat="36.05228399857879" lon="129.3760119471699">
        <ele>13.2</ele>
        <time>2026-06-05T11:05:06</time>
      </trkpt>
      <trkpt lat="36.052281986922026" lon="129.376080930233">
        <ele>13.4</ele>
        <time>2026-06-05T11:05:07</time>
      </trkpt>
      <trkpt lat="36.052285926416516" lon="129.37615192495286">
        <ele>13.6</ele>
        <time>2026-06-05T11:05:08</time>
      </trkpt>
      <trkpt lat="36.05229397304356" lon="129.3762239255011">
        <ele>13.6</ele>
        <time>2026-06-05T11:05:09</time>
      </trkpt>
      <trkpt lat="36.052305959165096" lon="129.37629492022097">
        <ele>13.6</ele>
        <time>2026-06-05T11:05:10</time>
      </trkpt>
      <trkpt lat="36.05231895111501" lon="129.3763639871031">
        <ele>13.6</ele>
        <time>2026-06-05T11:05:11</time>
      </trkpt>
      <trkpt lat="36.05233093723655" lon="129.3764329701662">
        <ele>13.6</ele>
        <time>2026-06-05T11:05:12</time>
      </trkpt>
      <trkpt lat="36.05233998969197" lon="129.3765029590577">
        <ele>13.6</ele>
        <time>2026-06-05T11:05:13</time>
      </trkpt>
      <trkpt lat="36.052345940843225" lon="129.37657395377755">
        <ele>13.6</ele>
        <time>2026-06-05T11:05:14</time>
      </trkpt>
      <trkpt lat="36.05235096998513" lon="129.3766459543258">
        <ele>13.4</ele>
        <time>2026-06-05T11:05:15</time>
      </trkpt>
      <trkpt lat="36.05235792696476" lon="129.37671694904566">
        <ele>13.4</ele>
        <time>2026-06-05T11:05:16</time>
      </trkpt>
      <trkpt lat="36.052364967763424" lon="129.37678794376552">
        <ele>13.4</ele>
        <time>2026-06-05T11:05:17</time>
      </trkpt>
      <trkpt lat="36.05237594805658" lon="129.376857932657">
        <ele>13.2</ele>
        <time>2026-06-05T11:05:18</time>
      </trkpt>
      <trkpt lat="36.052389945834875" lon="129.37692599371076">
        <ele>13.2</ele>
        <time>2026-06-05T11:05:19</time>
      </trkpt>
      <trkpt lat="36.05240394361317" lon="129.37699195928872">
        <ele>13.0</ele>
        <time>2026-06-05T11:05:20</time>
      </trkpt>
      <trkpt lat="36.05241592973471" lon="129.3770569190383">
        <ele>13.0</ele>
        <time>2026-06-05T11:05:21</time>
      </trkpt>
      <trkpt lat="36.05242498219013" lon="129.37712095677853">
        <ele>12.8</ele>
        <time>2026-06-05T11:05:22</time>
      </trkpt>
      <trkpt lat="36.052432944998145" lon="129.37718197703362">
        <ele>12.8</ele>
        <time>2026-06-05T11:05:23</time>
      </trkpt>
      <trkpt lat="36.05244291946292" lon="129.37724199146032">
        <ele>12.8</ele>
        <time>2026-06-05T11:05:24</time>
      </trkpt>
      <trkpt lat="36.052452977746725" lon="129.37730091623962">
        <ele>12.8</ele>
        <time>2026-06-05T11:05:25</time>
      </trkpt>
      <trkpt lat="36.05246194638312" lon="129.37735891900957">
        <ele>12.6</ele>
        <time>2026-06-05T11:05:26</time>
      </trkpt>
      <trkpt lat="36.05247192084789" lon="129.3774139881134">
        <ele>12.6</ele>
        <time>2026-06-05T11:05:27</time>
      </trkpt>
      <trkpt lat="36.05248994193971" lon="129.3774639442563">
        <ele>12.6</ele>
        <time>2026-06-05T11:05:28</time>
      </trkpt>
      <trkpt lat="36.052516931667924" lon="129.37750392593443">
        <ele>12.6</ele>
        <time>2026-06-05T11:05:29</time>
      </trkpt>
      <trkpt lat="36.05255297385156" lon="129.37752597033978">
        <ele>12.6</ele>
        <time>2026-06-05T11:05:30</time>
      </trkpt>
      <trkpt lat="36.05259295552969" lon="129.37752697616816">
        <ele>12.6</ele>
        <time>2026-06-05T11:05:31</time>
      </trkpt>
      <trkpt lat="36.05263293720782" lon="129.37751297838986">
        <ele>12.6</ele>
        <time>2026-06-05T11:05:32</time>
      </trkpt>
      <trkpt lat="36.052672918885946" lon="129.37749294564128">
        <ele>12.8</ele>
        <time>2026-06-05T11:05:33</time>
      </trkpt>
      <trkpt lat="36.05271399021149" lon="129.37747593037784">
        <ele>12.8</ele>
        <time>2026-06-05T11:05:34</time>
      </trkpt>
      <trkpt lat="36.052755983546376" lon="129.3774639442563">
        <ele>12.8</ele>
        <time>2026-06-05T11:05:35</time>
      </trkpt>
      <trkpt lat="36.052798982709646" lon="129.37745396979153">
        <ele>13.0</ele>
        <time>2026-06-05T11:05:36</time>
      </trkpt>
      <trkpt lat="36.052841981872916" lon="129.37744793482125">
        <ele>13.0</ele>
        <time>2026-06-05T11:05:37</time>
      </trkpt>
      <trkpt lat="36.05288598686457" lon="129.37744198367">
        <ele>13.0</ele>
        <time>2026-06-05T11:05:38</time>
      </trkpt>
      <trkpt lat="36.0529309976846" lon="129.3774359486997">
        <ele>13.0</ele>
        <time>2026-06-05T11:05:39</time>
      </trkpt>
      <trkpt lat="36.05297793634236" lon="129.3774309195578">
        <ele>13.2</ele>
        <time>2026-06-05T11:05:40</time>
      </trkpt>
      <trkpt lat="36.05302495881915" lon="129.37742597423494">
        <ele>13.2</ele>
        <time>2026-06-05T11:05:41</time>
      </trkpt>
      <trkpt lat="36.053072987124324" lon="129.37742094509304">
        <ele>13.4</ele>
        <time>2026-06-05T11:05:42</time>
      </trkpt>
      <trkpt lat="36.053122943267226" lon="129.3774179276079">
        <ele>13.4</ele>
        <time>2026-06-05T11:05:43</time>
      </trkpt>
      <trkpt lat="36.05317298322916" lon="129.37741599977016">
        <ele>13.4</ele>
        <time>2026-06-05T11:05:44</time>
      </trkpt>
      <trkpt lat="36.05322394520044" lon="129.3774139881134">
        <ele>13.6</ele>
        <time>2026-06-05T11:05:45</time>
      </trkpt>
      <trkpt lat="36.05327499099076" lon="129.37741197645664">
        <ele>13.6</ele>
        <time>2026-06-05T11:05:46</time>
      </trkpt>
      <trkpt lat="36.05332695879042" lon="129.37740996479988">
        <ele>13.6</ele>
        <time>2026-06-05T11:05:47</time>
      </trkpt>
      <trkpt lat="36.053379932418466" lon="129.37740694731474">
        <ele>13.8</ele>
        <time>2026-06-05T11:05:48</time>
      </trkpt>
      <trkpt lat="36.05343198403716" lon="129.37740493565798">
        <ele>13.8</ele>
        <time>2026-06-05T11:05:49</time>
      </trkpt>
      <trkpt lat="36.053483951836824" lon="129.37740292400122">
        <ele>13.8</ele>
        <time>2026-06-05T11:05:50</time>
      </trkpt>
      <trkpt lat="36.05353591963649" lon="129.3774009961635">
        <ele>13.8</ele>
        <time>2026-06-05T11:05:51</time>
      </trkpt>
      <trkpt lat="36.05358797125518" lon="129.37739898450673">
        <ele>13.8</ele>
        <time>2026-06-05T11:05:52</time>
      </trkpt>
      <trkpt lat="36.053638933226466" lon="129.37739697284997">
        <ele>13.8</ele>
        <time>2026-06-05T11:05:53</time>
      </trkpt>
      <trkpt lat="36.05368997901678" lon="129.37739697284997">
        <ele>13.6</ele>
        <time>2026-06-05T11:05:54</time>
      </trkpt>
      <trkpt lat="36.053740940988064" lon="129.37739596702158">
        <ele>13.6</ele>
        <time>2026-06-05T11:05:55</time>
      </trkpt>
      <trkpt lat="36.05379198677838" lon="129.3773949611932">
        <ele>13.6</ele>
        <time>2026-06-05T11:05:56</time>
      </trkpt>
      <trkpt lat="36.05384395457804" lon="129.3773949611932">
        <ele>13.6</ele>
        <time>2026-06-05T11:05:57</time>
      </trkpt>
      <trkpt lat="36.053895922377706" lon="129.3773949611932">
        <ele>13.6</ele>
        <time>2026-06-05T11:05:58</time>
      </trkpt>
      <trkpt lat="36.0539479739964" lon="129.3773949611932">
        <ele>13.4</ele>
        <time>2026-06-05T11:05:59</time>
      </trkpt>
      <trkpt lat="36.054000947624445" lon="129.37739596702158">
        <ele>13.4</ele>
        <time>2026-06-05T11:06:00</time>
      </trkpt>
      <trkpt lat="36.05405492708087" lon="129.37739697284997">
        <ele>13.2</ele>
        <time>2026-06-05T11:06:01</time>
      </trkpt>
      <trkpt lat="36.054107984527946" lon="129.37739797867835">
        <ele>13.2</ele>
        <time>2026-06-05T11:06:02</time>
      </trkpt>
      <trkpt lat="36.05416196398437" lon="129.37739898450673">
        <ele>13.0</ele>
        <time>2026-06-05T11:06:03</time>
      </trkpt>
      <trkpt lat="36.054214937612414" lon="129.37739898450673">
        <ele>13.0</ele>
        <time>2026-06-05T11:06:04</time>
      </trkpt>
      <trkpt lat="36.05426799505949" lon="129.3773999903351">
        <ele>13.0</ele>
        <time>2026-06-05T11:06:05</time>
      </trkpt>
      <trkpt lat="36.054320968687534" lon="129.3774009961635">
        <ele>13.0</ele>
        <time>2026-06-05T11:06:06</time>
      </trkpt>
      <trkpt lat="36.05437394231558" lon="129.3774009961635">
        <ele>13.0</ele>
        <time>2026-06-05T11:06:07</time>
      </trkpt>
      <trkpt lat="36.054426999762654" lon="129.37740191817284">
        <ele>13.0</ele>
        <time>2026-06-05T11:06:08</time>
      </trkpt>
      <trkpt lat="36.0544799733907" lon="129.37740292400122">
        <ele>13.0</ele>
        <time>2026-06-05T11:06:09</time>
      </trkpt>
      <trkpt lat="36.05453294701874" lon="129.37740594148636">
        <ele>13.0</ele>
        <time>2026-06-05T11:06:10</time>
      </trkpt>
      <trkpt lat="36.05458499863744" lon="129.37741499394178">
        <ele>13.2</ele>
        <time>2026-06-05T11:06:11</time>
      </trkpt>
      <trkpt lat="36.0546369664371" lon="129.37742999754846">
        <ele>13.2</ele>
        <time>2026-06-05T11:06:12</time>
      </trkpt>
      <trkpt lat="36.054690945893526" lon="129.37744399532676">
        <ele>13.4</ele>
        <time>2026-06-05T11:06:13</time>
      </trkpt>
      <trkpt lat="36.05474693700671" lon="129.37744894064963">
        <ele>13.4</ele>
        <time>2026-06-05T11:06:14</time>
      </trkpt>
      <trkpt lat="36.05480393394828" lon="129.37744793482125">
        <ele>13.4</ele>
        <time>2026-06-05T11:06:15</time>
      </trkpt>
      <trkpt lat="36.054860930889845" lon="129.37744894064963">
        <ele>13.4</ele>
        <time>2026-06-05T11:06:16</time>
      </trkpt>
      <trkpt lat="36.05491893365979" lon="129.3774559814483">
        <ele>13.6</ele>
        <time>2026-06-05T11:06:17</time>
      </trkpt>
      <trkpt lat="36.05497794225812" lon="129.37746696174145">
        <ele>13.6</ele>
        <time>2026-06-05T11:06:18</time>
      </trkpt>
      <trkpt lat="36.055034939199686" lon="129.3774829711765">
        <ele>13.6</ele>
        <time>2026-06-05T11:06:19</time>
      </trkpt>
      <trkpt lat="36.05509093031287" lon="129.37750099226832">
        <ele>13.6</ele>
        <time>2026-06-05T11:06:20</time>
      </trkpt>
      <trkpt lat="36.05514499358833" lon="129.3775189295411">
        <ele>13.6</ele>
        <time>2026-06-05T11:06:21</time>
      </trkpt>
      <trkpt lat="36.05519897304475" lon="129.37753493897617">
        <ele>13.6</ele>
        <time>2026-06-05T11:06:22</time>
      </trkpt>
      <trkpt lat="36.05525094084442" lon="129.37755094841123">
        <ele>13.6</ele>
        <time>2026-06-05T11:06:23</time>
      </trkpt>
      <trkpt lat="36.05530198663473" lon="129.37756695784628">
        <ele>13.6</ele>
        <time>2026-06-05T11:06:24</time>
      </trkpt>
      <trkpt lat="36.055351942777634" lon="129.37758296728134">
        <ele>13.8</ele>
        <time>2026-06-05T11:06:25</time>
      </trkpt>
      <trkpt lat="36.05540198273957" lon="129.37759797088802">
        <ele>13.8</ele>
        <time>2026-06-05T11:06:26</time>
      </trkpt>
      <trkpt lat="36.05545093305409" lon="129.37761196866632">
        <ele>13.8</ele>
        <time>2026-06-05T11:06:27</time>
      </trkpt>
      <trkpt lat="36.05549996718764" lon="129.37762496061623">
        <ele>13.8</ele>
        <time>2026-06-05T11:06:28</time>
      </trkpt>
      <trkpt lat="36.055548917502165" lon="129.37763895839453">
        <ele>13.8</ele>
        <time>2026-06-05T11:06:29</time>
      </trkpt>
      <trkpt lat="36.05559593997896" lon="129.37765295617282">
        <ele>13.8</ele>
        <time>2026-06-05T11:06:30</time>
      </trkpt>
      <trkpt lat="36.05564195662737" lon="129.3776679597795">
        <ele>13.8</ele>
        <time>2026-06-05T11:06:31</time>
      </trkpt>
      <trkpt lat="36.0556869674474" lon="129.37768296338618">
        <ele>13.8</ele>
        <time>2026-06-05T11:06:32</time>
      </trkpt>
      <trkpt lat="36.05573197826743" lon="129.37769796699286">
        <ele>13.6</ele>
        <time>2026-06-05T11:06:33</time>
      </trkpt>
      <trkpt lat="36.05577397160232" lon="129.37771598808467">
        <ele>13.6</ele>
        <time>2026-06-05T11:06:34</time>
      </trkpt>
      <trkpt lat="36.05581596493721" lon="129.37773291952908">
        <ele>13.6</ele>
        <time>2026-06-05T11:06:35</time>
      </trkpt>
      <trkpt lat="36.05585896410048" lon="129.3777509406209">
        <ele>13.6</ele>
        <time>2026-06-05T11:06:36</time>
      </trkpt>
      <trkpt lat="36.05590196326375" lon="129.37777197919786">
        <ele>13.6</ele>
        <time>2026-06-05T11:06:37</time>
      </trkpt>
      <trkpt lat="36.05594697408378" lon="129.3777919281274">
        <ele>13.6</ele>
        <time>2026-06-05T11:06:38</time>
      </trkpt>
      <trkpt lat="36.05599299073219" lon="129.37780894339085">
        <ele>13.6</ele>
        <time>2026-06-05T11:06:39</time>
      </trkpt>
      <trkpt lat="36.056040935218334" lon="129.37782595865428">
        <ele>13.6</ele>
        <time>2026-06-05T11:06:40</time>
      </trkpt>
      <trkpt lat="36.05608795769513" lon="129.37784297391772">
        <ele>13.6</ele>
        <time>2026-06-05T11:06:41</time>
      </trkpt>
      <trkpt lat="36.05613699182868" lon="129.37785898335278">
        <ele>13.6</ele>
        <time>2026-06-05T11:06:42</time>
      </trkpt>
      <trkpt lat="36.05618493631482" lon="129.37787298113108">
        <ele>13.6</ele>
        <time>2026-06-05T11:06:43</time>
      </trkpt>
      <trkpt lat="36.056231958791614" lon="129.37788697890937">
        <ele>13.6</ele>
        <time>2026-06-05T11:06:44</time>
      </trkpt>
      <trkpt lat="36.056278981268406" lon="129.37790198251605">
        <ele>13.8</ele>
        <time>2026-06-05T11:06:45</time>
      </trkpt>
      <trkpt lat="36.05632298626006" lon="129.37791698612273">
        <ele>14.0</ele>
        <time>2026-06-05T11:06:46</time>
      </trkpt>
      <trkpt lat="36.05636799708009" lon="129.37793391756713">
        <ele>14.2</ele>
        <time>2026-06-05T11:06:47</time>
      </trkpt>
      <trkpt lat="36.05641292408109" lon="129.37795093283057">
        <ele>14.2</ele>
        <time>2026-06-05T11:06:48</time>
      </trkpt>
      <trkpt lat="36.05645793490112" lon="129.3779689539224">
        <ele>14.4</ele>
        <time>2026-06-05T11:06:49</time>
      </trkpt>
      <trkpt lat="36.05650294572115" lon="129.3779869750142">
        <ele>14.4</ele>
        <time>2026-06-05T11:06:50</time>
      </trkpt>
      <trkpt lat="36.05654795654118" lon="129.37800792977214">
        <ele>14.4</ele>
        <time>2026-06-05T11:06:51</time>
      </trkpt>
      <trkpt lat="36.05659497901797" lon="129.3780289683491">
        <ele>14.4</ele>
        <time>2026-06-05T11:06:52</time>
      </trkpt>
      <trkpt lat="36.056641917675734" lon="129.3780479952693">
        <ele>14.4</ele>
        <time>2026-06-05T11:06:53</time>
      </trkpt>
      <trkpt lat="36.05669095180929" lon="129.37806693837047">
        <ele>14.4</ele>
        <time>2026-06-05T11:06:54</time>
      </trkpt>
      <trkpt lat="36.05674099177122" lon="129.37808596529067">
        <ele>14.2</ele>
        <time>2026-06-05T11:06:55</time>
      </trkpt>
      <trkpt lat="36.05679094791412" lon="129.37810792587698">
        <ele>14.2</ele>
        <time>2026-06-05T11:06:56</time>
      </trkpt>
      <trkpt lat="36.05684199370444" lon="129.37812795862556">
        <ele>14.2</ele>
        <time>2026-06-05T11:06:57</time>
      </trkpt>
      <trkpt lat="36.05689496733248" lon="129.37814899720252">
        <ele>14.0</ele>
        <time>2026-06-05T11:06:58</time>
      </trkpt>
      <trkpt lat="36.05694794096053" lon="129.37816995196044">
        <ele>14.0</ele>
        <time>2026-06-05T11:06:59</time>
      </trkpt>
      <trkpt lat="36.05700192041695" lon="129.37819392420352">
        <ele>14.0</ele>
        <time>2026-06-05T11:07:00</time>
      </trkpt>
      <trkpt lat="36.05705698952079" lon="129.37821596860886">
        <ele>14.0</ele>
        <time>2026-06-05T11:07:01</time>
      </trkpt>
      <trkpt lat="36.057113986462355" lon="129.37823994085193">
        <ele>14.0</ele>
        <time>2026-06-05T11:07:02</time>
      </trkpt>
      <trkpt lat="36.05717299506068" lon="129.37826399691403">
        <ele>14.0</ele>
        <time>2026-06-05T11:07:03</time>
      </trkpt>
      <trkpt lat="36.05723191983998" lon="129.37828897498548">
        <ele>14.0</ele>
        <time>2026-06-05T11:07:04</time>
      </trkpt>
      <trkpt lat="36.05729294009507" lon="129.37831395305693">
        <ele>14.0</ele>
        <time>2026-06-05T11:07:05</time>
      </trkpt>
      <trkpt lat="36.057353960350156" lon="129.37834094278514">
        <ele>14.0</ele>
        <time>2026-06-05T11:07:06</time>
      </trkpt>
      <trkpt lat="36.057415986433625" lon="129.37836793251336">
        <ele>14.0</ele>
        <time>2026-06-05T11:07:07</time>
      </trkpt>
      <trkpt lat="36.05747692286968" lon="129.3783939164132">
        <ele>14.0</ele>
        <time>2026-06-05T11:07:08</time>
      </trkpt>
      <trkpt lat="36.05753693729639" lon="129.37841897830367">
        <ele>14.0</ele>
        <time>2026-06-05T11:07:09</time>
      </trkpt>
      <trkpt lat="36.05759393423796" lon="129.3784449622035">
        <ele>14.0</ele>
        <time>2026-06-05T11:07:10</time>
      </trkpt>
      <trkpt lat="36.05764891952276" lon="129.37847195193172">
        <ele>14.0</ele>
        <time>2026-06-05T11:07:11</time>
      </trkpt>
      <trkpt lat="36.05770298279822" lon="129.3785009533167">
        <ele>14.0</ele>
        <time>2026-06-05T11:07:12</time>
      </trkpt>
      <trkpt lat="36.05775595642626" lon="129.37853196635842">
        <ele>14.0</ele>
        <time>2026-06-05T11:07:13</time>
      </trkpt>
      <trkpt lat="36.05780893005431" lon="129.37856398522854">
        <ele>14.0</ele>
        <time>2026-06-05T11:07:14</time>
      </trkpt>
      <trkpt lat="36.05785997584462" lon="129.37859793193638">
        <ele>14.0</ele>
        <time>2026-06-05T11:07:15</time>
      </trkpt>
      <trkpt lat="36.057910937815905" lon="129.37863296829164">
        <ele>13.8</ele>
        <time>2026-06-05T11:07:16</time>
      </trkpt>
      <trkpt lat="36.05796198360622" lon="129.37866993248463">
        <ele>13.8</ele>
        <time>2026-06-05T11:07:17</time>
      </trkpt>
      <trkpt lat="36.0580129455775" lon="129.37870597466826">
        <ele>13.8</ele>
        <time>2026-06-05T11:07:18</time>
      </trkpt>
      <trkpt lat="36.05806399136782" lon="129.37874193303287">
        <ele>13.8</ele>
        <time>2026-06-05T11:07:19</time>
      </trkpt>
      <trkpt lat="36.05811595916748" lon="129.37877495773137">
        <ele>13.8</ele>
        <time>2026-06-05T11:07:20</time>
      </trkpt>
      <trkpt lat="36.058167926967144" lon="129.37880697660148">
        <ele>13.6</ele>
        <time>2026-06-05T11:07:21</time>
      </trkpt>
      <trkpt lat="36.05821897275746" lon="129.3788389954716">
        <ele>13.6</ele>
        <time>2026-06-05T11:07:22</time>
      </trkpt>
      <trkpt lat="36.05826892890036" lon="129.37887193635106">
        <ele>13.6</ele>
        <time>2026-06-05T11:07:23</time>
      </trkpt>
      <trkpt lat="36.058319974690676" lon="129.37890395522118">
        <ele>13.6</ele>
        <time>2026-06-05T11:07:24</time>
      </trkpt>
      <trkpt lat="36.05837093666196" lon="129.37893697991967">
        <ele>13.6</ele>
        <time>2026-06-05T11:07:25</time>
      </trkpt>
      <trkpt lat="36.058423994109035" lon="129.37896992079914">
        <ele>13.8</ele>
        <time>2026-06-05T11:07:26</time>
      </trkpt>
      <trkpt lat="36.05847696773708" lon="129.37900193966925">
        <ele>13.8</ele>
        <time>2026-06-05T11:07:27</time>
      </trkpt>
      <trkpt lat="36.058531953021884" lon="129.37903496436775">
        <ele>13.6</ele>
        <time>2026-06-05T11:07:28</time>
      </trkpt>
      <trkpt lat="36.05858593247831" lon="129.37906698323786">
        <ele>13.6</ele>
        <time>2026-06-05T11:07:29</time>
      </trkpt>
      <trkpt lat="36.058640917763114" lon="129.3790979962796">
        <ele>13.6</ele>
        <time>2026-06-05T11:07:30</time>
      </trkpt>
      <trkpt lat="36.05869699269533" lon="129.3791289255023">
        <ele>13.6</ele>
        <time>2026-06-05T11:07:31</time>
      </trkpt>
      <trkpt lat="36.05875197798014" lon="129.37915893271565">
        <ele>13.8</ele>
        <time>2026-06-05T11:07:32</time>
      </trkpt>
      <trkpt lat="36.05880796909332" lon="129.379188939929">
        <ele>13.8</ele>
        <time>2026-06-05T11:07:33</time>
      </trkpt>
      <trkpt lat="36.05886496603489" lon="129.37921995297074">
        <ele>13.8</ele>
        <time>2026-06-05T11:07:34</time>
      </trkpt>
      <trkpt lat="36.058920957148075" lon="129.3792499601841">
        <ele>13.6</ele>
        <time>2026-06-05T11:07:35</time>
      </trkpt>
      <trkpt lat="36.05897594243288" lon="129.37928097322583">
        <ele>13.8</ele>
        <time>2026-06-05T11:07:36</time>
      </trkpt>
      <trkpt lat="36.059029921889305" lon="129.37931399792433">
        <ele>13.8</ele>
        <time>2026-06-05T11:07:37</time>
      </trkpt>
      <trkpt lat="36.05908096767962" lon="129.37934794463217">
        <ele>13.8</ele>
        <time>2026-06-05T11:07:38</time>
      </trkpt>
      <trkpt lat="36.05913293547928" lon="129.37937795184553">
        <ele>14.0</ele>
        <time>2026-06-05T11:07:39</time>
      </trkpt>
      <trkpt lat="36.05918498709798" lon="129.37940494157374">
        <ele>14.0</ele>
        <time>2026-06-05T11:07:40</time>
      </trkpt>
      <trkpt lat="36.05923695489764" lon="129.3794299196452">
        <ele>13.8</ele>
        <time>2026-06-05T11:07:41</time>
      </trkpt>
      <trkpt lat="36.059288922697306" lon="129.37945598736405">
        <ele>13.8</ele>
        <time>2026-06-05T11:07:42</time>
      </trkpt>
      <trkpt lat="36.05933896265924" lon="129.37948398292065">
        <ele>13.8</ele>
        <time>2026-06-05T11:07:43</time>
      </trkpt>
      <trkpt lat="36.05938891880214" lon="129.37951298430562">
        <ele>13.8</ele>
        <time>2026-06-05T11:07:44</time>
      </trkpt>
      <trkpt lat="36.059437952935696" lon="129.37954299151897">
        <ele>13.8</ele>
        <time>2026-06-05T11:07:45</time>
      </trkpt>
      <trkpt lat="36.05948698706925" lon="129.37957392074168">
        <ele>13.8</ele>
        <time>2026-06-05T11:07:46</time>
      </trkpt>
      <trkpt lat="36.05953593738377" lon="129.37960392795503">
        <ele>13.8</ele>
        <time>2026-06-05T11:07:47</time>
      </trkpt>
      <trkpt lat="36.059583965688944" lon="129.37963393516839">
        <ele>14.0</ele>
        <time>2026-06-05T11:07:48</time>
      </trkpt>
      <trkpt lat="36.05963199399412" lon="129.3796609248966">
        <ele>14.0</ele>
        <time>2026-06-05T11:07:49</time>
      </trkpt>
      <trkpt lat="36.05968094430864" lon="129.37968699261546">
        <ele>14.0</ele>
        <time>2026-06-05T11:07:50</time>
      </trkpt>
      <trkpt lat="36.05972997844219" lon="129.3797119706869">
        <ele>14.0</ele>
        <time>2026-06-05T11:07:51</time>
      </trkpt>
      <trkpt lat="36.059778928756714" lon="129.37973694875836">
        <ele>13.8</ele>
        <time>2026-06-05T11:07:52</time>
      </trkpt>
      <trkpt lat="36.05982796289027" lon="129.37976192682981">
        <ele>13.8</ele>
        <time>2026-06-05T11:07:53</time>
      </trkpt>
      <trkpt lat="36.05987599119544" lon="129.37978799454868">
        <ele>13.8</ele>
        <time>2026-06-05T11:07:54</time>
      </trkpt>
      <trkpt lat="36.05992494150996" lon="129.37981699593365">
        <ele>13.6</ele>
        <time>2026-06-05T11:07:55</time>
      </trkpt>
      <trkpt lat="36.059973975643516" lon="129.37984792515635">
        <ele>13.6</ele>
        <time>2026-06-05T11:07:56</time>
      </trkpt>
      <trkpt lat="36.06002393178642" lon="129.3798779323697">
        <ele>13.4</ele>
        <time>2026-06-05T11:07:57</time>
      </trkpt>
      <trkpt lat="36.06007497757673" lon="129.37990793958306">
        <ele>13.4</ele>
        <time>2026-06-05T11:07:58</time>
      </trkpt>
      <trkpt lat="36.060126945376396" lon="129.3799389526248">
        <ele>13.2</ele>
        <time>2026-06-05T11:07:59</time>
      </trkpt>
      <trkpt lat="36.06017698533833" lon="129.37996996566653">
        <ele>13.2</ele>
        <time>2026-06-05T11:08:00</time>
      </trkpt>
      <trkpt lat="36.06022694148123" lon="129.38000198453665">
        <ele>13.2</ele>
        <time>2026-06-05T11:08:01</time>
      </trkpt>
      <trkpt lat="36.060275975614786" lon="129.38003391958773">
        <ele>13.0</ele>
        <time>2026-06-05T11:08:02</time>
      </trkpt>
      <trkpt lat="36.06032593175769" lon="129.38006493262947">
        <ele>13.0</ele>
        <time>2026-06-05T11:08:03</time>
      </trkpt>
      <trkpt lat="36.060376977548" lon="129.38009795732796">
        <ele>13.0</ele>
        <time>2026-06-05T11:08:04</time>
      </trkpt>
      <trkpt lat="36.060427939519286" lon="129.38013492152095">
        <ele>13.0</ele>
        <time>2026-06-05T11:08:05</time>
      </trkpt>
      <trkpt lat="36.0604789853096" lon="129.38017398118973">
        <ele>13.0</ele>
        <time>2026-06-05T11:08:06</time>
      </trkpt>
      <trkpt lat="36.060530953109264" lon="129.38021396286786">
        <ele>13.0</ele>
        <time>2026-06-05T11:08:07</time>
      </trkpt>
      <trkpt lat="36.0605809930712" lon="129.38025696203113">
        <ele>13.0</ele>
        <time>2026-06-05T11:08:08</time>
      </trkpt>
      <trkpt lat="36.06062793172896" lon="129.38030197285116">
        <ele>13.2</ele>
        <time>2026-06-05T11:08:09</time>
      </trkpt>
      <trkpt lat="36.06067193672061" lon="129.38034899532795">
        <ele>13.2</ele>
        <time>2026-06-05T11:08:10</time>
      </trkpt>
      <trkpt lat="36.0607139300555" lon="129.3803959339857">
        <ele>13.2</ele>
        <time>2026-06-05T11:08:11</time>
      </trkpt>
      <trkpt lat="36.06075399555266" lon="129.38044195063412">
        <ele>13.2</ele>
        <time>2026-06-05T11:08:12</time>
      </trkpt>
      <trkpt lat="36.06079297140241" lon="129.38048696145415">
        <ele>13.2</ele>
        <time>2026-06-05T11:08:13</time>
      </trkpt>
      <trkpt lat="36.06082993559539" lon="129.38053197227418">
        <ele>13.2</ele>
        <time>2026-06-05T11:08:14</time>
      </trkpt>
      <trkpt lat="36.06086698360741" lon="129.38057597726583">
        <ele>13.2</ele>
        <time>2026-06-05T11:08:15</time>
      </trkpt>
      <trkpt lat="36.06090595945716" lon="129.38061696477234">
        <ele>13.2</ele>
        <time>2026-06-05T11:08:16</time>
      </trkpt>
      <trkpt lat="36.06094694696367" lon="129.38065694645047">
        <ele>13.2</ele>
        <time>2026-06-05T11:08:17</time>
      </trkpt>
      <trkpt lat="36.060986928641796" lon="129.38069592230022">
        <ele>13.2</ele>
        <time>2026-06-05T11:08:18</time>
      </trkpt>
      <trkpt lat="36.061026994138956" lon="129.38073598779738">
        <ele>13.2</ele>
        <time>2026-06-05T11:08:19</time>
      </trkpt>
      <trkpt lat="36.061066975817084" lon="129.3807769753039">
        <ele>13.2</ele>
        <time>2026-06-05T11:08:20</time>
      </trkpt>
      <trkpt lat="36.06110695749521" lon="129.38081997446716">
        <ele>13.2</ele>
        <time>2026-06-05T11:08:21</time>
      </trkpt>
      <trkpt lat="36.06114593334496" lon="129.38086297363043">
        <ele>13.0</ele>
        <time>2026-06-05T11:08:22</time>
      </trkpt>
      <trkpt lat="36.06118499301374" lon="129.3809059727937">
        <ele>13.0</ele>
        <time>2026-06-05T11:08:23</time>
      </trkpt>
      <trkpt lat="36.06122396886349" lon="129.38094897195697">
        <ele>13.0</ele>
        <time>2026-06-05T11:08:24</time>
      </trkpt>
      <trkpt lat="36.061263950541615" lon="129.38099096529186">
        <ele>13.0</ele>
        <time>2026-06-05T11:08:25</time>
      </trkpt>
      <trkpt lat="36.06130292639136" lon="129.38103295862675">
        <ele>12.8</ele>
        <time>2026-06-05T11:08:26</time>
      </trkpt>
      <trkpt lat="36.06134198606014" lon="129.38107495196164">
        <ele>12.8</ele>
        <time>2026-06-05T11:08:27</time>
      </trkpt>
      <trkpt lat="36.06137995608151" lon="129.3811179511249">
        <ele>12.8</ele>
        <time>2026-06-05T11:08:28</time>
      </trkpt>
      <trkpt lat="36.06141893193126" lon="129.3811599444598">
        <ele>12.6</ele>
        <time>2026-06-05T11:08:29</time>
      </trkpt>
      <trkpt lat="36.06145799160004" lon="129.38120193779469">
        <ele>12.6</ele>
        <time>2026-06-05T11:08:30</time>
      </trkpt>
      <trkpt lat="36.061496967449784" lon="129.3812429253012">
        <ele>12.6</ele>
        <time>2026-06-05T11:08:31</time>
      </trkpt>
      <trkpt lat="36.06153594329953" lon="129.38128491863608">
        <ele>12.6</ele>
        <time>2026-06-05T11:08:32</time>
      </trkpt>
      <trkpt lat="36.06157399713993" lon="129.38132699579">
        <ele>12.6</ele>
        <time>2026-06-05T11:08:33</time>
      </trkpt>
      <trkpt lat="36.06161096133292" lon="129.3813689891249">
        <ele>12.8</ele>
        <time>2026-06-05T11:08:34</time>
      </trkpt>
      <trkpt lat="36.06164691969752" lon="129.38141399994493">
        <ele>12.8</ele>
        <time>2026-06-05T11:08:35</time>
      </trkpt>
      <trkpt lat="36.06167893856764" lon="129.38146194443107">
        <ele>12.8</ele>
        <time>2026-06-05T11:08:36</time>
      </trkpt>
      <trkpt lat="36.061710957437754" lon="129.38151097856462">
        <ele>12.8</ele>
        <time>2026-06-05T11:08:37</time>
      </trkpt>
      <trkpt lat="36.06174599379301" lon="129.38155892305076">
        <ele>12.8</ele>
        <time>2026-06-05T11:08:38</time>
      </trkpt>
      <trkpt lat="36.06178195215762" lon="129.3816029280424">
        <ele>12.8</ele>
        <time>2026-06-05T11:08:39</time>
      </trkpt>
      <trkpt lat="36.061820928007364" lon="129.3816409818828">
        <ele>13.0</ele>
        <time>2026-06-05T11:08:40</time>
      </trkpt>
      <trkpt lat="36.061862921342254" lon="129.3816729169339">
        <ele>13.0</ele>
        <time>2026-06-05T11:08:41</time>
      </trkpt>
      <trkpt lat="36.061905920505524" lon="129.38170392997563">
        <ele>13.0</ele>
        <time>2026-06-05T11:08:42</time>
      </trkpt>
      <trkpt lat="36.0619449801743" lon="129.3817379605025">
        <ele>13.0</ele>
        <time>2026-06-05T11:08:43</time>
      </trkpt>
      <trkpt lat="36.06198295019567" lon="129.3817749246955">
        <ele>13.0</ele>
        <time>2026-06-05T11:08:44</time>
      </trkpt>
      <trkpt lat="36.06201899237931" lon="129.38181398436427">
        <ele>13.0</ele>
        <time>2026-06-05T11:08:45</time>
      </trkpt>
      <trkpt lat="36.06205394491553" lon="129.3818539660424">
        <ele>13.0</ele>
        <time>2026-06-05T11:08:46</time>
      </trkpt>
      <trkpt lat="36.06208898127079" lon="129.38189394772053">
        <ele>13.0</ele>
        <time>2026-06-05T11:08:47</time>
      </trkpt>
      <trkpt lat="36.062124939635396" lon="129.38193493522704">
        <ele>13.0</ele>
        <time>2026-06-05T11:08:48</time>
      </trkpt>
      <trkpt lat="36.06215997599065" lon="129.38197491690516">
        <ele>12.8</ele>
        <time>2026-06-05T11:08:49</time>
      </trkpt>
      <trkpt lat="36.06219593435526" lon="129.3820159882307">
        <ele>12.8</ele>
        <time>2026-06-05T11:08:50</time>
      </trkpt>
      <trkpt lat="36.062230970710516" lon="129.3820569757372">
        <ele>12.8</ele>
        <time>2026-06-05T11:08:51</time>
      </trkpt>
      <trkpt lat="36.06226592324674" lon="129.38209796324372">
        <ele>12.8</ele>
        <time>2026-06-05T11:08:52</time>
      </trkpt>
      <trkpt lat="36.06230196543038" lon="129.38213895075023">
        <ele>12.8</ele>
        <time>2026-06-05T11:08:53</time>
      </trkpt>
      <trkpt lat="36.062338929623365" lon="129.38217993825674">
        <ele>12.8</ele>
        <time>2026-06-05T11:08:54</time>
      </trkpt>
      <trkpt lat="36.062377989292145" lon="129.38222193159163">
        <ele>12.8</ele>
        <time>2026-06-05T11:08:55</time>
      </trkpt>
      <trkpt lat="36.06241797097027" lon="129.3822649307549">
        <ele>12.8</ele>
        <time>2026-06-05T11:08:56</time>
      </trkpt>
      <trkpt lat="36.06245694682002" lon="129.38230893574655">
        <ele>12.8</ele>
        <time>2026-06-05T11:08:57</time>
      </trkpt>
      <trkpt lat="36.06249399483204" lon="129.38235394656658">
        <ele>12.8</ele>
        <time>2026-06-05T11:08:58</time>
      </trkpt>
      <trkpt lat="36.062529953196645" lon="129.3823989573866">
        <ele>12.6</ele>
        <time>2026-06-05T11:08:59</time>
      </trkpt>
      <trkpt lat="36.06256691738963" lon="129.38244296237826">
        <ele>12.6</ele>
        <time>2026-06-05T11:09:00</time>
      </trkpt>
      <trkpt lat="36.06260295957327" lon="129.38248093239963">
        <ele>12.6</ele>
        <time>2026-06-05T11:09:01</time>
      </trkpt>
      <trkpt lat="36.062634978443384" lon="129.38251395709813">
        <ele>12.6</ele>
        <time>2026-06-05T11:09:02</time>
      </trkpt>
      <trkpt lat="36.06266297399998" lon="129.38254396431148">
        <ele>12.6</ele>
        <time>2026-06-05T11:09:03</time>
      </trkpt>
      <trkpt lat="36.06269096955657" lon="129.38256793655455">
        <ele>12.6</ele>
        <time>2026-06-05T11:09:04</time>
      </trkpt>
      <trkpt lat="36.06271795928478" lon="129.3825789168477">
        <ele>12.4</ele>
        <time>2026-06-05T11:09:05</time>
      </trkpt>
      <trkpt lat="36.062744949012995" lon="129.3825799226761">
        <ele>12.4</ele>
        <time>2026-06-05T11:09:06</time>
      </trkpt>
      <trkpt lat="36.06277093291283" lon="129.38257698900998">
        <ele>12.4</ele>
        <time>2026-06-05T11:09:07</time>
      </trkpt>
      <trkpt lat="36.06279792264104" lon="129.38257497735322">
        <ele>12.4</ele>
        <time>2026-06-05T11:09:08</time>
      </trkpt>
      <trkpt lat="36.06282499618828" lon="129.38257195986807">
        <ele>12.4</ele>
        <time>2026-06-05T11:09:09</time>
      </trkpt>
      <trkpt lat="36.062850980088115" lon="129.3825649190694">
        <ele>12.2</ele>
        <time>2026-06-05T11:09:10</time>
      </trkpt>
      <trkpt lat="36.062873946502805" lon="129.382547987625">
        <ele>12.2</ele>
        <time>2026-06-05T11:09:11</time>
      </trkpt>
      <trkpt lat="36.06288593262434" lon="129.38252292573452">
        <ele>12.2</ele>
        <time>2026-06-05T11:09:12</time>
      </trkpt>
      <trkpt lat="36.06288593262434" lon="129.38249291852117">
        <ele>12.2</ele>
        <time>2026-06-05T11:09:13</time>
      </trkpt>
      <trkpt lat="36.06288299895823" lon="129.3824599776417">
        <ele>12.2</ele>
        <time>2026-06-05T11:09:14</time>
      </trkpt>
      <trkpt lat="36.06288299895823" lon="129.3824269529432">
        <ele>12.4</ele>
        <time>2026-06-05T11:09:15</time>
      </trkpt>
      <trkpt lat="36.0628879442811" lon="129.3823939282447">
        <ele>12.4</ele>
        <time>2026-06-05T11:09:16</time>
      </trkpt>
      <trkpt lat="36.062894985079765" lon="129.38236098736525">
        <ele>12.6</ele>
        <time>2026-06-05T11:09:17</time>
      </trkpt>
      <trkpt lat="36.0629019420594" lon="129.3823309801519">
        <ele>12.6</ele>
        <time>2026-06-05T11:09:18</time>
      </trkpt>
      <trkpt lat="36.06290898285806" lon="129.3823029845953">
        <ele>12.8</ele>
        <time>2026-06-05T11:09:19</time>
      </trkpt>
      <trkpt lat="36.062916945666075" lon="129.3822789285332">
        <ele>12.8</ele>
        <time>2026-06-05T11:09:20</time>
      </trkpt>
      <trkpt lat="36.0629259981215" lon="129.38225797377527">
        <ele>13.0</ele>
        <time>2026-06-05T11:09:21</time>
      </trkpt>
      <trkpt lat="36.062936978414655" lon="129.3822419643402">
        <ele>13.0</ele>
        <time>2026-06-05T11:09:22</time>
      </trkpt>
      <trkpt lat="36.06294997036457" lon="129.38222997821867">
        <ele>13.0</ele>
        <time>2026-06-05T11:09:23</time>
      </trkpt>
      <trkpt lat="36.06296799145639" lon="129.38222193159163">
        <ele>13.0</ele>
        <time>2026-06-05T11:09:24</time>
      </trkpt>
      <trkpt lat="36.062984922900796" lon="129.38221296295524">
        <ele>12.8</ele>
        <time>2026-06-05T11:09:25</time>
      </trkpt>
      <trkpt lat="36.063000932335854" lon="129.38219997100532">
        <ele>12.8</ele>
        <time>2026-06-05T11:09:26</time>
      </trkpt>
      <trkpt lat="36.06301392428577" lon="129.38218597322702">
        <ele>12.8</ele>
        <time>2026-06-05T11:09:27</time>
      </trkpt>
      <trkpt lat="36.063023982569575" lon="129.3821729812771">
        <ele>12.8</ele>
        <time>2026-06-05T11:09:28</time>
      </trkpt>
      <trkpt lat="36.06302993372083" lon="129.38216191716492">
        <ele>12.8</ele>
        <time>2026-06-05T11:09:29</time>
      </trkpt>
      <trkpt lat="36.06303194537759" lon="129.38215697184205">
        <ele>12.8</ele>
        <time>2026-06-05T11:09:30</time>
      </trkpt>
      <trkpt lat="36.06303194537759" lon="129.3821549601853">
        <ele>12.8</ele>
        <time>2026-06-05T11:09:31</time>
      </trkpt>
      <trkpt lat="36.06303093954921" lon="129.38215596601367">
        <ele>12.8</ele>
        <time>2026-06-05T11:09:32</time>
      </trkpt>
      <trkpt lat="36.063070921227336" lon="129.38211397267878">
        <ele>13.4</ele>
        <time>2026-06-05T11:10:11</time>
      </trkpt>
      <trkpt lat="36.06309296563268" lon="129.3820939399302">
        <ele>13.4</ele>
        <time>2026-06-05T11:10:12</time>
      </trkpt>
      <trkpt lat="36.063113920390606" lon="129.3820719793439">
        <ele>13.2</ele>
        <time>2026-06-05T11:10:13</time>
      </trkpt>
      <trkpt lat="36.063133953139186" lon="129.3820479232818">
        <ele>13.4</ele>
        <time>2026-06-05T11:10:14</time>
      </trkpt>
      <trkpt lat="36.063150968402624" lon="129.3820199277252">
        <ele>13.4</ele>
        <time>2026-06-05T11:10:15</time>
      </trkpt>
      <trkpt lat="36.06316697783768" lon="129.3819879926741">
        <ele>13.4</ele>
        <time>2026-06-05T11:10:16</time>
      </trkpt>
      <trkpt lat="36.0631799697876" lon="129.38195195049047">
        <ele>13.6</ele>
        <time>2026-06-05T11:10:17</time>
      </trkpt>
      <trkpt lat="36.063193967565894" lon="129.3819149862975">
        <ele>13.6</ele>
        <time>2026-06-05T11:10:18</time>
      </trkpt>
      <trkpt lat="36.06321098282933" lon="129.38187793828547">
        <ele>13.6</ele>
        <time>2026-06-05T11:10:19</time>
      </trkpt>
      <trkpt lat="36.06322598643601" lon="129.3818399682641">
        <ele>13.8</ele>
        <time>2026-06-05T11:10:20</time>
      </trkpt>
      <trkpt lat="36.063236966729164" lon="129.38180099241436">
        <ele>13.8</ele>
        <time>2026-06-05T11:10:21</time>
      </trkpt>
      <trkpt lat="36.06324694119394" lon="129.38176394440234">
        <ele>14.0</ele>
        <time>2026-06-05T11:10:22</time>
      </trkpt>
      <trkpt lat="36.06325599364936" lon="129.3817299976945">
        <ele>14.0</ele>
        <time>2026-06-05T11:10:23</time>
      </trkpt>
      <trkpt lat="36.06326596811414" lon="129.38170191831887">
        <ele>14.2</ele>
        <time>2026-06-05T11:10:24</time>
      </trkpt>
      <trkpt lat="36.06327594257891" lon="129.38168096356094">
        <ele>14.4</ele>
        <time>2026-06-05T11:10:25</time>
      </trkpt>
      <trkpt lat="36.06328792870045" lon="129.38166294246912">
        <ele>14.6</ele>
        <time>2026-06-05T11:10:26</time>
      </trkpt>
      <trkpt lat="36.06330092065036" lon="129.38164592720568">
        <ele>14.6</ele>
        <time>2026-06-05T11:10:27</time>
      </trkpt>
      <trkpt lat="36.06331491842866" lon="129.3816269841045">
        <ele>14.6</ele>
        <time>2026-06-05T11:10:28</time>
      </trkpt>
      <trkpt lat="36.06333092786372" lon="129.38160594552755">
        <ele>14.8</ele>
        <time>2026-06-05T11:10:29</time>
      </trkpt>
      <trkpt lat="36.063346937298775" lon="129.38158297911286">
        <ele>14.8</ele>
        <time>2026-06-05T11:10:30</time>
      </trkpt>
      <trkpt lat="36.06336495839059" lon="129.38156093470752">
        <ele>15.0</ele>
        <time>2026-06-05T11:10:31</time>
      </trkpt>
      <trkpt lat="36.06338499113917" lon="129.3815389741212">
        <ele>15.2</ele>
        <time>2026-06-05T11:10:32</time>
      </trkpt>
      <trkpt lat="36.06340494006872" lon="129.38151692971587">
        <ele>15.2</ele>
        <time>2026-06-05T11:10:33</time>
      </trkpt>
      <trkpt lat="36.06342396698892" lon="129.38149396330118">
        <ele>15.4</ele>
        <time>2026-06-05T11:10:34</time>
      </trkpt>
      <trkpt lat="36.06344198808074" lon="129.38146898522973">
        <ele>15.6</ele>
        <time>2026-06-05T11:10:35</time>
      </trkpt>
      <trkpt lat="36.06346093118191" lon="129.38144492916763">
        <ele>15.6</ele>
        <time>2026-06-05T11:10:36</time>
      </trkpt>
      <trkpt lat="36.06347895227373" lon="129.3814189452678">
        <ele>15.8</ele>
        <time>2026-06-05T11:10:37</time>
      </trkpt>
      <trkpt lat="36.063497979193926" lon="129.38139296136796">
        <ele>15.8</ele>
        <time>2026-06-05T11:10:38</time>
      </trkpt>
      <trkpt lat="36.06351591646671" lon="129.38136496581137">
        <ele>16.0</ele>
        <time>2026-06-05T11:10:39</time>
      </trkpt>
      <trkpt lat="36.06353393755853" lon="129.38133898191154">
        <ele>16.2</ele>
        <time>2026-06-05T11:10:40</time>
      </trkpt>
      <trkpt lat="36.06355296447873" lon="129.3813129980117">
        <ele>16.4</ele>
        <time>2026-06-05T11:10:41</time>
      </trkpt>
      <trkpt lat="36.06357199139893" lon="129.38128693029284">
        <ele>16.8</ele>
        <time>2026-06-05T11:10:42</time>
      </trkpt>
      <trkpt lat="36.0635909345001" lon="129.38125994056463">
        <ele>17.0</ele>
        <time>2026-06-05T11:10:43</time>
      </trkpt>
      <trkpt lat="36.06360794976354" lon="129.38122993335128">
        <ele>17.0</ele>
        <time>2026-06-05T11:10:44</time>
      </trkpt>
      <trkpt lat="36.06362194754183" lon="129.38119598664343">
        <ele>17.2</ele>
        <time>2026-06-05T11:10:45</time>
      </trkpt>
      <trkpt lat="36.06363393366337" lon="129.38115893863142">
        <ele>17.2</ele>
        <time>2026-06-05T11:10:46</time>
      </trkpt>
      <trkpt lat="36.0636459197849" lon="129.3811189569533">
        <ele>17.2</ele>
        <time>2026-06-05T11:10:47</time>
      </trkpt>
      <trkpt lat="36.06365698389709" lon="129.3810769636184">
        <ele>17.0</ele>
        <time>2026-06-05T11:10:48</time>
      </trkpt>
      <trkpt lat="36.0636649467051" lon="129.38103295862675">
        <ele>17.0</ele>
        <time>2026-06-05T11:10:49</time>
      </trkpt>
      <trkpt lat="36.063670981675386" lon="129.38098794780672">
        <ele>17.0</ele>
        <time>2026-06-05T11:10:50</time>
      </trkpt>
      <trkpt lat="36.06367592699826" lon="129.38094394281507">
        <ele>17.0</ele>
        <time>2026-06-05T11:10:51</time>
      </trkpt>
      <trkpt lat="36.06367995031178" lon="129.38089893199503">
        <ele>16.8</ele>
        <time>2026-06-05T11:10:52</time>
      </trkpt>
      <trkpt lat="36.06368497945368" lon="129.38085199333727">
        <ele>16.8</ele>
        <time>2026-06-05T11:10:53</time>
      </trkpt>
      <trkpt lat="36.063690930604935" lon="129.38080597668886">
        <ele>16.6</ele>
        <time>2026-06-05T11:10:54</time>
      </trkpt>
      <trkpt lat="36.06369595974684" lon="129.3807619716972">
        <ele>16.6</ele>
        <time>2026-06-05T11:10:55</time>
      </trkpt>
      <trkpt lat="36.06370392255485" lon="129.38071897253394">
        <ele>16.6</ele>
        <time>2026-06-05T11:10:56</time>
      </trkpt>
      <trkpt lat="36.063711969181895" lon="129.38067697919905">
        <ele>16.4</ele>
        <time>2026-06-05T11:10:57</time>
      </trkpt>
      <trkpt lat="36.06372395530343" lon="129.38063498586416">
        <ele>16.4</ele>
        <time>2026-06-05T11:10:58</time>
      </trkpt>
      <trkpt lat="36.063736947253346" lon="129.38059399835765">
        <ele>16.4</ele>
        <time>2026-06-05T11:10:59</time>
      </trkpt>
      <trkpt lat="36.06374298222363" lon="129.38054898753762">
        <ele>16.2</ele>
        <time>2026-06-05T11:11:00</time>
      </trkpt>
      <trkpt lat="36.06374499388039" lon="129.38050095923245">
        <ele>16.2</ele>
        <time>2026-06-05T11:11:01</time>
      </trkpt>
      <trkpt lat="36.0637479275465" lon="129.38045594841242">
        <ele>16.2</ele>
        <time>2026-06-05T11:11:02</time>
      </trkpt>
      <trkpt lat="36.063752956688404" lon="129.3804109375924">
        <ele>16.0</ele>
        <time>2026-06-05T11:11:03</time>
      </trkpt>
      <trkpt lat="36.06375899165869" lon="129.38036793842912">
        <ele>16.0</ele>
        <time>2026-06-05T11:11:04</time>
      </trkpt>
      <trkpt lat="36.06376494280994" lon="129.38032493926585">
        <ele>16.0</ele>
        <time>2026-06-05T11:11:05</time>
      </trkpt>
      <trkpt lat="36.063772989436984" lon="129.38027892261744">
        <ele>15.8</ele>
        <time>2026-06-05T11:11:06</time>
      </trkpt>
      <trkpt lat="36.0637859813869" lon="129.38023298978806">
        <ele>15.8</ele>
        <time>2026-06-05T11:11:07</time>
      </trkpt>
      <trkpt lat="36.06380391865969" lon="129.3801889847964">
        <ele>15.8</ele>
        <time>2026-06-05T11:11:08</time>
      </trkpt>
      <trkpt lat="36.06382596306503" lon="129.38014497980475">
        <ele>15.6</ele>
        <time>2026-06-05T11:11:09</time>
      </trkpt>
      <trkpt lat="36.0638499353081" lon="129.38009795732796">
        <ele>15.6</ele>
        <time>2026-06-05T11:11:10</time>
      </trkpt>
      <trkpt lat="36.0638739913702" lon="129.38005093485117">
        <ele>15.6</ele>
        <time>2026-06-05T11:11:11</time>
      </trkpt>
      <trkpt lat="36.063902992755175" lon="129.38000692985952">
        <ele>15.4</ele>
        <time>2026-06-05T11:11:12</time>
      </trkpt>
      <trkpt lat="36.06393693946302" lon="129.379965942353">
        <ele>15.2</ele>
        <time>2026-06-05T11:11:13</time>
      </trkpt>
      <trkpt lat="36.06397692114115" lon="129.37993199564517">
        <ele>15.2</ele>
        <time>2026-06-05T11:11:14</time>
      </trkpt>
      <trkpt lat="36.06402193196118" lon="129.37990391626954">
        <ele>15.0</ele>
        <time>2026-06-05T11:11:15</time>
      </trkpt>
      <trkpt lat="36.06406996026635" lon="129.37988195568323">
        <ele>14.8</ele>
        <time>2026-06-05T11:11:16</time>
      </trkpt>
      <trkpt lat="36.064119916409254" lon="129.37985999509692">
        <ele>14.8</ele>
        <time>2026-06-05T11:11:17</time>
      </trkpt>
      <trkpt lat="36.06416995637119" lon="129.37983593903482">
        <ele>14.6</ele>
        <time>2026-06-05T11:11:18</time>
      </trkpt>
      <trkpt lat="36.06421999633312" lon="129.379809955135">
        <ele>14.6</ele>
        <time>2026-06-05T11:11:19</time>
      </trkpt>
      <trkpt lat="36.064269952476025" lon="129.37978296540678">
        <ele>14.6</ele>
        <time>2026-06-05T11:11:20</time>
      </trkpt>
      <trkpt lat="36.06431898660958" lon="129.37975597567856">
        <ele>14.4</ele>
        <time>2026-06-05T11:11:21</time>
      </trkpt>
      <trkpt lat="36.0643679369241" lon="129.3797269742936">
        <ele>14.4</ele>
        <time>2026-06-05T11:11:22</time>
      </trkpt>
      <trkpt lat="36.06441596522927" lon="129.379698978737">
        <ele>14.4</ele>
        <time>2026-06-05T11:11:23</time>
      </trkpt>
      <trkpt lat="36.064462987706065" lon="129.37966897152364">
        <ele>14.4</ele>
        <time>2026-06-05T11:11:24</time>
      </trkpt>
      <trkpt lat="36.064510932192206" lon="129.37963997013867">
        <ele>14.4</ele>
        <time>2026-06-05T11:11:25</time>
      </trkpt>
      <trkpt lat="36.064557954669" lon="129.3796109687537">
        <ele>14.4</ele>
        <time>2026-06-05T11:11:26</time>
      </trkpt>
      <trkpt lat="36.06460598297417" lon="129.3795829731971">
        <ele>14.4</ele>
        <time>2026-06-05T11:11:27</time>
      </trkpt>
      <trkpt lat="36.06465292163193" lon="129.3795549776405">
        <ele>14.4</ele>
        <time>2026-06-05T11:11:28</time>
      </trkpt>
      <trkpt lat="36.064700949937105" lon="129.3795279879123">
        <ele>14.4</ele>
        <time>2026-06-05T11:11:29</time>
      </trkpt>
      <trkpt lat="36.06474696658552" lon="129.3794999923557">
        <ele>14.6</ele>
        <time>2026-06-05T11:11:30</time>
      </trkpt>
      <trkpt lat="36.06479298323393" lon="129.3794719967991">
        <ele>14.6</ele>
        <time>2026-06-05T11:11:31</time>
      </trkpt>
      <trkpt lat="36.06483899988234" lon="129.3794439174235">
        <ele>14.6</ele>
        <time>2026-06-05T11:11:32</time>
      </trkpt>
      <trkpt lat="36.06488493271172" lon="129.3794159218669">
        <ele>14.6</ele>
        <time>2026-06-05T11:11:33</time>
      </trkpt>
      <trkpt lat="36.06493094936013" lon="129.37938893213868">
        <ele>14.8</ele>
        <time>2026-06-05T11:11:34</time>
      </trkpt>
      <trkpt lat="36.064976966008544" lon="129.3793609365821">
        <ele>14.8</ele>
        <time>2026-06-05T11:11:35</time>
      </trkpt>
      <trkpt lat="36.065022982656956" lon="129.37933092936873">
        <ele>14.8</ele>
        <time>2026-06-05T11:11:36</time>
      </trkpt>
      <trkpt lat="36.06506899930537" lon="129.379299916327">
        <ele>14.8</ele>
        <time>2026-06-05T11:11:37</time>
      </trkpt>
      <trkpt lat="36.06511593796313" lon="129.37926999293268">
        <ele>14.8</ele>
        <time>2026-06-05T11:11:38</time>
      </trkpt>
      <trkpt lat="36.0651639662683" lon="129.37924199737608">
        <ele>15.0</ele>
        <time>2026-06-05T11:11:39</time>
      </trkpt>
      <trkpt lat="36.06521098874509" lon="129.37921391800046">
        <ele>15.0</ele>
        <time>2026-06-05T11:11:40</time>
      </trkpt>
      <trkpt lat="36.065257927402854" lon="129.379188939929">
        <ele>15.0</ele>
        <time>2026-06-05T11:11:41</time>
      </trkpt>
      <trkpt lat="36.065304949879646" lon="129.37916396185756">
        <ele>15.0</ele>
        <time>2026-06-05T11:11:42</time>
      </trkpt>
      <trkpt lat="36.06535096652806" lon="129.37914594076574">
        <ele>15.2</ele>
        <time>2026-06-05T11:11:43</time>
      </trkpt>
      <trkpt lat="36.06539396569133" lon="129.37913697212934">
        <ele>15.2</ele>
        <time>2026-06-05T11:11:44</time>
      </trkpt>
      <trkpt lat="36.06543495319784" lon="129.3791399896145">
        <ele>15.2</ele>
        <time>2026-06-05T11:11:45</time>
      </trkpt>
      <trkpt lat="36.065473929047585" lon="129.3791479524225">
        <ele>15.4</ele>
        <time>2026-06-05T11:11:46</time>
      </trkpt>
      <trkpt lat="36.0655109770596" lon="129.37915599904954">
        <ele>15.4</ele>
        <time>2026-06-05T11:11:47</time>
      </trkpt>
      <trkpt lat="36.06554693542421" lon="129.37916396185756">
        <ele>15.4</ele>
        <time>2026-06-05T11:11:48</time>
      </trkpt>
      <trkpt lat="36.06558398343623" lon="129.37917192466557">
        <ele>15.4</ele>
        <time>2026-06-05T11:11:49</time>
      </trkpt>
      <trkpt lat="36.06562094762921" lon="129.37917695380747">
        <ele>15.4</ele>
        <time>2026-06-05T11:11:50</time>
      </trkpt>
      <trkpt lat="36.06565992347896" lon="129.37918198294938">
        <ele>15.4</ele>
        <time>2026-06-05T11:11:51</time>
      </trkpt>
      <trkpt lat="36.0657009948045" lon="129.37918298877776">
        <ele>15.4</ele>
        <time>2026-06-05T11:11:52</time>
      </trkpt>
      <trkpt lat="36.06574198231101" lon="129.37918298877776">
        <ele>15.6</ele>
        <time>2026-06-05T11:11:53</time>
      </trkpt>
      <trkpt lat="36.06578598730266" lon="129.37918298877776">
        <ele>15.6</ele>
        <time>2026-06-05T11:11:54</time>
      </trkpt>
      <trkpt lat="36.06583192013204" lon="129.37918298877776">
        <ele>15.6</ele>
        <time>2026-06-05T11:11:55</time>
      </trkpt>
      <trkpt lat="36.06587592512369" lon="129.37917997129261">
        <ele>15.8</ele>
        <time>2026-06-05T11:11:56</time>
      </trkpt>
      <trkpt lat="36.06591892428696" lon="129.3791759479791">
        <ele>15.8</ele>
        <time>2026-06-05T11:11:57</time>
      </trkpt>
      <trkpt lat="36.06596292927861" lon="129.37916999682784">
        <ele>15.8</ele>
        <time>2026-06-05T11:11:58</time>
      </trkpt>
      <trkpt lat="36.06600592844188" lon="129.37916396185756">
        <ele>15.8</ele>
        <time>2026-06-05T11:11:59</time>
      </trkpt>
      <trkpt lat="36.06604892760515" lon="129.3791619502008">
        <ele>15.6</ele>
        <time>2026-06-05T11:12:00</time>
      </trkpt>
      <trkpt lat="36.06609192676842" lon="129.37915599904954">
        <ele>15.6</ele>
        <time>2026-06-05T11:12:01</time>
      </trkpt>
      <trkpt lat="36.06613593176007" lon="129.37914895825088">
        <ele>15.6</ele>
        <time>2026-06-05T11:12:02</time>
      </trkpt>
      <trkpt lat="36.066180942580104" lon="129.37914099544287">
        <ele>15.4</ele>
        <time>2026-06-05T11:12:03</time>
      </trkpt>
      <trkpt lat="36.066227965056896" lon="129.37913294881582">
        <ele>15.4</ele>
        <time>2026-06-05T11:12:04</time>
      </trkpt>
      <trkpt lat="36.06627599336207" lon="129.37912791967392">
        <ele>15.2</ele>
        <time>2026-06-05T11:12:05</time>
      </trkpt>
      <trkpt lat="36.06632293201983" lon="129.37912297435105">
        <ele>15.2</ele>
        <time>2026-06-05T11:12:06</time>
      </trkpt>
      <trkpt lat="36.06636794283986" lon="129.379114927724">
        <ele>15.2</ele>
        <time>2026-06-05T11:12:07</time>
      </trkpt>
      <trkpt lat="36.06641295365989" lon="129.3791059590876">
        <ele>15.0</ele>
        <time>2026-06-05T11:12:08</time>
      </trkpt>
      <trkpt lat="36.06645796447992" lon="129.37909891828895">
        <ele>15.0</ele>
        <time>2026-06-05T11:12:09</time>
      </trkpt>
      <trkpt lat="36.06649995781481" lon="129.37908994965255">
        <ele>14.8</ele>
        <time>2026-06-05T11:12:10</time>
      </trkpt>
      <trkpt lat="36.06653993949294" lon="129.37907796353102">
        <ele>14.6</ele>
        <time>2026-06-05T11:12:11</time>
      </trkpt>
      <trkpt lat="36.06658193282783" lon="129.37906597740948">
        <ele>14.6</ele>
        <time>2026-06-05T11:12:12</time>
      </trkpt>
      <trkpt lat="36.06662694364786" lon="129.37905591912568">
        <ele>14.6</ele>
        <time>2026-06-05T11:12:13</time>
      </trkpt>
      <trkpt lat="36.066673966124654" lon="129.37904695048928">
        <ele>14.6</ele>
        <time>2026-06-05T11:12:14</time>
      </trkpt>
      <trkpt lat="36.06672492809594" lon="129.37903999350965">
        <ele>14.6</ele>
        <time>2026-06-05T11:12:15</time>
      </trkpt>
      <trkpt lat="36.06677597388625" lon="129.3790319468826">
        <ele>14.6</ele>
        <time>2026-06-05T11:12:16</time>
      </trkpt>
      <trkpt lat="36.066827941685915" lon="129.37902197241783">
        <ele>14.6</ele>
        <time>2026-06-05T11:12:17</time>
      </trkpt>
      <trkpt lat="36.06687798164785" lon="129.3790099862963">
        <ele>14.6</ele>
        <time>2026-06-05T11:12:18</time>
      </trkpt>
      <trkpt lat="36.06692693196237" lon="129.378995988518">
        <ele>14.6</ele>
        <time>2026-06-05T11:12:19</time>
      </trkpt>
      <trkpt lat="36.066975966095924" lon="129.37897997908294">
        <ele>14.6</ele>
        <time>2026-06-05T11:12:20</time>
      </trkpt>
      <trkpt lat="36.06702298857272" lon="129.37896095216274">
        <ele>14.6</ele>
        <time>2026-06-05T11:12:21</time>
      </trkpt>
      <trkpt lat="36.06706799939275" lon="129.3789399974048">
        <ele>14.8</ele>
        <time>2026-06-05T11:12:22</time>
      </trkpt>
      <trkpt lat="36.06711192056537" lon="129.3789169471711">
        <ele>15.0</ele>
        <time>2026-06-05T11:12:23</time>
      </trkpt>
      <trkpt lat="36.06715793721378" lon="129.3788939807564">
        <ele>15.0</ele>
        <time>2026-06-05T11:12:24</time>
      </trkpt>
      <trkpt lat="36.06720596551895" lon="129.37887394800782">
        <ele>15.0</ele>
        <time>2026-06-05T11:12:25</time>
      </trkpt>
      <trkpt lat="36.067254999652505" lon="129.37885894440114">
        <ele>15.2</ele>
        <time>2026-06-05T11:12:26</time>
      </trkpt>
      <trkpt lat="36.06730596162379" lon="129.37884997576475">
        <ele>15.2</ele>
        <time>2026-06-05T11:12:27</time>
      </trkpt>
      <trkpt lat="36.06735499575734" lon="129.37884896993637">
        <ele>15.2</ele>
        <time>2026-06-05T11:12:28</time>
      </trkpt>
      <trkpt lat="36.067405957728624" lon="129.37884997576475">
        <ele>15.4</ele>
        <time>2026-06-05T11:12:29</time>
      </trkpt>
      <trkpt lat="36.06745499186218" lon="129.3788529932499">
        <ele>15.4</ele>
        <time>2026-06-05T11:12:30</time>
      </trkpt>
      <trkpt lat="36.067493967711926" lon="129.378847964108">
        <ele>15.2</ele>
        <time>2026-06-05T11:12:31</time>
      </trkpt>
      <trkpt lat="36.06753093190491" lon="129.3788469582796">
        <ele>15.4</ele>
        <time>2026-06-05T11:12:32</time>
      </trkpt>
      <trkpt lat="36.06757191941142" lon="129.37884595245123">
        <ele>15.4</ele>
        <time>2026-06-05T11:12:33</time>
      </trkpt>
      <trkpt lat="36.06761592440307" lon="129.378847964108">
        <ele>15.4</ele>
        <time>2026-06-05T11:12:34</time>
      </trkpt>
      <trkpt lat="36.067662946879864" lon="129.37885399907827">
        <ele>15.4</ele>
        <time>2026-06-05T11:12:35</time>
      </trkpt>
      <trkpt lat="36.0677129868418" lon="129.37885894440114">
        <ele>15.4</ele>
        <time>2026-06-05T11:12:36</time>
      </trkpt>
      <trkpt lat="36.06776394881308" lon="129.3788619618863">
        <ele>15.4</ele>
        <time>2026-06-05T11:12:37</time>
      </trkpt>
      <trkpt lat="36.067814994603395" lon="129.3788619618863">
        <ele>15.2</ele>
        <time>2026-06-05T11:12:38</time>
      </trkpt>
      <trkpt lat="36.06786696240306" lon="129.3788609560579">
        <ele>15.2</ele>
        <time>2026-06-05T11:12:39</time>
      </trkpt>
      <trkpt lat="36.0679199360311" lon="129.37885995022953">
        <ele>15.0</ele>
        <time>2026-06-05T11:12:40</time>
      </trkpt>
      <trkpt lat="36.06797098182142" lon="129.37885793857276">
        <ele>15.0</ele>
        <time>2026-06-05T11:12:41</time>
      </trkpt>
      <trkpt lat="36.0680219437927" lon="129.37885693274438">
        <ele>15.0</ele>
        <time>2026-06-05T11:12:42</time>
      </trkpt>
      <trkpt lat="36.068070977926254" lon="129.378855926916">
        <ele>14.8</ele>
        <time>2026-06-05T11:12:43</time>
      </trkpt>
      <trkpt lat="36.068114982917905" lon="129.37885098159313">
        <ele>14.8</ele>
        <time>2026-06-05T11:12:44</time>
      </trkpt>
      <trkpt lat="36.068155970424414" lon="129.37884896993637">
        <ele>14.8</ele>
        <time>2026-06-05T11:12:45</time>
      </trkpt>
      <trkpt lat="36.06819494627416" lon="129.37885492108762">
        <ele>14.6</ele>
        <time>2026-06-05T11:12:46</time>
      </trkpt>
      <trkpt lat="36.06822897680104" lon="129.37886799685657">
        <ele>14.8</ele>
        <time>2026-06-05T11:12:47</time>
      </trkpt>
      <trkpt lat="36.06825898401439" lon="129.3788839224726">
        <ele>14.8</ele>
        <time>2026-06-05T11:12:48</time>
      </trkpt>
      <trkpt lat="36.068285973742604" lon="129.3788979202509">
        <ele>14.8</ele>
        <time>2026-06-05T11:12:49</time>
      </trkpt>
      <trkpt lat="36.068307934328914" lon="129.37890697270632">
        <ele>15.0</ele>
        <time>2026-06-05T11:12:50</time>
      </trkpt>
      <trkpt lat="36.06832394376397" lon="129.37891392968595">
        <ele>15.0</ele>
        <time>2026-06-05T11:12:51</time>
      </trkpt>
      <trkpt lat="36.068330984562635" lon="129.3789159413427">
        <ele>15.2</ele>
        <time>2026-06-05T11:12:52</time>
      </trkpt>
      <trkpt lat="36.068331990391016" lon="129.37891392968595">
        <ele>15.2</ele>
        <time>2026-06-05T11:12:53</time>
      </trkpt>
      <trkpt lat="36.068330984562635" lon="129.3789119180292">
        <ele>15.4</ele>
        <time>2026-06-05T11:12:54</time>
      </trkpt>
      <trkpt lat="36.068328972905874" lon="129.37891099601984">
        <ele>15.4</ele>
        <time>2026-06-05T11:12:55</time>
      </trkpt>
      <trkpt lat="36.0683879815042" lon="129.37894695438445">
        <ele>15.4</ele>
        <time>2026-06-05T11:13:04</time>
      </trkpt>
      <trkpt lat="36.068415977060795" lon="129.37895994633436">
        <ele>15.2</ele>
        <time>2026-06-05T11:13:05</time>
      </trkpt>
      <trkpt lat="36.06844799593091" lon="129.37897595576942">
        <ele>15.2</ele>
        <time>2026-06-05T11:13:06</time>
      </trkpt>
      <trkpt lat="36.06847791932523" lon="129.37899297103286">
        <ele>15.2</ele>
        <time>2026-06-05T11:13:07</time>
      </trkpt>
      <trkpt lat="36.06850792653859" lon="129.37900596298277">
        <ele>15.2</ele>
        <time>2026-06-05T11:13:08</time>
      </trkpt>
      <trkpt lat="36.06853692792356" lon="129.37901694327593">
        <ele>15.2</ele>
        <time>2026-06-05T11:13:09</time>
      </trkpt>
      <trkpt lat="36.06856492348015" lon="129.37902792356908">
        <ele>15.2</ele>
        <time>2026-06-05T11:13:10</time>
      </trkpt>
      <trkpt lat="36.068586967885494" lon="129.3790459446609">
        <ele>15.2</ele>
        <time>2026-06-05T11:13:11</time>
      </trkpt>
      <trkpt lat="36.068608928471804" lon="129.3790649715811">
        <ele>15.2</ele>
        <time>2026-06-05T11:13:12</time>
      </trkpt>
      <trkpt lat="36.068630972877145" lon="129.37908198684454">
        <ele>15.2</ele>
        <time>2026-06-05T11:13:13</time>
      </trkpt>
      <trkpt lat="36.068654945120215" lon="129.3790919613093">
        <ele>15.2</ele>
        <time>2026-06-05T11:13:14</time>
      </trkpt>
      <trkpt lat="36.06867992319167" lon="129.37909891828895">
        <ele>15.2</ele>
        <time>2026-06-05T11:13:15</time>
      </trkpt>
      <trkpt lat="36.06870791874826" lon="129.3791059590876">
        <ele>15.4</ele>
        <time>2026-06-05T11:13:16</time>
      </trkpt>
      <trkpt lat="36.068737925961614" lon="129.37911693938076">
        <ele>15.4</ele>
        <time>2026-06-05T11:13:17</time>
      </trkpt>
      <trkpt lat="36.06876793317497" lon="129.37912993133068">
        <ele>15.6</ele>
        <time>2026-06-05T11:13:18</time>
      </trkpt>
      <trkpt lat="36.06879693455994" lon="129.37914594076574">
        <ele>15.6</ele>
        <time>2026-06-05T11:13:19</time>
      </trkpt>
      <trkpt lat="36.068824930116534" lon="129.37916496768594">
        <ele>15.8</ele>
        <time>2026-06-05T11:13:20</time>
      </trkpt>
      <trkpt lat="36.06884999200702" lon="129.37918692827225">
        <ele>15.8</ele>
        <time>2026-06-05T11:13:21</time>
      </trkpt>
      <trkpt lat="36.06887497007847" lon="129.37920595519245">
        <ele>16.0</ele>
        <time>2026-06-05T11:13:22</time>
      </trkpt>
      <trkpt lat="36.06889894232154" lon="129.37922297045588">
        <ele>16.2</ele>
        <time>2026-06-05T11:13:23</time>
      </trkpt>
      <trkpt lat="36.06892299838364" lon="129.37923797406256">
        <ele>16.4</ele>
        <time>2026-06-05T11:13:24</time>
      </trkpt>
      <trkpt lat="36.06894697062671" lon="129.37925197184086">
        <ele>16.4</ele>
        <time>2026-06-05T11:13:25</time>
      </trkpt>
      <trkpt lat="36.06897094286978" lon="129.37926496379077">
        <ele>16.6</ele>
        <time>2026-06-05T11:13:26</time>
      </trkpt>
      <trkpt lat="36.068994998931885" lon="129.3792779557407">
        <ele>16.8</ele>
        <time>2026-06-05T11:13:27</time>
      </trkpt>
      <trkpt lat="36.069018971174955" lon="129.37928994186223">
        <ele>17.0</ele>
        <time>2026-06-05T11:13:28</time>
      </trkpt>
      <trkpt lat="36.069042943418026" lon="129.37930293381214">
        <ele>17.0</ele>
        <time>2026-06-05T11:13:29</time>
      </trkpt>
      <trkpt lat="36.06906699948013" lon="129.37931693159044">
        <ele>17.2</ele>
        <time>2026-06-05T11:13:30</time>
      </trkpt>
      <trkpt lat="36.06909197755158" lon="129.37932992354035">
        <ele>17.4</ele>
        <time>2026-06-05T11:13:31</time>
      </trkpt>
      <trkpt lat="36.06911695562303" lon="129.37934199348092">
        <ele>17.6</ele>
        <time>2026-06-05T11:13:32</time>
      </trkpt>
      <trkpt lat="36.06914293952286" lon="129.3793519679457">
        <ele>17.8</ele>
        <time>2026-06-05T11:13:33</time>
      </trkpt>
      <trkpt lat="36.069168923422694" lon="129.3793609365821">
        <ele>18.0</ele>
        <time>2026-06-05T11:13:34</time>
      </trkpt>
      <trkpt lat="36.06919398531318" lon="129.37936898320913">
        <ele>18.2</ele>
        <time>2026-06-05T11:13:35</time>
      </trkpt>
      <trkpt lat="36.06921795755625" lon="129.37937795184553">
        <ele>18.4</ele>
        <time>2026-06-05T11:13:36</time>
      </trkpt>
      <trkpt lat="36.06924092397094" lon="129.3793839868158">
        <ele>18.6</ele>
        <time>2026-06-05T11:13:37</time>
      </trkpt>
      <trkpt lat="36.06926397420466" lon="129.37938893213868">
        <ele>18.8</ele>
        <time>2026-06-05T11:13:38</time>
      </trkpt>
      <trkpt lat="36.06928694061935" lon="129.37939194962382">
        <ele>18.8</ele>
        <time>2026-06-05T11:13:39</time>
      </trkpt>
      <trkpt lat="36.06930999085307" lon="129.37939496710896">
        <ele>19.0</ele>
        <time>2026-06-05T11:13:40</time>
      </trkpt>
      <trkpt lat="36.06933195143938" lon="129.37939697876573">
        <ele>19.2</ele>
        <time>2026-06-05T11:13:41</time>
      </trkpt>
      <trkpt lat="36.06935399584472" lon="129.37940091826022">
        <ele>19.4</ele>
        <time>2026-06-05T11:13:42</time>
      </trkpt>
      <trkpt lat="36.06937595643103" lon="129.37940393574536">
        <ele>19.6</ele>
        <time>2026-06-05T11:13:43</time>
      </trkpt>
      <trkpt lat="36.06939892284572" lon="129.37940795905888">
        <ele>19.8</ele>
        <time>2026-06-05T11:13:44</time>
      </trkpt>
      <trkpt lat="36.06941996142268" lon="129.37940997071564">
        <ele>20.0</ele>
        <time>2026-06-05T11:13:45</time>
      </trkpt>
      <trkpt lat="36.06944292783737" lon="129.3794119823724">
        <ele>20.0</ele>
        <time>2026-06-05T11:13:46</time>
      </trkpt>
      <trkpt lat="36.06946497224271" lon="129.37941399402916">
        <ele>20.2</ele>
        <time>2026-06-05T11:13:47</time>
      </trkpt>
      <trkpt lat="36.0694879386574" lon="129.3794159218669">
        <ele>20.4</ele>
        <time>2026-06-05T11:13:48</time>
      </trkpt>
      <trkpt lat="36.069509983062744" lon="129.37941793352365">
        <ele>20.6</ele>
        <time>2026-06-05T11:13:49</time>
      </trkpt>
      <trkpt lat="36.06953093782067" lon="129.37941994518042">
        <ele>20.8</ele>
        <time>2026-06-05T11:13:50</time>
      </trkpt>
      <trkpt lat="36.06955097056925" lon="129.3794209510088">
        <ele>21.0</ele>
        <time>2026-06-05T11:13:51</time>
      </trkpt>
      <trkpt lat="36.0695709194988" lon="129.37942195683718">
        <ele>21.0</ele>
        <time>2026-06-05T11:13:52</time>
      </trkpt>
      <trkpt lat="36.06959095224738" lon="129.37942195683718">
        <ele>21.2</ele>
        <time>2026-06-05T11:13:53</time>
      </trkpt>
      <trkpt lat="36.06961199082434" lon="129.37942195683718">
        <ele>21.4</ele>
        <time>2026-06-05T11:13:54</time>
      </trkpt>
      <trkpt lat="36.06963294558227" lon="129.37942497432232">
        <ele>21.4</ele>
        <time>2026-06-05T11:13:55</time>
      </trkpt>
      <trkpt lat="36.06965498998761" lon="129.37943092547357">
        <ele>21.6</ele>
        <time>2026-06-05T11:13:56</time>
      </trkpt>
      <trkpt lat="36.06967695057392" lon="129.37943696044385">
        <ele>21.8</ele>
        <time>2026-06-05T11:13:57</time>
      </trkpt>
      <trkpt lat="36.06969899497926" lon="129.37944198958576">
        <ele>21.8</ele>
        <time>2026-06-05T11:13:58</time>
      </trkpt>
      <trkpt lat="36.06971894390881" lon="129.379447940737">
        <ele>22.0</ele>
        <time>2026-06-05T11:13:59</time>
      </trkpt>
      <trkpt lat="36.06973998248577" lon="129.37945196405053">
        <ele>22.0</ele>
        <time>2026-06-05T11:14:00</time>
      </trkpt>
      <trkpt lat="36.06975892558694" lon="129.3794539757073">
        <ele>22.2</ele>
        <time>2026-06-05T11:14:01</time>
      </trkpt>
      <trkpt lat="36.06977694667876" lon="129.3794539757073">
        <ele>22.4</ele>
        <time>2026-06-05T11:14:02</time>
      </trkpt>
      <trkpt lat="36.069792956113815" lon="129.3794529698789">
        <ele>22.6</ele>
        <time>2026-06-05T11:14:03</time>
      </trkpt>
      <trkpt lat="36.06980594806373" lon="129.37945196405053">
        <ele>22.8</ele>
        <time>2026-06-05T11:14:04</time>
      </trkpt>
      <trkpt lat="36.06981994584203" lon="129.37945095822215">
        <ele>23.2</ele>
        <time>2026-06-05T11:14:05</time>
      </trkpt>
      <trkpt lat="36.069833943620324" lon="129.379447940737">
        <ele>23.4</ele>
        <time>2026-06-05T11:14:06</time>
      </trkpt>
      <trkpt lat="36.06985095888376" lon="129.37944492325187">
        <ele>23.6</ele>
        <time>2026-06-05T11:14:07</time>
      </trkpt>
      <trkpt lat="36.06986897997558" lon="129.3794439174235">
        <ele>23.8</ele>
        <time>2026-06-05T11:14:08</time>
      </trkpt>
      <trkpt lat="36.06988792307675" lon="129.37944693490863">
        <ele>24.0</ele>
        <time>2026-06-05T11:14:09</time>
      </trkpt>
      <trkpt lat="36.06990493834019" lon="129.37944995239377">
        <ele>24.2</ele>
        <time>2026-06-05T11:14:10</time>
      </trkpt>
      <trkpt lat="36.069922959432006" lon="129.37945095822215">
        <ele>24.2</ele>
        <time>2026-06-05T11:14:11</time>
      </trkpt>
      <trkpt lat="36.069940980523825" lon="129.37945095822215">
        <ele>24.4</ele>
        <time>2026-06-05T11:14:12</time>
      </trkpt>
      <trkpt lat="36.06995891779661" lon="129.37944995239377">
        <ele>24.6</ele>
        <time>2026-06-05T11:14:13</time>
      </trkpt>
      <trkpt lat="36.06997693888843" lon="129.379447940737">
        <ele>24.6</ele>
        <time>2026-06-05T11:14:14</time>
      </trkpt>
      <trkpt lat="36.06999395415187" lon="129.37944592908025">
        <ele>24.8</ele>
        <time>2026-06-05T11:14:15</time>
      </trkpt>
      <trkpt lat="36.07000996358693" lon="129.37944592908025">
        <ele>25.0</ele>
        <time>2026-06-05T11:14:16</time>
      </trkpt>
      <trkpt lat="36.070025973021984" lon="129.37944592908025">
        <ele>25.2</ele>
        <time>2026-06-05T11:14:17</time>
      </trkpt>
      <trkpt lat="36.07004198245704" lon="129.37944592908025">
        <ele>25.4</ele>
        <time>2026-06-05T11:14:18</time>
      </trkpt>
      <trkpt lat="36.07005899772048" lon="129.37944693490863">
        <ele>25.6</ele>
        <time>2026-06-05T11:14:19</time>
      </trkpt>
      <trkpt lat="36.07007592916489" lon="129.379447940737">
        <ele>25.8</ele>
        <time>2026-06-05T11:14:20</time>
      </trkpt>
      <trkpt lat="36.070093950256705" lon="129.3794489465654">
        <ele>25.8</ele>
        <time>2026-06-05T11:14:21</time>
      </trkpt>
      <trkpt lat="36.070113983005285" lon="129.37945095822215">
        <ele>26.0</ele>
        <time>2026-06-05T11:14:22</time>
      </trkpt>
      <trkpt lat="36.07013192027807" lon="129.37945498153567">
        <ele>26.0</ele>
        <time>2026-06-05T11:14:23</time>
      </trkpt>
      <trkpt lat="36.07015094719827" lon="129.37945699319243">
        <ele>26.2</ele>
        <time>2026-06-05T11:14:24</time>
      </trkpt>
      <trkpt lat="36.07016796246171" lon="129.37945598736405">
        <ele>26.2</ele>
        <time>2026-06-05T11:14:25</time>
      </trkpt>
      <trkpt lat="36.07018698938191" lon="129.3794529698789">
        <ele>26.4</ele>
        <time>2026-06-05T11:14:26</time>
      </trkpt>
      <trkpt lat="36.070203920826316" lon="129.3794489465654">
        <ele>26.4</ele>
        <time>2026-06-05T11:14:27</time>
      </trkpt>
      <trkpt lat="36.070221941918135" lon="129.37944592908025">
        <ele>26.6</ele>
        <time>2026-06-05T11:14:28</time>
      </trkpt>
      <trkpt lat="36.070241974666715" lon="129.37944693490863">
        <ele>26.6</ele>
        <time>2026-06-05T11:14:29</time>
      </trkpt>
      <trkpt lat="36.07026192359626" lon="129.37944995239377">
        <ele>26.8</ele>
        <time>2026-06-05T11:14:30</time>
      </trkpt>
      <trkpt lat="36.07027994468808" lon="129.37945498153567">
        <ele>26.8</ele>
        <time>2026-06-05T11:14:31</time>
      </trkpt>
      <trkpt lat="36.0702979657799" lon="129.37945892103016">
        <ele>27.0</ele>
        <time>2026-06-05T11:14:32</time>
      </trkpt>
      <trkpt lat="36.07031799852848" lon="129.3794619385153">
        <ele>27.0</ele>
        <time>2026-06-05T11:14:33</time>
      </trkpt>
      <trkpt lat="36.07033794745803" lon="129.37946395017207">
        <ele>27.0</ele>
        <time>2026-06-05T11:14:34</time>
      </trkpt>
      <trkpt lat="36.07035898603499" lon="129.3794629443437">
        <ele>27.2</ele>
        <time>2026-06-05T11:14:35</time>
      </trkpt>
      <trkpt lat="36.07037893496454" lon="129.3794619385153">
        <ele>27.2</ele>
        <time>2026-06-05T11:14:36</time>
      </trkpt>
      <trkpt lat="36.07039796188474" lon="129.3794619385153">
        <ele>27.4</ele>
        <time>2026-06-05T11:14:37</time>
      </trkpt>
      <trkpt lat="36.07041799463332" lon="129.37946395017207">
        <ele>27.4</ele>
        <time>2026-06-05T11:14:38</time>
      </trkpt>
      <trkpt lat="36.070437943562865" lon="129.3794669676572">
        <ele>27.6</ele>
        <time>2026-06-05T11:14:39</time>
      </trkpt>
      <trkpt lat="36.070456970483065" lon="129.37946897931397">
        <ele>27.8</ele>
        <time>2026-06-05T11:14:40</time>
      </trkpt>
      <trkpt lat="36.070475997403264" lon="129.37946897931397">
        <ele>27.8</ele>
        <time>2026-06-05T11:14:41</time>
      </trkpt>
      <trkpt lat="36.07049594633281" lon="129.3794679734856">
        <ele>28.0</ele>
        <time>2026-06-05T11:14:42</time>
      </trkpt>
      <trkpt lat="36.07051597908139" lon="129.37946596182883">
        <ele>28.2</ele>
        <time>2026-06-05T11:14:43</time>
      </trkpt>
      <trkpt lat="36.0705379396677" lon="129.37946395017207">
        <ele>28.4</ele>
        <time>2026-06-05T11:14:44</time>
      </trkpt>
      <trkpt lat="36.07055998407304" lon="129.3794629443437">
        <ele>28.4</ele>
        <time>2026-06-05T11:14:45</time>
      </trkpt>
      <trkpt lat="36.07058295048773" lon="129.37946395017207">
        <ele>28.6</ele>
        <time>2026-06-05T11:14:46</time>
      </trkpt>
      <trkpt lat="36.07060398906469" lon="129.37946495600045">
        <ele>28.8</ele>
        <time>2026-06-05T11:14:47</time>
      </trkpt>
      <trkpt lat="36.07062695547938" lon="129.37946596182883">
        <ele>29.0</ele>
        <time>2026-06-05T11:14:48</time>
      </trkpt>
      <trkpt lat="36.070647994056344" lon="129.3794669676572">
        <ele>29.2</ele>
        <time>2026-06-05T11:14:49</time>
      </trkpt>
      <trkpt lat="36.07066894881427" lon="129.37946596182883">
        <ele>29.2</ele>
        <time>2026-06-05T11:14:50</time>
      </trkpt>
      <trkpt lat="36.07068898156285" lon="129.37946495600045">
        <ele>29.4</ele>
        <time>2026-06-05T11:14:51</time>
      </trkpt>
      <trkpt lat="36.0707089304924" lon="129.37946495600045">
        <ele>29.6</ele>
        <time>2026-06-05T11:14:52</time>
      </trkpt>
      <trkpt lat="36.07072594575584" lon="129.37946596182883">
        <ele>29.6</ele>
        <time>2026-06-05T11:14:53</time>
      </trkpt>
      <trkpt lat="36.070739943534136" lon="129.37946596182883">
        <ele>29.8</ele>
        <time>2026-06-05T11:14:54</time>
      </trkpt>
      <trkpt lat="36.07075293548405" lon="129.37946495600045">
        <ele>29.8</ele>
        <time>2026-06-05T11:14:55</time>
      </trkpt>
      <trkpt lat="36.07076492160559" lon="129.3794629443437">
        <ele>30.0</ele>
        <time>2026-06-05T11:14:56</time>
      </trkpt>
      <trkpt lat="36.07077598571777" lon="129.37946093268692">
        <ele>30.0</ele>
        <time>2026-06-05T11:14:57</time>
      </trkpt>
      <trkpt lat="36.07078897766769" lon="129.37945892103016">
        <ele>30.0</ele>
        <time>2026-06-05T11:14:58</time>
      </trkpt>
      <trkpt lat="36.070801969617605" lon="129.37946093268692">
        <ele>30.0</ele>
        <time>2026-06-05T11:14:59</time>
      </trkpt>
      <trkpt lat="36.07081395573914" lon="129.37946596182883">
        <ele>30.2</ele>
        <time>2026-06-05T11:15:00</time>
      </trkpt>
      <trkpt lat="36.070825941860676" lon="129.37947493046522">
        <ele>30.2</ele>
        <time>2026-06-05T11:15:01</time>
      </trkpt>
      <trkpt lat="36.07083692215383" lon="129.3794859945774">
        <ele>30.2</ele>
        <time>2026-06-05T11:15:02</time>
      </trkpt>
      <trkpt lat="36.0708489920944" lon="129.37949697487056">
        <ele>30.4</ele>
        <time>2026-06-05T11:15:03</time>
      </trkpt>
      <trkpt lat="36.07085594907403" lon="129.3795039318502">
        <ele>30.4</ele>
        <time>2026-06-05T11:15:04</time>
      </trkpt>
      <trkpt lat="36.07085997238755" lon="129.37950795516372">
        <ele>30.4</ele>
        <time>2026-06-05T11:15:05</time>
      </trkpt>
      <trkpt lat="36.07085997238755" lon="129.37950996682048">
        <ele>30.6</ele>
        <time>2026-06-05T11:15:06</time>
      </trkpt>
      <trkpt lat="36.07085896655917" lon="129.37950996682048">
        <ele>30.6</ele>
        <time>2026-06-05T11:15:07</time>
      </trkpt>
      <trkpt lat="36.07089794240892" lon="129.37951298430562">
        <ele>30.8</ele>
        <time>2026-06-05T11:15:14</time>
      </trkpt>
      <trkpt lat="36.07091998681426" lon="129.37951499596238">
        <ele>30.8</ele>
        <time>2026-06-05T11:15:15</time>
      </trkpt>
      <trkpt lat="36.07094597071409" lon="129.37951893545687">
        <ele>30.8</ele>
        <time>2026-06-05T11:15:16</time>
      </trkpt>
      <trkpt lat="36.070975977927446" lon="129.379521952942">
        <ele>31.0</ele>
        <time>2026-06-05T11:15:17</time>
      </trkpt>
      <trkpt lat="36.07100891880691" lon="129.3795279879123">
        <ele>31.0</ele>
        <time>2026-06-05T11:15:18</time>
      </trkpt>
      <trkpt lat="36.07104395516217" lon="129.37953393906355">
        <ele>31.2</ele>
        <time>2026-06-05T11:15:19</time>
      </trkpt>
      <trkpt lat="36.071082931011915" lon="129.37953896820545">
        <ele>31.4</ele>
        <time>2026-06-05T11:15:20</time>
      </trkpt>
      <trkpt lat="36.071123918518424" lon="129.37954299151897">
        <ele>31.4</ele>
        <time>2026-06-05T11:15:21</time>
      </trkpt>
      <trkpt lat="36.071169935166836" lon="129.37954693101346">
        <ele>31.2</ele>
        <time>2026-06-05T11:15:22</time>
      </trkpt>
      <trkpt lat="36.07122098095715" lon="129.379550954327">
        <ele>31.2</ele>
        <time>2026-06-05T11:15:23</time>
      </trkpt>
      <trkpt lat="36.071276972070336" lon="129.37955698929727">
        <ele>31.0</ele>
        <time>2026-06-05T11:15:24</time>
      </trkpt>
      <trkpt lat="36.071338998153806" lon="129.37956092879176">
        <ele>30.6</ele>
        <time>2026-06-05T11:15:25</time>
      </trkpt>
      <trkpt lat="36.071403957903385" lon="129.37956294044852">
        <ele>30.4</ele>
        <time>2026-06-05T11:15:26</time>
      </trkpt>
      <trkpt lat="36.07147495262325" lon="129.37956495210528">
        <ele>30.0</ele>
        <time>2026-06-05T11:15:27</time>
      </trkpt>
      <trkpt lat="36.07154997065663" lon="129.37956696376204">
        <ele>29.6</ele>
        <time>2026-06-05T11:15:28</time>
      </trkpt>
      <trkpt lat="36.07162691652775" lon="129.37957098707557">
        <ele>29.0</ele>
        <time>2026-06-05T11:15:29</time>
      </trkpt>
      <trkpt lat="36.07170092873275" lon="129.37957492657006">
        <ele>28.4</ele>
        <time>2026-06-05T11:15:30</time>
      </trkpt>
      <trkpt lat="36.07177393510938" lon="129.37958096154034">
        <ele>27.8</ele>
        <time>2026-06-05T11:15:31</time>
      </trkpt>
      <trkpt lat="36.07184492982924" lon="129.37958599068224">
        <ele>27.2</ele>
        <time>2026-06-05T11:15:32</time>
      </trkpt>
      <trkpt lat="36.07191491872072" lon="129.37959395349026">
        <ele>26.6</ele>
        <time>2026-06-05T11:15:33</time>
      </trkpt>
      <trkpt lat="36.071987925097346" lon="129.37960191629827">
        <ele>25.8</ele>
        <time>2026-06-05T11:15:34</time>
      </trkpt>
      <trkpt lat="36.07205498032272" lon="129.37960895709693">
        <ele>25.2</ele>
        <time>2026-06-05T11:15:35</time>
      </trkpt>
      <trkpt lat="36.072116922587156" lon="129.37961499206722">
        <ele>24.6</ele>
        <time>2026-06-05T11:15:36</time>
      </trkpt>
      <trkpt lat="36.07216394506395" lon="129.37962194904685">
        <ele>24.2</ele>
        <time>2026-06-05T11:15:37</time>
      </trkpt>
      <trkpt lat="36.0722079500556" lon="129.37963292934">
        <ele>23.6</ele>
        <time>2026-06-05T11:15:38</time>
      </trkpt>
      <trkpt lat="36.07224893756211" lon="129.3796439934522">
        <ele>23.0</ele>
        <time>2026-06-05T11:15:39</time>
      </trkpt>
      <trkpt lat="36.072284979745746" lon="129.3796569854021">
        <ele>22.6</ele>
        <time>2026-06-05T11:15:40</time>
      </trkpt>
      <trkpt lat="36.0723149869591" lon="129.3796739168465">
        <ele>22.0</ele>
        <time>2026-06-05T11:15:41</time>
      </trkpt>
      <trkpt lat="36.07233996503055" lon="129.37969797290862">
        <ele>21.6</ele>
        <time>2026-06-05T11:15:42</time>
      </trkpt>
      <trkpt lat="36.07235899195075" lon="129.37972798012197">
        <ele>21.2</ele>
        <time>2026-06-05T11:15:43</time>
      </trkpt>
      <trkpt lat="36.072371983900666" lon="129.37976192682981">
        <ele>21.0</ele>
        <time>2026-06-05T11:15:44</time>
      </trkpt>
      <trkpt lat="36.07238296419382" lon="129.37979696318507">
        <ele>20.8</ele>
        <time>2026-06-05T11:15:45</time>
      </trkpt>
      <trkpt lat="36.072394950315356" lon="129.3798369448632">
        <ele>20.8</ele>
        <time>2026-06-05T11:15:46</time>
      </trkpt>
      <trkpt lat="36.07240693643689" lon="129.37987994402647">
        <ele>20.6</ele>
        <time>2026-06-05T11:15:47</time>
      </trkpt>
      <trkpt lat="36.07242194004357" lon="129.37992596067488">
        <ele>20.6</ele>
        <time>2026-06-05T11:15:48</time>
      </trkpt>
      <trkpt lat="36.07243895530701" lon="129.37997499480844">
        <ele>20.6</ele>
        <time>2026-06-05T11:15:49</time>
      </trkpt>
      <trkpt lat="36.072456976398826" lon="129.38002495095134">
        <ele>20.6</ele>
        <time>2026-06-05T11:15:50</time>
      </trkpt>
      <trkpt lat="36.0724719800055" lon="129.3800739850849">
        <ele>20.6</ele>
        <time>2026-06-05T11:15:51</time>
      </trkpt>
      <trkpt lat="36.0724859777838" lon="129.38012595288455">
        <ele>20.6</ele>
        <time>2026-06-05T11:15:52</time>
      </trkpt>
      <trkpt lat="36.07249595224857" lon="129.38018093816936">
        <ele>20.6</ele>
        <time>2026-06-05T11:15:53</time>
      </trkpt>
      <trkpt lat="36.07250299304724" lon="129.38023592345417">
        <ele>20.6</ele>
        <time>2026-06-05T11:15:54</time>
      </trkpt>
      <trkpt lat="36.07251095585525" lon="129.38028797507286">
        <ele>20.6</ele>
        <time>2026-06-05T11:15:55</time>
      </trkpt>
      <trkpt lat="36.072522941976786" lon="129.38033692538738">
        <ele>20.6</ele>
        <time>2026-06-05T11:15:56</time>
      </trkpt>
      <trkpt lat="36.072540963068604" lon="129.3803819362074">
        <ele>20.6</ele>
        <time>2026-06-05T11:15:57</time>
      </trkpt>
      <trkpt lat="36.072563929483294" lon="129.3804239295423">
        <ele>20.6</ele>
        <time>2026-06-05T11:15:58</time>
      </trkpt>
      <trkpt lat="36.07258999720216" lon="129.38046399503946">
        <ele>20.6</ele>
        <time>2026-06-05T11:15:59</time>
      </trkpt>
      <trkpt lat="36.07261799275875" lon="129.38050498254597">
        <ele>20.6</ele>
        <time>2026-06-05T11:16:00</time>
      </trkpt>
      <trkpt lat="36.07264196500182" lon="129.38054898753762">
        <ele>20.6</ele>
        <time>2026-06-05T11:16:01</time>
      </trkpt>
      <trkpt lat="36.0726619977504" lon="129.380594920367">
        <ele>20.6</ele>
        <time>2026-06-05T11:16:02</time>
      </trkpt>
      <trkpt lat="36.07268094085157" lon="129.38064496032894">
        <ele>20.6</ele>
        <time>2026-06-05T11:16:03</time>
      </trkpt>
      <trkpt lat="36.07270097360015" lon="129.38069592230022">
        <ele>20.6</ele>
        <time>2026-06-05T11:16:04</time>
      </trkpt>
      <trkpt lat="36.0727209225297" lon="129.38074696809053">
        <ele>20.6</ele>
        <time>2026-06-05T11:16:05</time>
      </trkpt>
      <trkpt lat="36.0727399494499" lon="129.38079692423344">
        <ele>20.8</ele>
        <time>2026-06-05T11:16:06</time>
      </trkpt>
      <trkpt lat="36.072758976370096" lon="129.38084696419537">
        <ele>20.8</ele>
        <time>2026-06-05T11:16:07</time>
      </trkpt>
      <trkpt lat="36.072775991633534" lon="129.38089692033827">
        <ele>20.8</ele>
        <time>2026-06-05T11:16:08</time>
      </trkpt>
      <trkpt lat="36.07279191724956" lon="129.3809469603002">
        <ele>21.0</ele>
        <time>2026-06-05T11:16:09</time>
      </trkpt>
      <trkpt lat="36.07280499301851" lon="129.3809969164431">
        <ele>21.0</ele>
        <time>2026-06-05T11:16:10</time>
      </trkpt>
      <trkpt lat="36.072818990796804" lon="129.38104494474828">
        <ele>21.0</ele>
        <time>2026-06-05T11:16:11</time>
      </trkpt>
      <trkpt lat="36.07283491641283" lon="129.38109196722507">
        <ele>21.0</ele>
        <time>2026-06-05T11:16:12</time>
      </trkpt>
      <trkpt lat="36.07285394333303" lon="129.38113898970187">
        <ele>20.8</ele>
        <time>2026-06-05T11:16:13</time>
      </trkpt>
      <trkpt lat="36.07286995276809" lon="129.38118492253125">
        <ele>20.8</ele>
        <time>2026-06-05T11:16:14</time>
      </trkpt>
      <trkpt lat="36.07287892140448" lon="129.38123295083642">
        <ele>20.8</ele>
        <time>2026-06-05T11:16:15</time>
      </trkpt>
      <trkpt lat="36.072883950546384" lon="129.38128198496997">
        <ele>20.6</ele>
        <time>2026-06-05T11:16:16</time>
      </trkpt>
      <trkpt lat="36.07289291918278" lon="129.38133194111288">
        <ele>20.6</ele>
        <time>2026-06-05T11:16:17</time>
      </trkpt>
      <trkpt lat="36.072905994951725" lon="129.3813819810748">
        <ele>20.6</ele>
        <time>2026-06-05T11:16:18</time>
      </trkpt>
      <trkpt lat="36.07292493805289" lon="129.3814319372177">
        <ele>20.6</ele>
        <time>2026-06-05T11:16:19</time>
      </trkpt>
      <trkpt lat="36.07294396497309" lon="129.38148298300803">
        <ele>20.6</ele>
        <time>2026-06-05T11:16:20</time>
      </trkpt>
      <trkpt lat="36.07296198606491" lon="129.38153293915093">
        <ele>20.6</ele>
        <time>2026-06-05T11:16:21</time>
      </trkpt>
      <trkpt lat="36.0729799233377" lon="129.3815809674561">
        <ele>20.6</ele>
        <time>2026-06-05T11:16:22</time>
      </trkpt>
      <trkpt lat="36.07299794442952" lon="129.38162396661937">
        <ele>20.4</ele>
        <time>2026-06-05T11:16:23</time>
      </trkpt>
      <trkpt lat="36.073014959692955" lon="129.38166193664074">
        <ele>20.4</ele>
        <time>2026-06-05T11:16:24</time>
      </trkpt>
      <trkpt lat="36.073032980784774" lon="129.381696972996">
        <ele>20.2</ele>
        <time>2026-06-05T11:16:25</time>
      </trkpt>
      <trkpt lat="36.073057958856225" lon="129.3817239627242">
        <ele>20.2</ele>
        <time>2026-06-05T11:16:26</time>
      </trkpt>
      <trkpt lat="36.07308997772634" lon="129.38173594884574">
        <ele>20.2</ele>
        <time>2026-06-05T11:16:27</time>
      </trkpt>
      <trkpt lat="36.073125936090946" lon="129.3817289918661">
        <ele>20.2</ele>
        <time>2026-06-05T11:16:28</time>
      </trkpt>
      <trkpt lat="36.0731609724462" lon="129.3817099649459">
        <ele>20.2</ele>
        <time>2026-06-05T11:16:29</time>
      </trkpt>
      <trkpt lat="36.0731939971447" lon="129.38168892636895">
        <ele>20.4</ele>
        <time>2026-06-05T11:16:30</time>
      </trkpt>
      <trkpt lat="36.07322593219578" lon="129.3816689774394">
        <ele>20.2</ele>
        <time>2026-06-05T11:16:31</time>
      </trkpt>
      <trkpt lat="36.07325593940914" lon="129.3816499505192">
        <ele>20.2</ele>
        <time>2026-06-05T11:16:32</time>
      </trkpt>
      <trkpt lat="36.07328292913735" lon="129.38163192942739">
        <ele>20.2</ele>
        <time>2026-06-05T11:16:33</time>
      </trkpt>
      <trkpt lat="36.07330296188593" lon="129.38160795718431">
        <ele>20.2</ele>
        <time>2026-06-05T11:16:34</time>
      </trkpt>
      <trkpt lat="36.07330991886556" lon="129.38158197328448">
        <ele>20.2</ele>
        <time>2026-06-05T11:16:35</time>
      </trkpt>
      <trkpt lat="36.07330497354269" lon="129.3815529718995">
        <ele>20.2</ele>
        <time>2026-06-05T11:16:36</time>
      </trkpt>
      <trkpt lat="36.073292987421155" lon="129.38152296468616">
        <ele>20.4</ele>
        <time>2026-06-05T11:16:37</time>
      </trkpt>
      <trkpt lat="36.0732769779861" lon="129.38148993998766">
        <ele>20.4</ele>
        <time>2026-06-05T11:16:38</time>
      </trkpt>
      <trkpt lat="36.07325895689428" lon="129.38145498745143">
        <ele>20.4</ele>
        <time>2026-06-05T11:16:39</time>
      </trkpt>
      <trkpt lat="36.07324093580246" lon="129.38141995109618">
        <ele>20.4</ele>
        <time>2026-06-05T11:16:40</time>
      </trkpt>
      <trkpt lat="36.07322299852967" lon="129.38138499855995">
        <ele>20.4</ele>
        <time>2026-06-05T11:16:41</time>
      </trkpt>
      <trkpt lat="36.073207994922996" lon="129.3813489563763">
        <ele>20.4</ele>
        <time>2026-06-05T11:16:42</time>
      </trkpt>
      <trkpt lat="36.0731939971447" lon="129.38131199218333">
        <ele>20.6</ele>
        <time>2026-06-05T11:16:43</time>
      </trkpt>
      <trkpt lat="36.07318192720413" lon="129.38127293251455">
        <ele>20.6</ele>
        <time>2026-06-05T11:16:44</time>
      </trkpt>
      <trkpt lat="36.073167929425836" lon="129.38123596832156">
        <ele>20.6</ele>
        <time>2026-06-05T11:16:45</time>
      </trkpt>
      <trkpt lat="36.07315393164754" lon="129.38119892030954">
        <ele>20.6</ele>
        <time>2026-06-05T11:16:46</time>
      </trkpt>
      <trkpt lat="36.07313993386924" lon="129.38116296194494">
        <ele>20.8</ele>
        <time>2026-06-05T11:16:47</time>
      </trkpt>
      <trkpt lat="36.073125936090946" lon="129.38112792558968">
        <ele>20.8</ele>
        <time>2026-06-05T11:16:48</time>
      </trkpt>
      <trkpt lat="36.07311495579779" lon="129.38110697083175">
        <ele>20.8</ele>
        <time>2026-06-05T11:16:49</time>
      </trkpt>
      <trkpt lat="36.07310892082751" lon="129.38109791837633">
        <ele>20.8</ele>
        <time>2026-06-05T11:16:50</time>
      </trkpt>
      <trkpt lat="36.07310892082751" lon="129.38109498471022">
        <ele>21.0</ele>
        <time>2026-06-05T11:16:51</time>
      </trkpt>
      <trkpt lat="36.07311495579779" lon="129.38109397888184">
        <ele>21.0</ele>
        <time>2026-06-05T11:16:52</time>
      </trkpt>
      <trkpt lat="36.073144963011146" lon="129.3810719344765">
        <ele>21.6</ele>
        <time>2026-06-05T11:16:55</time>
      </trkpt>
      <trkpt lat="36.07315393164754" lon="129.38105994835496">
        <ele>21.8</ele>
        <time>2026-06-05T11:16:56</time>
      </trkpt>
      <trkpt lat="36.0731609724462" lon="129.3810489680618">
        <ele>22.0</ele>
        <time>2026-06-05T11:16:57</time>
      </trkpt>
      <trkpt lat="36.073168935254216" lon="129.38103899359703">
        <ele>22.2</ele>
        <time>2026-06-05T11:16:58</time>
      </trkpt>
      <trkpt lat="36.07317597605288" lon="129.38103094697">
        <ele>22.4</ele>
        <time>2026-06-05T11:16:59</time>
      </trkpt>
      <trkpt lat="36.07318092137575" lon="129.38102591782808">
        <ele>22.6</ele>
        <time>2026-06-05T11:17:00</time>
      </trkpt>
      <trkpt lat="36.073187962174416" lon="129.38102298416197">
        <ele>22.8</ele>
        <time>2026-06-05T11:17:01</time>
      </trkpt>
      <trkpt lat="36.0731939971447" lon="129.38102298416197">
        <ele>22.8</ele>
        <time>2026-06-05T11:17:02</time>
      </trkpt>
      <trkpt lat="36.07320397160947" lon="129.38102298416197">
        <ele>22.8</ele>
        <time>2026-06-05T11:17:03</time>
      </trkpt>
      <trkpt lat="36.07321796938777" lon="129.3810209725052">
        <ele>22.8</ele>
        <time>2026-06-05T11:17:04</time>
      </trkpt>
      <trkpt lat="36.07323791831732" lon="129.38101896084845">
        <ele>22.8</ele>
        <time>2026-06-05T11:17:05</time>
      </trkpt>
      <trkpt lat="36.07326197437942" lon="129.3810159433633">
        <ele>22.8</ele>
        <time>2026-06-05T11:17:06</time>
      </trkpt>
      <trkpt lat="36.07328795827925" lon="129.38101292587817">
        <ele>22.8</ele>
        <time>2026-06-05T11:17:07</time>
      </trkpt>
      <trkpt lat="36.073316959664226" lon="129.38101099804044">
        <ele>22.6</ele>
        <time>2026-06-05T11:17:08</time>
      </trkpt>
      <trkpt lat="36.07334797270596" lon="129.38100898638368">
        <ele>22.6</ele>
        <time>2026-06-05T11:17:09</time>
      </trkpt>
      <trkpt lat="36.073378985747695" lon="129.38100898638368">
        <ele>22.4</ele>
        <time>2026-06-05T11:17:10</time>
      </trkpt>
      <trkpt lat="36.07341293245554" lon="129.38100898638368">
        <ele>22.4</ele>
        <time>2026-06-05T11:17:11</time>
      </trkpt>
      <trkpt lat="36.073444951325655" lon="129.3810079805553">
        <ele>22.4</ele>
        <time>2026-06-05T11:17:12</time>
      </trkpt>
      <trkpt lat="36.07347596436739" lon="129.38100898638368">
        <ele>22.4</ele>
        <time>2026-06-05T11:17:13</time>
      </trkpt>
      <trkpt lat="36.073506977409124" lon="129.38101099804044">
        <ele>22.4</ele>
        <time>2026-06-05T11:17:14</time>
      </trkpt>
      <trkpt lat="36.0735359787941" lon="129.38101393170655">
        <ele>22.6</ele>
        <time>2026-06-05T11:17:15</time>
      </trkpt>
      <trkpt lat="36.07356598600745" lon="129.3810159433633">
        <ele>22.6</ele>
        <time>2026-06-05T11:17:16</time>
      </trkpt>
      <trkpt lat="36.07359699904919" lon="129.38101795502007">
        <ele>22.6</ele>
        <time>2026-06-05T11:17:17</time>
      </trkpt>
      <trkpt lat="36.07362792827189" lon="129.38101896084845">
        <ele>22.6</ele>
        <time>2026-06-05T11:17:18</time>
      </trkpt>
      <trkpt lat="36.0736549180001" lon="129.38101896084845">
        <ele>22.8</ele>
        <time>2026-06-05T11:17:19</time>
      </trkpt>
      <trkpt lat="36.07368299737573" lon="129.38101896084845">
        <ele>22.8</ele>
        <time>2026-06-05T11:17:20</time>
      </trkpt>
      <trkpt lat="36.07371099293232" lon="129.38101996667683">
        <ele>23.0</ele>
        <time>2026-06-05T11:17:21</time>
      </trkpt>
      <trkpt lat="36.07374091632664" lon="129.3810209725052">
        <ele>23.0</ele>
        <time>2026-06-05T11:17:22</time>
      </trkpt>
      <trkpt lat="36.07377192936838" lon="129.3810209725052">
        <ele>23.2</ele>
        <time>2026-06-05T11:17:23</time>
      </trkpt>
      <trkpt lat="36.07380495406687" lon="129.38101996667683">
        <ele>23.2</ele>
        <time>2026-06-05T11:17:24</time>
      </trkpt>
      <trkpt lat="36.07383797876537" lon="129.38101896084845">
        <ele>23.2</ele>
        <time>2026-06-05T11:17:25</time>
      </trkpt>
      <trkpt lat="36.0738689918071" lon="129.38101896084845">
        <ele>23.0</ele>
        <time>2026-06-05T11:17:26</time>
      </trkpt>
      <trkpt lat="36.07390092685819" lon="129.38101896084845">
        <ele>23.0</ele>
        <time>2026-06-05T11:17:27</time>
      </trkpt>
      <trkpt lat="36.0739329457283" lon="129.38101896084845">
        <ele>23.0</ele>
        <time>2026-06-05T11:17:28</time>
      </trkpt>
      <trkpt lat="36.07396496459842" lon="129.38101795502007">
        <ele>22.8</ele>
        <time>2026-06-05T11:17:29</time>
      </trkpt>
      <trkpt lat="36.07399597764015" lon="129.3810169491917">
        <ele>22.8</ele>
        <time>2026-06-05T11:17:30</time>
      </trkpt>
      <trkpt lat="36.07402699068189" lon="129.3810159433633">
        <ele>22.6</ele>
        <time>2026-06-05T11:17:31</time>
      </trkpt>
      <trkpt lat="36.07405699789524" lon="129.38101393170655">
        <ele>22.6</ele>
        <time>2026-06-05T11:17:32</time>
      </trkpt>
      <trkpt lat="36.074084993451834" lon="129.38101099804044">
        <ele>22.6</ele>
        <time>2026-06-05T11:17:33</time>
      </trkpt>
      <trkpt lat="36.074111983180046" lon="129.3810079805553">
        <ele>22.4</ele>
        <time>2026-06-05T11:17:34</time>
      </trkpt>
      <trkpt lat="36.0741369612515" lon="129.38100496307015">
        <ele>22.4</ele>
        <time>2026-06-05T11:17:35</time>
      </trkpt>
      <trkpt lat="36.07416193932295" lon="129.3810029514134">
        <ele>22.2</ele>
        <time>2026-06-05T11:17:36</time>
      </trkpt>
      <trkpt lat="36.0741869173944" lon="129.38100395724177">
        <ele>22.2</ele>
        <time>2026-06-05T11:17:37</time>
      </trkpt>
      <trkpt lat="36.0742109734565" lon="129.38100898638368">
        <ele>22.2</ele>
        <time>2026-06-05T11:17:38</time>
      </trkpt>
      <trkpt lat="36.07423393987119" lon="129.3810169491917">
        <ele>22.2</ele>
        <time>2026-06-05T11:17:39</time>
      </trkpt>
      <trkpt lat="36.074256990104914" lon="129.38102499581873">
        <ele>22.2</ele>
        <time>2026-06-05T11:17:40</time>
      </trkpt>
      <trkpt lat="36.07427794486284" lon="129.38102792948484">
        <ele>22.2</ele>
        <time>2026-06-05T11:17:41</time>
      </trkpt>
      <trkpt lat="36.07429596595466" lon="129.38102792948484">
        <ele>22.2</ele>
        <time>2026-06-05T11:17:42</time>
      </trkpt>
      <trkpt lat="36.07430996373296" lon="129.38104695640504">
        <ele>22.2</ele>
        <time>2026-06-05T11:17:43</time>
      </trkpt>
      <trkpt lat="36.07431096956134" lon="129.38106598332524">
        <ele>22.2</ele>
        <time>2026-06-05T11:17:44</time>
      </trkpt>
      <trkpt lat="36.07431096956134" lon="129.38108392059803">
        <ele>22.2</ele>
        <time>2026-06-05T11:17:45</time>
      </trkpt>
      <trkpt lat="36.07431096956134" lon="129.38110294751823">
        <ele>22.2</ele>
        <time>2026-06-05T11:17:46</time>
      </trkpt>
      <trkpt lat="36.07431096956134" lon="129.38112096861005">
        <ele>22.0</ele>
        <time>2026-06-05T11:17:47</time>
      </trkpt>
      <trkpt lat="36.07431197538972" lon="129.38113999553025">
        <ele>21.8</ele>
        <time>2026-06-05T11:17:50</time>
      </trkpt>
      <trkpt lat="36.07431197538972" lon="129.38115793280303">
        <ele>21.8</ele>
        <time>2026-06-05T11:17:51</time>
      </trkpt>
      <trkpt lat="36.07430191710591" lon="129.38120998442173">
        <ele>21.8</ele>
        <time>2026-06-05T11:17:52</time>
      </trkpt>
      <trkpt lat="36.07429194264114" lon="129.38126496970654">
        <ele>21.8</ele>
        <time>2026-06-05T11:17:53</time>
      </trkpt>
      <trkpt lat="36.074282974004745" lon="129.38132096081972">
        <ele>22.0</ele>
        <time>2026-06-05T11:17:54</time>
      </trkpt>
      <trkpt lat="36.07427593320608" lon="129.38137896358967">
        <ele>22.0</ele>
        <time>2026-06-05T11:17:55</time>
      </trkpt>
      <trkpt lat="36.07427098788321" lon="129.38143897801638">
        <ele>22.2</ele>
        <time>2026-06-05T11:17:56</time>
      </trkpt>
      <trkpt lat="36.07426998205483" lon="129.38149899244308">
        <ele>22.2</ele>
        <time>2026-06-05T11:17:57</time>
      </trkpt>
      <trkpt lat="36.07426998205483" lon="129.38156294636428">
        <ele>22.4</ele>
        <time>2026-06-05T11:17:58</time>
      </trkpt>
      <trkpt lat="36.07427199371159" lon="129.38162899576128">
        <ele>22.6</ele>
        <time>2026-06-05T11:17:59</time>
      </trkpt>
      <trkpt lat="36.0742749273777" lon="129.38169596716762">
        <ele>22.8</ele>
        <time>2026-06-05T11:18:00</time>
      </trkpt>
      <trkpt lat="36.074280962347984" lon="129.38176193274558">
        <ele>22.8</ele>
        <time>2026-06-05T11:18:01</time>
      </trkpt>
      <trkpt lat="36.07428993098438" lon="129.38182496465743">
        <ele>23.0</ele>
        <time>2026-06-05T11:18:02</time>
      </trkpt>
      <trkpt lat="36.07430191710591" lon="129.38188598491251">
        <ele>23.0</ele>
        <time>2026-06-05T11:18:03</time>
      </trkpt>
      <trkpt lat="36.07431792654097" lon="129.38194398768246">
        <ele>23.0</ele>
        <time>2026-06-05T11:18:04</time>
      </trkpt>
      <trkpt lat="36.07433695346117" lon="129.3819979671389">
        <ele>23.0</ele>
        <time>2026-06-05T11:18:05</time>
      </trkpt>
      <trkpt lat="36.07435899786651" lon="129.3820469174534">
        <ele>23.0</ele>
        <time>2026-06-05T11:18:06</time>
      </trkpt>
      <trkpt lat="36.07438095845282" lon="129.38209293410182">
        <ele>23.0</ele>
        <time>2026-06-05T11:18:07</time>
      </trkpt>
      <trkpt lat="36.07440199702978" lon="129.38213693909347">
        <ele>23.0</ele>
        <time>2026-06-05T11:18:08</time>
      </trkpt>
      <trkpt lat="36.07442295178771" lon="129.38217893242836">
        <ele>23.0</ele>
        <time>2026-06-05T11:18:09</time>
      </trkpt>
      <trkpt lat="36.07444399036467" lon="129.38221799209714">
        <ele>23.2</ele>
        <time>2026-06-05T11:18:10</time>
      </trkpt>
      <trkpt lat="36.0744649451226" lon="129.3822559621185">
        <ele>23.2</ele>
        <time>2026-06-05T11:18:11</time>
      </trkpt>
      <trkpt lat="36.07448497787118" lon="129.3822929263115">
        <ele>23.2</ele>
        <time>2026-06-05T11:18:12</time>
      </trkpt>
      <trkpt lat="36.07450593262911" lon="129.3823309801519">
        <ele>23.2</ele>
        <time>2026-06-05T11:18:13</time>
      </trkpt>
      <trkpt lat="36.07452495954931" lon="129.38236895017326">
        <ele>23.2</ele>
        <time>2026-06-05T11:18:14</time>
      </trkpt>
      <trkpt lat="36.07454298064113" lon="129.3824089318514">
        <ele>23.0</ele>
        <time>2026-06-05T11:18:15</time>
      </trkpt>
      <trkpt lat="36.074559995904565" lon="129.38244799152017">
        <ele>23.0</ele>
        <time>2026-06-05T11:18:16</time>
      </trkpt>
      <trkpt lat="36.07457592152059" lon="129.3824879731983">
        <ele>23.0</ele>
        <time>2026-06-05T11:18:17</time>
      </trkpt>
      <trkpt lat="36.07458899728954" lon="129.38252795487642">
        <ele>23.0</ele>
        <time>2026-06-05T11:18:18</time>
      </trkpt>
      <trkpt lat="36.07459997758269" lon="129.38256894238293">
        <ele>23.0</ele>
        <time>2026-06-05T11:18:19</time>
      </trkpt>
      <trkpt lat="36.074606934562325" lon="129.38260699622333">
        <ele>23.0</ele>
        <time>2026-06-05T11:18:20</time>
      </trkpt>
      <trkpt lat="36.07461196370423" lon="129.38264194875956">
        <ele>23.2</ele>
        <time>2026-06-05T11:18:21</time>
      </trkpt>
      <trkpt lat="36.07461397536099" lon="129.38267095014453">
        <ele>23.4</ele>
        <time>2026-06-05T11:18:22</time>
      </trkpt>
      <trkpt lat="36.07461296953261" lon="129.38269299454987">
        <ele>23.4</ele>
        <time>2026-06-05T11:18:23</time>
      </trkpt>
      <trkpt lat="36.074606934562325" lon="129.38270992599428">
        <ele>23.6</ele>
        <time>2026-06-05T11:18:24</time>
      </trkpt>
      <trkpt lat="36.074602995067835" lon="129.38271696679294">
        <ele>23.6</ele>
        <time>2026-06-05T11:18:25</time>
      </trkpt>
      <trkpt lat="36.07459997758269" lon="129.38271797262132">
        <ele>23.6</ele>
        <time>2026-06-05T11:18:26</time>
      </trkpt>
      <trkpt lat="36.07459796592593" lon="129.38271495513618">
        <ele>23.6</ele>
        <time>2026-06-05T11:18:27</time>
      </trkpt>
      <trkpt lat="36.07459696009755" lon="129.38271093182266">
        <ele>23.6</ele>
        <time>2026-06-05T11:18:28</time>
      </trkpt>
      <trkpt lat="36.07468396425247" lon="129.38267497345805">
        <ele>23.8</ele>
        <time>2026-06-05T11:19:11</time>
      </trkpt>
      <trkpt lat="36.07469796203077" lon="129.38264798372984">
        <ele>23.8</ele>
        <time>2026-06-05T11:19:12</time>
      </trkpt>
      <trkpt lat="36.07470399700105" lon="129.38261294737458">
        <ele>23.8</ele>
        <time>2026-06-05T11:19:13</time>
      </trkpt>
      <trkpt lat="36.07470399700105" lon="129.38257497735322">
        <ele>23.8</ele>
        <time>2026-06-05T11:19:14</time>
      </trkpt>
      <trkpt lat="36.07469796203077" lon="129.3825379293412">
        <ele>23.8</ele>
        <time>2026-06-05T11:19:15</time>
      </trkpt>
      <trkpt lat="36.074689999222755" lon="129.38250892795622">
        <ele>23.6</ele>
        <time>2026-06-05T11:19:16</time>
      </trkpt>
      <trkpt lat="36.07468094676733" lon="129.3824829440564">
        <ele>23.6</ele>
        <time>2026-06-05T11:19:17</time>
      </trkpt>
      <trkpt lat="36.07467197813094" lon="129.38245897181332">
        <ele>23.6</ele>
        <time>2026-06-05T11:19:18</time>
      </trkpt>
      <trkpt lat="36.074667954817414" lon="129.38243692740798">
        <ele>23.4</ele>
        <time>2026-06-05T11:19:19</time>
      </trkpt>
      <trkpt lat="36.07467197813094" lon="129.3824189901352">
        <ele>23.4</ele>
        <time>2026-06-05T11:19:20</time>
      </trkpt>
      <trkpt lat="36.07468497008085" lon="129.38240993767977">
        <ele>23.4</ele>
        <time>2026-06-05T11:19:21</time>
      </trkpt>
      <trkpt lat="36.0747049190104" lon="129.382407926023">
        <ele>23.4</ele>
        <time>2026-06-05T11:19:22</time>
      </trkpt>
      <trkpt lat="36.074729980900884" lon="129.38241094350815">
        <ele>23.4</ele>
        <time>2026-06-05T11:19:23</time>
      </trkpt>
      <trkpt lat="36.074756970629096" lon="129.38241496682167">
        <ele>23.4</ele>
        <time>2026-06-05T11:19:24</time>
      </trkpt>
      <trkpt lat="36.074779937043786" lon="129.38241094350815">
        <ele>23.4</ele>
        <time>2026-06-05T11:19:25</time>
      </trkpt>
      <trkpt lat="36.074796952307224" lon="129.38239593990147">
        <ele>23.6</ele>
        <time>2026-06-05T11:19:26</time>
      </trkpt>
      <trkpt lat="36.07481095008552" lon="129.38237892463803">
        <ele>23.6</ele>
        <time>2026-06-05T11:19:27</time>
      </trkpt>
      <trkpt lat="36.074818996712565" lon="129.3823669385165">
        <ele>23.6</ele>
        <time>2026-06-05T11:19:28</time>
      </trkpt>
      <trkpt lat="36.074822936207056" lon="129.382362999022">
        <ele>23.8</ele>
        <time>2026-06-05T11:19:29</time>
      </trkpt>
      <trkpt lat="36.074821930378675" lon="129.38236392103136">
        <ele>23.8</ele>
        <time>2026-06-05T11:19:30</time>
      </trkpt>
      <trkpt lat="36.074819918721914" lon="129.38236492685974">
        <ele>23.8</ele>
        <time>2026-06-05T11:19:31</time>
      </trkpt>
      <trkpt lat="36.07478999532759" lon="129.3824279587716">
        <ele>23.0</ele>
        <time>2026-06-05T11:33:53</time>
      </trkpt>
      <trkpt lat="36.074774991720915" lon="129.38243399374187">
        <ele>23.0</ele>
        <time>2026-06-05T11:33:54</time>
      </trkpt>
      <trkpt lat="36.074756970629096" lon="129.3824359215796">
        <ele>23.0</ele>
        <time>2026-06-05T11:33:55</time>
      </trkpt>
      <trkpt lat="36.0747379437089" lon="129.38243399374187">
        <ele>23.0</ele>
        <time>2026-06-05T11:33:56</time>
      </trkpt>
      <trkpt lat="36.07471799477935" lon="129.3824329879135">
        <ele>23.0</ele>
        <time>2026-06-05T11:33:57</time>
      </trkpt>
      <trkpt lat="36.07469896785915" lon="129.3824329879135">
        <ele>23.2</ele>
        <time>2026-06-05T11:33:58</time>
      </trkpt>
      <trkpt lat="36.07468195259571" lon="129.38243692740798">
        <ele>23.2</ele>
        <time>2026-06-05T11:33:59</time>
      </trkpt>
      <trkpt lat="36.0746739897877" lon="129.3824459798634">
        <ele>23.2</ele>
        <time>2026-06-05T11:34:00</time>
      </trkpt>
      <trkpt lat="36.0746739897877" lon="129.38246198929846">
        <ele>23.2</ele>
        <time>2026-06-05T11:34:01</time>
      </trkpt>
      <trkpt lat="36.07468094676733" lon="129.38248495571315">
        <ele>23.4</ele>
        <time>2026-06-05T11:34:02</time>
      </trkpt>
      <trkpt lat="36.074689999222755" lon="129.38251697458327">
        <ele>23.4</ele>
        <time>2026-06-05T11:34:03</time>
      </trkpt>
      <trkpt lat="36.07470299117267" lon="129.3825569562614">
        <ele>23.4</ele>
        <time>2026-06-05T11:34:04</time>
      </trkpt>
      <trkpt lat="36.07471698895097" lon="129.38260196708143">
        <ele>23.4</ele>
        <time>2026-06-05T11:34:05</time>
      </trkpt>
      <trkpt lat="36.074729980900884" lon="129.38265091739595">
        <ele>23.6</ele>
        <time>2026-06-05T11:34:06</time>
      </trkpt>
      <trkpt lat="36.07474196702242" lon="129.3826999515295">
        <ele>23.6</ele>
        <time>2026-06-05T11:34:07</time>
      </trkpt>
      <trkpt lat="36.07474992983043" lon="129.38274898566306">
        <ele>23.6</ele>
        <time>2026-06-05T11:34:08</time>
      </trkpt>
      <trkpt lat="36.074755964800715" lon="129.3827969301492">
        <ele>23.6</ele>
        <time>2026-06-05T11:34:09</time>
      </trkpt>
      <trkpt lat="36.07475797645748" lon="129.382843952626">
        <ele>23.6</ele>
        <time>2026-06-05T11:34:10</time>
      </trkpt>
      <trkpt lat="36.074756970629096" lon="129.38288896344602">
        <ele>23.6</ele>
        <time>2026-06-05T11:34:11</time>
      </trkpt>
      <trkpt lat="36.074755964800715" lon="129.38293296843767">
        <ele>23.6</ele>
        <time>2026-06-05T11:34:12</time>
      </trkpt>
      <trkpt lat="36.07476099394262" lon="129.38297697342932">
        <ele>23.6</ele>
        <time>2026-06-05T11:34:13</time>
      </trkpt>
      <trkpt lat="36.074775997549295" lon="129.38301695510745">
        <ele>23.6</ele>
        <time>2026-06-05T11:34:14</time>
      </trkpt>
      <trkpt lat="36.074798963963985" lon="129.3830529972911">
        <ele>23.6</ele>
        <time>2026-06-05T11:34:15</time>
      </trkpt>
      <trkpt lat="36.07482494786382" lon="129.38308493234217">
        <ele>23.6</ele>
        <time>2026-06-05T11:34:16</time>
      </trkpt>
      <trkpt lat="36.07484892010689" lon="129.38311795704067">
        <ele>23.8</ele>
        <time>2026-06-05T11:34:17</time>
      </trkpt>
      <trkpt lat="36.07486794702709" lon="129.38315299339592">
        <ele>23.8</ele>
        <time>2026-06-05T11:34:18</time>
      </trkpt>
      <trkpt lat="36.07487892732024" lon="129.3831909634173">
        <ele>23.8</ele>
        <time>2026-06-05T11:34:19</time>
      </trkpt>
      <trkpt lat="36.074885968118906" lon="129.38323094509542">
        <ele>23.8</ele>
        <time>2026-06-05T11:34:20</time>
      </trkpt>
      <trkpt lat="36.07488898560405" lon="129.38326992094517">
        <ele>23.6</ele>
        <time>2026-06-05T11:34:21</time>
      </trkpt>
      <trkpt lat="36.07488797977567" lon="129.38330193981528">
        <ele>23.6</ele>
        <time>2026-06-05T11:34:22</time>
      </trkpt>
      <trkpt lat="36.074884962290525" lon="129.38332297839224">
        <ele>23.4</ele>
        <time>2026-06-05T11:34:23</time>
      </trkpt>
      <trkpt lat="36.074881944805384" lon="129.38333295285702">
        <ele>23.2</ele>
        <time>2026-06-05T11:34:24</time>
      </trkpt>
      <trkpt lat="36.07487892732024" lon="129.38333597034216">
        <ele>23.2</ele>
        <time>2026-06-05T11:34:25</time>
      </trkpt>
      <trkpt lat="36.07487699948251" lon="129.3833339586854">
        <ele>23.0</ele>
        <time>2026-06-05T11:34:26</time>
      </trkpt>
      <trkpt lat="36.07487498782575" lon="129.38333094120026">
        <ele>23.0</ele>
        <time>2026-06-05T11:34:27</time>
      </trkpt>
      <trkpt lat="36.07486794702709" lon="129.38338198699057">
        <ele>22.6</ele>
        <time>2026-06-05T11:34:33</time>
      </trkpt>
      <trkpt lat="36.07487096451223" lon="129.38341392204165">
        <ele>22.4</ele>
        <time>2026-06-05T11:34:34</time>
      </trkpt>
      <trkpt lat="36.07487398199737" lon="129.383443929255">
        <ele>22.4</ele>
        <time>2026-06-05T11:34:35</time>
      </trkpt>
      <trkpt lat="36.07487599365413" lon="129.3834689911455">
        <ele>22.4</ele>
        <time>2026-06-05T11:34:36</time>
      </trkpt>
      <trkpt lat="36.07487096451223" lon="129.38348894007504">
        <ele>22.2</ele>
        <time>2026-06-05T11:34:37</time>
      </trkpt>
      <trkpt lat="36.074858978390694" lon="129.38350394368172">
        <ele>22.2</ele>
        <time>2026-06-05T11:34:38</time>
      </trkpt>
      <trkpt lat="36.074840957298875" lon="129.38351995311677">
        <ele>22.2</ele>
        <time>2026-06-05T11:34:39</time>
      </trkpt>
      <trkpt lat="36.07481497339904" lon="129.3835369683802">
        <ele>22.2</ele>
        <time>2026-06-05T11:34:40</time>
      </trkpt>
      <trkpt lat="36.07478597201407" lon="129.38355498947203">
        <ele>22.0</ele>
        <time>2026-06-05T11:34:41</time>
      </trkpt>
      <trkpt lat="36.074753953143954" lon="129.38357292674482">
        <ele>22.0</ele>
        <time>2026-06-05T11:34:42</time>
      </trkpt>
      <trkpt lat="36.07472495175898" lon="129.38359094783664">
        <ele>22.0</ele>
        <time>2026-06-05T11:34:43</time>
      </trkpt>
      <trkpt lat="36.07469595037401" lon="129.38361098058522">
        <ele>21.8</ele>
        <time>2026-06-05T11:34:44</time>
      </trkpt>
      <trkpt lat="36.074669966474175" lon="129.38363193534315">
        <ele>21.8</ele>
        <time>2026-06-05T11:34:45</time>
      </trkpt>
      <trkpt lat="36.07464297674596" lon="129.3836539797485">
        <ele>21.6</ele>
        <time>2026-06-05T11:34:46</time>
      </trkpt>
      <trkpt lat="36.07461598701775" lon="129.38367099501193">
        <ele>21.6</ele>
        <time>2026-06-05T11:34:47</time>
      </trkpt>
      <trkpt lat="36.07458799146116" lon="129.38368692062795">
        <ele>21.6</ele>
        <time>2026-06-05T11:34:48</time>
      </trkpt>
      <trkpt lat="36.074558990076184" lon="129.383702930063">
        <ele>21.4</ele>
        <time>2026-06-05T11:34:49</time>
      </trkpt>
      <trkpt lat="36.07452998869121" lon="129.38372095115483">
        <ele>21.4</ele>
        <time>2026-06-05T11:34:50</time>
      </trkpt>
      <trkpt lat="36.074498975649476" lon="129.38373897224665">
        <ele>21.4</ele>
        <time>2026-06-05T11:34:51</time>
      </trkpt>
      <trkpt lat="36.07446796260774" lon="129.38375699333847">
        <ele>21.6</ele>
        <time>2026-06-05T11:34:52</time>
      </trkpt>
      <trkpt lat="36.07443694956601" lon="129.38377493061125">
        <ele>21.6</ele>
        <time>2026-06-05T11:34:53</time>
      </trkpt>
      <trkpt lat="36.07440694235265" lon="129.38379395753145">
        <ele>21.6</ele>
        <time>2026-06-05T11:34:54</time>
      </trkpt>
      <trkpt lat="36.07437592931092" lon="129.38381197862327">
        <ele>21.6</ele>
        <time>2026-06-05T11:34:55</time>
      </trkpt>
      <trkpt lat="36.074345922097564" lon="129.3838289938867">
        <ele>21.6</ele>
        <time>2026-06-05T11:34:56</time>
      </trkpt>
      <trkpt lat="36.07431599870324" lon="129.383842991665">
        <ele>21.6</ele>
        <time>2026-06-05T11:34:57</time>
      </trkpt>
      <trkpt lat="36.07428599148989" lon="129.38385891728103">
        <ele>21.6</ele>
        <time>2026-06-05T11:34:58</time>
      </trkpt>
      <trkpt lat="36.07425497844815" lon="129.3838789500296">
        <ele>21.6</ele>
        <time>2026-06-05T11:34:59</time>
      </trkpt>
      <trkpt lat="36.0742249712348" lon="129.3838989827782">
        <ele>21.4</ele>
        <time>2026-06-05T11:35:00</time>
      </trkpt>
      <trkpt lat="36.074196975678205" lon="129.38392194919288">
        <ele>21.4</ele>
        <time>2026-06-05T11:35:01</time>
      </trkpt>
      <trkpt lat="36.074176942929626" lon="129.38395095057786">
        <ele>21.2</ele>
        <time>2026-06-05T11:35:02</time>
      </trkpt>
      <trkpt lat="36.07416898012161" lon="129.38398799858987">
        <ele>21.2</ele>
        <time>2026-06-05T11:35:03</time>
      </trkpt>
      <trkpt lat="36.0741729196161" lon="129.38402697443962">
        <ele>21.2</ele>
        <time>2026-06-05T11:35:04</time>
      </trkpt>
      <trkpt lat="36.07418599538505" lon="129.3840689677745">
        <ele>21.2</ele>
        <time>2026-06-05T11:35:05</time>
      </trkpt>
      <trkpt lat="36.07420795597136" lon="129.38411498442292">
        <ele>21.2</ele>
        <time>2026-06-05T11:35:06</time>
      </trkpt>
      <trkpt lat="36.07423192821443" lon="129.3841659463942">
        <ele>21.0</ele>
        <time>2026-06-05T11:35:07</time>
      </trkpt>
      <trkpt lat="36.07425497844815" lon="129.38421992585063">
        <ele>21.0</ele>
        <time>2026-06-05T11:35:08</time>
      </trkpt>
      <trkpt lat="36.07427794486284" lon="129.3842729832977">
        <ele>21.0</ele>
        <time>2026-06-05T11:35:09</time>
      </trkpt>
      <trkpt lat="36.074299989268184" lon="129.38432495109737">
        <ele>21.0</ele>
        <time>2026-06-05T11:35:10</time>
      </trkpt>
      <trkpt lat="36.07431993819773" lon="129.38437691889703">
        <ele>21.0</ele>
        <time>2026-06-05T11:35:11</time>
      </trkpt>
      <trkpt lat="36.07433896511793" lon="129.38442796468735">
        <ele>21.0</ele>
        <time>2026-06-05T11:35:12</time>
      </trkpt>
      <trkpt lat="36.07435799203813" lon="129.3844769988209">
        <ele>21.0</ele>
        <time>2026-06-05T11:35:13</time>
      </trkpt>
      <trkpt lat="36.07437492348254" lon="129.38452494330704">
        <ele>21.0</ele>
        <time>2026-06-05T11:35:14</time>
      </trkpt>
      <trkpt lat="36.074390932917595" lon="129.38457095995545">
        <ele>21.0</ele>
        <time>2026-06-05T11:35:15</time>
      </trkpt>
      <trkpt lat="36.07440593652427" lon="129.3846149649471">
        <ele>21.0</ele>
        <time>2026-06-05T11:35:16</time>
      </trkpt>
      <trkpt lat="36.07442094013095" lon="129.3846559524536">
        <ele>20.8</ele>
        <time>2026-06-05T11:35:17</time>
      </trkpt>
      <trkpt lat="36.074434937909245" lon="129.38469492830336">
        <ele>20.8</ele>
        <time>2026-06-05T11:35:18</time>
      </trkpt>
      <trkpt lat="36.07444792985916" lon="129.38472795300186">
        <ele>20.8</ele>
        <time>2026-06-05T11:35:19</time>
      </trkpt>
      <trkpt lat="36.07446092180908" lon="129.3847539369017">
        <ele>20.8</ele>
        <time>2026-06-05T11:35:20</time>
      </trkpt>
      <trkpt lat="36.074474919587374" lon="129.38477497547865">
        <ele>20.8</ele>
        <time>2026-06-05T11:35:21</time>
      </trkpt>
      <trkpt lat="36.07449193485081" lon="129.38479391857982">
        <ele>20.6</ele>
        <time>2026-06-05T11:35:22</time>
      </trkpt>
      <trkpt lat="36.07450794428587" lon="129.38481495715678">
        <ele>20.6</ele>
        <time>2026-06-05T11:35:23</time>
      </trkpt>
      <trkpt lat="36.074519930407405" lon="129.38483993522823">
        <ele>20.6</ele>
        <time>2026-06-05T11:35:24</time>
      </trkpt>
      <trkpt lat="36.07452998869121" lon="129.38486793078482">
        <ele>20.4</ele>
        <time>2026-06-05T11:35:25</time>
      </trkpt>
      <trkpt lat="36.074538957327604" lon="129.38490095548332">
        <ele>20.4</ele>
        <time>2026-06-05T11:35:26</time>
      </trkpt>
      <trkpt lat="36.074547925964" lon="129.38493599183857">
        <ele>20.4</ele>
        <time>2026-06-05T11:35:27</time>
      </trkpt>
      <trkpt lat="36.074560917913914" lon="129.38497195020318">
        <ele>20.4</ele>
        <time>2026-06-05T11:35:28</time>
      </trkpt>
      <trkpt lat="36.07457592152059" lon="129.38500992022455">
        <ele>20.6</ele>
        <time>2026-06-05T11:35:29</time>
      </trkpt>
      <trkpt lat="36.07459193095565" lon="129.3850499857217">
        <ele>20.6</ele>
        <time>2026-06-05T11:35:30</time>
      </trkpt>
      <trkpt lat="36.07460894621909" lon="129.38509399071336">
        <ele>20.6</ele>
        <time>2026-06-05T11:35:31</time>
      </trkpt>
      <trkpt lat="36.074624955654144" lon="129.38514294102788">
        <ele>20.6</ele>
        <time>2026-06-05T11:35:32</time>
      </trkpt>
      <trkpt lat="36.07463995926082" lon="129.38519599847496">
        <ele>20.8</ele>
        <time>2026-06-05T11:35:33</time>
      </trkpt>
      <trkpt lat="36.0746549628675" lon="129.38524997793138">
        <ele>20.8</ele>
        <time>2026-06-05T11:35:34</time>
      </trkpt>
      <trkpt lat="36.07467197813094" lon="129.38530295155942">
        <ele>20.8</ele>
        <time>2026-06-05T11:35:35</time>
      </trkpt>
      <trkpt lat="36.074690921232104" lon="129.38535399734974">
        <ele>20.8</ele>
        <time>2026-06-05T11:35:36</time>
      </trkpt>
      <trkpt lat="36.07470793649554" lon="129.38540294766426">
        <ele>20.8</ele>
        <time>2026-06-05T11:35:37</time>
      </trkpt>
      <trkpt lat="36.07472595758736" lon="129.38544997014105">
        <ele>20.8</ele>
        <time>2026-06-05T11:35:38</time>
      </trkpt>
      <trkpt lat="36.0747429728508" lon="129.38549699261785">
        <ele>20.8</ele>
        <time>2026-06-05T11:35:39</time>
      </trkpt>
      <trkpt lat="36.07476099394262" lon="129.38554191961884">
        <ele>20.8</ele>
        <time>2026-06-05T11:35:40</time>
      </trkpt>
      <trkpt lat="36.074773985892534" lon="129.38558299094439">
        <ele>20.8</ele>
        <time>2026-06-05T11:35:41</time>
      </trkpt>
      <trkpt lat="36.07478597201407" lon="129.38562498427927">
        <ele>20.8</ele>
        <time>2026-06-05T11:35:42</time>
      </trkpt>
      <trkpt lat="36.074798963963985" lon="129.38566697761416">
        <ele>20.8</ele>
        <time>2026-06-05T11:35:43</time>
      </trkpt>
      <trkpt lat="36.07481296174228" lon="129.38570897094905">
        <ele>20.6</ele>
        <time>2026-06-05T11:35:44</time>
      </trkpt>
      <trkpt lat="36.07482796534896" lon="129.3857529759407">
        <ele>20.6</ele>
        <time>2026-06-05T11:35:45</time>
      </trkpt>
      <trkpt lat="36.07484598644078" lon="129.38579597510397">
        <ele>20.6</ele>
        <time>2026-06-05T11:35:46</time>
      </trkpt>
      <trkpt lat="36.074863923713565" lon="129.38583897426724">
        <ele>20.6</ele>
        <time>2026-06-05T11:35:47</time>
      </trkpt>
      <trkpt lat="36.07487699948251" lon="129.38587996177375">
        <ele>20.6</ele>
        <time>2026-06-05T11:35:48</time>
      </trkpt>
      <trkpt lat="36.07488697394729" lon="129.38591692596674">
        <ele>20.8</ele>
        <time>2026-06-05T11:35:49</time>
      </trkpt>
      <trkpt lat="36.07489694841206" lon="129.38594793900847">
        <ele>20.8</ele>
        <time>2026-06-05T11:35:50</time>
      </trkpt>
      <trkpt lat="36.074907928705215" lon="129.38597694039345">
        <ele>20.8</ele>
        <time>2026-06-05T11:35:51</time>
      </trkpt>
      <trkpt lat="36.07491999864578" lon="129.38600996509194">
        <ele>20.8</ele>
        <time>2026-06-05T11:35:52</time>
      </trkpt>
      <trkpt lat="36.07493399642408" lon="129.38604994677007">
        <ele>20.8</ele>
        <time>2026-06-05T11:35:53</time>
      </trkpt>
      <trkpt lat="36.074947994202375" lon="129.38609797507524">
        <ele>20.8</ele>
        <time>2026-06-05T11:35:54</time>
      </trkpt>
      <trkpt lat="36.0749639198184" lon="129.3861499428749">
        <ele>21.0</ele>
        <time>2026-06-05T11:35:55</time>
      </trkpt>
      <trkpt lat="36.07498093508184" lon="129.3862019944936">
        <ele>21.0</ele>
        <time>2026-06-05T11:35:56</time>
      </trkpt>
      <trkpt lat="36.074994932860136" lon="129.38625597395003">
        <ele>21.2</ele>
        <time>2026-06-05T11:35:57</time>
      </trkpt>
      <trkpt lat="36.07500893063843" lon="129.3863069359213">
        <ele>21.2</ele>
        <time>2026-06-05T11:35:58</time>
      </trkpt>
      <trkpt lat="36.07501999475062" lon="129.38635194674134">
        <ele>21.2</ele>
        <time>2026-06-05T11:35:59</time>
      </trkpt>
      <trkpt lat="36.07502996921539" lon="129.38638899475336">
        <ele>21.2</ele>
        <time>2026-06-05T11:36:00</time>
      </trkpt>
      <trkpt lat="36.07504094950855" lon="129.38641699030995">
        <ele>21.2</ele>
        <time>2026-06-05T11:36:01</time>
      </trkpt>
      <trkpt lat="36.07505293563008" lon="129.38643392175436">
        <ele>21.2</ele>
        <time>2026-06-05T11:36:02</time>
      </trkpt>
      <trkpt lat="36.07506198808551" lon="129.38644498586655">
        <ele>21.2</ele>
        <time>2026-06-05T11:36:03</time>
      </trkpt>
      <trkpt lat="36.07506793923676" lon="129.38644892536104">
        <ele>21.0</ele>
        <time>2026-06-05T11:36:04</time>
      </trkpt>
      <trkpt lat="36.07506894506514" lon="129.3864509370178">
        <ele>21.0</ele>
        <time>2026-06-05T11:36:05</time>
      </trkpt>
      <trkpt lat="36.07506894506514" lon="129.3864509370178">
        <ele>21.0</ele>
        <time>2026-06-05T11:36:06</time>
      </trkpt>
      <trkpt lat="36.07506894506514" lon="129.38644892536104">
        <ele>20.8</ele>
        <time>2026-06-05T11:36:07</time>
      </trkpt>
      <trkpt lat="36.07506894506514" lon="129.38644599169493">
        <ele>20.8</ele>
        <time>2026-06-05T11:36:08</time>
      </trkpt>
      <trkpt lat="36.07506995089352" lon="129.38644398003817">
        <ele>20.8</ele>
        <time>2026-06-05T11:36:09</time>
      </trkpt>
      <trkpt lat="36.07509291730821" lon="129.38655696809292">
        <ele>21.4</ele>
        <time>2026-06-05T11:37:48</time>
      </trkpt>
      <trkpt lat="36.075096940621734" lon="129.3865999672562">
        <ele>21.4</ele>
        <time>2026-06-05T11:37:49</time>
      </trkpt>
      <trkpt lat="36.07510498724878" lon="129.38664497807622">
        <ele>21.4</ele>
        <time>2026-06-05T11:37:50</time>
      </trkpt>
      <trkpt lat="36.075116973370314" lon="129.38668898306787">
        <ele>21.4</ele>
        <time>2026-06-05T11:37:51</time>
      </trkpt>
      <trkpt lat="36.07513097114861" lon="129.38673097640276">
        <ele>21.4</ele>
        <time>2026-06-05T11:37:52</time>
      </trkpt>
      <trkpt lat="36.075140945613384" lon="129.3867699522525">
        <ele>21.4</ele>
        <time>2026-06-05T11:37:53</time>
      </trkpt>
      <trkpt lat="36.07514698058367" lon="129.386802976951">
        <ele>21.6</ele>
        <time>2026-06-05T11:37:54</time>
      </trkpt>
      <trkpt lat="36.07515293173492" lon="129.38683197833598">
        <ele>21.6</ele>
        <time>2026-06-05T11:37:55</time>
      </trkpt>
      <trkpt lat="36.075160978361964" lon="129.38685695640743">
        <ele>21.6</ele>
        <time>2026-06-05T11:37:56</time>
      </trkpt>
      <trkpt lat="36.07516994699836" lon="129.38687598332763">
        <ele>21.6</ele>
        <time>2026-06-05T11:37:57</time>
      </trkpt>
      <trkpt lat="36.07517598196864" lon="129.38688394613564">
        <ele>21.8</ele>
        <time>2026-06-05T11:37:58</time>
      </trkpt>
      <trkpt lat="36.07518092729151" lon="129.38688495196402">
        <ele>21.8</ele>
        <time>2026-06-05T11:37:59</time>
      </trkpt>
      <trkpt lat="36.075182938948274" lon="129.38688495196402">
        <ele>21.8</ele>
        <time>2026-06-05T11:38:00</time>
      </trkpt>
      <trkpt lat="36.075183944776654" lon="129.38688495196402">
        <ele>21.8</ele>
        <time>2026-06-05T11:38:01</time>
      </trkpt>
      <trkpt lat="36.075141951441765" lon="129.3869739677757">
        <ele>20.6</ele>
        <time>2026-06-05T11:42:02</time>
      </trkpt>
      <trkpt lat="36.075140945613384" lon="129.38698695972562">
        <ele>20.6</ele>
        <time>2026-06-05T11:42:03</time>
      </trkpt>
      <trkpt lat="36.075139939785004" lon="129.3870019633323">
        <ele>20.6</ele>
        <time>2026-06-05T11:42:04</time>
      </trkpt>
      <trkpt lat="36.075139939785004" lon="129.38701998442411">
        <ele>20.6</ele>
        <time>2026-06-05T11:42:05</time>
      </trkpt>
      <trkpt lat="36.075140945613384" lon="129.38704093918204">
        <ele>20.6</ele>
        <time>2026-06-05T11:42:06</time>
      </trkpt>
      <trkpt lat="36.075143963098526" lon="129.38705896027386">
        <ele>20.6</ele>
        <time>2026-06-05T11:42:07</time>
      </trkpt>
      <trkpt lat="36.07514698058367" lon="129.38707295805216">
        <ele>20.6</ele>
        <time>2026-06-05T11:42:08</time>
      </trkpt>
      <trkpt lat="36.07514899224043" lon="129.3870839383453">
        <ele>20.6</ele>
        <time>2026-06-05T11:42:09</time>
      </trkpt>
      <trkpt lat="36.07514999806881" lon="129.38709097914398">
        <ele>20.6</ele>
        <time>2026-06-05T11:42:10</time>
      </trkpt>
      <trkpt lat="36.07515092007816" lon="129.38709399662912">
        <ele>20.8</ele>
        <time>2026-06-05T11:42:11</time>
      </trkpt>
      <trkpt lat="36.07514798641205" lon="129.38709693029523">
        <ele>20.8</ele>
        <time>2026-06-05T11:42:12</time>
      </trkpt>
      <trkpt lat="36.07514496892691" lon="129.3871029652655">
        <ele>20.8</ele>
        <time>2026-06-05T11:42:13</time>
      </trkpt>
      <trkpt lat="36.075141951441765" lon="129.38711394555867">
        <ele>20.6</ele>
        <time>2026-06-05T11:42:14</time>
      </trkpt>
      <trkpt lat="36.075139939785004" lon="129.38712693750858">
        <ele>20.6</ele>
        <time>2026-06-05T11:42:15</time>
      </trkpt>
      <trkpt lat="36.075142957270145" lon="129.38713892363012">
        <ele>20.6</ele>
        <time>2026-06-05T11:42:16</time>
      </trkpt>
      <trkpt lat="36.07514899224043" lon="129.38714596442878">
        <ele>20.6</ele>
        <time>2026-06-05T11:42:17</time>
      </trkpt>
      <trkpt lat="36.07515695504844" lon="129.3871499877423">
        <ele>20.6</ele>
        <time>2026-06-05T11:42:18</time>
      </trkpt>
      <trkpt lat="36.075165923684835" lon="129.38715292140841">
        <ele>20.6</ele>
        <time>2026-06-05T11:42:19</time>
      </trkpt>
      <trkpt lat="36.0751729644835" lon="129.38715694472194">
        <ele>20.6</ele>
        <time>2026-06-05T11:42:20</time>
      </trkpt>
      <trkpt lat="36.07517698779702" lon="129.3871679250151">
        <ele>20.6</ele>
        <time>2026-06-05T11:42:21</time>
      </trkpt>
      <trkpt lat="36.075182938948274" lon="129.3871859461069">
        <ele>20.6</ele>
        <time>2026-06-05T11:42:22</time>
      </trkpt>
      <trkpt lat="36.07518997974694" lon="129.38721092417836">
        <ele>20.6</ele>
        <time>2026-06-05T11:42:23</time>
      </trkpt>
      <trkpt lat="36.07519894838333" lon="129.38724093139172">
        <ele>20.8</ele>
        <time>2026-06-05T11:42:24</time>
      </trkpt>
      <trkpt lat="36.075207917019725" lon="129.3872739560902">
        <ele>20.8</ele>
        <time>2026-06-05T11:42:25</time>
      </trkpt>
      <trkpt lat="36.07521495781839" lon="129.3873069807887">
        <ele>20.8</ele>
        <time>2026-06-05T11:42:26</time>
      </trkpt>
      <trkpt lat="36.07521998696029" lon="129.38733899965882">
        <ele>20.8</ele>
        <time>2026-06-05T11:42:27</time>
      </trkpt>
      <trkpt lat="36.07522493228316" lon="129.38737294636667">
        <ele>21.0</ele>
        <time>2026-06-05T11:42:28</time>
      </trkpt>
      <trkpt lat="36.07523297891021" lon="129.38741091638803">
        <ele>21.0</ele>
        <time>2026-06-05T11:42:29</time>
      </trkpt>
      <trkpt lat="36.07524496503174" lon="129.38745299354196">
        <ele>21.0</ele>
        <time>2026-06-05T11:42:30</time>
      </trkpt>
      <trkpt lat="36.07525795698166" lon="129.38750194385648">
        <ele>21.2</ele>
        <time>2026-06-05T11:42:31</time>
      </trkpt>
      <trkpt lat="36.075268937274814" lon="129.3875529896468">
        <ele>21.2</ele>
        <time>2026-06-05T11:42:32</time>
      </trkpt>
      <trkpt lat="36.07527991756797" lon="129.38760495744646">
        <ele>21.2</ele>
        <time>2026-06-05T11:42:33</time>
      </trkpt>
      <trkpt lat="36.075289975851774" lon="129.38765893690288">
        <ele>21.2</ele>
        <time>2026-06-05T11:42:34</time>
      </trkpt>
      <trkpt lat="36.07529693283141" lon="129.3877139221877">
        <ele>21.2</ele>
        <time>2026-06-05T11:42:35</time>
      </trkpt>
      <trkpt lat="36.07530397363007" lon="129.38776899129152">
        <ele>21.2</ele>
        <time>2026-06-05T11:42:36</time>
      </trkpt>
      <trkpt lat="36.0753109306097" lon="129.38782397657633">
        <ele>21.2</ele>
        <time>2026-06-05T11:42:37</time>
      </trkpt>
      <trkpt lat="36.07531998306513" lon="129.38787896186113">
        <ele>21.0</ele>
        <time>2026-06-05T11:42:38</time>
      </trkpt>
      <trkpt lat="36.07532895170152" lon="129.38793394714594">
        <ele>21.0</ele>
        <time>2026-06-05T11:42:39</time>
      </trkpt>
      <trkpt lat="36.075335992500186" lon="129.38798692077398">
        <ele>21.0</ele>
        <time>2026-06-05T11:42:40</time>
      </trkpt>
      <trkpt lat="36.07534697279334" lon="129.3880289979279">
        <ele>21.0</ele>
        <time>2026-06-05T11:42:41</time>
      </trkpt>
      <trkpt lat="36.07536398805678" lon="129.3880599271506">
        <ele>20.8</ele>
        <time>2026-06-05T11:42:42</time>
      </trkpt>
      <trkpt lat="36.07538494281471" lon="129.38808096572757">
        <ele>20.8</ele>
        <time>2026-06-05T11:42:43</time>
      </trkpt>
      <trkpt lat="36.075400952249765" lon="129.38809999264777">
        <ele>20.8</ele>
        <time>2026-06-05T11:42:44</time>
      </trkpt>
      <trkpt lat="36.07541092671454" lon="129.38811792992055">
        <ele>20.8</ele>
        <time>2026-06-05T11:42:45</time>
      </trkpt>
      <trkpt lat="36.07541696168482" lon="129.38813896849751">
        <ele>20.8</ele>
        <time>2026-06-05T11:42:46</time>
      </trkpt>
      <trkpt lat="36.075419979169965" lon="129.38816394656897">
        <ele>20.8</ele>
        <time>2026-06-05T11:42:47</time>
      </trkpt>
      <trkpt lat="36.075420984998345" lon="129.38819194212556">
        <ele>20.8</ele>
        <time>2026-06-05T11:42:48</time>
      </trkpt>
      <trkpt lat="36.075417967513204" lon="129.3882179260254">
        <ele>20.8</ele>
        <time>2026-06-05T11:42:49</time>
      </trkpt>
      <trkpt lat="36.07541092671454" lon="129.38824298791587">
        <ele>20.8</ele>
        <time>2026-06-05T11:42:50</time>
      </trkpt>
      <trkpt lat="36.075401958078146" lon="129.38827098347247">
        <ele>20.8</ele>
        <time>2026-06-05T11:42:51</time>
      </trkpt>
      <trkpt lat="36.07539692893624" lon="129.3883049301803">
        <ele>20.8</ele>
        <time>2026-06-05T11:42:52</time>
      </trkpt>
      <trkpt lat="36.075397934764624" lon="129.3883439898491">
        <ele>20.8</ele>
        <time>2026-06-05T11:42:53</time>
      </trkpt>
      <trkpt lat="36.07540396973491" lon="129.38838698901236">
        <ele>20.8</ele>
        <time>2026-06-05T11:42:54</time>
      </trkpt>
      <trkpt lat="36.07541193254292" lon="129.3884319998324">
        <ele>20.8</ele>
        <time>2026-06-05T11:42:55</time>
      </trkpt>
      <trkpt lat="36.07542299665511" lon="129.38847893849015">
        <ele>20.8</ele>
        <time>2026-06-05T11:42:56</time>
      </trkpt>
      <trkpt lat="36.07543598860502" lon="129.38852596096694">
        <ele>20.6</ele>
        <time>2026-06-05T11:42:57</time>
      </trkpt>
      <trkpt lat="36.07544696889818" lon="129.38857097178698">
        <ele>20.6</ele>
        <time>2026-06-05T11:42:58</time>
      </trkpt>
      <trkpt lat="36.07545694336295" lon="129.38861497677863">
        <ele>20.8</ele>
        <time>2026-06-05T11:42:59</time>
      </trkpt>
      <trkpt lat="36.07546599581838" lon="129.38865697011352">
        <ele>20.8</ele>
        <time>2026-06-05T11:43:00</time>
      </trkpt>
      <trkpt lat="36.07547395862639" lon="129.3886989634484">
        <ele>20.8</ele>
        <time>2026-06-05T11:43:01</time>
      </trkpt>
      <trkpt lat="36.075480999425054" lon="129.38874397426844">
        <ele>20.8</ele>
        <time>2026-06-05T11:43:02</time>
      </trkpt>
      <trkpt lat="36.075487956404686" lon="129.38879099674523">
        <ele>20.8</ele>
        <time>2026-06-05T11:43:03</time>
      </trkpt>
      <trkpt lat="36.07549499720335" lon="129.38884095288813">
        <ele>20.8</ele>
        <time>2026-06-05T11:43:04</time>
      </trkpt>
      <trkpt lat="36.0755009483546" lon="129.38889099285007">
        <ele>20.8</ele>
        <time>2026-06-05T11:43:05</time>
      </trkpt>
      <trkpt lat="36.075506983324885" lon="129.3889399431646">
        <ele>21.0</ele>
        <time>2026-06-05T11:43:06</time>
      </trkpt>
      <trkpt lat="36.07551394030452" lon="129.388985959813">
        <ele>21.0</ele>
        <time>2026-06-05T11:43:07</time>
      </trkpt>
      <trkpt lat="36.07552299275994" lon="129.38902895897627">
        <ele>21.0</ele>
        <time>2026-06-05T11:43:08</time>
      </trkpt>
      <trkpt lat="36.075530955567956" lon="129.38906692899764">
        <ele>21.0</ele>
        <time>2026-06-05T11:43:09</time>
      </trkpt>
      <trkpt lat="36.07553992420435" lon="129.3891009595245">
        <ele>21.0</ele>
        <time>2026-06-05T11:43:10</time>
      </trkpt>
      <trkpt lat="36.075546965003014" lon="129.3891299609095">
        <ele>21.0</ele>
        <time>2026-06-05T11:43:11</time>
      </trkpt>
      <trkpt lat="36.075553921982646" lon="129.38915594480932">
        <ele>21.0</ele>
        <time>2026-06-05T11:43:12</time>
      </trkpt>
      <trkpt lat="36.07555995695293" lon="129.38918192870915">
        <ele>21.0</ele>
        <time>2026-06-05T11:43:13</time>
      </trkpt>
      <trkpt lat="36.07556297443807" lon="129.38920497894287">
        <ele>21.0</ele>
        <time>2026-06-05T11:43:14</time>
      </trkpt>
      <trkpt lat="36.07556096278131" lon="129.38922492787242">
        <ele>21.0</ele>
        <time>2026-06-05T11:43:15</time>
      </trkpt>
      <trkpt lat="36.07555794529617" lon="129.38924194313586">
        <ele>21.0</ele>
        <time>2026-06-05T11:43:16</time>
      </trkpt>
      <trkpt lat="36.07555593363941" lon="129.38925099559128">
        <ele>21.0</ele>
        <time>2026-06-05T11:43:17</time>
      </trkpt>
      <trkpt lat="36.07555492781103" lon="129.389252923429">
        <ele>21.0</ele>
        <time>2026-06-05T11:43:18</time>
      </trkpt>
      <trkpt lat="36.07555593363941" lon="129.38925191760063">
        <ele>21.0</ele>
        <time>2026-06-05T11:43:19</time>
      </trkpt>
      <trkpt lat="36.07555593363941" lon="129.3892499897629">
        <ele>21.0</ele>
        <time>2026-06-05T11:43:20</time>
      </trkpt>
      <trkpt lat="36.07552098110318" lon="129.38931193202734">
        <ele>20.0</ele>
        <time>2026-06-05T11:45:29</time>
      </trkpt>
      <trkpt lat="36.07549893669784" lon="129.38932199031115">
        <ele>20.0</ele>
        <time>2026-06-05T11:45:30</time>
      </trkpt>
      <trkpt lat="36.07547395862639" lon="129.3893329706043">
        <ele>20.0</ele>
        <time>2026-06-05T11:45:31</time>
      </trkpt>
      <trkpt lat="36.0754459630698" lon="129.38934395089746">
        <ele>20.0</ele>
        <time>2026-06-05T11:45:32</time>
      </trkpt>
      <trkpt lat="36.07541595585644" lon="129.38935694284737">
        <ele>20.0</ele>
        <time>2026-06-05T11:45:33</time>
      </trkpt>
      <trkpt lat="36.07538293115795" lon="129.38937194645405">
        <ele>20.0</ele>
        <time>2026-06-05T11:45:34</time>
      </trkpt>
      <trkpt lat="36.0753489844501" lon="129.3893889617175">
        <ele>20.0</ele>
        <time>2026-06-05T11:45:35</time>
      </trkpt>
      <trkpt lat="36.075313948094845" lon="129.38940597698092">
        <ele>20.0</ele>
        <time>2026-06-05T11:45:36</time>
      </trkpt>
      <trkpt lat="36.07528494670987" lon="129.38942299224436">
        <ele>20.0</ele>
        <time>2026-06-05T11:45:37</time>
      </trkpt>
      <trkpt lat="36.07526499778032" lon="129.38944696448743">
        <ele>20.0</ele>
        <time>2026-06-05T11:45:38</time>
      </trkpt>
      <trkpt lat="36.07525695115328" lon="129.38948392868042">
        <ele>20.0</ele>
        <time>2026-06-05T11:45:39</time>
      </trkpt>
      <trkpt lat="36.07525795698166" lon="129.38953296281397">
        <ele>20.0</ele>
        <time>2026-06-05T11:45:40</time>
      </trkpt>
      <trkpt lat="36.07526591978967" lon="129.3895919714123">
        <ele>20.0</ele>
        <time>2026-06-05T11:45:41</time>
      </trkpt>
      <trkpt lat="36.07527698390186" lon="129.38965894281864">
        <ele>20.0</ele>
        <time>2026-06-05T11:45:42</time>
      </trkpt>
      <trkpt lat="36.075289975851774" lon="129.38973094336689">
        <ele>20.0</ele>
        <time>2026-06-05T11:45:43</time>
      </trkpt>
      <trkpt lat="36.07530497945845" lon="129.3898049555719">
        <ele>20.0</ele>
        <time>2026-06-05T11:45:44</time>
      </trkpt>
      <trkpt lat="36.07531797140837" lon="129.3898789677769">
        <ele>20.0</ele>
        <time>2026-06-05T11:45:45</time>
      </trkpt>
      <trkpt lat="36.075331969186664" lon="129.38995499163866">
        <ele>20.0</ele>
        <time>2026-06-05T11:45:46</time>
      </trkpt>
      <trkpt lat="36.07534697279334" lon="129.3900309316814">
        <ele>20.0</ele>
        <time>2026-06-05T11:45:47</time>
      </trkpt>
      <trkpt lat="36.0753629822284" lon="129.39010695554316">
        <ele>20.2</ele>
        <time>2026-06-05T11:45:48</time>
      </trkpt>
      <trkpt lat="36.075376980006695" lon="129.3901849910617">
        <ele>20.2</ele>
        <time>2026-06-05T11:45:49</time>
      </trkpt>
      <trkpt lat="36.07538796029985" lon="129.39026394858956">
        <ele>20.2</ele>
        <time>2026-06-05T11:45:50</time>
      </trkpt>
      <trkpt lat="36.075400952249765" lon="129.3903419841081">
        <ele>20.2</ele>
        <time>2026-06-05T11:45:51</time>
      </trkpt>
      <trkpt lat="36.0754129383713" lon="129.39041499048471">
        <ele>20.2</ele>
        <time>2026-06-05T11:45:52</time>
      </trkpt>
      <trkpt lat="36.075424924492836" lon="129.39048296771944">
        <ele>20.2</ele>
        <time>2026-06-05T11:45:53</time>
      </trkpt>
      <trkpt lat="36.07543892227113" lon="129.39054993912578">
        <ele>20.2</ele>
        <time>2026-06-05T11:45:54</time>
      </trkpt>
      <trkpt lat="36.07545493170619" lon="129.39061699435115">
        <ele>20.2</ele>
        <time>2026-06-05T11:45:55</time>
      </trkpt>
      <trkpt lat="36.07547194696963" lon="129.390687989071">
        <ele>20.2</ele>
        <time>2026-06-05T11:45:56</time>
      </trkpt>
      <trkpt lat="36.075487956404686" lon="129.39076191745698">
        <ele>20.2</ele>
        <time>2026-06-05T11:45:57</time>
      </trkpt>
      <trkpt lat="36.07550195418298" lon="129.390835929662">
        <ele>20.2</ele>
        <time>2026-06-05T11:45:58</time>
      </trkpt>
      <trkpt lat="36.07551595196128" lon="129.3909089360386">
        <ele>20.2</ele>
        <time>2026-06-05T11:45:59</time>
      </trkpt>
      <trkpt lat="36.075528943911195" lon="129.39098093658686">
        <ele>20.2</ele>
        <time>2026-06-05T11:46:00</time>
      </trkpt>
      <trkpt lat="36.07554193586111" lon="129.39105092547834">
        <ele>20.2</ele>
        <time>2026-06-05T11:46:01</time>
      </trkpt>
      <trkpt lat="36.0755529999733" lon="129.39111999236047">
        <ele>20.2</ele>
        <time>2026-06-05T11:46:02</time>
      </trkpt>
      <trkpt lat="36.07556498609483" lon="129.3911879695952">
        <ele>20.2</ele>
        <time>2026-06-05T11:46:03</time>
      </trkpt>
      <trkpt lat="36.07557697221637" lon="129.39125494100153">
        <ele>20.0</ele>
        <time>2026-06-05T11:46:04</time>
      </trkpt>
      <trkpt lat="36.07558795250952" lon="129.39132099039853">
        <ele>20.0</ele>
        <time>2026-06-05T11:46:05</time>
      </trkpt>
      <trkpt lat="36.07559993863106" lon="129.39138796180487">
        <ele>20.0</ele>
        <time>2026-06-05T11:46:06</time>
      </trkpt>
      <trkpt lat="36.07561192475259" lon="129.39145392738283">
        <ele>19.8</ele>
        <time>2026-06-05T11:46:07</time>
      </trkpt>
      <trkpt lat="36.07562298886478" lon="129.39151897095144">
        <ele>19.8</ele>
        <time>2026-06-05T11:46:08</time>
      </trkpt>
      <trkpt lat="36.075634974986315" lon="129.39158191904426">
        <ele>19.6</ele>
        <time>2026-06-05T11:46:09</time>
      </trkpt>
      <trkpt lat="36.07564696110785" lon="129.39164394512773">
        <ele>19.6</ele>
        <time>2026-06-05T11:46:10</time>
      </trkpt>
      <trkpt lat="36.075656935572624" lon="129.39170395955443">
        <ele>19.6</ele>
        <time>2026-06-05T11:46:11</time>
      </trkpt>
      <trkpt lat="36.07566498219967" lon="129.391760956496">
        <ele>19.6</ele>
        <time>2026-06-05T11:46:12</time>
      </trkpt>
      <trkpt lat="36.07567294500768" lon="129.39181493595243">
        <ele>19.6</ele>
        <time>2026-06-05T11:46:13</time>
      </trkpt>
      <trkpt lat="36.075678979977965" lon="129.3918679933995">
        <ele>19.8</ele>
        <time>2026-06-05T11:46:14</time>
      </trkpt>
      <trkpt lat="36.07568493112922" lon="129.39192096702754">
        <ele>19.8</ele>
        <time>2026-06-05T11:46:15</time>
      </trkpt>
      <trkpt lat="36.07569297775626" lon="129.3919739406556">
        <ele>19.8</ele>
        <time>2026-06-05T11:46:16</time>
      </trkpt>
      <trkpt lat="36.0757049638778" lon="129.392027920112">
        <ele>19.8</ele>
        <time>2026-06-05T11:46:17</time>
      </trkpt>
      <trkpt lat="36.075719967484474" lon="129.39208198338747">
        <ele>19.8</ele>
        <time>2026-06-05T11:46:18</time>
      </trkpt>
      <trkpt lat="36.075738994404674" lon="129.39213495701551">
        <ele>20.0</ele>
        <time>2026-06-05T11:46:19</time>
      </trkpt>
      <trkpt lat="36.07576095499098" lon="129.39218893647194">
        <ele>20.0</ele>
        <time>2026-06-05T11:46:20</time>
      </trkpt>
      <trkpt lat="36.07577998191118" lon="129.3922429997474">
        <ele>20.0</ele>
        <time>2026-06-05T11:46:21</time>
      </trkpt>
      <trkpt lat="36.07579699717462" lon="129.3922979850322">
        <ele>20.0</ele>
        <time>2026-06-05T11:46:22</time>
      </trkpt>
      <trkpt lat="36.07581099495292" lon="129.3923539761454">
        <ele>20.0</ele>
        <time>2026-06-05T11:46:23</time>
      </trkpt>
      <trkpt lat="36.07582398690283" lon="129.39240996725857">
        <ele>20.2</ele>
        <time>2026-06-05T11:46:24</time>
      </trkpt>
      <trkpt lat="36.07583496719599" lon="129.3924689758569">
        <ele>20.2</ele>
        <time>2026-06-05T11:46:25</time>
      </trkpt>
      <trkpt lat="36.07584594748914" lon="129.392529996112">
        <ele>20.4</ele>
        <time>2026-06-05T11:46:26</time>
      </trkpt>
      <trkpt lat="36.0758569277823" lon="129.39259193837643">
        <ele>20.4</ele>
        <time>2026-06-05T11:46:27</time>
      </trkpt>
      <trkpt lat="36.0758669860661" lon="129.3926539644599">
        <ele>20.6</ele>
        <time>2026-06-05T11:46:28</time>
      </trkpt>
      <trkpt lat="36.0758759547025" lon="129.39271498471498">
        <ele>20.6</ele>
        <time>2026-06-05T11:46:29</time>
      </trkpt>
      <trkpt lat="36.07588391751051" lon="129.39277298748493">
        <ele>20.6</ele>
        <time>2026-06-05T11:46:30</time>
      </trkpt>
      <trkpt lat="36.075890958309174" lon="129.39282897859812">
        <ele>20.8</ele>
        <time>2026-06-05T11:46:31</time>
      </trkpt>
      <trkpt lat="36.07589799910784" lon="129.39288295805454">
        <ele>20.8</ele>
        <time>2026-06-05T11:46:32</time>
      </trkpt>
      <trkpt lat="36.07590395025909" lon="129.39293693751097">
        <ele>20.8</ele>
        <time>2026-06-05T11:46:33</time>
      </trkpt>
      <trkpt lat="36.07590897940099" lon="129.39299192279577">
        <ele>20.8</ele>
        <time>2026-06-05T11:46:34</time>
      </trkpt>
      <trkpt lat="36.075913924723864" lon="129.3930469918996">
        <ele>20.8</ele>
        <time>2026-06-05T11:46:35</time>
      </trkpt>
      <trkpt lat="36.075916942209005" lon="129.39310398884118">
        <ele>20.8</ele>
        <time>2026-06-05T11:46:36</time>
      </trkpt>
      <trkpt lat="36.07592096552253" lon="129.3931629974395">
        <ele>21.0</ele>
        <time>2026-06-05T11:46:37</time>
      </trkpt>
      <trkpt lat="36.07592691667378" lon="129.3932219222188">
        <ele>21.0</ele>
        <time>2026-06-05T11:46:38</time>
      </trkpt>
      <trkpt lat="36.075934963300824" lon="129.39327992498875">
        <ele>21.0</ele>
        <time>2026-06-05T11:46:39</time>
      </trkpt>
      <trkpt lat="36.07594393193722" lon="129.39333499409258">
        <ele>21.0</ele>
        <time>2026-06-05T11:46:40</time>
      </trkpt>
      <trkpt lat="36.075954996049404" lon="129.39338696189225">
        <ele>21.0</ele>
        <time>2026-06-05T11:46:41</time>
      </trkpt>
      <trkpt lat="36.07596597634256" lon="129.3934389296919">
        <ele>21.0</ele>
        <time>2026-06-05T11:46:42</time>
      </trkpt>
      <trkpt lat="36.075976956635714" lon="129.39349299296737">
        <ele>21.2</ele>
        <time>2026-06-05T11:46:43</time>
      </trkpt>
      <trkpt lat="36.07598491944373" lon="129.39354797825217">
        <ele>21.2</ele>
        <time>2026-06-05T11:46:44</time>
      </trkpt>
      <trkpt lat="36.07599497772753" lon="129.39360296353698">
        <ele>21.2</ele>
        <time>2026-06-05T11:46:45</time>
      </trkpt>
      <trkpt lat="36.076003946363926" lon="129.3936569429934">
        <ele>21.2</ele>
        <time>2026-06-05T11:46:46</time>
      </trkpt>
      <trkpt lat="36.07601299881935" lon="129.39371092244983">
        <ele>21.4</ele>
        <time>2026-06-05T11:46:47</time>
      </trkpt>
      <trkpt lat="36.07602498494089" lon="129.39376498572528">
        <ele>21.4</ele>
        <time>2026-06-05T11:46:48</time>
      </trkpt>
      <trkpt lat="36.0760379768908" lon="129.3938189651817">
        <ele>21.4</ele>
        <time>2026-06-05T11:46:49</time>
      </trkpt>
      <trkpt lat="36.07605096884072" lon="129.39387596212327">
        <ele>21.4</ele>
        <time>2026-06-05T11:46:50</time>
      </trkpt>
      <trkpt lat="36.076064966619015" lon="129.3939349707216">
        <ele>21.4</ele>
        <time>2026-06-05T11:46:51</time>
      </trkpt>
      <trkpt lat="36.07607594691217" lon="129.3939959909767">
        <ele>21.4</ele>
        <time>2026-06-05T11:46:52</time>
      </trkpt>
      <trkpt lat="36.076083993539214" lon="129.3940589390695">
        <ele>21.4</ele>
        <time>2026-06-05T11:46:53</time>
      </trkpt>
      <trkpt lat="36.076089944690466" lon="129.39412096515298">
        <ele>21.6</ele>
        <time>2026-06-05T11:46:54</time>
      </trkpt>
      <trkpt lat="36.07609597966075" lon="129.39418299123645">
        <ele>21.6</ele>
        <time>2026-06-05T11:46:55</time>
      </trkpt>
      <trkpt lat="36.07610394246876" lon="129.39424292184412">
        <ele>21.6</ele>
        <time>2026-06-05T11:46:56</time>
      </trkpt>
      <trkpt lat="36.07611391693354" lon="129.39430193044245">
        <ele>21.6</ele>
        <time>2026-06-05T11:46:57</time>
      </trkpt>
      <trkpt lat="36.07612498104572" lon="129.3943599332124">
        <ele>21.8</ele>
        <time>2026-06-05T11:46:58</time>
      </trkpt>
      <trkpt lat="36.0761349555105" lon="129.39441592432559">
        <ele>21.8</ele>
        <time>2026-06-05T11:46:59</time>
      </trkpt>
      <trkpt lat="36.07614392414689" lon="129.39446998760104">
        <ele>21.8</ele>
        <time>2026-06-05T11:47:00</time>
      </trkpt>
      <trkpt lat="36.076151970773935" lon="129.3945229612291">
        <ele>22.0</ele>
        <time>2026-06-05T11:47:01</time>
      </trkpt>
      <trkpt lat="36.07615892775357" lon="129.39457593485713">
        <ele>22.0</ele>
        <time>2026-06-05T11:47:02</time>
      </trkpt>
      <trkpt lat="36.07616596855223" lon="129.3946299981326">
        <ele>22.0</ele>
        <time>2026-06-05T11:47:03</time>
      </trkpt>
      <trkpt lat="36.076172925531864" lon="129.3946879170835">
        <ele>22.2</ele>
        <time>2026-06-05T11:47:04</time>
      </trkpt>
      <trkpt lat="36.07617896050215" lon="129.39474994316697">
        <ele>22.2</ele>
        <time>2026-06-05T11:47:05</time>
      </trkpt>
      <trkpt lat="36.07618398964405" lon="129.39481498673558">
        <ele>22.2</ele>
        <time>2026-06-05T11:47:06</time>
      </trkpt>
      <trkpt lat="36.07618792913854" lon="129.3948829639703">
        <ele>22.2</ele>
        <time>2026-06-05T11:47:07</time>
      </trkpt>
      <trkpt lat="36.0761899407953" lon="129.3949519470334">
        <ele>22.2</ele>
        <time>2026-06-05T11:47:08</time>
      </trkpt>
      <trkpt lat="36.07618893496692" lon="129.3950209300965">
        <ele>22.2</ele>
        <time>2026-06-05T11:47:09</time>
      </trkpt>
      <trkpt lat="36.07618692331016" lon="129.39508999697864">
        <ele>22.2</ele>
        <time>2026-06-05T11:47:10</time>
      </trkpt>
      <trkpt lat="36.07618499547243" lon="129.39515696838498">
        <ele>22.2</ele>
        <time>2026-06-05T11:47:11</time>
      </trkpt>
      <trkpt lat="36.07618298381567" lon="129.39522393979132">
        <ele>22.2</ele>
        <time>2026-06-05T11:47:12</time>
      </trkpt>
      <trkpt lat="36.07618197798729" lon="129.39528797753155">
        <ele>22.2</ele>
        <time>2026-06-05T11:47:13</time>
      </trkpt>
      <trkpt lat="36.07618097215891" lon="129.39535092562437">
        <ele>22.2</ele>
        <time>2026-06-05T11:47:14</time>
      </trkpt>
      <trkpt lat="36.07618097215891" lon="129.39541194587946">
        <ele>22.2</ele>
        <time>2026-06-05T11:47:15</time>
      </trkpt>
      <trkpt lat="36.07618398964405" lon="129.39547196030617">
        <ele>22.2</ele>
        <time>2026-06-05T11:47:16</time>
      </trkpt>
      <trkpt lat="36.07618893496692" lon="129.39552996307611">
        <ele>22.2</ele>
        <time>2026-06-05T11:47:17</time>
      </trkpt>
      <trkpt lat="36.076194969937205" lon="129.39558796584606">
        <ele>22.2</ele>
        <time>2026-06-05T11:47:18</time>
      </trkpt>
      <trkpt lat="36.07620293274522" lon="129.395645968616">
        <ele>22.2</ele>
        <time>2026-06-05T11:47:19</time>
      </trkpt>
      <trkpt lat="36.07620997354388" lon="129.39570397138596">
        <ele>22.2</ele>
        <time>2026-06-05T11:47:20</time>
      </trkpt>
      <trkpt lat="36.076216930523515" lon="129.3957619741559">
        <ele>22.2</ele>
        <time>2026-06-05T11:47:21</time>
      </trkpt>
      <trkpt lat="36.07622195966542" lon="129.3958219885826">
        <ele>22.2</ele>
        <time>2026-06-05T11:47:22</time>
      </trkpt>
      <trkpt lat="36.0762229654938" lon="129.39588493667543">
        <ele>22.2</ele>
        <time>2026-06-05T11:47:23</time>
      </trkpt>
      <trkpt lat="36.07622095383704" lon="129.3959519919008">
        <ele>22.2</ele>
        <time>2026-06-05T11:47:24</time>
      </trkpt>
      <trkpt lat="36.076218942180276" lon="129.39602198079228">
        <ele>22.2</ele>
        <time>2026-06-05T11:47:25</time>
      </trkpt>
      <trkpt lat="36.076216930523515" lon="129.3960949871689">
        <ele>22.2</ele>
        <time>2026-06-05T11:47:26</time>
      </trkpt>
      <trkpt lat="36.076213996857405" lon="129.39616799354553">
        <ele>22.2</ele>
        <time>2026-06-05T11:47:27</time>
      </trkpt>
      <trkpt lat="36.07621097937226" lon="129.39623999409378">
        <ele>22.2</ele>
        <time>2026-06-05T11:47:28</time>
      </trkpt>
      <trkpt lat="36.07620796188712" lon="129.39631098881364">
        <ele>22.2</ele>
        <time>2026-06-05T11:47:29</time>
      </trkpt>
      <trkpt lat="36.07620595023036" lon="129.39637896604836">
        <ele>22.2</ele>
        <time>2026-06-05T11:47:30</time>
      </trkpt>
      <trkpt lat="36.07620494440198" lon="129.39644392579794">
        <ele>22.2</ele>
        <time>2026-06-05T11:47:31</time>
      </trkpt>
      <trkpt lat="36.07620494440198" lon="129.39650796353817">
        <ele>22.2</ele>
        <time>2026-06-05T11:47:32</time>
      </trkpt>
      <trkpt lat="36.07620595023036" lon="129.39657099545002">
        <ele>22.2</ele>
        <time>2026-06-05T11:47:33</time>
      </trkpt>
      <trkpt lat="36.07620695605874" lon="129.39663394354284">
        <ele>22.2</ele>
        <time>2026-06-05T11:47:34</time>
      </trkpt>
      <trkpt lat="36.07620796188712" lon="129.3966959696263">
        <ele>22.2</ele>
        <time>2026-06-05T11:47:35</time>
      </trkpt>
      <trkpt lat="36.07620997354388" lon="129.3967569898814">
        <ele>22.0</ele>
        <time>2026-06-05T11:47:36</time>
      </trkpt>
      <trkpt lat="36.07621198520064" lon="129.39681692048907">
        <ele>22.0</ele>
        <time>2026-06-05T11:47:37</time>
      </trkpt>
      <trkpt lat="36.07621097937226" lon="129.3968729954213">
        <ele>22.0</ele>
        <time>2026-06-05T11:47:38</time>
      </trkpt>
      <trkpt lat="36.0762039385736" lon="129.39692395739257">
        <ele>22.0</ele>
        <time>2026-06-05T11:47:39</time>
      </trkpt>
      <trkpt lat="36.07618692331016" lon="129.39696796238422">
        <ele>22.0</ele>
        <time>2026-06-05T11:47:40</time>
      </trkpt>
      <trkpt lat="36.07616194523871" lon="129.3970059324056">
        <ele>22.0</ele>
        <time>2026-06-05T11:47:41</time>
      </trkpt>
      <trkpt lat="36.076129926368594" lon="129.39703593961895">
        <ele>22.0</ele>
        <time>2026-06-05T11:47:42</time>
      </trkpt>
      <trkpt lat="36.07609195634723" lon="129.3970579840243">
        <ele>22.0</ele>
        <time>2026-06-05T11:47:43</time>
      </trkpt>
      <trkpt lat="36.07604996301234" lon="129.3970709759742">
        <ele>22.2</ele>
        <time>2026-06-05T11:47:44</time>
      </trkpt>
      <trkpt lat="36.07600595802069" lon="129.39707893878222">
        <ele>22.4</ele>
        <time>2026-06-05T11:47:45</time>
      </trkpt>
      <trkpt lat="36.075960947200656" lon="129.39708698540926">
        <ele>22.4</ele>
        <time>2026-06-05T11:47:46</time>
      </trkpt>
      <trkpt lat="36.075915936380625" lon="129.39709695987403">
        <ele>22.4</ele>
        <time>2026-06-05T11:47:47</time>
      </trkpt>
      <trkpt lat="36.075871931388974" lon="129.3971079401672">
        <ele>22.6</ele>
        <time>2026-06-05T11:47:48</time>
      </trkpt>
      <trkpt lat="36.07582692056894" lon="129.397117998451">
        <ele>22.6</ele>
        <time>2026-06-05T11:47:49</time>
      </trkpt>
      <trkpt lat="36.07578392140567" lon="129.39712797291577">
        <ele>22.6</ele>
        <time>2026-06-05T11:47:50</time>
      </trkpt>
      <trkpt lat="36.075741928070784" lon="129.39713895320892">
        <ele>22.6</ele>
        <time>2026-06-05T11:47:51</time>
      </trkpt>
      <trkpt lat="36.075700940564275" lon="129.39715194515884">
        <ele>22.6</ele>
        <time>2026-06-05T11:47:52</time>
      </trkpt>
      <trkpt lat="36.075659953057766" lon="129.39716393128037">
        <ele>22.6</ele>
        <time>2026-06-05T11:47:53</time>
      </trkpt>
      <trkpt lat="36.07562097720802" lon="129.39717197790742">
        <ele>22.4</ele>
        <time>2026-06-05T11:47:54</time>
      </trkpt>
      <trkpt lat="36.07558099552989" lon="129.39718396402895">
        <ele>22.4</ele>
        <time>2026-06-05T11:47:55</time>
      </trkpt>
      <trkpt lat="36.07553992420435" lon="129.397199973464">
        <ele>22.2</ele>
        <time>2026-06-05T11:47:56</time>
      </trkpt>
      <trkpt lat="36.0754959192127" lon="129.39721799455583">
        <ele>22.2</ele>
        <time>2026-06-05T11:47:57</time>
      </trkpt>
      <trkpt lat="36.07544998638332" lon="129.397236937657">
        <ele>22.0</ele>
        <time>2026-06-05T11:47:58</time>
      </trkpt>
      <trkpt lat="36.07540799304843" lon="129.39725294709206">
        <ele>21.8</ele>
        <time>2026-06-05T11:47:59</time>
      </trkpt>
      <trkpt lat="36.07536893337965" lon="129.3972689565271">
        <ele>21.8</ele>
        <time>2026-06-05T11:48:00</time>
      </trkpt>
      <trkpt lat="36.075335992500186" lon="129.39728194847703">
        <ele>21.6</ele>
        <time>2026-06-05T11:48:01</time>
      </trkpt>
      <trkpt lat="36.075311936438084" lon="129.39729292877018">
        <ele>21.4</ele>
        <time>2026-06-05T11:48:02</time>
      </trkpt>
      <trkpt lat="36.07529693283141" lon="129.39729996956885">
        <ele>21.4</ele>
        <time>2026-06-05T11:48:03</time>
      </trkpt>
      <trkpt lat="36.075289975851774" lon="129.39730399288237">
        <ele>21.4</ele>
        <time>2026-06-05T11:48:04</time>
      </trkpt>
      <trkpt lat="36.075288970023394" lon="129.39730499871075">
        <ele>21.4</ele>
        <time>2026-06-05T11:48:05</time>
      </trkpt>
      <trkpt lat="36.07528695836663" lon="129.3973019812256">
        <ele>21.4</ele>
        <time>2026-06-05T11:48:06</time>
      </trkpt>
      <trkpt lat="36.07528394088149" lon="129.39729996956885">
        <ele>21.2</ele>
        <time>2026-06-05T11:48:07</time>
      </trkpt>
      <trkpt lat="36.07528092339635" lon="129.39730097539723">
        <ele>21.2</ele>
        <time>2026-06-05T11:48:08</time>
      </trkpt>
      <trkpt lat="36.07528092339635" lon="129.397302987054">
        <ele>21.2</ele>
        <time>2026-06-05T11:48:09</time>
      </trkpt>
      <trkpt lat="36.07528092339635" lon="129.39730399288237">
        <ele>21.2</ele>
        <time>2026-06-05T11:48:10</time>
      </trkpt>
      <trkpt lat="36.07528293505311" lon="129.39730499871075">
        <ele>21.2</ele>
        <time>2026-06-05T11:48:11</time>
      </trkpt>
      <trkpt lat="36.075268937274814" lon="129.39740692265332">
        <ele>21.8</ele>
        <time>2026-06-05T11:48:42</time>
      </trkpt>
      <trkpt lat="36.075272960588336" lon="129.39744296483696">
        <ele>22.0</ele>
        <time>2026-06-05T11:48:43</time>
      </trkpt>
      <trkpt lat="36.07527798973024" lon="129.39747992902994">
        <ele>22.0</ele>
        <time>2026-06-05T11:48:44</time>
      </trkpt>
      <trkpt lat="36.07527991756797" lon="129.3975149653852">
        <ele>22.0</ele>
        <time>2026-06-05T11:48:45</time>
      </trkpt>
      <trkpt lat="36.07527597807348" lon="129.39754597842693">
        <ele>21.8</ele>
        <time>2026-06-05T11:48:46</time>
      </trkpt>
      <trkpt lat="36.07525996863842" lon="129.39757296815515">
        <ele>21.8</ele>
        <time>2026-06-05T11:48:47</time>
      </trkpt>
      <trkpt lat="36.07523096725345" lon="129.39759392291307">
        <ele>21.6</ele>
        <time>2026-06-05T11:48:48</time>
      </trkpt>
      <trkpt lat="36.07519098557532" lon="129.39760993234813">
        <ele>21.4</ele>
        <time>2026-06-05T11:48:49</time>
      </trkpt>
      <trkpt lat="36.075143963098526" lon="129.39762393012643">
        <ele>21.2</ele>
        <time>2026-06-05T11:48:50</time>
      </trkpt>
      <trkpt lat="36.07509199529886" lon="129.39763591624796">
        <ele>21.0</ele>
        <time>2026-06-05T11:48:51</time>
      </trkpt>
      <trkpt lat="36.075034998357296" lon="129.3976499978453">
        <ele>20.8</ele>
        <time>2026-06-05T11:48:52</time>
      </trkpt>
      <trkpt lat="36.07497598975897" lon="129.39766491763294">
        <ele>20.6</ele>
        <time>2026-06-05T11:48:53</time>
      </trkpt>
      <trkpt lat="36.07491496950388" lon="129.39768193289638">
        <ele>20.4</ele>
        <time>2026-06-05T11:48:54</time>
      </trkpt>
      <trkpt lat="36.07485394924879" lon="129.3976989481598">
        <ele>20.2</ele>
        <time>2026-06-05T11:48:55</time>
      </trkpt>
      <trkpt lat="36.07479091733694" lon="129.3977189809084">
        <ele>20.0</ele>
        <time>2026-06-05T11:48:56</time>
      </trkpt>
      <trkpt lat="36.07472696341574" lon="129.39774194732308">
        <ele>19.8</ele>
        <time>2026-06-05T11:48:57</time>
      </trkpt>
      <trkpt lat="36.0746599920094" lon="129.39776399172843">
        <ele>19.8</ele>
        <time>2026-06-05T11:48:58</time>
      </trkpt>
      <trkpt lat="36.07459494844079" lon="129.39778494648635">
        <ele>19.8</ele>
        <time>2026-06-05T11:48:59</time>
      </trkpt>
      <trkpt lat="36.07452898286283" lon="129.39780497923493">
        <ele>19.8</ele>
        <time>2026-06-05T11:49:00</time>
      </trkpt>
      <trkpt lat="36.0744649451226" lon="129.39782291650772">
        <ele>19.8</ele>
        <time>2026-06-05T11:49:01</time>
      </trkpt>
      <trkpt lat="36.07439998537302" lon="129.39783993177116">
        <ele>19.8</ele>
        <time>2026-06-05T11:49:02</time>
      </trkpt>
      <trkpt lat="36.07433494180441" lon="129.3978569470346">
        <ele>19.6</ele>
        <time>2026-06-05T11:49:03</time>
      </trkpt>
      <trkpt lat="36.07426897622645" lon="129.39787396229804">
        <ele>19.4</ele>
        <time>2026-06-05T11:49:04</time>
      </trkpt>
      <trkpt lat="36.07420192100108" lon="129.39789198338985">
        <ele>19.2</ele>
        <time>2026-06-05T11:49:05</time>
      </trkpt>
      <trkpt lat="36.07413595542312" lon="129.39791092649102">
        <ele>19.0</ele>
        <time>2026-06-05T11:49:06</time>
      </trkpt>
      <trkpt lat="36.074068984016776" lon="129.3979309592396">
        <ele>18.8</ele>
        <time>2026-06-05T11:49:07</time>
      </trkpt>
      <trkpt lat="36.074001928791404" lon="129.39795199781656">
        <ele>18.6</ele>
        <time>2026-06-05T11:49:08</time>
      </trkpt>
      <trkpt lat="36.073935963213444" lon="129.39797496423125">
        <ele>18.4</ele>
        <time>2026-06-05T11:49:09</time>
      </trkpt>
      <trkpt lat="36.07387192547321" lon="129.39799692481756">
        <ele>18.2</ele>
        <time>2026-06-05T11:49:10</time>
      </trkpt>
      <trkpt lat="36.073809983208776" lon="129.39801695756614">
        <ele>18.0</ele>
        <time>2026-06-05T11:49:11</time>
      </trkpt>
      <trkpt lat="36.07375591993332" lon="129.39803397282958">
        <ele>17.8</ele>
        <time>2026-06-05T11:49:12</time>
      </trkpt>
      <trkpt lat="36.07370797544718" lon="129.39804998226464">
        <ele>17.6</ele>
        <time>2026-06-05T11:49:13</time>
      </trkpt>
      <trkpt lat="36.07366698794067" lon="129.39806196838617">
        <ele>17.6</ele>
        <time>2026-06-05T11:49:14</time>
      </trkpt>
      <trkpt lat="36.07363094575703" lon="129.39807194285095">
        <ele>17.4</ele>
        <time>2026-06-05T11:49:15</time>
      </trkpt>
      <trkpt lat="36.073598926886916" lon="129.398079989478">
        <ele>17.4</ele>
        <time>2026-06-05T11:49:16</time>
      </trkpt>
      <trkpt lat="36.07356699183583" lon="129.39808895811439">
        <ele>17.2</ele>
        <time>2026-06-05T11:49:17</time>
      </trkpt>
      <trkpt lat="36.073530949652195" lon="129.39810295589268">
        <ele>17.2</ele>
        <time>2026-06-05T11:49:18</time>
      </trkpt>
      <trkpt lat="36.073489962145686" lon="129.3981209769845">
        <ele>17.2</ele>
        <time>2026-06-05T11:49:19</time>
      </trkpt>
      <trkpt lat="36.073442939668894" lon="129.39813799224794">
        <ele>17.2</ele>
        <time>2026-06-05T11:49:20</time>
      </trkpt>
      <trkpt lat="36.07338996604085" lon="129.39815492369235">
        <ele>17.2</ele>
        <time>2026-06-05T11:49:21</time>
      </trkpt>
      <trkpt lat="36.0733319632709" lon="129.39817193895578">
        <ele>17.4</ele>
        <time>2026-06-05T11:49:22</time>
      </trkpt>
      <trkpt lat="36.07326993718743" lon="129.39819096587598">
        <ele>17.4</ele>
        <time>2026-06-05T11:49:23</time>
      </trkpt>
      <trkpt lat="36.073207994922996" lon="129.3982119206339">
        <ele>17.6</ele>
        <time>2026-06-05T11:49:24</time>
      </trkpt>
      <trkpt lat="36.073145968839526" lon="129.39823295921087">
        <ele>17.6</ele>
        <time>2026-06-05T11:49:25</time>
      </trkpt>
      <trkpt lat="36.07308595441282" lon="129.39825299195945">
        <ele>17.6</ele>
        <time>2026-06-05T11:49:26</time>
      </trkpt>
      <trkpt lat="36.07302795164287" lon="129.39827193506062">
        <ele>17.6</ele>
        <time>2026-06-05T11:49:27</time>
      </trkpt>
      <trkpt lat="36.072971960529685" lon="129.39828995615244">
        <ele>17.6</ele>
        <time>2026-06-05T11:49:28</time>
      </trkpt>
      <trkpt lat="36.07291898690164" lon="129.39830697141588">
        <ele>17.6</ele>
        <time>2026-06-05T11:49:29</time>
      </trkpt>
      <trkpt lat="36.072867941111326" lon="129.39832096919417">
        <ele>17.6</ele>
        <time>2026-06-05T11:49:30</time>
      </trkpt>
      <trkpt lat="36.072819996625185" lon="129.39833194948733">
        <ele>17.6</ele>
        <time>2026-06-05T11:49:31</time>
      </trkpt>
      <trkpt lat="36.07277297414839" lon="129.39834393560886">
        <ele>17.6</ele>
        <time>2026-06-05T11:49:32</time>
      </trkpt>
      <trkpt lat="36.07272695749998" lon="129.39835793338716">
        <ele>17.4</ele>
        <time>2026-06-05T11:49:33</time>
      </trkpt>
      <trkpt lat="36.07268094085157" lon="129.39837696030736">
        <ele>17.4</ele>
        <time>2026-06-05T11:49:34</time>
      </trkpt>
      <trkpt lat="36.07263299636543" lon="129.39839992672205">
        <ele>17.4</ele>
        <time>2026-06-05T11:49:35</time>
      </trkpt>
      <trkpt lat="36.072585973888636" lon="129.39842691645026">
        <ele>17.2</ele>
        <time>2026-06-05T11:49:36</time>
      </trkpt>
      <trkpt lat="36.07253895141184" lon="129.39845591783524">
        <ele>17.2</ele>
        <time>2026-06-05T11:49:37</time>
      </trkpt>
      <trkpt lat="36.07249394059181" lon="129.39848693087697">
        <ele>17.2</ele>
        <time>2026-06-05T11:49:38</time>
      </trkpt>
      <trkpt lat="36.07244892977178" lon="129.3985179439187">
        <ele>17.0</ele>
        <time>2026-06-05T11:49:39</time>
      </trkpt>
      <trkpt lat="36.07240098528564" lon="129.39854996278882">
        <ele>16.8</ele>
        <time>2026-06-05T11:49:40</time>
      </trkpt>
      <trkpt lat="36.072351951152086" lon="129.39858298748732">
        <ele>16.8</ele>
        <time>2026-06-05T11:49:41</time>
      </trkpt>
      <trkpt lat="36.0723009891808" lon="129.39861693419516">
        <ele>16.6</ele>
        <time>2026-06-05T11:49:42</time>
      </trkpt>
      <trkpt lat="36.07224793173373" lon="129.39865096472204">
        <ele>16.6</ele>
        <time>2026-06-05T11:49:43</time>
      </trkpt>
      <trkpt lat="36.0721939522773" lon="129.39868591725826">
        <ele>16.4</ele>
        <time>2026-06-05T11:49:44</time>
      </trkpt>
      <trkpt lat="36.072134943678975" lon="129.39872497692704">
        <ele>16.2</ele>
        <time>2026-06-05T11:49:45</time>
      </trkpt>
      <trkpt lat="36.072073923423886" lon="129.39876596443355">
        <ele>16.2</ele>
        <time>2026-06-05T11:49:46</time>
      </trkpt>
      <trkpt lat="36.07200896367431" lon="129.39880896359682">
        <ele>16.0</ele>
        <time>2026-06-05T11:49:47</time>
      </trkpt>
      <trkpt lat="36.07194299809635" lon="129.3988519627601">
        <ele>16.0</ele>
        <time>2026-06-05T11:49:48</time>
      </trkpt>
      <trkpt lat="36.071877954527736" lon="129.3988929502666">
        <ele>15.8</ele>
        <time>2026-06-05T11:49:49</time>
      </trkpt>
      <trkpt lat="36.071812994778156" lon="129.3989339377731">
        <ele>15.6</ele>
        <time>2026-06-05T11:49:50</time>
      </trkpt>
      <trkpt lat="36.071748957037926" lon="129.39897391945124">
        <ele>15.6</ele>
        <time>2026-06-05T11:49:51</time>
      </trkpt>
      <trkpt lat="36.071684919297695" lon="129.39901499077678">
        <ele>15.6</ele>
        <time>2026-06-05T11:49:52</time>
      </trkpt>
      <trkpt lat="36.07162197120488" lon="129.3990559782833">
        <ele>15.4</ele>
        <time>2026-06-05T11:49:53</time>
      </trkpt>
      <trkpt lat="36.07155994512141" lon="129.39909495413303">
        <ele>15.4</ele>
        <time>2026-06-05T11:49:54</time>
      </trkpt>
      <trkpt lat="36.07149892486632" lon="129.39913191832602">
        <ele>15.4</ele>
        <time>2026-06-05T11:49:55</time>
      </trkpt>
      <trkpt lat="36.07143991626799" lon="129.3991659488529">
        <ele>15.4</ele>
        <time>2026-06-05T11:49:56</time>
      </trkpt>
      <trkpt lat="36.071381997317076" lon="129.39920098520815">
        <ele>15.4</ele>
        <time>2026-06-05T11:49:57</time>
      </trkpt>
      <trkpt lat="36.07132592238486" lon="129.39923794940114">
        <ele>15.4</ele>
        <time>2026-06-05T11:49:58</time>
      </trkpt>
      <trkpt lat="36.071272948756814" lon="129.3992759194225">
        <ele>15.4</ele>
        <time>2026-06-05T11:49:59</time>
      </trkpt>
      <trkpt lat="36.07122098095715" lon="129.39931296743453">
        <ele>15.4</ele>
        <time>2026-06-05T11:50:00</time>
      </trkpt>
      <trkpt lat="36.071168929338455" lon="129.39934791997075">
        <ele>15.4</ele>
        <time>2026-06-05T11:50:01</time>
      </trkpt>
      <trkpt lat="36.07111796736717" lon="129.39938195049763">
        <ele>15.4</ele>
        <time>2026-06-05T11:50:02</time>
      </trkpt>
      <trkpt lat="36.07106792740524" lon="129.39941195771098">
        <ele>15.4</ele>
        <time>2026-06-05T11:50:03</time>
      </trkpt>
      <trkpt lat="36.071016965433955" lon="129.39944095909595">
        <ele>15.4</ele>
        <time>2026-06-05T11:50:04</time>
      </trkpt>
      <trkpt lat="36.0709679313004" lon="129.39946794882417">
        <ele>15.4</ele>
        <time>2026-06-05T11:50:05</time>
      </trkpt>
      <trkpt lat="36.07092099264264" lon="129.399493932724">
        <ele>15.2</ele>
        <time>2026-06-05T11:50:06</time>
      </trkpt>
      <trkpt lat="36.07087397016585" lon="129.3995179887861">
        <ele>15.2</ele>
        <time>2026-06-05T11:50:07</time>
      </trkpt>
      <trkpt lat="36.070826947689056" lon="129.39953793771565">
        <ele>15.2</ele>
        <time>2026-06-05T11:50:08</time>
      </trkpt>
      <trkpt lat="36.070780931040645" lon="129.3995549529791">
        <ele>15.2</ele>
        <time>2026-06-05T11:50:09</time>
      </trkpt>
      <trkpt lat="36.070733992382884" lon="129.399567944929">
        <ele>15.0</ele>
        <time>2026-06-05T11:50:10</time>
      </trkpt>
      <trkpt lat="36.07068596407771" lon="129.39957599155605">
        <ele>15.0</ele>
        <time>2026-06-05T11:50:11</time>
      </trkpt>
      <trkpt lat="36.07063894160092" lon="129.39957993105054">
        <ele>15.0</ele>
        <time>2026-06-05T11:50:12</time>
      </trkpt>
      <trkpt lat="36.07059099711478" lon="129.39957993105054">
        <ele>15.0</ele>
        <time>2026-06-05T11:50:13</time>
      </trkpt>
      <trkpt lat="36.070543974637985" lon="129.39957791939378">
        <ele>15.0</ele>
        <time>2026-06-05T11:50:14</time>
      </trkpt>
      <trkpt lat="36.070500975474715" lon="129.3995729740709">
        <ele>15.0</ele>
        <time>2026-06-05T11:50:15</time>
      </trkpt>
      <trkpt lat="36.070462921634316" lon="129.39956995658576">
        <ele>15.0</ele>
        <time>2026-06-05T11:50:16</time>
      </trkpt>
      <trkpt lat="36.07043098658323" lon="129.399567944929">
        <ele>15.0</ele>
        <time>2026-06-05T11:50:17</time>
      </trkpt>
      <trkpt lat="36.07040299102664" lon="129.39956693910062">
        <ele>15.0</ele>
        <time>2026-06-05T11:50:18</time>
      </trkpt>
      <trkpt lat="36.070375917479396" lon="129.39956593327224">
        <ele>15.0</ele>
        <time>2026-06-05T11:50:19</time>
      </trkpt>
      <trkpt lat="36.0703479219228" lon="129.39956098794937">
        <ele>15.0</ele>
        <time>2026-06-05T11:50:20</time>
      </trkpt>
      <trkpt lat="36.0703169927001" lon="129.39954992383718">
        <ele>14.8</ele>
        <time>2026-06-05T11:50:21</time>
      </trkpt>
      <trkpt lat="36.07028296217322" lon="129.39953693188727">
        <ele>14.8</ele>
        <time>2026-06-05T11:50:22</time>
      </trkpt>
      <trkpt lat="36.070243986323476" lon="129.39952595159411">
        <ele>14.8</ele>
        <time>2026-06-05T11:50:23</time>
      </trkpt>
      <trkpt lat="36.0702049266547" lon="129.39951396547258">
        <ele>14.8</ele>
        <time>2026-06-05T11:50:24</time>
      </trkpt>
      <trkpt lat="36.07016796246171" lon="129.39949493855238">
        <ele>14.8</ele>
        <time>2026-06-05T11:50:25</time>
      </trkpt>
      <trkpt lat="36.070135943591595" lon="129.39947398379445">
        <ele>14.8</ele>
        <time>2026-06-05T11:50:26</time>
      </trkpt>
      <trkpt lat="36.07010392472148" lon="129.3994519393891">
        <ele>14.8</ele>
        <time>2026-06-05T11:50:27</time>
      </trkpt>
      <trkpt lat="36.070070983842015" lon="129.39942897297442">
        <ele>14.8</ele>
        <time>2026-06-05T11:50:28</time>
      </trkpt>
      <trkpt lat="36.07003695331514" lon="129.39940894022584">
        <ele>14.8</ele>
        <time>2026-06-05T11:50:29</time>
      </trkpt>
      <trkpt lat="36.07000191695988" lon="129.39939293079078">
        <ele>14.6</ele>
        <time>2026-06-05T11:50:30</time>
      </trkpt>
      <trkpt lat="36.069965958595276" lon="129.39938195049763">
        <ele>14.6</ele>
        <time>2026-06-05T11:50:31</time>
      </trkpt>
      <trkpt lat="36.06993092224002" lon="129.39938195049763">
        <ele>14.6</ele>
        <time>2026-06-05T11:50:32</time>
      </trkpt>
      <trkpt lat="36.069897981360555" lon="129.3993889912963">
        <ele>14.6</ele>
        <time>2026-06-05T11:50:33</time>
      </trkpt>
      <trkpt lat="36.06986897997558" lon="129.3994059227407">
        <ele>14.6</ele>
        <time>2026-06-05T11:50:34</time>
      </trkpt>
      <trkpt lat="36.06984592974186" lon="129.39942796714604">
        <ele>14.6</ele>
        <time>2026-06-05T11:50:35</time>
      </trkpt>
      <trkpt lat="36.06983092613518" lon="129.39946099184453">
        <ele>14.6</ele>
        <time>2026-06-05T11:50:36</time>
      </trkpt>
      <trkpt lat="36.06982195749879" lon="129.39950097352266">
        <ele>14.6</ele>
        <time>2026-06-05T11:50:37</time>
      </trkpt>
      <trkpt lat="36.06982095167041" lon="129.39954699017107">
        <ele>14.6</ele>
        <time>2026-06-05T11:50:38</time>
      </trkpt>
      <trkpt lat="36.06982296332717" lon="129.39959694631398">
        <ele>14.6</ele>
        <time>2026-06-05T11:50:39</time>
      </trkpt>
      <trkpt lat="36.06982698664069" lon="129.3996479921043">
        <ele>14.6</ele>
        <time>2026-06-05T11:50:40</time>
      </trkpt>
      <trkpt lat="36.06983193196356" lon="129.39970197156072">
        <ele>14.6</ele>
        <time>2026-06-05T11:50:41</time>
      </trkpt>
      <trkpt lat="36.069836961105466" lon="129.39975695684552">
        <ele>14.6</ele>
        <time>2026-06-05T11:50:42</time>
      </trkpt>
      <trkpt lat="36.0698439180851" lon="129.39981093630195">
        <ele>14.6</ele>
        <time>2026-06-05T11:50:43</time>
      </trkpt>
      <trkpt lat="36.06985095888376" lon="129.39986198209226">
        <ele>14.6</ele>
        <time>2026-06-05T11:50:44</time>
      </trkpt>
      <trkpt lat="36.069855988025665" lon="129.3999099265784">
        <ele>14.6</ele>
        <time>2026-06-05T11:50:45</time>
      </trkpt>
      <trkpt lat="36.06986193917692" lon="129.3999569490552">
        <ele>14.6</ele>
        <time>2026-06-05T11:50:46</time>
      </trkpt>
      <trkpt lat="36.0698679741472" lon="129.40000497736037">
        <ele>14.6</ele>
        <time>2026-06-05T11:50:47</time>
      </trkpt>
      <trkpt lat="36.06987392529845" lon="129.40004898235202">
        <ele>14.6</ele>
        <time>2026-06-05T11:50:48</time>
      </trkpt>
      <trkpt lat="36.0698819719255" lon="129.40008795820177">
        <ele>14.8</ele>
        <time>2026-06-05T11:50:49</time>
      </trkpt>
      <trkpt lat="36.06989094056189" lon="129.4001269340515">
        <ele>14.8</ele>
        <time>2026-06-05T11:50:50</time>
      </trkpt>
      <trkpt lat="36.069897981360555" lon="129.40016792155802">
        <ele>14.8</ele>
        <time>2026-06-05T11:50:51</time>
      </trkpt>
      <trkpt lat="36.06990393251181" lon="129.40021293237805">
        <ele>15.0</ele>
        <time>2026-06-05T11:50:52</time>
      </trkpt>
      <trkpt lat="36.06990996748209" lon="129.4002619665116">
        <ele>15.0</ele>
        <time>2026-06-05T11:50:53</time>
      </trkpt>
      <trkpt lat="36.06991499662399" lon="129.40031594596803">
        <ele>15.2</ele>
        <time>2026-06-05T11:50:54</time>
      </trkpt>
      <trkpt lat="36.06991893611848" lon="129.40037093125284">
        <ele>15.2</ele>
        <time>2026-06-05T11:50:55</time>
      </trkpt>
      <trkpt lat="36.069921953603625" lon="129.4004279281944">
        <ele>15.2</ele>
        <time>2026-06-05T11:50:56</time>
      </trkpt>
      <trkpt lat="36.06992597691715" lon="129.4004839193076">
        <ele>15.4</ele>
        <time>2026-06-05T11:50:57</time>
      </trkpt>
      <trkpt lat="36.06992991641164" lon="129.40053898841143">
        <ele>15.4</ele>
        <time>2026-06-05T11:50:58</time>
      </trkpt>
      <trkpt lat="36.06993595138192" lon="129.40059196203947">
        <ele>15.4</ele>
        <time>2026-06-05T11:50:59</time>
      </trkpt>
      <trkpt lat="36.069940980523825" lon="129.40064795315266">
        <ele>15.4</ele>
        <time>2026-06-05T11:51:00</time>
      </trkpt>
      <trkpt lat="36.069944920018315" lon="129.40070394426584">
        <ele>15.4</ele>
        <time>2026-06-05T11:51:01</time>
      </trkpt>
      <trkpt lat="36.06994894333184" lon="129.40075993537903">
        <ele>15.4</ele>
        <time>2026-06-05T11:51:02</time>
      </trkpt>
      <trkpt lat="36.06995296664536" lon="129.4008159264922">
        <ele>15.4</ele>
        <time>2026-06-05T11:51:03</time>
      </trkpt>
      <trkpt lat="36.06995799578726" lon="129.4008689839393">
        <ele>15.4</ele>
        <time>2026-06-05T11:51:04</time>
      </trkpt>
      <trkpt lat="36.069962941110134" lon="129.40092095173895">
        <ele>15.2</ele>
        <time>2026-06-05T11:51:05</time>
      </trkpt>
      <trkpt lat="36.06996696442366" lon="129.4009699858725">
        <ele>15.2</ele>
        <time>2026-06-05T11:51:06</time>
      </trkpt>
      <trkpt lat="36.06996897608042" lon="129.40101298503578">
        <ele>15.2</ele>
        <time>2026-06-05T11:51:07</time>
      </trkpt>
      <trkpt lat="36.06997098773718" lon="129.40104994922876">
        <ele>15.2</ele>
        <time>2026-06-05T11:51:08</time>
      </trkpt>
      <trkpt lat="36.06997199356556" lon="129.4010859914124">
        <ele>15.0</ele>
        <time>2026-06-05T11:51:09</time>
      </trkpt>
      <trkpt lat="36.06997392140329" lon="129.40111993812025">
        <ele>14.8</ele>
        <time>2026-06-05T11:51:10</time>
      </trkpt>
      <trkpt lat="36.06997693888843" lon="129.40115195699036">
        <ele>14.8</ele>
        <time>2026-06-05T11:51:11</time>
      </trkpt>
      <trkpt lat="36.06997794471681" lon="129.40118196420372">
        <ele>14.6</ele>
        <time>2026-06-05T11:51:12</time>
      </trkpt>
      <trkpt lat="36.06997895054519" lon="129.4012099597603">
        <ele>14.6</ele>
        <time>2026-06-05T11:51:13</time>
      </trkpt>
      <trkpt lat="36.06997794471681" lon="129.40123694948852">
        <ele>14.4</ele>
        <time>2026-06-05T11:51:14</time>
      </trkpt>
      <trkpt lat="36.06997693888843" lon="129.4012609217316">
        <ele>14.4</ele>
        <time>2026-06-05T11:51:15</time>
      </trkpt>
      <trkpt lat="36.06997299939394" lon="129.40128196030855">
        <ele>14.4</ele>
        <time>2026-06-05T11:51:16</time>
      </trkpt>
      <trkpt lat="36.069965958595276" lon="129.40129595808685">
        <ele>14.2</ele>
        <time>2026-06-05T11:51:17</time>
      </trkpt>
      <trkpt lat="36.06995497830212" lon="129.40130794420838">
        <ele>14.2</ele>
        <time>2026-06-05T11:51:18</time>
      </trkpt>
      <trkpt lat="36.069939974695444" lon="129.40131892450154">
        <ele>14.0</ele>
        <time>2026-06-05T11:51:19</time>
      </trkpt>
      <trkpt lat="36.06992396526039" lon="129.40132998861372">
        <ele>14.0</ele>
        <time>2026-06-05T11:51:20</time>
      </trkpt>
      <trkpt lat="36.06990896165371" lon="129.40133795142174">
        <ele>14.0</ele>
        <time>2026-06-05T11:51:21</time>
      </trkpt>
      <trkpt lat="36.06989395804703" lon="129.40134197473526">
        <ele>14.0</ele>
        <time>2026-06-05T11:51:22</time>
      </trkpt>
      <trkpt lat="36.069878954440355" lon="129.40134197473526">
        <ele>13.8</ele>
        <time>2026-06-05T11:51:23</time>
      </trkpt>
      <trkpt lat="36.06986193917692" lon="129.40134298056364">
        <ele>13.8</ele>
        <time>2026-06-05T11:51:24</time>
      </trkpt>
      <trkpt lat="36.06984299607575" lon="129.4013449922204">
        <ele>13.8</ele>
        <time>2026-06-05T11:51:25</time>
      </trkpt>
      <trkpt lat="36.06982095167041" lon="129.40135194920003">
        <ele>13.8</ele>
        <time>2026-06-05T11:51:26</time>
      </trkpt>
      <trkpt lat="36.06980192475021" lon="129.40136896446347">
        <ele>13.8</ele>
        <time>2026-06-05T11:51:27</time>
      </trkpt>
      <trkpt lat="36.069793961942196" lon="129.4013949483633">
        <ele>13.8</ele>
        <time>2026-06-05T11:51:28</time>
      </trkpt>
      <trkpt lat="36.06980091892183" lon="129.40142193809152">
        <ele>13.8</ele>
        <time>2026-06-05T11:51:29</time>
      </trkpt>
      <trkpt lat="36.06982095167041" lon="129.40145295113325">
        <ele>13.8</ele>
        <time>2026-06-05T11:51:30</time>
      </trkpt>
      <trkpt lat="36.06984794139862" lon="129.4014889933169">
        <ele>13.8</ele>
        <time>2026-06-05T11:51:31</time>
      </trkpt>
      <trkpt lat="36.069878954440355" lon="129.40153098665178">
        <ele>13.8</ele>
        <time>2026-06-05T11:51:32</time>
      </trkpt>
      <trkpt lat="36.06990896165371" lon="129.40157398581505">
        <ele>13.8</ele>
        <time>2026-06-05T11:51:33</time>
      </trkpt>
      <trkpt lat="36.0699369572103" lon="129.40161899663508">
        <ele>13.8</ele>
        <time>2026-06-05T11:51:34</time>
      </trkpt>
      <trkpt lat="36.06996092945337" lon="129.40166593529284">
        <ele>13.8</ele>
        <time>2026-06-05T11:51:35</time>
      </trkpt>
      <trkpt lat="36.069984985515475" lon="129.40171295776963">
        <ele>13.8</ele>
        <time>2026-06-05T11:51:36</time>
      </trkpt>
      <trkpt lat="36.070008957758546" lon="129.40176299773157">
        <ele>13.6</ele>
        <time>2026-06-05T11:51:37</time>
      </trkpt>
      <trkpt lat="36.07003293000162" lon="129.40181395970285">
        <ele>13.6</ele>
        <time>2026-06-05T11:51:38</time>
      </trkpt>
      <trkpt lat="36.07005598023534" lon="129.4018669333309">
        <ele>13.6</ele>
        <time>2026-06-05T11:51:39</time>
      </trkpt>
      <trkpt lat="36.07007794082165" lon="129.40192292444408">
        <ele>13.6</ele>
        <time>2026-06-05T11:51:40</time>
      </trkpt>
      <trkpt lat="36.07009797357023" lon="129.4019819330424">
        <ele>13.6</ele>
        <time>2026-06-05T11:51:41</time>
      </trkpt>
      <trkpt lat="36.070117922499776" lon="129.4020429532975">
        <ele>13.6</ele>
        <time>2026-06-05T11:51:42</time>
      </trkpt>
      <trkpt lat="36.07013896107674" lon="129.40210598520935">
        <ele>13.6</ele>
        <time>2026-06-05T11:51:43</time>
      </trkpt>
      <trkpt lat="36.070160921663046" lon="129.40216993913054">
        <ele>13.6</ele>
        <time>2026-06-05T11:51:44</time>
      </trkpt>
      <trkpt lat="36.07018598355353" lon="129.40223397687078">
        <ele>13.6</ele>
        <time>2026-06-05T11:51:45</time>
      </trkpt>
      <trkpt lat="36.07021397911012" lon="129.40229994244874">
        <ele>13.8</ele>
        <time>2026-06-05T11:51:46</time>
      </trkpt>
      <trkpt lat="36.070242980495095" lon="129.40236599184573">
        <ele>13.8</ele>
        <time>2026-06-05T11:51:47</time>
      </trkpt>
      <trkpt lat="36.07027399353683" lon="129.40243396908045">
        <ele>13.8</ele>
        <time>2026-06-05T11:51:48</time>
      </trkpt>
      <trkpt lat="36.07030492275953" lon="129.40250295214355">
        <ele>13.8</ele>
        <time>2026-06-05T11:51:49</time>
      </trkpt>
      <trkpt lat="36.07033794745803" lon="129.4025739468634">
        <ele>13.8</ele>
        <time>2026-06-05T11:51:50</time>
      </trkpt>
      <trkpt lat="36.070370972156525" lon="129.40264494158328">
        <ele>13.8</ele>
        <time>2026-06-05T11:51:51</time>
      </trkpt>
      <trkpt lat="36.07040491886437" lon="129.4027179479599">
        <ele>13.8</ele>
        <time>2026-06-05T11:51:52</time>
      </trkpt>
      <trkpt lat="36.070438949391246" lon="129.4027919601649">
        <ele>13.8</ele>
        <time>2026-06-05T11:51:53</time>
      </trkpt>
      <trkpt lat="36.07047096826136" lon="129.4028659723699">
        <ele>13.8</ele>
        <time>2026-06-05T11:51:54</time>
      </trkpt>
      <trkpt lat="36.07050399295986" lon="129.4029409904033">
        <ele>13.8</ele>
        <time>2026-06-05T11:51:55</time>
      </trkpt>
      <trkpt lat="36.07053592801094" lon="129.40301299095154">
        <ele>13.8</ele>
        <time>2026-06-05T11:51:56</time>
      </trkpt>
      <trkpt lat="36.070568952709436" lon="129.4030839856714">
        <ele>14.0</ele>
        <time>2026-06-05T11:51:57</time>
      </trkpt>
      <trkpt lat="36.07060097157955" lon="129.40315498039126">
        <ele>14.0</ele>
        <time>2026-06-05T11:51:58</time>
      </trkpt>
      <trkpt lat="36.07063399627805" lon="129.4032269809395">
        <ele>14.0</ele>
        <time>2026-06-05T11:51:59</time>
      </trkpt>
      <trkpt lat="36.07066693715751" lon="129.40329898148775">
        <ele>14.0</ele>
        <time>2026-06-05T11:52:00</time>
      </trkpt>
      <trkpt lat="36.07069996185601" lon="129.40337299369276">
        <ele>14.0</ele>
        <time>2026-06-05T11:52:01</time>
      </trkpt>
      <trkpt lat="36.07073198072612" lon="129.4034479279071">
        <ele>14.0</ele>
        <time>2026-06-05T11:52:02</time>
      </trkpt>
      <trkpt lat="36.07076399959624" lon="129.4035229459405">
        <ele>14.0</ele>
        <time>2026-06-05T11:52:03</time>
      </trkpt>
      <trkpt lat="36.07079593464732" lon="129.40359796397388">
        <ele>14.0</ele>
        <time>2026-06-05T11:52:04</time>
      </trkpt>
      <trkpt lat="36.07082795351744" lon="129.40367298200727">
        <ele>14.0</ele>
        <time>2026-06-05T11:52:05</time>
      </trkpt>
      <trkpt lat="36.07085997238755" lon="129.40374699421227">
        <ele>14.0</ele>
        <time>2026-06-05T11:52:06</time>
      </trkpt>
      <trkpt lat="36.07089199125767" lon="129.4038189947605">
        <ele>14.0</ele>
        <time>2026-06-05T11:52:07</time>
      </trkpt>
      <trkpt lat="36.07092292048037" lon="129.403888983652">
        <ele>14.0</ele>
        <time>2026-06-05T11:52:08</time>
      </trkpt>
      <trkpt lat="36.070955945178866" lon="129.40395696088672">
        <ele>14.0</ele>
        <time>2026-06-05T11:52:09</time>
      </trkpt>
      <trkpt lat="36.07099098153412" lon="129.40401999279857">
        <ele>14.0</ele>
        <time>2026-06-05T11:52:10</time>
      </trkpt>
      <trkpt lat="36.07102794572711" lon="129.404081935063">
        <ele>14.0</ele>
        <time>2026-06-05T11:52:11</time>
      </trkpt>
      <trkpt lat="36.07106692157686" lon="129.4041419494897">
        <ele>14.0</ele>
        <time>2026-06-05T11:52:12</time>
      </trkpt>
      <trkpt lat="36.07110899873078" lon="129.40419995225966">
        <ele>14.0</ele>
        <time>2026-06-05T11:52:13</time>
      </trkpt>
      <trkpt lat="36.0711529199034" lon="129.4042579550296">
        <ele>14.0</ele>
        <time>2026-06-05T11:52:14</time>
      </trkpt>
      <trkpt lat="36.07119893655181" lon="129.4043139461428">
        <ele>14.0</ele>
        <time>2026-06-05T11:52:15</time>
      </trkpt>
      <trkpt lat="36.0712459590286" lon="129.4043689314276">
        <ele>14.0</ele>
        <time>2026-06-05T11:52:16</time>
      </trkpt>
      <trkpt lat="36.07129197567701" lon="129.40442299470305">
        <ele>14.0</ele>
        <time>2026-06-05T11:52:17</time>
      </trkpt>
      <trkpt lat="36.071339920163155" lon="129.40447496250272">
        <ele>14.0</ele>
        <time>2026-06-05T11:52:18</time>
      </trkpt>
      <trkpt lat="36.07138694263995" lon="129.40452399663627">
        <ele>14.0</ele>
        <time>2026-06-05T11:52:19</time>
      </trkpt>
      <trkpt lat="36.07143195345998" lon="129.40457395277917">
        <ele>14.0</ele>
        <time>2026-06-05T11:52:20</time>
      </trkpt>
      <trkpt lat="36.07147595845163" lon="129.4046239927411">
        <ele>14.0</ele>
        <time>2026-06-05T11:52:21</time>
      </trkpt>
      <trkpt lat="36.0715189576149" lon="129.40467696636915">
        <ele>14.0</ele>
        <time>2026-06-05T11:52:22</time>
      </trkpt>
      <trkpt lat="36.07156195677817" lon="129.40473195165396">
        <ele>13.8</ele>
        <time>2026-06-05T11:52:23</time>
      </trkpt>
      <trkpt lat="36.07160495594144" lon="129.4047899544239">
        <ele>13.8</ele>
        <time>2026-06-05T11:52:24</time>
      </trkpt>
      <trkpt lat="36.07164996676147" lon="129.40484795719385">
        <ele>13.8</ele>
        <time>2026-06-05T11:52:25</time>
      </trkpt>
      <trkpt lat="36.07169598340988" lon="129.40490797162056">
        <ele>13.8</ele>
        <time>2026-06-05T11:52:26</time>
      </trkpt>
      <trkpt lat="36.07174392789602" lon="129.40496999770403">
        <ele>13.8</ele>
        <time>2026-06-05T11:52:27</time>
      </trkpt>
      <trkpt lat="36.071789944544435" lon="129.405035963282">
        <ele>13.8</ele>
        <time>2026-06-05T11:52:28</time>
      </trkpt>
      <trkpt lat="36.07183093205094" lon="129.4051049463451">
        <ele>14.0</ele>
        <time>2026-06-05T11:52:29</time>
      </trkpt>
      <trkpt lat="36.07186697423458" lon="129.40517795272171">
        <ele>14.0</ele>
        <time>2026-06-05T11:52:30</time>
      </trkpt>
      <trkpt lat="36.071897987276316" lon="129.40524995326996">
        <ele>13.8</ele>
        <time>2026-06-05T11:52:31</time>
      </trkpt>
      <trkpt lat="36.07192598283291" lon="129.40532094798982">
        <ele>13.8</ele>
        <time>2026-06-05T11:52:32</time>
      </trkpt>
      <trkpt lat="36.07195297256112" lon="129.40538993105292">
        <ele>13.8</ele>
        <time>2026-06-05T11:52:33</time>
      </trkpt>
      <trkpt lat="36.07197895646095" lon="129.40545598044991">
        <ele>13.8</ele>
        <time>2026-06-05T11:52:34</time>
      </trkpt>
      <trkpt lat="36.07200091704726" lon="129.40552295185626">
        <ele>13.8</ele>
        <time>2026-06-05T11:52:35</time>
      </trkpt>
      <trkpt lat="36.07201893813908" lon="129.40559193491936">
        <ele>13.8</ele>
        <time>2026-06-05T11:52:36</time>
      </trkpt>
      <trkpt lat="36.07203394174576" lon="129.40566494129598">
        <ele>13.8</ele>
        <time>2026-06-05T11:52:37</time>
      </trkpt>
      <trkpt lat="36.07204492203891" lon="129.4057439826429">
        <ele>13.8</ele>
        <time>2026-06-05T11:52:38</time>
      </trkpt>
      <trkpt lat="36.07205498032272" lon="129.4058259576559">
        <ele>13.8</ele>
        <time>2026-06-05T11:52:39</time>
      </trkpt>
      <trkpt lat="36.07206495478749" lon="129.40591296181083">
        <ele>13.8</ele>
        <time>2026-06-05T11:52:40</time>
      </trkpt>
      <trkpt lat="36.07207694090903" lon="129.4060019776225">
        <ele>13.8</ele>
        <time>2026-06-05T11:52:41</time>
      </trkpt>
      <trkpt lat="36.072089932858944" lon="129.40609199926257">
        <ele>13.8</ele>
        <time>2026-06-05T11:52:42</time>
      </trkpt>
      <trkpt lat="36.07210393063724" lon="129.4061819370836">
        <ele>13.8</ele>
        <time>2026-06-05T11:52:43</time>
      </trkpt>
      <trkpt lat="36.07211893424392" lon="129.40627195872366">
        <ele>13.8</ele>
        <time>2026-06-05T11:52:44</time>
      </trkpt>
      <trkpt lat="36.072132932022214" lon="129.40635896287858">
        <ele>13.8</ele>
        <time>2026-06-05T11:52:45</time>
      </trkpt>
      <trkpt lat="36.07214592397213" lon="129.40644496120512">
        <ele>13.8</ele>
        <time>2026-06-05T11:52:46</time>
      </trkpt>
      <trkpt lat="36.0721579939127" lon="129.40652995370328">
        <ele>13.8</ele>
        <time>2026-06-05T11:52:47</time>
      </trkpt>
      <trkpt lat="36.07217098586261" lon="129.40661494620144">
        <ele>13.8</ele>
        <time>2026-06-05T11:52:48</time>
      </trkpt>
      <trkpt lat="36.07218397781253" lon="129.4066999386996">
        <ele>13.8</ele>
        <time>2026-06-05T11:52:49</time>
      </trkpt>
      <trkpt lat="36.072196969762444" lon="129.40678593702614">
        <ele>13.8</ele>
        <time>2026-06-05T11:52:50</time>
      </trkpt>
      <trkpt lat="36.0722079500556" lon="129.40687193535268">
        <ele>13.8</ele>
        <time>2026-06-05T11:52:51</time>
      </trkpt>
      <trkpt lat="36.072218930348754" lon="129.40695793367922">
        <ele>13.8</ele>
        <time>2026-06-05T11:52:52</time>
      </trkpt>
      <trkpt lat="36.07223192229867" lon="129.40704099833965">
        <ele>13.8</ele>
        <time>2026-06-05T11:52:53</time>
      </trkpt>
      <trkpt lat="36.07224399223924" lon="129.4071209616959">
        <ele>14.0</ele>
        <time>2026-06-05T11:52:54</time>
      </trkpt>
      <trkpt lat="36.07225296087563" lon="129.40719991922379">
        <ele>14.0</ele>
        <time>2026-06-05T11:52:55</time>
      </trkpt>
      <trkpt lat="36.072261929512024" lon="129.40727694891393">
        <ele>14.0</ele>
        <time>2026-06-05T11:52:56</time>
      </trkpt>
      <trkpt lat="36.07227098196745" lon="129.40735196694732">
        <ele>14.0</ele>
        <time>2026-06-05T11:52:57</time>
      </trkpt>
      <trkpt lat="36.07228095643222" lon="129.40742497332394">
        <ele>14.0</ele>
        <time>2026-06-05T11:52:58</time>
      </trkpt>
      <trkpt lat="36.072290930897" lon="129.4074959680438">
        <ele>14.0</ele>
        <time>2026-06-05T11:52:59</time>
      </trkpt>
      <trkpt lat="36.072301995009184" lon="129.40756696276367">
        <ele>14.0</ele>
        <time>2026-06-05T11:53:00</time>
      </trkpt>
      <trkpt lat="36.0723149869591" lon="129.40763795748353">
        <ele>14.0</ele>
        <time>2026-06-05T11:53:01</time>
      </trkpt>
      <trkpt lat="36.072328984737396" lon="129.40770995803177">
        <ele>13.8</ele>
        <time>2026-06-05T11:53:02</time>
      </trkpt>
      <trkpt lat="36.07234197668731" lon="129.40777994692326">
        <ele>13.8</ele>
        <time>2026-06-05T11:53:03</time>
      </trkpt>
      <trkpt lat="36.07235798612237" lon="129.40784993581474">
        <ele>13.8</ele>
        <time>2026-06-05T11:53:04</time>
      </trkpt>
      <trkpt lat="36.07237793505192" lon="129.40791992470622">
        <ele>13.8</ele>
        <time>2026-06-05T11:53:05</time>
      </trkpt>
      <trkpt lat="36.07240098528564" lon="129.40798798575997">
        <ele>13.8</ele>
        <time>2026-06-05T11:53:06</time>
      </trkpt>
      <trkpt lat="36.07242998667061" lon="129.4080559629947">
        <ele>13.8</ele>
        <time>2026-06-05T11:53:07</time>
      </trkpt>
      <trkpt lat="36.07246292755008" lon="129.40812293440104">
        <ele>13.8</ele>
        <time>2026-06-05T11:53:08</time>
      </trkpt>
      <trkpt lat="36.07250198721886" lon="129.40818596631289">
        <ele>14.0</ele>
        <time>2026-06-05T11:53:09</time>
      </trkpt>
      <trkpt lat="36.07254599221051" lon="129.40824698656797">
        <ele>14.0</ele>
        <time>2026-06-05T11:53:10</time>
      </trkpt>
      <trkpt lat="36.07259091921151" lon="129.40830691717565">
        <ele>14.0</ele>
        <time>2026-06-05T11:53:11</time>
      </trkpt>
      <trkpt lat="36.07263894751668" lon="129.40836299210787">
        <ele>14.0</ele>
        <time>2026-06-05T11:53:12</time>
      </trkpt>
      <trkpt lat="36.07268697582185" lon="129.4084169715643">
        <ele>14.0</ele>
        <time>2026-06-05T11:53:13</time>
      </trkpt>
      <trkpt lat="36.072734920307994" lon="129.40846793353558">
        <ele>14.0</ele>
        <time>2026-06-05T11:53:14</time>
      </trkpt>
      <trkpt lat="36.072780936956406" lon="129.4085179734975">
        <ele>14.0</ele>
        <time>2026-06-05T11:53:15</time>
      </trkpt>
      <trkpt lat="36.072823936119676" lon="129.40856591798365">
        <ele>14.0</ele>
        <time>2026-06-05T11:53:16</time>
      </trkpt>
      <trkpt lat="36.072867941111326" lon="129.40861193463206">
        <ele>14.0</ele>
        <time>2026-06-05T11:53:17</time>
      </trkpt>
      <trkpt lat="36.072909934446216" lon="129.4086559396237">
        <ele>14.0</ele>
        <time>2026-06-05T11:53:18</time>
      </trkpt>
      <trkpt lat="36.072950921952724" lon="129.40869893878698">
        <ele>14.0</ele>
        <time>2026-06-05T11:53:19</time>
      </trkpt>
      <trkpt lat="36.07298897579312" lon="129.40874294377863">
        <ele>14.0</ele>
        <time>2026-06-05T11:53:20</time>
      </trkpt>
      <trkpt lat="36.07302392832935" lon="129.40878795459867">
        <ele>14.0</ele>
        <time>2026-06-05T11:53:21</time>
      </trkpt>
      <trkpt lat="36.07305494137108" lon="129.40883397124708">
        <ele>13.8</ele>
        <time>2026-06-05T11:53:22</time>
      </trkpt>
      <trkpt lat="36.07308494858444" lon="129.4088829215616">
        <ele>13.8</ele>
        <time>2026-06-05T11:53:23</time>
      </trkpt>
      <trkpt lat="36.07311294414103" lon="129.4089339673519">
        <ele>13.8</ele>
        <time>2026-06-05T11:53:24</time>
      </trkpt>
      <trkpt lat="36.07313892804086" lon="129.40898694097996">
        <ele>13.8</ele>
        <time>2026-06-05T11:53:25</time>
      </trkpt>
      <trkpt lat="36.073162984102964" lon="129.40904293209314">
        <ele>13.8</ele>
        <time>2026-06-05T11:53:26</time>
      </trkpt>
      <trkpt lat="36.073184944689274" lon="129.40910194069147">
        <ele>13.8</ele>
        <time>2026-06-05T11:53:27</time>
      </trkpt>
      <trkpt lat="36.073205983266234" lon="129.40916396677494">
        <ele>13.6</ele>
        <time>2026-06-05T11:53:28</time>
      </trkpt>
      <trkpt lat="36.07322392053902" lon="129.4092269986868">
        <ele>13.6</ele>
        <time>2026-06-05T11:53:29</time>
      </trkpt>
      <trkpt lat="36.07323992997408" lon="129.40929296426475">
        <ele>13.6</ele>
        <time>2026-06-05T11:53:30</time>
      </trkpt>
      <trkpt lat="36.073254933580756" lon="129.40936094149947">
        <ele>13.6</ele>
        <time>2026-06-05T11:53:31</time>
      </trkpt>
      <trkpt lat="36.07326893135905" lon="129.40943093039095">
        <ele>13.6</ele>
        <time>2026-06-05T11:53:32</time>
      </trkpt>
      <trkpt lat="36.07328192330897" lon="129.4095029309392">
        <ele>13.6</ele>
        <time>2026-06-05T11:53:33</time>
      </trkpt>
      <trkpt lat="36.073293993249536" lon="129.4095769431442">
        <ele>13.6</ele>
        <time>2026-06-05T11:53:34</time>
      </trkpt>
      <trkpt lat="36.07330597937107" lon="129.40965296700597">
        <ele>13.6</ele>
        <time>2026-06-05T11:53:35</time>
      </trkpt>
      <trkpt lat="36.073314948007464" lon="129.40972999669611">
        <ele>13.6</ele>
        <time>2026-06-05T11:53:36</time>
      </trkpt>
      <trkpt lat="36.07332391664386" lon="129.4098079483956">
        <ele>13.8</ele>
        <time>2026-06-05T11:53:37</time>
      </trkpt>
      <trkpt lat="36.07333095744252" lon="129.40988598391414">
        <ele>13.8</ele>
        <time>2026-06-05T11:53:38</time>
      </trkpt>
      <trkpt lat="36.073334980756044" lon="129.40996192395687">
        <ele>13.8</ele>
        <time>2026-06-05T11:53:39</time>
      </trkpt>
      <trkpt lat="36.073337998241186" lon="129.41003694199026">
        <ele>13.8</ele>
        <time>2026-06-05T11:53:40</time>
      </trkpt>
      <trkpt lat="36.073336992412806" lon="129.41010994836688">
        <ele>13.8</ele>
        <time>2026-06-05T11:53:41</time>
      </trkpt>
      <trkpt lat="36.073334980756044" lon="129.41017993725836">
        <ele>13.8</ele>
        <time>2026-06-05T11:53:42</time>
      </trkpt>
      <trkpt lat="36.07333095744252" lon="129.41024498082697">
        <ele>13.8</ele>
        <time>2026-06-05T11:53:43</time>
      </trkpt>
      <trkpt lat="36.07332492247224" lon="129.4103079289198">
        <ele>13.6</ele>
        <time>2026-06-05T11:53:44</time>
      </trkpt>
      <trkpt lat="36.07331997714937" lon="129.41036693751812">
        <ele>13.6</ele>
        <time>2026-06-05T11:53:45</time>
      </trkpt>
      <trkpt lat="36.073315953835845" lon="129.41042494028807">
        <ele>13.6</ele>
        <time>2026-06-05T11:53:46</time>
      </trkpt>
      <trkpt lat="36.0733129363507" lon="129.41048093140125">
        <ele>13.6</ele>
        <time>2026-06-05T11:53:47</time>
      </trkpt>
      <trkpt lat="36.07331193052232" lon="129.4105389341712">
        <ele>13.6</ele>
        <time>2026-06-05T11:53:48</time>
      </trkpt>
      <trkpt lat="36.07331092469394" lon="129.41059693694115">
        <ele>13.6</ele>
        <time>2026-06-05T11:53:49</time>
      </trkpt>
      <trkpt lat="36.07330899685621" lon="129.41065594553947">
        <ele>13.6</ele>
        <time>2026-06-05T11:53:50</time>
      </trkpt>
      <trkpt lat="36.07330597937107" lon="129.41071696579456">
        <ele>13.6</ele>
        <time>2026-06-05T11:53:51</time>
      </trkpt>
      <trkpt lat="36.07330497354269" lon="129.4107799977064">
        <ele>13.6</ele>
        <time>2026-06-05T11:53:52</time>
      </trkpt>
      <trkpt lat="36.07330296188593" lon="129.41084294579923">
        <ele>13.4</ele>
        <time>2026-06-05T11:53:53</time>
      </trkpt>
      <trkpt lat="36.07330095022917" lon="129.41090899519622">
        <ele>13.4</ele>
        <time>2026-06-05T11:53:54</time>
      </trkpt>
      <trkpt lat="36.073296926915646" lon="129.41097596660256">
        <ele>13.4</ele>
        <time>2026-06-05T11:53:55</time>
      </trkpt>
      <trkpt lat="36.073292987421155" lon="129.4110429380089">
        <ele>13.4</ele>
        <time>2026-06-05T11:53:56</time>
      </trkpt>
      <trkpt lat="36.07328594662249" lon="129.4111089874059">
        <ele>13.4</ele>
        <time>2026-06-05T11:53:57</time>
      </trkpt>
      <trkpt lat="36.07327798381448" lon="129.41117394715548">
        <ele>13.2</ele>
        <time>2026-06-05T11:53:58</time>
      </trkpt>
      <trkpt lat="36.07326993718743" lon="129.41123697906733">
        <ele>13.2</ele>
        <time>2026-06-05T11:53:59</time>
      </trkpt>
      <trkpt lat="36.07326096855104" lon="129.41129799932241">
        <ele>13.2</ele>
        <time>2026-06-05T11:54:00</time>
      </trkpt>
      <trkpt lat="36.073249988257885" lon="129.4113539904356">
        <ele>13.2</ele>
        <time>2026-06-05T11:54:01</time>
      </trkpt>
      <trkpt lat="36.07323791831732" lon="129.4114039465785">
        <ele>13.0</ele>
        <time>2026-06-05T11:54:02</time>
      </trkpt>
      <trkpt lat="36.07322593219578" lon="129.41145398654044">
        <ele>13.0</ele>
        <time>2026-06-05T11:54:03</time>
      </trkpt>
      <trkpt lat="36.073211934417486" lon="129.41150394268334">
        <ele>13.0</ele>
        <time>2026-06-05T11:54:04</time>
      </trkpt>
      <trkpt lat="36.07319592498243" lon="129.41155498847365">
        <ele>13.0</ele>
        <time>2026-06-05T11:54:05</time>
      </trkpt>
      <trkpt lat="36.07317798770964" lon="129.41160595044494">
        <ele>13.0</ele>
        <time>2026-06-05T11:54:06</time>
      </trkpt>
      <trkpt lat="36.07315694913268" lon="129.4116539787501">
        <ele>13.0</ele>
        <time>2026-06-05T11:54:07</time>
      </trkpt>
      <trkpt lat="36.07313297688961" lon="129.41169396042824">
        <ele>12.8</ele>
        <time>2026-06-05T11:54:08</time>
      </trkpt>
      <trkpt lat="36.073102969676256" lon="129.4117239676416">
        <ele>12.8</ele>
        <time>2026-06-05T11:54:09</time>
      </trkpt>
      <trkpt lat="36.07306893914938" lon="129.41174995154142">
        <ele>12.8</ele>
        <time>2026-06-05T11:54:10</time>
      </trkpt>
      <trkpt lat="36.07303197495639" lon="129.41177794709802">
        <ele>12.8</ele>
        <time>2026-06-05T11:54:11</time>
      </trkpt>
      <trkpt lat="36.072993921115994" lon="129.41180996596813">
        <ele>12.8</ele>
        <time>2026-06-05T11:54:12</time>
      </trkpt>
      <trkpt lat="36.07295896857977" lon="129.41184894181788">
        <ele>13.0</ele>
        <time>2026-06-05T11:54:13</time>
      </trkpt>
      <trkpt lat="36.072928961366415" lon="129.41189797595143">
        <ele>13.0</ele>
        <time>2026-06-05T11:54:14</time>
      </trkpt>
      <trkpt lat="36.07290297746658" lon="129.411954972893">
        <ele>13.0</ele>
        <time>2026-06-05T11:54:15</time>
      </trkpt>
      <trkpt lat="36.07287892140448" lon="129.41201792098582">
        <ele>13.0</ele>
        <time>2026-06-05T11:54:16</time>
      </trkpt>
      <trkpt lat="36.07285595498979" lon="129.41208296455443">
        <ele>13.0</ele>
        <time>2026-06-05T11:54:17</time>
      </trkpt>
      <trkpt lat="36.07283399440348" lon="129.41215094178915">
        <ele>13.0</ele>
        <time>2026-06-05T11:54:18</time>
      </trkpt>
      <trkpt lat="36.07281094416976" lon="129.41222093068063">
        <ele>13.0</ele>
        <time>2026-06-05T11:54:19</time>
      </trkpt>
      <trkpt lat="36.07278797775507" lon="129.41228899173439">
        <ele>13.0</ele>
        <time>2026-06-05T11:54:20</time>
      </trkpt>
      <trkpt lat="36.07276392169297" lon="129.41235294565558">
        <ele>13.0</ele>
        <time>2026-06-05T11:54:21</time>
      </trkpt>
      <trkpt lat="36.0727399494499" lon="129.41241497173905">
        <ele>13.0</ele>
        <time>2026-06-05T11:54:22</time>
      </trkpt>
      <trkpt lat="36.072715977206826" lon="129.412472974509">
        <ele>13.0</ele>
        <time>2026-06-05T11:54:23</time>
      </trkpt>
      <trkpt lat="36.072688987478614" lon="129.41252594813704">
        <ele>13.0</ele>
        <time>2026-06-05T11:54:24</time>
      </trkpt>
      <trkpt lat="36.0726619977504" lon="129.41257699392736">
        <ele>13.0</ele>
        <time>2026-06-05T11:54:25</time>
      </trkpt>
      <trkpt lat="36.07263492420316" lon="129.41262393258512">
        <ele>13.0</ele>
        <time>2026-06-05T11:54:26</time>
      </trkpt>
      <trkpt lat="36.07261095196009" lon="129.4126669317484">
        <ele>12.8</ele>
        <time>2026-06-05T11:54:27</time>
      </trkpt>
      <trkpt lat="36.07259091921151" lon="129.41270599141717">
        <ele>12.8</ele>
        <time>2026-06-05T11:54:28</time>
      </trkpt>
      <trkpt lat="36.07257499359548" lon="129.41274194978178">
        <ele>12.8</ele>
        <time>2026-06-05T11:54:29</time>
      </trkpt>
      <trkpt lat="36.072560995817184" lon="129.41277698613703">
        <ele>12.8</ele>
        <time>2026-06-05T11:54:30</time>
      </trkpt>
      <trkpt lat="36.07254792004824" lon="129.41281193867326">
        <ele>12.8</ele>
        <time>2026-06-05T11:54:31</time>
      </trkpt>
      <trkpt lat="36.07253492809832" lon="129.41284596920013">
        <ele>12.8</ele>
        <time>2026-06-05T11:54:32</time>
      </trkpt>
      <trkpt lat="36.072520930320024" lon="129.41287899389863">
        <ele>12.8</ele>
        <time>2026-06-05T11:54:33</time>
      </trkpt>
      <trkpt lat="36.072500981390476" lon="129.41290598362684">
        <ele>12.6</ele>
        <time>2026-06-05T11:54:34</time>
      </trkpt>
      <trkpt lat="36.072474997490644" lon="129.41292693838477">
        <ele>12.6</ele>
        <time>2026-06-05T11:54:35</time>
      </trkpt>
      <trkpt lat="36.07244297862053" lon="129.41293791867793">
        <ele>12.6</ele>
        <time>2026-06-05T11:54:36</time>
      </trkpt>
      <trkpt lat="36.07240894809365" lon="129.41293699666858">
        <ele>12.6</ele>
        <time>2026-06-05T11:54:37</time>
      </trkpt>
      <trkpt lat="36.072374917566776" lon="129.41292895004153">
        <ele>12.6</ele>
        <time>2026-06-05T11:54:38</time>
      </trkpt>
      <trkpt lat="36.07234398834407" lon="129.41291696392">
        <ele>12.6</ele>
        <time>2026-06-05T11:54:39</time>
      </trkpt>
      <trkpt lat="36.07231297530234" lon="129.41290397197008">
        <ele>12.6</ele>
        <time>2026-06-05T11:54:40</time>
      </trkpt>
      <trkpt lat="36.072283973917365" lon="129.41289491951466">
        <ele>12.4</ele>
        <time>2026-06-05T11:54:41</time>
      </trkpt>
      <trkpt lat="36.07225698418915" lon="129.41289894282818">
        <ele>12.4</ele>
        <time>2026-06-05T11:54:42</time>
      </trkpt>
      <trkpt lat="36.07223192229867" lon="129.4129079952836">
        <ele>12.4</ele>
        <time>2026-06-05T11:54:43</time>
      </trkpt>
      <trkpt lat="36.07220593839884" lon="129.41291294060647">
        <ele>12.4</ele>
        <time>2026-06-05T11:54:44</time>
      </trkpt>
      <trkpt lat="36.072177942842245" lon="129.41290992312133">
        <ele>12.4</ele>
        <time>2026-06-05T11:54:45</time>
      </trkpt>
      <trkpt lat="36.07214894145727" lon="129.41289693117142">
        <ele>12.4</ele>
        <time>2026-06-05T11:54:46</time>
      </trkpt>
      <trkpt lat="36.072116922587156" lon="129.41287698224187">
        <ele>12.4</ele>
        <time>2026-06-05T11:54:47</time>
      </trkpt>
      <trkpt lat="36.07207995839417" lon="129.4128559436649">
        <ele>12.4</ele>
        <time>2026-06-05T11:54:48</time>
      </trkpt>
      <trkpt lat="36.07203897088766" lon="129.4128339830786">
        <ele>12.6</ele>
        <time>2026-06-05T11:54:49</time>
      </trkpt>
      <trkpt lat="36.07199597172439" lon="129.41280892118812">
        <ele>12.6</ele>
        <time>2026-06-05T11:54:50</time>
      </trkpt>
      <trkpt lat="36.0719539783895" lon="129.41278092563152">
        <ele>12.8</ele>
        <time>2026-06-05T11:54:51</time>
      </trkpt>
      <trkpt lat="36.07191097922623" lon="129.41275091841817">
        <ele>13.0</ele>
        <time>2026-06-05T11:54:52</time>
      </trkpt>
      <trkpt lat="36.07186999171972" lon="129.41271998919547">
        <ele>13.2</ele>
        <time>2026-06-05T11:54:53</time>
      </trkpt>
      <trkpt lat="36.07182892039418" lon="129.4126899819821">
        <ele>13.2</ele>
        <time>2026-06-05T11:54:54</time>
      </trkpt>
      <trkpt lat="36.07178793288767" lon="129.41266198642552">
        <ele>13.4</ele>
        <time>2026-06-05T11:54:55</time>
      </trkpt>
      <trkpt lat="36.071747951209545" lon="129.41263399086893">
        <ele>13.4</ele>
        <time>2026-06-05T11:54:56</time>
      </trkpt>
      <trkpt lat="36.07170796953142" lon="129.41260498948395">
        <ele>13.4</ele>
        <time>2026-06-05T11:54:57</time>
      </trkpt>
      <trkpt lat="36.07166798785329" lon="129.41257799975574">
        <ele>13.4</ele>
        <time>2026-06-05T11:54:58</time>
      </trkpt>
      <trkpt lat="36.07162792235613" lon="129.4125509262085">
        <ele>13.4</ele>
        <time>2026-06-05T11:54:59</time>
      </trkpt>
      <trkpt lat="36.071587940678" lon="129.41252594813704">
        <ele>13.6</ele>
        <time>2026-06-05T11:55:00</time>
      </trkpt>
      <trkpt lat="36.07154997065663" lon="129.41250298172235">
        <ele>13.6</ele>
        <time>2026-06-05T11:55:01</time>
      </trkpt>
      <trkpt lat="36.071511916816235" lon="129.41247993148863">
        <ele>13.6</ele>
        <time>2026-06-05T11:55:02</time>
      </trkpt>
      <trkpt lat="36.07147495262325" lon="129.41245696507394">
        <ele>13.6</ele>
        <time>2026-06-05T11:55:03</time>
      </trkpt>
      <trkpt lat="36.07143698260188" lon="129.41243592649698">
        <ele>13.6</ele>
        <time>2026-06-05T11:55:04</time>
      </trkpt>
      <trkpt lat="36.0713979229331" lon="129.4124179892242">
        <ele>13.6</ele>
        <time>2026-06-05T11:55:05</time>
      </trkpt>
      <trkpt lat="36.071358947083354" lon="129.41240298561752">
        <ele>13.6</ele>
        <time>2026-06-05T11:55:06</time>
      </trkpt>
      <trkpt lat="36.071319971233606" lon="129.4123899936676">
        <ele>13.6</ele>
        <time>2026-06-05T11:55:07</time>
      </trkpt>
      <trkpt lat="36.07128392904997" lon="129.4123759958893">
        <ele>13.6</ele>
        <time>2026-06-05T11:55:08</time>
      </trkpt>
      <trkpt lat="36.07124797068536" lon="129.41235998645425">
        <ele>13.6</ele>
        <time>2026-06-05T11:55:09</time>
      </trkpt>
      <trkpt lat="36.07121695764363" lon="129.4123429711908">
        <ele>13.6</ele>
        <time>2026-06-05T11:55:10</time>
      </trkpt>
      <trkpt lat="36.071189967915416" lon="129.41232796758413">
        <ele>13.6</ele>
        <time>2026-06-05T11:55:11</time>
      </trkpt>
      <trkpt lat="36.071165995672345" lon="129.41231497563422">
        <ele>13.4</ele>
        <time>2026-06-05T11:55:12</time>
      </trkpt>
      <trkpt lat="36.071143951267004" lon="129.41229997202754">
        <ele>13.4</ele>
        <time>2026-06-05T11:55:13</time>
      </trkpt>
      <trkpt lat="36.071124924346805" lon="129.41228195093572">
        <ele>13.4</ele>
        <time>2026-06-05T11:55:14</time>
      </trkpt>
      <trkpt lat="36.07111092656851" lon="129.41226292401552">
        <ele>13.6</ele>
        <time>2026-06-05T11:55:15</time>
      </trkpt>
      <trkpt lat="36.07109894044697" lon="129.41224297508597">
        <ele>13.6</ele>
        <time>2026-06-05T11:55:16</time>
      </trkpt>
      <trkpt lat="36.0710889659822" lon="129.41221891902387">
        <ele>13.8</ele>
        <time>2026-06-05T11:55:17</time>
      </trkpt>
      <trkpt lat="36.071081925183535" lon="129.41219192929566">
        <ele>13.8</ele>
        <time>2026-06-05T11:55:18</time>
      </trkpt>
      <trkpt lat="36.07107597403228" lon="129.4121619220823">
        <ele>14.0</ele>
        <time>2026-06-05T11:55:19</time>
      </trkpt>
      <trkpt lat="36.07107195071876" lon="129.41212998703122">
        <ele>14.0</ele>
        <time>2026-06-05T11:55:20</time>
      </trkpt>
      <trkpt lat="36.07107195071876" lon="129.41209495067596">
        <ele>14.0</ele>
        <time>2026-06-05T11:55:21</time>
      </trkpt>
      <trkpt lat="36.07107597403228" lon="129.41205899231136">
        <ele>14.0</ele>
        <time>2026-06-05T11:55:22</time>
      </trkpt>
      <trkpt lat="36.071084942668676" lon="129.41202194429934">
        <ele>14.0</ele>
        <time>2026-06-05T11:55:23</time>
      </trkpt>
      <trkpt lat="36.07109692879021" lon="129.41198498010635">
        <ele>14.0</ele>
        <time>2026-06-05T11:55:24</time>
      </trkpt>
      <trkpt lat="36.07111193239689" lon="129.41194692626595">
        <ele>14.0</ele>
        <time>2026-06-05T11:55:25</time>
      </trkpt>
      <trkpt lat="36.071127941831946" lon="129.4119089562446">
        <ele>14.0</ele>
        <time>2026-06-05T11:55:26</time>
      </trkpt>
      <trkpt lat="36.071143951267004" lon="129.41187299787998">
        <ele>14.2</ele>
        <time>2026-06-05T11:55:27</time>
      </trkpt>
      <trkpt lat="36.0711579490453" lon="129.41183796152472">
        <ele>14.2</ele>
        <time>2026-06-05T11:55:28</time>
      </trkpt>
      <trkpt lat="36.071168929338455" lon="129.41180393099785">
        <ele>14.2</ele>
        <time>2026-06-05T11:55:29</time>
      </trkpt>
      <trkpt lat="36.0711769759655" lon="129.41176998429">
        <ele>14.2</ele>
        <time>2026-06-05T11:55:30</time>
      </trkpt>
      <trkpt lat="36.07118192128837" lon="129.41173595376313">
        <ele>14.0</ele>
        <time>2026-06-05T11:55:31</time>
      </trkpt>
      <trkpt lat="36.07118099927902" lon="129.41170292906463">
        <ele>14.0</ele>
        <time>2026-06-05T11:55:32</time>
      </trkpt>
      <trkpt lat="36.0711769759655" lon="129.41167392767966">
        <ele>14.0</ele>
        <time>2026-06-05T11:55:33</time>
      </trkpt>
      <trkpt lat="36.0711719468236" lon="129.41164794377983">
        <ele>14.0</ele>
        <time>2026-06-05T11:55:34</time>
      </trkpt>
      <trkpt lat="36.071168929338455" lon="129.41162397153676">
        <ele>14.0</ele>
        <time>2026-06-05T11:55:35</time>
      </trkpt>
      <trkpt lat="36.071167923510075" lon="129.41160192713141">
        <ele>13.8</ele>
        <time>2026-06-05T11:55:36</time>
      </trkpt>
      <trkpt lat="36.071167923510075" lon="129.41158097237349">
        <ele>13.8</ele>
        <time>2026-06-05T11:55:37</time>
      </trkpt>
      <trkpt lat="36.071167923510075" lon="129.4115609396249">
        <ele>13.8</ele>
        <time>2026-06-05T11:55:38</time>
      </trkpt>
      <trkpt lat="36.071166917681694" lon="129.41154895350337">
        <ele>13.8</ele>
        <time>2026-06-05T11:55:39</time>
      </trkpt>
      <trkpt lat="36.071165995672345" lon="129.41154392436147">
        <ele>13.8</ele>
        <time>2026-06-05T11:55:40</time>
      </trkpt>
      <trkpt lat="36.071164989843965" lon="129.4115429185331">
        <ele>13.8</ele>
        <time>2026-06-05T11:55:41</time>
      </trkpt>
      <trkpt lat="36.071163984015584" lon="129.41154493018985">
        <ele>13.8</ele>
        <time>2026-06-05T11:55:42</time>
      </trkpt>
      <trkpt lat="36.071163984015584" lon="129.41151198931038">
        <ele>13.6</ele>
        <time>2026-06-05T11:55:47</time>
      </trkpt>
      <trkpt lat="36.071163984015584" lon="129.4115009251982">
        <ele>13.6</ele>
        <time>2026-06-05T11:55:48</time>
      </trkpt>
      <trkpt lat="36.071164989843965" lon="129.41149296239018">
        <ele>13.6</ele>
        <time>2026-06-05T11:55:49</time>
      </trkpt>
      <trkpt lat="36.071164989843965" lon="129.41148893907666">
        <ele>13.6</ele>
        <time>2026-06-05T11:55:50</time>
      </trkpt>
      <trkpt lat="36.071164989843965" lon="129.4114869274199">
        <ele>13.6</ele>
        <time>2026-06-05T11:55:51</time>
      </trkpt>
      <trkpt lat="36.071165995672345" lon="129.41167199984193">
        <ele>13.4</ele>
        <time>2026-06-05T12:01:36</time>
      </trkpt>
      <trkpt lat="36.071164989843965" lon="129.4117149990052">
        <ele>13.4</ele>
        <time>2026-06-05T12:01:37</time>
      </trkpt>
      <trkpt lat="36.07115996070206" lon="129.41176596097648">
        <ele>13.4</ele>
        <time>2026-06-05T12:01:38</time>
      </trkpt>
      <trkpt lat="36.07114998623729" lon="129.41181893460453">
        <ele>13.4</ele>
        <time>2026-06-05T12:01:39</time>
      </trkpt>
      <trkpt lat="36.07113598845899" lon="129.4118719920516">
        <ele>13.6</ele>
        <time>2026-06-05T12:01:40</time>
      </trkpt>
      <trkpt lat="36.07111997902393" lon="129.4119219481945">
        <ele>13.6</ele>
        <time>2026-06-05T12:01:41</time>
      </trkpt>
      <trkpt lat="36.071103969588876" lon="129.41197198815644">
        <ele>13.6</ele>
        <time>2026-06-05T12:01:42</time>
      </trkpt>
      <trkpt lat="36.07109097763896" lon="129.41202093847096">
        <ele>13.6</ele>
        <time>2026-06-05T12:01:43</time>
      </trkpt>
      <trkpt lat="36.071080919355154" lon="129.4120699726045">
        <ele>13.6</ele>
        <time>2026-06-05T12:01:44</time>
      </trkpt>
      <trkpt lat="36.07107597403228" lon="129.41211791709065">
        <ele>13.6</ele>
        <time>2026-06-05T12:01:45</time>
      </trkpt>
      <trkpt lat="36.071079997345805" lon="129.41216292791069">
        <ele>13.6</ele>
        <time>2026-06-05T12:01:46</time>
      </trkpt>
      <trkpt lat="36.07108796015382" lon="129.41220592707396">
        <ele>13.6</ele>
        <time>2026-06-05T12:01:47</time>
      </trkpt>
      <trkpt lat="36.07109994627535" lon="129.41224398091435">
        <ele>13.6</ele>
        <time>2026-06-05T12:01:48</time>
      </trkpt>
      <trkpt lat="36.07111394405365" lon="129.4122749939561">
        <ele>13.6</ele>
        <time>2026-06-05T12:01:49</time>
      </trkpt>
      <trkpt lat="36.07113297097385" lon="129.41229997202754">
        <ele>13.6</ele>
        <time>2026-06-05T12:01:50</time>
      </trkpt>
      <trkpt lat="36.07115895487368" lon="129.41232293844223">
        <ele>13.6</ele>
        <time>2026-06-05T12:01:51</time>
      </trkpt>
      <trkpt lat="36.07119197957218" lon="129.41233995370567">
        <ele>13.4</ele>
        <time>2026-06-05T12:01:52</time>
      </trkpt>
      <trkpt lat="36.071229949593544" lon="129.4123519398272">
        <ele>13.2</ele>
        <time>2026-06-05T12:01:53</time>
      </trkpt>
      <trkpt lat="36.07126892544329" lon="129.41236099228263">
        <ele>13.2</ele>
        <time>2026-06-05T12:01:54</time>
      </trkpt>
      <trkpt lat="36.07130999676883" lon="129.41237297840416">
        <ele>13.0</ele>
        <time>2026-06-05T12:01:55</time>
      </trkpt>
      <trkpt lat="36.07135098427534" lon="129.41238898783922">
        <ele>13.0</ele>
        <time>2026-06-05T12:01:56</time>
      </trkpt>
      <trkpt lat="36.07139096595347" lon="129.41240893676877">
        <ele>13.0</ele>
        <time>2026-06-05T12:01:57</time>
      </trkpt>
      <trkpt lat="36.07143195345998" lon="129.4124309811741">
        <ele>13.0</ele>
        <time>2026-06-05T12:01:58</time>
      </trkpt>
      <trkpt lat="36.07147294096649" lon="129.41245696507394">
        <ele>12.8</ele>
        <time>2026-06-05T12:01:59</time>
      </trkpt>
      <trkpt lat="36.07151694595814" lon="129.41248395480216">
        <ele>12.8</ele>
        <time>2026-06-05T12:02:00</time>
      </trkpt>
      <trkpt lat="36.07156195677817" lon="129.4125139620155">
        <ele>12.8</ele>
        <time>2026-06-05T12:02:01</time>
      </trkpt>
      <trkpt lat="36.0716069675982" lon="129.41254396922886">
        <ele>12.8</ele>
        <time>2026-06-05T12:02:02</time>
      </trkpt>
      <trkpt lat="36.07165298424661" lon="129.41257297061384">
        <ele>12.6</ele>
        <time>2026-06-05T12:02:03</time>
      </trkpt>
      <trkpt lat="36.07169891707599" lon="129.41260498948395">
        <ele>12.6</ele>
        <time>2026-06-05T12:02:04</time>
      </trkpt>
      <trkpt lat="36.07174392789602" lon="129.41263692453504">
        <ele>12.6</ele>
        <time>2026-06-05T12:02:05</time>
      </trkpt>
      <trkpt lat="36.07178692705929" lon="129.41266994923353">
        <ele>12.4</ele>
        <time>2026-06-05T12:02:06</time>
      </trkpt>
      <trkpt lat="36.07182992622256" lon="129.41270297393203">
        <ele>12.4</ele>
        <time>2026-06-05T12:02:07</time>
      </trkpt>
      <trkpt lat="36.0718709975481" lon="129.41273499280214">
        <ele>12.2</ele>
        <time>2026-06-05T12:02:08</time>
      </trkpt>
      <trkpt lat="36.07191198505461" lon="129.41276592202485">
        <ele>12.2</ele>
        <time>2026-06-05T12:02:09</time>
      </trkpt>
      <trkpt lat="36.07195498421788" lon="129.41279391758144">
        <ele>12.2</ele>
        <time>2026-06-05T12:02:10</time>
      </trkpt>
      <trkpt lat="36.07199697755277" lon="129.4128199853003">
        <ele>12.0</ele>
        <time>2026-06-05T12:02:11</time>
      </trkpt>
      <trkpt lat="36.07204098254442" lon="129.412842951715">
        <ele>12.0</ele>
        <time>2026-06-05T12:02:12</time>
      </trkpt>
      <trkpt lat="36.07208498753607" lon="129.41286298446357">
        <ele>12.0</ele>
        <time>2026-06-05T12:02:13</time>
      </trkpt>
      <trkpt lat="36.07212698087096" lon="129.41288695670664">
        <ele>11.8</ele>
        <time>2026-06-05T12:02:14</time>
      </trkpt>
      <trkpt lat="36.07216796837747" lon="129.4129109289497">
        <ele>11.8</ele>
        <time>2026-06-05T12:02:15</time>
      </trkpt>
      <trkpt lat="36.07220493257046" lon="129.4129299558699">
        <ele>11.6</ele>
        <time>2026-06-05T12:02:16</time>
      </trkpt>
      <trkpt lat="36.07223795726895" lon="129.41294093616307">
        <ele>11.4</ele>
        <time>2026-06-05T12:02:17</time>
      </trkpt>
      <trkpt lat="36.072263941168785" lon="129.41293699666858">
        <ele>11.4</ele>
        <time>2026-06-05T12:02:18</time>
      </trkpt>
      <trkpt lat="36.07228799723089" lon="129.41292693838477">
        <ele>11.2</ele>
        <time>2026-06-05T12:02:19</time>
      </trkpt>
      <trkpt lat="36.0723149869591" lon="129.41291796974838">
        <ele>11.2</ele>
        <time>2026-06-05T12:02:20</time>
      </trkpt>
      <trkpt lat="36.0723459161818" lon="129.41291394643486">
        <ele>11.2</ele>
        <time>2026-06-05T12:02:21</time>
      </trkpt>
      <trkpt lat="36.07238095253706" lon="129.4129119347781">
        <ele>11.2</ele>
        <time>2026-06-05T12:02:22</time>
      </trkpt>
      <trkpt lat="36.07241992838681" lon="129.41290992312133">
        <ele>11.2</ele>
        <time>2026-06-05T12:02:23</time>
      </trkpt>
      <trkpt lat="36.07246292755008" lon="129.41290698945522">
        <ele>11.2</ele>
        <time>2026-06-05T12:02:24</time>
      </trkpt>
      <trkpt lat="36.07250793837011" lon="129.41290095448494">
        <ele>11.4</ele>
        <time>2026-06-05T12:02:25</time>
      </trkpt>
      <trkpt lat="36.07255194336176" lon="129.41288997419178">
        <ele>11.6</ele>
        <time>2026-06-05T12:02:26</time>
      </trkpt>
      <trkpt lat="36.07259393669665" lon="129.41287094727159">
        <ele>11.6</ele>
        <time>2026-06-05T12:02:27</time>
      </trkpt>
      <trkpt lat="36.07263098470867" lon="129.41284395754337">
        <ele>11.8</ele>
        <time>2026-06-05T12:02:28</time>
      </trkpt>
      <trkpt lat="36.07266593724489" lon="129.41281193867326">
        <ele>11.8</ele>
        <time>2026-06-05T12:02:29</time>
      </trkpt>
      <trkpt lat="36.07269795611501" lon="129.41277698613703">
        <ele>11.8</ele>
        <time>2026-06-05T12:02:30</time>
      </trkpt>
      <trkpt lat="36.07272896915674" lon="129.41274194978178">
        <ele>12.0</ele>
        <time>2026-06-05T12:02:31</time>
      </trkpt>
      <trkpt lat="36.072757970541716" lon="129.41270892508328">
        <ele>12.0</ele>
        <time>2026-06-05T12:02:32</time>
      </trkpt>
      <trkpt lat="36.07278697192669" lon="129.4126769900322">
        <ele>12.0</ele>
        <time>2026-06-05T12:02:33</time>
      </trkpt>
      <trkpt lat="36.07281697914004" lon="129.41264798864722">
        <ele>12.2</ele>
        <time>2026-06-05T12:02:34</time>
      </trkpt>
      <trkpt lat="36.07284598052502" lon="129.41261798143387">
        <ele>12.2</ele>
        <time>2026-06-05T12:02:35</time>
      </trkpt>
      <trkpt lat="36.07287297025323" lon="129.412583950907">
        <ele>12.2</ele>
        <time>2026-06-05T12:02:36</time>
      </trkpt>
      <trkpt lat="36.07290096580982" lon="129.41254296340048">
        <ele>12.2</ele>
        <time>2026-06-05T12:02:37</time>
      </trkpt>
      <trkpt lat="36.07292594388127" lon="129.4124959409237">
        <ele>12.4</ele>
        <time>2026-06-05T12:02:38</time>
      </trkpt>
      <trkpt lat="36.072950921952724" lon="129.41244397312403">
        <ele>12.4</ele>
        <time>2026-06-05T12:02:39</time>
      </trkpt>
      <trkpt lat="36.07297598384321" lon="129.41238597035408">
        <ele>12.4</ele>
        <time>2026-06-05T12:02:40</time>
      </trkpt>
      <trkpt lat="36.07300297357142" lon="129.41232595592737">
        <ele>12.4</ele>
        <time>2026-06-05T12:02:41</time>
      </trkpt>
      <trkpt lat="36.07302996329963" lon="129.4122639298439">
        <ele>12.6</ele>
        <time>2026-06-05T12:02:42</time>
      </trkpt>
      <trkpt lat="36.073056953027844" lon="129.41219897009432">
        <ele>12.6</ele>
        <time>2026-06-05T12:02:43</time>
      </trkpt>
      <trkpt lat="36.073080925270915" lon="129.41213199868798">
        <ele>12.6</ele>
        <time>2026-06-05T12:02:44</time>
      </trkpt>
      <trkpt lat="36.073100958019495" lon="129.41206293180585">
        <ele>12.6</ele>
        <time>2026-06-05T12:02:45</time>
      </trkpt>
      <trkpt lat="36.07311596162617" lon="129.411991937086">
        <ele>12.4</ele>
        <time>2026-06-05T12:02:46</time>
      </trkpt>
      <trkpt lat="36.07312995940447" lon="129.41192295402288">
        <ele>12.4</ele>
        <time>2026-06-05T12:02:47</time>
      </trkpt>
      <trkpt lat="36.073145968839526" lon="129.41185598261654">
        <ele>12.4</ele>
        <time>2026-06-05T12:02:48</time>
      </trkpt>
      <trkpt lat="36.073163989931345" lon="129.41179093904793">
        <ele>12.4</ele>
        <time>2026-06-05T12:02:49</time>
      </trkpt>
      <trkpt lat="36.07318393886089" lon="129.4117289967835">
        <ele>12.4</ele>
        <time>2026-06-05T12:02:50</time>
      </trkpt>
      <trkpt lat="36.073205983266234" lon="129.4116689823568">
        <ele>12.4</ele>
        <time>2026-06-05T12:02:51</time>
      </trkpt>
      <trkpt lat="36.073228949680924" lon="129.41160896793008">
        <ele>12.4</ele>
        <time>2026-06-05T12:02:52</time>
      </trkpt>
      <trkpt lat="36.073249988257885" lon="129.411547947675">
        <ele>12.4</ele>
        <time>2026-06-05T12:02:53</time>
      </trkpt>
      <trkpt lat="36.07326993718743" lon="129.41148499958217">
        <ele>12.4</ele>
        <time>2026-06-05T12:02:54</time>
      </trkpt>
      <trkpt lat="36.073290975764394" lon="129.41142397932708">
        <ele>12.4</ele>
        <time>2026-06-05T12:02:55</time>
      </trkpt>
      <trkpt lat="36.07331092469394" lon="129.411362959072">
        <ele>12.2</ele>
        <time>2026-06-05T12:02:56</time>
      </trkpt>
      <trkpt lat="36.07332592830062" lon="129.41130093298852">
        <ele>12.2</ele>
        <time>2026-06-05T12:02:57</time>
      </trkpt>
      <trkpt lat="36.073334980756044" lon="129.41123697906733">
        <ele>12.2</ele>
        <time>2026-06-05T12:02:58</time>
      </trkpt>
      <trkpt lat="36.073339926078916" lon="129.4111729413271">
        <ele>12.2</ele>
        <time>2026-06-05T12:02:59</time>
      </trkpt>
      <trkpt lat="36.07334294356406" lon="129.41110798157752">
        <ele>12.2</ele>
        <time>2026-06-05T12:03:00</time>
      </trkpt>
      <trkpt lat="36.07334394939244" lon="129.41104394383729">
        <ele>12.2</ele>
        <time>2026-06-05T12:03:01</time>
      </trkpt>
      <trkpt lat="36.07334495522082" lon="129.4109789840877">
        <ele>12.4</ele>
        <time>2026-06-05T12:03:02</time>
      </trkpt>
      <trkpt lat="36.0733459610492" lon="129.4109129346907">
        <ele>12.4</ele>
        <time>2026-06-05T12:03:03</time>
      </trkpt>
      <trkpt lat="36.07334897853434" lon="129.41084696911275">
        <ele>12.4</ele>
        <time>2026-06-05T12:03:04</time>
      </trkpt>
      <trkpt lat="36.07335291802883" lon="129.4107799977064">
        <ele>12.4</ele>
        <time>2026-06-05T12:03:05</time>
      </trkpt>
      <trkpt lat="36.073358952999115" lon="129.41071294248104">
        <ele>12.4</ele>
        <time>2026-06-05T12:03:06</time>
      </trkpt>
      <trkpt lat="36.07336398214102" lon="129.4106459710747">
        <ele>12.6</ele>
        <time>2026-06-05T12:03:07</time>
      </trkpt>
      <trkpt lat="36.07336993329227" lon="129.4105799216777">
        <ele>12.6</ele>
        <time>2026-06-05T12:03:08</time>
      </trkpt>
      <trkpt lat="36.07337596826255" lon="129.41051295027137">
        <ele>12.8</ele>
        <time>2026-06-05T12:03:09</time>
      </trkpt>
      <trkpt lat="36.073380997404456" lon="129.41044597886503">
        <ele>12.8</ele>
        <time>2026-06-05T12:03:10</time>
      </trkpt>
      <trkpt lat="36.07338594272733" lon="129.41037892363966">
        <ele>13.0</ele>
        <time>2026-06-05T12:03:11</time>
      </trkpt>
      <trkpt lat="36.07339197769761" lon="129.4103129580617">
        <ele>13.0</ele>
        <time>2026-06-05T12:03:12</time>
      </trkpt>
      <trkpt lat="36.073399940505624" lon="129.41024799831212">
        <ele>13.0</ele>
        <time>2026-06-05T12:03:13</time>
      </trkpt>
      <trkpt lat="36.07340597547591" lon="129.4101829547435">
        <ele>13.0</ele>
        <time>2026-06-05T12:03:14</time>
      </trkpt>
      <trkpt lat="36.07340999878943" lon="129.41011698916554">
        <ele>13.0</ele>
        <time>2026-06-05T12:03:15</time>
      </trkpt>
      <trkpt lat="36.07341092079878" lon="129.41004993394017">
        <ele>13.0</ele>
        <time>2026-06-05T12:03:16</time>
      </trkpt>
      <trkpt lat="36.07340899296105" lon="129.40998195670545">
        <ele>12.8</ele>
        <time>2026-06-05T12:03:17</time>
      </trkpt>
      <trkpt lat="36.07340698130429" lon="129.4099149852991">
        <ele>12.8</ele>
        <time>2026-06-05T12:03:18</time>
      </trkpt>
      <trkpt lat="36.07340597547591" lon="129.4098499417305">
        <ele>12.8</ele>
        <time>2026-06-05T12:03:19</time>
      </trkpt>
      <trkpt lat="36.073402957990766" lon="129.40978498198092">
        <ele>12.8</ele>
        <time>2026-06-05T12:03:20</time>
      </trkpt>
      <trkpt lat="36.07339692302048" lon="129.40972195006907">
        <ele>12.8</ele>
        <time>2026-06-05T12:03:21</time>
      </trkpt>
      <trkpt lat="36.07338694855571" lon="129.40966294147074">
        <ele>13.0</ele>
        <time>2026-06-05T12:03:22</time>
      </trkpt>
      <trkpt lat="36.073376974090934" lon="129.4096049387008">
        <ele>13.0</ele>
        <time>2026-06-05T12:03:23</time>
      </trkpt>
      <trkpt lat="36.07336699962616" lon="129.40954593010247">
        <ele>13.0</ele>
        <time>2026-06-05T12:03:24</time>
      </trkpt>
      <trkpt lat="36.073358952999115" lon="129.40948692150414">
        <ele>13.2</ele>
        <time>2026-06-05T12:03:25</time>
      </trkpt>
      <trkpt lat="36.07334998436272" lon="129.40942799672484">
        <ele>13.2</ele>
        <time>2026-06-05T12:03:26</time>
      </trkpt>
      <trkpt lat="36.073338920250535" lon="129.40936697646976">
        <ele>13.2</ele>
        <time>2026-06-05T12:03:27</time>
      </trkpt>
      <trkpt lat="36.07332592830062" lon="129.40930696204305">
        <ele>13.2</ele>
        <time>2026-06-05T12:03:28</time>
      </trkpt>
      <trkpt lat="36.07330991886556" lon="129.40924694761634">
        <ele>13.2</ele>
        <time>2026-06-05T12:03:29</time>
      </trkpt>
      <trkpt lat="36.073291981592774" lon="129.40918693318963">
        <ele>13.2</ele>
        <time>2026-06-05T12:03:30</time>
      </trkpt>
      <trkpt lat="36.073273960500956" lon="129.4091279245913">
        <ele>13.2</ele>
        <time>2026-06-05T12:03:31</time>
      </trkpt>
      <trkpt lat="36.073253927752376" lon="129.40906992182136">
        <ele>13.2</ele>
        <time>2026-06-05T12:03:32</time>
      </trkpt>
      <trkpt lat="36.07323297299445" lon="129.4090129248798">
        <ele>13.2</ele>
        <time>2026-06-05T12:03:33</time>
      </trkpt>
      <trkpt lat="36.073208916932344" lon="129.40895793959498">
        <ele>13.0</ele>
        <time>2026-06-05T12:03:34</time>
      </trkpt>
      <trkpt lat="36.07318293303251" lon="129.40890396013856">
        <ele>13.0</ele>
        <time>2026-06-05T12:03:35</time>
      </trkpt>
      <trkpt lat="36.0731559433043" lon="129.40885392017663">
        <ele>13.0</ele>
        <time>2026-06-05T12:03:36</time>
      </trkpt>
      <trkpt lat="36.073125936090946" lon="129.4088049698621">
        <ele>13.0</ele>
        <time>2026-06-05T12:03:37</time>
      </trkpt>
      <trkpt lat="36.07309391722083" lon="129.40875995904207">
        <ele>13.0</ele>
        <time>2026-06-05T12:03:38</time>
      </trkpt>
      <trkpt lat="36.073056953027844" lon="129.40871595405042">
        <ele>13.0</ele>
        <time>2026-06-05T12:03:39</time>
      </trkpt>
      <trkpt lat="36.0730179771781" lon="129.40867295488715">
        <ele>13.0</ele>
        <time>2026-06-05T12:03:40</time>
      </trkpt>
      <trkpt lat="36.07297698967159" lon="129.40862794406712">
        <ele>13.0</ele>
        <time>2026-06-05T12:03:41</time>
      </trkpt>
      <trkpt lat="36.07293298467994" lon="129.40857999958098">
        <ele>13.0</ele>
        <time>2026-06-05T12:03:42</time>
      </trkpt>
      <trkpt lat="36.07288998551667" lon="129.40853096544743">
        <ele>13.0</ele>
        <time>2026-06-05T12:03:43</time>
      </trkpt>
      <trkpt lat="36.07284992001951" lon="129.40847799181938">
        <ele>13.0</ele>
        <time>2026-06-05T12:03:44</time>
      </trkpt>
      <trkpt lat="36.07280993834138" lon="129.4084249343723">
        <ele>13.0</ele>
        <time>2026-06-05T12:03:45</time>
      </trkpt>
      <trkpt lat="36.07276995666325" lon="129.40837196074426">
        <ele>12.8</ele>
        <time>2026-06-05T12:03:46</time>
      </trkpt>
      <trkpt lat="36.07272896915674" lon="129.4083199929446">
        <ele>12.8</ele>
        <time>2026-06-05T12:03:47</time>
      </trkpt>
      <trkpt lat="36.072689993306994" lon="129.40827095881104">
        <ele>12.8</ele>
        <time>2026-06-05T12:03:48</time>
      </trkpt>
      <trkpt lat="36.072650933638215" lon="129.40822494216263">
        <ele>12.8</ele>
        <time>2026-06-05T12:03:49</time>
      </trkpt>
      <trkpt lat="36.07261296361685" lon="129.40817892551422">
        <ele>12.8</ele>
        <time>2026-06-05T12:03:50</time>
      </trkpt>
      <trkpt lat="36.07257692143321" lon="129.40813198685646">
        <ele>12.8</ele>
        <time>2026-06-05T12:03:51</time>
      </trkpt>
      <trkpt lat="36.072542974725366" lon="129.4080839585513">
        <ele>12.8</ele>
        <time>2026-06-05T12:03:52</time>
      </trkpt>
      <trkpt lat="36.07251196168363" lon="129.40803299658">
        <ele>13.0</ele>
        <time>2026-06-05T12:03:53</time>
      </trkpt>
      <trkpt lat="36.07248296029866" lon="129.4079809449613">
        <ele>13.0</ele>
        <time>2026-06-05T12:03:54</time>
      </trkpt>
      <trkpt lat="36.072456976398826" lon="129.4079259596765">
        <ele>13.0</ele>
        <time>2026-06-05T12:03:55</time>
      </trkpt>
      <trkpt lat="36.072433926165104" lon="129.4078659452498">
        <ele>13.0</ele>
        <time>2026-06-05T12:03:56</time>
      </trkpt>
      <trkpt lat="36.072412971407175" lon="129.4078049249947">
        <ele>13.0</ele>
        <time>2026-06-05T12:03:57</time>
      </trkpt>
      <trkpt lat="36.07239595614374" lon="129.40774298273027">
        <ele>13.0</ele>
        <time>2026-06-05T12:03:58</time>
      </trkpt>
      <trkpt lat="36.07238095253706" lon="129.4076809566468">
        <ele>13.0</ele>
        <time>2026-06-05T12:03:59</time>
      </trkpt>
      <trkpt lat="36.072368966415524" lon="129.4076199363917">
        <ele>13.0</ele>
        <time>2026-06-05T12:04:00</time>
      </trkpt>
      <trkpt lat="36.07235999777913" lon="129.40756092779338">
        <ele>13.0</ele>
        <time>2026-06-05T12:04:01</time>
      </trkpt>
      <trkpt lat="36.072351951152086" lon="129.40750393085182">
        <ele>13.0</ele>
        <time>2026-06-05T12:04:02</time>
      </trkpt>
      <trkpt lat="36.072344994172454" lon="129.4074499513954">
        <ele>13.0</ele>
        <time>2026-06-05T12:04:03</time>
      </trkpt>
      <trkpt lat="36.07233895920217" lon="129.40739798359573">
        <ele>13.0</ele>
        <time>2026-06-05T12:04:04</time>
      </trkpt>
      <trkpt lat="36.07233292423189" lon="129.4073479436338">
        <ele>12.8</ele>
        <time>2026-06-05T12:04:05</time>
      </trkpt>
      <trkpt lat="36.072326973080635" lon="129.4072979874909">
        <ele>12.8</ele>
        <time>2026-06-05T12:04:06</time>
      </trkpt>
      <trkpt lat="36.07231993228197" lon="129.40724694170058">
        <ele>12.8</ele>
        <time>2026-06-05T12:04:07</time>
      </trkpt>
      <trkpt lat="36.07231096364558" lon="129.4071959797293">
        <ele>12.8</ele>
        <time>2026-06-05T12:04:08</time>
      </trkpt>
      <trkpt lat="36.072301995009184" lon="129.4071439281106">
        <ele>12.8</ele>
        <time>2026-06-05T12:04:09</time>
      </trkpt>
      <trkpt lat="36.07228992506862" lon="129.40709095448256">
        <ele>12.8</ele>
        <time>2026-06-05T12:04:10</time>
      </trkpt>
      <trkpt lat="36.07227894477546" lon="129.4070389866829">
        <ele>12.8</ele>
        <time>2026-06-05T12:04:11</time>
      </trkpt>
      <trkpt lat="36.07226897031069" lon="129.4069869350642">
        <ele>12.8</ele>
        <time>2026-06-05T12:04:12</time>
      </trkpt>
      <trkpt lat="36.07225991785526" lon="129.4069359730929">
        <ele>12.8</ele>
        <time>2026-06-05T12:04:13</time>
      </trkpt>
      <trkpt lat="36.07225094921887" lon="129.40688693895936">
        <ele>12.8</ele>
        <time>2026-06-05T12:04:14</time>
      </trkpt>
      <trkpt lat="36.07224399223924" lon="129.40683698281646">
        <ele>12.8</ele>
        <time>2026-06-05T12:04:15</time>
      </trkpt>
      <trkpt lat="36.072238963097334" lon="129.40678593702614">
        <ele>12.8</ele>
        <time>2026-06-05T12:04:16</time>
      </trkpt>
      <trkpt lat="36.07223393395543" lon="129.40673396922648">
        <ele>12.8</ele>
        <time>2026-06-05T12:04:17</time>
      </trkpt>
      <trkpt lat="36.07222898863256" lon="129.40668191760778">
        <ele>13.0</ele>
        <time>2026-06-05T12:04:18</time>
      </trkpt>
      <trkpt lat="36.072222953662276" lon="129.40662793815136">
        <ele>13.0</ele>
        <time>2026-06-05T12:04:19</time>
      </trkpt>
      <trkpt lat="36.07221691869199" lon="129.40657194703817">
        <ele>13.0</ele>
        <time>2026-06-05T12:04:20</time>
      </trkpt>
      <trkpt lat="36.07221096754074" lon="129.40651696175337">
        <ele>13.0</ele>
        <time>2026-06-05T12:04:21</time>
      </trkpt>
      <trkpt lat="36.07220493257046" lon="129.40646097064018">
        <ele>13.0</ele>
        <time>2026-06-05T12:04:22</time>
      </trkpt>
      <trkpt lat="36.072196969762444" lon="129.406404979527">
        <ele>13.0</ele>
        <time>2026-06-05T12:04:23</time>
      </trkpt>
      <trkpt lat="36.0721889231354" lon="129.40634697675705">
        <ele>12.8</ele>
        <time>2026-06-05T12:04:24</time>
      </trkpt>
      <trkpt lat="36.07218196615577" lon="129.40628796815872">
        <ele>13.0</ele>
        <time>2026-06-05T12:04:25</time>
      </trkpt>
      <trkpt lat="36.07217391952872" lon="129.4062289595604">
        <ele>13.0</ele>
        <time>2026-06-05T12:04:26</time>
      </trkpt>
      <trkpt lat="36.07216394506395" lon="129.40616995096207">
        <ele>13.0</ele>
        <time>2026-06-05T12:04:27</time>
      </trkpt>
      <trkpt lat="36.072153970599174" lon="129.40611194819212">
        <ele>13.0</ele>
        <time>2026-06-05T12:04:28</time>
      </trkpt>
      <trkpt lat="36.0721439961344" lon="129.4060579687357">
        <ele>13.0</ele>
        <time>2026-06-05T12:04:29</time>
      </trkpt>
      <trkpt lat="36.072134943678975" lon="129.40600692294538">
        <ele>13.0</ele>
        <time>2026-06-05T12:04:30</time>
      </trkpt>
      <trkpt lat="36.07212698087096" lon="129.405960990116">
        <ele>13.0</ele>
        <time>2026-06-05T12:04:31</time>
      </trkpt>
      <trkpt lat="36.07212094590068" lon="129.40591799095273">
        <ele>13.0</ele>
        <time>2026-06-05T12:04:32</time>
      </trkpt>
      <trkpt lat="36.072115916758776" lon="129.40587893128395">
        <ele>12.8</ele>
        <time>2026-06-05T12:04:33</time>
      </trkpt>
      <trkpt lat="36.072111977264285" lon="129.40584196709096">
        <ele>12.8</ele>
        <time>2026-06-05T12:04:34</time>
      </trkpt>
      <trkpt lat="36.072110971435905" lon="129.40580592490733">
        <ele>12.6</ele>
        <time>2026-06-05T12:04:35</time>
      </trkpt>
      <trkpt lat="36.072113988921046" lon="129.40576896071434">
        <ele>12.6</ele>
        <time>2026-06-05T12:04:36</time>
      </trkpt>
      <trkpt lat="36.072116922587156" lon="129.40573099069297">
        <ele>12.4</ele>
        <time>2026-06-05T12:04:37</time>
      </trkpt>
      <trkpt lat="36.07212094590068" lon="129.4056909251958">
        <ele>12.4</ele>
        <time>2026-06-05T12:04:38</time>
      </trkpt>
      <trkpt lat="36.07212295755744" lon="129.4056499376893">
        <ele>12.2</ele>
        <time>2026-06-05T12:04:39</time>
      </trkpt>
      <trkpt lat="36.07212094590068" lon="129.4056089501828">
        <ele>12.2</ele>
        <time>2026-06-05T12:04:40</time>
      </trkpt>
      <trkpt lat="36.072113988921046" lon="129.40556997433305">
        <ele>12.2</ele>
        <time>2026-06-05T12:04:41</time>
      </trkpt>
      <trkpt lat="36.07210292480886" lon="129.40553192049265">
        <ele>12.2</ele>
        <time>2026-06-05T12:04:42</time>
      </trkpt>
      <trkpt lat="36.07208792120218" lon="129.40549596212804">
        <ele>12.2</ele>
        <time>2026-06-05T12:04:43</time>
      </trkpt>
      <trkpt lat="36.072067972272635" lon="129.40546193160117">
        <ele>12.4</ele>
        <time>2026-06-05T12:04:44</time>
      </trkpt>
      <trkpt lat="36.072047939524055" lon="129.40543393604457">
        <ele>12.4</ele>
        <time>2026-06-05T12:04:45</time>
      </trkpt>
      <trkpt lat="36.07203394174576" lon="129.4054099638015">
        <ele>12.4</ele>
        <time>2026-06-05T12:04:46</time>
      </trkpt>
      <trkpt lat="36.07202899642289" lon="129.40538892522454">
        <ele>12.4</ele>
        <time>2026-06-05T12:04:47</time>
      </trkpt>
      <trkpt lat="36.072025978937745" lon="129.40536998212337">
        <ele>12.4</ele>
        <time>2026-06-05T12:04:48</time>
      </trkpt>
      <trkpt lat="36.072024973109365" lon="129.40535992383957">
        <ele>12.4</ele>
        <time>2026-06-05T12:04:49</time>
      </trkpt>
      <trkpt lat="36.072025978937745" lon="129.40535799600184">
        <ele>12.4</ele>
        <time>2026-06-05T12:04:50</time>
      </trkpt>
      <trkpt lat="36.072026984766126" lon="129.4053589180112">
        <ele>12.4</ele>
        <time>2026-06-05T12:04:51</time>
      </trkpt>
      <trkpt lat="36.07202899642289" lon="129.40536193549633">
        <ele>12.4</ele>
        <time>2026-06-05T12:04:52</time>
      </trkpt>
      <trkpt lat="36.071984991431236" lon="129.40538791939616">
        <ele>12.4</ele>
        <time>2026-06-05T12:05:01</time>
      </trkpt>
      <trkpt lat="36.07196898199618" lon="129.40539797767997">
        <ele>12.4</ele>
        <time>2026-06-05T12:05:02</time>
      </trkpt>
      <trkpt lat="36.07195196673274" lon="129.40540895797312">
        <ele>12.6</ele>
        <time>2026-06-05T12:05:03</time>
      </trkpt>
      <trkpt lat="36.0719349514693" lon="129.40541692078114">
        <ele>12.6</ele>
        <time>2026-06-05T12:05:04</time>
      </trkpt>
      <trkpt lat="36.07191491872072" lon="129.40541993826628">
        <ele>12.6</ele>
        <time>2026-06-05T12:05:05</time>
      </trkpt>
      <trkpt lat="36.07189295813441" lon="129.40541096962988">
        <ele>12.6</ele>
        <time>2026-06-05T12:05:06</time>
      </trkpt>
      <trkpt lat="36.07187292538583" lon="129.40538791939616">
        <ele>12.6</ele>
        <time>2026-06-05T12:05:07</time>
      </trkpt>
      <trkpt lat="36.071855993941426" lon="129.40535296685994">
        <ele>12.6</ele>
        <time>2026-06-05T12:05:08</time>
      </trkpt>
      <trkpt lat="36.07183897867799" lon="129.40531097352505">
        <ele>12.8</ele>
        <time>2026-06-05T12:05:09</time>
      </trkpt>
      <trkpt lat="36.07182196341455" lon="129.40526596270502">
        <ele>13.0</ele>
        <time>2026-06-05T12:05:10</time>
      </trkpt>
      <trkpt lat="36.07180394232273" lon="129.4052199460566">
        <ele>13.0</ele>
        <time>2026-06-05T12:05:11</time>
      </trkpt>
      <trkpt lat="36.0717829875648" lon="129.40517493523657">
        <ele>13.2</ele>
        <time>2026-06-05T12:05:12</time>
      </trkpt>
      <trkpt lat="36.07175993733108" lon="129.40512992441654">
        <ele>13.2</ele>
        <time>2026-06-05T12:05:13</time>
      </trkpt>
      <trkpt lat="36.07173495925963" lon="129.40508793108165">
        <ele>13.4</ele>
        <time>2026-06-05T12:05:14</time>
      </trkpt>
      <trkpt lat="36.0717089753598" lon="129.40504694357514">
        <ele>13.4</ele>
        <time>2026-06-05T12:05:15</time>
      </trkpt>
      <trkpt lat="36.071682991459966" lon="129.40500595606863">
        <ele>13.4</ele>
        <time>2026-06-05T12:05:16</time>
      </trkpt>
      <trkpt lat="36.07165591791272" lon="129.40496496856213">
        <ele>13.6</ele>
        <time>2026-06-05T12:05:17</time>
      </trkpt>
      <trkpt lat="36.0716259945184" lon="129.40492297522724">
        <ele>13.6</ele>
        <time>2026-06-05T12:05:18</time>
      </trkpt>
      <trkpt lat="36.071594981476665" lon="129.40487997606397">
        <ele>13.6</ele>
        <time>2026-06-05T12:05:19</time>
      </trkpt>
      <trkpt lat="36.07156195677817" lon="129.4048369769007">
        <ele>13.6</ele>
        <time>2026-06-05T12:05:20</time>
      </trkpt>
      <trkpt lat="36.07152993790805" lon="129.40479397773743">
        <ele>13.6</ele>
        <time>2026-06-05T12:05:21</time>
      </trkpt>
      <trkpt lat="36.07149699702859" lon="129.40475097857416">
        <ele>13.8</ele>
        <time>2026-06-05T12:05:22</time>
      </trkpt>
      <trkpt lat="36.07146397233009" lon="129.40470999106765">
        <ele>13.8</ele>
        <time>2026-06-05T12:05:23</time>
      </trkpt>
      <trkpt lat="36.07143195345998" lon="129.4046689197421">
        <ele>13.8</ele>
        <time>2026-06-05T12:05:24</time>
      </trkpt>
      <trkpt lat="36.07140094041824" lon="129.40462893806398">
        <ele>13.8</ele>
        <time>2026-06-05T12:05:25</time>
      </trkpt>
      <trkpt lat="36.07137093320489" lon="129.4045869447291">
        <ele>14.0</ele>
        <time>2026-06-05T12:05:26</time>
      </trkpt>
      <trkpt lat="36.071342937648296" lon="129.40454394556582">
        <ele>14.0</ele>
        <time>2026-06-05T12:05:27</time>
      </trkpt>
      <trkpt lat="36.07131393626332" lon="129.40450195223093">
        <ele>14.0</ele>
        <time>2026-06-05T12:05:28</time>
      </trkpt>
      <trkpt lat="36.07128392904997" lon="129.40445895306766">
        <ele>14.2</ele>
        <time>2026-06-05T12:05:29</time>
      </trkpt>
      <trkpt lat="36.071251993998885" lon="129.4044159539044">
        <ele>14.2</ele>
        <time>2026-06-05T12:05:30</time>
      </trkpt>
      <trkpt lat="36.07121796347201" lon="129.4043739605695">
        <ele>14.4</ele>
        <time>2026-06-05T12:05:31</time>
      </trkpt>
      <trkpt lat="36.07118493877351" lon="129.4043319672346">
        <ele>14.6</ele>
        <time>2026-06-05T12:05:32</time>
      </trkpt>
      <trkpt lat="36.07115099206567" lon="129.40428997389972">
        <ele>14.6</ele>
        <time>2026-06-05T12:05:33</time>
      </trkpt>
      <trkpt lat="36.07111796736717" lon="129.40424798056483">
        <ele>14.6</ele>
        <time>2026-06-05T12:05:34</time>
      </trkpt>
      <trkpt lat="36.07108594849706" lon="129.4042079988867">
        <ele>14.6</ele>
        <time>2026-06-05T12:05:35</time>
      </trkpt>
      <trkpt lat="36.07105392962694" lon="129.40416692756116">
        <ele>14.6</ele>
        <time>2026-06-05T12:05:36</time>
      </trkpt>
      <trkpt lat="36.07102291658521" lon="129.40412594005466">
        <ele>14.4</ele>
        <time>2026-06-05T12:05:37</time>
      </trkpt>
      <trkpt lat="36.070993999019265" lon="129.40408294089139">
        <ele>14.4</ele>
        <time>2026-06-05T12:05:38</time>
      </trkpt>
      <trkpt lat="36.07096591964364" lon="129.40403893589973">
        <ele>14.4</ele>
        <time>2026-06-05T12:05:39</time>
      </trkpt>
      <trkpt lat="36.07093792408705" lon="129.40399493090808">
        <ele>14.4</ele>
        <time>2026-06-05T12:05:40</time>
      </trkpt>
      <trkpt lat="36.070911940187216" lon="129.4039489980787">
        <ele>14.4</ele>
        <time>2026-06-05T12:05:41</time>
      </trkpt>
      <trkpt lat="36.070887967944145" lon="129.40390096977353">
        <ele>14.4</ele>
        <time>2026-06-05T12:05:42</time>
      </trkpt>
      <trkpt lat="36.07086491771042" lon="129.40385193563998">
        <ele>14.4</ele>
        <time>2026-06-05T12:05:43</time>
      </trkpt>
      <trkpt lat="36.070843962952495" lon="129.40380197949708">
        <ele>14.4</ele>
        <time>2026-06-05T12:05:44</time>
      </trkpt>
      <trkpt lat="36.070822924375534" lon="129.40374992787838">
        <ele>14.4</ele>
        <time>2026-06-05T12:05:45</time>
      </trkpt>
      <trkpt lat="36.070802975445986" lon="129.40369796007872">
        <ele>14.4</ele>
        <time>2026-06-05T12:05:46</time>
      </trkpt>
      <trkpt lat="36.070782942697406" lon="129.40364599227905">
        <ele>14.4</ele>
        <time>2026-06-05T12:05:47</time>
      </trkpt>
      <trkpt lat="36.07076198793948" lon="129.40359394066036">
        <ele>14.4</ele>
        <time>2026-06-05T12:05:48</time>
      </trkpt>
      <trkpt lat="36.070739943534136" lon="129.40354297868907">
        <ele>14.4</ele>
        <time>2026-06-05T12:05:49</time>
      </trkpt>
      <trkpt lat="36.070717982947826" lon="129.40349193289876">
        <ele>14.4</ele>
        <time>2026-06-05T12:05:50</time>
      </trkpt>
      <trkpt lat="36.070693926885724" lon="129.40344097092748">
        <ele>14.4</ele>
        <time>2026-06-05T12:05:51</time>
      </trkpt>
      <trkpt lat="36.070670960471034" lon="129.40338891930878">
        <ele>14.6</ele>
        <time>2026-06-05T12:05:52</time>
      </trkpt>
      <trkpt lat="36.070647994056344" lon="129.40333695150912">
        <ele>14.6</ele>
        <time>2026-06-05T12:05:53</time>
      </trkpt>
      <trkpt lat="36.070625949651" lon="129.40328498370945">
        <ele>14.6</ele>
        <time>2026-06-05T12:05:54</time>
      </trkpt>
      <trkpt lat="36.07060197740793" lon="129.40323494374752">
        <ele>14.6</ele>
        <time>2026-06-05T12:05:55</time>
      </trkpt>
      <trkpt lat="36.07057498767972" lon="129.40318699926138">
        <ele>14.4</ele>
        <time>2026-06-05T12:05:56</time>
      </trkpt>
      <trkpt lat="36.070544980466366" lon="129.40313695929945">
        <ele>14.6</ele>
        <time>2026-06-05T12:05:57</time>
      </trkpt>
      <trkpt lat="36.07051597908139" lon="129.4030839856714">
        <ele>14.6</ele>
        <time>2026-06-05T12:05:58</time>
      </trkpt>
      <trkpt lat="36.0704879835248" lon="129.40302799455822">
        <ele>14.6</ele>
        <time>2026-06-05T12:05:59</time>
      </trkpt>
      <trkpt lat="36.07046199962497" lon="129.40297099761665">
        <ele>14.6</ele>
        <time>2026-06-05T12:06:00</time>
      </trkpt>
      <trkpt lat="36.070436937734485" lon="129.40291391685605">
        <ele>14.6</ele>
        <time>2026-06-05T12:06:01</time>
      </trkpt>
      <trkpt lat="36.07041195966303" lon="129.40285792574286">
        <ele>14.6</ele>
        <time>2026-06-05T12:06:02</time>
      </trkpt>
      <trkpt lat="36.07038698159158" lon="129.40280294045806">
        <ele>14.6</ele>
        <time>2026-06-05T12:06:03</time>
      </trkpt>
      <trkpt lat="36.07036292552948" lon="129.40274694934487">
        <ele>14.6</ele>
        <time>2026-06-05T12:06:04</time>
      </trkpt>
      <trkpt lat="36.07033895328641" lon="129.40269196406007">
        <ele>14.8</ele>
        <time>2026-06-05T12:06:05</time>
      </trkpt>
      <trkpt lat="36.07031498104334" lon="129.40263597294688">
        <ele>14.8</ele>
        <time>2026-06-05T12:06:06</time>
      </trkpt>
      <trkpt lat="36.07029092498124" lon="129.4025799818337">
        <ele>14.8</ele>
        <time>2026-06-05T12:06:07</time>
      </trkpt>
      <trkpt lat="36.070264941081405" lon="129.4025239907205">
        <ele>14.8</ele>
        <time>2026-06-05T12:06:08</time>
      </trkpt>
      <trkpt lat="36.07023996300995" lon="129.40246892161667">
        <ele>14.8</ele>
        <time>2026-06-05T12:06:09</time>
      </trkpt>
      <trkpt lat="36.0702149849385" lon="129.40241494216025">
        <ele>14.8</ele>
        <time>2026-06-05T12:06:10</time>
      </trkpt>
      <trkpt lat="36.07018992304802" lon="129.40235995687544">
        <ele>14.8</ele>
        <time>2026-06-05T12:06:11</time>
      </trkpt>
      <trkpt lat="36.07016494497657" lon="129.40230597741902">
        <ele>14.8</ele>
        <time>2026-06-05T12:06:12</time>
      </trkpt>
      <trkpt lat="36.07014197856188" lon="129.40225291997194">
        <ele>14.8</ele>
        <time>2026-06-05T12:06:13</time>
      </trkpt>
      <trkpt lat="36.07011892832816" lon="129.40220095217228">
        <ele>14.6</ele>
        <time>2026-06-05T12:06:14</time>
      </trkpt>
      <trkpt lat="36.07009696774185" lon="129.40215099602938">
        <ele>14.6</ele>
        <time>2026-06-05T12:06:15</time>
      </trkpt>
      <trkpt lat="36.07007592916489" lon="129.4021029677242">
        <ele>14.6</ele>
        <time>2026-06-05T12:06:16</time>
      </trkpt>
      <trkpt lat="36.07005598023534" lon="129.40205493941903">
        <ele>14.6</ele>
        <time>2026-06-05T12:06:17</time>
      </trkpt>
      <trkpt lat="36.07003594748676" lon="129.40200791694224">
        <ele>14.4</ele>
        <time>2026-06-05T12:06:18</time>
      </trkpt>
      <trkpt lat="36.07001692056656" lon="129.40196097828448">
        <ele>14.4</ele>
        <time>2026-06-05T12:06:19</time>
      </trkpt>
      <trkpt lat="36.06999697163701" lon="129.40191496163607">
        <ele>14.4</ele>
        <time>2026-06-05T12:06:20</time>
      </trkpt>
      <trkpt lat="36.06997794471681" lon="129.40186894498765">
        <ele>14.4</ele>
        <time>2026-06-05T12:06:21</time>
      </trkpt>
      <trkpt lat="36.06995799578726" lon="129.40182594582438">
        <ele>14.4</ele>
        <time>2026-06-05T12:06:22</time>
      </trkpt>
      <trkpt lat="36.069939974695444" lon="129.40178194083273">
        <ele>14.4</ele>
        <time>2026-06-05T12:06:23</time>
      </trkpt>
      <trkpt lat="36.069921953603625" lon="129.40173894166946">
        <ele>14.4</ele>
        <time>2026-06-05T12:06:24</time>
      </trkpt>
      <trkpt lat="36.06990393251181" lon="129.4016949366778">
        <ele>14.4</ele>
        <time>2026-06-05T12:06:25</time>
      </trkpt>
      <trkpt lat="36.06988398358226" lon="129.40165294334292">
        <ele>14.4</ele>
        <time>2026-06-05T12:06:26</time>
      </trkpt>
      <trkpt lat="36.0698629450053" lon="129.40161195583642">
        <ele>14.4</ele>
        <time>2026-06-05T12:06:27</time>
      </trkpt>
      <trkpt lat="36.06984199024737" lon="129.40157398581505">
        <ele>14.4</ele>
        <time>2026-06-05T12:06:28</time>
      </trkpt>
      <trkpt lat="36.06982195749879" lon="129.40153995528817">
        <ele>14.4</ele>
        <time>2026-06-05T12:06:29</time>
      </trkpt>
      <trkpt lat="36.06980494223535" lon="129.40150994807482">
        <ele>14.2</ele>
        <time>2026-06-05T12:06:30</time>
      </trkpt>
      <trkpt lat="36.06978893280029" lon="129.40148195251822">
        <ele>14.2</ele>
        <time>2026-06-05T12:06:31</time>
      </trkpt>
      <trkpt lat="36.069772923365235" lon="129.4014559686184">
        <ele>14.2</ele>
        <time>2026-06-05T12:06:32</time>
      </trkpt>
      <trkpt lat="36.06975196860731" lon="129.40143291838467">
        <ele>14.2</ele>
        <time>2026-06-05T12:06:33</time>
      </trkpt>
      <trkpt lat="36.069728918373585" lon="129.40140794031322">
        <ele>14.2</ele>
        <time>2026-06-05T12:06:34</time>
      </trkpt>
      <trkpt lat="36.069704946130514" lon="129.40137893892825">
        <ele>14.2</ele>
        <time>2026-06-05T12:06:35</time>
      </trkpt>
      <trkpt lat="36.06967896223068" lon="129.40134692005813">
        <ele>14.2</ele>
        <time>2026-06-05T12:06:36</time>
      </trkpt>
      <trkpt lat="36.06965297833085" lon="129.40131599083543">
        <ele>14.2</ele>
        <time>2026-06-05T12:06:37</time>
      </trkpt>
      <trkpt lat="36.06962892226875" lon="129.40128698945045">
        <ele>14.2</ele>
        <time>2026-06-05T12:06:38</time>
      </trkpt>
      <trkpt lat="36.06960495002568" lon="129.40126293338835">
        <ele>14.2</ele>
        <time>2026-06-05T12:06:39</time>
      </trkpt>
      <trkpt lat="36.06958198361099" lon="129.40123996697366">
        <ele>14.4</ele>
        <time>2026-06-05T12:06:40</time>
      </trkpt>
      <trkpt lat="36.06955993920565" lon="129.40121792256832">
        <ele>14.4</ele>
        <time>2026-06-05T12:06:41</time>
      </trkpt>
      <trkpt lat="36.069534961134195" lon="129.40119495615363">
        <ele>14.4</ele>
        <time>2026-06-05T12:06:42</time>
      </trkpt>
      <trkpt lat="36.069509983062744" lon="129.40117098391056">
        <ele>14.4</ele>
        <time>2026-06-05T12:06:43</time>
      </trkpt>
      <trkpt lat="36.06948399916291" lon="129.40114592202008">
        <ele>14.6</ele>
        <time>2026-06-05T12:06:44</time>
      </trkpt>
      <trkpt lat="36.06945893727243" lon="129.40111993812025">
        <ele>14.6</ele>
        <time>2026-06-05T12:06:45</time>
      </trkpt>
      <trkpt lat="36.06943395920098" lon="129.40109294839203">
        <ele>14.8</ele>
        <time>2026-06-05T12:06:46</time>
      </trkpt>
      <trkpt lat="36.06940998695791" lon="129.40106595866382">
        <ele>14.8</ele>
        <time>2026-06-05T12:06:47</time>
      </trkpt>
      <trkpt lat="36.069383919239044" lon="129.401039974764">
        <ele>14.8</ele>
        <time>2026-06-05T12:06:48</time>
      </trkpt>
      <trkpt lat="36.06935592368245" lon="129.40101399086416">
        <ele>14.8</ele>
        <time>2026-06-05T12:06:49</time>
      </trkpt>
      <trkpt lat="36.06932692229748" lon="129.4009869173169">
        <ele>14.8</ele>
        <time>2026-06-05T12:06:50</time>
      </trkpt>
      <trkpt lat="36.069295993074775" lon="129.4009599275887">
        <ele>14.8</ele>
        <time>2026-06-05T12:06:51</time>
      </trkpt>
      <trkpt lat="36.06926498003304" lon="129.4009319320321">
        <ele>14.6</ele>
        <time>2026-06-05T12:06:52</time>
      </trkpt>
      <trkpt lat="36.069232961162925" lon="129.40089999698102">
        <ele>14.6</ele>
        <time>2026-06-05T12:06:53</time>
      </trkpt>
      <trkpt lat="36.06919993646443" lon="129.40086697228253">
        <ele>14.6</ele>
        <time>2026-06-05T12:06:54</time>
      </trkpt>
      <trkpt lat="36.069166995584965" lon="129.40083193592727">
        <ele>14.6</ele>
        <time>2026-06-05T12:06:55</time>
      </trkpt>
      <trkpt lat="36.06913296505809" lon="129.40079597756267">
        <ele>14.4</ele>
        <time>2026-06-05T12:06:56</time>
      </trkpt>
      <trkpt lat="36.06909692287445" lon="129.40075892955065">
        <ele>14.4</ele>
        <time>2026-06-05T12:06:57</time>
      </trkpt>
      <trkpt lat="36.069058952853084" lon="129.40072297118604">
        <ele>14.4</ele>
        <time>2026-06-05T12:06:58</time>
      </trkpt>
      <trkpt lat="36.06902098283172" lon="129.40068592317402">
        <ele>14.4</ele>
        <time>2026-06-05T12:06:59</time>
      </trkpt>
      <trkpt lat="36.06898091733456" lon="129.40064795315266">
        <ele>14.4</ele>
        <time>2026-06-05T12:07:00</time>
      </trkpt>
      <trkpt lat="36.06893892399967" lon="129.4006099831313">
        <ele>14.6</ele>
        <time>2026-06-05T12:07:01</time>
      </trkpt>
      <trkpt lat="36.0688959248364" lon="129.40057293511927">
        <ele>14.6</ele>
        <time>2026-06-05T12:07:02</time>
      </trkpt>
      <trkpt lat="36.06885191984475" lon="129.40053597092628">
        <ele>14.6</ele>
        <time>2026-06-05T12:07:03</time>
      </trkpt>
      <trkpt lat="36.06880799867213" lon="129.40050093457103">
        <ele>14.8</ele>
        <time>2026-06-05T12:07:04</time>
      </trkpt>
      <trkpt lat="36.06876499950886" lon="129.40046698786318">
        <ele>14.8</ele>
        <time>2026-06-05T12:07:05</time>
      </trkpt>
      <trkpt lat="36.06872392818332" lon="129.40043597482145">
        <ele>14.8</ele>
        <time>2026-06-05T12:07:06</time>
      </trkpt>
      <trkpt lat="36.06868193484843" lon="129.40040697343647">
        <ele>15.0</ele>
        <time>2026-06-05T12:07:07</time>
      </trkpt>
      <trkpt lat="36.06863792985678" lon="129.40038291737437">
        <ele>15.0</ele>
        <time>2026-06-05T12:07:08</time>
      </trkpt>
      <trkpt lat="36.068592919036746" lon="129.40036196261644">
        <ele>15.0</ele>
        <time>2026-06-05T12:07:09</time>
      </trkpt>
      <trkpt lat="36.068545980378985" lon="129.400344947353">
        <ele>15.2</ele>
        <time>2026-06-05T12:07:10</time>
      </trkpt>
      <trkpt lat="36.06849694624543" lon="129.40032893791795">
        <ele>15.2</ele>
        <time>2026-06-05T12:07:11</time>
      </trkpt>
      <trkpt lat="36.06844598427415" lon="129.40031494013965">
        <ele>15.2</ele>
        <time>2026-06-05T12:07:12</time>
      </trkpt>
      <trkpt lat="36.068394938483834" lon="129.40030094236135">
        <ele>15.4</ele>
        <time>2026-06-05T12:07:13</time>
      </trkpt>
      <trkpt lat="36.06834397651255" lon="129.4002849329263">
        <ele>15.6</ele>
        <time>2026-06-05T12:07:14</time>
      </trkpt>
      <trkpt lat="36.06829293072224" lon="129.40026791766286">
        <ele>15.8</ele>
        <time>2026-06-05T12:07:15</time>
      </trkpt>
      <trkpt lat="36.068243980407715" lon="129.40025199204683">
        <ele>16.0</ele>
        <time>2026-06-05T12:07:16</time>
      </trkpt>
      <trkpt lat="36.06819394044578" lon="129.40023799426854">
        <ele>16.0</ele>
        <time>2026-06-05T12:07:17</time>
      </trkpt>
      <trkpt lat="36.06814398430288" lon="129.4002249184996">
        <ele>16.2</ele>
        <time>2026-06-05T12:07:18</time>
      </trkpt>
      <trkpt lat="36.068092938512564" lon="129.40021192654967">
        <ele>16.4</ele>
        <time>2026-06-05T12:07:19</time>
      </trkpt>
      <trkpt lat="36.06804197654128" lon="129.40019792877138">
        <ele>16.4</ele>
        <time>2026-06-05T12:07:20</time>
      </trkpt>
      <trkpt lat="36.067989924922585" lon="129.40018393099308">
        <ele>16.4</ele>
        <time>2026-06-05T12:07:21</time>
      </trkpt>
      <trkpt lat="36.06793795712292" lon="129.4001689273864">
        <ele>16.4</ele>
        <time>2026-06-05T12:07:22</time>
      </trkpt>
      <trkpt lat="36.06788598932326" lon="129.40015291795135">
        <ele>16.4</ele>
        <time>2026-06-05T12:07:23</time>
      </trkpt>
      <trkpt lat="36.06783293187618" lon="129.40013992600143">
        <ele>16.4</ele>
        <time>2026-06-05T12:07:24</time>
      </trkpt>
      <trkpt lat="36.06777995824814" lon="129.40012592822313">
        <ele>16.2</ele>
        <time>2026-06-05T12:07:25</time>
      </trkpt>
      <trkpt lat="36.067727990448475" lon="129.40011092461646">
        <ele>16.2</ele>
        <time>2026-06-05T12:07:26</time>
      </trkpt>
      <trkpt lat="36.06767895631492" lon="129.40009499900043">
        <ele>16.2</ele>
        <time>2026-06-05T12:07:27</time>
      </trkpt>
      <trkpt lat="36.06763293966651" lon="129.40007898956537">
        <ele>16.0</ele>
        <time>2026-06-05T12:07:28</time>
      </trkpt>
      <trkpt lat="36.06758994050324" lon="129.4000639859587">
        <ele>16.0</ele>
        <time>2026-06-05T12:07:29</time>
      </trkpt>
      <trkpt lat="36.06754995882511" lon="129.40005099400878">
        <ele>15.8</ele>
        <time>2026-06-05T12:07:30</time>
      </trkpt>
      <trkpt lat="36.067511988803744" lon="129.40003791823983">
        <ele>15.8</ele>
        <time>2026-06-05T12:07:31</time>
      </trkpt>
      <trkpt lat="36.067474940791726" lon="129.4000259321183">
        <ele>15.8</ele>
        <time>2026-06-05T12:07:32</time>
      </trkpt>
      <trkpt lat="36.06743596494198" lon="129.40001394599676">
        <ele>15.8</ele>
        <time>2026-06-05T12:07:33</time>
      </trkpt>
      <trkpt lat="36.06739598326385" lon="129.40000095404685">
        <ele>15.8</ele>
        <time>2026-06-05T12:07:34</time>
      </trkpt>
      <trkpt lat="36.06735298410058" lon="129.39998595044017">
        <ele>15.8</ele>
        <time>2026-06-05T12:07:35</time>
      </trkpt>
      <trkpt lat="36.06730797328055" lon="129.39997195266187">
        <ele>15.6</ele>
        <time>2026-06-05T12:07:36</time>
      </trkpt>
      <trkpt lat="36.06726195663214" lon="129.3999569490552">
        <ele>15.6</ele>
        <time>2026-06-05T12:07:37</time>
      </trkpt>
      <trkpt lat="36.067213928326964" lon="129.39994194544852">
        <ele>15.6</ele>
        <time>2026-06-05T12:07:38</time>
      </trkpt>
      <trkpt lat="36.06716497801244" lon="129.39992694184184">
        <ele>15.6</ele>
        <time>2026-06-05T12:07:39</time>
      </trkpt>
      <trkpt lat="36.06711493805051" lon="129.3999099265784">
        <ele>15.6</ele>
        <time>2026-06-05T12:07:40</time>
      </trkpt>
      <trkpt lat="36.06706699356437" lon="129.39989391714334">
        <ele>15.6</ele>
        <time>2026-06-05T12:07:41</time>
      </trkpt>
      <trkpt lat="36.067020976915956" lon="129.39987698569894">
        <ele>15.6</ele>
        <time>2026-06-05T12:07:42</time>
      </trkpt>
      <trkpt lat="36.066974960267544" lon="129.39985896460712">
        <ele>15.6</ele>
        <time>2026-06-05T12:07:43</time>
      </trkpt>
      <trkpt lat="36.06692793779075" lon="129.39984194934368">
        <ele>15.6</ele>
        <time>2026-06-05T12:07:44</time>
      </trkpt>
      <trkpt lat="36.06687898747623" lon="129.39982493408024">
        <ele>15.4</ele>
        <time>2026-06-05T12:07:45</time>
      </trkpt>
      <trkpt lat="36.066829953342676" lon="129.3998079188168">
        <ele>15.4</ele>
        <time>2026-06-05T12:07:46</time>
      </trkpt>
      <trkpt lat="36.06677899137139" lon="129.39979299902916">
        <ele>15.4</ele>
        <time>2026-06-05T12:07:47</time>
      </trkpt>
      <trkpt lat="36.06672794558108" lon="129.3997769895941">
        <ele>15.4</ele>
        <time>2026-06-05T12:07:48</time>
      </trkpt>
      <trkpt lat="36.066675977781415" lon="129.39976098015904">
        <ele>15.4</ele>
        <time>2026-06-05T12:07:49</time>
      </trkpt>
      <trkpt lat="36.06662593781948" lon="129.399744970724">
        <ele>15.4</ele>
        <time>2026-06-05T12:07:50</time>
      </trkpt>
      <trkpt lat="36.06657598167658" lon="129.3997299671173">
        <ele>15.4</ele>
        <time>2026-06-05T12:07:51</time>
      </trkpt>
      <trkpt lat="36.066528959199786" lon="129.39971496351063">
        <ele>15.4</ele>
        <time>2026-06-05T12:07:52</time>
      </trkpt>
      <trkpt lat="36.066482942551374" lon="129.39969995990396">
        <ele>15.4</ele>
        <time>2026-06-05T12:07:53</time>
      </trkpt>
      <trkpt lat="36.066438937559724" lon="129.3996839504689">
        <ele>15.4</ele>
        <time>2026-06-05T12:07:54</time>
      </trkpt>
      <trkpt lat="36.06639493256807" lon="129.3996649235487">
        <ele>15.6</ele>
        <time>2026-06-05T12:07:55</time>
      </trkpt>
      <trkpt lat="36.06635092757642" lon="129.39964095130563">
        <ele>15.6</ele>
        <time>2026-06-05T12:07:56</time>
      </trkpt>
      <trkpt lat="36.06630692258477" lon="129.39961396157742">
        <ele>15.8</ele>
        <time>2026-06-05T12:07:57</time>
      </trkpt>
      <trkpt lat="36.06626291759312" lon="129.39958294853568">
        <ele>16.0</ele>
        <time>2026-06-05T12:07:58</time>
      </trkpt>
      <trkpt lat="36.0662189964205" lon="129.39954992383718">
        <ele>15.8</ele>
        <time>2026-06-05T12:07:59</time>
      </trkpt>
      <trkpt lat="36.06617499142885" lon="129.39951195381582">
        <ele>15.8</ele>
        <time>2026-06-05T12:08:00</time>
      </trkpt>
      <trkpt lat="36.06612998060882" lon="129.39947297796607">
        <ele>15.8</ele>
        <time>2026-06-05T12:08:01</time>
      </trkpt>
      <trkpt lat="36.06608496978879" lon="129.3994299788028">
        <ele>15.8</ele>
        <time>2026-06-05T12:08:02</time>
      </trkpt>
      <trkpt lat="36.06603694148362" lon="129.3993879854679">
        <ele>15.8</ele>
        <time>2026-06-05T12:08:03</time>
      </trkpt>
      <trkpt lat="36.06598497368395" lon="129.39934398047626">
        <ele>15.8</ele>
        <time>2026-06-05T12:08:04</time>
      </trkpt>
      <trkpt lat="36.06593099422753" lon="129.39929896965623">
        <ele>15.8</ele>
        <time>2026-06-05T12:08:05</time>
      </trkpt>
      <trkpt lat="36.06587693095207" lon="129.39925094135106">
        <ele>15.8</ele>
        <time>2026-06-05T12:08:06</time>
      </trkpt>
      <trkpt lat="36.06582295149565" lon="129.39920391887426">
        <ele>15.6</ele>
        <time>2026-06-05T12:08:07</time>
      </trkpt>
      <trkpt lat="36.0657699778676" lon="129.3991569802165">
        <ele>15.6</ele>
        <time>2026-06-05T12:08:08</time>
      </trkpt>
      <trkpt lat="36.06571893207729" lon="129.39911196939647">
        <ele>15.6</ele>
        <time>2026-06-05T12:08:09</time>
      </trkpt>
      <trkpt lat="36.065668975934386" lon="129.39906695857644">
        <ele>15.6</ele>
        <time>2026-06-05T12:08:10</time>
      </trkpt>
      <trkpt lat="36.065621953457594" lon="129.39902496524155">
        <ele>15.6</ele>
        <time>2026-06-05T12:08:11</time>
      </trkpt>
      <trkpt lat="36.06557694263756" lon="129.39898397773504">
        <ele>15.6</ele>
        <time>2026-06-05T12:08:12</time>
      </trkpt>
      <trkpt lat="36.06553193181753" lon="129.39894399605691">
        <ele>15.6</ele>
        <time>2026-06-05T12:08:13</time>
      </trkpt>
      <trkpt lat="36.06548792682588" lon="129.39890493638813">
        <ele>15.6</ele>
        <time>2026-06-05T12:08:14</time>
      </trkpt>
      <trkpt lat="36.06544593349099" lon="129.3988659605384">
        <ele>15.4</ele>
        <time>2026-06-05T12:08:15</time>
      </trkpt>
      <trkpt lat="36.06540192849934" lon="129.39882698468864">
        <ele>15.4</ele>
        <time>2026-06-05T12:08:16</time>
      </trkpt>
      <trkpt lat="36.06535792350769" lon="129.39878792501986">
        <ele>15.4</ele>
        <time>2026-06-05T12:08:17</time>
      </trkpt>
      <trkpt lat="36.06531299650669" lon="129.3987489491701">
        <ele>15.6</ele>
        <time>2026-06-05T12:08:18</time>
      </trkpt>
      <trkpt lat="36.06526697985828" lon="129.39871097914875">
        <ele>15.6</ele>
        <time>2026-06-05T12:08:19</time>
      </trkpt>
      <trkpt lat="36.06522096320987" lon="129.39867191947997">
        <ele>15.6</ele>
        <time>2026-06-05T12:08:20</time>
      </trkpt>
      <trkpt lat="36.065175952389836" lon="129.39863294363022">
        <ele>15.4</ele>
        <time>2026-06-05T12:08:21</time>
      </trkpt>
      <trkpt lat="36.065129935741425" lon="129.39859396778047">
        <ele>15.4</ele>
        <time>2026-06-05T12:08:22</time>
      </trkpt>
      <trkpt lat="36.06508391909301" lon="129.39855499193072">
        <ele>15.4</ele>
        <time>2026-06-05T12:08:23</time>
      </trkpt>
      <trkpt lat="36.06503798626363" lon="129.39851593226194">
        <ele>15.4</ele>
        <time>2026-06-05T12:08:24</time>
      </trkpt>
      <trkpt lat="36.06499196961522" lon="129.39847796224058">
        <ele>15.2</ele>
        <time>2026-06-05T12:08:25</time>
      </trkpt>
      <trkpt lat="36.06494695879519" lon="129.3984399922192">
        <ele>15.2</ele>
        <time>2026-06-05T12:08:26</time>
      </trkpt>
      <trkpt lat="36.06490295380354" lon="129.3984019383788">
        <ele>15.2</ele>
        <time>2026-06-05T12:08:27</time>
      </trkpt>
      <trkpt lat="36.06485995464027" lon="129.39836296252906">
        <ele>15.2</ele>
        <time>2026-06-05T12:08:28</time>
      </trkpt>
      <trkpt lat="36.064816955477" lon="129.39832398667932">
        <ele>15.2</ele>
        <time>2026-06-05T12:08:29</time>
      </trkpt>
      <trkpt lat="36.06477596797049" lon="129.39828492701054">
        <ele>15.2</ele>
        <time>2026-06-05T12:08:30</time>
      </trkpt>
      <trkpt lat="36.06473498046398" lon="129.39824896864593">
        <ele>15.2</ele>
        <time>2026-06-05T12:08:31</time>
      </trkpt>
      <trkpt lat="36.06469298712909" lon="129.3982129264623">
        <ele>15.2</ele>
        <time>2026-06-05T12:08:32</time>
      </trkpt>
      <trkpt lat="36.0646509937942" lon="129.39817897975445">
        <ele>15.4</ele>
        <time>2026-06-05T12:08:33</time>
      </trkpt>
      <trkpt lat="36.06460891664028" lon="129.39814494922757">
        <ele>15.4</ele>
        <time>2026-06-05T12:08:34</time>
      </trkpt>
      <trkpt lat="36.06456792913377" lon="129.3981109187007">
        <ele>15.4</ele>
        <time>2026-06-05T12:08:35</time>
      </trkpt>
      <trkpt lat="36.064526941627264" lon="129.39807596616447">
        <ele>15.6</ele>
        <time>2026-06-05T12:08:36</time>
      </trkpt>
      <trkpt lat="36.0644889716059" lon="129.39803992398083">
        <ele>15.6</ele>
        <time>2026-06-05T12:08:37</time>
      </trkpt>
      <trkpt lat="36.0644509177655" lon="129.39800295978785">
        <ele>15.6</ele>
        <time>2026-06-05T12:08:38</time>
      </trkpt>
      <trkpt lat="36.06441395357251" lon="129.3979669176042">
        <ele>15.6</ele>
        <time>2026-06-05T12:08:39</time>
      </trkpt>
      <trkpt lat="36.064375983551145" lon="129.39792995341122">
        <ele>15.6</ele>
        <time>2026-06-05T12:08:40</time>
      </trkpt>
      <trkpt lat="36.064338935539126" lon="129.39789198338985">
        <ele>15.6</ele>
        <time>2026-06-05T12:08:41</time>
      </trkpt>
      <trkpt lat="36.06430297717452" lon="129.39785099588335">
        <ele>15.6</ele>
        <time>2026-06-05T12:08:42</time>
      </trkpt>
      <trkpt lat="36.06426794081926" lon="129.39780799672008">
        <ele>15.6</ele>
        <time>2026-06-05T12:08:43</time>
      </trkpt>
      <trkpt lat="36.0642349999398" lon="129.39776298590004">
        <ele>15.6</ele>
        <time>2026-06-05T12:08:44</time>
      </trkpt>
      <trkpt lat="36.064204992726445" lon="129.39771696925163">
        <ele>15.6</ele>
        <time>2026-06-05T12:08:45</time>
      </trkpt>
      <trkpt lat="36.06417498551309" lon="129.39767095260322">
        <ele>15.6</ele>
        <time>2026-06-05T12:08:46</time>
      </trkpt>
      <trkpt lat="36.06414799578488" lon="129.39762393012643">
        <ele>15.8</ele>
        <time>2026-06-05T12:08:47</time>
      </trkpt>
      <trkpt lat="36.064120922237635" lon="129.3975789193064">
        <ele>15.8</ele>
        <time>2026-06-05T12:08:48</time>
      </trkpt>
      <trkpt lat="36.0640949383378" lon="129.39753499813378">
        <ele>15.8</ele>
        <time>2026-06-05T12:08:49</time>
      </trkpt>
      <trkpt lat="36.06406694278121" lon="129.39749292097986">
        <ele>15.8</ele>
        <time>2026-06-05T12:08:50</time>
      </trkpt>
      <trkpt lat="36.064039953053" lon="129.39745193347335">
        <ele>15.8</ele>
        <time>2026-06-05T12:08:51</time>
      </trkpt>
      <trkpt lat="36.064012963324785" lon="129.39741094596684">
        <ele>15.8</ele>
        <time>2026-06-05T12:08:52</time>
      </trkpt>
      <trkpt lat="36.063987985253334" lon="129.39736895263195">
        <ele>15.8</ele>
        <time>2026-06-05T12:08:53</time>
      </trkpt>
      <trkpt lat="36.06396292336285" lon="129.39732796512544">
        <ele>15.8</ele>
        <time>2026-06-05T12:08:54</time>
      </trkpt>
      <trkpt lat="36.0639379452914" lon="129.3972879834473">
        <ele>15.8</ele>
        <time>2026-06-05T12:08:55</time>
      </trkpt>
      <trkpt lat="36.06391296721995" lon="129.39724892377853">
        <ele>16.0</ele>
        <time>2026-06-05T12:08:56</time>
      </trkpt>
      <trkpt lat="36.0638879891485" lon="129.39721195958555">
        <ele>16.0</ele>
        <time>2026-06-05T12:08:57</time>
      </trkpt>
      <trkpt lat="36.063863933086395" lon="129.3971769232303">
        <ele>16.2</ele>
        <time>2026-06-05T12:08:58</time>
      </trkpt>
      <trkpt lat="36.063838955014944" lon="129.39714297652245">
        <ele>16.2</ele>
        <time>2026-06-05T12:08:59</time>
      </trkpt>
      <trkpt lat="36.06381397694349" lon="129.39710894599557">
        <ele>16.4</ele>
        <time>2026-06-05T12:09:00</time>
      </trkpt>
      <trkpt lat="36.06378992088139" lon="129.39707499928772">
        <ele>16.4</ele>
        <time>2026-06-05T12:09:01</time>
      </trkpt>
      <trkpt lat="36.06376494280994" lon="129.39703996293247">
        <ele>16.4</ele>
        <time>2026-06-05T12:09:02</time>
      </trkpt>
      <trkpt lat="36.06374097056687" lon="129.3970049265772">
        <ele>16.4</ele>
        <time>2026-06-05T12:09:03</time>
      </trkpt>
      <trkpt lat="36.06371892616153" lon="129.3969689682126">
        <ele>16.4</ele>
        <time>2026-06-05T12:09:04</time>
      </trkpt>
      <trkpt lat="36.06369595974684" lon="129.39693292602897">
        <ele>16.4</ele>
        <time>2026-06-05T12:09:05</time>
      </trkpt>
      <trkpt lat="36.06367198750377" lon="129.3968949560076">
        <ele>16.4</ele>
        <time>2026-06-05T12:09:06</time>
      </trkpt>
      <trkpt lat="36.063646925613284" lon="129.39685698598623">
        <ele>16.4</ele>
        <time>2026-06-05T12:09:07</time>
      </trkpt>
      <trkpt lat="36.06361993588507" lon="129.39681893214583">
        <ele>16.6</ele>
        <time>2026-06-05T12:09:08</time>
      </trkpt>
      <trkpt lat="36.06358992867172" lon="129.3967789504677">
        <ele>16.6</ele>
        <time>2026-06-05T12:09:09</time>
      </trkpt>
      <trkpt lat="36.063560927286744" lon="129.39673896878958">
        <ele>16.8</ele>
        <time>2026-06-05T12:09:10</time>
      </trkpt>
      <trkpt lat="36.06353192590177" lon="129.39669798128307">
        <ele>16.8</ele>
        <time>2026-06-05T12:09:11</time>
      </trkpt>
      <trkpt lat="36.06350393034518" lon="129.39665699377656">
        <ele>16.8</ele>
        <time>2026-06-05T12:09:12</time>
      </trkpt>
      <trkpt lat="36.063475934788585" lon="129.3966139946133">
        <ele>17.0</ele>
        <time>2026-06-05T12:09:13</time>
      </trkpt>
      <trkpt lat="36.06344894506037" lon="129.39656998962164">
        <ele>17.0</ele>
        <time>2026-06-05T12:09:14</time>
      </trkpt>
      <trkpt lat="36.06342195533216" lon="129.39652397297323">
        <ele>16.8</ele>
        <time>2026-06-05T12:09:15</time>
      </trkpt>
      <trkpt lat="36.06339597143233" lon="129.3964789621532">
        <ele>17.0</ele>
        <time>2026-06-05T12:09:16</time>
      </trkpt>
      <trkpt lat="36.06337099336088" lon="129.39643395133317">
        <ele>17.0</ele>
        <time>2026-06-05T12:09:17</time>
      </trkpt>
      <trkpt lat="36.063347943127155" lon="129.39638994634151">
        <ele>17.0</ele>
        <time>2026-06-05T12:09:18</time>
      </trkpt>
      <trkpt lat="36.06332698836923" lon="129.39634493552148">
        <ele>17.0</ele>
        <time>2026-06-05T12:09:19</time>
      </trkpt>
      <trkpt lat="36.06330796144903" lon="129.39629992470145">
        <ele>17.0</ele>
        <time>2026-06-05T12:09:20</time>
      </trkpt>
      <trkpt lat="36.06329094618559" lon="129.39625399187207">
        <ele>17.0</ele>
        <time>2026-06-05T12:09:21</time>
      </trkpt>
      <trkpt lat="36.06327594257891" lon="129.39620797522366">
        <ele>17.0</ele>
        <time>2026-06-05T12:09:22</time>
      </trkpt>
      <trkpt lat="36.063259933143854" lon="129.39616095274687">
        <ele>17.0</ele>
        <time>2026-06-05T12:09:23</time>
      </trkpt>
      <trkpt lat="36.06324492953718" lon="129.39611393027008">
        <ele>17.0</ele>
        <time>2026-06-05T12:09:24</time>
      </trkpt>
      <trkpt lat="36.06323093175888" lon="129.39606497995555">
        <ele>17.0</ele>
        <time>2026-06-05T12:09:25</time>
      </trkpt>
      <trkpt lat="36.063217939808965" lon="129.396015945822">
        <ele>17.0</ele>
        <time>2026-06-05T12:09:26</time>
      </trkpt>
      <trkpt lat="36.06320595368743" lon="129.39596498385072">
        <ele>17.0</ele>
        <time>2026-06-05T12:09:27</time>
      </trkpt>
      <trkpt lat="36.063194973394275" lon="129.39591293223202">
        <ele>17.0</ele>
        <time>2026-06-05T12:09:28</time>
      </trkpt>
      <trkpt lat="36.06318592093885" lon="129.3958589527756">
        <ele>17.2</ele>
        <time>2026-06-05T12:09:29</time>
      </trkpt>
      <trkpt lat="36.0631799697876" lon="129.3958039674908">
        <ele>17.2</ele>
        <time>2026-06-05T12:09:30</time>
      </trkpt>
      <trkpt lat="36.063175946474075" lon="129.39574697054923">
        <ele>17.2</ele>
        <time>2026-06-05T12:09:31</time>
      </trkpt>
      <trkpt lat="36.063173934817314" lon="129.3956879619509">
        <ele>17.2</ele>
        <time>2026-06-05T12:09:32</time>
      </trkpt>
      <trkpt lat="36.063173934817314" lon="129.39562895335257">
        <ele>17.2</ele>
        <time>2026-06-05T12:09:33</time>
      </trkpt>
      <trkpt lat="36.063174940645695" lon="129.39556994475424">
        <ele>17.2</ele>
        <time>2026-06-05T12:09:34</time>
      </trkpt>
      <trkpt lat="36.063174940645695" lon="129.39551294781268">
        <ele>17.2</ele>
        <time>2026-06-05T12:09:35</time>
      </trkpt>
      <trkpt lat="36.063174940645695" lon="129.39545494504273">
        <ele>17.2</ele>
        <time>2026-06-05T12:09:36</time>
      </trkpt>
      <trkpt lat="36.063175946474075" lon="129.39539794810116">
        <ele>17.0</ele>
        <time>2026-06-05T12:09:37</time>
      </trkpt>
      <trkpt lat="36.063175946474075" lon="129.39533994533122">
        <ele>17.0</ele>
        <time>2026-06-05T12:09:38</time>
      </trkpt>
      <trkpt lat="36.063176952302456" lon="129.39528194256127">
        <ele>16.8</ele>
        <time>2026-06-05T12:09:39</time>
      </trkpt>
      <trkpt lat="36.06317795813084" lon="129.39522393979132">
        <ele>16.8</ele>
        <time>2026-06-05T12:09:40</time>
      </trkpt>
      <trkpt lat="36.06317795813084" lon="129.39516593702137">
        <ele>16.6</ele>
        <time>2026-06-05T12:09:41</time>
      </trkpt>
      <trkpt lat="36.063175946474075" lon="129.39510793425143">
        <ele>16.6</ele>
        <time>2026-06-05T12:09:42</time>
      </trkpt>
      <trkpt lat="36.063174940645695" lon="129.39504993148148">
        <ele>16.4</ele>
        <time>2026-06-05T12:09:43</time>
      </trkpt>
      <trkpt lat="36.063173934817314" lon="129.39499192871153">
        <ele>16.2</ele>
        <time>2026-06-05T12:09:44</time>
      </trkpt>
      <trkpt lat="36.063173934817314" lon="129.3949339259416">
        <ele>16.2</ele>
        <time>2026-06-05T12:09:45</time>
      </trkpt>
      <trkpt lat="36.063173934817314" lon="129.39487491734326">
        <ele>16.0</ele>
        <time>2026-06-05T12:09:46</time>
      </trkpt>
      <trkpt lat="36.063175946474075" lon="129.39481498673558">
        <ele>16.0</ele>
        <time>2026-06-05T12:09:47</time>
      </trkpt>
      <trkpt lat="36.06317795813084" lon="129.39475597813725">
        <ele>15.8</ele>
        <time>2026-06-05T12:09:48</time>
      </trkpt>
      <trkpt lat="36.06318097561598" lon="129.39469596371055">
        <ele>15.8</ele>
        <time>2026-06-05T12:09:49</time>
      </trkpt>
      <trkpt lat="36.0631849989295" lon="129.39463494345546">
        <ele>15.6</ele>
        <time>2026-06-05T12:09:50</time>
      </trkpt>
      <trkpt lat="36.06318893842399" lon="129.39457492902875">
        <ele>15.6</ele>
        <time>2026-06-05T12:09:51</time>
      </trkpt>
      <trkpt lat="36.06319195590913" lon="129.39451499842107">
        <ele>15.6</ele>
        <time>2026-06-05T12:09:52</time>
      </trkpt>
      <trkpt lat="36.063195979222655" lon="129.39445498399436">
        <ele>15.4</ele>
        <time>2026-06-05T12:09:53</time>
      </trkpt>
      <trkpt lat="36.063199918717146" lon="129.39439698122442">
        <ele>15.4</ele>
        <time>2026-06-05T12:09:54</time>
      </trkpt>
      <trkpt lat="36.06320494785905" lon="129.39434099011123">
        <ele>15.4</ele>
        <time>2026-06-05T12:09:55</time>
      </trkpt>
      <trkpt lat="36.06321198865771" lon="129.39428499899805">
        <ele>15.2</ele>
        <time>2026-06-05T12:09:56</time>
      </trkpt>
      <trkpt lat="36.063217939808965" lon="129.39422791823745">
        <ele>15.2</ele>
        <time>2026-06-05T12:09:57</time>
      </trkpt>
      <trkpt lat="36.06322397477925" lon="129.39416798762977">
        <ele>15.2</ele>
        <time>2026-06-05T12:09:58</time>
      </trkpt>
      <trkpt lat="36.06323093175888" lon="129.39410696737468">
        <ele>15.2</ele>
        <time>2026-06-05T12:09:59</time>
      </trkpt>
      <trkpt lat="36.063237972557545" lon="129.3940459471196">
        <ele>15.2</ele>
        <time>2026-06-05T12:10:00</time>
      </trkpt>
      <trkpt lat="36.0632439237088" lon="129.39398392103612">
        <ele>15.0</ele>
        <time>2026-06-05T12:10:01</time>
      </trkpt>
      <trkpt lat="36.06324794702232" lon="129.39392399042845">
        <ele>15.0</ele>
        <time>2026-06-05T12:10:02</time>
      </trkpt>
      <trkpt lat="36.06325096450746" lon="129.39386699348688">
        <ele>15.0</ele>
        <time>2026-06-05T12:10:03</time>
      </trkpt>
      <trkpt lat="36.0632539819926" lon="129.39381293021142">
        <ele>15.0</ele>
        <time>2026-06-05T12:10:04</time>
      </trkpt>
      <trkpt lat="36.06325792148709" lon="129.39376297406852">
        <ele>15.0</ele>
        <time>2026-06-05T12:10:05</time>
      </trkpt>
      <trkpt lat="36.063262950628996" lon="129.39371595159173">
        <ele>15.0</ele>
        <time>2026-06-05T12:10:06</time>
      </trkpt>
      <trkpt lat="36.06326697394252" lon="129.39366792328656">
        <ele>15.0</ele>
        <time>2026-06-05T12:10:07</time>
      </trkpt>
      <trkpt lat="36.06327099725604" lon="129.39361796714365">
        <ele>15.0</ele>
        <time>2026-06-05T12:10:08</time>
      </trkpt>
      <trkpt lat="36.06327594257891" lon="129.3935649935156">
        <ele>15.0</ele>
        <time>2026-06-05T12:10:09</time>
      </trkpt>
      <trkpt lat="36.063280971720815" lon="129.3935089185834">
        <ele>14.8</ele>
        <time>2026-06-05T12:10:10</time>
      </trkpt>
      <trkpt lat="36.06328792870045" lon="129.3934539332986">
        <ele>14.8</ele>
        <time>2026-06-05T12:10:11</time>
      </trkpt>
      <trkpt lat="36.06329597532749" lon="129.39339995384216">
        <ele>14.8</ele>
        <time>2026-06-05T12:10:12</time>
      </trkpt>
      <trkpt lat="36.063304943963885" lon="129.3933479860425">
        <ele>14.8</ele>
        <time>2026-06-05T12:10:13</time>
      </trkpt>
      <trkpt lat="36.06331198476255" lon="129.39329794608057">
        <ele>14.8</ele>
        <time>2026-06-05T12:10:14</time>
      </trkpt>
      <trkpt lat="36.0633179359138" lon="129.39324899576604">
        <ele>14.8</ele>
        <time>2026-06-05T12:10:15</time>
      </trkpt>
      <trkpt lat="36.063322965055704" lon="129.39320096746087">
        <ele>14.8</ele>
        <time>2026-06-05T12:10:16</time>
      </trkpt>
      <trkpt lat="36.063325982540846" lon="129.39315092749894">
        <ele>14.8</ele>
        <time>2026-06-05T12:10:17</time>
      </trkpt>
      <trkpt lat="36.063328916206956" lon="129.39309996552765">
        <ele>14.6</ele>
        <time>2026-06-05T12:10:18</time>
      </trkpt>
      <trkpt lat="36.06333092786372" lon="129.393047997728">
        <ele>14.6</ele>
        <time>2026-06-05T12:10:19</time>
      </trkpt>
      <trkpt lat="36.06333293952048" lon="129.39299292862415">
        <ele>14.6</ele>
        <time>2026-06-05T12:10:20</time>
      </trkpt>
      <trkpt lat="36.0633319336921" lon="129.3929349258542">
        <ele>14.6</ele>
        <time>2026-06-05T12:10:21</time>
      </trkpt>
      <trkpt lat="36.06332992203534" lon="129.39287591725588">
        <ele>14.6</ele>
        <time>2026-06-05T12:10:22</time>
      </trkpt>
      <trkpt lat="36.06332698836923" lon="129.39281498081982">
        <ele>14.4</ele>
        <time>2026-06-05T12:10:23</time>
      </trkpt>
      <trkpt lat="36.063323970884085" lon="129.3927549663931">
        <ele>14.4</ele>
        <time>2026-06-05T12:10:24</time>
      </trkpt>
      <trkpt lat="36.06332095339894" lon="129.39269595779479">
        <ele>14.4</ele>
        <time>2026-06-05T12:10:25</time>
      </trkpt>
      <trkpt lat="36.06331491842866" lon="129.39263795502484">
        <ele>14.2</ele>
        <time>2026-06-05T12:10:26</time>
      </trkpt>
      <trkpt lat="36.06330896727741" lon="129.39258196391165">
        <ele>14.2</ele>
        <time>2026-06-05T12:10:27</time>
      </trkpt>
      <trkpt lat="36.063302932307124" lon="129.39252798445523">
        <ele>14.2</ele>
        <time>2026-06-05T12:10:28</time>
      </trkpt>
      <trkpt lat="36.06329798698425" lon="129.39247593283653">
        <ele>14.2</ele>
        <time>2026-06-05T12:10:29</time>
      </trkpt>
      <trkpt lat="36.06329496949911" lon="129.39242597669363">
        <ele>14.2</ele>
        <time>2026-06-05T12:10:30</time>
      </trkpt>
      <trkpt lat="36.06329094618559" lon="129.3923759367317">
        <ele>14.2</ele>
        <time>2026-06-05T12:10:31</time>
      </trkpt>
      <trkpt lat="36.06328398920596" lon="129.39232799224555">
        <ele>14.2</ele>
        <time>2026-06-05T12:10:32</time>
      </trkpt>
      <trkpt lat="36.06327493675053" lon="129.392278958112">
        <ele>14.2</ele>
        <time>2026-06-05T12:10:33</time>
      </trkpt>
      <trkpt lat="36.063262950628996" lon="129.39222799614072">
        <ele>14.2</ele>
        <time>2026-06-05T12:10:34</time>
      </trkpt>
      <trkpt lat="36.06325096450746" lon="129.39217594452202">
        <ele>14.2</ele>
        <time>2026-06-05T12:10:35</time>
      </trkpt>
      <trkpt lat="36.063239984214306" lon="129.3921219650656">
        <ele>14.2</ele>
        <time>2026-06-05T12:10:36</time>
      </trkpt>
      <trkpt lat="36.06322699226439" lon="129.3920669797808">
        <ele>14.2</ele>
        <time>2026-06-05T12:10:37</time>
      </trkpt>
      <trkpt lat="36.06321299448609" lon="129.392011994496">
        <ele>14.2</ele>
        <time>2026-06-05T12:10:38</time>
      </trkpt>
      <trkpt lat="36.06319799087942" lon="129.39195692539215">
        <ele>14.2</ele>
        <time>2026-06-05T12:10:39</time>
      </trkpt>
      <trkpt lat="36.0631849989295" lon="129.39190294593573">
        <ele>14.2</ele>
        <time>2026-06-05T12:10:40</time>
      </trkpt>
      <trkpt lat="36.06317192316055" lon="129.39184997230768">
        <ele>14.4</ele>
        <time>2026-06-05T12:10:41</time>
      </trkpt>
      <trkpt lat="36.0631609428674" lon="129.39179892651737">
        <ele>14.4</ele>
        <time>2026-06-05T12:10:42</time>
      </trkpt>
      <trkpt lat="36.06314996257424" lon="129.39174796454608">
        <ele>14.4</ele>
        <time>2026-06-05T12:10:43</time>
      </trkpt>
      <trkpt lat="36.06313998810947" lon="129.39169599674642">
        <ele>14.4</ele>
        <time>2026-06-05T12:10:44</time>
      </trkpt>
      <trkpt lat="36.06312892399728" lon="129.39164394512773">
        <ele>14.4</ele>
        <time>2026-06-05T12:10:45</time>
      </trkpt>
      <trkpt lat="36.06311693787575" lon="129.39159298315644">
        <ele>14.4</ele>
        <time>2026-06-05T12:10:46</time>
      </trkpt>
      <trkpt lat="36.06310193426907" lon="129.39154093153775">
        <ele>14.4</ele>
        <time>2026-06-05T12:10:47</time>
      </trkpt>
      <trkpt lat="36.06308592483401" lon="129.39149097539485">
        <ele>14.4</ele>
        <time>2026-06-05T12:10:48</time>
      </trkpt>
      <trkpt lat="36.06307192705572" lon="129.39144294708967">
        <ele>14.4</ele>
        <time>2026-06-05T12:10:49</time>
      </trkpt>
      <trkpt lat="36.06305994093418" lon="129.3913949187845">
        <ele>14.6</ele>
        <time>2026-06-05T12:10:50</time>
      </trkpt>
      <trkpt lat="36.06304896064103" lon="129.39134798012674">
        <ele>14.6</ele>
        <time>2026-06-05T12:10:51</time>
      </trkpt>
      <trkpt lat="36.06303898617625" lon="129.3913029693067">
        <ele>14.6</ele>
        <time>2026-06-05T12:10:52</time>
      </trkpt>
      <trkpt lat="36.06302892789245" lon="129.39126097597182">
        <ele>14.6</ele>
        <time>2026-06-05T12:10:53</time>
      </trkpt>
      <trkpt lat="36.06301895342767" lon="129.39122191630304">
        <ele>14.6</ele>
        <time>2026-06-05T12:10:54</time>
      </trkpt>
      <trkpt lat="36.06300998479128" lon="129.39118394628167">
        <ele>14.4</ele>
        <time>2026-06-05T12:10:55</time>
      </trkpt>
      <trkpt lat="36.063001938164234" lon="129.39114698208869">
        <ele>14.4</ele>
        <time>2026-06-05T12:10:56</time>
      </trkpt>
      <trkpt lat="36.06299397535622" lon="129.39111093990505">
        <ele>14.4</ele>
        <time>2026-06-05T12:10:57</time>
      </trkpt>
      <trkpt lat="36.06298592872918" lon="129.39107397571206">
        <ele>14.4</ele>
        <time>2026-06-05T12:10:58</time>
      </trkpt>
      <trkpt lat="36.06297696009278" lon="129.3910389393568">
        <ele>14.4</ele>
        <time>2026-06-05T12:10:59</time>
      </trkpt>
      <trkpt lat="36.06296991929412" lon="129.39100398682058">
        <ele>14.4</ele>
        <time>2026-06-05T12:11:00</time>
      </trkpt>
      <trkpt lat="36.062961956486106" lon="129.39096794463694">
        <ele>14.4</ele>
        <time>2026-06-05T12:11:01</time>
      </trkpt>
      <trkpt lat="36.06295399367809" lon="129.39093299210072">
        <ele>14.4</ele>
        <time>2026-06-05T12:11:02</time>
      </trkpt>
      <trkpt lat="36.06294494122267" lon="129.39089795574546">
        <ele>14.4</ele>
        <time>2026-06-05T12:11:03</time>
      </trkpt>
      <trkpt lat="36.062935972586274" lon="129.39086199738085">
        <ele>14.2</ele>
        <time>2026-06-05T12:11:04</time>
      </trkpt>
      <trkpt lat="36.06292792595923" lon="129.39082595519722">
        <ele>14.2</ele>
        <time>2026-06-05T12:11:05</time>
      </trkpt>
      <trkpt lat="36.062918957322836" lon="129.3907899968326">
        <ele>14.2</ele>
        <time>2026-06-05T12:11:06</time>
      </trkpt>
      <trkpt lat="36.06290998868644" lon="129.3907529488206">
        <ele>14.2</ele>
        <time>2026-06-05T12:11:07</time>
      </trkpt>
      <trkpt lat="36.06290093623102" lon="129.3907159846276">
        <ele>14.2</ele>
        <time>2026-06-05T12:11:08</time>
      </trkpt>
      <trkpt lat="36.062891967594624" lon="129.39067692495883">
        <ele>14.2</ele>
        <time>2026-06-05T12:11:09</time>
      </trkpt>
      <trkpt lat="36.06288299895823" lon="129.3906369432807">
        <ele>14.2</ele>
        <time>2026-06-05T12:11:10</time>
      </trkpt>
      <trkpt lat="36.062873946502805" lon="129.3905949499458">
        <ele>14.2</ele>
        <time>2026-06-05T12:11:11</time>
      </trkpt>
      <trkpt lat="36.06286296620965" lon="129.39055195078254">
        <ele>14.2</ele>
        <time>2026-06-05T12:11:12</time>
      </trkpt>
      <trkpt lat="36.062850980088115" lon="129.3905069399625">
        <ele>14.4</ele>
        <time>2026-06-05T12:11:13</time>
      </trkpt>
      <trkpt lat="36.06283899396658" lon="129.3904599174857">
        <ele>14.4</ele>
        <time>2026-06-05T12:11:14</time>
      </trkpt>
      <trkpt lat="36.062828935682774" lon="129.39041499048471">
        <ele>14.2</ele>
        <time>2026-06-05T12:11:15</time>
      </trkpt>
      <trkpt lat="36.062818961218" lon="129.39037098549306">
        <ele>14.2</ele>
        <time>2026-06-05T12:11:16</time>
      </trkpt>
      <trkpt lat="36.062809992581606" lon="129.39032999798656">
        <ele>14.2</ele>
        <time>2026-06-05T12:11:17</time>
      </trkpt>
      <trkpt lat="36.06280194595456" lon="129.39029194414616">
        <ele>14.2</ele>
        <time>2026-06-05T12:11:18</time>
      </trkpt>
      <trkpt lat="36.06279498897493" lon="129.3902579974383">
        <ele>14.2</ele>
        <time>2026-06-05T12:11:19</time>
      </trkpt>
      <trkpt lat="36.062788954004645" lon="129.39022497273982">
        <ele>14.2</ele>
        <time>2026-06-05T12:11:20</time>
      </trkpt>
      <trkpt lat="36.06278199702501" lon="129.39019194804132">
        <ele>14.2</ele>
        <time>2026-06-05T12:11:21</time>
      </trkpt>
      <trkpt lat="36.06277596205473" lon="129.39015791751444">
        <ele>14.2</ele>
        <time>2026-06-05T12:11:22</time>
      </trkpt>
      <trkpt lat="36.06276799924672" lon="129.39012195914984">
        <ele>14.2</ele>
        <time>2026-06-05T12:11:23</time>
      </trkpt>
      <trkpt lat="36.06275693513453" lon="129.3900829833001">
        <ele>14.2</ele>
        <time>2026-06-05T12:11:24</time>
      </trkpt>
      <trkpt lat="36.062744949012995" lon="129.39003897830844">
        <ele>14.2</ele>
        <time>2026-06-05T12:11:25</time>
      </trkpt>
      <trkpt lat="36.06273296289146" lon="129.38999296166003">
        <ele>14.2</ele>
        <time>2026-06-05T12:11:26</time>
      </trkpt>
      <trkpt lat="36.062721982598305" lon="129.38994392752647">
        <ele>14.2</ele>
        <time>2026-06-05T12:11:27</time>
      </trkpt>
      <trkpt lat="36.06271293014288" lon="129.3898929655552">
        <ele>14.2</ele>
        <time>2026-06-05T12:11:28</time>
      </trkpt>
      <trkpt lat="36.06270597316325" lon="129.38984292559326">
        <ele>14.4</ele>
        <time>2026-06-05T12:11:29</time>
      </trkpt>
      <trkpt lat="36.062702955678105" lon="129.38979296945035">
        <ele>14.4</ele>
        <time>2026-06-05T12:11:30</time>
      </trkpt>
      <trkpt lat="36.06270697899163" lon="129.3897439353168">
        <ele>14.4</ele>
        <time>2026-06-05T12:11:31</time>
      </trkpt>
      <trkpt lat="36.06271594762802" lon="129.38969498500228">
        <ele>14.4</ele>
        <time>2026-06-05T12:11:32</time>
      </trkpt>
      <trkpt lat="36.06272893957794" lon="129.3896479625255">
        <ele>14.4</ele>
        <time>2026-06-05T12:11:33</time>
      </trkpt>
      <trkpt lat="36.062742937356234" lon="129.38960395753384">
        <ele>14.4</ele>
        <time>2026-06-05T12:11:34</time>
      </trkpt>
      <trkpt lat="36.06275693513453" lon="129.38955995254219">
        <ele>14.4</ele>
        <time>2026-06-05T12:11:35</time>
      </trkpt>
      <trkpt lat="36.06277193874121" lon="129.38951594755054">
        <ele>14.4</ele>
        <time>2026-06-05T12:11:36</time>
      </trkpt>
      <trkpt lat="36.062787948176265" lon="129.3894709367305">
        <ele>14.2</ele>
        <time>2026-06-05T12:11:37</time>
      </trkpt>
      <trkpt lat="36.062805969268084" lon="129.38942399807274">
        <ele>14.2</ele>
        <time>2026-06-05T12:11:38</time>
      </trkpt>
      <trkpt lat="36.06282499618828" lon="129.38937697559595">
        <ele>14.2</ele>
        <time>2026-06-05T12:11:39</time>
      </trkpt>
      <trkpt lat="36.06284494511783" lon="129.38932894729078">
        <ele>14.2</ele>
        <time>2026-06-05T12:11:40</time>
      </trkpt>
      <trkpt lat="36.06286196038127" lon="129.38927999697626">
        <ele>14.2</ele>
        <time>2026-06-05T12:11:41</time>
      </trkpt>
      <trkpt lat="36.06287897564471" lon="129.3892309628427">
        <ele>14.0</ele>
        <time>2026-06-05T12:11:42</time>
      </trkpt>
      <trkpt lat="36.06289699673653" lon="129.38918192870915">
        <ele>14.0</ele>
        <time>2026-06-05T12:11:43</time>
      </trkpt>
      <trkpt lat="36.062917951494455" lon="129.389133984223">
        <ele>14.0</ele>
        <time>2026-06-05T12:11:44</time>
      </trkpt>
      <trkpt lat="36.062937984243035" lon="129.38908595591784">
        <ele>14.0</ele>
        <time>2026-06-05T12:11:45</time>
      </trkpt>
      <trkpt lat="36.0629569273442" lon="129.38903692178428">
        <ele>13.8</ele>
        <time>2026-06-05T12:11:46</time>
      </trkpt>
      <trkpt lat="36.06297494843602" lon="129.38898797146976">
        <ele>13.8</ele>
        <time>2026-06-05T12:11:47</time>
      </trkpt>
      <trkpt lat="36.06299397535622" lon="129.38893793150783">
        <ele>13.8</ele>
        <time>2026-06-05T12:11:48</time>
      </trkpt>
      <trkpt lat="36.06301199644804" lon="129.38888596370816">
        <ele>13.8</ele>
        <time>2026-06-05T12:11:49</time>
      </trkpt>
      <trkpt lat="36.06302993372083" lon="129.3888339959085">
        <ele>13.8</ele>
        <time>2026-06-05T12:11:50</time>
      </trkpt>
      <trkpt lat="36.063046948984265" lon="129.38878295011818">
        <ele>13.8</ele>
        <time>2026-06-05T12:11:51</time>
      </trkpt>
      <trkpt lat="36.063064970076084" lon="129.388734921813">
        <ele>13.8</ele>
        <time>2026-06-05T12:11:52</time>
      </trkpt>
      <trkpt lat="36.0630829911679" lon="129.38868898898363">
        <ele>13.8</ele>
        <time>2026-06-05T12:11:53</time>
      </trkpt>
      <trkpt lat="36.06309992261231" lon="129.38864498399198">
        <ele>13.8</ele>
        <time>2026-06-05T12:11:54</time>
      </trkpt>
      <trkpt lat="36.06311492621899" lon="129.3886019848287">
        <ele>13.8</ele>
        <time>2026-06-05T12:11:55</time>
      </trkpt>
      <trkpt lat="36.063130935654044" lon="129.38855999149382">
        <ele>14.0</ele>
        <time>2026-06-05T12:11:56</time>
      </trkpt>
      <trkpt lat="36.06314593926072" lon="129.38851892016828">
        <ele>14.0</ele>
        <time>2026-06-05T12:11:57</time>
      </trkpt>
      <trkpt lat="36.06316295452416" lon="129.38847994431853">
        <ele>13.8</ele>
        <time>2026-06-05T12:11:58</time>
      </trkpt>
      <trkpt lat="36.06317795813084" lon="129.38844197429717">
        <ele>13.8</ele>
        <time>2026-06-05T12:11:59</time>
      </trkpt>
      <trkpt lat="36.06319296173751" lon="129.38840492628515">
        <ele>13.8</ele>
        <time>2026-06-05T12:12:00</time>
      </trkpt>
      <trkpt lat="36.06320897117257" lon="129.38836796209216">
        <ele>13.8</ele>
        <time>2026-06-05T12:12:01</time>
      </trkpt>
      <trkpt lat="36.06322397477925" lon="129.38833191990852">
        <ele>13.6</ele>
        <time>2026-06-05T12:12:02</time>
      </trkpt>
      <trkpt lat="36.063237972557545" lon="129.38829495571554">
        <ele>13.6</ele>
        <time>2026-06-05T12:12:03</time>
      </trkpt>
      <trkpt lat="36.06325197033584" lon="129.38825698569417">
        <ele>13.6</ele>
        <time>2026-06-05T12:12:04</time>
      </trkpt>
      <trkpt lat="36.063262950628996" lon="129.3882179260254">
        <ele>13.6</ele>
        <time>2026-06-05T12:12:05</time>
      </trkpt>
      <trkpt lat="36.06327393092215" lon="129.38817693851888">
        <ele>13.6</ele>
        <time>2026-06-05T12:12:06</time>
      </trkpt>
      <trkpt lat="36.06328398920596" lon="129.388134945184">
        <ele>13.6</ele>
        <time>2026-06-05T12:12:07</time>
      </trkpt>
      <trkpt lat="36.06329295784235" lon="129.38809194602072">
        <ele>13.6</ele>
        <time>2026-06-05T12:12:08</time>
      </trkpt>
      <trkpt lat="36.063301926478744" lon="129.3880509585142">
        <ele>13.6</ele>
        <time>2026-06-05T12:12:09</time>
      </trkpt>
      <trkpt lat="36.06331097893417" lon="129.38800896517932">
        <ele>13.6</ele>
        <time>2026-06-05T12:12:10</time>
      </trkpt>
      <trkpt lat="36.06332095339894" lon="129.38796797767282">
        <ele>13.6</ele>
        <time>2026-06-05T12:12:11</time>
      </trkpt>
      <trkpt lat="36.06333293952048" lon="129.3879269901663">
        <ele>13.6</ele>
        <time>2026-06-05T12:12:12</time>
      </trkpt>
      <trkpt lat="36.063346937298775" lon="129.38788499683142">
        <ele>13.6</ele>
        <time>2026-06-05T12:12:13</time>
      </trkpt>
      <trkpt lat="36.06336395256221" lon="129.38784593716264">
        <ele>13.6</ele>
        <time>2026-06-05T12:12:14</time>
      </trkpt>
      <trkpt lat="36.06338398531079" lon="129.38780897296965">
        <ele>13.6</ele>
        <time>2026-06-05T12:12:15</time>
      </trkpt>
      <trkpt lat="36.06340795755386" lon="129.38777594827116">
        <ele>13.6</ele>
        <time>2026-06-05T12:12:16</time>
      </trkpt>
      <trkpt lat="36.063433941453695" lon="129.38774493522942">
        <ele>13.6</ele>
        <time>2026-06-05T12:12:17</time>
      </trkpt>
      <trkpt lat="36.06346495449543" lon="129.38771593384445">
        <ele>13.6</ele>
        <time>2026-06-05T12:12:18</time>
      </trkpt>
      <trkpt lat="36.06349999085069" lon="129.38768894411623">
        <ele>13.4</ele>
        <time>2026-06-05T12:12:19</time>
      </trkpt>
      <trkpt lat="36.06353695504367" lon="129.38766396604478">
        <ele>13.4</ele>
        <time>2026-06-05T12:12:20</time>
      </trkpt>
      <trkpt lat="36.06357593089342" lon="129.3876399938017">
        <ele>13.2</ele>
        <time>2026-06-05T12:12:21</time>
      </trkpt>
      <trkpt lat="36.06361297890544" lon="129.3876159377396">
        <ele>13.2</ele>
        <time>2026-06-05T12:12:22</time>
      </trkpt>
      <trkpt lat="36.063648937270045" lon="129.38759196549654">
        <ele>13.2</ele>
        <time>2026-06-05T12:12:23</time>
      </trkpt>
      <trkpt lat="36.06368497945368" lon="129.38757092691958">
        <ele>13.2</ele>
        <time>2026-06-05T12:12:24</time>
      </trkpt>
      <trkpt lat="36.06371993198991" lon="129.3875519838184">
        <ele>13.2</ele>
        <time>2026-06-05T12:12:25</time>
      </trkpt>
      <trkpt lat="36.063754968345165" lon="129.3875339627266">
        <ele>13.2</ele>
        <time>2026-06-05T12:12:26</time>
      </trkpt>
      <trkpt lat="36.06378799304366" lon="129.38751694746315">
        <ele>13.2</ele>
        <time>2026-06-05T12:12:27</time>
      </trkpt>
      <trkpt lat="36.063820933923125" lon="129.38749599270523">
        <ele>13.2</ele>
        <time>2026-06-05T12:12:28</time>
      </trkpt>
      <trkpt lat="36.06385295279324" lon="129.38747394829988">
        <ele>13.2</ele>
        <time>2026-06-05T12:12:29</time>
      </trkpt>
      <trkpt lat="36.063885977491736" lon="129.38745299354196">
        <ele>13.2</ele>
        <time>2026-06-05T12:12:30</time>
      </trkpt>
      <trkpt lat="36.0639189183712" lon="129.387431954965">
        <ele>13.2</ele>
        <time>2026-06-05T12:12:31</time>
      </trkpt>
      <trkpt lat="36.063951943069696" lon="129.38741192221642">
        <ele>13.2</ele>
        <time>2026-06-05T12:12:32</time>
      </trkpt>
      <trkpt lat="36.06398295611143" lon="129.387394990772">
        <ele>13.2</ele>
        <time>2026-06-05T12:12:33</time>
      </trkpt>
      <trkpt lat="36.064014974981546" lon="129.38737998716533">
        <ele>13.2</ele>
        <time>2026-06-05T12:12:34</time>
      </trkpt>
      <trkpt lat="36.0640449821949" lon="129.38736498355865">
        <ele>13.2</ele>
        <time>2026-06-05T12:12:35</time>
      </trkpt>
      <trkpt lat="36.064074989408255" lon="129.38734997995198">
        <ele>13.2</ele>
        <time>2026-06-05T12:12:36</time>
      </trkpt>
      <trkpt lat="36.06410399079323" lon="129.38733598217368">
        <ele>13.2</ele>
        <time>2026-06-05T12:12:37</time>
      </trkpt>
      <trkpt lat="36.06413198634982" lon="129.38732198439538">
        <ele>13.2</ele>
        <time>2026-06-05T12:12:38</time>
      </trkpt>
      <trkpt lat="36.06415696442127" lon="129.3873079866171">
        <ele>13.2</ele>
        <time>2026-06-05T12:12:39</time>
      </trkpt>
      <trkpt lat="36.06417993083596" lon="129.3872939888388">
        <ele>13.2</ele>
        <time>2026-06-05T12:12:40</time>
      </trkpt>
      <trkpt lat="36.0642019752413" lon="129.38727797940373">
        <ele>13.2</ele>
        <time>2026-06-05T12:12:41</time>
      </trkpt>
      <trkpt lat="36.06422292999923" lon="129.38725995831192">
        <ele>13.2</ele>
        <time>2026-06-05T12:12:42</time>
      </trkpt>
      <trkpt lat="36.06424195691943" lon="129.38723992556334">
        <ele>13.2</ele>
        <time>2026-06-05T12:12:43</time>
      </trkpt>
      <trkpt lat="36.06426198966801" lon="129.3872199766338">
        <ele>13.2</ele>
        <time>2026-06-05T12:12:44</time>
      </trkpt>
      <trkpt lat="36.06427892111242" lon="129.3872059788555">
        <ele>13.2</ele>
        <time>2026-06-05T12:12:45</time>
      </trkpt>
      <trkpt lat="36.064288979396224" lon="129.3871999438852">
        <ele>13.0</ele>
        <time>2026-06-05T12:12:46</time>
      </trkpt>
      <trkpt lat="36.064291996881366" lon="129.38719692640007">
        <ele>13.0</ele>
        <time>2026-06-05T12:12:47</time>
      </trkpt>
      <trkpt lat="36.064291996881366" lon="129.38719692640007">
        <ele>13.0</ele>
        <time>2026-06-05T12:12:48</time>
      </trkpt>
      <trkpt lat="36.064289985224605" lon="129.38719893805683">
        <ele>13.0</ele>
        <time>2026-06-05T12:12:49</time>
      </trkpt>
      <trkpt lat="36.06432493776083" lon="129.38723095692694">
        <ele>12.8</ele>
        <time>2026-06-05T12:12:55</time>
      </trkpt>
      <trkpt lat="36.064335918053985" lon="129.38723992556334">
        <ele>12.6</ele>
        <time>2026-06-05T12:12:56</time>
      </trkpt>
      <trkpt lat="36.06434698216617" lon="129.38725098967552">
        <ele>12.6</ele>
        <time>2026-06-05T12:12:57</time>
      </trkpt>
      <trkpt lat="36.06436198577285" lon="129.38726398162544">
        <ele>12.6</ele>
        <time>2026-06-05T12:12:58</time>
      </trkpt>
      <trkpt lat="36.064376989379525" lon="129.3872739560902">
        <ele>12.4</ele>
        <time>2026-06-05T12:12:59</time>
      </trkpt>
      <trkpt lat="36.06439299881458" lon="129.3872799910605">
        <ele>12.4</ele>
        <time>2026-06-05T12:13:00</time>
      </trkpt>
      <trkpt lat="36.06440993025899" lon="129.38728493638337">
        <ele>12.2</ele>
        <time>2026-06-05T12:13:01</time>
      </trkpt>
      <trkpt lat="36.06442895717919" lon="129.38728594221175">
        <ele>12.2</ele>
        <time>2026-06-05T12:13:02</time>
      </trkpt>
      <trkpt lat="36.064444966614246" lon="129.38727697357535">
        <ele>12.2</ele>
        <time>2026-06-05T12:13:03</time>
      </trkpt>
      <trkpt lat="36.06445795856416" lon="129.3872559349984">
        <ele>12.0</ele>
        <time>2026-06-05T12:13:04</time>
      </trkpt>
      <trkpt lat="36.06446893885732" lon="129.38722894527018">
        <ele>12.0</ele>
        <time>2026-06-05T12:13:05</time>
      </trkpt>
      <trkpt lat="36.06448092497885" lon="129.38719793222845">
        <ele>12.0</ele>
        <time>2026-06-05T12:13:06</time>
      </trkpt>
      <trkpt lat="36.06449198909104" lon="129.3871669191867">
        <ele>12.0</ele>
        <time>2026-06-05T12:13:07</time>
      </trkpt>
      <trkpt lat="36.06450296938419" lon="129.38713498413563">
        <ele>12.0</ele>
        <time>2026-06-05T12:13:08</time>
      </trkpt>
      <trkpt lat="36.06451294384897" lon="129.38710195943713">
        <ele>12.0</ele>
        <time>2026-06-05T12:13:09</time>
      </trkpt>
      <trkpt lat="36.06452392414212" lon="129.38707195222378">
        <ele>12.0</ele>
        <time>2026-06-05T12:13:10</time>
      </trkpt>
      <trkpt lat="36.06453398242593" lon="129.38704395666718">
        <ele>12.0</ele>
        <time>2026-06-05T12:13:11</time>
      </trkpt>
      <trkpt lat="36.06454295106232" lon="129.3870159611106">
        <ele>12.0</ele>
        <time>2026-06-05T12:13:12</time>
      </trkpt>
      <trkpt lat="36.064552925527096" lon="129.38698997721076">
        <ele>12.0</ele>
        <time>2026-06-05T12:13:13</time>
      </trkpt>
      <trkpt lat="36.0645629838109" lon="129.3869649991393">
        <ele>11.8</ele>
        <time>2026-06-05T12:13:14</time>
      </trkpt>
      <trkpt lat="36.064572958275676" lon="129.38693993724883">
        <ele>11.8</ele>
        <time>2026-06-05T12:13:15</time>
      </trkpt>
      <trkpt lat="36.06458192691207" lon="129.386913953349">
        <ele>11.6</ele>
        <time>2026-06-05T12:13:16</time>
      </trkpt>
      <trkpt lat="36.064589973539114" lon="129.38688897527754">
        <ele>11.6</ele>
        <time>2026-06-05T12:13:17</time>
      </trkpt>
      <trkpt lat="36.06459793634713" lon="129.38686198554933">
        <ele>11.6</ele>
        <time>2026-06-05T12:13:18</time>
      </trkpt>
      <trkpt lat="36.06460799463093" lon="129.38683298416436">
        <ele>11.6</ele>
        <time>2026-06-05T12:13:19</time>
      </trkpt>
      <trkpt lat="36.06461796909571" lon="129.38680096529424">
        <ele>11.6</ele>
        <time>2026-06-05T12:13:20</time>
      </trkpt>
      <trkpt lat="36.06462794356048" lon="129.38676794059575">
        <ele>11.6</ele>
        <time>2026-06-05T12:13:21</time>
      </trkpt>
      <trkpt lat="36.064635990187526" lon="129.38673499971628">
        <ele>11.6</ele>
        <time>2026-06-05T12:13:22</time>
      </trkpt>
      <trkpt lat="36.06464395299554" lon="129.3867009691894">
        <ele>11.6</ele>
        <time>2026-06-05T12:13:23</time>
      </trkpt>
      <trkpt lat="36.06464998796582" lon="129.3866689503193">
        <ele>11.6</ele>
        <time>2026-06-05T12:13:24</time>
      </trkpt>
      <trkpt lat="36.064658956602216" lon="129.38664296641946">
        <ele>11.6</ele>
        <time>2026-06-05T12:13:25</time>
      </trkpt>
      <trkpt lat="36.06466893106699" lon="129.38662092201412">
        <ele>11.6</ele>
        <time>2026-06-05T12:13:26</time>
      </trkpt>
      <trkpt lat="36.064676977694035" lon="129.38660097308457">
        <ele>11.6</ele>
        <time>2026-06-05T12:13:27</time>
      </trkpt>
      <trkpt lat="36.064680917188525" lon="129.386580940336">
        <ele>11.4</ele>
        <time>2026-06-05T12:13:28</time>
      </trkpt>
      <trkpt lat="36.064681923016906" lon="129.38656099140644">
        <ele>11.4</ele>
        <time>2026-06-05T12:13:29</time>
      </trkpt>
      <trkpt lat="36.064679995179176" lon="129.3865389470011">
        <ele>11.4</ele>
        <time>2026-06-05T12:13:30</time>
      </trkpt>
      <trkpt lat="36.064678989350796" lon="129.38651396892965">
        <ele>11.4</ele>
        <time>2026-06-05T12:13:31</time>
      </trkpt>
      <trkpt lat="36.064678989350796" lon="129.38648195005953">
        <ele>11.6</ele>
        <time>2026-06-05T12:13:32</time>
      </trkpt>
      <trkpt lat="36.064678989350796" lon="129.38644498586655">
        <ele>11.6</ele>
        <time>2026-06-05T12:13:33</time>
      </trkpt>
      <trkpt lat="36.064678989350796" lon="129.3864049203694">
        <ele>11.6</ele>
        <time>2026-06-05T12:13:34</time>
      </trkpt>
      <trkpt lat="36.064677983522415" lon="129.38636099919677">
        <ele>11.6</ele>
        <time>2026-06-05T12:13:35</time>
      </trkpt>
      <trkpt lat="36.064676977694035" lon="129.38631598837674">
        <ele>11.6</ele>
        <time>2026-06-05T12:13:36</time>
      </trkpt>
      <trkpt lat="36.064676977694035" lon="129.38626997172832">
        <ele>11.8</ele>
        <time>2026-06-05T12:13:37</time>
      </trkpt>
      <trkpt lat="36.064675971865654" lon="129.3862239550799">
        <ele>11.8</ele>
        <time>2026-06-05T12:13:38</time>
      </trkpt>
      <trkpt lat="36.064675971865654" lon="129.38617592677474">
        <ele>11.8</ele>
        <time>2026-06-05T12:13:39</time>
      </trkpt>
      <trkpt lat="36.064675971865654" lon="129.38612898811698">
        <ele>12.0</ele>
        <time>2026-06-05T12:13:40</time>
      </trkpt>
      <trkpt lat="36.06467496603727" lon="129.38608397729695">
        <ele>12.0</ele>
        <time>2026-06-05T12:13:41</time>
      </trkpt>
      <trkpt lat="36.06467396020889" lon="129.38604097813368">
        <ele>12.0</ele>
        <time>2026-06-05T12:13:42</time>
      </trkpt>
      <trkpt lat="36.06467094272375" lon="129.38599999062717">
        <ele>12.2</ele>
        <time>2026-06-05T12:13:43</time>
      </trkpt>
      <trkpt lat="36.06466792523861" lon="129.38595799729228">
        <ele>12.2</ele>
        <time>2026-06-05T12:13:44</time>
      </trkpt>
      <trkpt lat="36.06466599740088" lon="129.38591592013836">
        <ele>12.0</ele>
        <time>2026-06-05T12:13:45</time>
      </trkpt>
      <trkpt lat="36.06466792523861" lon="129.38587199896574">
        <ele>12.0</ele>
        <time>2026-06-05T12:13:46</time>
      </trkpt>
      <trkpt lat="36.06467094272375" lon="129.38582598231733">
        <ele>12.0</ele>
        <time>2026-06-05T12:13:47</time>
      </trkpt>
      <trkpt lat="36.064675971865654" lon="129.38578398898244">
        <ele>12.0</ele>
        <time>2026-06-05T12:13:48</time>
      </trkpt>
      <trkpt lat="36.064678989350796" lon="129.38574492931366">
        <ele>12.2</ele>
        <time>2026-06-05T12:13:49</time>
      </trkpt>
      <trkpt lat="36.064680917188525" lon="129.38570796512067">
        <ele>12.2</ele>
        <time>2026-06-05T12:13:50</time>
      </trkpt>
      <trkpt lat="36.064681923016906" lon="129.3856739345938">
        <ele>12.2</ele>
        <time>2026-06-05T12:13:51</time>
      </trkpt>
      <trkpt lat="36.064678989350796" lon="129.3856419995427">
        <ele>12.2</ele>
        <time>2026-06-05T12:13:52</time>
      </trkpt>
      <trkpt lat="36.06467295438051" lon="129.38561199232936">
        <ele>12.2</ele>
        <time>2026-06-05T12:13:53</time>
      </trkpt>
      <trkpt lat="36.06466792523861" lon="129.3855859246105">
        <ele>12.2</ele>
        <time>2026-06-05T12:13:54</time>
      </trkpt>
      <trkpt lat="36.06466599740088" lon="129.38556094653904">
        <ele>12.2</ele>
        <time>2026-06-05T12:13:55</time>
      </trkpt>
      <trkpt lat="36.06466893106699" lon="129.3855359684676">
        <ele>12.2</ele>
        <time>2026-06-05T12:13:56</time>
      </trkpt>
      <trkpt lat="36.06467295438051" lon="129.38550998456776">
        <ele>12.4</ele>
        <time>2026-06-05T12:13:57</time>
      </trkpt>
      <trkpt lat="36.06467396020889" lon="129.3854799773544">
        <ele>12.4</ele>
        <time>2026-06-05T12:13:58</time>
      </trkpt>
      <trkpt lat="36.06467295438051" lon="129.38544494099915">
        <ele>12.6</ele>
        <time>2026-06-05T12:13:59</time>
      </trkpt>
      <trkpt lat="36.06467094272375" lon="129.38540495932102">
        <ele>12.8</ele>
        <time>2026-06-05T12:14:00</time>
      </trkpt>
      <trkpt lat="36.06466599740088" lon="129.38536196015775">
        <ele>12.8</ele>
        <time>2026-06-05T12:14:01</time>
      </trkpt>
      <trkpt lat="36.064659962430596" lon="129.38531694933772">
        <ele>12.8</ele>
        <time>2026-06-05T12:14:02</time>
      </trkpt>
      <trkpt lat="36.06465199962258" lon="129.3852709326893">
        <ele>13.0</ele>
        <time>2026-06-05T12:14:03</time>
      </trkpt>
      <trkpt lat="36.06464194133878" lon="129.38522592186928">
        <ele>13.0</ele>
        <time>2026-06-05T12:14:04</time>
      </trkpt>
      <trkpt lat="36.06462995521724" lon="129.38518493436277">
        <ele>13.0</ele>
        <time>2026-06-05T12:14:05</time>
      </trkpt>
      <trkpt lat="36.06461796909571" lon="129.38514998182654">
        <ele>13.0</ele>
        <time>2026-06-05T12:14:06</time>
      </trkpt>
      <trkpt lat="36.064612939953804" lon="129.38512299209833">
        <ele>13.2</ele>
        <time>2026-06-05T12:14:07</time>
      </trkpt>
      <trkpt lat="36.064613945782185" lon="129.38510195352137">
        <ele>13.2</ele>
        <time>2026-06-05T12:14:08</time>
      </trkpt>
      <trkpt lat="36.064612939953804" lon="129.3850859440863">
        <ele>13.4</ele>
        <time>2026-06-05T12:14:09</time>
      </trkpt>
      <trkpt lat="36.064612939953804" lon="129.38507898710668">
        <ele>13.4</ele>
        <time>2026-06-05T12:14:10</time>
      </trkpt>
      <trkpt lat="36.064613945782185" lon="129.38507697544992">
        <ele>13.4</ele>
        <time>2026-06-05T12:14:11</time>
      </trkpt>
      <trkpt lat="36.064614951610565" lon="129.38507898710668">
        <ele>13.4</ele>
        <time>2026-06-05T12:14:12</time>
      </trkpt>
      <trkpt lat="36.064614951610565" lon="129.3850819207728">
        <ele>13.4</ele>
        <time>2026-06-05T12:14:13</time>
      </trkpt>
      <trkpt lat="36.06458293274045" lon="129.38501997850835">
        <ele>13.0</ele>
        <time>2026-06-05T12:15:09</time>
      </trkpt>
      <trkpt lat="36.064570946618915" lon="129.38499298878014">
        <ele>13.0</ele>
        <time>2026-06-05T12:15:10</time>
      </trkpt>
      <trkpt lat="36.064557954669" lon="129.38496398739517">
        <ele>13.2</ele>
        <time>2026-06-05T12:15:11</time>
      </trkpt>
      <trkpt lat="36.06454496271908" lon="129.38493297435343">
        <ele>13.2</ele>
        <time>2026-06-05T12:15:12</time>
      </trkpt>
      <trkpt lat="36.06453297659755" lon="129.38490497879684">
        <ele>13.4</ele>
        <time>2026-06-05T12:15:13</time>
      </trkpt>
      <trkpt lat="36.06451998464763" lon="129.38488192856312">
        <ele>13.4</ele>
        <time>2026-06-05T12:15:14</time>
      </trkpt>
      <trkpt lat="36.064508920535445" lon="129.38486298546195">
        <ele>13.6</ele>
        <time>2026-06-05T12:15:15</time>
      </trkpt>
      <trkpt lat="36.06449894607067" lon="129.3848459701985">
        <ele>13.6</ele>
        <time>2026-06-05T12:15:16</time>
      </trkpt>
      <trkpt lat="36.0644889716059" lon="129.3848279491067">
        <ele>13.6</ele>
        <time>2026-06-05T12:15:17</time>
      </trkpt>
      <trkpt lat="36.06447698548436" lon="129.3848079163581">
        <ele>13.6</ele>
        <time>2026-06-05T12:15:18</time>
      </trkpt>
      <trkpt lat="36.064463993534446" lon="129.3847859557718">
        <ele>13.4</ele>
        <time>2026-06-05T12:15:19</time>
      </trkpt>
      <trkpt lat="36.06445192359388" lon="129.3847589660436">
        <ele>13.4</ele>
        <time>2026-06-05T12:15:20</time>
      </trkpt>
      <trkpt lat="36.064441949129105" lon="129.38472694717348">
        <ele>13.4</ele>
        <time>2026-06-05T12:15:21</time>
      </trkpt>
      <trkpt lat="36.06443096883595" lon="129.38469392247498">
        <ele>13.4</ele>
        <time>2026-06-05T12:15:22</time>
      </trkpt>
      <trkpt lat="36.064417976886034" lon="129.38465997576714">
        <ele>13.4</ele>
        <time>2026-06-05T12:15:23</time>
      </trkpt>
      <trkpt lat="36.06440498493612" lon="129.38462695106864">
        <ele>13.4</ele>
        <time>2026-06-05T12:15:24</time>
      </trkpt>
      <trkpt lat="36.0643919929862" lon="129.38459493219852">
        <ele>13.4</ele>
        <time>2026-06-05T12:15:25</time>
      </trkpt>
      <trkpt lat="36.06438294053078" lon="129.38456199131906">
        <ele>13.4</ele>
        <time>2026-06-05T12:15:26</time>
      </trkpt>
      <trkpt lat="36.06437397189438" lon="129.38452997244895">
        <ele>13.4</ele>
        <time>2026-06-05T12:15:27</time>
      </trkpt>
      <trkpt lat="36.06436491943896" lon="129.38450197689235">
        <ele>13.4</ele>
        <time>2026-06-05T12:15:28</time>
      </trkpt>
      <trkpt lat="36.064355950802565" lon="129.3844769988209">
        <ele>13.4</ele>
        <time>2026-06-05T12:15:29</time>
      </trkpt>
      <trkpt lat="36.06434899382293" lon="129.38445495441556">
        <ele>13.4</ele>
        <time>2026-06-05T12:15:30</time>
      </trkpt>
      <trkpt lat="36.06434396468103" lon="129.38443693332374">
        <ele>13.4</ele>
        <time>2026-06-05T12:15:31</time>
      </trkpt>
      <trkpt lat="36.06434195302427" lon="129.38442192971706">
        <ele>13.4</ele>
        <time>2026-06-05T12:15:32</time>
      </trkpt>
      <trkpt lat="36.06434195302427" lon="129.384405920282">
        <ele>13.4</ele>
        <time>2026-06-05T12:15:33</time>
      </trkpt>
      <trkpt lat="36.06434295885265" lon="129.3843839596957">
        <ele>13.6</ele>
        <time>2026-06-05T12:15:34</time>
      </trkpt>
      <trkpt lat="36.064338935539126" lon="129.38435797579587">
        <ele>13.6</ele>
        <time>2026-06-05T12:15:35</time>
      </trkpt>
      <trkpt lat="36.06432795524597" lon="129.38432696275413">
        <ele>13.6</ele>
        <time>2026-06-05T12:15:36</time>
      </trkpt>
      <trkpt lat="36.064312951639295" lon="129.38429293222725">
        <ele>13.6</ele>
        <time>2026-06-05T12:15:37</time>
      </trkpt>
      <trkpt lat="36.064295936375856" lon="129.38425697386265">
        <ele>13.6</ele>
        <time>2026-06-05T12:15:38</time>
      </trkpt>
      <trkpt lat="36.06428093276918" lon="129.38421992585063">
        <ele>13.6</ele>
        <time>2026-06-05T12:15:39</time>
      </trkpt>
      <trkpt lat="36.064268946647644" lon="129.38418899662793">
        <ele>13.4</ele>
        <time>2026-06-05T12:15:40</time>
      </trkpt>
      <trkpt lat="36.06425796635449" lon="129.3841659463942">
        <ele>13.4</ele>
        <time>2026-06-05T12:15:41</time>
      </trkpt>
      <trkpt lat="36.064250925555825" lon="129.38415496610105">
        <ele>13.4</ele>
        <time>2026-06-05T12:15:42</time>
      </trkpt>
      <trkpt lat="36.064248997718096" lon="129.3841519486159">
        <ele>13.4</ele>
        <time>2026-06-05T12:15:43</time>
      </trkpt>
      <trkpt lat="36.064247991889715" lon="129.3841519486159">
        <ele>13.4</ele>
        <time>2026-06-05T12:15:44</time>
      </trkpt>
      <trkpt lat="36.064248997718096" lon="129.38415094278753">
        <ele>13.4</ele>
        <time>2026-06-05T12:15:45</time>
      </trkpt>
      <trkpt lat="36.06425796635449" lon="129.38419997692108">
        <ele>13.4</ele>
        <time>2026-06-05T12:57:45</time>
      </trkpt>
      <trkpt lat="36.06425997801125" lon="129.3842069339007">
        <ele>13.4</ele>
        <time>2026-06-05T12:57:46</time>
      </trkpt>
      <trkpt lat="36.06425997801125" lon="129.384212968871">
        <ele>13.4</ele>
        <time>2026-06-05T12:57:47</time>
      </trkpt>
      <trkpt lat="36.06425897218287" lon="129.38421598635614">
        <ele>13.2</ele>
        <time>2026-06-05T12:57:48</time>
      </trkpt>
      <trkpt lat="36.064227959141135" lon="129.38425295054913">
        <ele>13.4</ele>
        <time>2026-06-05T12:58:01</time>
      </trkpt>
      <trkpt lat="36.0642159730196" lon="129.38426393084228">
        <ele>13.4</ele>
        <time>2026-06-05T12:58:02</time>
      </trkpt>
      <trkpt lat="36.064204992726445" lon="129.38427499495447">
        <ele>13.4</ele>
        <time>2026-06-05T12:58:03</time>
      </trkpt>
      <trkpt lat="36.06419493444264" lon="129.38428597524762">
        <ele>13.4</ele>
        <time>2026-06-05T12:58:04</time>
      </trkpt>
      <trkpt lat="36.064184959977865" lon="129.38429695554078">
        <ele>13.4</ele>
        <time>2026-06-05T12:58:05</time>
      </trkpt>
      <trkpt lat="36.06417498551309" lon="129.38430693000555">
        <ele>13.4</ele>
        <time>2026-06-05T12:58:06</time>
      </trkpt>
      <trkpt lat="36.064166938886046" lon="129.38431799411774">
        <ele>13.2</ele>
        <time>2026-06-05T12:58:07</time>
      </trkpt>
      <trkpt lat="36.064160987734795" lon="129.3843289744109">
        <ele>13.2</ele>
        <time>2026-06-05T12:58:08</time>
      </trkpt>
      <trkpt lat="36.06415797024965" lon="129.38433593139052">
        <ele>13.2</ele>
        <time>2026-06-05T12:58:09</time>
      </trkpt>
      <trkpt lat="36.06415797024965" lon="129.38433995470405">
        <ele>13.2</ele>
        <time>2026-06-05T12:58:10</time>
      </trkpt>
      <trkpt lat="36.064159981906414" lon="129.3843469955027">
        <ele>13.2</ele>
        <time>2026-06-05T12:58:11</time>
      </trkpt>
      <trkpt lat="36.064186971634626" lon="129.38439393416047">
        <ele>13.2</ele>
        <time>2026-06-05T12:58:14</time>
      </trkpt>
      <trkpt lat="36.064202981069684" lon="129.38442192971706">
        <ele>13.2</ele>
        <time>2026-06-05T12:58:15</time>
      </trkpt>
      <trkpt lat="36.06421999633312" lon="129.38445394858718">
        <ele>13.2</ele>
        <time>2026-06-05T12:58:16</time>
      </trkpt>
      <trkpt lat="36.06423793360591" lon="129.38448898494244">
        <ele>13.2</ele>
        <time>2026-06-05T12:58:17</time>
      </trkpt>
      <trkpt lat="36.064252937212586" lon="129.3845269549638">
        <ele>13.2</ele>
        <time>2026-06-05T12:58:18</time>
      </trkpt>
      <trkpt lat="36.06426693499088" lon="129.3845679424703">
        <ele>13.2</ele>
        <time>2026-06-05T12:58:19</time>
      </trkpt>
      <trkpt lat="36.0642799269408" lon="129.38461194746196">
        <ele>13.2</ele>
        <time>2026-06-05T12:58:20</time>
      </trkpt>
      <trkpt lat="36.064292918890715" lon="129.38465394079685">
        <ele>13.2</ele>
        <time>2026-06-05T12:58:21</time>
      </trkpt>
      <trkpt lat="36.06430599465966" lon="129.3846929166466">
        <ele>13.2</ele>
        <time>2026-06-05T12:58:22</time>
      </trkpt>
      <trkpt lat="36.0643179807812" lon="129.38472895883024">
        <ele>13.2</ele>
        <time>2026-06-05T12:58:23</time>
      </trkpt>
      <trkpt lat="36.06432996690273" lon="129.38476198352873">
        <ele>13.2</ele>
        <time>2026-06-05T12:58:24</time>
      </trkpt>
      <trkpt lat="36.06433994136751" lon="129.38478997908533">
        <ele>13.2</ele>
        <time>2026-06-05T12:58:25</time>
      </trkpt>
      <trkpt lat="36.06434899382293" lon="129.3848139513284">
        <ele>13.2</ele>
        <time>2026-06-05T12:58:26</time>
      </trkpt>
      <trkpt lat="36.064358968287706" lon="129.38483892939985">
        <ele>13.2</ele>
        <time>2026-06-05T12:58:27</time>
      </trkpt>
      <trkpt lat="36.06436994858086" lon="129.38486399129033">
        <ele>13.2</ele>
        <time>2026-06-05T12:58:28</time>
      </trkpt>
      <trkpt lat="36.064381934702396" lon="129.38489098101854">
        <ele>13.4</ele>
        <time>2026-06-05T12:58:29</time>
      </trkpt>
      <trkpt lat="36.06439392082393" lon="129.38492199406028">
        <ele>13.4</ele>
        <time>2026-06-05T12:58:30</time>
      </trkpt>
      <trkpt lat="36.06440699659288" lon="129.38495392911136">
        <ele>13.4</ele>
        <time>2026-06-05T12:58:31</time>
      </trkpt>
      <trkpt lat="36.064418982714415" lon="129.38498695380986">
        <ele>13.4</ele>
        <time>2026-06-05T12:58:32</time>
      </trkpt>
      <trkpt lat="36.06443096883595" lon="129.38501997850835">
        <ele>13.4</ele>
        <time>2026-06-05T12:58:33</time>
      </trkpt>
      <trkpt lat="36.064443960785866" lon="129.3850539252162">
        <ele>13.4</ele>
        <time>2026-06-05T12:58:34</time>
      </trkpt>
      <trkpt lat="36.0644559469074" lon="129.38508795574307">
        <ele>13.2</ele>
        <time>2026-06-05T12:58:35</time>
      </trkpt>
      <trkpt lat="36.064467933028936" lon="129.38512491993606">
        <ele>13.2</ele>
        <time>2026-06-05T12:58:36</time>
      </trkpt>
      <trkpt lat="36.06447899714112" lon="129.38516498543322">
        <ele>13.2</ele>
        <time>2026-06-05T12:58:37</time>
      </trkpt>
      <trkpt lat="36.064487965777516" lon="129.38520999625325">
        <ele>13.2</ele>
        <time>2026-06-05T12:58:38</time>
      </trkpt>
      <trkpt lat="36.06449693441391" lon="129.3852579407394">
        <ele>13.2</ele>
        <time>2026-06-05T12:58:39</time>
      </trkpt>
      <trkpt lat="36.064503975212574" lon="129.38530596904457">
        <ele>13.2</ele>
        <time>2026-06-05T12:58:40</time>
      </trkpt>
      <trkpt lat="36.06451193802059" lon="129.38535592518747">
        <ele>13.2</ele>
        <time>2026-06-05T12:58:41</time>
      </trkpt>
      <trkpt lat="36.06451797299087" lon="129.38540697097778">
        <ele>13.2</ele>
        <time>2026-06-05T12:58:42</time>
      </trkpt>
      <trkpt lat="36.06452199630439" lon="129.38545893877745">
        <ele>13.2</ele>
        <time>2026-06-05T12:58:43</time>
      </trkpt>
      <trkpt lat="36.06452291831374" lon="129.38550998456776">
        <ele>13.2</ele>
        <time>2026-06-05T12:58:44</time>
      </trkpt>
      <trkpt lat="36.06452291831374" lon="129.38555994071066">
        <ele>13.2</ele>
        <time>2026-06-05T12:58:45</time>
      </trkpt>
      <trkpt lat="36.06452291831374" lon="129.38561199232936">
        <ele>13.2</ele>
        <time>2026-06-05T12:58:46</time>
      </trkpt>
      <trkpt lat="36.06452291831374" lon="129.3856649659574">
        <ele>13.2</ele>
        <time>2026-06-05T12:58:47</time>
      </trkpt>
      <trkpt lat="36.06452291831374" lon="129.3857199512422">
        <ele>13.2</ele>
        <time>2026-06-05T12:58:48</time>
      </trkpt>
      <trkpt lat="36.06452291831374" lon="129.38577694818377">
        <ele>13.2</ele>
        <time>2026-06-05T12:58:49</time>
      </trkpt>
      <trkpt lat="36.0645249299705" lon="129.38583394512534">
        <ele>13.2</ele>
        <time>2026-06-05T12:58:50</time>
      </trkpt>
      <trkpt lat="36.06452593579888" lon="129.3858909420669">
        <ele>13.2</ele>
        <time>2026-06-05T12:58:51</time>
      </trkpt>
      <trkpt lat="36.06452593579888" lon="129.3859469331801">
        <ele>13.2</ele>
        <time>2026-06-05T12:58:52</time>
      </trkpt>
      <trkpt lat="36.06452593579888" lon="129.38599999062717">
        <ele>13.2</ele>
        <time>2026-06-05T12:58:53</time>
      </trkpt>
      <trkpt lat="36.06452593579888" lon="129.38605195842683">
        <ele>13.2</ele>
        <time>2026-06-05T12:58:54</time>
      </trkpt>
      <trkpt lat="36.064526941627264" lon="129.38610199838877">
        <ele>13.2</ele>
        <time>2026-06-05T12:58:55</time>
      </trkpt>
      <trkpt lat="36.064528953284025" lon="129.38614793121815">
        <ele>13.2</ele>
        <time>2026-06-05T12:58:56</time>
      </trkpt>
      <trkpt lat="36.064530964940786" lon="129.38619294203818">
        <ele>13.2</ele>
        <time>2026-06-05T12:58:57</time>
      </trkpt>
      <trkpt lat="36.064529959112406" lon="129.38623594120145">
        <ele>13.2</ele>
        <time>2026-06-05T12:58:58</time>
      </trkpt>
      <trkpt lat="36.064526941627264" lon="129.38627692870796">
        <ele>13.0</ele>
        <time>2026-06-05T12:58:59</time>
      </trkpt>
      <trkpt lat="36.0645249299705" lon="129.38631598837674">
        <ele>13.0</ele>
        <time>2026-06-05T12:59:00</time>
      </trkpt>
      <trkpt lat="36.0645249299705" lon="129.38635194674134">
        <ele>13.2</ele>
        <time>2026-06-05T12:59:01</time>
      </trkpt>
      <trkpt lat="36.064526941627264" lon="129.38638899475336">
        <ele>13.2</ele>
        <time>2026-06-05T12:59:02</time>
      </trkpt>
      <trkpt lat="36.064526941627264" lon="129.38642595894635">
        <ele>13.2</ele>
        <time>2026-06-05T12:59:03</time>
      </trkpt>
      <trkpt lat="36.06452593579888" lon="129.3864649347961">
        <ele>13.2</ele>
        <time>2026-06-05T12:59:04</time>
      </trkpt>
      <trkpt lat="36.06452291831374" lon="129.38650491647422">
        <ele>13.2</ele>
        <time>2026-06-05T12:59:05</time>
      </trkpt>
      <trkpt lat="36.06451797299087" lon="129.38654598779976">
        <ele>13.2</ele>
        <time>2026-06-05T12:59:06</time>
      </trkpt>
      <trkpt lat="36.064510932192206" lon="129.38658898696303">
        <ele>13.2</ele>
        <time>2026-06-05T12:59:07</time>
      </trkpt>
      <trkpt lat="36.06450196355581" lon="129.3866319861263">
        <ele>13.2</ele>
        <time>2026-06-05T12:59:08</time>
      </trkpt>
      <trkpt lat="36.06448997743428" lon="129.3866739794612">
        <ele>13.2</ele>
        <time>2026-06-05T12:59:09</time>
      </trkpt>
      <trkpt lat="36.06447799131274" lon="129.3867149669677">
        <ele>13.2</ele>
        <time>2026-06-05T12:59:10</time>
      </trkpt>
      <trkpt lat="36.064463993534446" lon="129.38675494864583">
        <ele>13.2</ele>
        <time>2026-06-05T12:59:11</time>
      </trkpt>
      <trkpt lat="36.0644509177655" lon="129.3867929186672">
        <ele>13.2</ele>
        <time>2026-06-05T12:59:12</time>
      </trkpt>
      <trkpt lat="36.06443792581558" lon="129.38682996667922">
        <ele>13.2</ele>
        <time>2026-06-05T12:59:13</time>
      </trkpt>
      <trkpt lat="36.06442593969405" lon="129.38686491921544">
        <ele>13.2</ele>
        <time>2026-06-05T12:59:14</time>
      </trkpt>
      <trkpt lat="36.06441395357251" lon="129.38689894974232">
        <ele>13.2</ele>
        <time>2026-06-05T12:59:15</time>
      </trkpt>
      <trkpt lat="36.06440297327936" lon="129.3869319744408">
        <ele>13.2</ele>
        <time>2026-06-05T12:59:16</time>
      </trkpt>
      <trkpt lat="36.0643919929862" lon="129.3869649991393">
        <ele>13.2</ele>
        <time>2026-06-05T12:59:17</time>
      </trkpt>
      <trkpt lat="36.064380928874016" lon="129.386995928362">
        <ele>13.0</ele>
        <time>2026-06-05T12:59:18</time>
      </trkpt>
      <trkpt lat="36.06436994858086" lon="129.38702492974699">
        <ele>13.0</ele>
        <time>2026-06-05T12:59:19</time>
      </trkpt>
      <trkpt lat="36.064358968287706" lon="129.38705099746585">
        <ele>13.0</ele>
        <time>2026-06-05T12:59:20</time>
      </trkpt>
      <trkpt lat="36.06434597633779" lon="129.3870759755373">
        <ele>13.0</ele>
        <time>2026-06-05T12:59:21</time>
      </trkpt>
      <trkpt lat="36.064334996044636" lon="129.38710095360875">
        <ele>12.8</ele>
        <time>2026-06-05T12:59:22</time>
      </trkpt>
      <trkpt lat="36.06432694941759" lon="129.38712693750858">
        <ele>12.8</ele>
        <time>2026-06-05T12:59:23</time>
      </trkpt>
      <trkpt lat="36.06432493776083" lon="129.38715099357069">
        <ele>12.6</ele>
        <time>2026-06-05T12:59:24</time>
      </trkpt>
      <trkpt lat="36.06432795524597" lon="129.3871669191867">
        <ele>12.6</ele>
        <time>2026-06-05T12:59:25</time>
      </trkpt>
      <trkpt lat="36.064331978559494" lon="129.38717395998538">
        <ele>12.4</ele>
        <time>2026-06-05T12:59:26</time>
      </trkpt>
      <trkpt lat="36.064337929710746" lon="129.3871819227934">
        <ele>12.4</ele>
        <time>2026-06-05T12:59:27</time>
      </trkpt>
      <trkpt lat="36.06434597633779" lon="129.38719298690557">
        <ele>12.4</ele>
        <time>2026-06-05T12:59:28</time>
      </trkpt>
      <trkpt lat="36.064355950802565" lon="129.3872059788555">
        <ele>12.4</ele>
        <time>2026-06-05T12:59:29</time>
      </trkpt>
      <trkpt lat="36.06436894275248" lon="129.38722098246217">
        <ele>12.2</ele>
        <time>2026-06-05T12:59:30</time>
      </trkpt>
      <trkpt lat="36.06438595801592" lon="129.38723598606884">
        <ele>12.4</ele>
        <time>2026-06-05T12:59:31</time>
      </trkpt>
      <trkpt lat="36.06440297327936" lon="129.38724998384714">
        <ele>12.4</ele>
        <time>2026-06-05T12:59:32</time>
      </trkpt>
      <trkpt lat="36.06441697105765" lon="129.38726498745382">
        <ele>12.4</ele>
        <time>2026-06-05T12:59:33</time>
      </trkpt>
      <trkpt lat="36.06442795135081" lon="129.38727898523211">
        <ele>12.4</ele>
        <time>2026-06-05T12:59:34</time>
      </trkpt>
      <trkpt lat="36.06443298049271" lon="129.38728694804013">
        <ele>12.4</ele>
        <time>2026-06-05T12:59:35</time>
      </trkpt>
      <trkpt lat="36.06443398632109" lon="129.3872889596969">
        <ele>12.2</ele>
        <time>2026-06-05T12:59:36</time>
      </trkpt>
      <trkpt lat="36.06443298049271" lon="129.38728996552527">
        <ele>12.2</ele>
        <time>2026-06-05T12:59:37</time>
      </trkpt>
      <trkpt lat="36.06442996300757" lon="129.38729499466717">
        <ele>12.2</ele>
        <time>2026-06-05T12:59:38</time>
      </trkpt>
      <trkpt lat="36.064399955794215" lon="129.3873349763453">
        <ele>11.8</ele>
        <time>2026-06-05T12:59:43</time>
      </trkpt>
      <trkpt lat="36.06439392082393" lon="129.3873429391533">
        <ele>11.8</ele>
        <time>2026-06-05T12:59:44</time>
      </trkpt>
      <trkpt lat="36.06438897550106" lon="129.38735098578036">
        <ele>11.8</ele>
        <time>2026-06-05T12:59:45</time>
      </trkpt>
      <trkpt lat="36.06438495218754" lon="129.38735593110323">
        <ele>11.8</ele>
        <time>2026-06-05T12:59:46</time>
      </trkpt>
      <trkpt lat="36.064381934702396" lon="129.38735894858837">
        <ele>11.8</ele>
        <time>2026-06-05T12:59:47</time>
      </trkpt>
      <trkpt lat="36.06438796967268" lon="129.38723498024046">
        <ele>12.6</ele>
        <time>2026-06-05T13:29:35</time>
      </trkpt>
      <trkpt lat="36.064375983551145" lon="129.38722492195666">
        <ele>12.6</ele>
        <time>2026-06-05T13:29:36</time>
      </trkpt>
      <trkpt lat="36.06436299160123" lon="129.38721193000674">
        <ele>12.6</ele>
        <time>2026-06-05T13:29:37</time>
      </trkpt>
      <trkpt lat="36.06435092166066" lon="129.38719793222845">
        <ele>12.6</ele>
        <time>2026-06-05T13:29:38</time>
      </trkpt>
      <trkpt lat="36.064335918053985" lon="129.3871869519353">
        <ele>12.8</ele>
        <time>2026-06-05T13:29:39</time>
      </trkpt>
      <trkpt lat="36.0643179807812" lon="129.38718494027853">
        <ele>12.8</ele>
        <time>2026-06-05T13:29:40</time>
      </trkpt>
      <trkpt lat="36.06429794803262" lon="129.3871919810772">
        <ele>12.8</ele>
        <time>2026-06-05T13:29:41</time>
      </trkpt>
      <trkpt lat="36.06427498161793" lon="129.3872049730271">
        <ele>12.6</ele>
        <time>2026-06-05T13:29:42</time>
      </trkpt>
      <trkpt lat="36.064249919727445" lon="129.3872189708054">
        <ele>12.6</ele>
        <time>2026-06-05T13:29:43</time>
      </trkpt>
      <trkpt lat="36.06422393582761" lon="129.3872329685837">
        <ele>12.6</ele>
        <time>2026-06-05T13:29:44</time>
      </trkpt>
      <trkpt lat="36.06419795192778" lon="129.38724797219038">
        <ele>12.6</ele>
        <time>2026-06-05T13:29:45</time>
      </trkpt>
      <trkpt lat="36.06417297385633" lon="129.38726699911058">
        <ele>12.6</ele>
        <time>2026-06-05T13:29:46</time>
      </trkpt>
      <trkpt lat="36.06414891779423" lon="129.38728594221175">
        <ele>12.6</ele>
        <time>2026-06-05T13:29:47</time>
      </trkpt>
      <trkpt lat="36.06412494555116" lon="129.38730396330357">
        <ele>12.6</ele>
        <time>2026-06-05T13:29:48</time>
      </trkpt>
      <trkpt lat="36.064100973308086" lon="129.38732198439538">
        <ele>12.6</ele>
        <time>2026-06-05T13:29:49</time>
      </trkpt>
      <trkpt lat="36.064076917245984" lon="129.38733899965882">
        <ele>12.6</ele>
        <time>2026-06-05T13:29:50</time>
      </trkpt>
      <trkpt lat="36.06405294500291" lon="129.38735492527485">
        <ele>12.6</ele>
        <time>2026-06-05T13:29:51</time>
      </trkpt>
      <trkpt lat="36.06402796693146" lon="129.38736992888153">
        <ele>12.6</ele>
        <time>2026-06-05T13:29:52</time>
      </trkpt>
      <trkpt lat="36.06400298886001" lon="129.38738392665982">
        <ele>12.6</ele>
        <time>2026-06-05T13:29:53</time>
      </trkpt>
      <trkpt lat="36.06397792696953" lon="129.38739792443812">
        <ele>12.6</ele>
        <time>2026-06-05T13:29:54</time>
      </trkpt>
      <trkpt lat="36.063951943069696" lon="129.38741091638803">
        <ele>12.6</ele>
        <time>2026-06-05T13:29:55</time>
      </trkpt>
      <trkpt lat="36.063927970826626" lon="129.38742499798536">
        <ele>12.6</ele>
        <time>2026-06-05T13:29:56</time>
      </trkpt>
      <trkpt lat="36.063903998583555" lon="129.38743899576366">
        <ele>12.6</ele>
        <time>2026-06-05T13:29:57</time>
      </trkpt>
      <trkpt lat="36.06387994252145" lon="129.38745399937034">
        <ele>12.6</ele>
        <time>2026-06-05T13:29:58</time>
      </trkpt>
      <trkpt lat="36.06385697610676" lon="129.38746891915798">
        <ele>12.6</ele>
        <time>2026-06-05T13:29:59</time>
      </trkpt>
      <trkpt lat="36.06383493170142" lon="129.38748392276466">
        <ele>12.6</ele>
        <time>2026-06-05T13:30:00</time>
      </trkpt>
      <trkpt lat="36.06381297111511" lon="129.3874969985336">
        <ele>12.6</ele>
        <time>2026-06-05T13:30:01</time>
      </trkpt>
      <trkpt lat="36.06379092670977" lon="129.38750797882676">
        <ele>12.6</ele>
        <time>2026-06-05T13:30:02</time>
      </trkpt>
      <trkpt lat="36.06376594863832" lon="129.38751895911992">
        <ele>12.6</ele>
        <time>2026-06-05T13:30:03</time>
      </trkpt>
      <trkpt lat="36.06373795308173" lon="129.38753195106983">
        <ele>12.6</ele>
        <time>2026-06-05T13:30:04</time>
      </trkpt>
      <trkpt lat="36.06370794586837" lon="129.3875479605049">
        <ele>12.8</ele>
        <time>2026-06-05T13:30:05</time>
      </trkpt>
      <trkpt lat="36.0636789444834" lon="129.38756396993995">
        <ele>12.8</ele>
        <time>2026-06-05T13:30:06</time>
      </trkpt>
      <trkpt lat="36.06365094892681" lon="129.387579979375">
        <ele>12.8</ele>
        <time>2026-06-05T13:30:07</time>
      </trkpt>
      <trkpt lat="36.063624965026975" lon="129.3875979166478">
        <ele>12.8</ele>
        <time>2026-06-05T13:30:08</time>
      </trkpt>
      <trkpt lat="36.06359998695552" lon="129.3876159377396">
        <ele>13.0</ele>
        <time>2026-06-05T13:30:09</time>
      </trkpt>
      <trkpt lat="36.06357593089342" lon="129.38763395883143">
        <ele>13.0</ele>
        <time>2026-06-05T13:30:10</time>
      </trkpt>
      <trkpt lat="36.06355095282197" lon="129.38765298575163">
        <ele>13.0</ele>
        <time>2026-06-05T13:30:11</time>
      </trkpt>
      <trkpt lat="36.06352496892214" lon="129.38767494633794">
        <ele>12.8</ele>
        <time>2026-06-05T13:30:12</time>
      </trkpt>
      <trkpt lat="36.063498985022306" lon="129.38769799657166">
        <ele>12.8</ele>
        <time>2026-06-05T13:30:13</time>
      </trkpt>
      <trkpt lat="36.06347098946571" lon="129.3877239804715">
        <ele>12.8</ele>
        <time>2026-06-05T13:30:14</time>
      </trkpt>
      <trkpt lat="36.06344198808074" lon="129.3877509701997">
        <ele>12.8</ele>
        <time>2026-06-05T13:30:15</time>
      </trkpt>
      <trkpt lat="36.06341298669577" lon="129.38778097741306">
        <ele>12.8</ele>
        <time>2026-06-05T13:30:16</time>
      </trkpt>
      <trkpt lat="36.0633869189769" lon="129.38781592994928">
        <ele>13.0</ele>
        <time>2026-06-05T13:30:17</time>
      </trkpt>
      <trkpt lat="36.06336194090545" lon="129.38785599544644">
        <ele>13.0</ele>
        <time>2026-06-05T13:30:18</time>
      </trkpt>
      <trkpt lat="36.06333998031914" lon="129.38789991661906">
        <ele>13.0</ele>
        <time>2026-06-05T13:30:19</time>
      </trkpt>
      <trkpt lat="36.06332195922732" lon="129.38794593326747">
        <ele>13.0</ele>
        <time>2026-06-05T13:30:20</time>
      </trkpt>
      <trkpt lat="36.06330695562065" lon="129.38799496740103">
        <ele>13.0</ele>
        <time>2026-06-05T13:30:21</time>
      </trkpt>
      <trkpt lat="36.06329597532749" lon="129.38804894685745">
        <ele>13.2</ele>
        <time>2026-06-05T13:30:22</time>
      </trkpt>
      <trkpt lat="36.06328792870045" lon="129.3881069496274">
        <ele>13.2</ele>
        <time>2026-06-05T13:30:23</time>
      </trkpt>
      <trkpt lat="36.063280971720815" lon="129.38816595822573">
        <ele>13.2</ele>
        <time>2026-06-05T13:30:24</time>
      </trkpt>
      <trkpt lat="36.06327191926539" lon="129.38822396099567">
        <ele>13.2</ele>
        <time>2026-06-05T13:30:25</time>
      </trkpt>
      <trkpt lat="36.06325792148709" lon="129.38827894628048">
        <ele>13.2</ele>
        <time>2026-06-05T13:30:26</time>
      </trkpt>
      <trkpt lat="36.063242917880416" lon="129.3883299920708">
        <ele>13.2</ele>
        <time>2026-06-05T13:30:27</time>
      </trkpt>
      <trkpt lat="36.06322397477925" lon="129.3883799482137">
        <ele>13.2</ele>
        <time>2026-06-05T13:30:28</time>
      </trkpt>
      <trkpt lat="36.06320394203067" lon="129.38842797651887">
        <ele>13.2</ele>
        <time>2026-06-05T13:30:29</time>
      </trkpt>
      <trkpt lat="36.06318198144436" lon="129.3884769268334">
        <ele>13.2</ele>
        <time>2026-06-05T13:30:30</time>
      </trkpt>
      <trkpt lat="36.0631609428674" lon="129.38852495513856">
        <ele>13.2</ele>
        <time>2026-06-05T13:30:31</time>
      </trkpt>
      <trkpt lat="36.06313898228109" lon="129.38857197761536">
        <ele>13.2</ele>
        <time>2026-06-05T13:30:32</time>
      </trkpt>
      <trkpt lat="36.06311794370413" lon="129.38862092792988">
        <ele>13.2</ele>
        <time>2026-06-05T13:30:33</time>
      </trkpt>
      <trkpt lat="36.0630969889462" lon="129.38866996206343">
        <ele>13.2</ele>
        <time>2026-06-05T13:30:34</time>
      </trkpt>
      <trkpt lat="36.06307695619762" lon="129.38871991820633">
        <ele>13.2</ele>
        <time>2026-06-05T13:30:35</time>
      </trkpt>
      <trkpt lat="36.0630589351058" lon="129.38876995816827">
        <ele>13.2</ele>
        <time>2026-06-05T13:30:36</time>
      </trkpt>
      <trkpt lat="36.06303999200463" lon="129.3888199981302">
        <ele>13.2</ele>
        <time>2026-06-05T13:30:37</time>
      </trkpt>
      <trkpt lat="36.063020965084434" lon="129.3888699542731">
        <ele>13.2</ele>
        <time>2026-06-05T13:30:38</time>
      </trkpt>
      <trkpt lat="36.063001938164234" lon="129.3889209162444">
        <ele>13.2</ele>
        <time>2026-06-05T13:30:39</time>
      </trkpt>
      <trkpt lat="36.062981989234686" lon="129.3889719620347">
        <ele>13.4</ele>
        <time>2026-06-05T13:30:40</time>
      </trkpt>
      <trkpt lat="36.062961956486106" lon="129.38902392983437">
        <ele>13.4</ele>
        <time>2026-06-05T13:30:41</time>
      </trkpt>
      <trkpt lat="36.062941923737526" lon="129.3890739697963">
        <ele>13.4</ele>
        <time>2026-06-05T13:30:42</time>
      </trkpt>
      <trkpt lat="36.06292298063636" lon="129.38912199810147">
        <ele>13.4</ele>
        <time>2026-06-05T13:30:43</time>
      </trkpt>
      <trkpt lat="36.06290395371616" lon="129.3891699425876">
        <ele>13.4</ele>
        <time>2026-06-05T13:30:44</time>
      </trkpt>
      <trkpt lat="36.06288492679596" lon="129.38921495340765">
        <ele>13.2</ele>
        <time>2026-06-05T13:30:45</time>
      </trkpt>
      <trkpt lat="36.06286598369479" lon="129.38925795257092">
        <ele>13.2</ele>
        <time>2026-06-05T13:30:46</time>
      </trkpt>
      <trkpt lat="36.06284695677459" lon="129.38930195756257">
        <ele>13.2</ele>
        <time>2026-06-05T13:30:47</time>
      </trkpt>
      <trkpt lat="36.062829941511154" lon="129.3893469683826">
        <ele>13.2</ele>
        <time>2026-06-05T13:30:48</time>
      </trkpt>
      <trkpt lat="36.0628139320761" lon="129.3893939908594">
        <ele>13.2</ele>
        <time>2026-06-05T13:30:49</time>
      </trkpt>
      <trkpt lat="36.06279792264104" lon="129.38944193534553">
        <ele>13.2</ele>
        <time>2026-06-05T13:30:50</time>
      </trkpt>
      <trkpt lat="36.06278493069112" lon="129.3894899636507">
        <ele>13.2</ele>
        <time>2026-06-05T13:30:51</time>
      </trkpt>
      <trkpt lat="36.06277294456959" lon="129.3895369861275">
        <ele>13.4</ele>
        <time>2026-06-05T13:30:52</time>
      </trkpt>
      <trkpt lat="36.062763975933194" lon="129.38958493061364">
        <ele>13.4</ele>
        <time>2026-06-05T13:30:53</time>
      </trkpt>
      <trkpt lat="36.06275592930615" lon="129.38963195309043">
        <ele>13.4</ele>
        <time>2026-06-05T13:30:54</time>
      </trkpt>
      <trkpt lat="36.062744949012995" lon="129.38967696391046">
        <ele>13.2</ele>
        <time>2026-06-05T13:30:55</time>
      </trkpt>
      <trkpt lat="36.06273396871984" lon="129.3897209689021">
        <ele>13.2</ele>
        <time>2026-06-05T13:30:56</time>
      </trkpt>
      <trkpt lat="36.062722988426685" lon="129.38976597972214">
        <ele>13.2</ele>
        <time>2026-06-05T13:30:57</time>
      </trkpt>
      <trkpt lat="36.06271594762802" lon="129.38981099054217">
        <ele>13.2</ele>
        <time>2026-06-05T13:30:58</time>
      </trkpt>
      <trkpt lat="36.06271494179964" lon="129.38985692337155">
        <ele>13.2</ele>
        <time>2026-06-05T13:30:59</time>
      </trkpt>
      <trkpt lat="36.06271795928478" lon="129.38990394584835">
        <ele>13.2</ele>
        <time>2026-06-05T13:31:00</time>
      </trkpt>
      <trkpt lat="36.062726927921176" lon="129.38995096832514">
        <ele>13.2</ele>
        <time>2026-06-05T13:31:01</time>
      </trkpt>
      <trkpt lat="36.06273899786174" lon="129.38999991863966">
        <ele>13.2</ele>
        <time>2026-06-05T13:31:02</time>
      </trkpt>
      <trkpt lat="36.06275299564004" lon="129.3900499586016">
        <ele>13.2</ele>
        <time>2026-06-05T13:31:03</time>
      </trkpt>
      <trkpt lat="36.062766993418336" lon="129.39009899273515">
        <ele>13.2</ele>
        <time>2026-06-05T13:31:04</time>
      </trkpt>
      <trkpt lat="36.06278099119663" lon="129.3901469372213">
        <ele>13.2</ele>
        <time>2026-06-05T13:31:05</time>
      </trkpt>
      <trkpt lat="36.06279398314655" lon="129.39019496552646">
        <ele>13.2</ele>
        <time>2026-06-05T13:31:06</time>
      </trkpt>
      <trkpt lat="36.062805969268084" lon="129.39024492166936">
        <ele>13.2</ele>
        <time>2026-06-05T13:31:07</time>
      </trkpt>
      <trkpt lat="36.06281594373286" lon="129.3902949616313">
        <ele>13.2</ele>
        <time>2026-06-05T13:31:08</time>
      </trkpt>
      <trkpt lat="36.06282692402601" lon="129.39034692943096">
        <ele>13.2</ele>
        <time>2026-06-05T13:31:09</time>
      </trkpt>
      <trkpt lat="36.0628379881382" lon="129.39039898104966">
        <ele>13.2</ele>
        <time>2026-06-05T13:31:10</time>
      </trkpt>
      <trkpt lat="36.062850980088115" lon="129.39045296050608">
        <ele>13.0</ele>
        <time>2026-06-05T13:31:11</time>
      </trkpt>
      <trkpt lat="36.06286397203803" lon="129.39050895161927">
        <ele>13.0</ele>
        <time>2026-06-05T13:31:12</time>
      </trkpt>
      <trkpt lat="36.062875958159566" lon="129.39056494273245">
        <ele>13.0</ele>
        <time>2026-06-05T13:31:13</time>
      </trkpt>
      <trkpt lat="36.0628879442811" lon="129.3906229455024">
        <ele>13.0</ele>
        <time>2026-06-05T13:31:14</time>
      </trkpt>
      <trkpt lat="36.06290093623102" lon="129.39067994244397">
        <ele>13.0</ele>
        <time>2026-06-05T13:31:15</time>
      </trkpt>
      <trkpt lat="36.06291392818093" lon="129.39073593355715">
        <ele>13.0</ele>
        <time>2026-06-05T13:31:16</time>
      </trkpt>
      <trkpt lat="36.06292692013085" lon="129.39079192467034">
        <ele>13.0</ele>
        <time>2026-06-05T13:31:17</time>
      </trkpt>
      <trkpt lat="36.062938990071416" lon="129.3908459879458">
        <ele>12.8</ele>
        <time>2026-06-05T13:31:18</time>
      </trkpt>
      <trkpt lat="36.06295198202133" lon="129.39089795574546">
        <ele>12.8</ele>
        <time>2026-06-05T13:31:19</time>
      </trkpt>
      <trkpt lat="36.06296497397125" lon="129.39094992354512">
        <ele>12.8</ele>
        <time>2026-06-05T13:31:20</time>
      </trkpt>
      <trkpt lat="36.06297696009278" lon="129.39099996350706">
        <ele>12.8</ele>
        <time>2026-06-05T13:31:21</time>
      </trkpt>
      <trkpt lat="36.0629899520427" lon="129.39104991964996">
        <ele>12.8</ele>
        <time>2026-06-05T13:31:22</time>
      </trkpt>
      <trkpt lat="36.063001938164234" lon="129.39109794795513">
        <ele>12.6</ele>
        <time>2026-06-05T13:31:23</time>
      </trkpt>
      <trkpt lat="36.06301392428577" lon="129.3911459762603">
        <ele>12.6</ele>
        <time>2026-06-05T13:31:24</time>
      </trkpt>
      <trkpt lat="36.06302599422634" lon="129.3911929987371">
        <ele>12.6</ele>
        <time>2026-06-05T13:31:25</time>
      </trkpt>
      <trkpt lat="36.06303798034787" lon="129.39124194905162">
        <ele>12.6</ele>
        <time>2026-06-05T13:31:26</time>
      </trkpt>
      <trkpt lat="36.06304896064103" lon="129.3912899773568">
        <ele>12.6</ele>
        <time>2026-06-05T13:31:27</time>
      </trkpt>
      <trkpt lat="36.06305994093418" lon="129.3913389276713">
        <ele>12.6</ele>
        <time>2026-06-05T13:31:28</time>
      </trkpt>
      <trkpt lat="36.063070921227336" lon="129.3913869559765">
        <ele>12.6</ele>
        <time>2026-06-05T13:31:29</time>
      </trkpt>
      <trkpt lat="36.06308198533952" lon="129.39143498428166">
        <ele>12.6</ele>
        <time>2026-06-05T13:31:30</time>
      </trkpt>
      <trkpt lat="36.06309397146106" lon="129.3914829287678">
        <ele>12.6</ele>
        <time>2026-06-05T13:31:31</time>
      </trkpt>
      <trkpt lat="36.06310495175421" lon="129.39153095707297">
        <ele>12.6</ele>
        <time>2026-06-05T13:31:32</time>
      </trkpt>
      <trkpt lat="36.06311593204737" lon="129.39157898537815">
        <ele>12.6</ele>
        <time>2026-06-05T13:31:33</time>
      </trkpt>
      <trkpt lat="36.06312599033117" lon="129.3916259240359">
        <ele>12.6</ele>
        <time>2026-06-05T13:31:34</time>
      </trkpt>
      <trkpt lat="36.06313596479595" lon="129.39167194068432">
        <ele>12.6</ele>
        <time>2026-06-05T13:31:35</time>
      </trkpt>
      <trkpt lat="36.06314593926072" lon="129.39171594567597">
        <ele>12.6</ele>
        <time>2026-06-05T13:31:36</time>
      </trkpt>
      <trkpt lat="36.063156919553876" lon="129.39176196232438">
        <ele>12.6</ele>
        <time>2026-06-05T13:31:37</time>
      </trkpt>
      <trkpt lat="36.06316898949444" lon="129.39180898480117">
        <ele>12.6</ele>
        <time>2026-06-05T13:31:38</time>
      </trkpt>
      <trkpt lat="36.06318097561598" lon="129.39185592345893">
        <ele>12.6</ele>
        <time>2026-06-05T13:31:39</time>
      </trkpt>
      <trkpt lat="36.06319296173751" lon="129.39190294593573">
        <ele>12.6</ele>
        <time>2026-06-05T13:31:40</time>
      </trkpt>
      <trkpt lat="36.06320494785905" lon="129.39194896258414">
        <ele>12.6</ele>
        <time>2026-06-05T13:31:41</time>
      </trkpt>
      <trkpt lat="36.06321492232382" lon="129.39199397340417">
        <ele>12.6</ele>
        <time>2026-06-05T13:31:42</time>
      </trkpt>
      <trkpt lat="36.06322598643601" lon="129.3920389842242">
        <ele>12.6</ele>
        <time>2026-06-05T13:31:43</time>
      </trkpt>
      <trkpt lat="36.0632349550724" lon="129.39208491705358">
        <ele>12.6</ele>
        <time>2026-06-05T13:31:44</time>
      </trkpt>
      <trkpt lat="36.06324199587107" lon="129.392130933702">
        <ele>12.6</ele>
        <time>2026-06-05T13:31:45</time>
      </trkpt>
      <trkpt lat="36.06324995867908" lon="129.39217493869364">
        <ele>12.6</ele>
        <time>2026-06-05T13:31:46</time>
      </trkpt>
      <trkpt lat="36.063258927315474" lon="129.3922189436853">
        <ele>12.6</ele>
        <time>2026-06-05T13:31:47</time>
      </trkpt>
      <trkpt lat="36.06326697394252" lon="129.39226093702018">
        <ele>12.6</ele>
        <time>2026-06-05T13:31:48</time>
      </trkpt>
      <trkpt lat="36.06327393092215" lon="129.3923019245267">
        <ele>12.6</ele>
        <time>2026-06-05T13:31:49</time>
      </trkpt>
      <trkpt lat="36.063279965892434" lon="129.39234098419547">
        <ele>12.6</ele>
        <time>2026-06-05T13:31:50</time>
      </trkpt>
      <trkpt lat="36.063285917043686" lon="129.39237996004522">
        <ele>12.6</ele>
        <time>2026-06-05T13:31:51</time>
      </trkpt>
      <trkpt lat="36.06329094618559" lon="129.3924169242382">
        <ele>12.4</ele>
        <time>2026-06-05T13:31:52</time>
      </trkpt>
      <trkpt lat="36.06329597532749" lon="129.39245196059346">
        <ele>12.4</ele>
        <time>2026-06-05T13:31:53</time>
      </trkpt>
      <trkpt lat="36.06329899281263" lon="129.39248699694872">
        <ele>12.4</ele>
        <time>2026-06-05T13:31:54</time>
      </trkpt>
      <trkpt lat="36.06330092065036" lon="129.39252094365656">
        <ele>12.4</ele>
        <time>2026-06-05T13:31:55</time>
      </trkpt>
      <trkpt lat="36.063303938135505" lon="129.3925519566983">
        <ele>12.4</ele>
        <time>2026-06-05T13:31:56</time>
      </trkpt>
      <trkpt lat="36.06330695562065" lon="129.39258095808327">
        <ele>12.4</ele>
        <time>2026-06-05T13:31:57</time>
      </trkpt>
      <trkpt lat="36.06331198476255" lon="129.39260593615472">
        <ele>12.4</ele>
        <time>2026-06-05T13:31:58</time>
      </trkpt>
      <trkpt lat="36.06332095339894" lon="129.39262697473168">
        <ele>12.4</ele>
        <time>2026-06-05T13:31:59</time>
      </trkpt>
      <trkpt lat="36.06333293952048" lon="129.39264097250998">
        <ele>12.4</ele>
        <time>2026-06-05T13:32:00</time>
      </trkpt>
      <trkpt lat="36.06335196644068" lon="129.39265094697475">
        <ele>12.4</ele>
        <time>2026-06-05T13:32:01</time>
      </trkpt>
      <trkpt lat="36.06337593868375" lon="129.39265798777342">
        <ele>12.4</ele>
        <time>2026-06-05T13:32:02</time>
      </trkpt>
      <trkpt lat="36.06340494006872" lon="129.3926589936018">
        <ele>12.4</ele>
        <time>2026-06-05T13:32:03</time>
      </trkpt>
      <trkpt lat="36.063434947282076" lon="129.392648935318">
        <ele>12.4</ele>
        <time>2026-06-05T13:32:04</time>
      </trkpt>
      <trkpt lat="36.06346495449543" lon="129.39262898638844">
        <ele>12.4</ele>
        <time>2026-06-05T13:32:05</time>
      </trkpt>
      <trkpt lat="36.06349295005202" lon="129.39260291866958">
        <ele>12.4</ele>
        <time>2026-06-05T13:32:06</time>
      </trkpt>
      <trkpt lat="36.063517928123474" lon="129.39256997779012">
        <ele>12.4</ele>
        <time>2026-06-05T13:32:07</time>
      </trkpt>
      <trkpt lat="36.06353695504367" lon="129.3925289902836">
        <ele>12.4</ele>
        <time>2026-06-05T13:32:08</time>
      </trkpt>
      <trkpt lat="36.06354692950845" lon="129.39248196780682">
        <ele>12.4</ele>
        <time>2026-06-05T13:32:09</time>
      </trkpt>
      <trkpt lat="36.06354894116521" lon="129.39243393950164">
        <ele>12.4</ele>
        <time>2026-06-05T13:32:10</time>
      </trkpt>
      <trkpt lat="36.06354894116521" lon="129.39238792285323">
        <ele>12.4</ele>
        <time>2026-06-05T13:32:11</time>
      </trkpt>
      <trkpt lat="36.06354994699359" lon="129.39235598780215">
        <ele>12.4</ele>
        <time>2026-06-05T13:32:12</time>
      </trkpt>
      <trkpt lat="36.06354994699359" lon="129.3923389725387">
        <ele>12.4</ele>
        <time>2026-06-05T13:32:13</time>
      </trkpt>
      <trkpt lat="36.06354793533683" lon="129.3923339433968">
        <ele>12.4</ele>
        <time>2026-06-05T13:32:14</time>
      </trkpt>
      <trkpt lat="36.06354592368007" lon="129.39233595505357">
        <ele>12.4</ele>
        <time>2026-06-05T13:32:15</time>
      </trkpt>
      <trkpt lat="36.06354399584234" lon="129.39234098419547">
        <ele>12.4</ele>
        <time>2026-06-05T13:32:16</time>
      </trkpt>
      <trkpt lat="36.06349295005202" lon="129.39239697530866">
        <ele>11.4</ele>
        <time>2026-06-05T14:00:56</time>
      </trkpt>
      <trkpt lat="36.0634939558804" lon="129.39241197891533">
        <ele>11.4</ele>
        <time>2026-06-05T14:00:57</time>
      </trkpt>
      <trkpt lat="36.063494961708784" lon="129.39241994172335">
        <ele>11.2</ele>
        <time>2026-06-05T14:00:58</time>
      </trkpt>
      <trkpt lat="36.063495967537165" lon="129.3924219533801">
        <ele>11.2</ele>
        <time>2026-06-05T14:00:59</time>
      </trkpt>
      <trkpt lat="36.063497979193926" lon="129.3924219533801">
        <ele>11.4</ele>
        <time>2026-06-05T14:01:00</time>
      </trkpt>
      <trkpt lat="36.06349295005202" lon="129.39245992340147">
        <ele>11.8</ele>
        <time>2026-06-05T14:01:15</time>
      </trkpt>
      <trkpt lat="36.06347995810211" lon="129.39246696420014">
        <ele>11.8</ele>
        <time>2026-06-05T14:01:16</time>
      </trkpt>
      <trkpt lat="36.06346596032381" lon="129.39246696420014">
        <ele>11.8</ele>
        <time>2026-06-05T14:01:17</time>
      </trkpt>
      <trkpt lat="36.063451962545514" lon="129.39245992340147">
        <ele>11.8</ele>
        <time>2026-06-05T14:01:18</time>
      </trkpt>
      <trkpt lat="36.0634389705956" lon="129.39245095476508">
        <ele>11.8</ele>
        <time>2026-06-05T14:01:19</time>
      </trkpt>
      <trkpt lat="36.06342799030244" lon="129.39243695698678">
        <ele>11.8</ele>
        <time>2026-06-05T14:01:20</time>
      </trkpt>
      <trkpt lat="36.0634199436754" lon="129.39241893589497">
        <ele>12.0</ele>
        <time>2026-06-05T14:01:21</time>
      </trkpt>
      <trkpt lat="36.06341399252415" lon="129.39239295199513">
        <ele>12.0</ele>
        <time>2026-06-05T14:01:22</time>
      </trkpt>
      <trkpt lat="36.063409969210625" lon="129.39236294478178">
        <ele>12.0</ele>
        <time>2026-06-05T14:01:23</time>
      </trkpt>
      <trkpt lat="36.06340393424034" lon="129.39232992008328">
        <ele>12.2</ele>
        <time>2026-06-05T14:01:24</time>
      </trkpt>
      <trkpt lat="36.06339697726071" lon="129.39229597337544">
        <ele>12.2</ele>
        <time>2026-06-05T14:01:25</time>
      </trkpt>
      <trkpt lat="36.06339295394719" lon="129.39226294867694">
        <ele>12.4</ele>
        <time>2026-06-05T14:01:26</time>
      </trkpt>
      <trkpt lat="36.06339295394719" lon="129.39223595894873">
        <ele>12.4</ele>
        <time>2026-06-05T14:01:27</time>
      </trkpt>
      <trkpt lat="36.06339395977557" lon="129.39221592620015">
        <ele>12.4</ele>
        <time>2026-06-05T14:01:28</time>
      </trkpt>
      <trkpt lat="36.06339395977557" lon="129.3921999167651">
        <ele>12.4</ele>
        <time>2026-06-05T14:01:29</time>
      </trkpt>
      <trkpt lat="36.06339395977557" lon="129.39219396561384">
        <ele>12.4</ele>
        <time>2026-06-05T14:01:30</time>
      </trkpt>
      <trkpt lat="36.06339295394719" lon="129.3921959772706">
        <ele>12.4</ele>
        <time>2026-06-05T14:01:31</time>
      </trkpt>
      <trkpt lat="36.06339295394719" lon="129.39219899475574">
        <ele>12.4</ele>
        <time>2026-06-05T14:01:32</time>
      </trkpt>
      <trkpt lat="36.06339295394719" lon="129.39220293425024">
        <ele>12.4</ele>
        <time>2026-06-05T14:01:33</time>
      </trkpt>
      <trkpt lat="36.06336194090545" lon="129.39216999337077">
        <ele>12.0</ele>
        <time>2026-06-05T14:01:42</time>
      </trkpt>
      <trkpt lat="36.06334391981363" lon="129.39215993508697">
        <ele>12.0</ele>
        <time>2026-06-05T14:01:43</time>
      </trkpt>
      <trkpt lat="36.06332195922732" lon="129.39214794896543">
        <ele>12.0</ele>
        <time>2026-06-05T14:01:44</time>
      </trkpt>
      <trkpt lat="36.063299998641014" lon="129.392130933702">
        <ele>12.0</ele>
        <time>2026-06-05T14:01:45</time>
      </trkpt>
      <trkpt lat="36.063280971720815" lon="129.39210494980216">
        <ele>12.0</ele>
        <time>2026-06-05T14:01:46</time>
      </trkpt>
      <trkpt lat="36.06326395645738" lon="129.39207293093204">
        <ele>12.0</ele>
        <time>2026-06-05T14:01:47</time>
      </trkpt>
      <trkpt lat="36.0632439237088" lon="129.39204099588096">
        <ele>12.0</ele>
        <time>2026-06-05T14:01:48</time>
      </trkpt>
      <trkpt lat="36.06322196312249" lon="129.39200797118247">
        <ele>12.2</ele>
        <time>2026-06-05T14:01:49</time>
      </trkpt>
      <trkpt lat="36.063199918717146" lon="129.39196899533272">
        <ele>12.2</ele>
        <time>2026-06-05T14:01:50</time>
      </trkpt>
      <trkpt lat="36.06318198144436" lon="129.39192197285593">
        <ele>12.6</ele>
        <time>2026-06-05T14:01:51</time>
      </trkpt>
      <trkpt lat="36.06316798366606" lon="129.39186992123723">
        <ele>12.8</ele>
        <time>2026-06-05T14:01:52</time>
      </trkpt>
      <trkpt lat="36.06315599754453" lon="129.39181493595243">
        <ele>12.8</ele>
        <time>2026-06-05T14:01:53</time>
      </trkpt>
      <trkpt lat="36.06314593926072" lon="129.39175894483924">
        <ele>13.0</ele>
        <time>2026-06-05T14:01:54</time>
      </trkpt>
      <trkpt lat="36.06313495896757" lon="129.39170496538281">
        <ele>13.0</ele>
        <time>2026-06-05T14:01:55</time>
      </trkpt>
      <trkpt lat="36.06312397867441" lon="129.39165299758315">
        <ele>13.2</ele>
        <time>2026-06-05T14:01:56</time>
      </trkpt>
      <trkpt lat="36.06311199255288" lon="129.3915989343077">
        <ele>13.2</ele>
        <time>2026-06-05T14:01:57</time>
      </trkpt>
      <trkpt lat="36.06310092844069" lon="129.3915439490229">
        <ele>13.4</ele>
        <time>2026-06-05T14:01:58</time>
      </trkpt>
      <trkpt lat="36.063088942319155" lon="129.39148695208132">
        <ele>13.6</ele>
        <time>2026-06-05T14:01:59</time>
      </trkpt>
      <trkpt lat="36.06307595036924" lon="129.39142995513976">
        <ele>13.8</ele>
        <time>2026-06-05T14:02:00</time>
      </trkpt>
      <trkpt lat="36.06306195259094" lon="129.39137094654143">
        <ele>13.8</ele>
        <time>2026-06-05T14:02:01</time>
      </trkpt>
      <trkpt lat="36.063047954812646" lon="129.3913119379431">
        <ele>14.0</ele>
        <time>2026-06-05T14:02:02</time>
      </trkpt>
      <trkpt lat="36.06303295120597" lon="129.39125393517315">
        <ele>13.8</ele>
        <time>2026-06-05T14:02:03</time>
      </trkpt>
      <trkpt lat="36.06301895342767" lon="129.3911959324032">
        <ele>13.8</ele>
        <time>2026-06-05T14:02:04</time>
      </trkpt>
      <trkpt lat="36.063003949820995" lon="129.39113893546164">
        <ele>13.8</ele>
        <time>2026-06-05T14:02:05</time>
      </trkpt>
      <trkpt lat="36.06299095787108" lon="129.39108193852007">
        <ele>13.8</ele>
        <time>2026-06-05T14:02:06</time>
      </trkpt>
      <trkpt lat="36.062977965921164" lon="129.3910259474069">
        <ele>13.6</ele>
        <time>2026-06-05T14:02:07</time>
      </trkpt>
      <trkpt lat="36.06296698562801" lon="129.39097096212208">
        <ele>13.6</ele>
        <time>2026-06-05T14:02:08</time>
      </trkpt>
      <trkpt lat="36.06295592151582" lon="129.39091698266566">
        <ele>13.6</ele>
        <time>2026-06-05T14:02:09</time>
      </trkpt>
      <trkpt lat="36.06294494122267" lon="129.39086392521858">
        <ele>13.6</ele>
        <time>2026-06-05T14:02:10</time>
      </trkpt>
      <trkpt lat="36.062934966757894" lon="129.39081195741892">
        <ele>13.6</ele>
        <time>2026-06-05T14:02:11</time>
      </trkpt>
      <trkpt lat="36.06292499229312" lon="129.39076191745698">
        <ele>13.6</ele>
        <time>2026-06-05T14:02:12</time>
      </trkpt>
      <trkpt lat="36.06291292235255" lon="129.39071196131408">
        <ele>13.6</ele>
        <time>2026-06-05T14:02:13</time>
      </trkpt>
      <trkpt lat="36.06289993040264" lon="129.3906609993428">
        <ele>13.6</ele>
        <time>2026-06-05T14:02:14</time>
      </trkpt>
      <trkpt lat="36.0628879442811" lon="129.39060995355248">
        <ele>13.6</ele>
        <time>2026-06-05T14:02:15</time>
      </trkpt>
      <trkpt lat="36.06287696398795" lon="129.39055999740958">
        <ele>13.6</ele>
        <time>2026-06-05T14:02:16</time>
      </trkpt>
      <trkpt lat="36.06286598369479" lon="129.39050995744765">
        <ele>13.6</ele>
        <time>2026-06-05T14:02:17</time>
      </trkpt>
      <trkpt lat="36.062855925410986" lon="129.3904609233141">
        <ele>13.8</ele>
        <time>2026-06-05T14:02:18</time>
      </trkpt>
      <trkpt lat="36.06284695677459" lon="129.39041297882795">
        <ele>14.0</ele>
        <time>2026-06-05T14:02:19</time>
      </trkpt>
      <trkpt lat="36.06283597648144" lon="129.39036595635116">
        <ele>14.0</ele>
        <time>2026-06-05T14:02:20</time>
      </trkpt>
      <trkpt lat="36.06282591819763" lon="129.39031893387437">
        <ele>14.0</ele>
        <time>2026-06-05T14:02:21</time>
      </trkpt>
      <trkpt lat="36.06281493790448" lon="129.3902719952166">
        <ele>14.2</ele>
        <time>2026-06-05T14:02:22</time>
      </trkpt>
      <trkpt lat="36.06280295178294" lon="129.39022396691144">
        <ele>14.2</ele>
        <time>2026-06-05T14:02:23</time>
      </trkpt>
      <trkpt lat="36.06279096566141" lon="129.39017694443464">
        <ele>14.4</ele>
        <time>2026-06-05T14:02:24</time>
      </trkpt>
      <trkpt lat="36.06277797371149" lon="129.3901289999485">
        <ele>14.4</ele>
        <time>2026-06-05T14:02:25</time>
      </trkpt>
      <trkpt lat="36.062764981761575" lon="129.3900819774717">
        <ele>14.6</ele>
        <time>2026-06-05T14:02:26</time>
      </trkpt>
      <trkpt lat="36.06275299564004" lon="129.3900359608233">
        <ele>14.4</ele>
        <time>2026-06-05T14:02:27</time>
      </trkpt>
      <trkpt lat="36.06274193152785" lon="129.38999095000327">
        <ele>14.4</ele>
        <time>2026-06-05T14:02:28</time>
      </trkpt>
      <trkpt lat="36.06273195706308" lon="129.38994493335485">
        <ele>14.4</ele>
        <time>2026-06-05T14:02:29</time>
      </trkpt>
      <trkpt lat="36.062724916264415" lon="129.3898979946971">
        <ele>14.6</ele>
        <time>2026-06-05T14:02:30</time>
      </trkpt>
      <trkpt lat="36.062720976769924" lon="129.3898509722203">
        <ele>14.6</ele>
        <time>2026-06-05T14:02:31</time>
      </trkpt>
      <trkpt lat="36.062719970941544" lon="129.38980093225837">
        <ele>14.4</ele>
        <time>2026-06-05T14:02:32</time>
      </trkpt>
      <trkpt lat="36.062721982598305" lon="129.3897489644587">
        <ele>14.4</ele>
        <time>2026-06-05T14:02:33</time>
      </trkpt>
      <trkpt lat="36.06272893957794" lon="129.38969498500228">
        <ele>14.4</ele>
        <time>2026-06-05T14:02:34</time>
      </trkpt>
      <trkpt lat="36.06273991987109" lon="129.38964293338358">
        <ele>14.2</ele>
        <time>2026-06-05T14:02:35</time>
      </trkpt>
      <trkpt lat="36.06275198981166" lon="129.38959096558392">
        <ele>14.2</ele>
        <time>2026-06-05T14:02:36</time>
      </trkpt>
      <trkpt lat="36.062764981761575" lon="129.38954293727875">
        <ele>14.0</ele>
        <time>2026-06-05T14:02:37</time>
      </trkpt>
      <trkpt lat="36.06277998536825" lon="129.3894949927926">
        <ele>14.0</ele>
        <time>2026-06-05T14:02:38</time>
      </trkpt>
      <trkpt lat="36.06279498897493" lon="129.38944998197258">
        <ele>14.0</ele>
        <time>2026-06-05T14:02:39</time>
      </trkpt>
      <trkpt lat="36.06281099840999" lon="129.38940597698092">
        <ele>13.8</ele>
        <time>2026-06-05T14:02:40</time>
      </trkpt>
      <trkpt lat="36.062828935682774" lon="129.38936197198927">
        <ele>13.8</ele>
        <time>2026-06-05T14:02:41</time>
      </trkpt>
      <trkpt lat="36.06284796260297" lon="129.389318972826">
        <ele>13.6</ele>
        <time>2026-06-05T14:02:42</time>
      </trkpt>
      <trkpt lat="36.06286698952317" lon="129.38927496783435">
        <ele>13.6</ele>
        <time>2026-06-05T14:02:43</time>
      </trkpt>
      <trkpt lat="36.06288693845272" lon="129.38922794535756">
        <ele>13.4</ele>
        <time>2026-06-05T14:02:44</time>
      </trkpt>
      <trkpt lat="36.06290596537292" lon="129.38918092288077">
        <ele>13.4</ele>
        <time>2026-06-05T14:02:45</time>
      </trkpt>
      <trkpt lat="36.06292398646474" lon="129.38913197256625">
        <ele>13.4</ele>
        <time>2026-06-05T14:02:46</time>
      </trkpt>
      <trkpt lat="36.062941923737526" lon="129.3890829384327">
        <ele>13.4</ele>
        <time>2026-06-05T14:02:47</time>
      </trkpt>
      <trkpt lat="36.062957933172584" lon="129.3890319764614">
        <ele>13.4</ele>
        <time>2026-06-05T14:02:48</time>
      </trkpt>
      <trkpt lat="36.06297494843602" lon="129.38898294232786">
        <ele>13.4</ele>
        <time>2026-06-05T14:02:49</time>
      </trkpt>
      <trkpt lat="36.06299296952784" lon="129.38893591985106">
        <ele>13.4</ele>
        <time>2026-06-05T14:02:50</time>
      </trkpt>
      <trkpt lat="36.06301099061966" lon="129.3888889811933">
        <ele>13.2</ele>
        <time>2026-06-05T14:02:51</time>
      </trkpt>
      <trkpt lat="36.063027922064066" lon="129.3888429645449">
        <ele>13.2</ele>
        <time>2026-06-05T14:02:52</time>
      </trkpt>
      <trkpt lat="36.063045943155885" lon="129.38879694789648">
        <ele>13.2</ele>
        <time>2026-06-05T14:02:53</time>
      </trkpt>
      <trkpt lat="36.063064970076084" lon="129.38875093124807">
        <ele>13.2</ele>
        <time>2026-06-05T14:02:54</time>
      </trkpt>
      <trkpt lat="36.06308399699628" lon="129.3887039925903">
        <ele>13.2</ele>
        <time>2026-06-05T14:02:55</time>
      </trkpt>
      <trkpt lat="36.06310193426907" lon="129.38865697011352">
        <ele>13.2</ele>
        <time>2026-06-05T14:02:56</time>
      </trkpt>
      <trkpt lat="36.06312096118927" lon="129.38860994763672">
        <ele>13.2</ele>
        <time>2026-06-05T14:02:57</time>
      </trkpt>
      <trkpt lat="36.06313898228109" lon="129.38856292515993">
        <ele>13.2</ele>
        <time>2026-06-05T14:02:58</time>
      </trkpt>
      <trkpt lat="36.06315792538226" lon="129.38851699233055">
        <ele>13.0</ele>
        <time>2026-06-05T14:02:59</time>
      </trkpt>
      <trkpt lat="36.063176952302456" lon="129.38846996985376">
        <ele>13.0</ele>
        <time>2026-06-05T14:03:00</time>
      </trkpt>
      <trkpt lat="36.063195979222655" lon="129.38842294737697">
        <ele>13.0</ele>
        <time>2026-06-05T14:03:01</time>
      </trkpt>
      <trkpt lat="36.063215928152204" lon="129.3883749190718">
        <ele>13.0</ele>
        <time>2026-06-05T14:03:02</time>
      </trkpt>
      <trkpt lat="36.06323394924402" lon="129.38832697458565">
        <ele>13.0</ele>
        <time>2026-06-05T14:03:03</time>
      </trkpt>
      <trkpt lat="36.06325096450746" lon="129.38827894628048">
        <ele>13.0</ele>
        <time>2026-06-05T14:03:04</time>
      </trkpt>
      <trkpt lat="36.06326697394252" lon="129.38822899013758">
        <ele>13.0</ele>
        <time>2026-06-05T14:03:05</time>
      </trkpt>
      <trkpt lat="36.063280971720815" lon="129.38817794434726">
        <ele>13.0</ele>
        <time>2026-06-05T14:03:06</time>
      </trkpt>
      <trkpt lat="36.06329295784235" lon="129.38812698237598">
        <ele>13.2</ele>
        <time>2026-06-05T14:03:07</time>
      </trkpt>
      <trkpt lat="36.063304943963885" lon="129.38807493075728">
        <ele>13.2</ele>
        <time>2026-06-05T14:03:08</time>
      </trkpt>
      <trkpt lat="36.06331491842866" lon="129.38802195712924">
        <ele>13.4</ele>
        <time>2026-06-05T14:03:09</time>
      </trkpt>
      <trkpt lat="36.06332799419761" lon="129.38796998932958">
        <ele>13.4</ele>
        <time>2026-06-05T14:03:10</time>
      </trkpt>
      <trkpt lat="36.06334098614752" lon="129.38791793771088">
        <ele>13.4</ele>
        <time>2026-06-05T14:03:11</time>
      </trkpt>
      <trkpt lat="36.06335791759193" lon="129.38786798156798">
        <ele>13.4</ele>
        <time>2026-06-05T14:03:12</time>
      </trkpt>
      <trkpt lat="36.06337895616889" lon="129.38782196491957">
        <ele>13.2</ele>
        <time>2026-06-05T14:03:13</time>
      </trkpt>
      <trkpt lat="36.06340393424034" lon="129.38778097741306">
        <ele>13.2</ele>
        <time>2026-06-05T14:03:14</time>
      </trkpt>
      <trkpt lat="36.063431929796934" lon="129.38774392940104">
        <ele>13.2</ele>
        <time>2026-06-05T14:03:15</time>
      </trkpt>
      <trkpt lat="36.06346495449543" lon="129.3877099826932">
        <ele>13.0</ele>
        <time>2026-06-05T14:03:16</time>
      </trkpt>
      <trkpt lat="36.06350099667907" lon="129.3876769579947">
        <ele>13.0</ele>
        <time>2026-06-05T14:03:17</time>
      </trkpt>
      <trkpt lat="36.063538966700435" lon="129.38764695078135">
        <ele>12.8</ele>
        <time>2026-06-05T14:03:18</time>
      </trkpt>
      <trkpt lat="36.0635769367218" lon="129.38761996105313">
        <ele>12.4</ele>
        <time>2026-06-05T14:03:19</time>
      </trkpt>
      <trkpt lat="36.06361398473382" lon="129.3875979166478">
        <ele>12.2</ele>
        <time>2026-06-05T14:03:20</time>
      </trkpt>
      <trkpt lat="36.06365195475519" lon="129.38757796771824">
        <ele>12.2</ele>
        <time>2026-06-05T14:03:21</time>
      </trkpt>
      <trkpt lat="36.063689924776554" lon="129.38755894079804">
        <ele>12.0</ele>
        <time>2026-06-05T14:03:22</time>
      </trkpt>
      <trkpt lat="36.06372797861695" lon="129.3875389918685">
        <ele>11.8</ele>
        <time>2026-06-05T14:03:23</time>
      </trkpt>
      <trkpt lat="36.06376494280994" lon="129.38751895911992">
        <ele>11.8</ele>
        <time>2026-06-05T14:03:24</time>
      </trkpt>
      <trkpt lat="36.06380098499358" lon="129.3875009380281">
        <ele>11.8</ele>
        <time>2026-06-05T14:03:25</time>
      </trkpt>
      <trkpt lat="36.06383694335818" lon="129.38748199492693">
        <ele>11.8</ele>
        <time>2026-06-05T14:03:26</time>
      </trkpt>
      <trkpt lat="36.0638739913702" lon="129.3874599505216">
        <ele>11.8</ele>
        <time>2026-06-05T14:03:27</time>
      </trkpt>
      <trkpt lat="36.06391397304833" lon="129.38743798993528">
        <ele>11.8</ele>
        <time>2026-06-05T14:03:28</time>
      </trkpt>
      <trkpt lat="36.06395596638322" lon="129.38741594552994">
        <ele>11.8</ele>
        <time>2026-06-05T14:03:29</time>
      </trkpt>
      <trkpt lat="36.06399795971811" lon="129.38739297911525">
        <ele>11.8</ele>
        <time>2026-06-05T14:03:30</time>
      </trkpt>
      <trkpt lat="36.064039953053" lon="129.3873709347099">
        <ele>11.8</ele>
        <time>2026-06-05T14:03:31</time>
      </trkpt>
      <trkpt lat="36.064079934731126" lon="129.38734796829522">
        <ele>11.8</ele>
        <time>2026-06-05T14:03:32</time>
      </trkpt>
      <trkpt lat="36.064118994399905" lon="129.3873249180615">
        <ele>11.8</ele>
        <time>2026-06-05T14:03:33</time>
      </trkpt>
      <trkpt lat="36.06415797024965" lon="129.38730396330357">
        <ele>11.8</ele>
        <time>2026-06-05T14:03:34</time>
      </trkpt>
      <trkpt lat="36.06419493444264" lon="129.38728191889822">
        <ele>11.8</ele>
        <time>2026-06-05T14:03:35</time>
      </trkpt>
      <trkpt lat="36.06423097662628" lon="129.38725694082677">
        <ele>11.8</ele>
        <time>2026-06-05T14:03:36</time>
      </trkpt>
      <trkpt lat="36.0642659291625" lon="129.38722894527018">
        <ele>11.8</ele>
        <time>2026-06-05T14:03:37</time>
      </trkpt>
      <trkpt lat="36.06429694220424" lon="129.38719592057168">
        <ele>11.8</ele>
        <time>2026-06-05T14:03:38</time>
      </trkpt>
      <trkpt lat="36.06432493776083" lon="129.38715694472194">
        <ele>11.8</ele>
        <time>2026-06-05T14:03:39</time>
      </trkpt>
      <trkpt lat="36.06434899382293" lon="129.3871169630438">
        <ele>11.8</ele>
        <time>2026-06-05T14:03:40</time>
      </trkpt>
      <trkpt lat="36.0643679369241" lon="129.38707698136568">
        <ele>11.6</ele>
        <time>2026-06-05T14:03:41</time>
      </trkpt>
      <trkpt lat="36.06438294053078" lon="129.3870379216969">
        <ele>11.6</ele>
        <time>2026-06-05T14:03:42</time>
      </trkpt>
      <trkpt lat="36.064397944137454" lon="129.38700095750391">
        <ele>11.6</ele>
        <time>2026-06-05T14:03:43</time>
      </trkpt>
      <trkpt lat="36.06441294774413" lon="129.3869609758258">
        <ele>11.6</ele>
        <time>2026-06-05T14:03:44</time>
      </trkpt>
      <trkpt lat="36.06442694552243" lon="129.386913953349">
        <ele>11.6</ele>
        <time>2026-06-05T14:03:45</time>
      </trkpt>
      <trkpt lat="36.06443893164396" lon="129.38685997389257">
        <ele>11.8</ele>
        <time>2026-06-05T14:03:46</time>
      </trkpt>
      <trkpt lat="36.06445393525064" lon="129.38680197112262">
        <ele>12.0</ele>
        <time>2026-06-05T14:03:47</time>
      </trkpt>
      <trkpt lat="36.06447095051408" lon="129.38674095086753">
        <ele>12.0</ele>
        <time>2026-06-05T14:03:48</time>
      </trkpt>
      <trkpt lat="36.06448997743428" lon="129.38667993061244">
        <ele>12.2</ele>
        <time>2026-06-05T14:03:49</time>
      </trkpt>
      <trkpt lat="36.064506992697716" lon="129.38661597669125">
        <ele>12.2</ele>
        <time>2026-06-05T14:03:50</time>
      </trkpt>
      <trkpt lat="36.06452099047601" lon="129.3865529447794">
        <ele>12.4</ele>
        <time>2026-06-05T14:03:51</time>
      </trkpt>
      <trkpt lat="36.064530964940786" lon="129.3864889908582">
        <ele>12.4</ele>
        <time>2026-06-05T14:03:52</time>
      </trkpt>
      <trkpt lat="36.06453498825431" lon="129.38642595894635">
        <ele>12.2</ele>
        <time>2026-06-05T14:03:53</time>
      </trkpt>
      <trkpt lat="36.06453599408269" lon="129.38636594451964">
        <ele>12.4</ele>
        <time>2026-06-05T14:03:54</time>
      </trkpt>
      <trkpt lat="36.06453398242593" lon="129.3863069359213">
        <ele>12.4</ele>
        <time>2026-06-05T14:03:55</time>
      </trkpt>
      <trkpt lat="36.06453297659755" lon="129.38624893315136">
        <ele>12.4</ele>
        <time>2026-06-05T14:03:56</time>
      </trkpt>
      <trkpt lat="36.064529959112406" lon="129.3861919362098">
        <ele>12.4</ele>
        <time>2026-06-05T14:03:57</time>
      </trkpt>
      <trkpt lat="36.064527947455645" lon="129.3861359450966">
        <ele>12.4</ele>
        <time>2026-06-05T14:03:58</time>
      </trkpt>
      <trkpt lat="36.0645249299705" lon="129.3860809598118">
        <ele>12.4</ele>
        <time>2026-06-05T14:03:59</time>
      </trkpt>
      <trkpt lat="36.06452291831374" lon="129.38602496869862">
        <ele>12.4</ele>
        <time>2026-06-05T14:04:00</time>
      </trkpt>
      <trkpt lat="36.06452199630439" lon="129.38596797175705">
        <ele>12.4</ele>
        <time>2026-06-05T14:04:01</time>
      </trkpt>
      <trkpt lat="36.06451998464763" lon="129.38590795733035">
        <ele>12.4</ele>
        <time>2026-06-05T14:04:02</time>
      </trkpt>
      <trkpt lat="36.06451897881925" lon="129.38584593124688">
        <ele>12.4</ele>
        <time>2026-06-05T14:04:03</time>
      </trkpt>
      <trkpt lat="36.06451797299087" lon="129.38578197732568">
        <ele>12.4</ele>
        <time>2026-06-05T14:04:04</time>
      </trkpt>
      <trkpt lat="36.06451696716249" lon="129.38571793958545">
        <ele>12.2</ele>
        <time>2026-06-05T14:04:05</time>
      </trkpt>
      <trkpt lat="36.06451596133411" lon="129.38565499149263">
        <ele>12.2</ele>
        <time>2026-06-05T14:04:06</time>
      </trkpt>
      <trkpt lat="36.06451495550573" lon="129.38559195958078">
        <ele>12.2</ele>
        <time>2026-06-05T14:04:07</time>
      </trkpt>
      <trkpt lat="36.06451394967735" lon="129.38553194515407">
        <ele>12.2</ele>
        <time>2026-06-05T14:04:08</time>
      </trkpt>
      <trkpt lat="36.06451193802059" lon="129.38547394238412">
        <ele>12.0</ele>
        <time>2026-06-05T14:04:09</time>
      </trkpt>
      <trkpt lat="36.064509926363826" lon="129.3854199629277">
        <ele>12.0</ele>
        <time>2026-06-05T14:04:10</time>
      </trkpt>
      <trkpt lat="36.064504981040955" lon="129.38536891713738">
        <ele>12.0</ele>
        <time>2026-06-05T14:04:11</time>
      </trkpt>
      <trkpt lat="36.06449693441391" lon="129.38531896099448">
        <ele>12.2</ele>
        <time>2026-06-05T14:04:12</time>
      </trkpt>
      <trkpt lat="36.064483942463994" lon="129.38526892103255">
        <ele>12.2</ele>
        <time>2026-06-05T14:04:13</time>
      </trkpt>
      <trkpt lat="36.064467933028936" lon="129.38521795906126">
        <ele>12.2</ele>
        <time>2026-06-05T14:04:14</time>
      </trkpt>
      <trkpt lat="36.06444798409939" lon="129.38516699708998">
        <ele>12.2</ele>
        <time>2026-06-05T14:04:15</time>
      </trkpt>
      <trkpt lat="36.06442795135081" lon="129.38511595129967">
        <ele>12.4</ele>
        <time>2026-06-05T14:04:16</time>
      </trkpt>
      <trkpt lat="36.06440699659288" lon="129.3850669171661">
        <ele>12.4</ele>
        <time>2026-06-05T14:04:17</time>
      </trkpt>
      <trkpt lat="36.0643869638443" lon="129.38501897267997">
        <ele>12.4</ele>
        <time>2026-06-05T14:04:18</time>
      </trkpt>
      <trkpt lat="36.06436592526734" lon="129.3849709443748">
        <ele>12.6</ele>
        <time>2026-06-05T14:04:19</time>
      </trkpt>
      <trkpt lat="36.06434597633779" lon="129.38492299988866">
        <ele>12.6</ele>
        <time>2026-06-05T14:04:20</time>
      </trkpt>
      <trkpt lat="36.06432493776083" lon="129.38487497158349">
        <ele>12.6</ele>
        <time>2026-06-05T14:04:21</time>
      </trkpt>
      <trkpt lat="36.06430197134614" lon="129.38482493162155">
        <ele>12.6</ele>
        <time>2026-06-05T14:04:22</time>
      </trkpt>
      <trkpt lat="36.06427799910307" lon="129.38477396965027">
        <ele>12.6</ele>
        <time>2026-06-05T14:04:23</time>
      </trkpt>
      <trkpt lat="36.06425595469773" lon="129.38472191803157">
        <ele>12.6</ele>
        <time>2026-06-05T14:04:24</time>
      </trkpt>
      <trkpt lat="36.06423592194915" lon="129.38466894440353">
        <ele>12.6</ele>
        <time>2026-06-05T14:04:25</time>
      </trkpt>
      <trkpt lat="36.06421798467636" lon="129.38461395911872">
        <ele>12.6</ele>
        <time>2026-06-05T14:04:26</time>
      </trkpt>
      <trkpt lat="36.06420096941292" lon="129.38455796800554">
        <ele>12.6</ele>
        <time>2026-06-05T14:04:27</time>
      </trkpt>
      <trkpt lat="36.064182948321104" lon="129.3845039885491">
        <ele>12.6</ele>
        <time>2026-06-05T14:04:28</time>
      </trkpt>
      <trkpt lat="36.064162999391556" lon="129.38445093110204">
        <ele>12.4</ele>
        <time>2026-06-05T14:04:29</time>
      </trkpt>
      <trkpt lat="36.064139949157834" lon="129.3843969516456">
        <ele>12.4</ele>
        <time>2026-06-05T14:04:30</time>
      </trkpt>
      <trkpt lat="36.06411497108638" lon="129.3843429721892">
        <ele>12.4</ele>
        <time>2026-06-05T14:04:31</time>
      </trkpt>
      <trkpt lat="36.06408798135817" lon="129.38428899273276">
        <ele>12.4</ele>
        <time>2026-06-05T14:04:32</time>
      </trkpt>
      <trkpt lat="36.0640589799732" lon="129.3842349294573">
        <ele>12.4</ele>
        <time>2026-06-05T14:04:33</time>
      </trkpt>
      <trkpt lat="36.06402796693146" lon="129.38418195582926">
        <ele>12.4</ele>
        <time>2026-06-05T14:04:34</time>
      </trkpt>
      <trkpt lat="36.06399594806135" lon="129.38412898220122">
        <ele>12.6</ele>
        <time>2026-06-05T14:04:35</time>
      </trkpt>
      <trkpt lat="36.06396292336285" lon="129.38407592475414">
        <ele>12.6</ele>
        <time>2026-06-05T14:04:36</time>
      </trkpt>
      <trkpt lat="36.06393098831177" lon="129.3840229511261">
        <ele>12.6</ele>
        <time>2026-06-05T14:04:37</time>
      </trkpt>
      <trkpt lat="36.06389796361327" lon="129.38397098332644">
        <ele>12.6</ele>
        <time>2026-06-05T14:04:38</time>
      </trkpt>
      <trkpt lat="36.063864938914776" lon="129.38392194919288">
        <ele>12.6</ele>
        <time>2026-06-05T14:04:39</time>
      </trkpt>
      <trkpt lat="36.06383099220693" lon="129.38387593254447">
        <ele>12.8</ele>
        <time>2026-06-05T14:04:40</time>
      </trkpt>
      <trkpt lat="36.063798973336816" lon="129.38383092172444">
        <ele>12.8</ele>
        <time>2026-06-05T14:04:41</time>
      </trkpt>
      <trkpt lat="36.06376796029508" lon="129.3837869167328">
        <ele>12.8</ele>
        <time>2026-06-05T14:04:42</time>
      </trkpt>
      <trkpt lat="36.06373795308173" lon="129.3837419897318">
        <ele>12.8</ele>
        <time>2026-06-05T14:04:43</time>
      </trkpt>
      <trkpt lat="36.06370794586837" lon="129.38369697891176">
        <ele>12.8</ele>
        <time>2026-06-05T14:04:44</time>
      </trkpt>
      <trkpt lat="36.06367793865502" lon="129.38365196809173">
        <ele>12.8</ele>
        <time>2026-06-05T14:04:45</time>
      </trkpt>
      <trkpt lat="36.0636459197849" lon="129.38360796310008">
        <ele>12.8</ele>
        <time>2026-06-05T14:04:46</time>
      </trkpt>
      <trkpt lat="36.06361096724868" lon="129.38356295228004">
        <ele>12.8</ele>
        <time>2026-06-05T14:04:47</time>
      </trkpt>
      <trkpt lat="36.06357492506504" lon="129.38351693563163">
        <ele>12.8</ele>
        <time>2026-06-05T14:04:48</time>
      </trkpt>
      <trkpt lat="36.06353594921529" lon="129.3834719248116">
        <ele>12.8</ele>
        <time>2026-06-05T14:04:49</time>
      </trkpt>
      <trkpt lat="36.063496973365545" lon="129.3834269978106">
        <ele>12.8</ele>
        <time>2026-06-05T14:04:50</time>
      </trkpt>
      <trkpt lat="36.06345699168742" lon="129.38338198699057">
        <ele>12.8</ele>
        <time>2026-06-05T14:04:51</time>
      </trkpt>
      <trkpt lat="36.06341692619026" lon="129.38333597034216">
        <ele>12.8</ele>
        <time>2026-06-05T14:04:52</time>
      </trkpt>
      <trkpt lat="36.06337694451213" lon="129.3832919653505">
        <ele>12.8</ele>
        <time>2026-06-05T14:04:53</time>
      </trkpt>
      <trkpt lat="36.06333595700562" lon="129.38324997201562">
        <ele>12.8</ele>
        <time>2026-06-05T14:04:54</time>
      </trkpt>
      <trkpt lat="36.06329496949911" lon="129.38320697285235">
        <ele>13.0</ele>
        <time>2026-06-05T14:04:55</time>
      </trkpt>
      <trkpt lat="36.0632539819926" lon="129.38316397368908">
        <ele>13.0</ele>
        <time>2026-06-05T14:04:56</time>
      </trkpt>
      <trkpt lat="36.06321391649544" lon="129.3831219803542">
        <ele>13.0</ele>
        <time>2026-06-05T14:04:57</time>
      </trkpt>
      <trkpt lat="36.063173934817314" lon="129.38307898119092">
        <ele>13.0</ele>
        <time>2026-06-05T14:04:58</time>
      </trkpt>
      <trkpt lat="36.06313495896757" lon="129.38303698785603">
        <ele>13.0</ele>
        <time>2026-06-05T14:04:59</time>
      </trkpt>
      <trkpt lat="36.06309598311782" lon="129.3829959165305">
        <ele>13.0</ele>
        <time>2026-06-05T14:05:00</time>
      </trkpt>
      <trkpt lat="36.06305792927742" lon="129.38295492902398">
        <ele>13.0</ele>
        <time>2026-06-05T14:05:01</time>
      </trkpt>
      <trkpt lat="36.06301995925605" lon="129.3829129356891">
        <ele>13.0</ele>
        <time>2026-06-05T14:05:02</time>
      </trkpt>
      <trkpt lat="36.062980983406305" lon="129.3828709423542">
        <ele>13.0</ele>
        <time>2026-06-05T14:05:03</time>
      </trkpt>
      <trkpt lat="36.062941923737526" lon="129.3828289490193">
        <ele>13.0</ele>
        <time>2026-06-05T14:05:04</time>
      </trkpt>
      <trkpt lat="36.06290294788778" lon="129.38278695568442">
        <ele>13.0</ele>
        <time>2026-06-05T14:05:05</time>
      </trkpt>
      <trkpt lat="36.06286196038127" lon="129.38274395652115">
        <ele>13.0</ele>
        <time>2026-06-05T14:05:06</time>
      </trkpt>
      <trkpt lat="36.06282197870314" lon="129.38270095735788">
        <ele>13.0</ele>
        <time>2026-06-05T14:05:07</time>
      </trkpt>
      <trkpt lat="36.06278199702501" lon="129.3826579581946">
        <ele>13.0</ele>
        <time>2026-06-05T14:05:08</time>
      </trkpt>
      <trkpt lat="36.06274193152785" lon="129.38261495903134">
        <ele>13.0</ele>
        <time>2026-06-05T14:05:09</time>
      </trkpt>
      <trkpt lat="36.062702955678105" lon="129.38257296569645">
        <ele>13.0</ele>
        <time>2026-06-05T14:05:10</time>
      </trkpt>
      <trkpt lat="36.06266599148512" lon="129.38253298401833">
        <ele>13.0</ele>
        <time>2026-06-05T14:05:11</time>
      </trkpt>
      <trkpt lat="36.06263095512986" lon="129.38249392434955">
        <ele>13.0</ele>
        <time>2026-06-05T14:05:12</time>
      </trkpt>
      <trkpt lat="36.062596924602985" lon="129.38245696015656">
        <ele>13.0</ele>
        <time>2026-06-05T14:05:13</time>
      </trkpt>
      <trkpt lat="36.06256297789514" lon="129.3824219238013">
        <ele>13.0</ele>
        <time>2026-06-05T14:05:14</time>
      </trkpt>
      <trkpt lat="36.062530959025025" lon="129.38238697126508">
        <ele>13.0</ele>
        <time>2026-06-05T14:05:15</time>
      </trkpt>
      <trkpt lat="36.06250095181167" lon="129.3823529407382">
        <ele>13.0</ele>
        <time>2026-06-05T14:05:16</time>
      </trkpt>
      <trkpt lat="36.06247295625508" lon="129.38231899403036">
        <ele>13.0</ele>
        <time>2026-06-05T14:05:17</time>
      </trkpt>
      <trkpt lat="36.06244697235525" lon="129.38228697516024">
        <ele>13.0</ele>
        <time>2026-06-05T14:05:18</time>
      </trkpt>
      <trkpt lat="36.062420988455415" lon="129.3822569679469">
        <ele>13.0</ele>
        <time>2026-06-05T14:05:19</time>
      </trkpt>
      <trkpt lat="36.06239492073655" lon="129.3822289723903">
        <ele>13.0</ele>
        <time>2026-06-05T14:05:20</time>
      </trkpt>
      <trkpt lat="36.06236893683672" lon="129.38220198266208">
        <ele>12.8</ele>
        <time>2026-06-05T14:05:21</time>
      </trkpt>
      <trkpt lat="36.06234496459365" lon="129.38217792659998">
        <ele>12.8</ele>
        <time>2026-06-05T14:05:22</time>
      </trkpt>
      <trkpt lat="36.06232694350183" lon="129.3821599893272">
        <ele>12.8</ele>
        <time>2026-06-05T14:05:23</time>
      </trkpt>
      <trkpt lat="36.062316969037056" lon="129.38215093687177">
        <ele>13.0</ele>
        <time>2026-06-05T14:05:24</time>
      </trkpt>
      <trkpt lat="36.062313951551914" lon="129.382148925215">
        <ele>13.0</ele>
        <time>2026-06-05T14:05:25</time>
      </trkpt>
      <trkpt lat="36.062314957380295" lon="129.38215093687177">
        <ele>13.0</ele>
        <time>2026-06-05T14:05:26</time>
      </trkpt>
      <trkpt lat="36.06231797486544" lon="129.3821549601853">
        <ele>13.0</ele>
        <time>2026-06-05T14:05:27</time>
      </trkpt>
      <trkpt lat="36.062248991802335" lon="129.3821499310434">
        <ele>12.4</ele>
        <time>2026-06-05T14:05:58</time>
      </trkpt>
      <trkpt lat="36.06224295683205" lon="129.38215596601367">
        <ele>12.4</ele>
        <time>2026-06-05T14:05:59</time>
      </trkpt>
      <trkpt lat="36.06224094517529" lon="129.3821589834988">
        <ele>12.2</ele>
        <time>2026-06-05T14:06:00</time>
      </trkpt>
      <trkpt lat="36.06224295683205" lon="129.38215797767043">
        <ele>12.2</ele>
        <time>2026-06-05T14:06:01</time>
      </trkpt>
      <trkpt lat="36.062247985973954" lon="129.3821539543569">
        <ele>12.2</ele>
        <time>2026-06-05T14:06:02</time>
      </trkpt>
      <trkpt lat="36.06220196932554" lon="129.38204297795892">
        <ele>12.4</ele>
        <time>2026-06-05T14:06:11</time>
      </trkpt>
      <trkpt lat="36.06218193657696" lon="129.38202093355358">
        <ele>12.4</ele>
        <time>2026-06-05T14:06:12</time>
      </trkpt>
      <trkpt lat="36.06215897016227" lon="129.38200098462403">
        <ele>12.4</ele>
        <time>2026-06-05T14:06:13</time>
      </trkpt>
      <trkpt lat="36.06213692575693" lon="129.38198598101735">
        <ele>12.2</ele>
        <time>2026-06-05T14:06:14</time>
      </trkpt>
      <trkpt lat="36.062119994312525" lon="129.38197692856193">
        <ele>12.2</ele>
        <time>2026-06-05T14:06:15</time>
      </trkpt>
      <trkpt lat="36.06211295351386" lon="129.38197399489582">
        <ele>12.2</ele>
        <time>2026-06-05T14:06:16</time>
      </trkpt>
      <trkpt lat="36.0621109418571" lon="129.38197491690516">
        <ele>12.2</ele>
        <time>2026-06-05T14:06:17</time>
      </trkpt>
      <trkpt lat="36.06211194768548" lon="129.38197692856193">
        <ele>12.2</ele>
        <time>2026-06-05T14:06:18</time>
      </trkpt>
      <trkpt lat="36.06208596378565" lon="129.38192194327712">
        <ele>11.8</ele>
        <time>2026-06-05T14:06:51</time>
      </trkpt>
      <trkpt lat="36.06206995435059" lon="129.3818909302354">
        <ele>11.8</ele>
        <time>2026-06-05T14:06:52</time>
      </trkpt>
      <trkpt lat="36.06205092743039" lon="129.38185597769916">
        <ele>11.8</ele>
        <time>2026-06-05T14:06:53</time>
      </trkpt>
      <trkpt lat="36.0620279610157" lon="129.3818209413439">
        <ele>11.8</ele>
        <time>2026-06-05T14:06:54</time>
      </trkpt>
      <trkpt lat="36.06199996545911" lon="129.38178598880768">
        <ele>11.8</ele>
        <time>2026-06-05T14:06:55</time>
      </trkpt>
      <trkpt lat="36.061968952417374" lon="129.3817519582808">
        <ele>11.8</ele>
        <time>2026-06-05T14:06:56</time>
      </trkpt>
      <trkpt lat="36.06193592771888" lon="129.3817199394107">
        <ele>11.8</ele>
        <time>2026-06-05T14:06:57</time>
      </trkpt>
      <trkpt lat="36.06189896352589" lon="129.38168892636895">
        <ele>11.8</ele>
        <time>2026-06-05T14:06:58</time>
      </trkpt>
      <trkpt lat="36.06185898184776" lon="129.38165799714625">
        <ele>11.8</ele>
        <time>2026-06-05T14:06:59</time>
      </trkpt>
      <trkpt lat="36.0618189163506" lon="129.38162597827613">
        <ele>12.0</ele>
        <time>2026-06-05T14:07:00</time>
      </trkpt>
      <trkpt lat="36.061778934672475" lon="129.3815899360925">
        <ele>12.0</ele>
        <time>2026-06-05T14:07:01</time>
      </trkpt>
      <trkpt lat="36.06173995882273" lon="129.38154995441437">
        <ele>12.0</ele>
        <time>2026-06-05T14:07:02</time>
      </trkpt>
      <trkpt lat="36.06170299462974" lon="129.38150393776596">
        <ele>12.0</ele>
        <time>2026-06-05T14:07:03</time>
      </trkpt>
      <trkpt lat="36.0616669524461" lon="129.38145398162305">
        <ele>12.2</ele>
        <time>2026-06-05T14:07:04</time>
      </trkpt>
      <trkpt lat="36.06162998825312" lon="129.38140193000436">
        <ele>12.2</ele>
        <time>2026-06-05T14:07:05</time>
      </trkpt>
      <trkpt lat="36.06159092858434" lon="129.38135197386146">
        <ele>12.2</ele>
        <time>2026-06-05T14:07:06</time>
      </trkpt>
      <trkpt lat="36.06154893524945" lon="129.38130495138466">
        <ele>12.4</ele>
        <time>2026-06-05T14:07:07</time>
      </trkpt>
      <trkpt lat="36.06150794774294" lon="129.38125994056463">
        <ele>12.4</ele>
        <time>2026-06-05T14:07:08</time>
      </trkpt>
      <trkpt lat="36.06146696023643" lon="129.38121593557298">
        <ele>12.6</ele>
        <time>2026-06-05T14:07:09</time>
      </trkpt>
      <trkpt lat="36.06142597272992" lon="129.3811739422381">
        <ele>12.6</ele>
        <time>2026-06-05T14:07:10</time>
      </trkpt>
      <trkpt lat="36.06138297356665" lon="129.3811319489032">
        <ele>12.6</ele>
        <time>2026-06-05T14:07:11</time>
      </trkpt>
      <trkpt lat="36.06133695691824" lon="129.38108894973993">
        <ele>12.6</ele>
        <time>2026-06-05T14:07:12</time>
      </trkpt>
      <trkpt lat="36.06128599494696" lon="129.38104796223342">
        <ele>12.8</ele>
        <time>2026-06-05T14:07:13</time>
      </trkpt>
      <trkpt lat="36.06123293749988" lon="129.3810029514134">
        <ele>12.8</ele>
        <time>2026-06-05T14:07:14</time>
      </trkpt>
      <trkpt lat="36.061176946386695" lon="129.38095391727984">
        <ele>12.8</ele>
        <time>2026-06-05T14:07:15</time>
      </trkpt>
      <trkpt lat="36.06112095527351" lon="129.38089993782341">
        <ele>12.8</ele>
        <time>2026-06-05T14:07:16</time>
      </trkpt>
      <trkpt lat="36.06106496416032" lon="129.38084394671023">
        <ele>12.8</ele>
        <time>2026-06-05T14:07:17</time>
      </trkpt>
      <trkpt lat="36.0610109847039" lon="129.3807849381119">
        <ele>12.8</ele>
        <time>2026-06-05T14:07:18</time>
      </trkpt>
      <trkpt lat="36.060961950570345" lon="129.3807239178568">
        <ele>12.8</ele>
        <time>2026-06-05T14:07:19</time>
      </trkpt>
      <trkpt lat="36.060917945578694" lon="129.3806599639356">
        <ele>12.8</ele>
        <time>2026-06-05T14:07:20</time>
      </trkpt>
      <trkpt lat="36.060875952243805" lon="129.38059894368052">
        <ele>12.8</ele>
        <time>2026-06-05T14:07:21</time>
      </trkpt>
      <trkpt lat="36.060833958908916" lon="129.38054194673896">
        <ele>12.8</ele>
        <time>2026-06-05T14:07:22</time>
      </trkpt>
      <trkpt lat="36.060790959745646" lon="129.3804899789393">
        <ele>12.8</ele>
        <time>2026-06-05T14:07:23</time>
      </trkpt>
      <trkpt lat="36.060746954753995" lon="129.38043993897736">
        <ele>12.8</ele>
        <time>2026-06-05T14:07:24</time>
      </trkpt>
      <trkpt lat="36.060701943933964" lon="129.38039199449122">
        <ele>12.8</ele>
        <time>2026-06-05T14:07:25</time>
      </trkpt>
      <trkpt lat="36.06065592728555" lon="129.3803459778428">
        <ele>12.8</ele>
        <time>2026-06-05T14:07:26</time>
      </trkpt>
      <trkpt lat="36.06060999445617" lon="129.38030096702278">
        <ele>12.8</ele>
        <time>2026-06-05T14:07:27</time>
      </trkpt>
      <trkpt lat="36.06056498363614" lon="129.38025595620275">
        <ele>12.6</ele>
        <time>2026-06-05T14:07:28</time>
      </trkpt>
      <trkpt lat="36.06051896698773" lon="129.38021295703948">
        <ele>12.6</ele>
        <time>2026-06-05T14:07:29</time>
      </trkpt>
      <trkpt lat="36.06047295033932" lon="129.38017297536135">
        <ele>12.6</ele>
        <time>2026-06-05T14:07:30</time>
      </trkpt>
      <trkpt lat="36.060424922034144" lon="129.38013894483447">
        <ele>12.8</ele>
        <time>2026-06-05T14:07:31</time>
      </trkpt>
      <trkpt lat="36.06037597171962" lon="129.38010692596436">
        <ele>12.8</ele>
        <time>2026-06-05T14:07:32</time>
      </trkpt>
      <trkpt lat="36.06032693758607" lon="129.38007599674165">
        <ele>13.0</ele>
        <time>2026-06-05T14:07:33</time>
      </trkpt>
      <trkpt lat="36.06027798727155" lon="129.3800459895283">
        <ele>13.0</ele>
        <time>2026-06-05T14:07:34</time>
      </trkpt>
      <trkpt lat="36.060229958966374" lon="129.38001598231494">
        <ele>13.0</ele>
        <time>2026-06-05T14:07:35</time>
      </trkpt>
      <trkpt lat="36.0601819306612" lon="129.37998698092997">
        <ele>13.0</ele>
        <time>2026-06-05T14:07:36</time>
      </trkpt>
      <trkpt lat="36.06013499200344" lon="129.37995697371662">
        <ele>13.0</ele>
        <time>2026-06-05T14:07:37</time>
      </trkpt>
      <trkpt lat="36.06008696369827" lon="129.3799249548465">
        <ele>13.2</ele>
        <time>2026-06-05T14:07:38</time>
      </trkpt>
      <trkpt lat="36.060038935393095" lon="129.37989494763315">
        <ele>13.2</ele>
        <time>2026-06-05T14:07:39</time>
      </trkpt>
      <trkpt lat="36.05998998507857" lon="129.37986594624817">
        <ele>13.2</ele>
        <time>2026-06-05T14:07:40</time>
      </trkpt>
      <trkpt lat="36.05993994511664" lon="129.3798369448632">
        <ele>13.4</ele>
        <time>2026-06-05T14:07:41</time>
      </trkpt>
      <trkpt lat="36.059887977316976" lon="129.379809955135">
        <ele>13.4</ele>
        <time>2026-06-05T14:07:42</time>
      </trkpt>
      <trkpt lat="36.0598349198699" lon="129.37978296540678">
        <ele>13.4</ele>
        <time>2026-06-05T14:07:43</time>
      </trkpt>
      <trkpt lat="36.059779934585094" lon="129.37975597567856">
        <ele>13.4</ele>
        <time>2026-06-05T14:07:44</time>
      </trkpt>
      <trkpt lat="36.05972595512867" lon="129.37972999177873">
        <ele>13.4</ele>
        <time>2026-06-05T14:07:45</time>
      </trkpt>
      <trkpt lat="36.059673987329006" lon="129.37970492988825">
        <ele>13.4</ele>
        <time>2026-06-05T14:07:46</time>
      </trkpt>
      <trkpt lat="36.05962394736707" lon="129.37968196347356">
        <ele>13.2</ele>
        <time>2026-06-05T14:07:47</time>
      </trkpt>
      <trkpt lat="36.05957793071866" lon="129.3796579912305">
        <ele>13.2</ele>
        <time>2026-06-05T14:07:48</time>
      </trkpt>
      <trkpt lat="36.05953593738377" lon="129.37963292934">
        <ele>13.2</ele>
        <time>2026-06-05T14:07:49</time>
      </trkpt>
      <trkpt lat="36.05949696153402" lon="129.3796059396118">
        <ele>13.2</ele>
        <time>2026-06-05T14:07:50</time>
      </trkpt>
      <trkpt lat="36.059457985684276" lon="129.37957894988358">
        <ele>13.2</ele>
        <time>2026-06-05T14:07:51</time>
      </trkpt>
      <trkpt lat="36.05941993184388" lon="129.37955397181213">
        <ele>13.2</ele>
        <time>2026-06-05T14:07:52</time>
      </trkpt>
      <trkpt lat="36.05938095599413" lon="129.37952999956906">
        <ele>13.2</ele>
        <time>2026-06-05T14:07:53</time>
      </trkpt>
      <trkpt lat="36.05933996848762" lon="129.3795089609921">
        <ele>13.2</ele>
        <time>2026-06-05T14:07:54</time>
      </trkpt>
      <trkpt lat="36.05929797515273" lon="129.3794899340719">
        <ele>13.2</ele>
        <time>2026-06-05T14:07:55</time>
      </trkpt>
      <trkpt lat="36.05925397016108" lon="129.37946998514235">
        <ele>13.2</ele>
        <time>2026-06-05T14:07:56</time>
      </trkpt>
      <trkpt lat="36.05920895934105" lon="129.379447940737">
        <ele>13.2</ele>
        <time>2026-06-05T14:07:57</time>
      </trkpt>
      <trkpt lat="36.05916294269264" lon="129.37942195683718">
        <ele>13.2</ele>
        <time>2026-06-05T14:07:58</time>
      </trkpt>
      <trkpt lat="36.059116926044226" lon="129.37939094379544">
        <ele>13.2</ele>
        <time>2026-06-05T14:07:59</time>
      </trkpt>
      <trkpt lat="36.059069987386465" lon="129.37935892492533">
        <ele>13.2</ele>
        <time>2026-06-05T14:08:00</time>
      </trkpt>
      <trkpt lat="36.05902195908129" lon="129.37932698987424">
        <ele>13.2</ele>
        <time>2026-06-05T14:08:01</time>
      </trkpt>
      <trkpt lat="36.05897393077612" lon="129.3792959768325">
        <ele>13.2</ele>
        <time>2026-06-05T14:08:02</time>
      </trkpt>
      <trkpt lat="36.05892397463322" lon="129.37926596961915">
        <ele>13.2</ele>
        <time>2026-06-05T14:08:03</time>
      </trkpt>
      <trkpt lat="36.0588729288429" lon="129.37923696823418">
        <ele>13.2</ele>
        <time>2026-06-05T14:08:04</time>
      </trkpt>
      <trkpt lat="36.05881894938648" lon="129.37920696102083">
        <ele>13.2</ele>
        <time>2026-06-05T14:08:05</time>
      </trkpt>
      <trkpt lat="36.05876496993005" lon="129.3791759479791">
        <ele>13.2</ele>
        <time>2026-06-05T14:08:06</time>
      </trkpt>
      <trkpt lat="36.05870998464525" lon="129.37914493493736">
        <ele>13.2</ele>
        <time>2026-06-05T14:08:07</time>
      </trkpt>
      <trkpt lat="36.05865692719817" lon="129.37911392189562">
        <ele>13.4</ele>
        <time>2026-06-05T14:08:08</time>
      </trkpt>
      <trkpt lat="36.05860395357013" lon="129.37908299267292">
        <ele>13.4</ele>
        <time>2026-06-05T14:08:09</time>
      </trkpt>
      <trkpt lat="36.058551985770464" lon="129.3790509738028">
        <ele>13.4</ele>
        <time>2026-06-05T14:08:10</time>
      </trkpt>
      <trkpt lat="36.05849892832339" lon="129.37901694327593">
        <ele>13.4</ele>
        <time>2026-06-05T14:08:11</time>
      </trkpt>
      <trkpt lat="36.05844494886696" lon="129.3789819907397">
        <ele>13.4</ele>
        <time>2026-06-05T14:08:12</time>
      </trkpt>
      <trkpt lat="36.05838996358216" lon="129.37894594855607">
        <ele>13.4</ele>
        <time>2026-06-05T14:08:13</time>
      </trkpt>
      <trkpt lat="36.05833497829735" lon="129.37891099601984">
        <ele>13.6</ele>
        <time>2026-06-05T14:08:14</time>
      </trkpt>
      <trkpt lat="36.05827898718417" lon="129.37887696549296">
        <ele>13.6</ele>
        <time>2026-06-05T14:08:15</time>
      </trkpt>
      <trkpt lat="36.05822299607098" lon="129.3788419291377">
        <ele>13.6</ele>
        <time>2026-06-05T14:08:16</time>
      </trkpt>
      <trkpt lat="36.058169938623905" lon="129.37880697660148">
        <ele>13.6</ele>
        <time>2026-06-05T14:08:17</time>
      </trkpt>
      <trkpt lat="36.05811696499586" lon="129.37877194024622">
        <ele>13.6</ele>
        <time>2026-06-05T14:08:18</time>
      </trkpt>
      <trkpt lat="36.058065919205546" lon="129.37873799353838">
        <ele>13.6</ele>
        <time>2026-06-05T14:08:19</time>
      </trkpt>
      <trkpt lat="36.058016968891025" lon="129.37870496883988">
        <ele>13.6</ele>
        <time>2026-06-05T14:08:20</time>
      </trkpt>
      <trkpt lat="36.05796793475747" lon="129.37867294996977">
        <ele>13.8</ele>
        <time>2026-06-05T14:08:21</time>
      </trkpt>
      <trkpt lat="36.05791898444295" lon="129.3786389194429">
        <ele>13.8</ele>
        <time>2026-06-05T14:08:22</time>
      </trkpt>
      <trkpt lat="36.057869950309396" lon="129.37860597856343">
        <ele>13.8</ele>
        <time>2026-06-05T14:08:23</time>
      </trkpt>
      <trkpt lat="36.05781999416649" lon="129.37857194803655">
        <ele>13.8</ele>
        <time>2026-06-05T14:08:24</time>
      </trkpt>
      <trkpt lat="36.05776995420456" lon="129.37853892333806">
        <ele>13.8</ele>
        <time>2026-06-05T14:08:25</time>
      </trkpt>
      <trkpt lat="36.057721925899386" lon="129.3785049766302">
        <ele>13.8</ele>
        <time>2026-06-05T14:08:26</time>
      </trkpt>
      <trkpt lat="36.057671969756484" lon="129.37847195193172">
        <ele>14.0</ele>
        <time>2026-06-05T14:08:27</time>
      </trkpt>
      <trkpt lat="36.05761991813779" lon="129.3784449622035">
        <ele>14.0</ele>
        <time>2026-06-05T14:08:28</time>
      </trkpt>
      <trkpt lat="36.057565938681364" lon="129.37841998413205">
        <ele>14.0</ele>
        <time>2026-06-05T14:08:29</time>
      </trkpt>
      <trkpt lat="36.05751195922494" lon="129.37839592806995">
        <ele>14.2</ele>
        <time>2026-06-05T14:08:30</time>
      </trkpt>
      <trkpt lat="36.057456973940134" lon="129.37836994417012">
        <ele>14.2</ele>
        <time>2026-06-05T14:08:31</time>
      </trkpt>
      <trkpt lat="36.05740198865533" lon="129.37834597192705">
        <ele>14.2</ele>
        <time>2026-06-05T14:08:32</time>
      </trkpt>
      <trkpt lat="36.05734599754214" lon="129.3783209938556">
        <ele>14.2</ele>
        <time>2026-06-05T14:08:33</time>
      </trkpt>
      <trkpt lat="36.057289922609925" lon="129.3782969377935">
        <ele>14.2</ele>
        <time>2026-06-05T14:08:34</time>
      </trkpt>
      <trkpt lat="36.05723292566836" lon="129.37827195972204">
        <ele>14.2</ele>
        <time>2026-06-05T14:08:35</time>
      </trkpt>
      <trkpt lat="36.05717794038355" lon="129.3782469816506">
        <ele>14.2</ele>
        <time>2026-06-05T14:08:36</time>
      </trkpt>
      <trkpt lat="36.05712194927037" lon="129.37822393141687">
        <ele>14.2</ele>
        <time>2026-06-05T14:08:37</time>
      </trkpt>
      <trkpt lat="36.05706696398556" lon="129.37820197083056">
        <ele>14.2</ele>
        <time>2026-06-05T14:08:38</time>
      </trkpt>
      <trkpt lat="36.05701298452914" lon="129.3781809322536">
        <ele>14.2</ele>
        <time>2026-06-05T14:08:39</time>
      </trkpt>
      <trkpt lat="36.05695992708206" lon="129.37815997749567">
        <ele>14.4</ele>
        <time>2026-06-05T14:08:40</time>
      </trkpt>
      <trkpt lat="36.05690695345402" lon="129.3781389389187">
        <ele>14.2</ele>
        <time>2026-06-05T14:08:41</time>
      </trkpt>
      <trkpt lat="36.05685196816921" lon="129.37811898998916">
        <ele>14.4</ele>
        <time>2026-06-05T14:08:42</time>
      </trkpt>
      <trkpt lat="36.05679698288441" lon="129.37809895724058">
        <ele>14.4</ele>
        <time>2026-06-05T14:08:43</time>
      </trkpt>
      <trkpt lat="36.0567419975996" lon="129.37807699665427">
        <ele>14.4</ele>
        <time>2026-06-05T14:08:44</time>
      </trkpt>
      <trkpt lat="36.056686928495765" lon="129.37805495224893">
        <ele>14.4</ele>
        <time>2026-06-05T14:08:45</time>
      </trkpt>
      <trkpt lat="36.05663395486772" lon="129.378033997491">
        <ele>14.6</ele>
        <time>2026-06-05T14:08:46</time>
      </trkpt>
      <trkpt lat="36.05658299289644" lon="129.37801396474242">
        <ele>14.8</ele>
        <time>2026-06-05T14:08:47</time>
      </trkpt>
      <trkpt lat="36.056532952934504" lon="129.37799493782222">
        <ele>14.8</ele>
        <time>2026-06-05T14:08:48</time>
      </trkpt>
      <trkpt lat="36.05648391880095" lon="129.3779729772359">
        <ele>15.0</ele>
        <time>2026-06-05T14:08:49</time>
      </trkpt>
      <trkpt lat="36.05643396265805" lon="129.37795193865895">
        <ele>15.0</ele>
        <time>2026-06-05T14:08:50</time>
      </trkpt>
      <trkpt lat="36.05638291686773" lon="129.37793098390102">
        <ele>15.0</ele>
        <time>2026-06-05T14:08:51</time>
      </trkpt>
      <trkpt lat="36.05632994323969" lon="129.37790893949568">
        <ele>15.0</ele>
        <time>2026-06-05T14:08:52</time>
      </trkpt>
      <trkpt lat="36.056276969611645" lon="129.377885973081">
        <ele>15.0</ele>
        <time>2026-06-05T14:08:53</time>
      </trkpt>
      <trkpt lat="36.05622097849846" lon="129.3778669461608">
        <ele>15.0</ele>
        <time>2026-06-05T14:08:54</time>
      </trkpt>
      <trkpt lat="36.05616398155689" lon="129.37785194255412">
        <ele>14.8</ele>
        <time>2026-06-05T14:08:55</time>
      </trkpt>
      <trkpt lat="36.056104972958565" lon="129.37783693894744">
        <ele>14.8</ele>
        <time>2026-06-05T14:08:56</time>
      </trkpt>
      <trkpt lat="36.05604596436024" lon="129.37782193534076">
        <ele>14.6</ele>
        <time>2026-06-05T14:08:57</time>
      </trkpt>
      <trkpt lat="36.05598594993353" lon="129.37780492007732">
        <ele>14.6</ele>
        <time>2026-06-05T14:08:58</time>
      </trkpt>
      <trkpt lat="36.05592593550682" lon="129.37778798863292">
        <ele>14.4</ele>
        <time>2026-06-05T14:08:59</time>
      </trkpt>
      <trkpt lat="36.05586692690849" lon="129.3777699675411">
        <ele>14.4</ele>
        <time>2026-06-05T14:09:00</time>
      </trkpt>
      <trkpt lat="36.05581194162369" lon="129.37774892896414">
        <ele>14.4</ele>
        <time>2026-06-05T14:09:01</time>
      </trkpt>
      <trkpt lat="36.055758967995644" lon="129.3777229450643">
        <ele>14.2</ele>
        <time>2026-06-05T14:09:02</time>
      </trkpt>
      <trkpt lat="36.05570792220533" lon="129.37769997864962">
        <ele>14.2</ele>
        <time>2026-06-05T14:09:03</time>
      </trkpt>
      <trkpt lat="36.05565796606243" lon="129.3776759225875">
        <ele>14.2</ele>
        <time>2026-06-05T14:09:04</time>
      </trkpt>
      <trkpt lat="36.05560599826276" lon="129.3776539620012">
        <ele>14.2</ele>
        <time>2026-06-05T14:09:05</time>
      </trkpt>
      <trkpt lat="36.05555294081569" lon="129.37763392925262">
        <ele>14.0</ele>
        <time>2026-06-05T14:09:06</time>
      </trkpt>
      <trkpt lat="36.05549795553088" lon="129.37761791981757">
        <ele>14.2</ele>
        <time>2026-06-05T14:09:07</time>
      </trkpt>
      <trkpt lat="36.055441964417696" lon="129.37760199420154">
        <ele>14.2</ele>
        <time>2026-06-05T14:09:08</time>
      </trkpt>
      <trkpt lat="36.05538597330451" lon="129.37758699059486">
        <ele>14.2</ele>
        <time>2026-06-05T14:09:09</time>
      </trkpt>
      <trkpt lat="36.055331993848085" lon="129.37757299281657">
        <ele>14.2</ele>
        <time>2026-06-05T14:09:10</time>
      </trkpt>
      <trkpt lat="36.05527994222939" lon="129.37755899503827">
        <ele>14.4</ele>
        <time>2026-06-05T14:09:11</time>
      </trkpt>
      <trkpt lat="36.05522797442973" lon="129.3775429856032">
        <ele>14.4</ele>
        <time>2026-06-05T14:09:12</time>
      </trkpt>
      <trkpt lat="36.05517692863941" lon="129.37752798199654">
        <ele>14.4</ele>
        <time>2026-06-05T14:09:13</time>
      </trkpt>
      <trkpt lat="36.05512496083975" lon="129.37751297838986">
        <ele>14.4</ele>
        <time>2026-06-05T14:09:14</time>
      </trkpt>
      <trkpt lat="36.055072993040085" lon="129.37750099226832">
        <ele>14.6</ele>
        <time>2026-06-05T14:09:15</time>
      </trkpt>
      <trkpt lat="36.05502295307815" lon="129.37748791649938">
        <ele>14.6</ele>
        <time>2026-06-05T14:09:16</time>
      </trkpt>
      <trkpt lat="36.05497299693525" lon="129.37747391872108">
        <ele>14.6</ele>
        <time>2026-06-05T14:09:17</time>
      </trkpt>
      <trkpt lat="36.054924968630075" lon="129.37745992094278">
        <ele>14.6</ele>
        <time>2026-06-05T14:09:18</time>
      </trkpt>
      <trkpt lat="36.0548769403249" lon="129.37744692899287">
        <ele>14.4</ele>
        <time>2026-06-05T14:09:19</time>
      </trkpt>
      <trkpt lat="36.05482799001038" lon="129.3774359486997">
        <ele>14.4</ele>
        <time>2026-06-05T14:09:20</time>
      </trkpt>
      <trkpt lat="36.054776944220066" lon="129.37742698006332">
        <ele>14.4</ele>
        <time>2026-06-05T14:09:21</time>
      </trkpt>
      <trkpt lat="36.05472598224878" lon="129.3774179276079">
        <ele>14.4</ele>
        <time>2026-06-05T14:09:22</time>
      </trkpt>
      <trkpt lat="36.05467292480171" lon="129.37741197645664">
        <ele>14.2</ele>
        <time>2026-06-05T14:09:23</time>
      </trkpt>
      <trkpt lat="36.05461995117366" lon="129.37740996479988">
        <ele>14.2</ele>
        <time>2026-06-05T14:09:24</time>
      </trkpt>
      <trkpt lat="36.054567983374" lon="129.3774089589715">
        <ele>14.2</ele>
        <time>2026-06-05T14:09:25</time>
      </trkpt>
      <trkpt lat="36.054515931755304" lon="129.37740996479988">
        <ele>14.2</ele>
        <time>2026-06-05T14:09:26</time>
      </trkpt>
      <trkpt lat="36.0544659756124" lon="129.37741097062826">
        <ele>14.2</ele>
        <time>2026-06-05T14:09:27</time>
      </trkpt>
      <trkpt lat="36.05441794730723" lon="129.37741097062826">
        <ele>14.2</ele>
        <time>2026-06-05T14:09:28</time>
      </trkpt>
      <trkpt lat="36.05437092483044" lon="129.37741197645664">
        <ele>14.2</ele>
        <time>2026-06-05T14:09:29</time>
      </trkpt>
      <trkpt lat="36.05432499200106" lon="129.3774139881134">
        <ele>14.2</ele>
        <time>2026-06-05T14:09:30</time>
      </trkpt>
      <trkpt lat="36.054280987009406" lon="129.3774169217795">
        <ele>14.2</ele>
        <time>2026-06-05T14:09:31</time>
      </trkpt>
      <trkpt lat="36.054237987846136" lon="129.37741893343627">
        <ele>14.2</ele>
        <time>2026-06-05T14:09:32</time>
      </trkpt>
      <trkpt lat="36.054196916520596" lon="129.37741893343627">
        <ele>14.2</ele>
        <time>2026-06-05T14:09:33</time>
      </trkpt>
      <trkpt lat="36.05415894649923" lon="129.3774169217795">
        <ele>14.2</ele>
        <time>2026-06-05T14:09:34</time>
      </trkpt>
      <trkpt lat="36.05412692762911" lon="129.37741499394178">
        <ele>14.2</ele>
        <time>2026-06-05T14:09:35</time>
      </trkpt>
      <trkpt lat="36.05410295538604" lon="129.3774169217795">
        <ele>14.0</ele>
        <time>2026-06-05T14:09:36</time>
      </trkpt>
      <trkpt lat="36.05409197509289" lon="129.37741993926466">
        <ele>14.0</ele>
        <time>2026-06-05T14:09:37</time>
      </trkpt>
      <trkpt lat="36.05409096926451" lon="129.37742195092142">
        <ele>14.0</ele>
        <time>2026-06-05T14:09:38</time>
      </trkpt>
      <trkpt lat="36.05409398674965" lon="129.37742396257818">
        <ele>14.0</ele>
        <time>2026-06-05T14:09:39</time>
      </trkpt>
      <trkpt lat="36.05409893207252" lon="129.37742496840656">
        <ele>13.8</ele>
        <time>2026-06-05T14:09:40</time>
      </trkpt>
      <trkpt lat="36.054062973707914" lon="129.3774359486997">
        <ele>13.2</ele>
        <time>2026-06-05T14:10:03</time>
      </trkpt>
      <trkpt lat="36.05403891764581" lon="129.37743494287133">
        <ele>13.2</ele>
        <time>2026-06-05T14:10:04</time>
      </trkpt>
      <trkpt lat="36.0540119279176" lon="129.37742899172008">
        <ele>13.2</ele>
        <time>2026-06-05T14:10:05</time>
      </trkpt>
      <trkpt lat="36.0539809986949" lon="129.37741993926466">
        <ele>13.2</ele>
        <time>2026-06-05T14:10:06</time>
      </trkpt>
      <trkpt lat="36.05394696816802" lon="129.37741197645664">
        <ele>13.2</ele>
        <time>2026-06-05T14:10:07</time>
      </trkpt>
      <trkpt lat="36.05390899814665" lon="129.37740694731474">
        <ele>13.4</ele>
        <time>2026-06-05T14:10:08</time>
      </trkpt>
      <trkpt lat="36.05386893264949" lon="129.37740594148636">
        <ele>13.4</ele>
        <time>2026-06-05T14:10:09</time>
      </trkpt>
      <trkpt lat="36.053827945142984" lon="129.37740594148636">
        <ele>13.2</ele>
        <time>2026-06-05T14:10:10</time>
      </trkpt>
      <trkpt lat="36.053785951808095" lon="129.37740694731474">
        <ele>13.2</ele>
        <time>2026-06-05T14:10:11</time>
      </trkpt>
      <trkpt lat="36.053743958473206" lon="129.37740694731474">
        <ele>13.2</ele>
        <time>2026-06-05T14:10:12</time>
      </trkpt>
      <trkpt lat="36.053701965138316" lon="129.3774089589715">
        <ele>13.4</ele>
        <time>2026-06-05T14:10:13</time>
      </trkpt>
      <trkpt lat="36.05365997180343" lon="129.37740996479988">
        <ele>13.4</ele>
        <time>2026-06-05T14:10:14</time>
      </trkpt>
      <trkpt lat="36.05361797846854" lon="129.37741298228502">
        <ele>13.4</ele>
        <time>2026-06-05T14:10:15</time>
      </trkpt>
      <trkpt lat="36.05357497930527" lon="129.3774169217795">
        <ele>13.4</ele>
        <time>2026-06-05T14:10:16</time>
      </trkpt>
      <trkpt lat="36.053531980142" lon="129.37742396257818">
        <ele>13.4</ele>
        <time>2026-06-05T14:10:17</time>
      </trkpt>
      <trkpt lat="36.05348797515035" lon="129.3774309195578">
        <ele>13.4</ele>
        <time>2026-06-05T14:10:18</time>
      </trkpt>
      <trkpt lat="36.053442964330316" lon="129.3774369545281">
        <ele>13.4</ele>
        <time>2026-06-05T14:10:19</time>
      </trkpt>
      <trkpt lat="36.053399965167046" lon="129.37744097784162">
        <ele>13.4</ele>
        <time>2026-06-05T14:10:20</time>
      </trkpt>
      <trkpt lat="36.053356966003776" lon="129.37744198367">
        <ele>13.4</ele>
        <time>2026-06-05T14:10:21</time>
      </trkpt>
      <trkpt lat="36.053314972668886" lon="129.37744198367">
        <ele>13.4</ele>
        <time>2026-06-05T14:10:22</time>
      </trkpt>
      <trkpt lat="36.053272979334" lon="129.37744198367">
        <ele>13.4</ele>
        <time>2026-06-05T14:10:23</time>
      </trkpt>
      <trkpt lat="36.05322998017073" lon="129.37744298949838">
        <ele>13.4</ele>
        <time>2026-06-05T14:10:24</time>
      </trkpt>
      <trkpt lat="36.05318698100746" lon="129.3774449173361">
        <ele>13.4</ele>
        <time>2026-06-05T14:10:25</time>
      </trkpt>
      <trkpt lat="36.053142976015806" lon="129.37744894064963">
        <ele>13.4</ele>
        <time>2026-06-05T14:10:26</time>
      </trkpt>
      <trkpt lat="36.05310098268092" lon="129.3774549756199">
        <ele>13.4</ele>
        <time>2026-06-05T14:10:27</time>
      </trkpt>
      <trkpt lat="36.05305898934603" lon="129.37746092677116">
        <ele>13.2</ele>
        <time>2026-06-05T14:10:28</time>
      </trkpt>
      <trkpt lat="36.05301892384887" lon="129.37746796756983">
        <ele>13.2</ele>
        <time>2026-06-05T14:10:29</time>
      </trkpt>
      <trkpt lat="36.05297894217074" lon="129.37747593037784">
        <ele>13.2</ele>
        <time>2026-06-05T14:10:30</time>
      </trkpt>
      <trkpt lat="36.05293996632099" lon="129.37748196534812">
        <ele>13.0</ele>
        <time>2026-06-05T14:10:31</time>
      </trkpt>
      <trkpt lat="36.052900990471244" lon="129.37748791649938">
        <ele>13.0</ele>
        <time>2026-06-05T14:10:32</time>
      </trkpt>
      <trkpt lat="36.052862936630845" lon="129.37749495729804">
        <ele>13.0</ele>
        <time>2026-06-05T14:10:33</time>
      </trkpt>
      <trkpt lat="36.05282697826624" lon="129.37750493176281">
        <ele>12.8</ele>
        <time>2026-06-05T14:10:34</time>
      </trkpt>
      <trkpt lat="36.05279294773936" lon="129.37751398421824">
        <ele>12.8</ele>
        <time>2026-06-05T14:10:35</time>
      </trkpt>
      <trkpt lat="36.05276092886925" lon="129.3775249645114">
        <ele>12.8</ele>
        <time>2026-06-05T14:10:36</time>
      </trkpt>
      <trkpt lat="36.052732933312654" lon="129.37753996811807">
        <ele>12.8</ele>
        <time>2026-06-05T14:10:37</time>
      </trkpt>
      <trkpt lat="36.052708961069584" lon="129.3775579892099">
        <ele>12.8</ele>
        <time>2026-06-05T14:10:38</time>
      </trkpt>
      <trkpt lat="36.052689934149384" lon="129.37757793813944">
        <ele>12.8</ele>
        <time>2026-06-05T14:10:39</time>
      </trkpt>
      <trkpt lat="36.05267995968461" lon="129.37760098837316">
        <ele>12.8</ele>
        <time>2026-06-05T14:10:40</time>
      </trkpt>
      <trkpt lat="36.05267694219947" lon="129.377626972273">
        <ele>12.6</ele>
        <time>2026-06-05T14:10:41</time>
      </trkpt>
      <trkpt lat="36.05267995968461" lon="129.37765295617282">
        <ele>12.6</ele>
        <time>2026-06-05T14:10:42</time>
      </trkpt>
      <trkpt lat="36.05268691666424" lon="129.3776759225875">
        <ele>12.8</ele>
        <time>2026-06-05T14:10:43</time>
      </trkpt>
      <trkpt lat="36.05269496329129" lon="129.3776909261942">
        <ele>12.8</ele>
        <time>2026-06-05T14:10:44</time>
      </trkpt>
      <trkpt lat="36.05270099826157" lon="129.37769696116447">
        <ele>12.6</ele>
        <time>2026-06-05T14:10:45</time>
      </trkpt>
      <trkpt lat="36.05270393192768" lon="129.37769796699286">
        <ele>12.6</ele>
        <time>2026-06-05T14:10:46</time>
      </trkpt>
      <trkpt lat="36.05270493775606" lon="129.3776959553361">
        <ele>12.6</ele>
        <time>2026-06-05T14:10:47</time>
      </trkpt>
      <trkpt lat="36.05271399021149" lon="129.3776599969715">
        <ele>13.2</ele>
        <time>2026-06-05T14:11:46</time>
      </trkpt>
      <trkpt lat="36.0527079552412" lon="129.37763895839453">
        <ele>13.2</ele>
        <time>2026-06-05T14:11:47</time>
      </trkpt>
      <trkpt lat="36.05269395746291" lon="129.37761892564595">
        <ele>13.2</ele>
        <time>2026-06-05T14:11:48</time>
      </trkpt>
      <trkpt lat="36.052672918885946" lon="129.37760098837316">
        <ele>13.2</ele>
        <time>2026-06-05T14:11:49</time>
      </trkpt>
      <trkpt lat="36.05265196412802" lon="129.37758598476648">
        <ele>13.2</ele>
        <time>2026-06-05T14:11:50</time>
      </trkpt>
      <trkpt lat="36.05263293720782" lon="129.37757793813944">
        <ele>13.2</ele>
        <time>2026-06-05T14:11:51</time>
      </trkpt>
      <trkpt lat="36.05261692777276" lon="129.37757399864495">
        <ele>13.2</ele>
        <time>2026-06-05T14:11:52</time>
      </trkpt>
      <trkpt lat="36.052602929994464" lon="129.37757399864495">
        <ele>13.2</ele>
        <time>2026-06-05T14:11:53</time>
      </trkpt>
      <trkpt lat="36.05259194970131" lon="129.37757592648268">
        <ele>13.2</ele>
        <time>2026-06-05T14:11:54</time>
      </trkpt>
      <trkpt lat="36.052582981064916" lon="129.37757693231106">
        <ele>13.2</ele>
        <time>2026-06-05T14:11:55</time>
      </trkpt>
      <trkpt lat="36.05257493443787" lon="129.3775749206543">
        <ele>13.2</ele>
        <time>2026-06-05T14:11:56</time>
      </trkpt>
      <trkpt lat="36.05256596580148" lon="129.3775719869882">
        <ele>13.2</ele>
        <time>2026-06-05T14:11:57</time>
      </trkpt>
      <trkpt lat="36.05255498550832" lon="129.37756293453276">
        <ele>13.2</ele>
        <time>2026-06-05T14:11:58</time>
      </trkpt>
      <trkpt lat="36.052540987730026" lon="129.3775429856032">
        <ele>13.0</ele>
        <time>2026-06-05T14:11:59</time>
      </trkpt>
      <trkpt lat="36.05252296663821" lon="129.37751398421824">
        <ele>13.0</ele>
        <time>2026-06-05T14:12:00</time>
      </trkpt>
      <trkpt lat="36.05250494554639" lon="129.37747492454946">
        <ele>13.0</ele>
        <time>2026-06-05T14:12:01</time>
      </trkpt>
      <trkpt lat="36.05248893611133" lon="129.37742496840656">
        <ele>13.0</ele>
        <time>2026-06-05T14:12:02</time>
      </trkpt>
      <trkpt lat="36.052476949989796" lon="129.37736495397985">
        <ele>13.0</ele>
        <time>2026-06-05T14:12:03</time>
      </trkpt>
      <trkpt lat="36.05246697552502" lon="129.37729496508837">
        <ele>13.2</ele>
        <time>2026-06-05T14:12:04</time>
      </trkpt>
      <trkpt lat="36.052457923069596" lon="129.37721793539822">
        <ele>13.0</ele>
        <time>2026-06-05T14:12:05</time>
      </trkpt>
      <trkpt lat="36.05244794860482" lon="129.37713696621358">
        <ele>13.0</ele>
        <time>2026-06-05T14:12:06</time>
      </trkpt>
      <trkpt lat="36.05243696831167" lon="129.3770529795438">
        <ele>13.0</ele>
        <time>2026-06-05T14:12:07</time>
      </trkpt>
      <trkpt lat="36.05242598801851" lon="129.37696798704565">
        <ele>13.0</ele>
        <time>2026-06-05T14:12:08</time>
      </trkpt>
      <trkpt lat="36.05241592973471" lon="129.3768829945475">
        <ele>13.0</ele>
        <time>2026-06-05T14:12:09</time>
      </trkpt>
      <trkpt lat="36.05240595526993" lon="129.37679892405868">
        <ele>12.8</ele>
        <time>2026-06-05T14:12:10</time>
      </trkpt>
      <trkpt lat="36.05239598080516" lon="129.37671694904566">
        <ele>12.8</ele>
        <time>2026-06-05T14:12:11</time>
      </trkpt>
      <trkpt lat="36.05238592252135" lon="129.3766369856894">
        <ele>13.0</ele>
        <time>2026-06-05T14:12:12</time>
      </trkpt>
      <trkpt lat="36.05237795971334" lon="129.37655895017087">
        <ele>13.0</ele>
        <time>2026-06-05T14:12:13</time>
      </trkpt>
      <trkpt lat="36.05236999690533" lon="129.3764839321375">
        <ele>13.0</ele>
        <time>2026-06-05T14:12:14</time>
      </trkpt>
      <trkpt lat="36.05236295610666" lon="129.37641092576087">
        <ele>13.0</ele>
        <time>2026-06-05T14:12:15</time>
      </trkpt>
      <trkpt lat="36.05235599912703" lon="129.37634093686938">
        <ele>13.0</ele>
        <time>2026-06-05T14:12:16</time>
      </trkpt>
      <trkpt lat="36.052347952499986" lon="129.37627497129142">
        <ele>13.2</ele>
        <time>2026-06-05T14:12:17</time>
      </trkpt>
      <trkpt lat="36.05233898386359" lon="129.37621294520795">
        <ele>13.0</ele>
        <time>2026-06-05T14:12:18</time>
      </trkpt>
      <trkpt lat="36.05232993140817" lon="129.37615293078125">
        <ele>13.2</ele>
        <time>2026-06-05T14:12:19</time>
      </trkpt>
      <trkpt lat="36.052321968600154" lon="129.37609392218292">
        <ele>13.2</ele>
        <time>2026-06-05T14:12:20</time>
      </trkpt>
      <trkpt lat="36.05231593362987" lon="129.37603793106973">
        <ele>13.2</ele>
        <time>2026-06-05T14:12:21</time>
      </trkpt>
      <trkpt lat="36.05231199413538" lon="129.3759839516133">
        <ele>13.4</ele>
        <time>2026-06-05T14:12:22</time>
      </trkpt>
      <trkpt lat="36.05230696499348" lon="129.37593592330813">
        <ele>13.4</ele>
        <time>2026-06-05T14:12:23</time>
      </trkpt>
      <trkpt lat="36.05229992419481" lon="129.37588999047875">
        <ele>13.4</ele>
        <time>2026-06-05T14:12:24</time>
      </trkpt>
      <trkpt lat="36.05228994973004" lon="129.37583995051682">
        <ele>13.4</ele>
        <time>2026-06-05T14:12:25</time>
      </trkpt>
      <trkpt lat="36.0522779636085" lon="129.37578697688878">
        <ele>13.4</ele>
        <time>2026-06-05T14:12:26</time>
      </trkpt>
      <trkpt lat="36.052262960001826" lon="129.37573199160397">
        <ele>13.4</ele>
        <time>2026-06-05T14:12:27</time>
      </trkpt>
      <trkpt lat="36.05224896222353" lon="129.37567591667175">
        <ele>13.4</ele>
        <time>2026-06-05T14:12:28</time>
      </trkpt>
      <trkpt lat="36.052236976101995" lon="129.3756189197302">
        <ele>13.6</ele>
        <time>2026-06-05T14:12:29</time>
      </trkpt>
      <trkpt lat="36.05222599580884" lon="129.375562928617">
        <ele>13.6</ele>
        <time>2026-06-05T14:12:30</time>
      </trkpt>
      <trkpt lat="36.052215937525034" lon="129.37550693750381">
        <ele>13.6</ele>
        <time>2026-06-05T14:12:31</time>
      </trkpt>
      <trkpt lat="36.05220495723188" lon="129.37544994056225">
        <ele>13.6</ele>
        <time>2026-06-05T14:12:32</time>
      </trkpt>
      <trkpt lat="36.052193976938725" lon="129.37539394944906">
        <ele>13.8</ele>
        <time>2026-06-05T14:12:33</time>
      </trkpt>
      <trkpt lat="36.05218098498881" lon="129.37533795833588">
        <ele>13.8</ele>
        <time>2026-06-05T14:12:34</time>
      </trkpt>
      <trkpt lat="36.05216799303889" lon="129.37528397887945">
        <ele>13.8</ele>
        <time>2026-06-05T14:12:35</time>
      </trkpt>
      <trkpt lat="36.052153995260596" lon="129.37523092143238">
        <ele>13.8</ele>
        <time>2026-06-05T14:12:36</time>
      </trkpt>
      <trkpt lat="36.05213697999716" lon="129.37517291866243">
        <ele>13.8</ele>
        <time>2026-06-05T14:12:37</time>
      </trkpt>
      <trkpt lat="36.05212398804724" lon="129.37511592172086">
        <ele>13.6</ele>
        <time>2026-06-05T14:12:38</time>
      </trkpt>
      <trkpt lat="36.052113929763436" lon="129.37505699694157">
        <ele>13.4</ele>
        <time>2026-06-05T14:12:39</time>
      </trkpt>
      <trkpt lat="36.05210093781352" lon="129.3749949708581">
        <ele>13.4</ele>
        <time>2026-06-05T14:12:40</time>
      </trkpt>
      <trkpt lat="36.05208593420684" lon="129.37493193894625">
        <ele>13.4</ele>
        <time>2026-06-05T14:12:41</time>
      </trkpt>
      <trkpt lat="36.052070930600166" lon="129.3748649675399">
        <ele>13.2</ele>
        <time>2026-06-05T14:12:42</time>
      </trkpt>
      <trkpt lat="36.05205693282187" lon="129.3747959844768">
        <ele>13.2</ele>
        <time>2026-06-05T14:12:43</time>
      </trkpt>
      <trkpt lat="36.052043940871954" lon="129.37472398392856">
        <ele>13.2</ele>
        <time>2026-06-05T14:12:44</time>
      </trkpt>
      <trkpt lat="36.0520329605788" lon="129.37465198338032">
        <ele>13.2</ele>
        <time>2026-06-05T14:12:45</time>
      </trkpt>
      <trkpt lat="36.052022986114025" lon="129.3745789770037">
        <ele>13.0</ele>
        <time>2026-06-05T14:12:46</time>
      </trkpt>
      <trkpt lat="36.05201292783022" lon="129.37450798228383">
        <ele>13.0</ele>
        <time>2026-06-05T14:12:47</time>
      </trkpt>
      <trkpt lat="36.0519999358803" lon="129.37444193288684">
        <ele>13.0</ele>
        <time>2026-06-05T14:12:48</time>
      </trkpt>
      <trkpt lat="36.051984932273626" lon="129.3743799906224">
        <ele>13.0</ele>
        <time>2026-06-05T14:12:49</time>
      </trkpt>
      <trkpt lat="36.05196892283857" lon="129.37432492151856">
        <ele>13.0</ele>
        <time>2026-06-05T14:12:50</time>
      </trkpt>
      <trkpt lat="36.05195492506027" lon="129.37427697703242">
        <ele>13.0</ele>
        <time>2026-06-05T14:12:51</time>
      </trkpt>
      <trkpt lat="36.05194293893874" lon="129.37423498369753">
        <ele>13.0</ele>
        <time>2026-06-05T14:12:52</time>
      </trkpt>
      <trkpt lat="36.05193296447396" lon="129.37419793568552">
        <ele>13.0</ele>
        <time>2026-06-05T14:12:53</time>
      </trkpt>
      <trkpt lat="36.05192399583757" lon="129.37416893430054">
        <ele>12.8</ele>
        <time>2026-06-05T14:12:54</time>
      </trkpt>
      <trkpt lat="36.051911925897" lon="129.37414999119937">
        <ele>12.8</ele>
        <time>2026-06-05T14:12:55</time>
      </trkpt>
      <trkpt lat="36.051894994452596" lon="129.3741429504007">
        <ele>12.8</ele>
        <time>2026-06-05T14:12:56</time>
      </trkpt>
      <trkpt lat="36.051872950047255" lon="129.37414999119937">
        <ele>12.6</ele>
        <time>2026-06-05T14:12:57</time>
      </trkpt>
      <trkpt lat="36.05184696614742" lon="129.37416499480605">
        <ele>12.6</ele>
        <time>2026-06-05T14:12:58</time>
      </trkpt>
      <trkpt lat="36.05181695893407" lon="129.3741849437356">
        <ele>12.6</ele>
        <time>2026-06-05T14:12:59</time>
      </trkpt>
      <trkpt lat="36.05178494006395" lon="129.37420799396932">
        <ele>12.4</ele>
        <time>2026-06-05T14:13:00</time>
      </trkpt>
      <trkpt lat="36.05175099335611" lon="129.37422894872725">
        <ele>12.4</ele>
        <time>2026-06-05T14:13:01</time>
      </trkpt>
      <trkpt lat="36.05171897448599" lon="129.3742499873042">
        <ele>12.2</ele>
        <time>2026-06-05T14:13:02</time>
      </trkpt>
      <trkpt lat="36.05168796144426" lon="129.37426893040538">
        <ele>12.2</ele>
        <time>2026-06-05T14:13:03</time>
      </trkpt>
      <trkpt lat="36.051657954230905" lon="129.37427999451756">
        <ele>12.0</ele>
        <time>2026-06-05T14:13:04</time>
      </trkpt>
      <trkpt lat="36.05162593536079" lon="129.37428493984044">
        <ele>11.8</ele>
        <time>2026-06-05T14:13:05</time>
      </trkpt>
      <trkpt lat="36.051591988652945" lon="129.37427898868918">
        <ele>11.8</ele>
        <time>2026-06-05T14:13:06</time>
      </trkpt>
      <trkpt lat="36.05155996978283" lon="129.37426096759737">
        <ele>11.8</ele>
        <time>2026-06-05T14:13:07</time>
      </trkpt>
      <trkpt lat="36.05153499171138" lon="129.3742269370705">
        <ele>11.8</ele>
        <time>2026-06-05T14:13:08</time>
      </trkpt>
      <trkpt lat="36.0515149589628" lon="129.37418092042208">
        <ele>11.8</ele>
        <time>2026-06-05T14:13:09</time>
      </trkpt>
      <trkpt lat="36.05149492621422" lon="129.3741289526224">
        <ele>11.8</ele>
        <time>2026-06-05T14:13:10</time>
      </trkpt>
      <trkpt lat="36.05147296562791" lon="129.374074973166">
        <ele>11.8</ele>
        <time>2026-06-05T14:13:11</time>
      </trkpt>
      <trkpt lat="36.05144798755646" lon="129.3740229215473">
        <ele>11.6</ele>
        <time>2026-06-05T14:13:12</time>
      </trkpt>
      <trkpt lat="36.051421919837594" lon="129.37397397123277">
        <ele>11.6</ele>
        <time>2026-06-05T14:13:13</time>
      </trkpt>
      <trkpt lat="36.05139493010938" lon="129.3739259429276">
        <ele>11.6</ele>
        <time>2026-06-05T14:13:14</time>
      </trkpt>
      <trkpt lat="36.05136995203793" lon="129.37387799844146">
        <ele>11.6</ele>
        <time>2026-06-05T14:13:15</time>
      </trkpt>
      <trkpt lat="36.05134799145162" lon="129.3738289643079">
        <ele>11.6</ele>
        <time>2026-06-05T14:13:16</time>
      </trkpt>
      <trkpt lat="36.05132795870304" lon="129.37377993017435">
        <ele>11.6</ele>
        <time>2026-06-05T14:13:17</time>
      </trkpt>
      <trkpt lat="36.05130893178284" lon="129.37372896820307">
        <ele>11.6</ele>
        <time>2026-06-05T14:13:18</time>
      </trkpt>
      <trkpt lat="36.05128797702491" lon="129.3736809398979">
        <ele>11.6</ele>
        <time>2026-06-05T14:13:19</time>
      </trkpt>
      <trkpt lat="36.05126593261957" lon="129.3736339174211">
        <ele>11.8</ele>
        <time>2026-06-05T14:13:20</time>
      </trkpt>
      <trkpt lat="36.05124296620488" lon="129.37359091825783">
        <ele>11.8</ele>
        <time>2026-06-05T14:13:21</time>
      </trkpt>
      <trkpt lat="36.05121899396181" lon="129.37354791909456">
        <ele>12.0</ele>
        <time>2026-06-05T14:13:22</time>
      </trkpt>
      <trkpt lat="36.05119694955647" lon="129.37350693158805">
        <ele>12.0</ele>
        <time>2026-06-05T14:13:23</time>
      </trkpt>
      <trkpt lat="36.05117599479854" lon="129.37346393242478">
        <ele>12.2</ele>
        <time>2026-06-05T14:13:24</time>
      </trkpt>
      <trkpt lat="36.05115797370672" lon="129.37341992743313">
        <ele>12.2</ele>
        <time>2026-06-05T14:13:25</time>
      </trkpt>
      <trkpt lat="36.05113894678652" lon="129.37337592244148">
        <ele>12.2</ele>
        <time>2026-06-05T14:13:26</time>
      </trkpt>
      <trkpt lat="36.051118997856975" lon="129.37333191744983">
        <ele>12.2</ele>
        <time>2026-06-05T14:13:27</time>
      </trkpt>
      <trkpt lat="36.051098965108395" lon="129.37329092994332">
        <ele>12.2</ele>
        <time>2026-06-05T14:13:28</time>
      </trkpt>
      <trkpt lat="36.051078932359815" lon="129.37325798906386">
        <ele>12.2</ele>
        <time>2026-06-05T14:13:29</time>
      </trkpt>
      <trkpt lat="36.05106099508703" lon="129.37323493883014">
        <ele>12.2</ele>
        <time>2026-06-05T14:13:30</time>
      </trkpt>
      <trkpt lat="36.05104397982359" lon="129.37322094105184">
        <ele>12.0</ele>
        <time>2026-06-05T14:13:31</time>
      </trkpt>
      <trkpt lat="36.051031993702054" lon="129.3732139840722">
        <ele>12.0</ele>
        <time>2026-06-05T14:13:32</time>
      </trkpt>
      <trkpt lat="36.05102595873177" lon="129.3732139840722">
        <ele>12.0</ele>
        <time>2026-06-05T14:13:33</time>
      </trkpt>
      <trkpt lat="36.05102394707501" lon="129.37321096658707">
        <ele>12.0</ele>
        <time>2026-06-05T14:13:34</time>
      </trkpt>
      <trkpt lat="36.05102495290339" lon="129.37320291996002">
        <ele>11.8</ele>
        <time>2026-06-05T14:13:35</time>
      </trkpt>
      <trkpt lat="36.05102294124663" lon="129.37318892218173">
        <ele>11.8</ele>
        <time>2026-06-05T14:13:36</time>
      </trkpt>
      <trkpt lat="36.051015984266996" lon="129.3731679674238">
        <ele>11.8</ele>
        <time>2026-06-05T14:13:37</time>
      </trkpt>
      <trkpt lat="36.05100098066032" lon="129.37314198352396">
        <ele>11.8</ele>
        <time>2026-06-05T14:13:38</time>
      </trkpt>
      <trkpt lat="36.05098195374012" lon="129.37310996465385">
        <ele>11.8</ele>
        <time>2026-06-05T14:13:39</time>
      </trkpt>
      <trkpt lat="36.05096099898219" lon="129.37307291664183">
        <ele>11.8</ele>
        <time>2026-06-05T14:13:40</time>
      </trkpt>
      <trkpt lat="36.05093996040523" lon="129.37303192913532">
        <ele>11.8</ele>
        <time>2026-06-05T14:13:41</time>
      </trkpt>
      <trkpt lat="36.05091992765665" lon="129.37298792414367">
        <ele>11.8</ele>
        <time>2026-06-05T14:13:42</time>
      </trkpt>
      <trkpt lat="36.05090098455548" lon="129.37294391915202">
        <ele>11.8</ele>
        <time>2026-06-05T14:13:43</time>
      </trkpt>
      <trkpt lat="36.050883969292045" lon="129.3729039374739">
        <ele>11.8</ele>
        <time>2026-06-05T14:13:44</time>
      </trkpt>
      <trkpt lat="36.05086896568537" lon="129.37287292443216">
        <ele>11.8</ele>
        <time>2026-06-05T14:13:45</time>
      </trkpt>
      <trkpt lat="36.05085396207869" lon="129.37285599298775">
        <ele>11.8</ele>
        <time>2026-06-05T14:13:46</time>
      </trkpt>
      <trkpt lat="36.05084599927068" lon="129.37285096384585">
        <ele>11.8</ele>
        <time>2026-06-05T14:13:47</time>
      </trkpt>
      <trkpt lat="36.050843987613916" lon="129.3728529755026">
        <ele>11.8</ele>
        <time>2026-06-05T14:13:48</time>
      </trkpt>
      <trkpt lat="36.0508449934423" lon="129.37285699881613">
        <ele>11.8</ele>
        <time>2026-06-05T14:13:49</time>
      </trkpt>
      <trkpt lat="36.05084792710841" lon="129.37286093831062">
        <ele>11.8</ele>
        <time>2026-06-05T14:13:50</time>
      </trkpt>
      <trkpt lat="36.050846921280026" lon="129.37281299382448">
        <ele>11.4</ele>
        <time>2026-06-05T14:14:12</time>
      </trkpt>
      <trkpt lat="36.05083493515849" lon="129.372787931934">
        <ele>11.4</ele>
        <time>2026-06-05T14:14:13</time>
      </trkpt>
      <trkpt lat="36.05081398040056" lon="129.3727659713477">
        <ele>11.4</ele>
        <time>2026-06-05T14:14:14</time>
      </trkpt>
      <trkpt lat="36.05078497901559" lon="129.37274895608425">
        <ele>11.4</ele>
        <time>2026-06-05T14:14:15</time>
      </trkpt>
      <trkpt lat="36.05075195431709" lon="129.37273596413434">
        <ele>11.6</ele>
        <time>2026-06-05T14:14:16</time>
      </trkpt>
      <trkpt lat="36.050714990124106" lon="129.37272699549794">
        <ele>11.6</ele>
        <time>2026-06-05T14:14:17</time>
      </trkpt>
      <trkpt lat="36.05067693628371" lon="129.37272297218442">
        <ele>11.8</ele>
        <time>2026-06-05T14:14:18</time>
      </trkpt>
      <trkpt lat="36.0506359487772" lon="129.37272096052766">
        <ele>11.8</ele>
        <time>2026-06-05T14:14:19</time>
      </trkpt>
      <trkpt lat="36.05058993212879" lon="129.37271693721414">
        <ele>11.8</ele>
        <time>2026-06-05T14:14:20</time>
      </trkpt>
      <trkpt lat="36.050541987642646" lon="129.37270796857774">
        <ele>11.8</ele>
        <time>2026-06-05T14:14:21</time>
      </trkpt>
      <trkpt lat="36.05049194768071" lon="129.37269497662783">
        <ele>11.8</ele>
        <time>2026-06-05T14:14:22</time>
      </trkpt>
      <trkpt lat="36.05043897405267" lon="129.3726779613644">
        <ele>11.8</ele>
        <time>2026-06-05T14:14:23</time>
      </trkpt>
      <trkpt lat="36.05038591660559" lon="129.37265994027257">
        <ele>12.0</ele>
        <time>2026-06-05T14:14:24</time>
      </trkpt>
      <trkpt lat="36.050329925492406" lon="129.37264694832265">
        <ele>12.0</ele>
        <time>2026-06-05T14:14:25</time>
      </trkpt>
      <trkpt lat="36.05027292855084" lon="129.3726359680295">
        <ele>12.0</ele>
        <time>2026-06-05T14:14:26</time>
      </trkpt>
      <trkpt lat="36.05021693743765" lon="129.37262599356472">
        <ele>12.0</ele>
        <time>2026-06-05T14:14:27</time>
      </trkpt>
      <trkpt lat="36.05016295798123" lon="129.37261291779578">
        <ele>12.0</ele>
        <time>2026-06-05T14:14:28</time>
      </trkpt>
      <trkpt lat="36.050109984353185" lon="129.37259799800813">
        <ele>12.0</ele>
        <time>2026-06-05T14:14:29</time>
      </trkpt>
      <trkpt lat="36.05005893856287" lon="129.3725809827447">
        <ele>12.2</ele>
        <time>2026-06-05T14:14:30</time>
      </trkpt>
      <trkpt lat="36.050005964934826" lon="129.37256497330964">
        <ele>12.2</ele>
        <time>2026-06-05T14:14:31</time>
      </trkpt>
      <trkpt lat="36.04995399713516" lon="129.37254996970296">
        <ele>12.2</ele>
        <time>2026-06-05T14:14:32</time>
      </trkpt>
      <trkpt lat="36.04990194551647" lon="129.37253597192466">
        <ele>12.2</ele>
        <time>2026-06-05T14:14:33</time>
      </trkpt>
      <trkpt lat="36.04984897188842" lon="129.37252197414637">
        <ele>12.2</ele>
        <time>2026-06-05T14:14:34</time>
      </trkpt>
      <trkpt lat="36.04979599826038" lon="129.37250898219645">
        <ele>12.2</ele>
        <time>2026-06-05T14:14:35</time>
      </trkpt>
      <trkpt lat="36.04974193498492" lon="129.37249599024653">
        <ele>12.2</ele>
        <time>2026-06-05T14:14:36</time>
      </trkpt>
      <trkpt lat="36.04968896135688" lon="129.37248392030597">
        <ele>12.2</ele>
        <time>2026-06-05T14:14:37</time>
      </trkpt>
      <trkpt lat="36.04963397607207" lon="129.3724739458412">
        <ele>12.2</ele>
        <time>2026-06-05T14:14:38</time>
      </trkpt>
      <trkpt lat="36.04957798495889" lon="129.37246296554804">
        <ele>12.2</ele>
        <time>2026-06-05T14:14:39</time>
      </trkpt>
      <trkpt lat="36.04952098801732" lon="129.37244796194136">
        <ele>12.2</ele>
        <time>2026-06-05T14:14:40</time>
      </trkpt>
      <trkpt lat="36.049462985247374" lon="129.37242994084954">
        <ele>12.0</ele>
        <time>2026-06-05T14:14:41</time>
      </trkpt>
      <trkpt lat="36.04940498247743" lon="129.3724129255861">
        <ele>12.0</ele>
        <time>2026-06-05T14:14:42</time>
      </trkpt>
      <trkpt lat="36.04934697970748" lon="129.37239699997008">
        <ele>12.0</ele>
        <time>2026-06-05T14:14:43</time>
      </trkpt>
      <trkpt lat="36.04928897693753" lon="129.37237897887826">
        <ele>12.0</ele>
        <time>2026-06-05T14:14:44</time>
      </trkpt>
      <trkpt lat="36.04923399165273" lon="129.37235492281616">
        <ele>12.2</ele>
        <time>2026-06-05T14:14:45</time>
      </trkpt>
      <trkpt lat="36.04917992837727" lon="129.37232298776507">
        <ele>12.2</ele>
        <time>2026-06-05T14:14:46</time>
      </trkpt>
      <trkpt lat="36.049125948920846" lon="129.3722939863801">
        <ele>12.2</ele>
        <time>2026-06-05T14:14:47</time>
      </trkpt>
      <trkpt lat="36.04907196946442" lon="129.37227395363152">
        <ele>12.4</ele>
        <time>2026-06-05T14:14:48</time>
      </trkpt>
      <trkpt lat="36.04901899583638" lon="129.3722609616816">
        <ele>12.6</ele>
        <time>2026-06-05T14:14:49</time>
      </trkpt>
      <trkpt lat="36.04896895587444" lon="129.37225392088294">
        <ele>12.8</ele>
        <time>2026-06-05T14:14:50</time>
      </trkpt>
      <trkpt lat="36.04892092756927" lon="129.37224998138845">
        <ele>13.0</ele>
        <time>2026-06-05T14:14:51</time>
      </trkpt>
      <trkpt lat="36.04887692257762" lon="129.37224495224655">
        <ele>13.2</ele>
        <time>2026-06-05T14:14:52</time>
      </trkpt>
      <trkpt lat="36.04883492924273" lon="129.37223698943853">
        <ele>13.4</ele>
        <time>2026-06-05T14:14:53</time>
      </trkpt>
      <trkpt lat="36.04879394173622" lon="129.37222693115473">
        <ele>13.6</ele>
        <time>2026-06-05T14:14:54</time>
      </trkpt>
      <trkpt lat="36.04875295422971" lon="129.37221695668995">
        <ele>13.6</ele>
        <time>2026-06-05T14:14:55</time>
      </trkpt>
      <trkpt lat="36.04871096089482" lon="129.37220698222518">
        <ele>13.8</ele>
        <time>2026-06-05T14:14:56</time>
      </trkpt>
      <trkpt lat="36.048668967559934" lon="129.37219792976975">
        <ele>13.8</ele>
        <time>2026-06-05T14:14:57</time>
      </trkpt>
      <trkpt lat="36.048626974225044" lon="129.3721869494766">
        <ele>13.8</ele>
        <time>2026-06-05T14:14:58</time>
      </trkpt>
      <trkpt lat="36.048584980890155" lon="129.37217194586992">
        <ele>13.8</ele>
        <time>2026-06-05T14:14:59</time>
      </trkpt>
      <trkpt lat="36.048540975898504" lon="129.37215291894972">
        <ele>13.6</ele>
        <time>2026-06-05T14:15:00</time>
      </trkpt>
      <trkpt lat="36.04849294759333" lon="129.3721309583634">
        <ele>13.6</ele>
        <time>2026-06-05T14:15:01</time>
      </trkpt>
      <trkpt lat="36.04843896813691" lon="129.3721089977771">
        <ele>13.4</ele>
        <time>2026-06-05T14:15:02</time>
      </trkpt>
      <trkpt lat="36.04837995953858" lon="129.37209097668529">
        <ele>13.2</ele>
        <time>2026-06-05T14:15:03</time>
      </trkpt>
      <trkpt lat="36.04831692762673" lon="129.372076978907">
        <ele>13.0</ele>
        <time>2026-06-05T14:15:04</time>
      </trkpt>
      <trkpt lat="36.04825096204877" lon="129.37206792645156">
        <ele>12.6</ele>
        <time>2026-06-05T14:15:05</time>
      </trkpt>
      <trkpt lat="36.04818499647081" lon="129.3720619753003">
        <ele>12.6</ele>
        <time>2026-06-05T14:15:06</time>
      </trkpt>
      <trkpt lat="36.04812095873058" lon="129.37206398695707">
        <ele>12.4</ele>
        <time>2026-06-05T14:15:07</time>
      </trkpt>
      <trkpt lat="36.04805893264711" lon="129.37206993810833">
        <ele>12.2</ele>
        <time>2026-06-05T14:15:08</time>
      </trkpt>
      <trkpt lat="36.04799992404878" lon="129.37207396142185">
        <ele>12.2</ele>
        <time>2026-06-05T14:15:09</time>
      </trkpt>
      <trkpt lat="36.047943932935596" lon="129.37207396142185">
        <ele>12.2</ele>
        <time>2026-06-05T14:15:10</time>
      </trkpt>
      <trkpt lat="36.04788995347917" lon="129.37206792645156">
        <ele>12.0</ele>
        <time>2026-06-05T14:15:11</time>
      </trkpt>
      <trkpt lat="36.047834968194366" lon="129.3720579519868">
        <ele>12.0</ele>
        <time>2026-06-05T14:15:12</time>
      </trkpt>
      <trkpt lat="36.04777998290956" lon="129.3720439542085">
        <ele>12.2</ele>
        <time>2026-06-05T14:15:13</time>
      </trkpt>
      <trkpt lat="36.047723991796374" lon="129.37202794477344">
        <ele>12.2</ele>
        <time>2026-06-05T14:15:14</time>
      </trkpt>
      <trkpt lat="36.04766598902643" lon="129.37201092951">
        <ele>12.2</ele>
        <time>2026-06-05T14:15:15</time>
      </trkpt>
      <trkpt lat="36.04760597459972" lon="129.3719929922372">
        <ele>12.2</ele>
        <time>2026-06-05T14:15:16</time>
      </trkpt>
      <trkpt lat="36.04754596017301" lon="129.3719749711454">
        <ele>12.2</ele>
        <time>2026-06-05T14:15:17</time>
      </trkpt>
      <trkpt lat="36.04748393408954" lon="129.37195695005357">
        <ele>12.0</ele>
        <time>2026-06-05T14:15:18</time>
      </trkpt>
      <trkpt lat="36.047421991825104" lon="129.37193993479013">
        <ele>12.0</ele>
        <time>2026-06-05T14:15:19</time>
      </trkpt>
      <trkpt lat="36.047358959913254" lon="129.37192199751735">
        <ele>12.0</ele>
        <time>2026-06-05T14:15:20</time>
      </trkpt>
      <trkpt lat="36.047295928001404" lon="129.37190397642553">
        <ele>12.0</ele>
        <time>2026-06-05T14:15:21</time>
      </trkpt>
      <trkpt lat="36.047232979908586" lon="129.37188796699047">
        <ele>12.0</ele>
        <time>2026-06-05T14:15:22</time>
      </trkpt>
      <trkpt lat="36.047167936339974" lon="129.3718719575554">
        <ele>12.2</ele>
        <time>2026-06-05T14:15:23</time>
      </trkpt>
      <trkpt lat="36.047103982418776" lon="129.37185795977712">
        <ele>12.2</ele>
        <time>2026-06-05T14:15:24</time>
      </trkpt>
      <trkpt lat="36.047037933021784" lon="129.37184597365558">
        <ele>12.2</ele>
        <time>2026-06-05T14:15:25</time>
      </trkpt>
      <trkpt lat="36.046971967443824" lon="129.37183499336243">
        <ele>12.2</ele>
        <time>2026-06-05T14:15:26</time>
      </trkpt>
      <trkpt lat="36.04690499603748" lon="129.37182493507862">
        <ele>12.2</ele>
        <time>2026-06-05T14:15:27</time>
      </trkpt>
      <trkpt lat="36.04683995246887" lon="129.37181496061385">
        <ele>12.2</ele>
        <time>2026-06-05T14:15:28</time>
      </trkpt>
      <trkpt lat="36.04677599854767" lon="129.3718029744923">
        <ele>12.2</ele>
        <time>2026-06-05T14:15:29</time>
      </trkpt>
      <trkpt lat="36.046713972464204" lon="129.3717899825424">
        <ele>12.0</ele>
        <time>2026-06-05T14:15:30</time>
      </trkpt>
      <trkpt lat="36.046652952209115" lon="129.37177397310734">
        <ele>12.0</ele>
        <time>2026-06-05T14:15:31</time>
      </trkpt>
      <trkpt lat="36.04659394361079" lon="129.3717569578439">
        <ele>12.0</ele>
        <time>2026-06-05T14:15:32</time>
      </trkpt>
      <trkpt lat="36.04653493501246" lon="129.37174094840884">
        <ele>12.0</ele>
        <time>2026-06-05T14:15:33</time>
      </trkpt>
      <trkpt lat="36.04647492058575" lon="129.37172594480217">
        <ele>12.0</ele>
        <time>2026-06-05T14:15:34</time>
      </trkpt>
      <trkpt lat="36.046413984149694" lon="129.37171194702387">
        <ele>12.0</ele>
        <time>2026-06-05T14:15:35</time>
      </trkpt>
      <trkpt lat="36.046353969722986" lon="129.3716969434172">
        <ele>12.0</ele>
        <time>2026-06-05T14:15:36</time>
      </trkpt>
      <trkpt lat="36.04629395529628" lon="129.37168093398213">
        <ele>12.0</ele>
        <time>2026-06-05T14:15:37</time>
      </trkpt>
      <trkpt lat="36.04623494669795" lon="129.37166593037546">
        <ele>12.0</ele>
        <time>2026-06-05T14:15:38</time>
      </trkpt>
      <trkpt lat="36.04617593809962" lon="129.37165092676878">
        <ele>12.0</ele>
        <time>2026-06-05T14:15:39</time>
      </trkpt>
      <trkpt lat="36.046117935329676" lon="129.37163692899048">
        <ele>12.0</ele>
        <time>2026-06-05T14:15:40</time>
      </trkpt>
      <trkpt lat="36.04605993255973" lon="129.3716219253838">
        <ele>12.0</ele>
        <time>2026-06-05T14:15:41</time>
      </trkpt>
      <trkpt lat="36.04600394144654" lon="129.37160599976778">
        <ele>12.0</ele>
        <time>2026-06-05T14:15:42</time>
      </trkpt>
      <trkpt lat="36.04594795033336" lon="129.37158898450434">
        <ele>12.2</ele>
        <time>2026-06-05T14:15:43</time>
      </trkpt>
      <trkpt lat="36.04589095339179" lon="129.37157297506928">
        <ele>12.2</ele>
        <time>2026-06-05T14:15:44</time>
      </trkpt>
      <trkpt lat="36.045833956450224" lon="129.37155998311937">
        <ele>12.2</ele>
        <time>2026-06-05T14:15:45</time>
      </trkpt>
      <trkpt lat="36.045774947851896" lon="129.37154891900718">
        <ele>12.2</ele>
        <time>2026-06-05T14:15:46</time>
      </trkpt>
      <trkpt lat="36.04571795091033" lon="129.3715399503708">
        <ele>12.2</ele>
        <time>2026-06-05T14:15:47</time>
      </trkpt>
      <trkpt lat="36.04566095396876" lon="129.37152997590601">
        <ele>12.2</ele>
        <time>2026-06-05T14:15:48</time>
      </trkpt>
      <trkpt lat="36.04560496285558" lon="129.3715169839561">
        <ele>12.2</ele>
        <time>2026-06-05T14:15:49</time>
      </trkpt>
      <trkpt lat="36.04554997757077" lon="129.37150097452104">
        <ele>12.2</ele>
        <time>2026-06-05T14:15:50</time>
      </trkpt>
      <trkpt lat="36.04549499228597" lon="129.37148295342922">
        <ele>12.2</ele>
        <time>2026-06-05T14:15:51</time>
      </trkpt>
      <trkpt lat="36.04543992318213" lon="129.37146593816578">
        <ele>12.2</ele>
        <time>2026-06-05T14:15:52</time>
      </trkpt>
      <trkpt lat="36.045384937897325" lon="129.37144892290235">
        <ele>12.2</ele>
        <time>2026-06-05T14:15:53</time>
      </trkpt>
      <trkpt lat="36.04532794095576" lon="129.37143593095243">
        <ele>12.2</ele>
        <time>2026-06-05T14:15:54</time>
      </trkpt>
      <trkpt lat="36.04527094401419" lon="129.37142696231604">
        <ele>12.2</ele>
        <time>2026-06-05T14:15:55</time>
      </trkpt>
      <trkpt lat="36.045213947072625" lon="129.37141992151737">
        <ele>12.2</ele>
        <time>2026-06-05T14:15:56</time>
      </trkpt>
      <trkpt lat="36.04515795595944" lon="129.37141095288098">
        <ele>12.2</ele>
        <time>2026-06-05T14:15:57</time>
      </trkpt>
      <trkpt lat="36.04510095901787" lon="129.37139896675944">
        <ele>12.2</ele>
        <time>2026-06-05T14:15:58</time>
      </trkpt>
      <trkpt lat="36.04504597373307" lon="129.3713879864663">
        <ele>12.2</ele>
        <time>2026-06-05T14:15:59</time>
      </trkpt>
      <trkpt lat="36.04499291628599" lon="129.37137591652572">
        <ele>12.2</ele>
        <time>2026-06-05T14:16:00</time>
      </trkpt>
      <trkpt lat="36.04494195431471" lon="129.3713629245758">
        <ele>12.2</ele>
        <time>2026-06-05T14:16:01</time>
      </trkpt>
      <trkpt lat="36.044891998171806" lon="129.3713489267975">
        <ele>12.2</ele>
        <time>2026-06-05T14:16:02</time>
      </trkpt>
      <trkpt lat="36.04484296403825" lon="129.3713349290192">
        <ele>12.2</ele>
        <time>2026-06-05T14:16:03</time>
      </trkpt>
      <trkpt lat="36.0447939299047" lon="129.37131891958416">
        <ele>12.2</ele>
        <time>2026-06-05T14:16:04</time>
      </trkpt>
      <trkpt lat="36.04474497959018" lon="129.37130299396813">
        <ele>12.2</ele>
        <time>2026-06-05T14:16:05</time>
      </trkpt>
      <trkpt lat="36.04469393379986" lon="129.37128991819918">
        <ele>12.2</ele>
        <time>2026-06-05T14:16:06</time>
      </trkpt>
      <trkpt lat="36.04464096017182" lon="129.37127893790603">
        <ele>12.2</ele>
        <time>2026-06-05T14:16:07</time>
      </trkpt>
      <trkpt lat="36.044586980715394" lon="129.37126996926963">
        <ele>12.0</ele>
        <time>2026-06-05T14:16:08</time>
      </trkpt>
      <trkpt lat="36.04453291743994" lon="129.37126292847097">
        <ele>12.2</ele>
        <time>2026-06-05T14:16:09</time>
      </trkpt>
      <trkpt lat="36.04447793215513" lon="129.37125496566296">
        <ele>12.2</ele>
        <time>2026-06-05T14:16:10</time>
      </trkpt>
      <trkpt lat="36.04442495852709" lon="129.37124499119818">
        <ele>12.4</ele>
        <time>2026-06-05T14:16:11</time>
      </trkpt>
      <trkpt lat="36.044371984899044" lon="129.37123099341989">
        <ele>12.6</ele>
        <time>2026-06-05T14:16:12</time>
      </trkpt>
      <trkpt lat="36.04431892745197" lon="129.3712169956416">
        <ele>12.6</ele>
        <time>2026-06-05T14:16:13</time>
      </trkpt>
      <trkpt lat="36.044266959652305" lon="129.37120391987264">
        <ele>12.6</ele>
        <time>2026-06-05T14:16:14</time>
      </trkpt>
      <trkpt lat="36.04421691969037" lon="129.37118891626596">
        <ele>12.6</ele>
        <time>2026-06-05T14:16:15</time>
      </trkpt>
      <trkpt lat="36.04416796937585" lon="129.37117299064994">
        <ele>12.8</ele>
        <time>2026-06-05T14:16:16</time>
      </trkpt>
      <trkpt lat="36.044119941070676" lon="129.37115798704326">
        <ele>12.8</ele>
        <time>2026-06-05T14:16:17</time>
      </trkpt>
      <trkpt lat="36.044073924422264" lon="129.37114499509335">
        <ele>12.8</ele>
        <time>2026-06-05T14:16:18</time>
      </trkpt>
      <trkpt lat="36.044028997421265" lon="129.37113393098116">
        <ele>12.8</ele>
        <time>2026-06-05T14:16:19</time>
      </trkpt>
      <trkpt lat="36.043985998257995" lon="129.37112395651639">
        <ele>12.8</ele>
        <time>2026-06-05T14:16:20</time>
      </trkpt>
      <trkpt lat="36.043944926932454" lon="129.37111699953675">
        <ele>12.8</ele>
        <time>2026-06-05T14:16:21</time>
      </trkpt>
      <trkpt lat="36.04390595108271" lon="129.37110492959619">
        <ele>12.8</ele>
        <time>2026-06-05T14:16:22</time>
      </trkpt>
      <trkpt lat="36.0438699927181" lon="129.37108498066664">
        <ele>12.8</ele>
        <time>2026-06-05T14:16:23</time>
      </trkpt>
      <trkpt lat="36.04383495636284" lon="129.37106897123158">
        <ele>12.8</ele>
        <time>2026-06-05T14:16:24</time>
      </trkpt>
      <trkpt lat="36.043796986341476" lon="129.37106092460454">
        <ele>12.8</ele>
        <time>2026-06-05T14:16:25</time>
      </trkpt>
      <trkpt lat="36.043753987178206" lon="129.37105698511004">
        <ele>12.8</ele>
        <time>2026-06-05T14:16:26</time>
      </trkpt>
      <trkpt lat="36.043707970529795" lon="129.37105296179652">
        <ele>12.8</ele>
        <time>2026-06-05T14:16:27</time>
      </trkpt>
      <trkpt lat="36.04365994222462" lon="129.37104692682624">
        <ele>12.6</ele>
        <time>2026-06-05T14:16:28</time>
      </trkpt>
      <trkpt lat="36.0436109919101" lon="129.3710399698466">
        <ele>12.6</ele>
        <time>2026-06-05T14:16:29</time>
      </trkpt>
      <trkpt lat="36.04356195777655" lon="129.37103292904794">
        <ele>12.6</ele>
        <time>2026-06-05T14:16:30</time>
      </trkpt>
      <trkpt lat="36.04351191781461" lon="129.3710219487548">
        <ele>12.6</ele>
        <time>2026-06-05T14:16:31</time>
      </trkpt>
      <trkpt lat="36.04345995001495" lon="129.37100996263325">
        <ele>12.6</ele>
        <time>2026-06-05T14:16:32</time>
      </trkpt>
      <trkpt lat="36.043406976386905" lon="129.37099697068334">
        <ele>12.4</ele>
        <time>2026-06-05T14:16:33</time>
      </trkpt>
      <trkpt lat="36.0433519911021" lon="129.3709849845618">
        <ele>12.4</ele>
        <time>2026-06-05T14:16:34</time>
      </trkpt>
      <trkpt lat="36.04329792782664" lon="129.3709709867835">
        <ele>12.4</ele>
        <time>2026-06-05T14:16:35</time>
      </trkpt>
      <trkpt lat="36.0432449541986" lon="129.37095296569169">
        <ele>12.4</ele>
        <time>2026-06-05T14:16:36</time>
      </trkpt>
      <trkpt lat="36.0431949980557" lon="129.3709339387715">
        <ele>12.6</ele>
        <time>2026-06-05T14:16:37</time>
      </trkpt>
      <trkpt lat="36.04314596392214" lon="129.37091398984194">
        <ele>12.6</ele>
        <time>2026-06-05T14:16:38</time>
      </trkpt>
      <trkpt lat="36.04309994727373" lon="129.37089596875012">
        <ele>12.6</ele>
        <time>2026-06-05T14:16:39</time>
      </trkpt>
      <trkpt lat="36.0430549364537" lon="129.37087995931506">
        <ele>12.6</ele>
        <time>2026-06-05T14:16:40</time>
      </trkpt>
      <trkpt lat="36.04300992563367" lon="129.37086696736515">
        <ele>12.8</ele>
        <time>2026-06-05T14:16:41</time>
      </trkpt>
      <trkpt lat="36.0429669264704" lon="129.37085699290037">
        <ele>12.8</ele>
        <time>2026-06-05T14:16:42</time>
      </trkpt>
      <trkpt lat="36.04292493313551" lon="129.37084894627333">
        <ele>12.8</ele>
        <time>2026-06-05T14:16:43</time>
      </trkpt>
      <trkpt lat="36.042883945629" lon="129.3708409834653">
        <ele>12.8</ele>
        <time>2026-06-05T14:16:44</time>
      </trkpt>
      <trkpt lat="36.042845975607634" lon="129.37083293683827">
        <ele>12.6</ele>
        <time>2026-06-05T14:16:45</time>
      </trkpt>
      <trkpt lat="36.042807921767235" lon="129.37082597985864">
        <ele>12.6</ele>
        <time>2026-06-05T14:16:46</time>
      </trkpt>
      <trkpt lat="36.04276995174587" lon="129.37081893905997">
        <ele>12.6</ele>
        <time>2026-06-05T14:16:47</time>
      </trkpt>
      <trkpt lat="36.04273097589612" lon="129.37081298790872">
        <ele>12.6</ele>
        <time>2026-06-05T14:16:48</time>
      </trkpt>
      <trkpt lat="36.04268898256123" lon="129.3708089645952">
        <ele>12.4</ele>
        <time>2026-06-05T14:16:49</time>
      </trkpt>
      <trkpt lat="36.04264598339796" lon="129.3708039354533">
        <ele>12.4</ele>
        <time>2026-06-05T14:16:50</time>
      </trkpt>
      <trkpt lat="36.04260097257793" lon="129.3707949668169">
        <ele>12.4</ele>
        <time>2026-06-05T14:16:51</time>
      </trkpt>
      <trkpt lat="36.04255395010114" lon="129.37078499235213">
        <ele>12.4</ele>
        <time>2026-06-05T14:16:52</time>
      </trkpt>
      <trkpt lat="36.042505921795964" lon="129.3707759398967">
        <ele>12.4</ele>
        <time>2026-06-05T14:16:53</time>
      </trkpt>
      <trkpt lat="36.04245495982468" lon="129.37076596543193">
        <ele>12.2</ele>
        <time>2026-06-05T14:16:54</time>
      </trkpt>
      <trkpt lat="36.04240299202502" lon="129.37075599096715">
        <ele>12.2</ele>
        <time>2026-06-05T14:16:55</time>
      </trkpt>
      <trkpt lat="36.04235094040632" lon="129.37074693851173">
        <ele>12.4</ele>
        <time>2026-06-05T14:16:56</time>
      </trkpt>
      <trkpt lat="36.04229997843504" lon="129.37073796987534">
        <ele>12.4</ele>
        <time>2026-06-05T14:16:57</time>
      </trkpt>
      <trkpt lat="36.042247926816344" lon="129.3707299232483">
        <ele>12.4</ele>
        <time>2026-06-05T14:16:58</time>
      </trkpt>
      <trkpt lat="36.0421949531883" lon="129.37072296626866">
        <ele>12.2</ele>
        <time>2026-06-05T14:16:59</time>
      </trkpt>
      <trkpt lat="36.04214298538864" lon="129.3707149196416">
        <ele>12.2</ele>
        <time>2026-06-05T14:17:00</time>
      </trkpt>
      <trkpt lat="36.04208992794156" lon="129.3707069568336">
        <ele>12.2</ele>
        <time>2026-06-05T14:17:01</time>
      </trkpt>
      <trkpt lat="36.04203695431352" lon="129.3706979881972">
        <ele>12.2</ele>
        <time>2026-06-05T14:17:02</time>
      </trkpt>
      <trkpt lat="36.04198297485709" lon="129.37068893574178">
        <ele>12.0</ele>
        <time>2026-06-05T14:17:03</time>
      </trkpt>
      <trkpt lat="36.041929917410016" lon="129.370678961277">
        <ele>12.0</ele>
        <time>2026-06-05T14:17:04</time>
      </trkpt>
      <trkpt lat="36.04187694378197" lon="129.37066999264061">
        <ele>12.0</ele>
        <time>2026-06-05T14:17:05</time>
      </trkpt>
      <trkpt lat="36.04182497598231" lon="129.3706609401852">
        <ele>12.0</ele>
        <time>2026-06-05T14:17:06</time>
      </trkpt>
      <trkpt lat="36.041774936020374" lon="129.37065096572042">
        <ele>12.0</ele>
        <time>2026-06-05T14:17:07</time>
      </trkpt>
      <trkpt lat="36.04172497987747" lon="129.37064199708402">
        <ele>12.0</ele>
        <time>2026-06-05T14:17:08</time>
      </trkpt>
      <trkpt lat="36.0416769515723" lon="129.3706329446286">
        <ele>12.0</ele>
        <time>2026-06-05T14:17:09</time>
      </trkpt>
      <trkpt lat="36.04162992909551" lon="129.3706239759922">
        <ele>12.0</ele>
        <time>2026-06-05T14:17:10</time>
      </trkpt>
      <trkpt lat="36.041582990437746" lon="129.37061492353678">
        <ele>12.0</ele>
        <time>2026-06-05T14:17:11</time>
      </trkpt>
      <trkpt lat="36.041536973789334" lon="129.37060696072876">
        <ele>12.2</ele>
        <time>2026-06-05T14:17:12</time>
      </trkpt>
      <trkpt lat="36.04148995131254" lon="129.37060092575848">
        <ele>12.2</ele>
        <time>2026-06-05T14:17:13</time>
      </trkpt>
      <trkpt lat="36.04144292883575" lon="129.37059296295047">
        <ele>12.2</ele>
        <time>2026-06-05T14:17:14</time>
      </trkpt>
      <trkpt lat="36.04139397852123" lon="129.3705859221518">
        <ele>12.2</ele>
        <time>2026-06-05T14:17:15</time>
      </trkpt>
      <trkpt lat="36.041344944387674" lon="129.37057997100055">
        <ele>12.2</ele>
        <time>2026-06-05T14:17:16</time>
      </trkpt>
      <trkpt lat="36.04129498824477" lon="129.3705729302019">
        <ele>12.4</ele>
        <time>2026-06-05T14:17:17</time>
      </trkpt>
      <trkpt lat="36.04124494828284" lon="129.3705639615655">
        <ele>12.4</ele>
        <time>2026-06-05T14:17:18</time>
      </trkpt>
      <trkpt lat="36.041195997968316" lon="129.37055298127234">
        <ele>12.4</ele>
        <time>2026-06-05T14:17:19</time>
      </trkpt>
      <trkpt lat="36.04114595800638" lon="129.37054292298853">
        <ele>12.4</ele>
        <time>2026-06-05T14:17:20</time>
      </trkpt>
      <trkpt lat="36.04109692387283" lon="129.37053395435214">
        <ele>12.4</ele>
        <time>2026-06-05T14:17:21</time>
      </trkpt>
      <trkpt lat="36.04104797355831" lon="129.37052599154413">
        <ele>12.4</ele>
        <time>2026-06-05T14:17:22</time>
      </trkpt>
      <trkpt lat="36.04099893942475" lon="129.3705219682306">
        <ele>12.4</ele>
        <time>2026-06-05T14:17:23</time>
      </trkpt>
      <trkpt lat="36.04094998911023" lon="129.37051794491708">
        <ele>12.4</ele>
        <time>2026-06-05T14:17:24</time>
      </trkpt>
      <trkpt lat="36.04090095497668" lon="129.37051392160356">
        <ele>12.4</ele>
        <time>2026-06-05T14:17:25</time>
      </trkpt>
      <trkpt lat="36.040852926671505" lon="129.37050696462393">
        <ele>12.4</ele>
        <time>2026-06-05T14:17:26</time>
      </trkpt>
      <trkpt lat="36.04080397635698" lon="129.37049799598753">
        <ele>12.4</ele>
        <time>2026-06-05T14:17:27</time>
      </trkpt>
      <trkpt lat="36.04075695388019" lon="129.3704889435321">
        <ele>12.4</ele>
        <time>2026-06-05T14:17:28</time>
      </trkpt>
      <trkpt lat="36.0407099314034" lon="129.37047896906734">
        <ele>12.4</ele>
        <time>2026-06-05T14:17:29</time>
      </trkpt>
      <trkpt lat="36.04066492058337" lon="129.37046899460256">
        <ele>12.2</ele>
        <time>2026-06-05T14:17:30</time>
      </trkpt>
      <trkpt lat="36.04062795639038" lon="129.37046094797552">
        <ele>12.2</ele>
        <time>2026-06-05T14:17:31</time>
      </trkpt>
      <trkpt lat="36.04060498997569" lon="129.3704619538039">
        <ele>12.2</ele>
        <time>2026-06-05T14:17:32</time>
      </trkpt>
      <trkpt lat="36.040596943348646" lon="129.37046798877418">
        <ele>12.2</ele>
        <time>2026-06-05T14:17:33</time>
      </trkpt>
      <trkpt lat="36.04059794917703" lon="129.3704749457538">
        <ele>12.0</ele>
        <time>2026-06-05T14:17:34</time>
      </trkpt>
      <trkpt lat="36.04060398414731" lon="129.3704809807241">
        <ele>12.0</ele>
        <time>2026-06-05T14:17:35</time>
      </trkpt>
      <trkpt lat="36.04061094112694" lon="129.3704849202186">
        <ele>11.8</ele>
        <time>2026-06-05T14:17:36</time>
      </trkpt>
      <trkpt lat="36.040626950562" lon="129.37046094797552">
        <ele>11.4</ele>
        <time>2026-06-05T14:17:50</time>
      </trkpt>
      <trkpt lat="36.04061194695532" lon="129.37045499682426">
        <ele>11.4</ele>
        <time>2026-06-05T14:17:51</time>
      </trkpt>
      <trkpt lat="36.040589986369014" lon="129.37045097351074">
        <ele>11.4</ele>
        <time>2026-06-05T14:17:52</time>
      </trkpt>
      <trkpt lat="36.04056199081242" lon="129.37044695019722">
        <ele>11.4</ele>
        <time>2026-06-05T14:17:53</time>
      </trkpt>
      <trkpt lat="36.040530977770686" lon="129.3704429268837">
        <ele>11.4</ele>
        <time>2026-06-05T14:17:54</time>
      </trkpt>
      <trkpt lat="36.04049594141543" lon="129.37043596990407">
        <ele>11.4</ele>
        <time>2026-06-05T14:17:55</time>
      </trkpt>
      <trkpt lat="36.04045696556568" lon="129.3704289291054">
        <ele>11.4</ele>
        <time>2026-06-05T14:17:56</time>
      </trkpt>
      <trkpt lat="36.04041195474565" lon="129.37042297795415">
        <ele>11.4</ele>
        <time>2026-06-05T14:17:57</time>
      </trkpt>
      <trkpt lat="36.04036694392562" lon="129.37041694298387">
        <ele>11.4</ele>
        <time>2026-06-05T14:17:58</time>
      </trkpt>
      <trkpt lat="36.04032796807587" lon="129.370411997661">
        <ele>11.6</ele>
        <time>2026-06-05T14:17:59</time>
      </trkpt>
      <trkpt lat="36.04029695503414" lon="129.3704069685191">
        <ele>11.8</ele>
        <time>2026-06-05T14:18:00</time>
      </trkpt>
      <trkpt lat="36.040271976962686" lon="129.37040294520557">
        <ele>12.0</ele>
        <time>2026-06-05T14:18:01</time>
      </trkpt>
      <trkpt lat="36.040246998891234" lon="129.3704009335488">
        <ele>12.2</ele>
        <time>2026-06-05T14:18:02</time>
      </trkpt>
      <trkpt lat="36.04021992534399" lon="129.3704069685191">
        <ele>12.4</ele>
        <time>2026-06-05T14:18:03</time>
      </trkpt>
      <trkpt lat="36.04018899612129" lon="129.37041895464063">
        <ele>12.6</ele>
        <time>2026-06-05T14:18:04</time>
      </trkpt>
      <trkpt lat="36.04015798307955" lon="129.37043295241892">
        <ele>12.8</ele>
        <time>2026-06-05T14:18:05</time>
      </trkpt>
      <trkpt lat="36.04012998752296" lon="129.37044896185398">
        <ele>12.8</ele>
        <time>2026-06-05T14:18:06</time>
      </trkpt>
      <trkpt lat="36.04010199196637" lon="129.37044393271208">
        <ele>12.8</ele>
        <time>2026-06-05T14:18:07</time>
      </trkpt>
      <trkpt lat="36.040078941732645" lon="129.37041895464063">
        <ele>12.8</ele>
        <time>2026-06-05T14:18:08</time>
      </trkpt>
      <trkpt lat="36.04006192646921" lon="129.37039095908403">
        <ele>12.8</ele>
        <time>2026-06-05T14:18:09</time>
      </trkpt>
      <trkpt lat="36.04004994034767" lon="129.37036598101258">
        <ele>12.6</ele>
        <time>2026-06-05T14:18:10</time>
      </trkpt>
      <trkpt lat="36.04004197753966" lon="129.3703409191221">
        <ele>12.4</ele>
        <time>2026-06-05T14:18:11</time>
      </trkpt>
      <trkpt lat="36.04002999141812" lon="129.3703139293939">
        <ele>12.2</ele>
        <time>2026-06-05T14:18:12</time>
      </trkpt>
      <trkpt lat="36.04000794701278" lon="129.37029196880758">
        <ele>12.2</ele>
        <time>2026-06-05T14:18:13</time>
      </trkpt>
      <trkpt lat="36.03997693397105" lon="129.37027495354414">
        <ele>12.2</ele>
        <time>2026-06-05T14:18:14</time>
      </trkpt>
      <trkpt lat="36.03993896394968" lon="129.37026095576584">
        <ele>12.2</ele>
        <time>2026-06-05T14:18:15</time>
      </trkpt>
      <trkpt lat="36.03989697061479" lon="129.37025492079556">
        <ele>12.2</ele>
        <time>2026-06-05T14:18:16</time>
      </trkpt>
      <trkpt lat="36.03985296562314" lon="129.37025693245232">
        <ele>12.2</ele>
        <time>2026-06-05T14:18:17</time>
      </trkpt>
      <trkpt lat="36.03976596146822" lon="129.37025693245232">
        <ele>12.2</ele>
        <time>2026-06-05T14:18:18</time>
      </trkpt>
      <trkpt lat="36.03972991928458" lon="129.37023698352277">
        <ele>12.2</ele>
        <time>2026-06-05T14:18:19</time>
      </trkpt>
      <trkpt lat="36.03969899006188" lon="129.3702029529959">
        <ele>12.2</ele>
        <time>2026-06-05T14:18:20</time>
      </trkpt>
      <trkpt lat="36.039671916514635" lon="129.370160959661">
        <ele>12.2</ele>
        <time>2026-06-05T14:18:21</time>
      </trkpt>
      <trkpt lat="36.03964199312031" lon="129.3701199721545">
        <ele>12.2</ele>
        <time>2026-06-05T14:18:22</time>
      </trkpt>
      <trkpt lat="36.039607962593436" lon="129.3700819183141">
        <ele>12.2</ele>
        <time>2026-06-05T14:18:23</time>
      </trkpt>
      <trkpt lat="36.03956999257207" lon="129.37004998326302">
        <ele>12.4</ele>
        <time>2026-06-05T14:18:24</time>
      </trkpt>
      <trkpt lat="36.03952892124653" lon="129.37002492137253">
        <ele>12.4</ele>
        <time>2026-06-05T14:18:25</time>
      </trkpt>
      <trkpt lat="36.03948692791164" lon="129.37000698409975">
        <ele>12.4</ele>
        <time>2026-06-05T14:18:26</time>
      </trkpt>
      <trkpt lat="36.03944392874837" lon="129.36999591998756">
        <ele>12.4</ele>
        <time>2026-06-05T14:18:27</time>
      </trkpt>
      <trkpt lat="36.03939891792834" lon="129.3699909746647">
        <ele>12.4</ele>
        <time>2026-06-05T14:18:28</time>
      </trkpt>
      <trkpt lat="36.0393509734422" lon="129.36998896300793">
        <ele>12.4</ele>
        <time>2026-06-05T14:18:29</time>
      </trkpt>
      <trkpt lat="36.039302945137024" lon="129.36999298632145">
        <ele>12.4</ele>
        <time>2026-06-05T14:18:30</time>
      </trkpt>
      <trkpt lat="36.03925298899412" lon="129.3699989374727">
        <ele>12.4</ele>
        <time>2026-06-05T14:18:31</time>
      </trkpt>
      <trkpt lat="36.03920294903219" lon="129.37000296078622">
        <ele>12.2</ele>
        <time>2026-06-05T14:18:32</time>
      </trkpt>
      <trkpt lat="36.039152992889285" lon="129.36999994330108">
        <ele>12.4</ele>
        <time>2026-06-05T14:18:33</time>
      </trkpt>
      <trkpt lat="36.03910496458411" lon="129.36998695135117">
        <ele>12.4</ele>
        <time>2026-06-05T14:18:34</time>
      </trkpt>
      <trkpt lat="36.03905693627894" lon="129.36996792443097">
        <ele>12.4</ele>
        <time>2026-06-05T14:18:35</time>
      </trkpt>
      <trkpt lat="36.0390089917928" lon="129.36994696967304">
        <ele>12.4</ele>
        <time>2026-06-05T14:18:36</time>
      </trkpt>
      <trkpt lat="36.038961969316006" lon="129.36992894858122">
        <ele>12.4</ele>
        <time>2026-06-05T14:18:37</time>
      </trkpt>
      <trkpt lat="36.03891394101083" lon="129.36991495080292">
        <ele>12.4</ele>
        <time>2026-06-05T14:18:38</time>
      </trkpt>
      <trkpt lat="36.03886599652469" lon="129.36990397050977">
        <ele>12.6</ele>
        <time>2026-06-05T14:18:39</time>
      </trkpt>
      <trkpt lat="36.0388189740479" lon="129.36989994719625">
        <ele>12.4</ele>
        <time>2026-06-05T14:18:40</time>
      </trkpt>
      <trkpt lat="36.038770945742726" lon="129.36989994719625">
        <ele>12.6</ele>
        <time>2026-06-05T14:18:41</time>
      </trkpt>
      <trkpt lat="36.03872291743755" lon="129.36989793553948">
        <ele>12.6</ele>
        <time>2026-06-05T14:18:42</time>
      </trkpt>
      <trkpt lat="36.03867597877979" lon="129.36988997273147">
        <ele>12.6</ele>
        <time>2026-06-05T14:18:43</time>
      </trkpt>
      <trkpt lat="36.038628956303" lon="129.36988192610443">
        <ele>12.6</ele>
        <time>2026-06-05T14:18:44</time>
      </trkpt>
      <trkpt lat="36.03858293965459" lon="129.3698749691248">
        <ele>12.6</ele>
        <time>2026-06-05T14:18:45</time>
      </trkpt>
      <trkpt lat="36.03853692300618" lon="129.36987195163965">
        <ele>12.6</ele>
        <time>2026-06-05T14:18:46</time>
      </trkpt>
      <trkpt lat="36.03849199600518" lon="129.3698739632964">
        <ele>12.6</ele>
        <time>2026-06-05T14:18:47</time>
      </trkpt>
      <trkpt lat="36.03844799101353" lon="129.36987597495317">
        <ele>12.4</ele>
        <time>2026-06-05T14:18:48</time>
      </trkpt>
      <trkpt lat="36.038403986021876" lon="129.3698749691248">
        <ele>12.4</ele>
        <time>2026-06-05T14:18:49</time>
      </trkpt>
      <trkpt lat="36.03836199268699" lon="129.36986591666937">
        <ele>12.2</ele>
        <time>2026-06-05T14:18:50</time>
      </trkpt>
      <trkpt lat="36.03832595050335" lon="129.3698469735682">
        <ele>12.2</ele>
        <time>2026-06-05T14:18:51</time>
      </trkpt>
      <trkpt lat="36.03829896077514" lon="129.36982199549675">
        <ele>12.2</ele>
        <time>2026-06-05T14:18:52</time>
      </trkpt>
      <trkpt lat="36.03828295134008" lon="129.36979793943465">
        <ele>12.2</ele>
        <time>2026-06-05T14:18:53</time>
      </trkpt>
      <trkpt lat="36.03827599436045" lon="129.3697819299996">
        <ele>12.2</ele>
        <time>2026-06-05T14:18:54</time>
      </trkpt>
      <trkpt lat="36.03827599436045" lon="129.36977497301996">
        <ele>12.4</ele>
        <time>2026-06-05T14:18:55</time>
      </trkpt>
      <trkpt lat="36.03827993385494" lon="129.36977094970644">
        <ele>12.4</ele>
        <time>2026-06-05T14:18:56</time>
      </trkpt>
      <trkpt lat="36.03828395716846" lon="129.36976994387805">
        <ele>12.4</ele>
        <time>2026-06-05T14:18:57</time>
      </trkpt>
      <trkpt lat="36.03828798048198" lon="129.36970096081495">
        <ele>11.4</ele>
        <time>2026-06-05T14:19:40</time>
      </trkpt>
      <trkpt lat="36.038290997967124" lon="129.36967698857188">
        <ele>11.6</ele>
        <time>2026-06-05T14:19:41</time>
      </trkpt>
      <trkpt lat="36.03829896077514" lon="129.3696519266814">
        <ele>11.6</ele>
        <time>2026-06-05T14:19:42</time>
      </trkpt>
      <trkpt lat="36.03831295855343" lon="129.36963097192347">
        <ele>11.6</ele>
        <time>2026-06-05T14:19:43</time>
      </trkpt>
      <trkpt lat="36.03833592496812" lon="129.36961697414517">
        <ele>11.6</ele>
        <time>2026-06-05T14:19:44</time>
      </trkpt>
      <trkpt lat="36.03836299851537" lon="129.36960297636688">
        <ele>11.8</ele>
        <time>2026-06-05T14:19:45</time>
      </trkpt>
      <trkpt lat="36.03839199990034" lon="129.36958193778992">
        <ele>12.0</ele>
        <time>2026-06-05T14:19:46</time>
      </trkpt>
      <trkpt lat="36.03841396048665" lon="129.36954899691045">
        <ele>12.0</ele>
        <time>2026-06-05T14:19:47</time>
      </trkpt>
      <trkpt lat="36.038424940779805" lon="129.36950993724167">
        <ele>12.2</ele>
        <time>2026-06-05T14:19:48</time>
      </trkpt>
      <trkpt lat="36.03842795826495" lon="129.3694669380784">
        <ele>12.4</ele>
        <time>2026-06-05T14:19:49</time>
      </trkpt>
      <trkpt lat="36.038426952436566" lon="129.36941798776388">
        <ele>12.4</ele>
        <time>2026-06-05T14:19:50</time>
      </trkpt>
      <trkpt lat="36.03842091746628" lon="129.3693649303168">
        <ele>12.6</ele>
        <time>2026-06-05T14:19:51</time>
      </trkpt>
      <trkpt lat="36.03841295465827" lon="129.369309945032">
        <ele>12.6</ele>
        <time>2026-06-05T14:19:52</time>
      </trkpt>
      <trkpt lat="36.038401974365115" lon="129.3692549597472">
        <ele>12.8</ele>
        <time>2026-06-05T14:19:53</time>
      </trkpt>
      <trkpt lat="36.03839199990034" lon="129.36920098029077">
        <ele>12.8</ele>
        <time>2026-06-05T14:19:54</time>
      </trkpt>
      <trkpt lat="36.038383953273296" lon="129.3691479228437">
        <ele>12.8</ele>
        <time>2026-06-05T14:19:55</time>
      </trkpt>
      <trkpt lat="36.03837791830301" lon="129.36909595504403">
        <ele>13.0</ele>
        <time>2026-06-05T14:19:56</time>
      </trkpt>
      <trkpt lat="36.0383749846369" lon="129.36904398724437">
        <ele>13.0</ele>
        <time>2026-06-05T14:19:57</time>
      </trkpt>
      <trkpt lat="36.03837196715176" lon="129.36899193562567">
        <ele>13.0</ele>
        <time>2026-06-05T14:19:58</time>
      </trkpt>
      <trkpt lat="36.03836693800986" lon="129.36893896199763">
        <ele>13.2</ele>
        <time>2026-06-05T14:19:59</time>
      </trkpt>
      <trkpt lat="36.038360986858606" lon="129.36888699419796">
        <ele>13.2</ele>
        <time>2026-06-05T14:20:00</time>
      </trkpt>
      <trkpt lat="36.03835495188832" lon="129.3688339367509">
        <ele>13.4</ele>
        <time>2026-06-05T14:20:01</time>
      </trkpt>
      <trkpt lat="36.03834891691804" lon="129.36878096312284">
        <ele>13.4</ele>
        <time>2026-06-05T14:20:02</time>
      </trkpt>
      <trkpt lat="36.03834598325193" lon="129.36872899532318">
        <ele>13.4</ele>
        <time>2026-06-05T14:20:03</time>
      </trkpt>
      <trkpt lat="36.03834598325193" lon="129.3686769437045">
        <ele>13.4</ele>
        <time>2026-06-05T14:20:04</time>
      </trkpt>
      <trkpt lat="36.03834397159517" lon="129.36862397007644">
        <ele>13.4</ele>
        <time>2026-06-05T14:20:05</time>
      </trkpt>
      <trkpt lat="36.038340954110026" lon="129.36856797896326">
        <ele>13.4</ele>
        <time>2026-06-05T14:20:06</time>
      </trkpt>
      <trkpt lat="36.03833592496812" lon="129.3685099761933">
        <ele>13.4</ele>
        <time>2026-06-05T14:20:07</time>
      </trkpt>
      <trkpt lat="36.03833299130201" lon="129.36845096759498">
        <ele>13.2</ele>
        <time>2026-06-05T14:20:08</time>
      </trkpt>
      <trkpt lat="36.03833097964525" lon="129.36839095316827">
        <ele>13.2</ele>
        <time>2026-06-05T14:20:09</time>
      </trkpt>
      <trkpt lat="36.03832695633173" lon="129.36832993291318">
        <ele>13.2</ele>
        <time>2026-06-05T14:20:10</time>
      </trkpt>
      <trkpt lat="36.03832293301821" lon="129.36827193014324">
        <ele>13.2</ele>
        <time>2026-06-05T14:20:11</time>
      </trkpt>
      <trkpt lat="36.038317987695336" lon="129.36821493320167">
        <ele>13.2</ele>
        <time>2026-06-05T14:20:12</time>
      </trkpt>
      <trkpt lat="36.03831094689667" lon="129.36815994791687">
        <ele>13.2</ele>
        <time>2026-06-05T14:20:13</time>
      </trkpt>
      <trkpt lat="36.03830298408866" lon="129.36810496263206">
        <ele>13.2</ele>
        <time>2026-06-05T14:20:14</time>
      </trkpt>
      <trkpt lat="36.038295943289995" lon="129.36805098317564">
        <ele>13.2</ele>
        <time>2026-06-05T14:20:15</time>
      </trkpt>
      <trkpt lat="36.03828999213874" lon="129.36799398623407">
        <ele>13.2</ele>
        <time>2026-06-05T14:20:16</time>
      </trkpt>
      <trkpt lat="36.03828596882522" lon="129.36793891713023">
        <ele>13.2</ele>
        <time>2026-06-05T14:20:17</time>
      </trkpt>
      <trkpt lat="36.03828395716846" lon="129.36788292601705">
        <ele>13.2</ele>
        <time>2026-06-05T14:20:18</time>
      </trkpt>
      <trkpt lat="36.03828295134008" lon="129.36782299540937">
        <ele>13.2</ele>
        <time>2026-06-05T14:20:19</time>
      </trkpt>
      <trkpt lat="36.03827993385494" lon="129.36775996349752">
        <ele>13.2</ele>
        <time>2026-06-05T14:20:20</time>
      </trkpt>
      <trkpt lat="36.038276916369796" lon="129.36769399791956">
        <ele>13.2</ele>
        <time>2026-06-05T14:20:21</time>
      </trkpt>
      <trkpt lat="36.038272976875305" lon="129.36762794852257">
        <ele>13.2</ele>
        <time>2026-06-05T14:20:22</time>
      </trkpt>
      <trkpt lat="36.03826995939016" lon="129.3675659224391">
        <ele>13.2</ele>
        <time>2026-06-05T14:20:23</time>
      </trkpt>
      <trkpt lat="36.0382629185915" lon="129.36750398017466">
        <ele>13.2</ele>
        <time>2026-06-05T14:20:24</time>
      </trkpt>
      <trkpt lat="36.03825596161187" lon="129.3674419540912">
        <ele>13.2</ele>
        <time>2026-06-05T14:20:25</time>
      </trkpt>
      <trkpt lat="36.038251938298345" lon="129.367385962978">
        <ele>13.2</ele>
        <time>2026-06-05T14:20:26</time>
      </trkpt>
      <trkpt lat="36.03824992664158" lon="129.36733298934996">
        <ele>13.0</ele>
        <time>2026-06-05T14:20:27</time>
      </trkpt>
      <trkpt lat="36.03824699297547" lon="129.36727792024612">
        <ele>13.0</ele>
        <time>2026-06-05T14:20:28</time>
      </trkpt>
      <trkpt lat="36.03824397549033" lon="129.36722192913294">
        <ele>13.0</ele>
        <time>2026-06-05T14:20:29</time>
      </trkpt>
      <trkpt lat="36.03824397549033" lon="129.36716694384813">
        <ele>13.0</ele>
        <time>2026-06-05T14:20:30</time>
      </trkpt>
      <trkpt lat="36.03824498131871" lon="129.36711195856333">
        <ele>13.0</ele>
        <time>2026-06-05T14:20:31</time>
      </trkpt>
      <trkpt lat="36.03824095800519" lon="129.36705898493528">
        <ele>13.0</ele>
        <time>2026-06-05T14:20:32</time>
      </trkpt>
      <trkpt lat="36.038233917206526" lon="129.3670069333166">
        <ele>13.0</ele>
        <time>2026-06-05T14:20:33</time>
      </trkpt>
      <trkpt lat="36.038227966055274" lon="129.3669559713453">
        <ele>13.2</ele>
        <time>2026-06-05T14:20:34</time>
      </trkpt>
      <trkpt lat="36.03821991942823" lon="129.3669089488685">
        <ele>13.2</ele>
        <time>2026-06-05T14:20:35</time>
      </trkpt>
      <trkpt lat="36.0382129624486" lon="129.36686695553362">
        <ele>13.2</ele>
        <time>2026-06-05T14:20:36</time>
      </trkpt>
      <trkpt lat="36.038210950791836" lon="129.36682496219873">
        <ele>13.2</ele>
        <time>2026-06-05T14:20:37</time>
      </trkpt>
      <trkpt lat="36.0382129624486" lon="129.36678296886384">
        <ele>13.2</ele>
        <time>2026-06-05T14:20:38</time>
      </trkpt>
      <trkpt lat="36.0382179915905" lon="129.36673695221543">
        <ele>13.2</ele>
        <time>2026-06-05T14:20:39</time>
      </trkpt>
      <trkpt lat="36.03822293691337" lon="129.3666919413954">
        <ele>13.0</ele>
        <time>2026-06-05T14:20:40</time>
      </trkpt>
      <trkpt lat="36.03822595439851" lon="129.366645924747">
        <ele>13.0</ele>
        <time>2026-06-05T14:20:41</time>
      </trkpt>
      <trkpt lat="36.038229977712035" lon="129.3665949627757">
        <ele>13.0</ele>
        <time>2026-06-05T14:20:42</time>
      </trkpt>
      <trkpt lat="36.03823794052005" lon="129.36654098331928">
        <ele>12.8</ele>
        <time>2026-06-05T14:20:43</time>
      </trkpt>
      <trkpt lat="36.03824992664158" lon="129.36648599803448">
        <ele>12.8</ele>
        <time>2026-06-05T14:20:44</time>
      </trkpt>
      <trkpt lat="36.03826593607664" lon="129.36642799526453">
        <ele>12.8</ele>
        <time>2026-06-05T14:20:45</time>
      </trkpt>
      <trkpt lat="36.03828295134008" lon="129.36636798083782">
        <ele>12.8</ele>
        <time>2026-06-05T14:20:46</time>
      </trkpt>
      <trkpt lat="36.03829996660352" lon="129.36630595475435">
        <ele>12.8</ele>
        <time>2026-06-05T14:20:47</time>
      </trkpt>
      <trkpt lat="36.038313964381814" lon="129.36624191701412">
        <ele>12.8</ele>
        <time>2026-06-05T14:20:48</time>
      </trkpt>
      <trkpt lat="36.03832595050335" lon="129.36617494560778">
        <ele>12.8</ele>
        <time>2026-06-05T14:20:49</time>
      </trkpt>
      <trkpt lat="36.038336930796504" lon="129.36610898002982">
        <ele>12.8</ele>
        <time>2026-06-05T14:20:50</time>
      </trkpt>
      <trkpt lat="36.03834799490869" lon="129.36604293063283">
        <ele>12.6</ele>
        <time>2026-06-05T14:20:51</time>
      </trkpt>
      <trkpt lat="36.038363920524716" lon="129.36597897671163">
        <ele>12.6</ele>
        <time>2026-06-05T14:20:52</time>
      </trkpt>
      <trkpt lat="36.038381941616535" lon="129.36592097394168">
        <ele>12.6</ele>
        <time>2026-06-05T14:20:53</time>
      </trkpt>
      <trkpt lat="36.03839895687997" lon="129.365868922323">
        <ele>12.8</ele>
        <time>2026-06-05T14:20:54</time>
      </trkpt>
      <trkpt lat="36.03841194882989" lon="129.3658229894936">
        <ele>12.8</ele>
        <time>2026-06-05T14:20:55</time>
      </trkpt>
      <trkpt lat="36.03841697797179" lon="129.36577596701682">
        <ele>13.0</ele>
        <time>2026-06-05T14:20:56</time>
      </trkpt>
      <trkpt lat="36.03841496631503" lon="129.3657249212265">
        <ele>13.2</ele>
        <time>2026-06-05T14:20:57</time>
      </trkpt>
      <trkpt lat="36.03841094300151" lon="129.36566893011332">
        <ele>13.4</ele>
        <time>2026-06-05T14:20:58</time>
      </trkpt>
      <trkpt lat="36.03840893134475" lon="129.36560698784888">
        <ele>13.4</ele>
        <time>2026-06-05T14:20:59</time>
      </trkpt>
      <trkpt lat="36.03841194882989" lon="129.36554194428027">
        <ele>13.6</ele>
        <time>2026-06-05T14:21:00</time>
      </trkpt>
      <trkpt lat="36.03841898962855" lon="129.36547296121716">
        <ele>13.8</ele>
        <time>2026-06-05T14:21:01</time>
      </trkpt>
      <trkpt lat="36.03842795826495" lon="129.36540297232568">
        <ele>13.8</ele>
        <time>2026-06-05T14:21:02</time>
      </trkpt>
      <trkpt lat="36.03843793272972" lon="129.3653369229287">
        <ele>14.0</ele>
        <time>2026-06-05T14:21:03</time>
      </trkpt>
      <trkpt lat="36.03844799101353" lon="129.3652719631791">
        <ele>14.0</ele>
        <time>2026-06-05T14:21:04</time>
      </trkpt>
      <trkpt lat="36.03845695964992" lon="129.36521396040916">
        <ele>14.0</ele>
        <time>2026-06-05T14:21:05</time>
      </trkpt>
      <trkpt lat="36.03846391662955" lon="129.3651619926095">
        <ele>13.8</ele>
        <time>2026-06-05T14:21:06</time>
      </trkpt>
      <trkpt lat="36.03847095742822" lon="129.36511396430433">
        <ele>13.8</ele>
        <time>2026-06-05T14:21:07</time>
      </trkpt>
      <trkpt lat="36.03847892023623" lon="129.36506794765592">
        <ele>13.6</ele>
        <time>2026-06-05T14:21:08</time>
      </trkpt>
      <trkpt lat="36.038486966863275" lon="129.3650219310075">
        <ele>13.6</ele>
        <time>2026-06-05T14:21:09</time>
      </trkpt>
      <trkpt lat="36.03849492967129" lon="129.36497499234974">
        <ele>13.4</ele>
        <time>2026-06-05T14:21:10</time>
      </trkpt>
      <trkpt lat="36.03850297629833" lon="129.36492796987295">
        <ele>13.4</ele>
        <time>2026-06-05T14:21:11</time>
      </trkpt>
      <trkpt lat="36.038509933277965" lon="129.36488195322454">
        <ele>13.4</ele>
        <time>2026-06-05T14:21:12</time>
      </trkpt>
      <trkpt lat="36.03851797990501" lon="129.3648379482329">
        <ele>13.4</ele>
        <time>2026-06-05T14:21:13</time>
      </trkpt>
      <trkpt lat="36.03852493688464" lon="129.36479293741286">
        <ele>13.4</ele>
        <time>2026-06-05T14:21:14</time>
      </trkpt>
      <trkpt lat="36.038530971854925" lon="129.36474792659283">
        <ele>13.2</ele>
        <time>2026-06-05T14:21:15</time>
      </trkpt>
      <trkpt lat="36.03853792883456" lon="129.36470199376345">
        <ele>13.2</ele>
        <time>2026-06-05T14:21:16</time>
      </trkpt>
      <trkpt lat="36.03854496963322" lon="129.36465497128665">
        <ele>13.2</ele>
        <time>2026-06-05T14:21:17</time>
      </trkpt>
      <trkpt lat="36.038551926612854" lon="129.36460794880986">
        <ele>13.2</ele>
        <time>2026-06-05T14:21:18</time>
      </trkpt>
      <trkpt lat="36.03855896741152" lon="129.3645599205047">
        <ele>13.2</ele>
        <time>2026-06-05T14:21:19</time>
      </trkpt>
      <trkpt lat="36.03856592439115" lon="129.36451599933207">
        <ele>13.2</ele>
        <time>2026-06-05T14:21:20</time>
      </trkpt>
      <trkpt lat="36.038571959361434" lon="129.3644759338349">
        <ele>13.2</ele>
        <time>2026-06-05T14:21:21</time>
      </trkpt>
      <trkpt lat="36.03857799433172" lon="129.3644349463284">
        <ele>13.2</ele>
        <time>2026-06-05T14:21:22</time>
      </trkpt>
      <trkpt lat="36.03858495131135" lon="129.36439194716513">
        <ele>13.2</ele>
        <time>2026-06-05T14:21:23</time>
      </trkpt>
      <trkpt lat="36.03859098628163" lon="129.36434593051672">
        <ele>13.2</ele>
        <time>2026-06-05T14:21:24</time>
      </trkpt>
      <trkpt lat="36.038598949089646" lon="129.36429496854544">
        <ele>13.2</ele>
        <time>2026-06-05T14:21:25</time>
      </trkpt>
      <trkpt lat="36.03860498405993" lon="129.36423998326063">
        <ele>13.2</ele>
        <time>2026-06-05T14:21:26</time>
      </trkpt>
      <trkpt lat="36.03861194103956" lon="129.36418198049068">
        <ele>13.2</ele>
        <time>2026-06-05T14:21:27</time>
      </trkpt>
      <trkpt lat="36.038618981838226" lon="129.36411894857883">
        <ele>13.2</ele>
        <time>2026-06-05T14:21:28</time>
      </trkpt>
      <trkpt lat="36.03862795047462" lon="129.36405298300087">
        <ele>13.2</ele>
        <time>2026-06-05T14:21:29</time>
      </trkpt>
      <trkpt lat="36.03863691911101" lon="129.36398492194712">
        <ele>13.2</ele>
        <time>2026-06-05T14:21:30</time>
      </trkpt>
      <trkpt lat="36.0386479832232" lon="129.36391795054078">
        <ele>13.2</ele>
        <time>2026-06-05T14:21:31</time>
      </trkpt>
      <trkpt lat="36.038658963516355" lon="129.36385097913444">
        <ele>13.2</ele>
        <time>2026-06-05T14:21:32</time>
      </trkpt>
      <trkpt lat="36.03866893798113" lon="129.36378593556583">
        <ele>13.0</ele>
        <time>2026-06-05T14:21:33</time>
      </trkpt>
      <trkpt lat="36.038678996264935" lon="129.36372198164463">
        <ele>13.0</ele>
        <time>2026-06-05T14:21:34</time>
      </trkpt>
      <trkpt lat="36.03868796490133" lon="129.36366397887468">
        <ele>13.0</ele>
        <time>2026-06-05T14:21:35</time>
      </trkpt>
      <trkpt lat="36.03869592770934" lon="129.3636109214276">
        <ele>13.0</ele>
        <time>2026-06-05T14:21:36</time>
      </trkpt>
      <trkpt lat="36.038703974336386" lon="129.36356197111309">
        <ele>13.0</ele>
        <time>2026-06-05T14:21:37</time>
      </trkpt>
      <trkpt lat="36.03871294297278" lon="129.3635149486363">
        <ele>13.0</ele>
        <time>2026-06-05T14:21:38</time>
      </trkpt>
      <trkpt lat="36.038721995428205" lon="129.36347396112978">
        <ele>13.0</ele>
        <time>2026-06-05T14:21:39</time>
      </trkpt>
      <trkpt lat="36.03872995823622" lon="129.36343791894615">
        <ele>12.8</ele>
        <time>2026-06-05T14:21:40</time>
      </trkpt>
      <trkpt lat="36.0387359932065" lon="129.36340598389506">
        <ele>12.8</ele>
        <time>2026-06-05T14:21:41</time>
      </trkpt>
      <trkpt lat="36.03874194435775" lon="129.3633759766817">
        <ele>12.8</ele>
        <time>2026-06-05T14:21:42</time>
      </trkpt>
      <trkpt lat="36.03874898515642" lon="129.36334697529674">
        <ele>12.8</ele>
        <time>2026-06-05T14:21:43</time>
      </trkpt>
      <trkpt lat="36.03875694796443" lon="129.3633209913969">
        <ele>12.6</ele>
        <time>2026-06-05T14:21:44</time>
      </trkpt>
      <trkpt lat="36.038767928257585" lon="129.3632969353348">
        <ele>12.6</ele>
        <time>2026-06-05T14:21:45</time>
      </trkpt>
      <trkpt lat="36.03877899236977" lon="129.36327598057687">
        <ele>12.6</ele>
        <time>2026-06-05T14:21:46</time>
      </trkpt>
      <trkpt lat="36.03878494352102" lon="129.36326399445534">
        <ele>12.6</ele>
        <time>2026-06-05T14:21:47</time>
      </trkpt>
      <trkpt lat="36.038787961006165" lon="129.36325997114182">
        <ele>12.6</ele>
        <time>2026-06-05T14:21:48</time>
      </trkpt>
      <trkpt lat="36.038787961006165" lon="129.3632609769702">
        <ele>12.4</ele>
        <time>2026-06-05T14:21:49</time>
      </trkpt>
      <trkpt lat="36.038786955177784" lon="129.36326298862696">
        <ele>12.4</ele>
        <time>2026-06-05T14:21:50</time>
      </trkpt>
      <trkpt lat="36.03881595656276" lon="129.36316492035985">
        <ele>11.0</ele>
        <time>2026-06-05T14:23:48</time>
      </trkpt>
      <trkpt lat="36.0388189740479" lon="129.36313692480326">
        <ele>11.0</ele>
        <time>2026-06-05T14:23:49</time>
      </trkpt>
      <trkpt lat="36.03882199153304" lon="129.3631039839238">
        <ele>11.0</ele>
        <time>2026-06-05T14:23:50</time>
      </trkpt>
      <trkpt lat="36.03882299736142" lon="129.36306794174016">
        <ele>11.0</ele>
        <time>2026-06-05T14:23:51</time>
      </trkpt>
      <trkpt lat="36.03882098570466" lon="129.36302594840527">
        <ele>11.0</ele>
        <time>2026-06-05T14:23:52</time>
      </trkpt>
      <trkpt lat="36.03881796821952" lon="129.3629779201001">
        <ele>11.0</ele>
        <time>2026-06-05T14:23:53</time>
      </trkpt>
      <trkpt lat="36.03881595656276" lon="129.3629229348153">
        <ele>11.2</ele>
        <time>2026-06-05T14:23:54</time>
      </trkpt>
      <trkpt lat="36.03881997987628" lon="129.36286099255085">
        <ele>11.4</ele>
        <time>2026-06-05T14:23:55</time>
      </trkpt>
      <trkpt lat="36.03882794268429" lon="129.36279695481062">
        <ele>11.4</ele>
        <time>2026-06-05T14:23:56</time>
      </trkpt>
      <trkpt lat="36.03883791714907" lon="129.36272998340428">
        <ele>11.6</ele>
        <time>2026-06-05T14:23:57</time>
      </trkpt>
      <trkpt lat="36.03884898126125" lon="129.3626599945128">
        <ele>11.6</ele>
        <time>2026-06-05T14:23:58</time>
      </trkpt>
      <trkpt lat="36.03885996155441" lon="129.36258799396455">
        <ele>11.6</ele>
        <time>2026-06-05T14:23:59</time>
      </trkpt>
      <trkpt lat="36.0388689301908" lon="129.36251398175955">
        <ele>11.8</ele>
        <time>2026-06-05T14:24:00</time>
      </trkpt>
      <trkpt lat="36.038876976817846" lon="129.36243896372616">
        <ele>11.8</ele>
        <time>2026-06-05T14:24:01</time>
      </trkpt>
      <trkpt lat="36.03888695128262" lon="129.36236595734954">
        <ele>12.0</ele>
        <time>2026-06-05T14:24:02</time>
      </trkpt>
      <trkpt lat="36.038898937404156" lon="129.3622939568013">
        <ele>12.0</ele>
        <time>2026-06-05T14:24:03</time>
      </trkpt>
      <trkpt lat="36.03890991769731" lon="129.36222296208143">
        <ele>12.0</ele>
        <time>2026-06-05T14:24:04</time>
      </trkpt>
      <trkpt lat="36.0389209818095" lon="129.36215196736157">
        <ele>12.0</ele>
        <time>2026-06-05T14:24:05</time>
      </trkpt>
      <trkpt lat="36.03893196210265" lon="129.3620819784701">
        <ele>12.0</ele>
        <time>2026-06-05T14:24:06</time>
      </trkpt>
      <trkpt lat="36.038942942395806" lon="129.36201098375022">
        <ele>12.0</ele>
        <time>2026-06-05T14:24:07</time>
      </trkpt>
      <trkpt lat="36.03895492851734" lon="129.36193898320198">
        <ele>12.2</ele>
        <time>2026-06-05T14:24:08</time>
      </trkpt>
      <trkpt lat="36.03896699845791" lon="129.36186497099698">
        <ele>12.2</ele>
        <time>2026-06-05T14:24:09</time>
      </trkpt>
      <trkpt lat="36.03897797875106" lon="129.36178794130683">
        <ele>12.2</ele>
        <time>2026-06-05T14:24:10</time>
      </trkpt>
      <trkpt lat="36.03898795321584" lon="129.36171099543571">
        <ele>12.2</ele>
        <time>2026-06-05T14:24:11</time>
      </trkpt>
      <trkpt lat="36.03899792768061" lon="129.36163899488747">
        <ele>12.2</ele>
        <time>2026-06-05T14:24:12</time>
      </trkpt>
      <trkpt lat="36.03900698013604" lon="129.36157395131886">
        <ele>12.4</ele>
        <time>2026-06-05T14:24:13</time>
      </trkpt>
      <trkpt lat="36.03901695460081" lon="129.3615169543773">
        <ele>12.4</ele>
        <time>2026-06-05T14:24:14</time>
      </trkpt>
      <trkpt lat="36.039025923237205" lon="129.361465992406">
        <ele>12.4</ele>
        <time>2026-06-05T14:24:15</time>
      </trkpt>
      <trkpt lat="36.03903598152101" lon="129.36142098158598">
        <ele>12.4</ele>
        <time>2026-06-05T14:24:16</time>
      </trkpt>
      <trkpt lat="36.039045955985785" lon="129.36137999407947">
        <ele>12.4</ele>
        <time>2026-06-05T14:24:17</time>
      </trkpt>
      <trkpt lat="36.03905593045056" lon="129.36134395189583">
        <ele>12.6</ele>
        <time>2026-06-05T14:24:18</time>
      </trkpt>
      <trkpt lat="36.0390639770776" lon="129.3613129388541">
        <ele>12.6</ele>
        <time>2026-06-05T14:24:19</time>
      </trkpt>
      <trkpt lat="36.039071939885616" lon="129.36128796078265">
        <ele>12.6</ele>
        <time>2026-06-05T14:24:20</time>
      </trkpt>
      <trkpt lat="36.03907898068428" lon="129.36126792803407">
        <ele>12.8</ele>
        <time>2026-06-05T14:24:21</time>
      </trkpt>
      <trkpt lat="36.03908292017877" lon="129.36124999076128">
        <ele>12.8</ele>
        <time>2026-06-05T14:24:22</time>
      </trkpt>
      <trkpt lat="36.03908392600715" lon="129.36123599298298">
        <ele>12.8</ele>
        <time>2026-06-05T14:24:23</time>
      </trkpt>
      <trkpt lat="36.03907898068428" lon="129.36122694052756">
        <ele>12.8</ele>
        <time>2026-06-05T14:24:24</time>
      </trkpt>
      <trkpt lat="36.039069928228855" lon="129.3612209893763">
        <ele>12.8</ele>
        <time>2026-06-05T14:24:25</time>
      </trkpt>
      <trkpt lat="36.03905995376408" lon="129.36121797189116">
        <ele>12.6</ele>
        <time>2026-06-05T14:24:26</time>
      </trkpt>
      <trkpt lat="36.03905098512769" lon="129.36121394857764">
        <ele>12.6</ele>
        <time>2026-06-05T14:24:27</time>
      </trkpt>
      <trkpt lat="36.03904092684388" lon="129.3612109310925">
        <ele>12.6</ele>
        <time>2026-06-05T14:24:28</time>
      </trkpt>
      <trkpt lat="36.039027934893966" lon="129.36120992526412">
        <ele>12.6</ele>
        <time>2026-06-05T14:24:29</time>
      </trkpt>
      <trkpt lat="36.03901293128729" lon="129.3612159602344">
        <ele>12.6</ele>
        <time>2026-06-05T14:24:30</time>
      </trkpt>
      <trkpt lat="36.03899599984288" lon="129.36122392304242">
        <ele>12.6</ele>
        <time>2026-06-05T14:24:31</time>
      </trkpt>
      <trkpt lat="36.03897496126592" lon="129.3612299580127">
        <ele>12.6</ele>
        <time>2026-06-05T14:24:32</time>
      </trkpt>
      <trkpt lat="36.03895199485123" lon="129.36122794635594">
        <ele>12.6</ele>
        <time>2026-06-05T14:24:33</time>
      </trkpt>
      <trkpt lat="36.03893095627427" lon="129.36121394857764">
        <ele>12.6</ele>
        <time>2026-06-05T14:24:34</time>
      </trkpt>
      <trkpt lat="36.03891192935407" lon="129.36118997633457">
        <ele>12.6</ele>
        <time>2026-06-05T14:24:35</time>
      </trkpt>
      <trkpt lat="36.03889198042452" lon="129.36115695163608">
        <ele>12.6</ele>
        <time>2026-06-05T14:24:36</time>
      </trkpt>
      <trkpt lat="36.038872953504324" lon="129.3611139524728">
        <ele>12.6</ele>
        <time>2026-06-05T14:24:37</time>
      </trkpt>
      <trkpt lat="36.03884797543287" lon="129.361066929996">
        <ele>12.8</ele>
        <time>2026-06-05T14:24:38</time>
      </trkpt>
      <trkpt lat="36.03881696239114" lon="129.36102099716663">
        <ele>12.8</ele>
        <time>2026-06-05T14:24:39</time>
      </trkpt>
      <trkpt lat="36.0387809202075" lon="129.36098093166947">
        <ele>13.0</ele>
        <time>2026-06-05T14:24:40</time>
      </trkpt>
      <trkpt lat="36.03874194435775" lon="129.36094597913325">
        <ele>13.0</ele>
        <time>2026-06-05T14:24:41</time>
      </trkpt>
      <trkpt lat="36.038701962679625" lon="129.36091697774827">
        <ele>13.2</ele>
        <time>2026-06-05T14:24:42</time>
      </trkpt>
      <trkpt lat="36.038660975173116" lon="129.36089292168617">
        <ele>13.2</ele>
        <time>2026-06-05T14:24:43</time>
      </trkpt>
      <trkpt lat="36.038618981838226" lon="129.36086995527148">
        <ele>13.4</ele>
        <time>2026-06-05T14:24:44</time>
      </trkpt>
      <trkpt lat="36.038575982674956" lon="129.36084799468517">
        <ele>13.4</ele>
        <time>2026-06-05T14:24:45</time>
      </trkpt>
      <trkpt lat="36.03853398934007" lon="129.36082595027983">
        <ele>13.4</ele>
        <time>2026-06-05T14:24:46</time>
      </trkpt>
      <trkpt lat="36.0384909901768" lon="129.36080398969352">
        <ele>13.4</ele>
        <time>2026-06-05T14:24:47</time>
      </trkpt>
      <trkpt lat="36.03844899684191" lon="129.36078295111656">
        <ele>13.4</ele>
        <time>2026-06-05T14:24:48</time>
      </trkpt>
      <trkpt lat="36.038406919687986" lon="129.36076099053025">
        <ele>13.4</ele>
        <time>2026-06-05T14:24:49</time>
      </trkpt>
      <trkpt lat="36.03836299851537" lon="129.36073693446815">
        <ele>13.4</ele>
        <time>2026-06-05T14:24:50</time>
      </trkpt>
      <trkpt lat="36.038317987695336" lon="129.3607119563967">
        <ele>13.4</ele>
        <time>2026-06-05T14:24:51</time>
      </trkpt>
      <trkpt lat="36.038272976875305" lon="129.3606849666685">
        <ele>13.4</ele>
        <time>2026-06-05T14:24:52</time>
      </trkpt>
      <trkpt lat="36.038229977712035" lon="129.36065495945513">
        <ele>13.4</ele>
        <time>2026-06-05T14:24:53</time>
      </trkpt>
      <trkpt lat="36.038187984377146" lon="129.3606239464134">
        <ele>13.4</ele>
        <time>2026-06-05T14:24:54</time>
      </trkpt>
      <trkpt lat="36.038147918879986" lon="129.36059293337166">
        <ele>13.6</ele>
        <time>2026-06-05T14:24:55</time>
      </trkpt>
      <trkpt lat="36.03810793720186" lon="129.3605629261583">
        <ele>13.6</ele>
        <time>2026-06-05T14:24:56</time>
      </trkpt>
      <trkpt lat="36.03806694969535" lon="129.36053392477334">
        <ele>13.8</ele>
        <time>2026-06-05T14:24:57</time>
      </trkpt>
      <trkpt lat="36.03802696801722" lon="129.36050693504512">
        <ele>13.8</ele>
        <time>2026-06-05T14:24:58</time>
      </trkpt>
      <trkpt lat="36.03798698633909" lon="129.3604799453169">
        <ele>13.8</ele>
        <time>2026-06-05T14:24:59</time>
      </trkpt>
      <trkpt lat="36.03794792667031" lon="129.3604529555887">
        <ele>13.8</ele>
        <time>2026-06-05T14:25:00</time>
      </trkpt>
      <trkpt lat="36.037910962477326" lon="129.36042395420372">
        <ele>13.6</ele>
        <time>2026-06-05T14:25:01</time>
      </trkpt>
      <trkpt lat="36.03787299245596" lon="129.36039495281875">
        <ele>13.4</ele>
        <time>2026-06-05T14:25:02</time>
      </trkpt>
      <trkpt lat="36.03783393278718" lon="129.36036595143378">
        <ele>13.2</ele>
        <time>2026-06-05T14:25:03</time>
      </trkpt>
      <trkpt lat="36.03779193945229" lon="129.36033795587718">
        <ele>13.2</ele>
        <time>2026-06-05T14:25:04</time>
      </trkpt>
      <trkpt lat="36.03774692863226" lon="129.3603089544922">
        <ele>13.2</ele>
        <time>2026-06-05T14:25:05</time>
      </trkpt>
      <trkpt lat="36.03769898414612" lon="129.36027995310724">
        <ele>13.2</ele>
        <time>2026-06-05T14:25:06</time>
      </trkpt>
      <trkpt lat="36.0376479383558" lon="129.3602489400655">
        <ele>13.2</ele>
        <time>2026-06-05T14:25:07</time>
      </trkpt>
      <trkpt lat="36.03759496472776" lon="129.36021792702377">
        <ele>13.2</ele>
        <time>2026-06-05T14:25:08</time>
      </trkpt>
      <trkpt lat="36.037541991099715" lon="129.36018599197268">
        <ele>13.2</ele>
        <time>2026-06-05T14:25:09</time>
      </trkpt>
      <trkpt lat="36.03748893365264" lon="129.36015497893095">
        <ele>13.2</ele>
        <time>2026-06-05T14:25:10</time>
      </trkpt>
      <trkpt lat="36.037435960024595" lon="129.36012396588922">
        <ele>13.4</ele>
        <time>2026-06-05T14:25:11</time>
      </trkpt>
      <trkpt lat="36.03738499805331" lon="129.36009295284748">
        <ele>13.4</ele>
        <time>2026-06-05T14:25:12</time>
      </trkpt>
      <trkpt lat="36.03733495809138" lon="129.36005992814898">
        <ele>13.4</ele>
        <time>2026-06-05T14:25:13</time>
      </trkpt>
      <trkpt lat="36.037284918129444" lon="129.36002497561276">
        <ele>13.4</ele>
        <time>2026-06-05T14:25:14</time>
      </trkpt>
      <trkpt lat="36.03723496198654" lon="129.35998893342912">
        <ele>13.4</ele>
        <time>2026-06-05T14:25:15</time>
      </trkpt>
      <trkpt lat="36.03718391619623" lon="129.35995297506452">
        <ele>13.4</ele>
        <time>2026-06-05T14:25:16</time>
      </trkpt>
      <trkpt lat="36.037132954224944" lon="129.35991894453764">
        <ele>13.4</ele>
        <time>2026-06-05T14:25:17</time>
      </trkpt>
      <trkpt lat="36.03708299808204" lon="129.35988692566752">
        <ele>13.4</ele>
        <time>2026-06-05T14:25:18</time>
      </trkpt>
      <trkpt lat="36.03703396394849" lon="129.35985691845417">
        <ele>13.4</ele>
        <time>2026-06-05T14:25:19</time>
      </trkpt>
      <trkpt lat="36.036986941471696" lon="129.35983093455434">
        <ele>13.2</ele>
        <time>2026-06-05T14:25:20</time>
      </trkpt>
      <trkpt lat="36.036941930651665" lon="129.3598059564829">
        <ele>13.2</ele>
        <time>2026-06-05T14:25:21</time>
      </trkpt>
      <trkpt lat="36.036898931488395" lon="129.35978198423982">
        <ele>13.2</ele>
        <time>2026-06-05T14:25:22</time>
      </trkpt>
      <trkpt lat="36.036856938153505" lon="129.35975993983448">
        <ele>13.2</ele>
        <time>2026-06-05T14:25:23</time>
      </trkpt>
      <trkpt lat="36.03681796230376" lon="129.3597359675914">
        <ele>13.2</ele>
        <time>2026-06-05T14:25:24</time>
      </trkpt>
      <trkpt lat="36.03677898645401" lon="129.35971291735768">
        <ele>13.0</ele>
        <time>2026-06-05T14:25:25</time>
      </trkpt>
      <trkpt lat="36.03674193844199" lon="129.35969095677137">
        <ele>13.0</ele>
        <time>2026-06-05T14:25:26</time>
      </trkpt>
      <trkpt lat="36.036704974249005" lon="129.35966899618506">
        <ele>12.8</ele>
        <time>2026-06-05T14:25:27</time>
      </trkpt>
      <trkpt lat="36.03666993789375" lon="129.35964494012296">
        <ele>12.8</ele>
        <time>2026-06-05T14:25:28</time>
      </trkpt>
      <trkpt lat="36.03663791902363" lon="129.35962197370827">
        <ele>12.8</ele>
        <time>2026-06-05T14:25:29</time>
      </trkpt>
      <trkpt lat="36.03660992346704" lon="129.3596009351313">
        <ele>12.8</ele>
        <time>2026-06-05T14:25:30</time>
      </trkpt>
      <trkpt lat="36.03658896870911" lon="129.35958098620176">
        <ele>12.8</ele>
        <time>2026-06-05T14:25:31</time>
      </trkpt>
      <trkpt lat="36.036575976759195" lon="129.3595599476248">
        <ele>12.8</ele>
        <time>2026-06-05T14:25:32</time>
      </trkpt>
      <trkpt lat="36.03657195344567" lon="129.3595329578966">
        <ele>12.8</ele>
        <time>2026-06-05T14:25:33</time>
      </trkpt>
      <trkpt lat="36.03657195344567" lon="129.3594999331981">
        <ele>12.8</ele>
        <time>2026-06-05T14:25:34</time>
      </trkpt>
      <trkpt lat="36.03656591847539" lon="129.35946598649025">
        <ele>13.0</ele>
        <time>2026-06-05T14:25:35</time>
      </trkpt>
      <trkpt lat="36.036553932353854" lon="129.35943899676204">
        <ele>13.0</ele>
        <time>2026-06-05T14:25:36</time>
      </trkpt>
      <trkpt lat="36.03653498925269" lon="129.35942097567022">
        <ele>13.2</ele>
        <time>2026-06-05T14:25:37</time>
      </trkpt>
      <trkpt lat="36.03652099147439" lon="129.3594109173864">
        <ele>13.2</ele>
        <time>2026-06-05T14:25:38</time>
      </trkpt>
      <trkpt lat="36.036511939018965" lon="129.35940898954868">
        <ele>13.4</ele>
        <time>2026-06-05T14:25:39</time>
      </trkpt>
      <trkpt lat="36.036507999524474" lon="129.3594119232148">
        <ele>13.4</ele>
        <time>2026-06-05T14:25:40</time>
      </trkpt>
      <trkpt lat="36.036507999524474" lon="129.35941594652832">
        <ele>13.4</ele>
        <time>2026-06-05T14:25:41</time>
      </trkpt>
      <trkpt lat="36.03646592237055" lon="129.35940898954868">
        <ele>13.4</ele>
        <time>2026-06-05T14:26:21</time>
      </trkpt>
      <trkpt lat="36.03643993847072" lon="129.35939893126488">
        <ele>13.2</ele>
        <time>2026-06-05T14:26:22</time>
      </trkpt>
      <trkpt lat="36.036407919600606" lon="129.35938996262848">
        <ele>13.2</ele>
        <time>2026-06-05T14:26:23</time>
      </trkpt>
      <trkpt lat="36.03637095540762" lon="129.3593799881637">
        <ele>13.2</ele>
        <time>2026-06-05T14:26:24</time>
      </trkpt>
      <trkpt lat="36.03633298538625" lon="129.35936892405152">
        <ele>13.2</ele>
        <time>2026-06-05T14:26:25</time>
      </trkpt>
      <trkpt lat="36.03629291988909" lon="129.3593609612435">
        <ele>13.2</ele>
        <time>2026-06-05T14:26:26</time>
      </trkpt>
      <trkpt lat="36.036252938210964" lon="129.35935492627323">
        <ele>13.2</ele>
        <time>2026-06-05T14:26:27</time>
      </trkpt>
      <trkpt lat="36.036212956532836" lon="129.35935199260712">
        <ele>13.2</ele>
        <time>2026-06-05T14:26:28</time>
      </trkpt>
      <trkpt lat="36.03617398068309" lon="129.3593529984355">
        <ele>13.0</ele>
        <time>2026-06-05T14:26:29</time>
      </trkpt>
      <trkpt lat="36.03613693267107" lon="129.3593559321016">
        <ele>13.0</ele>
        <time>2026-06-05T14:26:30</time>
      </trkpt>
      <trkpt lat="36.03609795682132" lon="129.35935894958675">
        <ele>13.2</ele>
        <time>2026-06-05T14:26:31</time>
      </trkpt>
      <trkpt lat="36.036057975143194" lon="129.35936397872865">
        <ele>13.2</ele>
        <time>2026-06-05T14:26:32</time>
      </trkpt>
      <trkpt lat="36.036015981808305" lon="129.3593669962138">
        <ele>13.2</ele>
        <time>2026-06-05T14:26:33</time>
      </trkpt>
      <trkpt lat="36.035971976816654" lon="129.3593659903854">
        <ele>13.2</ele>
        <time>2026-06-05T14:26:34</time>
      </trkpt>
      <trkpt lat="36.03592696599662" lon="129.35935894958675">
        <ele>13.2</ele>
        <time>2026-06-05T14:26:35</time>
      </trkpt>
      <trkpt lat="36.03588296100497" lon="129.3593469634652">
        <ele>13.4</ele>
        <time>2026-06-05T14:26:36</time>
      </trkpt>
      <trkpt lat="36.03583895601332" lon="129.35933095403016">
        <ele>13.4</ele>
        <time>2026-06-05T14:26:37</time>
      </trkpt>
      <trkpt lat="36.03579595685005" lon="129.35931092128158">
        <ele>13.6</ele>
        <time>2026-06-05T14:26:38</time>
      </trkpt>
      <trkpt lat="36.0357519518584" lon="129.35928594321012">
        <ele>13.6</ele>
        <time>2026-06-05T14:26:39</time>
      </trkpt>
      <trkpt lat="36.03570794686675" lon="129.3592589534819">
        <ele>13.6</ele>
        <time>2026-06-05T14:26:40</time>
      </trkpt>
      <trkpt lat="36.03566193021834" lon="129.3592319637537">
        <ele>13.6</ele>
        <time>2026-06-05T14:26:41</time>
      </trkpt>
      <trkpt lat="36.0356139857322" lon="129.3592039681971">
        <ele>13.6</ele>
        <time>2026-06-05T14:26:42</time>
      </trkpt>
      <trkpt lat="36.035566963255405" lon="129.3591769784689">
        <ele>13.6</ele>
        <time>2026-06-05T14:26:43</time>
      </trkpt>
      <trkpt lat="36.03551893495023" lon="129.35914697125554">
        <ele>13.4</ele>
        <time>2026-06-05T14:26:44</time>
      </trkpt>
      <trkpt lat="36.03546998463571" lon="129.3591169640422">
        <ele>13.4</ele>
        <time>2026-06-05T14:26:45</time>
      </trkpt>
      <trkpt lat="36.03541994467378" lon="129.35908595100045">
        <ele>13.4</ele>
        <time>2026-06-05T14:26:46</time>
      </trkpt>
      <trkpt lat="36.03536797687411" lon="129.3590559437871">
        <ele>13.4</ele>
        <time>2026-06-05T14:26:47</time>
      </trkpt>
      <trkpt lat="36.03531399741769" lon="129.35902694240212">
        <ele>13.4</ele>
        <time>2026-06-05T14:26:48</time>
      </trkpt>
      <trkpt lat="36.03526093997061" lon="129.35899894684553">
        <ele>13.4</ele>
        <time>2026-06-05T14:26:49</time>
      </trkpt>
      <trkpt lat="36.03520796634257" lon="129.35896994546056">
        <ele>13.4</ele>
        <time>2026-06-05T14:26:50</time>
      </trkpt>
      <trkpt lat="36.035153986886144" lon="129.3589399382472">
        <ele>13.4</ele>
        <time>2026-06-05T14:26:51</time>
      </trkpt>
      <trkpt lat="36.03510092943907" lon="129.35891093686223">
        <ele>13.4</ele>
        <time>2026-06-05T14:26:52</time>
      </trkpt>
      <trkpt lat="36.03504694998264" lon="129.35888294130564">
        <ele>13.4</ele>
        <time>2026-06-05T14:26:53</time>
      </trkpt>
      <trkpt lat="36.03499297052622" lon="129.3588569574058">
        <ele>13.6</ele>
        <time>2026-06-05T14:26:54</time>
      </trkpt>
      <trkpt lat="36.034939996898174" lon="129.35883298516273">
        <ele>13.6</ele>
        <time>2026-06-05T14:26:55</time>
      </trkpt>
      <trkpt lat="36.0348869394511" lon="129.35880892910063">
        <ele>13.6</ele>
        <time>2026-06-05T14:26:56</time>
      </trkpt>
      <trkpt lat="36.034834971651435" lon="129.3587879743427">
        <ele>13.8</ele>
        <time>2026-06-05T14:26:57</time>
      </trkpt>
      <trkpt lat="36.03478099219501" lon="129.35877095907927">
        <ele>13.8</ele>
        <time>2026-06-05T14:26:58</time>
      </trkpt>
      <trkpt lat="36.03472592309117" lon="129.35875897295773">
        <ele>13.8</ele>
        <time>2026-06-05T14:26:59</time>
      </trkpt>
      <trkpt lat="36.03466892614961" lon="129.35874799266458">
        <ele>13.8</ele>
        <time>2026-06-05T14:27:00</time>
      </trkpt>
      <trkpt lat="36.03461192920804" lon="129.35873894020915">
        <ele>13.8</ele>
        <time>2026-06-05T14:27:01</time>
      </trkpt>
      <trkpt lat="36.03455392643809" lon="129.35872997157276">
        <ele>13.8</ele>
        <time>2026-06-05T14:27:02</time>
      </trkpt>
      <trkpt lat="36.034495923668146" lon="129.35871999710798">
        <ele>13.6</ele>
        <time>2026-06-05T14:27:03</time>
      </trkpt>
      <trkpt lat="36.03443892672658" lon="129.3587089329958">
        <ele>13.6</ele>
        <time>2026-06-05T14:27:04</time>
      </trkpt>
      <trkpt lat="36.034382935613394" lon="129.35869594104588">
        <ele>13.6</ele>
        <time>2026-06-05T14:27:05</time>
      </trkpt>
      <trkpt lat="36.03432694450021" lon="129.35867892578244">
        <ele>13.6</ele>
        <time>2026-06-05T14:27:06</time>
      </trkpt>
      <trkpt lat="36.0342719592154" lon="129.35866199433804">
        <ele>13.6</ele>
        <time>2026-06-05T14:27:07</time>
      </trkpt>
      <trkpt lat="36.03421596810222" lon="129.35864397324622">
        <ele>13.6</ele>
        <time>2026-06-05T14:27:08</time>
      </trkpt>
      <trkpt lat="36.03415997698903" lon="129.35862494632602">
        <ele>13.6</ele>
        <time>2026-06-05T14:27:09</time>
      </trkpt>
      <trkpt lat="36.034103985875845" lon="129.35860591940582">
        <ele>13.6</ele>
        <time>2026-06-05T14:27:10</time>
      </trkpt>
      <trkpt lat="36.03404799476266" lon="129.3585849646479">
        <ele>13.6</ele>
        <time>2026-06-05T14:27:11</time>
      </trkpt>
      <trkpt lat="36.03398999199271" lon="129.35856292024255">
        <ele>13.6</ele>
        <time>2026-06-05T14:27:12</time>
      </trkpt>
      <trkpt lat="36.033932995051146" lon="129.35853894799948">
        <ele>13.6</ele>
        <time>2026-06-05T14:27:13</time>
      </trkpt>
      <trkpt lat="36.03387692011893" lon="129.35851396992803">
        <ele>13.6</ele>
        <time>2026-06-05T14:27:14</time>
      </trkpt>
      <trkpt lat="36.03382092900574" lon="129.3584879860282">
        <ele>13.6</ele>
        <time>2026-06-05T14:27:15</time>
      </trkpt>
      <trkpt lat="36.03376594372094" lon="129.35846191830933">
        <ele>13.6</ele>
        <time>2026-06-05T14:27:16</time>
      </trkpt>
      <trkpt lat="36.03370995260775" lon="129.35843794606626">
        <ele>13.6</ele>
        <time>2026-06-05T14:27:17</time>
      </trkpt>
      <trkpt lat="36.033654967322946" lon="129.3584179971367">
        <ele>13.6</ele>
        <time>2026-06-05T14:27:18</time>
      </trkpt>
      <trkpt lat="36.03359998203814" lon="129.35840098187327">
        <ele>13.6</ele>
        <time>2026-06-05T14:27:19</time>
      </trkpt>
      <trkpt lat="36.033543990924954" lon="129.35838497243822">
        <ele>13.6</ele>
        <time>2026-06-05T14:27:20</time>
      </trkpt>
      <trkpt lat="36.03348892182112" lon="129.35836896300316">
        <ele>13.6</ele>
        <time>2026-06-05T14:27:21</time>
      </trkpt>
      <trkpt lat="36.03343293070793" lon="129.35835194773972">
        <ele>13.6</ele>
        <time>2026-06-05T14:27:22</time>
      </trkpt>
      <trkpt lat="36.03337895125151" lon="129.35833493247628">
        <ele>13.6</ele>
        <time>2026-06-05T14:27:23</time>
      </trkpt>
      <trkpt lat="36.03332597762346" lon="129.3583169952035">
        <ele>13.6</ele>
        <time>2026-06-05T14:27:24</time>
      </trkpt>
      <trkpt lat="36.03327392600477" lon="129.35829595662653">
        <ele>13.6</ele>
        <time>2026-06-05T14:27:25</time>
      </trkpt>
      <trkpt lat="36.033221958205104" lon="129.35827299021184">
        <ele>13.6</ele>
        <time>2026-06-05T14:27:26</time>
      </trkpt>
      <trkpt lat="36.03317191824317" lon="129.35824692249298">
        <ele>13.6</ele>
        <time>2026-06-05T14:27:27</time>
      </trkpt>
      <trkpt lat="36.03312196210027" lon="129.35822093859315">
        <ele>13.8</ele>
        <time>2026-06-05T14:27:28</time>
      </trkpt>
      <trkpt lat="36.033072927966714" lon="129.35819495469332">
        <ele>13.8</ele>
        <time>2026-06-05T14:27:29</time>
      </trkpt>
      <trkpt lat="36.03302498348057" lon="129.3581679649651">
        <ele>13.8</ele>
        <time>2026-06-05T14:27:30</time>
      </trkpt>
      <trkpt lat="36.03297796100378" lon="129.35814198106527">
        <ele>13.8</ele>
        <time>2026-06-05T14:27:31</time>
      </trkpt>
      <trkpt lat="36.03293093852699" lon="129.35811599716544">
        <ele>13.8</ele>
        <time>2026-06-05T14:27:32</time>
      </trkpt>
      <trkpt lat="36.032884921878576" lon="129.35809093527496">
        <ele>13.8</ele>
        <time>2026-06-05T14:27:33</time>
      </trkpt>
      <trkpt lat="36.032838989049196" lon="129.3580669630319">
        <ele>13.8</ele>
        <time>2026-06-05T14:27:34</time>
      </trkpt>
      <trkpt lat="36.032793978229165" lon="129.35804299078882">
        <ele>13.8</ele>
        <time>2026-06-05T14:27:35</time>
      </trkpt>
      <trkpt lat="36.032748967409134" lon="129.35801792889833">
        <ele>13.6</ele>
        <time>2026-06-05T14:27:36</time>
      </trkpt>
      <trkpt lat="36.03270496241748" lon="129.35799395665526">
        <ele>13.6</ele>
        <time>2026-06-05T14:27:37</time>
      </trkpt>
      <trkpt lat="36.03266095742583" lon="129.3579699844122">
        <ele>13.6</ele>
        <time>2026-06-05T14:27:38</time>
      </trkpt>
      <trkpt lat="36.03261896409094" lon="129.35794794000685">
        <ele>13.6</ele>
        <time>2026-06-05T14:27:39</time>
      </trkpt>
      <trkpt lat="36.032578982412815" lon="129.35792597942054">
        <ele>13.6</ele>
        <time>2026-06-05T14:27:40</time>
      </trkpt>
      <trkpt lat="36.032540928572416" lon="129.35790594667196">
        <ele>13.6</ele>
        <time>2026-06-05T14:27:41</time>
      </trkpt>
      <trkpt lat="36.03250396437943" lon="129.35788599774241">
        <ele>13.4</ele>
        <time>2026-06-05T14:27:42</time>
      </trkpt>
      <trkpt lat="36.03246993385255" lon="129.3578679766506">
        <ele>13.4</ele>
        <time>2026-06-05T14:27:43</time>
      </trkpt>
      <trkpt lat="36.03243699297309" lon="129.35784794390202">
        <ele>13.6</ele>
        <time>2026-06-05T14:27:44</time>
      </trkpt>
      <trkpt lat="36.032404974102974" lon="129.35782799497247">
        <ele>13.6</ele>
        <time>2026-06-05T14:27:45</time>
      </trkpt>
      <trkpt lat="36.03237396106124" lon="129.3578079622239">
        <ele>13.6</ele>
        <time>2026-06-05T14:27:46</time>
      </trkpt>
      <trkpt lat="36.032343953847885" lon="129.35778994113207">
        <ele>13.6</ele>
        <time>2026-06-05T14:27:47</time>
      </trkpt>
      <trkpt lat="36.03231595829129" lon="129.35777292586863">
        <ele>13.6</ele>
        <time>2026-06-05T14:27:48</time>
      </trkpt>
      <trkpt lat="36.03229098021984" lon="129.35775691643357">
        <ele>13.6</ele>
        <time>2026-06-05T14:27:49</time>
      </trkpt>
      <trkpt lat="36.03227094747126" lon="129.35774493031204">
        <ele>13.6</ele>
        <time>2026-06-05T14:27:50</time>
      </trkpt>
      <trkpt lat="36.032256949692965" lon="129.3577379733324">
        <ele>13.6</ele>
        <time>2026-06-05T14:27:51</time>
      </trkpt>
      <trkpt lat="36.03225099854171" lon="129.35773495584726">
        <ele>13.6</ele>
        <time>2026-06-05T14:27:52</time>
      </trkpt>
      <trkpt lat="36.03224898688495" lon="129.35773395001888">
        <ele>13.6</ele>
        <time>2026-06-05T14:27:53</time>
      </trkpt>
      <trkpt lat="36.03224898688495" lon="129.35773495584726">
        <ele>13.6</ele>
        <time>2026-06-05T14:27:54</time>
      </trkpt>
      <trkpt lat="36.03217497467995" lon="129.35772196389735">
        <ele>13.4</ele>
        <time>2026-06-05T14:29:12</time>
      </trkpt>
      <trkpt lat="36.032153936102986" lon="129.35771693475544">
        <ele>13.4</ele>
        <time>2026-06-05T14:29:13</time>
      </trkpt>
      <trkpt lat="36.032127952203155" lon="129.35770897194743">
        <ele>13.2</ele>
        <time>2026-06-05T14:29:14</time>
      </trkpt>
      <trkpt lat="36.0320979449898" lon="129.35769799165428">
        <ele>13.2</ele>
        <time>2026-06-05T14:29:15</time>
      </trkpt>
      <trkpt lat="36.032061986625195" lon="129.35768893919885">
        <ele>13.2</ele>
        <time>2026-06-05T14:29:16</time>
      </trkpt>
      <trkpt lat="36.032019993290305" lon="129.35767695307732">
        <ele>13.2</ele>
        <time>2026-06-05T14:29:17</time>
      </trkpt>
      <trkpt lat="36.03197297081351" lon="129.3576589319855">
        <ele>13.0</ele>
        <time>2026-06-05T14:29:18</time>
      </trkpt>
      <trkpt lat="36.03192393667996" lon="129.3576359655708">
        <ele>12.8</ele>
        <time>2026-06-05T14:29:19</time>
      </trkpt>
      <trkpt lat="36.031870963051915" lon="129.35760696418583">
        <ele>12.8</ele>
        <time>2026-06-05T14:29:20</time>
      </trkpt>
      <trkpt lat="36.03181396611035" lon="129.35757494531572">
        <ele>12.8</ele>
        <time>2026-06-05T14:29:21</time>
      </trkpt>
      <trkpt lat="36.03175294585526" lon="129.35754192061722">
        <ele>12.8</ele>
        <time>2026-06-05T14:29:22</time>
      </trkpt>
      <trkpt lat="36.03168999776244" lon="129.357506968081">
        <ele>12.8</ele>
        <time>2026-06-05T14:29:23</time>
      </trkpt>
      <trkpt lat="36.03162696585059" lon="129.35747193172574">
        <ele>12.8</ele>
        <time>2026-06-05T14:29:24</time>
      </trkpt>
      <trkpt lat="36.03156493976712" lon="129.35743496753275">
        <ele>12.8</ele>
        <time>2026-06-05T14:29:25</time>
      </trkpt>
      <trkpt lat="36.03150391951203" lon="129.35739892534912">
        <ele>12.8</ele>
        <time>2026-06-05T14:29:26</time>
      </trkpt>
      <trkpt lat="36.03144499473274" lon="129.3573629669845">
        <ele>12.8</ele>
        <time>2026-06-05T14:29:27</time>
      </trkpt>
      <trkpt lat="36.03138699196279" lon="129.35732793062925">
        <ele>12.8</ele>
        <time>2026-06-05T14:29:28</time>
      </trkpt>
      <trkpt lat="36.03133091703057" lon="129.3572949897498">
        <ele>12.8</ele>
        <time>2026-06-05T14:29:29</time>
      </trkpt>
      <trkpt lat="36.03127593174577" lon="129.35726297087967">
        <ele>12.8</ele>
        <time>2026-06-05T14:29:30</time>
      </trkpt>
      <trkpt lat="36.03122094646096" lon="129.35723195783794">
        <ele>12.8</ele>
        <time>2026-06-05T14:29:31</time>
      </trkpt>
      <trkpt lat="36.031164955347776" lon="129.35720295645297">
        <ele>13.0</ele>
        <time>2026-06-05T14:29:32</time>
      </trkpt>
      <trkpt lat="36.03110997006297" lon="129.3571729492396">
        <ele>13.0</ele>
        <time>2026-06-05T14:29:33</time>
      </trkpt>
      <trkpt lat="36.03105699643493" lon="129.35713992454112">
        <ele>13.0</ele>
        <time>2026-06-05T14:29:34</time>
      </trkpt>
      <trkpt lat="36.03100494481623" lon="129.35710296034813">
        <ele>13.2</ele>
        <time>2026-06-05T14:29:35</time>
      </trkpt>
      <trkpt lat="36.03095197118819" lon="129.35706792399287">
        <ele>13.2</ele>
        <time>2026-06-05T14:29:36</time>
      </trkpt>
      <trkpt lat="36.03089991956949" lon="129.35703196562827">
        <ele>13.4</ele>
        <time>2026-06-05T14:29:37</time>
      </trkpt>
      <trkpt lat="36.03084895759821" lon="129.3569979351014">
        <ele>13.4</ele>
        <time>2026-06-05T14:29:38</time>
      </trkpt>
      <trkpt lat="36.03080193512142" lon="129.35696591623127">
        <ele>13.6</ele>
        <time>2026-06-05T14:29:39</time>
      </trkpt>
      <trkpt lat="36.03075793012977" lon="129.3569329753518">
        <ele>13.6</ele>
        <time>2026-06-05T14:29:40</time>
      </trkpt>
      <trkpt lat="36.03071593679488" lon="129.35689995065331">
        <ele>13.6</ele>
        <time>2026-06-05T14:29:41</time>
      </trkpt>
      <trkpt lat="36.03067595511675" lon="129.35686692595482">
        <ele>13.8</ele>
        <time>2026-06-05T14:29:42</time>
      </trkpt>
      <trkpt lat="36.03063496761024" lon="129.35683499090374">
        <ele>13.8</ele>
        <time>2026-06-05T14:29:43</time>
      </trkpt>
      <trkpt lat="36.03059196844697" lon="129.356803977862">
        <ele>13.8</ele>
        <time>2026-06-05T14:29:44</time>
      </trkpt>
      <trkpt lat="36.03054695762694" lon="129.3567709531635">
        <ele>13.8</ele>
        <time>2026-06-05T14:29:45</time>
      </trkpt>
      <trkpt lat="36.03050094097853" lon="129.356737928465">
        <ele>14.0</ele>
        <time>2026-06-05T14:29:46</time>
      </trkpt>
      <trkpt lat="36.030454924330115" lon="129.35670297592878">
        <ele>14.0</ele>
        <time>2026-06-05T14:29:47</time>
      </trkpt>
      <trkpt lat="36.030409997329116" lon="129.35666592791677">
        <ele>14.0</ele>
        <time>2026-06-05T14:29:48</time>
      </trkpt>
      <trkpt lat="36.030363980680704" lon="129.35662695206702">
        <ele>14.0</ele>
        <time>2026-06-05T14:29:49</time>
      </trkpt>
      <trkpt lat="36.03031695820391" lon="129.3565869703889">
        <ele>14.0</ele>
        <time>2026-06-05T14:29:50</time>
      </trkpt>
      <trkpt lat="36.03026892989874" lon="129.35654698871076">
        <ele>14.0</ele>
        <time>2026-06-05T14:29:51</time>
      </trkpt>
      <trkpt lat="36.03022199124098" lon="129.35650792904198">
        <ele>14.0</ele>
        <time>2026-06-05T14:29:52</time>
      </trkpt>
      <trkpt lat="36.030173962935805" lon="129.35646895319223">
        <ele>14.0</ele>
        <time>2026-06-05T14:29:53</time>
      </trkpt>
      <trkpt lat="36.03012694045901" lon="129.3564299773425">
        <ele>14.0</ele>
        <time>2026-06-05T14:29:54</time>
      </trkpt>
      <trkpt lat="36.03008192963898" lon="129.3563919235021">
        <ele>14.0</ele>
        <time>2026-06-05T14:29:55</time>
      </trkpt>
      <trkpt lat="36.03003792464733" lon="129.35635395348072">
        <ele>14.0</ele>
        <time>2026-06-05T14:29:56</time>
      </trkpt>
      <trkpt lat="36.02999492548406" lon="129.35631598345935">
        <ele>14.0</ele>
        <time>2026-06-05T14:29:57</time>
      </trkpt>
      <trkpt lat="36.02995293214917" lon="129.35627893544734">
        <ele>14.0</ele>
        <time>2026-06-05T14:29:58</time>
      </trkpt>
      <trkpt lat="36.02991194464266" lon="129.35624297708273">
        <ele>14.2</ele>
        <time>2026-06-05T14:29:59</time>
      </trkpt>
      <trkpt lat="36.029869951307774" lon="129.35620492324233">
        <ele>14.2</ele>
        <time>2026-06-05T14:30:00</time>
      </trkpt>
      <trkpt lat="36.029828963801265" lon="129.35616795904934">
        <ele>14.2</ele>
        <time>2026-06-05T14:30:01</time>
      </trkpt>
      <trkpt lat="36.029786970466375" lon="129.35612998902798">
        <ele>14.2</ele>
        <time>2026-06-05T14:30:02</time>
      </trkpt>
      <trkpt lat="36.02974698878825" lon="129.35609193518758">
        <ele>14.2</ele>
        <time>2026-06-05T14:30:03</time>
      </trkpt>
      <trkpt lat="36.02970692329109" lon="129.35605295933783">
        <ele>14.4</ele>
        <time>2026-06-05T14:30:04</time>
      </trkpt>
      <trkpt lat="36.02966694161296" lon="129.35601498931646">
        <ele>14.4</ele>
        <time>2026-06-05T14:30:05</time>
      </trkpt>
      <trkpt lat="36.02962595410645" lon="129.35597592964768">
        <ele>14.4</ele>
        <time>2026-06-05T14:30:06</time>
      </trkpt>
      <trkpt lat="36.02958496659994" lon="129.35593594796956">
        <ele>14.4</ele>
        <time>2026-06-05T14:30:07</time>
      </trkpt>
      <trkpt lat="36.02954498492181" lon="129.35589596629143">
        <ele>14.4</ele>
        <time>2026-06-05T14:30:08</time>
      </trkpt>
      <trkpt lat="36.02950491942465" lon="129.3558559846133">
        <ele>14.4</ele>
        <time>2026-06-05T14:30:09</time>
      </trkpt>
      <trkpt lat="36.029465943574905" lon="129.35581692494452">
        <ele>14.4</ele>
        <time>2026-06-05T14:30:10</time>
      </trkpt>
      <trkpt lat="36.02942596189678" lon="129.35577895492315">
        <ele>14.4</ele>
        <time>2026-06-05T14:30:11</time>
      </trkpt>
      <trkpt lat="36.02938799187541" lon="129.3557409849018">
        <ele>14.4</ele>
        <time>2026-06-05T14:30:12</time>
      </trkpt>
      <trkpt lat="36.02935094386339" lon="129.3557029310614">
        <ele>14.4</ele>
        <time>2026-06-05T14:30:13</time>
      </trkpt>
      <trkpt lat="36.029314985498786" lon="129.35566294938326">
        <ele>14.4</ele>
        <time>2026-06-05T14:30:14</time>
      </trkpt>
      <trkpt lat="36.02927994914353" lon="129.35562296770513">
        <ele>14.4</ele>
        <time>2026-06-05T14:30:15</time>
      </trkpt>
      <trkpt lat="36.029244996607304" lon="129.35558399185538">
        <ele>14.4</ele>
        <time>2026-06-05T14:30:16</time>
      </trkpt>
      <trkpt lat="36.02921096608043" lon="129.35554593801498">
        <ele>14.6</ele>
        <time>2026-06-05T14:30:17</time>
      </trkpt>
      <trkpt lat="36.02917894721031" lon="129.35550796799362">
        <ele>14.6</ele>
        <time>2026-06-05T14:30:18</time>
      </trkpt>
      <trkpt lat="36.02914793416858" lon="129.3554709199816">
        <ele>14.6</ele>
        <time>2026-06-05T14:30:19</time>
      </trkpt>
      <trkpt lat="36.02911792695522" lon="129.35543596744537">
        <ele>14.6</ele>
        <time>2026-06-05T14:30:20</time>
      </trkpt>
      <trkpt lat="36.02909194305539" lon="129.35539891943336">
        <ele>14.8</ele>
        <time>2026-06-05T14:30:21</time>
      </trkpt>
      <trkpt lat="36.02906797081232" lon="129.3553599435836">
        <ele>14.8</ele>
        <time>2026-06-05T14:30:22</time>
      </trkpt>
      <trkpt lat="36.0290449205786" lon="129.35532096773386">
        <ele>14.8</ele>
        <time>2026-06-05T14:30:23</time>
      </trkpt>
      <trkpt lat="36.02902295999229" lon="129.3552819918841">
        <ele>14.6</ele>
        <time>2026-06-05T14:30:24</time>
      </trkpt>
      <trkpt lat="36.02900192141533" lon="129.3552439380437">
        <ele>14.6</ele>
        <time>2026-06-05T14:30:25</time>
      </trkpt>
      <trkpt lat="36.02898398414254" lon="129.35520496219397">
        <ele>14.6</ele>
        <time>2026-06-05T14:30:26</time>
      </trkpt>
      <trkpt lat="36.02896495722234" lon="129.35516799800098">
        <ele>14.6</ele>
        <time>2026-06-05T14:30:27</time>
      </trkpt>
      <trkpt lat="36.02894199080765" lon="129.35513094998896">
        <ele>14.6</ele>
        <time>2026-06-05T14:30:28</time>
      </trkpt>
      <trkpt lat="36.02891298942268" lon="129.35509499162436">
        <ele>14.6</ele>
        <time>2026-06-05T14:30:29</time>
      </trkpt>
      <trkpt lat="36.0288789588958" lon="129.35505894944072">
        <ele>14.6</ele>
        <time>2026-06-05T14:30:30</time>
      </trkpt>
      <trkpt lat="36.028841994702816" lon="129.3550229910761">
        <ele>14.4</ele>
        <time>2026-06-05T14:30:31</time>
      </trkpt>
      <trkpt lat="36.02880394086242" lon="129.3549859430641">
        <ele>14.4</ele>
        <time>2026-06-05T14:30:32</time>
      </trkpt>
      <trkpt lat="36.02876395918429" lon="129.35494495555758">
        <ele>14.4</ele>
        <time>2026-06-05T14:30:33</time>
      </trkpt>
      <trkpt lat="36.02872498333454" lon="129.35489893890917">
        <ele>14.4</ele>
        <time>2026-06-05T14:30:34</time>
      </trkpt>
      <trkpt lat="36.02868692949414" lon="129.35484998859465">
        <ele>14.4</ele>
        <time>2026-06-05T14:30:35</time>
      </trkpt>
      <trkpt lat="36.028647953644395" lon="129.3548009544611">
        <ele>14.4</ele>
        <time>2026-06-05T14:30:36</time>
      </trkpt>
      <trkpt lat="36.02860797196627" lon="129.3547539319843">
        <ele>14.4</ele>
        <time>2026-06-05T14:30:37</time>
      </trkpt>
      <trkpt lat="36.02856698445976" lon="129.35471395030618">
        <ele>14.4</ele>
        <time>2026-06-05T14:30:38</time>
      </trkpt>
      <trkpt lat="36.0285269189626" lon="129.35468092560768">
        <ele>14.4</ele>
        <time>2026-06-05T14:30:39</time>
      </trkpt>
      <trkpt lat="36.02848794311285" lon="129.35465494170785">
        <ele>14.4</ele>
        <time>2026-06-05T14:30:40</time>
      </trkpt>
      <trkpt lat="36.028451984748244" lon="129.35463197529316">
        <ele>14.6</ele>
        <time>2026-06-05T14:30:41</time>
      </trkpt>
      <trkpt lat="36.02841694839299" lon="129.35460892505944">
        <ele>14.6</ele>
        <time>2026-06-05T14:30:42</time>
      </trkpt>
      <trkpt lat="36.02838392369449" lon="129.35458193533123">
        <ele>14.6</ele>
        <time>2026-06-05T14:30:43</time>
      </trkpt>
      <trkpt lat="36.02835098281503" lon="129.3545499164611">
        <ele>14.6</ele>
        <time>2026-06-05T14:30:44</time>
      </trkpt>
      <trkpt lat="36.02832097560167" lon="129.35451596975327">
        <ele>14.6</ele>
        <time>2026-06-05T14:30:45</time>
      </trkpt>
      <trkpt lat="36.02829096838832" lon="129.354480933398">
        <ele>14.6</ele>
        <time>2026-06-05T14:30:46</time>
      </trkpt>
      <trkpt lat="36.028261967003345" lon="129.35444598086178">
        <ele>14.6</ele>
        <time>2026-06-05T14:30:47</time>
      </trkpt>
      <trkpt lat="36.02823497727513" lon="129.35440893284976">
        <ele>14.6</ele>
        <time>2026-06-05T14:30:48</time>
      </trkpt>
      <trkpt lat="36.02820999920368" lon="129.3543709628284">
        <ele>14.6</ele>
        <time>2026-06-05T14:30:49</time>
      </trkpt>
      <trkpt lat="36.02818694896996" lon="129.3543299753219">
        <ele>14.6</ele>
        <time>2026-06-05T14:30:50</time>
      </trkpt>
      <trkpt lat="36.02816599421203" lon="129.354287981987">
        <ele>14.6</ele>
        <time>2026-06-05T14:30:51</time>
      </trkpt>
      <trkpt lat="36.02814696729183" lon="129.35424297116697">
        <ele>14.6</ele>
        <time>2026-06-05T14:30:52</time>
      </trkpt>
      <trkpt lat="36.02812391705811" lon="129.35419594869018">
        <ele>14.6</ele>
        <time>2026-06-05T14:30:53</time>
      </trkpt>
      <trkpt lat="36.02809592150152" lon="129.354147920385">
        <ele>14.6</ele>
        <time>2026-06-05T14:30:54</time>
      </trkpt>
      <trkpt lat="36.02806298062205" lon="129.35410098172724">
        <ele>14.6</ele>
        <time>2026-06-05T14:30:55</time>
      </trkpt>
      <trkpt lat="36.028026938438416" lon="129.3540559709072">
        <ele>14.6</ele>
        <time>2026-06-05T14:30:56</time>
      </trkpt>
      <trkpt lat="36.02798997424543" lon="129.35401397757232">
        <ele>14.6</ele>
        <time>2026-06-05T14:30:57</time>
      </trkpt>
      <trkpt lat="36.02795393206179" lon="129.3539739958942">
        <ele>14.6</ele>
        <time>2026-06-05T14:30:58</time>
      </trkpt>
      <trkpt lat="36.027918979525566" lon="129.35393694788218">
        <ele>14.6</ele>
        <time>2026-06-05T14:30:59</time>
      </trkpt>
      <trkpt lat="36.02788595482707" lon="129.35390199534595">
        <ele>14.6</ele>
        <time>2026-06-05T14:31:00</time>
      </trkpt>
      <trkpt lat="36.027854941785336" lon="129.3538659531623">
        <ele>14.6</ele>
        <time>2026-06-05T14:31:01</time>
      </trkpt>
      <trkpt lat="36.02782191708684" lon="129.35382798314095">
        <ele>14.6</ele>
        <time>2026-06-05T14:31:02</time>
      </trkpt>
      <trkpt lat="36.027787970378995" lon="129.35378892347217">
        <ele>14.6</ele>
        <time>2026-06-05T14:31:03</time>
      </trkpt>
      <trkpt lat="36.02774899452925" lon="129.35374491848052">
        <ele>14.6</ele>
        <time>2026-06-05T14:31:04</time>
      </trkpt>
      <trkpt lat="36.02770599536598" lon="129.35369697399437">
        <ele>14.6</ele>
        <time>2026-06-05T14:31:05</time>
      </trkpt>
      <trkpt lat="36.027659978717566" lon="129.35364299453795">
        <ele>14.6</ele>
        <time>2026-06-05T14:31:06</time>
      </trkpt>
      <trkpt lat="36.02761195041239" lon="129.353584991768">
        <ele>14.6</ele>
        <time>2026-06-05T14:31:07</time>
      </trkpt>
      <trkpt lat="36.02756291627884" lon="129.35352296568453">
        <ele>14.6</ele>
        <time>2026-06-05T14:31:08</time>
      </trkpt>
      <trkpt lat="36.02751396596432" lon="129.35346194542944">
        <ele>14.8</ele>
        <time>2026-06-05T14:31:09</time>
      </trkpt>
      <trkpt lat="36.027464931830764" lon="129.35340696014464">
        <ele>14.8</ele>
        <time>2026-06-05T14:31:10</time>
      </trkpt>
      <trkpt lat="36.0274129640311" lon="129.3533619493246">
        <ele>14.8</ele>
        <time>2026-06-05T14:31:11</time>
      </trkpt>
      <trkpt lat="36.027361918240786" lon="129.35332397930324">
        <ele>15.0</ele>
        <time>2026-06-05T14:31:12</time>
      </trkpt>
      <trkpt lat="36.0273109562695" lon="129.35328693129122">
        <ele>15.0</ele>
        <time>2026-06-05T14:31:13</time>
      </trkpt>
      <trkpt lat="36.02726393379271" lon="129.3532459437847">
        <ele>15.0</ele>
        <time>2026-06-05T14:31:14</time>
      </trkpt>
      <trkpt lat="36.02721992880106" lon="129.35320294462144">
        <ele>15.0</ele>
        <time>2026-06-05T14:31:15</time>
      </trkpt>
      <trkpt lat="36.02717793546617" lon="129.35315692797303">
        <ele>15.0</ele>
        <time>2026-06-05T14:31:16</time>
      </trkpt>
      <trkpt lat="36.02713795378804" lon="129.3531089834869">
        <ele>15.2</ele>
        <time>2026-06-05T14:31:17</time>
      </trkpt>
      <trkpt lat="36.027099983766675" lon="129.35305894352496">
        <ele>15.2</ele>
        <time>2026-06-05T14:31:18</time>
      </trkpt>
      <trkpt lat="36.027061929926276" lon="129.35301099903882">
        <ele>15.2</ele>
        <time>2026-06-05T14:31:19</time>
      </trkpt>
      <trkpt lat="36.02702295407653" lon="129.35296397656202">
        <ele>15.4</ele>
        <time>2026-06-05T14:31:20</time>
      </trkpt>
      <trkpt lat="36.0269829723984" lon="129.35291695408523">
        <ele>15.4</ele>
        <time>2026-06-05T14:31:21</time>
      </trkpt>
      <trkpt lat="36.026944918558" lon="129.3528719432652">
        <ele>15.4</ele>
        <time>2026-06-05T14:31:22</time>
      </trkpt>
      <trkpt lat="36.026906948536634" lon="129.35282793827355">
        <ele>15.4</ele>
        <time>2026-06-05T14:31:23</time>
      </trkpt>
      <trkpt lat="36.02687291800976" lon="129.3527839332819">
        <ele>15.4</ele>
        <time>2026-06-05T14:31:24</time>
      </trkpt>
      <trkpt lat="36.026846934109926" lon="129.35273699462414">
        <ele>15.4</ele>
        <time>2026-06-05T14:31:25</time>
      </trkpt>
      <trkpt lat="36.026823967695236" lon="129.3526869546622">
        <ele>15.4</ele>
        <time>2026-06-05T14:31:26</time>
      </trkpt>
      <trkpt lat="36.026801923289895" lon="129.3526399321854">
        <ele>15.4</ele>
        <time>2026-06-05T14:31:27</time>
      </trkpt>
      <trkpt lat="36.026776945218444" lon="129.35259592719376">
        <ele>15.4</ele>
        <time>2026-06-05T14:31:28</time>
      </trkpt>
      <trkpt lat="36.02674894966185" lon="129.35255594551563">
        <ele>15.4</ele>
        <time>2026-06-05T14:31:29</time>
      </trkpt>
      <trkpt lat="36.026717936620116" lon="129.35251696966588">
        <ele>15.4</ele>
        <time>2026-06-05T14:31:30</time>
      </trkpt>
      <trkpt lat="36.02668591775" lon="129.35248092748225">
        <ele>15.4</ele>
        <time>2026-06-05T14:31:31</time>
      </trkpt>
      <trkpt lat="36.02665297687054" lon="129.35244496911764">
        <ele>15.4</ele>
        <time>2026-06-05T14:31:32</time>
      </trkpt>
      <trkpt lat="36.02661995217204" lon="129.35240993276238">
        <ele>15.4</ele>
        <time>2026-06-05T14:31:33</time>
      </trkpt>
      <trkpt lat="36.026586927473545" lon="129.35237598605454">
        <ele>15.4</ele>
        <time>2026-06-05T14:31:34</time>
      </trkpt>
      <trkpt lat="36.02655499242246" lon="129.3523399438709">
        <ele>15.4</ele>
        <time>2026-06-05T14:31:35</time>
      </trkpt>
      <trkpt lat="36.02652397938073" lon="129.3523039855063">
        <ele>15.4</ele>
        <time>2026-06-05T14:31:36</time>
      </trkpt>
      <trkpt lat="36.02649397216737" lon="129.35226794332266">
        <ele>15.2</ele>
        <time>2026-06-05T14:31:37</time>
      </trkpt>
      <trkpt lat="36.02646195329726" lon="129.35223097912967">
        <ele>15.4</ele>
        <time>2026-06-05T14:31:38</time>
      </trkpt>
      <trkpt lat="36.02642993442714" lon="129.35219493694603">
        <ele>15.4</ele>
        <time>2026-06-05T14:31:39</time>
      </trkpt>
      <trkpt lat="36.02639892138541" lon="129.35215797275305">
        <ele>15.2</ele>
        <time>2026-06-05T14:31:40</time>
      </trkpt>
      <trkpt lat="36.026366986334324" lon="129.35211991891265">
        <ele>15.2</ele>
        <time>2026-06-05T14:31:41</time>
      </trkpt>
      <trkpt lat="36.02633496746421" lon="129.35208194889128">
        <ele>15.2</ele>
        <time>2026-06-05T14:31:42</time>
      </trkpt>
      <trkpt lat="36.02630294859409" lon="129.35204599052668">
        <ele>15.2</ele>
        <time>2026-06-05T14:31:43</time>
      </trkpt>
      <trkpt lat="36.02627193555236" lon="129.35200894251466">
        <ele>15.2</ele>
        <time>2026-06-05T14:31:44</time>
      </trkpt>
      <trkpt lat="36.026240922510624" lon="129.35197398997843">
        <ele>15.2</ele>
        <time>2026-06-05T14:31:45</time>
      </trkpt>
      <trkpt lat="36.0262109991163" lon="129.35193995945156">
        <ele>15.2</ele>
        <time>2026-06-05T14:31:46</time>
      </trkpt>
      <trkpt lat="36.02618099190295" lon="129.35190794058144">
        <ele>15.2</ele>
        <time>2026-06-05T14:31:47</time>
      </trkpt>
      <trkpt lat="36.026152996346354" lon="129.35188095085323">
        <ele>15.2</ele>
        <time>2026-06-05T14:31:48</time>
      </trkpt>
      <trkpt lat="36.02612692862749" lon="129.35185899026692">
        <ele>15.2</ele>
        <time>2026-06-05T14:31:49</time>
      </trkpt>
      <trkpt lat="36.02610697969794" lon="129.35184499248862">
        <ele>15.2</ele>
        <time>2026-06-05T14:31:50</time>
      </trkpt>
      <trkpt lat="36.02609398774803" lon="129.3518359400332">
        <ele>15.2</ele>
        <time>2026-06-05T14:31:51</time>
      </trkpt>
      <trkpt lat="36.02608594112098" lon="129.35182797722518">
        <ele>15.2</ele>
        <time>2026-06-05T14:31:52</time>
      </trkpt>
      <trkpt lat="36.02607898414135" lon="129.35181993059814">
        <ele>15.2</ele>
        <time>2026-06-05T14:31:53</time>
      </trkpt>
      <trkpt lat="36.026070937514305" lon="129.35181096196175">
        <ele>15.2</ele>
        <time>2026-06-05T14:31:54</time>
      </trkpt>
      <trkpt lat="36.02605895139277" lon="129.3517999816686">
        <ele>15.2</ele>
        <time>2026-06-05T14:31:55</time>
      </trkpt>
      <trkpt lat="36.02604394778609" lon="129.35178698971868">
        <ele>15.2</ele>
        <time>2026-06-05T14:31:56</time>
      </trkpt>
      <trkpt lat="36.026023998856544" lon="129.35176997445524">
        <ele>15.2</ele>
        <time>2026-06-05T14:31:57</time>
      </trkpt>
      <trkpt lat="36.02599591948092" lon="129.35174994170666">
        <ele>15.2</ele>
        <time>2026-06-05T14:31:58</time>
      </trkpt>
      <trkpt lat="36.025960966944695" lon="129.3517249636352">
        <ele>15.2</ele>
        <time>2026-06-05T14:31:59</time>
      </trkpt>
      <trkpt lat="36.025918973609805" lon="129.35169395059347">
        <ele>15.0</ele>
        <time>2026-06-05T14:32:00</time>
      </trkpt>
      <trkpt lat="36.02587295696139" lon="129.3516559805721">
        <ele>15.0</ele>
        <time>2026-06-05T14:32:01</time>
      </trkpt>
      <trkpt lat="36.02582291699946" lon="129.3516149930656">
        <ele>14.8</ele>
        <time>2026-06-05T14:32:02</time>
      </trkpt>
      <trkpt lat="36.02577296085656" lon="129.35157392174006">
        <ele>14.8</ele>
        <time>2026-06-05T14:32:03</time>
      </trkpt>
      <trkpt lat="36.025724932551384" lon="129.35153192840517">
        <ele>14.6</ele>
        <time>2026-06-05T14:32:04</time>
      </trkpt>
      <trkpt lat="36.025682939216495" lon="129.35148792341352">
        <ele>14.6</ele>
        <time>2026-06-05T14:32:06</time>
      </trkpt>
      <trkpt lat="36.025642957538366" lon="129.35143997892737">
        <ele>14.6</ele>
        <time>2026-06-05T14:32:07</time>
      </trkpt>
      <trkpt lat="36.025604987517" lon="129.3513919506222">
        <ele>14.4</ele>
        <time>2026-06-05T14:32:08</time>
      </trkpt>
      <trkpt lat="36.02556592784822" lon="129.3513449281454">
        <ele>14.4</ele>
        <time>2026-06-05T14:32:09</time>
      </trkpt>
      <trkpt lat="36.02552594617009" lon="129.35129991732538">
        <ele>14.4</ele>
        <time>2026-06-05T14:32:10</time>
      </trkpt>
      <trkpt lat="36.02548495866358" lon="129.3512569181621">
        <ele>14.2</ele>
        <time>2026-06-05T14:32:11</time>
      </trkpt>
      <trkpt lat="36.02544195950031" lon="129.3512159306556">
        <ele>14.2</ele>
        <time>2026-06-05T14:32:12</time>
      </trkpt>
      <trkpt lat="36.02539694868028" lon="129.35117695480585">
        <ele>14.0</ele>
        <time>2026-06-05T14:32:13</time>
      </trkpt>
      <trkpt lat="36.02534892037511" lon="129.3511419184506">
        <ele>14.0</ele>
        <time>2026-06-05T14:32:14</time>
      </trkpt>
      <trkpt lat="36.02530198171735" lon="129.3511099833995">
        <ele>13.8</ele>
        <time>2026-06-05T14:32:15</time>
      </trkpt>
      <trkpt lat="36.02525998838246" lon="129.35108198784292">
        <ele>13.8</ele>
        <time>2026-06-05T14:32:16</time>
      </trkpt>
      <trkpt lat="36.0252249520272" lon="129.35106094926596">
        <ele>13.8</ele>
        <time>2026-06-05T14:32:17</time>
      </trkpt>
      <trkpt lat="36.02519796229899" lon="129.35104695148766">
        <ele>13.8</ele>
        <time>2026-06-05T14:32:18</time>
      </trkpt>
      <trkpt lat="36.02517692372203" lon="129.35103898867965">
        <ele>13.8</ele>
        <time>2026-06-05T14:32:19</time>
      </trkpt>
      <trkpt lat="36.02516292594373" lon="129.3510369770229">
        <ele>13.8</ele>
        <time>2026-06-05T14:32:20</time>
      </trkpt>
      <trkpt lat="36.02515798062086" lon="129.35103999450803">
        <ele>14.0</ele>
        <time>2026-06-05T14:32:21</time>
      </trkpt>
      <trkpt lat="36.02515898644924" lon="129.35104292817414">
        <ele>14.2</ele>
        <time>2026-06-05T14:32:22</time>
      </trkpt>
      <trkpt lat="36.02516192011535" lon="129.3510449398309">
        <ele>14.2</ele>
        <time>2026-06-05T14:32:23</time>
      </trkpt>
      <trkpt lat="36.025165943428874" lon="129.35104795731604">
        <ele>14.4</ele>
        <time>2026-06-05T14:32:24</time>
      </trkpt>
      <trkpt lat="36.02510794065893" lon="129.35102893039584">
        <ele>15.0</ele>
        <time>2026-06-05T14:32:46</time>
      </trkpt>
      <trkpt lat="36.02508598007262" lon="129.35101199895144">
        <ele>15.0</ele>
        <time>2026-06-05T14:32:47</time>
      </trkpt>
      <trkpt lat="36.025063935667276" lon="129.3509889487177">
        <ele>15.0</ele>
        <time>2026-06-05T14:32:48</time>
      </trkpt>
      <trkpt lat="36.025040969252586" lon="129.35096095316112">
        <ele>14.8</ele>
        <time>2026-06-05T14:32:49</time>
      </trkpt>
      <trkpt lat="36.025017919018865" lon="129.35093295760453">
        <ele>14.8</ele>
        <time>2026-06-05T14:32:50</time>
      </trkpt>
      <trkpt lat="36.02499294094741" lon="129.35090797953308">
        <ele>14.8</ele>
        <time>2026-06-05T14:32:51</time>
      </trkpt>
      <trkpt lat="36.02496393956244" lon="129.35088492929935">
        <ele>14.8</ele>
        <time>2026-06-05T14:32:52</time>
      </trkpt>
      <trkpt lat="36.024929992854595" lon="129.35086095705628">
        <ele>14.8</ele>
        <time>2026-06-05T14:32:53</time>
      </trkpt>
      <trkpt lat="36.024889927357435" lon="129.3508369848132">
        <ele>14.6</ele>
        <time>2026-06-05T14:32:54</time>
      </trkpt>
      <trkpt lat="36.024847934022546" lon="129.3508129287511">
        <ele>14.6</ele>
        <time>2026-06-05T14:32:55</time>
      </trkpt>
      <trkpt lat="36.024802923202515" lon="129.35078694485128">
        <ele>14.6</ele>
        <time>2026-06-05T14:32:56</time>
      </trkpt>
      <trkpt lat="36.024755984544754" lon="129.35076196677983">
        <ele>14.4</ele>
        <time>2026-06-05T14:32:57</time>
      </trkpt>
      <trkpt lat="36.02470594458282" lon="129.35073497705162">
        <ele>14.4</ele>
        <time>2026-06-05T14:32:58</time>
      </trkpt>
      <trkpt lat="36.024652970954776" lon="129.3507029581815">
        <ele>14.2</ele>
        <time>2026-06-05T14:32:59</time>
      </trkpt>
      <trkpt lat="36.02459597401321" lon="129.35066892765462">
        <ele>14.2</ele>
        <time>2026-06-05T14:33:00</time>
      </trkpt>
      <trkpt lat="36.02453696541488" lon="129.35063296929002">
        <ele>14.0</ele>
        <time>2026-06-05T14:33:01</time>
      </trkpt>
      <trkpt lat="36.02447594515979" lon="129.35059692710638">
        <ele>14.0</ele>
        <time>2026-06-05T14:33:02</time>
      </trkpt>
      <trkpt lat="36.024414924904704" lon="129.35056298039854">
        <ele>14.0</ele>
        <time>2026-06-05T14:33:03</time>
      </trkpt>
      <trkpt lat="36.024352982640266" lon="129.35052894987166">
        <ele>14.0</ele>
        <time>2026-06-05T14:33:04</time>
      </trkpt>
      <trkpt lat="36.02429397404194" lon="129.35049592517316">
        <ele>13.8</ele>
        <time>2026-06-05T14:33:05</time>
      </trkpt>
      <trkpt lat="36.02423496544361" lon="129.3504669237882">
        <ele>13.8</ele>
        <time>2026-06-05T14:33:06</time>
      </trkpt>
      <trkpt lat="36.024178974330425" lon="129.35044093988836">
        <ele>13.8</ele>
        <time>2026-06-05T14:33:07</time>
      </trkpt>
      <trkpt lat="36.02412398904562" lon="129.35041395016015">
        <ele>13.8</ele>
        <time>2026-06-05T14:33:08</time>
      </trkpt>
      <trkpt lat="36.024071937426925" lon="129.3503879662603">
        <ele>13.8</ele>
        <time>2026-06-05T14:33:09</time>
      </trkpt>
      <trkpt lat="36.0240229871124" lon="129.35036793351173">
        <ele>13.8</ele>
        <time>2026-06-05T14:33:10</time>
      </trkpt>
      <trkpt lat="36.02397797629237" lon="129.35035192407668">
        <ele>14.0</ele>
        <time>2026-06-05T14:33:11</time>
      </trkpt>
      <trkpt lat="36.02394092828035" lon="129.35033792629838">
        <ele>14.0</ele>
        <time>2026-06-05T14:33:12</time>
      </trkpt>
      <trkpt lat="36.02390999905765" lon="129.35032392852008">
        <ele>14.0</ele>
        <time>2026-06-05T14:33:13</time>
      </trkpt>
      <trkpt lat="36.02388292551041" lon="129.35030699707568">
        <ele>14.2</ele>
        <time>2026-06-05T14:33:14</time>
      </trkpt>
      <trkpt lat="36.023855935782194" lon="129.35028495267034">
        <ele>14.2</ele>
        <time>2026-06-05T14:33:15</time>
      </trkpt>
      <trkpt lat="36.02382693439722" lon="129.35026299208403">
        <ele>14.4</ele>
        <time>2026-06-05T14:33:16</time>
      </trkpt>
      <trkpt lat="36.023791981860995" lon="129.35024094767869">
        <ele>14.4</ele>
        <time>2026-06-05T14:33:17</time>
      </trkpt>
      <trkpt lat="36.02375493384898" lon="129.35021898709238">
        <ele>14.4</ele>
        <time>2026-06-05T14:33:18</time>
      </trkpt>
      <trkpt lat="36.02371394634247" lon="129.35019694268703">
        <ele>14.4</ele>
        <time>2026-06-05T14:33:19</time>
      </trkpt>
      <trkpt lat="36.02367295883596" lon="129.35017297044396">
        <ele>14.6</ele>
        <time>2026-06-05T14:33:20</time>
      </trkpt>
      <trkpt lat="36.02363197132945" lon="129.35014992021024">
        <ele>14.6</ele>
        <time>2026-06-05T14:33:21</time>
      </trkpt>
      <trkpt lat="36.02359198965132" lon="129.35012695379555">
        <ele>14.6</ele>
        <time>2026-06-05T14:33:22</time>
      </trkpt>
      <trkpt lat="36.023554941639304" lon="129.35010398738086">
        <ele>14.6</ele>
        <time>2026-06-05T14:33:23</time>
      </trkpt>
      <trkpt lat="36.02351998910308" lon="129.35008395463228">
        <ele>14.8</ele>
        <time>2026-06-05T14:33:24</time>
      </trkpt>
      <trkpt lat="36.02348696440458" lon="129.35006593354046">
        <ele>14.8</ele>
        <time>2026-06-05T14:33:25</time>
      </trkpt>
      <trkpt lat="36.02345595136285" lon="129.3500509299338">
        <ele>14.8</ele>
        <time>2026-06-05T14:33:26</time>
      </trkpt>
      <trkpt lat="36.023426949977875" lon="129.3500369321555">
        <ele>15.0</ele>
        <time>2026-06-05T14:33:27</time>
      </trkpt>
      <trkpt lat="36.023401971906424" lon="129.35002394020557">
        <ele>15.0</ele>
        <time>2026-06-05T14:33:28</time>
      </trkpt>
      <trkpt lat="36.02338093332946" lon="129.35000692494214">
        <ele>15.0</ele>
        <time>2026-06-05T14:33:29</time>
      </trkpt>
      <trkpt lat="36.023360984399915" lon="129.3499909993261">
        <ele>15.2</ele>
        <time>2026-06-05T14:33:30</time>
      </trkpt>
      <trkpt lat="36.02334497496486" lon="129.34997498989105">
        <ele>15.2</ele>
        <time>2026-06-05T14:33:31</time>
      </trkpt>
      <trkpt lat="36.02333198301494" lon="129.34996291995049">
        <ele>15.2</ele>
        <time>2026-06-05T14:33:32</time>
      </trkpt>
      <trkpt lat="36.023322930559516" lon="129.3499529454857">
        <ele>15.2</ele>
        <time>2026-06-05T14:33:33</time>
      </trkpt>
      <trkpt lat="36.023317985236645" lon="129.3499489221722">
        <ele>15.2</ele>
        <time>2026-06-05T14:33:34</time>
      </trkpt>
      <trkpt lat="36.023316979408264" lon="129.34994992800057">
        <ele>15.2</ele>
        <time>2026-06-05T14:33:35</time>
      </trkpt>
      <trkpt lat="36.02331094443798" lon="129.3499529454857">
        <ele>15.4</ele>
        <time>2026-06-05T14:33:36</time>
      </trkpt>
      <trkpt lat="36.023299964144826" lon="129.34995495714247">
        <ele>15.4</ele>
        <time>2026-06-05T14:33:37</time>
      </trkpt>
      <trkpt lat="36.02328496053815" lon="129.34995495714247">
        <ele>15.2</ele>
        <time>2026-06-05T14:33:38</time>
      </trkpt>
      <trkpt lat="36.02326895110309" lon="129.34995093382895">
        <ele>15.2</ele>
        <time>2026-06-05T14:33:39</time>
      </trkpt>
      <trkpt lat="36.02324891835451" lon="129.34994397684932">
        <ele>15.2</ele>
        <time>2026-06-05T14:33:40</time>
      </trkpt>
      <trkpt lat="36.02322595193982" lon="129.34993894770741">
        <ele>15.0</ele>
        <time>2026-06-05T14:33:41</time>
      </trkpt>
      <trkpt lat="36.02319896221161" lon="129.34993299655616">
        <ele>15.0</ele>
        <time>2026-06-05T14:33:42</time>
      </trkpt>
      <trkpt lat="36.023170966655016" lon="129.34992394410074">
        <ele>14.8</ele>
        <time>2026-06-05T14:33:43</time>
      </trkpt>
      <trkpt lat="36.02314196527004" lon="129.34991095215082">
        <ele>14.8</ele>
        <time>2026-06-05T14:33:44</time>
      </trkpt>
      <trkpt lat="36.02311195805669" lon="129.34989393688738">
        <ele>14.8</ele>
        <time>2026-06-05T14:33:45</time>
      </trkpt>
      <trkpt lat="36.023080945014954" lon="129.3498709704727">
        <ele>14.6</ele>
        <time>2026-06-05T14:33:46</time>
      </trkpt>
      <trkpt lat="36.02304792031646" lon="129.34984599240124">
        <ele>14.6</ele>
        <time>2026-06-05T14:33:47</time>
      </trkpt>
      <trkpt lat="36.023014979436994" lon="129.34982294216752">
        <ele>14.6</ele>
        <time>2026-06-05T14:33:48</time>
      </trkpt>
      <trkpt lat="36.0229819547385" lon="129.3498019874096">
        <ele>14.6</ele>
        <time>2026-06-05T14:33:49</time>
      </trkpt>
      <trkpt lat="36.02294993586838" lon="129.3497829604894">
        <ele>14.6</ele>
        <time>2026-06-05T14:33:50</time>
      </trkpt>
      <trkpt lat="36.02292093448341" lon="129.34976695105433">
        <ele>14.6</ele>
        <time>2026-06-05T14:33:51</time>
      </trkpt>
      <trkpt lat="36.0228939447552" lon="129.3497499357909">
        <ele>14.6</ele>
        <time>2026-06-05T14:33:52</time>
      </trkpt>
      <trkpt lat="36.02287198416889" lon="129.34973694384098">
        <ele>14.6</ele>
        <time>2026-06-05T14:33:53</time>
      </trkpt>
      <trkpt lat="36.02285396307707" lon="129.3497269693762">
        <ele>14.6</ele>
        <time>2026-06-05T14:33:54</time>
      </trkpt>
      <trkpt lat="36.02283795364201" lon="129.34971992857754">
        <ele>14.6</ele>
        <time>2026-06-05T14:33:55</time>
      </trkpt>
      <trkpt lat="36.02281993255019" lon="129.34971196576953">
        <ele>14.6</ele>
        <time>2026-06-05T14:33:56</time>
      </trkpt>
      <trkpt lat="36.022800989449024" lon="129.34970098547637">
        <ele>14.6</ele>
        <time>2026-06-05T14:33:57</time>
      </trkpt>
      <trkpt lat="36.02277894504368" lon="129.34969092719257">
        <ele>14.6</ele>
        <time>2026-06-05T14:33:58</time>
      </trkpt>
      <trkpt lat="36.02275296114385" lon="129.34967894107103">
        <ele>14.6</ele>
        <time>2026-06-05T14:33:59</time>
      </trkpt>
      <trkpt lat="36.02272697724402" lon="129.34966494329274">
        <ele>14.6</ele>
        <time>2026-06-05T14:34:00</time>
      </trkpt>
      <trkpt lat="36.02269998751581" lon="129.34964993968606">
        <ele>14.6</ele>
        <time>2026-06-05T14:34:01</time>
      </trkpt>
      <trkpt lat="36.022670986130834" lon="129.34963493607938">
        <ele>14.6</ele>
        <time>2026-06-05T14:34:02</time>
      </trkpt>
      <trkpt lat="36.02264198474586" lon="129.34962194412947">
        <ele>14.6</ele>
        <time>2026-06-05T14:34:03</time>
      </trkpt>
      <trkpt lat="36.022609965875745" lon="129.34960895217955">
        <ele>14.6</ele>
        <time>2026-06-05T14:34:04</time>
      </trkpt>
      <trkpt lat="36.02257593534887" lon="129.34959394857287">
        <ele>14.6</ele>
        <time>2026-06-05T14:34:05</time>
      </trkpt>
      <trkpt lat="36.0225379653275" lon="129.34957399964333">
        <ele>14.8</ele>
        <time>2026-06-05T14:34:06</time>
      </trkpt>
      <trkpt lat="36.022498989477754" lon="129.34954994358122">
        <ele>14.6</ele>
        <time>2026-06-05T14:34:07</time>
      </trkpt>
      <trkpt lat="36.022458923980594" lon="129.3495239596814">
        <ele>14.8</ele>
        <time>2026-06-05T14:34:08</time>
      </trkpt>
      <trkpt lat="36.022416930645704" lon="129.34949797578156">
        <ele>14.8</ele>
        <time>2026-06-05T14:34:09</time>
      </trkpt>
      <trkpt lat="36.022373931482434" lon="129.3494729977101">
        <ele>14.8</ele>
        <time>2026-06-05T14:34:10</time>
      </trkpt>
      <trkpt lat="36.022330932319164" lon="129.34944793581963">
        <ele>14.8</ele>
        <time>2026-06-05T14:34:11</time>
      </trkpt>
      <trkpt lat="36.02228592149913" lon="129.34942295774817">
        <ele>14.8</ele>
        <time>2026-06-05T14:34:12</time>
      </trkpt>
      <trkpt lat="36.02224292233586" lon="129.34939596801996">
        <ele>14.8</ele>
        <time>2026-06-05T14:34:13</time>
      </trkpt>
      <trkpt lat="36.022200929000974" lon="129.34936797246337">
        <ele>14.8</ele>
        <time>2026-06-05T14:34:14</time>
      </trkpt>
      <trkpt lat="36.022157929837704" lon="129.34934198856354">
        <ele>15.0</ele>
        <time>2026-06-05T14:34:15</time>
      </trkpt>
      <trkpt lat="36.022115936502814" lon="129.34931592084467">
        <ele>15.0</ele>
        <time>2026-06-05T14:34:16</time>
      </trkpt>
      <trkpt lat="36.022073943167925" lon="129.3492919486016">
        <ele>15.0</ele>
        <time>2026-06-05T14:34:17</time>
      </trkpt>
      <trkpt lat="36.022032955661416" lon="129.34926797635853">
        <ele>15.0</ele>
        <time>2026-06-05T14:34:18</time>
      </trkpt>
      <trkpt lat="36.02199297398329" lon="129.3492449261248">
        <ele>15.2</ele>
        <time>2026-06-05T14:34:19</time>
      </trkpt>
      <trkpt lat="36.02195299230516" lon="129.34922497719526">
        <ele>15.2</ele>
        <time>2026-06-05T14:34:20</time>
      </trkpt>
      <trkpt lat="36.02191493846476" lon="129.34920695610344">
        <ele>15.2</ele>
        <time>2026-06-05T14:34:21</time>
      </trkpt>
      <trkpt lat="36.021879985928535" lon="129.34918994084">
        <ele>15.2</ele>
        <time>2026-06-05T14:34:22</time>
      </trkpt>
      <trkpt lat="36.02184494957328" lon="129.34917493723333">
        <ele>15.2</ele>
        <time>2026-06-05T14:34:23</time>
      </trkpt>
      <trkpt lat="36.02180999703705" lon="129.34916093945503">
        <ele>15.0</ele>
        <time>2026-06-05T14:34:24</time>
      </trkpt>
      <trkpt lat="36.021773954853415" lon="129.34914794750512">
        <ele>15.0</ele>
        <time>2026-06-05T14:34:25</time>
      </trkpt>
      <trkpt lat="36.02173598483205" lon="129.3491349555552">
        <ele>15.0</ele>
        <time>2026-06-05T14:34:26</time>
      </trkpt>
      <trkpt lat="36.02169591933489" lon="129.34911995194852">
        <ele>15.0</ele>
        <time>2026-06-05T14:34:27</time>
      </trkpt>
      <trkpt lat="36.02165493182838" lon="129.34910394251347">
        <ele>15.0</ele>
        <time>2026-06-05T14:34:28</time>
      </trkpt>
      <trkpt lat="36.02161293849349" lon="129.3490889389068">
        <ele>15.0</ele>
        <time>2026-06-05T14:34:29</time>
      </trkpt>
      <trkpt lat="36.0215709451586" lon="129.34907292947173">
        <ele>15.0</ele>
        <time>2026-06-05T14:34:30</time>
      </trkpt>
      <trkpt lat="36.02153096348047" lon="129.34905499219894">
        <ele>15.0</ele>
        <time>2026-06-05T14:34:31</time>
      </trkpt>
      <trkpt lat="36.021492993459105" lon="129.34903596527874">
        <ele>15.0</ele>
        <time>2026-06-05T14:34:32</time>
      </trkpt>
      <trkpt lat="36.02145695127547" lon="129.3490139208734">
        <ele>14.8</ele>
        <time>2026-06-05T14:34:33</time>
      </trkpt>
      <trkpt lat="36.02141998708248" lon="129.3489919602871">
        <ele>14.8</ele>
        <time>2026-06-05T14:34:34</time>
      </trkpt>
      <trkpt lat="36.0213809274137" lon="129.34896999970078">
        <ele>14.8</ele>
        <time>2026-06-05T14:34:35</time>
      </trkpt>
      <trkpt lat="36.02133993990719" lon="129.3489499669522">
        <ele>14.8</ele>
        <time>2026-06-05T14:34:36</time>
      </trkpt>
      <trkpt lat="36.02129392325878" lon="129.34892792254686">
        <ele>14.8</ele>
        <time>2026-06-05T14:34:37</time>
      </trkpt>
      <trkpt lat="36.02124597877264" lon="129.34890495613217">
        <ele>14.8</ele>
        <time>2026-06-05T14:34:38</time>
      </trkpt>
      <trkpt lat="36.021195938810706" lon="129.34887997806072">
        <ele>14.6</ele>
        <time>2026-06-05T14:34:39</time>
      </trkpt>
      <trkpt lat="36.02114296518266" lon="129.3488529883325">
        <ele>14.6</ele>
        <time>2026-06-05T14:34:40</time>
      </trkpt>
      <trkpt lat="36.02108797989786" lon="129.3488259986043">
        <ele>14.6</ele>
        <time>2026-06-05T14:34:41</time>
      </trkpt>
      <trkpt lat="36.02103198878467" lon="129.34879892505705">
        <ele>14.4</ele>
        <time>2026-06-05T14:34:42</time>
      </trkpt>
      <trkpt lat="36.020973986014724" lon="129.3487689178437">
        <ele>14.4</ele>
        <time>2026-06-05T14:34:43</time>
      </trkpt>
      <trkpt lat="36.020914977416396" lon="129.34873597696424">
        <ele>14.4</ele>
        <time>2026-06-05T14:34:44</time>
      </trkpt>
      <trkpt lat="36.02085496298969" lon="129.3486999347806">
        <ele>14.4</ele>
        <time>2026-06-05T14:34:45</time>
      </trkpt>
      <trkpt lat="36.0207939427346" lon="129.348663976416">
        <ele>14.4</ele>
        <time>2026-06-05T14:34:46</time>
      </trkpt>
      <trkpt lat="36.02073392830789" lon="129.34862894006073">
        <ele>14.4</ele>
        <time>2026-06-05T14:34:47</time>
      </trkpt>
      <trkpt lat="36.020672991871834" lon="129.3485939875245">
        <ele>14.2</ele>
        <time>2026-06-05T14:34:48</time>
      </trkpt>
      <trkpt lat="36.020611971616745" lon="129.34855995699763">
        <ele>14.2</ele>
        <time>2026-06-05T14:34:49</time>
      </trkpt>
      <trkpt lat="36.020549945533276" lon="129.34852592647076">
        <ele>14.2</ele>
        <time>2026-06-05T14:34:50</time>
      </trkpt>
      <trkpt lat="36.02048699744046" lon="129.3484919797629">
        <ele>14.2</ele>
        <time>2026-06-05T14:34:51</time>
      </trkpt>
      <trkpt lat="36.02042497135699" lon="129.34845895506442">
        <ele>14.2</ele>
        <time>2026-06-05T14:34:52</time>
      </trkpt>
      <trkpt lat="36.02036193944514" lon="129.3484269361943">
        <ele>14.2</ele>
        <time>2026-06-05T14:34:53</time>
      </trkpt>
      <trkpt lat="36.02029899135232" lon="129.34839298948646">
        <ele>14.2</ele>
        <time>2026-06-05T14:34:54</time>
      </trkpt>
      <trkpt lat="36.02023595944047" lon="129.3483579531312">
        <ele>14.2</ele>
        <time>2026-06-05T14:34:55</time>
      </trkpt>
      <trkpt lat="36.02017192170024" lon="129.34832291677594">
        <ele>14.2</ele>
        <time>2026-06-05T14:34:56</time>
      </trkpt>
      <trkpt lat="36.0201099794358" lon="129.3482889700681">
        <ele>14.2</ele>
        <time>2026-06-05T14:34:57</time>
      </trkpt>
      <trkpt lat="36.02004895918071" lon="129.34825795702636">
        <ele>14.2</ele>
        <time>2026-06-05T14:34:58</time>
      </trkpt>
      <trkpt lat="36.019990956410766" lon="129.34822694398463">
        <ele>14.2</ele>
        <time>2026-06-05T14:34:59</time>
      </trkpt>
      <trkpt lat="36.01993597112596" lon="129.34819794259965">
        <ele>14.0</ele>
        <time>2026-06-05T14:35:00</time>
      </trkpt>
      <trkpt lat="36.019884925335646" lon="129.34816894121468">
        <ele>14.0</ele>
        <time>2026-06-05T14:35:01</time>
      </trkpt>
      <trkpt lat="36.019836980849504" lon="129.34814195148647">
        <ele>14.0</ele>
        <time>2026-06-05T14:35:02</time>
      </trkpt>
      <trkpt lat="36.01978895254433" lon="129.3481179792434">
        <ele>13.8</ele>
        <time>2026-06-05T14:35:03</time>
      </trkpt>
      <trkpt lat="36.01974293589592" lon="129.3480939231813">
        <ele>13.8</ele>
        <time>2026-06-05T14:35:04</time>
      </trkpt>
      <trkpt lat="36.01969499140978" lon="129.34806894510984">
        <ele>13.8</ele>
        <time>2026-06-05T14:35:05</time>
      </trkpt>
      <trkpt lat="36.019646963104606" lon="129.3480439670384">
        <ele>13.8</ele>
        <time>2026-06-05T14:35:06</time>
      </trkpt>
      <trkpt lat="36.01959893479943" lon="129.34801798313856">
        <ele>13.8</ele>
        <time>2026-06-05T14:35:07</time>
      </trkpt>
      <trkpt lat="36.01954998448491" lon="129.34799199923873">
        <ele>13.8</ele>
        <time>2026-06-05T14:35:08</time>
      </trkpt>
      <trkpt lat="36.01950095035136" lon="129.34796593151987">
        <ele>13.8</ele>
        <time>2026-06-05T14:35:09</time>
      </trkpt>
      <trkpt lat="36.019453927874565" lon="129.34793994762003">
        <ele>13.8</ele>
        <time>2026-06-05T14:35:10</time>
      </trkpt>
      <trkpt lat="36.019407995045185" lon="129.34791496954858">
        <ele>13.8</ele>
        <time>2026-06-05T14:35:11</time>
      </trkpt>
      <trkpt lat="36.019362984225154" lon="129.34788898564875">
        <ele>13.8</ele>
        <time>2026-06-05T14:35:12</time>
      </trkpt>
      <trkpt lat="36.019319985061884" lon="129.34786392375827">
        <ele>13.8</ele>
        <time>2026-06-05T14:35:13</time>
      </trkpt>
      <trkpt lat="36.019278997555375" lon="129.34783793985844">
        <ele>13.8</ele>
        <time>2026-06-05T14:35:14</time>
      </trkpt>
      <trkpt lat="36.019237926229835" lon="129.34781296178699">
        <ele>13.8</ele>
        <time>2026-06-05T14:35:15</time>
      </trkpt>
      <trkpt lat="36.019197944551706" lon="129.34778798371553">
        <ele>13.8</ele>
        <time>2026-06-05T14:35:16</time>
      </trkpt>
      <trkpt lat="36.01915796287358" lon="129.3477619998157">
        <ele>13.8</ele>
        <time>2026-06-05T14:35:17</time>
      </trkpt>
      <trkpt lat="36.01911999285221" lon="129.34773492626846">
        <ele>13.8</ele>
        <time>2026-06-05T14:35:18</time>
      </trkpt>
      <trkpt lat="36.01908093318343" lon="129.34770793654025">
        <ele>14.0</ele>
        <time>2026-06-05T14:35:19</time>
      </trkpt>
      <trkpt lat="36.0190409515053" lon="129.34767994098365">
        <ele>14.0</ele>
        <time>2026-06-05T14:35:20</time>
      </trkpt>
      <trkpt lat="36.018999963998795" lon="129.34765093959868">
        <ele>14.0</ele>
        <time>2026-06-05T14:35:21</time>
      </trkpt>
      <trkpt lat="36.018956964835525" lon="129.34761992655694">
        <ele>14.0</ele>
        <time>2026-06-05T14:35:22</time>
      </trkpt>
      <trkpt lat="36.018913965672255" lon="129.34758799150586">
        <ele>14.0</ele>
        <time>2026-06-05T14:35:23</time>
      </trkpt>
      <trkpt lat="36.018869960680604" lon="129.34755697846413">
        <ele>14.0</ele>
        <time>2026-06-05T14:35:24</time>
      </trkpt>
      <trkpt lat="36.01882494986057" lon="129.34752294793725">
        <ele>14.0</ele>
        <time>2026-06-05T14:35:25</time>
      </trkpt>
      <trkpt lat="36.01877993904054" lon="129.34748799540102">
        <ele>14.0</ele>
        <time>2026-06-05T14:35:26</time>
      </trkpt>
      <trkpt lat="36.01873392239213" lon="129.34745497070253">
        <ele>14.0</ele>
        <time>2026-06-05T14:35:27</time>
      </trkpt>
      <trkpt lat="36.01868698373437" lon="129.34742194600403">
        <ele>14.0</ele>
        <time>2026-06-05T14:35:28</time>
      </trkpt>
      <trkpt lat="36.01864096708596" lon="129.3473879992962">
        <ele>14.0</ele>
        <time>2026-06-05T14:35:29</time>
      </trkpt>
      <trkpt lat="36.018595956265926" lon="129.34735296294093">
        <ele>14.2</ele>
        <time>2026-06-05T14:35:30</time>
      </trkpt>
      <trkpt lat="36.018552957102656" lon="129.34731792658567">
        <ele>14.2</ele>
        <time>2026-06-05T14:35:31</time>
      </trkpt>
      <trkpt lat="36.018508952111006" lon="129.3472809623927">
        <ele>14.2</ele>
        <time>2026-06-05T14:35:32</time>
      </trkpt>
      <trkpt lat="36.018464947119355" lon="129.34724299237132">
        <ele>14.2</ele>
        <time>2026-06-05T14:35:33</time>
      </trkpt>
      <trkpt lat="36.018422953784466" lon="129.34720493853092">
        <ele>14.2</ele>
        <time>2026-06-05T14:35:34</time>
      </trkpt>
      <trkpt lat="36.018380960449576" lon="129.34716596268117">
        <ele>14.2</ele>
        <time>2026-06-05T14:35:35</time>
      </trkpt>
      <trkpt lat="36.01834198459983" lon="129.34713092632592">
        <ele>14.2</ele>
        <time>2026-06-05T14:35:36</time>
      </trkpt>
      <trkpt lat="36.01830292493105" lon="129.34710091911256">
        <ele>14.2</ele>
        <time>2026-06-05T14:35:37</time>
      </trkpt>
      <trkpt lat="36.01826294325292" lon="129.34707292355597">
        <ele>14.2</ele>
        <time>2026-06-05T14:35:38</time>
      </trkpt>
      <trkpt lat="36.01822396740317" lon="129.34704199433327">
        <ele>14.2</ele>
        <time>2026-06-05T14:35:39</time>
      </trkpt>
      <trkpt lat="36.018188931047916" lon="129.34700595214963">
        <ele>14.2</ele>
        <time>2026-06-05T14:35:40</time>
      </trkpt>
      <trkpt lat="36.01815297268331" lon="129.34696496464312">
        <ele>14.2</ele>
        <time>2026-06-05T14:35:41</time>
      </trkpt>
      <trkpt lat="36.01811693049967" lon="129.34692297130823">
        <ele>14.2</ele>
        <time>2026-06-05T14:35:42</time>
      </trkpt>
      <trkpt lat="36.018076948821545" lon="129.34688097797334">
        <ele>14.2</ele>
        <time>2026-06-05T14:35:43</time>
      </trkpt>
      <trkpt lat="36.018035961315036" lon="129.34683797881007">
        <ele>14.2</ele>
        <time>2026-06-05T14:35:44</time>
      </trkpt>
      <trkpt lat="36.01799597963691" lon="129.34679397381842">
        <ele>14.2</ele>
        <time>2026-06-05T14:35:45</time>
      </trkpt>
      <trkpt lat="36.0179549921304" lon="129.3467489629984">
        <ele>14.2</ele>
        <time>2026-06-05T14:35:46</time>
      </trkpt>
      <trkpt lat="36.01791299879551" lon="129.34670395217836">
        <ele>14.2</ele>
        <time>2026-06-05T14:35:47</time>
      </trkpt>
      <trkpt lat="36.01786999963224" lon="129.34666195884347">
        <ele>14.2</ele>
        <time>2026-06-05T14:35:48</time>
      </trkpt>
      <trkpt lat="36.01782792247832" lon="129.34662298299372">
        <ele>14.2</ele>
        <time>2026-06-05T14:35:49</time>
      </trkpt>
      <trkpt lat="36.01778995245695" lon="129.34658098965883">
        <ele>14.2</ele>
        <time>2026-06-05T14:35:50</time>
      </trkpt>
      <trkpt lat="36.017755921930075" lon="129.34653497301042">
        <ele>14.0</ele>
        <time>2026-06-05T14:35:51</time>
      </trkpt>
      <trkpt lat="36.01772499270737" lon="129.3464839272201">
        <ele>14.0</ele>
        <time>2026-06-05T14:35:52</time>
      </trkpt>
      <trkpt lat="36.017692973837256" lon="129.3464339710772">
        <ele>14.0</ele>
        <time>2026-06-05T14:35:53</time>
      </trkpt>
      <trkpt lat="36.01765693165362" lon="129.3463869486004">
        <ele>14.0</ele>
        <time>2026-06-05T14:35:54</time>
      </trkpt>
      <trkpt lat="36.01761795580387" lon="129.34633992612362">
        <ele>14.0</ele>
        <time>2026-06-05T14:35:55</time>
      </trkpt>
      <trkpt lat="36.01757696829736" lon="129.34629399329424">
        <ele>14.0</ele>
        <time>2026-06-05T14:35:56</time>
      </trkpt>
      <trkpt lat="36.01753497496247" lon="129.34624697081745">
        <ele>14.0</ele>
        <time>2026-06-05T14:35:57</time>
      </trkpt>
      <trkpt lat="36.0174919757992" lon="129.34619994834065">
        <ele>14.0</ele>
        <time>2026-06-05T14:35:58</time>
      </trkpt>
      <trkpt lat="36.01744897663593" lon="129.34615393169224">
        <ele>14.0</ele>
        <time>2026-06-05T14:35:59</time>
      </trkpt>
      <trkpt lat="36.01740497164428" lon="129.3461089208722">
        <ele>14.0</ele>
        <time>2026-06-05T14:36:00</time>
      </trkpt>
      <trkpt lat="36.01736197248101" lon="129.34606592170894">
        <ele>14.0</ele>
        <time>2026-06-05T14:36:01</time>
      </trkpt>
      <trkpt lat="36.01731897331774" lon="129.34602292254567">
        <ele>14.0</ele>
        <time>2026-06-05T14:36:02</time>
      </trkpt>
      <trkpt lat="36.017279997467995" lon="129.34598092921078">
        <ele>14.0</ele>
        <time>2026-06-05T14:36:03</time>
      </trkpt>
      <trkpt lat="36.01724294945598" lon="129.3459389358759">
        <ele>14.0</ele>
        <time>2026-06-05T14:36:04</time>
      </trkpt>
      <trkpt lat="36.01720598526299" lon="129.34589895419776">
        <ele>14.0</ele>
        <time>2026-06-05T14:36:05</time>
      </trkpt>
      <trkpt lat="36.01716994307935" lon="129.3458609841764">
        <ele>14.2</ele>
        <time>2026-06-05T14:36:06</time>
      </trkpt>
      <trkpt lat="36.01713599637151" lon="129.34582494199276">
        <ele>14.2</ele>
        <time>2026-06-05T14:36:07</time>
      </trkpt>
      <trkpt lat="36.01710397750139" lon="129.34578898362815">
        <ele>14.2</ele>
        <time>2026-06-05T14:36:08</time>
      </trkpt>
      <trkpt lat="36.01707296445966" lon="129.34575495310128">
        <ele>14.2</ele>
        <time>2026-06-05T14:36:09</time>
      </trkpt>
      <trkpt lat="36.017042957246304" lon="129.3457209225744">
        <ele>14.2</ele>
        <time>2026-06-05T14:36:10</time>
      </trkpt>
      <trkpt lat="36.01701395586133" lon="129.34568597003818">
        <ele>14.2</ele>
        <time>2026-06-05T14:36:11</time>
      </trkpt>
      <trkpt lat="36.01698495447636" lon="129.34564892202616">
        <ele>14.0</ele>
        <time>2026-06-05T14:36:12</time>
      </trkpt>
      <trkpt lat="36.01695192977786" lon="129.3456109520048">
        <ele>14.0</ele>
        <time>2026-06-05T14:36:13</time>
      </trkpt>
      <trkpt lat="36.016916977241635" lon="129.34557197615504">
        <ele>14.0</ele>
        <time>2026-06-05T14:36:14</time>
      </trkpt>
      <trkpt lat="36.016880935058" lon="129.34553098864853">
        <ele>14.0</ele>
        <time>2026-06-05T14:36:15</time>
      </trkpt>
      <trkpt lat="36.01684095337987" lon="129.34548899531364">
        <ele>14.0</ele>
        <time>2026-06-05T14:36:16</time>
      </trkpt>
      <trkpt lat="36.0167979542166" lon="129.3454439844936">
        <ele>14.0</ele>
        <time>2026-06-05T14:36:17</time>
      </trkpt>
      <trkpt lat="36.01675294339657" lon="129.34539997950196">
        <ele>14.0</ele>
        <time>2026-06-05T14:36:18</time>
      </trkpt>
      <trkpt lat="36.01670499891043" lon="129.34535496868193">
        <ele>14.0</ele>
        <time>2026-06-05T14:36:19</time>
      </trkpt>
      <trkpt lat="36.016656970605254" lon="129.3453099578619">
        <ele>14.0</ele>
        <time>2026-06-05T14:36:20</time>
      </trkpt>
      <trkpt lat="36.01660994812846" lon="129.3452639412135">
        <ele>14.0</ele>
        <time>2026-06-05T14:36:21</time>
      </trkpt>
      <trkpt lat="36.01656393148005" lon="129.34521893039346">
        <ele>14.2</ele>
        <time>2026-06-05T14:36:22</time>
      </trkpt>
      <trkpt lat="36.0165199264884" lon="129.3451759312302">
        <ele>14.2</ele>
        <time>2026-06-05T14:36:23</time>
      </trkpt>
      <trkpt lat="36.01647893898189" lon="129.34513293206692">
        <ele>14.2</ele>
        <time>2026-06-05T14:36:24</time>
      </trkpt>
      <trkpt lat="36.01643996313214" lon="129.3450919445604">
        <ele>14.2</ele>
        <time>2026-06-05T14:36:25</time>
      </trkpt>
      <trkpt lat="36.016401993110776" lon="129.34505196288228">
        <ele>14.2</ele>
        <time>2026-06-05T14:36:26</time>
      </trkpt>
      <trkpt lat="36.01636695675552" lon="129.34501097537577">
        <ele>14.2</ele>
        <time>2026-06-05T14:36:27</time>
      </trkpt>
      <trkpt lat="36.01633099839091" lon="129.34496998786926">
        <ele>14.2</ele>
        <time>2026-06-05T14:36:28</time>
      </trkpt>
      <trkpt lat="36.016293950378895" lon="129.34493092820048">
        <ele>14.2</ele>
        <time>2026-06-05T14:36:29</time>
      </trkpt>
      <trkpt lat="36.01625698618591" lon="129.34489295817912">
        <ele>14.2</ele>
        <time>2026-06-05T14:36:30</time>
      </trkpt>
      <trkpt lat="36.01621792651713" lon="129.344860939309">
        <ele>14.2</ele>
        <time>2026-06-05T14:36:31</time>
      </trkpt>
      <trkpt lat="36.01617693901062" lon="129.3448329437524">
        <ele>14.2</ele>
        <time>2026-06-05T14:36:32</time>
      </trkpt>
      <trkpt lat="36.01613595150411" lon="129.3448059540242">
        <ele>14.2</ele>
        <time>2026-06-05T14:36:33</time>
      </trkpt>
      <trkpt lat="36.01609395816922" lon="129.34477695263922">
        <ele>14.0</ele>
        <time>2026-06-05T14:36:34</time>
      </trkpt>
      <trkpt lat="36.01605297066271" lon="129.3447459395975">
        <ele>14.0</ele>
        <time>2026-06-05T14:36:35</time>
      </trkpt>
      <trkpt lat="36.016011983156204" lon="129.34470998123288">
        <ele>14.0</ele>
        <time>2026-06-05T14:36:36</time>
      </trkpt>
      <trkpt lat="36.015971917659044" lon="129.3446709215641">
        <ele>13.8</ele>
        <time>2026-06-05T14:36:37</time>
      </trkpt>
      <trkpt lat="36.01593394763768" lon="129.34462792240083">
        <ele>13.8</ele>
        <time>2026-06-05T14:36:38</time>
      </trkpt>
      <trkpt lat="36.01589597761631" lon="129.34458391740918">
        <ele>13.6</ele>
        <time>2026-06-05T14:36:39</time>
      </trkpt>
      <trkpt lat="36.01585993543267" lon="129.3445409182459">
        <ele>13.6</ele>
        <time>2026-06-05T14:36:40</time>
      </trkpt>
      <trkpt lat="36.01582397706807" lon="129.34450093656778">
        <ele>13.4</ele>
        <time>2026-06-05T14:36:41</time>
      </trkpt>
      <trkpt lat="36.01578793488443" lon="129.3444639723748">
        <ele>13.4</ele>
        <time>2026-06-05T14:36:42</time>
      </trkpt>
      <trkpt lat="36.01575197651982" lon="129.34442793019116">
        <ele>13.4</ele>
        <time>2026-06-05T14:36:43</time>
      </trkpt>
      <trkpt lat="36.01571794599295" lon="129.34439197182655">
        <ele>13.4</ele>
        <time>2026-06-05T14:36:44</time>
      </trkpt>
      <trkpt lat="36.01568492129445" lon="129.34435592964292">
        <ele>13.4</ele>
        <time>2026-06-05T14:36:45</time>
      </trkpt>
      <trkpt lat="36.01565298624337" lon="129.34431896544993">
        <ele>13.4</ele>
        <time>2026-06-05T14:36:46</time>
      </trkpt>
      <trkpt lat="36.015623984858394" lon="129.34427998960018">
        <ele>13.6</ele>
        <time>2026-06-05T14:36:47</time>
      </trkpt>
      <trkpt lat="36.01560093462467" lon="129.3442369904369">
        <ele>13.6</ele>
        <time>2026-06-05T14:36:48</time>
      </trkpt>
      <trkpt lat="36.015580985695124" lon="129.34419298544526">
        <ele>13.6</ele>
        <time>2026-06-05T14:36:49</time>
      </trkpt>
      <trkpt lat="36.01555994711816" lon="129.344149986282">
        <ele>13.6</ele>
        <time>2026-06-05T14:36:50</time>
      </trkpt>
      <trkpt lat="36.015537986531854" lon="129.34410899877548">
        <ele>13.8</ele>
        <time>2026-06-05T14:36:51</time>
      </trkpt>
      <trkpt lat="36.01551099680364" lon="129.34407094493508">
        <ele>13.8</ele>
        <time>2026-06-05T14:36:52</time>
      </trkpt>
      <trkpt lat="36.01547998376191" lon="129.34403498657048">
        <ele>13.8</ele>
        <time>2026-06-05T14:36:53</time>
      </trkpt>
      <trkpt lat="36.01544494740665" lon="129.34400196187198">
        <ele>13.8</ele>
        <time>2026-06-05T14:36:54</time>
      </trkpt>
      <trkpt lat="36.0154059715569" lon="129.34396893717349">
        <ele>13.8</ele>
        <time>2026-06-05T14:36:55</time>
      </trkpt>
      <trkpt lat="36.015368923544884" lon="129.34393398463726">
        <ele>13.8</ele>
        <time>2026-06-05T14:36:56</time>
      </trkpt>
      <trkpt lat="36.01533296518028" lon="129.34389593079686">
        <ele>13.8</ele>
        <time>2026-06-05T14:36:57</time>
      </trkpt>
      <trkpt lat="36.01530094631016" lon="129.3438569549471">
        <ele>13.8</ele>
        <time>2026-06-05T14:36:58</time>
      </trkpt>
      <trkpt lat="36.01526993326843" lon="129.34381999075413">
        <ele>13.8</ele>
        <time>2026-06-05T14:36:59</time>
      </trkpt>
      <trkpt lat="36.015239926055074" lon="129.34378596022725">
        <ele>13.8</ele>
        <time>2026-06-05T14:37:00</time>
      </trkpt>
      <trkpt lat="36.01521293632686" lon="129.34375494718552">
        <ele>13.8</ele>
        <time>2026-06-05T14:37:01</time>
      </trkpt>
      <trkpt lat="36.01518896408379" lon="129.3437279574573">
        <ele>13.8</ele>
        <time>2026-06-05T14:37:02</time>
      </trkpt>
      <trkpt lat="36.01516691967845" lon="129.3436999619007">
        <ele>13.8</ele>
        <time>2026-06-05T14:37:03</time>
      </trkpt>
      <trkpt lat="36.01514294743538" lon="129.3436729721725">
        <ele>13.8</ele>
        <time>2026-06-05T14:37:04</time>
      </trkpt>
      <trkpt lat="36.015113946050406" lon="129.3436459824443">
        <ele>13.8</ele>
        <time>2026-06-05T14:37:05</time>
      </trkpt>
      <trkpt lat="36.01508192718029" lon="129.34361899271607">
        <ele>13.8</ele>
        <time>2026-06-05T14:37:06</time>
      </trkpt>
      <trkpt lat="36.015046974644065" lon="129.34358797967434">
        <ele>13.8</ele>
        <time>2026-06-05T14:37:07</time>
      </trkpt>
      <trkpt lat="36.01500992663205" lon="129.34355495497584">
        <ele>13.8</ele>
        <time>2026-06-05T14:37:08</time>
      </trkpt>
      <trkpt lat="36.01497296243906" lon="129.3435199186206">
        <ele>13.8</ele>
        <time>2026-06-05T14:37:09</time>
      </trkpt>
      <trkpt lat="36.014935998246074" lon="129.3434829544276">
        <ele>13.8</ele>
        <time>2026-06-05T14:37:10</time>
      </trkpt>
      <trkpt lat="36.01490096189082" lon="129.343446996063">
        <ele>13.8</ele>
        <time>2026-06-05T14:37:11</time>
      </trkpt>
      <trkpt lat="36.01486793719232" lon="129.34341195970774">
        <ele>13.8</ele>
        <time>2026-06-05T14:37:12</time>
      </trkpt>
      <trkpt lat="36.014835918322206" lon="129.343380946666">
        <ele>13.8</ele>
        <time>2026-06-05T14:37:13</time>
      </trkpt>
      <trkpt lat="36.01480892859399" lon="129.3433529511094">
        <ele>13.8</ele>
        <time>2026-06-05T14:37:14</time>
      </trkpt>
      <trkpt lat="36.01478193886578" lon="129.34332495555282">
        <ele>13.6</ele>
        <time>2026-06-05T14:37:15</time>
      </trkpt>
      <trkpt lat="36.01475897245109" lon="129.3432979658246">
        <ele>13.6</ele>
        <time>2026-06-05T14:37:16</time>
      </trkpt>
      <trkpt lat="36.01473994553089" lon="129.34327592141926">
        <ele>13.6</ele>
        <time>2026-06-05T14:37:17</time>
      </trkpt>
      <trkpt lat="36.014724941924214" lon="129.34325999580324">
        <ele>13.6</ele>
        <time>2026-06-05T14:37:18</time>
      </trkpt>
      <trkpt lat="36.0147119499743" lon="129.3432469200343">
        <ele>13.8</ele>
        <time>2026-06-05T14:37:19</time>
      </trkpt>
      <trkpt lat="36.014701975509524" lon="129.34323694556952">
        <ele>13.8</ele>
        <time>2026-06-05T14:37:20</time>
      </trkpt>
      <trkpt lat="36.0146929230541" lon="129.34322697110474">
        <ele>13.8</ele>
        <time>2026-06-05T14:37:21</time>
      </trkpt>
      <trkpt lat="36.014683954417706" lon="129.34321297332644">
        <ele>13.8</ele>
        <time>2026-06-05T14:37:22</time>
      </trkpt>
      <trkpt lat="36.01467196829617" lon="129.34319495223463">
        <ele>14.0</ele>
        <time>2026-06-05T14:37:23</time>
      </trkpt>
      <trkpt lat="36.01465495303273" lon="129.34316997416317">
        <ele>14.0</ele>
        <time>2026-06-05T14:37:24</time>
      </trkpt>
      <trkpt lat="36.0146339982748" lon="129.34314298443496">
        <ele>14.2</ele>
        <time>2026-06-05T14:37:25</time>
      </trkpt>
      <trkpt lat="36.01460591889918" lon="129.34311398305">
        <ele>14.2</ele>
        <time>2026-06-05T14:37:26</time>
      </trkpt>
      <trkpt lat="36.014573983848095" lon="129.34308498166502">
        <ele>14.2</ele>
        <time>2026-06-05T14:37:27</time>
      </trkpt>
      <trkpt lat="36.0145409591496" lon="129.34305497445166">
        <ele>14.2</ele>
        <time>2026-06-05T14:37:28</time>
      </trkpt>
      <trkpt lat="36.01450592279434" lon="129.34302295558155">
        <ele>14.2</ele>
        <time>2026-06-05T14:37:29</time>
      </trkpt>
      <trkpt lat="36.014469964429736" lon="129.34298892505467">
        <ele>14.2</ele>
        <time>2026-06-05T14:37:30</time>
      </trkpt>
      <trkpt lat="36.0144339222461" lon="129.34295196086168">
        <ele>14.2</ele>
        <time>2026-06-05T14:37:31</time>
      </trkpt>
      <trkpt lat="36.01439595222473" lon="129.34291399084032">
        <ele>14.2</ele>
        <time>2026-06-05T14:37:32</time>
      </trkpt>
      <trkpt lat="36.014357982203364" lon="129.34287593699992">
        <ele>14.2</ele>
        <time>2026-06-05T14:37:33</time>
      </trkpt>
      <trkpt lat="36.014319928362966" lon="129.3428359553218">
        <ele>14.2</ele>
        <time>2026-06-05T14:37:34</time>
      </trkpt>
      <trkpt lat="36.0142819583416" lon="129.34279697947204">
        <ele>14.2</ele>
        <time>2026-06-05T14:37:35</time>
      </trkpt>
      <trkpt lat="36.01424499414861" lon="129.34275892563164">
        <ele>14.4</ele>
        <time>2026-06-05T14:37:36</time>
      </trkpt>
      <trkpt lat="36.014209957793355" lon="129.34272095561028">
        <ele>14.4</ele>
        <time>2026-06-05T14:37:37</time>
      </trkpt>
      <trkpt lat="36.01417793892324" lon="129.3426829855889">
        <ele>14.4</ele>
        <time>2026-06-05T14:37:38</time>
      </trkpt>
      <trkpt lat="36.014146925881505" lon="129.3426449317485">
        <ele>14.4</ele>
        <time>2026-06-05T14:37:39</time>
      </trkpt>
      <trkpt lat="36.01411691866815" lon="129.3426089733839">
        <ele>14.4</ele>
        <time>2026-06-05T14:37:40</time>
      </trkpt>
      <trkpt lat="36.01408699527383" lon="129.3425759486854">
        <ele>14.4</ele>
        <time>2026-06-05T14:37:41</time>
      </trkpt>
      <trkpt lat="36.01405497640371" lon="129.34254594147205">
        <ele>14.6</ele>
        <time>2026-06-05T14:37:42</time>
      </trkpt>
      <trkpt lat="36.01402094587684" lon="129.34251995757222">
        <ele>14.6</ele>
        <time>2026-06-05T14:37:43</time>
      </trkpt>
      <trkpt lat="36.01398398168385" lon="129.3424979969859">
        <ele>14.6</ele>
        <time>2026-06-05T14:37:44</time>
      </trkpt>
      <trkpt lat="36.01394492201507" lon="129.34248492121696">
        <ele>14.6</ele>
        <time>2026-06-05T14:37:45</time>
      </trkpt>
      <trkpt lat="36.013906951993704" lon="129.34247192926705">
        <ele>14.6</ele>
        <time>2026-06-05T14:37:46</time>
      </trkpt>
      <trkpt lat="36.0138709936291" lon="129.34245399199426">
        <ele>14.6</ele>
        <time>2026-06-05T14:37:47</time>
      </trkpt>
      <trkpt lat="36.01383897475898" lon="129.3424279242754">
        <ele>14.6</ele>
        <time>2026-06-05T14:37:48</time>
      </trkpt>
      <trkpt lat="36.01381097920239" lon="129.3423969950527">
        <ele>14.6</ele>
        <time>2026-06-05T14:37:49</time>
      </trkpt>
      <trkpt lat="36.01378398947418" lon="129.34236497618258">
        <ele>14.6</ele>
        <time>2026-06-05T14:37:50</time>
      </trkpt>
      <trkpt lat="36.013757921755314" lon="129.34233396314085">
        <ele>14.6</ele>
        <time>2026-06-05T14:37:51</time>
      </trkpt>
      <trkpt lat="36.013734955340624" lon="129.3423029500991">
        <ele>14.6</ele>
        <time>2026-06-05T14:37:52</time>
      </trkpt>
      <trkpt lat="36.013717940077186" lon="129.342270931229">
        <ele>14.6</ele>
        <time>2026-06-05T14:37:53</time>
      </trkpt>
      <trkpt lat="36.01370394229889" lon="129.3422389961779">
        <ele>14.6</ele>
        <time>2026-06-05T14:37:54</time>
      </trkpt>
      <trkpt lat="36.013694973662496" lon="129.34220798313618">
        <ele>14.6</ele>
        <time>2026-06-05T14:37:55</time>
      </trkpt>
      <trkpt lat="36.01368592120707" lon="129.34217998757958">
        <ele>14.6</ele>
        <time>2026-06-05T14:37:56</time>
      </trkpt>
      <trkpt lat="36.013673935085535" lon="129.34215391986072">
        <ele>14.6</ele>
        <time>2026-06-05T14:37:57</time>
      </trkpt>
      <trkpt lat="36.01365792565048" lon="129.3421279359609">
        <ele>14.6</ele>
        <time>2026-06-05T14:37:58</time>
      </trkpt>
      <trkpt lat="36.01363797672093" lon="129.34210396371782">
        <ele>14.6</ele>
        <time>2026-06-05T14:37:59</time>
      </trkpt>
      <trkpt lat="36.01361299864948" lon="129.34208292514086">
        <ele>14.6</ele>
        <time>2026-06-05T14:38:00</time>
      </trkpt>
      <trkpt lat="36.013582991436124" lon="129.34206699952483">
        <ele>14.6</ele>
        <time>2026-06-05T14:38:01</time>
      </trkpt>
      <trkpt lat="36.01354896090925" lon="129.34205694124103">
        <ele>14.6</ele>
        <time>2026-06-05T14:38:02</time>
      </trkpt>
      <trkpt lat="36.01351392455399" lon="129.34204596094787">
        <ele>14.6</ele>
        <time>2026-06-05T14:38:03</time>
      </trkpt>
      <trkpt lat="36.013479977846146" lon="129.34202894568443">
        <ele>14.8</ele>
        <time>2026-06-05T14:38:04</time>
      </trkpt>
      <trkpt lat="36.01344695314765" lon="129.34200396761298">
        <ele>14.8</ele>
        <time>2026-06-05T14:38:05</time>
      </trkpt>
      <trkpt lat="36.01341292262077" lon="129.34197194874287">
        <ele>14.8</ele>
        <time>2026-06-05T14:38:06</time>
      </trkpt>
      <trkpt lat="36.01337797008455" lon="129.34193498454988">
        <ele>14.8</ele>
        <time>2026-06-05T14:38:07</time>
      </trkpt>
      <trkpt lat="36.01334293372929" lon="129.34189491905272">
        <ele>14.8</ele>
        <time>2026-06-05T14:38:08</time>
      </trkpt>
      <trkpt lat="36.013305969536304" lon="129.3418509978801">
        <ele>14.8</ele>
        <time>2026-06-05T14:38:09</time>
      </trkpt>
      <trkpt lat="36.01326992735267" lon="129.34180196374655">
        <ele>14.8</ele>
        <time>2026-06-05T14:38:10</time>
      </trkpt>
      <trkpt lat="36.01323396898806" lon="129.34175091795623">
        <ele>14.8</ele>
        <time>2026-06-05T14:38:11</time>
      </trkpt>
      <trkpt lat="36.013199938461185" lon="129.34169895015657">
        <ele>14.8</ele>
        <time>2026-06-05T14:38:12</time>
      </trkpt>
      <trkpt lat="36.01316699758172" lon="129.3416479881853">
        <ele>15.0</ele>
        <time>2026-06-05T14:38:13</time>
      </trkpt>
      <trkpt lat="36.013134978711605" lon="129.34159895405173">
        <ele>15.0</ele>
        <time>2026-06-05T14:38:14</time>
      </trkpt>
      <trkpt lat="36.01310497149825" lon="129.34155092574656">
        <ele>15.0</ele>
        <time>2026-06-05T14:38:15</time>
      </trkpt>
      <trkpt lat="36.0130749642849" lon="129.3415069207549">
        <ele>15.2</ele>
        <time>2026-06-05T14:38:16</time>
      </trkpt>
      <trkpt lat="36.013047974556684" lon="129.34146098792553">
        <ele>15.2</ele>
        <time>2026-06-05T14:38:17</time>
      </trkpt>
      <trkpt lat="36.01301897317171" lon="129.3414109479636">
        <ele>15.4</ele>
        <time>2026-06-05T14:38:18</time>
      </trkpt>
      <trkpt lat="36.012985948473215" lon="129.34136199764907">
        <ele>15.4</ele>
        <time>2026-06-05T14:38:19</time>
      </trkpt>
      <trkpt lat="36.01294697262347" lon="129.34131497517228">
        <ele>15.4</ele>
        <time>2026-06-05T14:38:20</time>
      </trkpt>
      <trkpt lat="36.01290992461145" lon="129.34126895852387">
        <ele>15.4</ele>
        <time>2026-06-05T14:38:21</time>
      </trkpt>
      <trkpt lat="36.01287195459008" lon="129.34122394770384">
        <ele>15.4</ele>
        <time>2026-06-05T14:38:22</time>
      </trkpt>
      <trkpt lat="36.012832978740335" lon="129.3411799427122">
        <ele>15.4</ele>
        <time>2026-06-05T14:38:23</time>
      </trkpt>
      <trkpt lat="36.012790985405445" lon="129.34113593772054">
        <ele>15.4</ele>
        <time>2026-06-05T14:38:24</time>
      </trkpt>
      <trkpt lat="36.012748992070556" lon="129.3410919327289">
        <ele>15.6</ele>
        <time>2026-06-05T14:38:25</time>
      </trkpt>
      <trkpt lat="36.012706998735666" lon="129.341049939394">
        <ele>15.6</ele>
        <time>2026-06-05T14:38:26</time>
      </trkpt>
      <trkpt lat="36.012665927410126" lon="129.34101196937263">
        <ele>15.6</ele>
        <time>2026-06-05T14:38:27</time>
      </trkpt>
      <trkpt lat="36.01262896321714" lon="129.34097995050251">
        <ele>15.6</ele>
        <time>2026-06-05T14:38:28</time>
      </trkpt>
      <trkpt lat="36.01259493269026" lon="129.34095698408782">
        <ele>15.6</ele>
        <time>2026-06-05T14:38:29</time>
      </trkpt>
      <trkpt lat="36.01256593130529" lon="129.34094198048115">
        <ele>15.4</ele>
        <time>2026-06-05T14:38:30</time>
      </trkpt>
      <trkpt lat="36.01254195906222" lon="129.34092798270285">
        <ele>15.4</ele>
        <time>2026-06-05T14:38:31</time>
      </trkpt>
      <trkpt lat="36.01252293214202" lon="129.34091297909617">
        <ele>15.4</ele>
        <time>2026-06-05T14:38:32</time>
      </trkpt>
      <trkpt lat="36.01250591687858" lon="129.3408979754895">
        <ele>15.4</ele>
        <time>2026-06-05T14:38:33</time>
      </trkpt>
      <trkpt lat="36.012490997090936" lon="129.34088297188282">
        <ele>15.4</ele>
        <time>2026-06-05T14:38:34</time>
      </trkpt>
      <trkpt lat="36.01247699931264" lon="129.34086696244776">
        <ele>15.4</ele>
        <time>2026-06-05T14:38:35</time>
      </trkpt>
      <trkpt lat="36.01246492937207" lon="129.34085397049785">
        <ele>15.4</ele>
        <time>2026-06-05T14:38:36</time>
      </trkpt>
      <trkpt lat="36.0124549549073" lon="129.3408419843763">
        <ele>15.4</ele>
        <time>2026-06-05T14:38:37</time>
      </trkpt>
      <trkpt lat="36.012444980442524" lon="129.34083092026412">
        <ele>15.6</ele>
        <time>2026-06-05T14:38:38</time>
      </trkpt>
      <trkpt lat="36.0124359279871" lon="129.3408239632845">
        <ele>15.6</ele>
        <time>2026-06-05T14:38:39</time>
      </trkpt>
      <trkpt lat="36.01243098266423" lon="129.34082094579935">
        <ele>15.8</ele>
        <time>2026-06-05T14:38:40</time>
      </trkpt>
      <trkpt lat="36.01242997683585" lon="129.3408189341426">
        <ele>15.8</ele>
        <time>2026-06-05T14:38:41</time>
      </trkpt>
      <trkpt lat="36.01243198849261" lon="129.34081692248583">
        <ele>15.8</ele>
        <time>2026-06-05T14:38:42</time>
      </trkpt>
      <trkpt lat="36.01243693381548" lon="129.34081398881972">
        <ele>16.0</ele>
        <time>2026-06-05T14:38:43</time>
      </trkpt>
      <trkpt lat="36.01243995130062" lon="129.34077593497932">
        <ele>15.4</ele>
        <time>2026-06-05T14:42:30</time>
      </trkpt>
      <trkpt lat="36.01243492215872" lon="129.340753974393">
        <ele>15.4</ele>
        <time>2026-06-05T14:42:31</time>
      </trkpt>
      <trkpt lat="36.012426959350705" lon="129.3407309241593">
        <ele>15.2</ele>
        <time>2026-06-05T14:42:32</time>
      </trkpt>
      <trkpt lat="36.01241497322917" lon="129.34070494025946">
        <ele>15.2</ele>
        <time>2026-06-05T14:42:33</time>
      </trkpt>
      <trkpt lat="36.01239695213735" lon="129.34067895635962">
        <ele>15.2</ele>
        <time>2026-06-05T14:42:34</time>
      </trkpt>
      <trkpt lat="36.01237297989428" lon="129.34065096080303">
        <ele>15.2</ele>
        <time>2026-06-05T14:42:35</time>
      </trkpt>
      <trkpt lat="36.01234599016607" lon="129.34062296524644">
        <ele>15.2</ele>
        <time>2026-06-05T14:42:36</time>
      </trkpt>
      <trkpt lat="36.012316988781095" lon="129.34059496968985">
        <ele>15.2</ele>
        <time>2026-06-05T14:42:37</time>
      </trkpt>
      <trkpt lat="36.0122839640826" lon="129.34056797996163">
        <ele>15.4</ele>
        <time>2026-06-05T14:42:38</time>
      </trkpt>
      <trkpt lat="36.01224792189896" lon="129.34053897857666">
        <ele>15.4</ele>
        <time>2026-06-05T14:42:39</time>
      </trkpt>
      <trkpt lat="36.012210957705975" lon="129.3405039422214">
        <ele>15.4</ele>
        <time>2026-06-05T14:42:40</time>
      </trkpt>
      <trkpt lat="36.01217399351299" lon="129.34046597220004">
        <ele>15.6</ele>
        <time>2026-06-05T14:42:41</time>
      </trkpt>
      <trkpt lat="36.01213895715773" lon="129.34042892418802">
        <ele>15.6</ele>
        <time>2026-06-05T14:42:42</time>
      </trkpt>
      <trkpt lat="36.012103920802474" lon="129.34039195999503">
        <ele>15.8</ele>
        <time>2026-06-05T14:42:43</time>
      </trkpt>
      <trkpt lat="36.01206997409463" lon="129.3403559178114">
        <ele>15.8</ele>
        <time>2026-06-05T14:42:44</time>
      </trkpt>
      <trkpt lat="36.012037955224514" lon="129.3403199594468">
        <ele>15.8</ele>
        <time>2026-06-05T14:42:45</time>
      </trkpt>
      <trkpt lat="36.01200694218278" lon="129.3402869347483">
        <ele>15.8</ele>
        <time>2026-06-05T14:42:46</time>
      </trkpt>
      <trkpt lat="36.011976934969425" lon="129.34025793336332">
        <ele>15.8</ele>
        <time>2026-06-05T14:42:47</time>
      </trkpt>
      <trkpt lat="36.01194893941283" lon="129.34023295529187">
        <ele>15.8</ele>
        <time>2026-06-05T14:42:48</time>
      </trkpt>
      <trkpt lat="36.011922955513" lon="129.3402129225433">
        <ele>15.8</ele>
        <time>2026-06-05T14:42:49</time>
      </trkpt>
      <trkpt lat="36.01189998909831" lon="129.34019397944212">
        <ele>15.8</ele>
        <time>2026-06-05T14:42:50</time>
      </trkpt>
      <trkpt lat="36.01187995634973" lon="129.34017696417868">
        <ele>15.8</ele>
        <time>2026-06-05T14:42:51</time>
      </trkpt>
      <trkpt lat="36.01186394691467" lon="129.34015894308686">
        <ele>15.8</ele>
        <time>2026-06-05T14:42:52</time>
      </trkpt>
      <trkpt lat="36.01185095496476" lon="129.3401399999857">
        <ele>15.8</ele>
        <time>2026-06-05T14:42:53</time>
      </trkpt>
      <trkpt lat="36.01184098049998" lon="129.34012399055064">
        <ele>15.8</ele>
        <time>2026-06-05T14:42:54</time>
      </trkpt>
      <trkpt lat="36.01183695718646" lon="129.3401159439236">
        <ele>15.8</ele>
        <time>2026-06-05T14:42:55</time>
      </trkpt>
      <trkpt lat="36.01183695718646" lon="129.34011292643845">
        <ele>15.8</ele>
        <time>2026-06-05T14:42:56</time>
      </trkpt>
      <trkpt lat="36.01183896884322" lon="129.34011192061007">
        <ele>15.8</ele>
        <time>2026-06-05T14:42:57</time>
      </trkpt>
      <trkpt lat="36.01184198632836" lon="129.34011292643845">
        <ele>15.8</ele>
        <time>2026-06-05T14:42:58</time>
      </trkpt>
      <trkpt lat="36.0118349455297" lon="129.34008199721575">
        <ele>15.8</ele>
        <time>2026-06-05T14:43:15</time>
      </trkpt>
      <trkpt lat="36.01182798855007" lon="129.34007193893194">
        <ele>15.8</ele>
        <time>2026-06-05T14:43:16</time>
      </trkpt>
      <trkpt lat="36.01181893609464" lon="129.3400609586388">
        <ele>15.8</ele>
        <time>2026-06-05T14:43:17</time>
      </trkpt>
      <trkpt lat="36.011804938316345" lon="129.3400459550321">
        <ele>15.8</ele>
        <time>2026-06-05T14:43:18</time>
      </trkpt>
      <trkpt lat="36.011786917224526" lon="129.34002491645515">
        <ele>15.8</ele>
        <time>2026-06-05T14:43:19</time>
      </trkpt>
      <trkpt lat="36.011763950809836" lon="129.33999792672694">
        <ele>15.8</ele>
        <time>2026-06-05T14:43:20</time>
      </trkpt>
      <trkpt lat="36.01173394359648" lon="129.33996699750423">
        <ele>15.8</ele>
        <time>2026-06-05T14:43:21</time>
      </trkpt>
      <trkpt lat="36.011697985231876" lon="129.33993296697736">
        <ele>15.8</ele>
        <time>2026-06-05T14:43:22</time>
      </trkpt>
      <trkpt lat="36.0116589255631" lon="129.339894996956">
        <ele>15.8</ele>
        <time>2026-06-05T14:43:23</time>
      </trkpt>
      <trkpt lat="36.01161793805659" lon="129.33985493145883">
        <ele>15.6</ele>
        <time>2026-06-05T14:43:24</time>
      </trkpt>
      <trkpt lat="36.01157493889332" lon="129.33981193229556">
        <ele>15.6</ele>
        <time>2026-06-05T14:43:25</time>
      </trkpt>
      <trkpt lat="36.01153193973005" lon="129.3397689331323">
        <ele>15.8</ele>
        <time>2026-06-05T14:43:26</time>
      </trkpt>
      <trkpt lat="36.01149095222354" lon="129.33972794562578">
        <ele>15.8</ele>
        <time>2026-06-05T14:43:27</time>
      </trkpt>
      <trkpt lat="36.01145298220217" lon="129.33968997560441">
        <ele>15.8</ele>
        <time>2026-06-05T14:43:28</time>
      </trkpt>
      <trkpt lat="36.01142096333206" lon="129.3396529275924">
        <ele>15.8</ele>
        <time>2026-06-05T14:43:29</time>
      </trkpt>
      <trkpt lat="36.0113909561187" lon="129.33961797505617">
        <ele>15.8</ele>
        <time>2026-06-05T14:43:30</time>
      </trkpt>
      <trkpt lat="36.01136296056211" lon="129.33958495035768">
        <ele>15.8</ele>
        <time>2026-06-05T14:43:31</time>
      </trkpt>
      <trkpt lat="36.0113359708339" lon="129.33955393731594">
        <ele>15.8</ele>
        <time>2026-06-05T14:43:32</time>
      </trkpt>
      <trkpt lat="36.011308981105685" lon="129.3395239301026">
        <ele>15.6</ele>
        <time>2026-06-05T14:43:33</time>
      </trkpt>
      <trkpt lat="36.01128299720585" lon="129.33949694037437">
        <ele>15.6</ele>
        <time>2026-06-05T14:43:34</time>
      </trkpt>
      <trkpt lat="36.01125793531537" lon="129.33947095647454">
        <ele>15.6</ele>
        <time>2026-06-05T14:43:35</time>
      </trkpt>
      <trkpt lat="36.01123597472906" lon="129.3394459784031">
        <ele>15.6</ele>
        <time>2026-06-05T14:43:36</time>
      </trkpt>
      <trkpt lat="36.01121393032372" lon="129.33942393399775">
        <ele>15.6</ele>
        <time>2026-06-05T14:43:37</time>
      </trkpt>
      <trkpt lat="36.01119297556579" lon="129.33940096758306">
        <ele>15.6</ele>
        <time>2026-06-05T14:43:38</time>
      </trkpt>
      <trkpt lat="36.01117193698883" lon="129.33938093483448">
        <ele>15.6</ele>
        <time>2026-06-05T14:43:39</time>
      </trkpt>
      <trkpt lat="36.01115198805928" lon="129.33936391957104">
        <ele>15.6</ele>
        <time>2026-06-05T14:43:40</time>
      </trkpt>
      <trkpt lat="36.01113396696746" lon="129.33934799395502">
        <ele>15.6</ele>
        <time>2026-06-05T14:43:41</time>
      </trkpt>
      <trkpt lat="36.011114940047264" lon="129.33933491818607">
        <ele>15.6</ele>
        <time>2026-06-05T14:43:42</time>
      </trkpt>
      <trkpt lat="36.011096918955445" lon="129.3393239378929">
        <ele>15.6</ele>
        <time>2026-06-05T14:43:43</time>
      </trkpt>
      <trkpt lat="36.01107898168266" lon="129.33931295759976">
        <ele>15.6</ele>
        <time>2026-06-05T14:43:44</time>
      </trkpt>
      <trkpt lat="36.01105995476246" lon="129.33930097147822">
        <ele>15.6</ele>
        <time>2026-06-05T14:43:45</time>
      </trkpt>
      <trkpt lat="36.01103992201388" lon="129.33929393067956">
        <ele>15.6</ele>
        <time>2026-06-05T14:43:46</time>
      </trkpt>
      <trkpt lat="36.01101896725595" lon="129.33929493650794">
        <ele>15.6</ele>
        <time>2026-06-05T14:43:47</time>
      </trkpt>
      <trkpt lat="36.011005975306034" lon="129.33930893428624">
        <ele>15.6</ele>
        <time>2026-06-05T14:43:48</time>
      </trkpt>
      <trkpt lat="36.01100496947765" lon="129.33933097869158">
        <ele>15.6</ele>
        <time>2026-06-05T14:43:49</time>
      </trkpt>
      <trkpt lat="36.01101594977081" lon="129.33935495093465">
        <ele>15.8</ele>
        <time>2026-06-05T14:43:50</time>
      </trkpt>
      <trkpt lat="36.011032965034246" lon="129.33937699534">
        <ele>15.6</ele>
        <time>2026-06-05T14:43:51</time>
      </trkpt>
      <trkpt lat="36.011052997782826" lon="129.33939593844116">
        <ele>15.6</ele>
        <time>2026-06-05T14:43:52</time>
      </trkpt>
      <trkpt lat="36.011071940883994" lon="129.33941094204783">
        <ele>15.6</ele>
        <time>2026-06-05T14:43:53</time>
      </trkpt>
      <trkpt lat="36.01108895614743" lon="129.3394259456545">
        <ele>15.6</ele>
        <time>2026-06-05T14:43:54</time>
      </trkpt>
      <trkpt lat="36.01110395975411" lon="129.33943793177605">
        <ele>15.6</ele>
        <time>2026-06-05T14:43:55</time>
      </trkpt>
      <trkpt lat="36.0111129283905" lon="129.33944396674633">
        <ele>15.6</ele>
        <time>2026-06-05T14:43:56</time>
      </trkpt>
      <trkpt lat="36.011116951704025" lon="129.3394459784031">
        <ele>15.6</ele>
        <time>2026-06-05T14:43:57</time>
      </trkpt>
      <trkpt lat="36.011116951704025" lon="129.33944698423147">
        <ele>15.4</ele>
        <time>2026-06-05T14:43:58</time>
      </trkpt>
      <trkpt lat="36.011115945875645" lon="129.33944991789758">
        <ele>15.4</ele>
        <time>2026-06-05T14:43:59</time>
      </trkpt>
      <trkpt lat="36.011093985289335" lon="129.33947095647454">
        <ele>15.2</ele>
        <time>2026-06-05T14:44:02</time>
      </trkpt>
      <trkpt lat="36.0110819991678" lon="129.3394729681313">
        <ele>15.2</ele>
        <time>2026-06-05T14:44:03</time>
      </trkpt>
      <trkpt lat="36.01106791757047" lon="129.33947196230292">
        <ele>15.2</ele>
        <time>2026-06-05T14:44:04</time>
      </trkpt>
      <trkpt lat="36.01105894893408" lon="129.33947095647454">
        <ele>15.2</ele>
        <time>2026-06-05T14:44:05</time>
      </trkpt>
      <trkpt lat="36.011054925620556" lon="129.33947196230292">
        <ele>15.2</ele>
        <time>2026-06-05T14:44:06</time>
      </trkpt>
      <trkpt lat="36.011053919792175" lon="129.33947397395968">
        <ele>15.2</ele>
        <time>2026-06-05T14:44:07</time>
      </trkpt>
      <trkpt lat="36.011054925620556" lon="129.3394729681313">
        <ele>15.2</ele>
        <time>2026-06-05T14:44:08</time>
      </trkpt>
      <trkpt lat="36.01107998751104" lon="129.33939694426954">
        <ele>15.6</ele>
        <time>2026-06-05T14:49:33</time>
      </trkpt>
      <trkpt lat="36.01106498390436" lon="129.33937397785485">
        <ele>15.6</ele>
        <time>2026-06-05T14:49:34</time>
      </trkpt>
      <trkpt lat="36.01104595698416" lon="129.33934598229825">
        <ele>15.6</ele>
        <time>2026-06-05T14:49:35</time>
      </trkpt>
      <trkpt lat="36.01102299056947" lon="129.33931195177138">
        <ele>15.6</ele>
        <time>2026-06-05T14:49:36</time>
      </trkpt>
      <trkpt lat="36.01099792867899" lon="129.3392749875784">
        <ele>15.6</ele>
        <time>2026-06-05T14:49:37</time>
      </trkpt>
      <trkpt lat="36.010966999456286" lon="129.33923894539475">
        <ele>15.6</ele>
        <time>2026-06-05T14:49:38</time>
      </trkpt>
      <trkpt lat="36.01093296892941" lon="129.33920793235302">
        <ele>15.6</ele>
        <time>2026-06-05T14:49:39</time>
      </trkpt>
      <trkpt lat="36.01089692674577" lon="129.33917893096805">
        <ele>15.6</ele>
        <time>2026-06-05T14:49:40</time>
      </trkpt>
      <trkpt lat="36.01086096838117" lon="129.33914992958307">
        <ele>15.6</ele>
        <time>2026-06-05T14:49:41</time>
      </trkpt>
      <trkpt lat="36.01082693785429" lon="129.33911598287523">
        <ele>15.6</ele>
        <time>2026-06-05T14:49:42</time>
      </trkpt>
      <trkpt lat="36.010793996974826" lon="129.3390799406916">
        <ele>15.6</ele>
        <time>2026-06-05T14:49:43</time>
      </trkpt>
      <trkpt lat="36.01076298393309" lon="129.33904197067022">
        <ele>15.6</ele>
        <time>2026-06-05T14:49:44</time>
      </trkpt>
      <trkpt lat="36.01073197089136" lon="129.3390049226582">
        <ele>15.6</ele>
        <time>2026-06-05T14:49:45</time>
      </trkpt>
      <trkpt lat="36.01070095784962" lon="129.33896695263684">
        <ele>15.6</ele>
        <time>2026-06-05T14:49:46</time>
      </trkpt>
      <trkpt lat="36.01067095063627" lon="129.3389279767871">
        <ele>15.4</ele>
        <time>2026-06-05T14:49:47</time>
      </trkpt>
      <trkpt lat="36.01064094342291" lon="129.3388899229467">
        <ele>15.4</ele>
        <time>2026-06-05T14:49:48</time>
      </trkpt>
      <trkpt lat="36.01060993038118" lon="129.33885195292532">
        <ele>15.4</ele>
        <time>2026-06-05T14:49:49</time>
      </trkpt>
      <trkpt lat="36.010581934824586" lon="129.33881297707558">
        <ele>15.4</ele>
        <time>2026-06-05T14:49:50</time>
      </trkpt>
      <trkpt lat="36.010556956753135" lon="129.33877299539745">
        <ele>15.4</ele>
        <time>2026-06-05T14:49:51</time>
      </trkpt>
      <trkpt lat="36.010534996166825" lon="129.3387319240719">
        <ele>15.4</ele>
        <time>2026-06-05T14:49:52</time>
      </trkpt>
      <trkpt lat="36.010514963418245" lon="129.33869194239378">
        <ele>15.4</ele>
        <time>2026-06-05T14:49:53</time>
      </trkpt>
      <trkpt lat="36.010494930669665" lon="129.3386539723724">
        <ele>15.2</ele>
        <time>2026-06-05T14:49:54</time>
      </trkpt>
      <trkpt lat="36.01047699339688" lon="129.33861399069428">
        <ele>15.2</ele>
        <time>2026-06-05T14:49:55</time>
      </trkpt>
      <trkpt lat="36.01045997813344" lon="129.33857291936874">
        <ele>15.2</ele>
        <time>2026-06-05T14:49:56</time>
      </trkpt>
      <trkpt lat="36.01044296287" lon="129.33853193186224">
        <ele>15.2</ele>
        <time>2026-06-05T14:49:57</time>
      </trkpt>
      <trkpt lat="36.0104239359498" lon="129.33849496766925">
        <ele>15.4</ele>
        <time>2026-06-05T14:49:58</time>
      </trkpt>
      <trkpt lat="36.010403987020254" lon="129.33846194297075">
        <ele>15.4</ele>
        <time>2026-06-05T14:49:59</time>
      </trkpt>
      <trkpt lat="36.010383954271674" lon="129.33843092992902">
        <ele>15.6</ele>
        <time>2026-06-05T14:50:00</time>
      </trkpt>
      <trkpt lat="36.010362999513745" lon="129.33840192854404">
        <ele>15.6</ele>
        <time>2026-06-05T14:50:01</time>
      </trkpt>
      <trkpt lat="36.010341960936785" lon="129.3383759446442">
        <ele>15.8</ele>
        <time>2026-06-05T14:50:02</time>
      </trkpt>
      <trkpt lat="36.010321928188205" lon="129.33835096657276">
        <ele>15.8</ele>
        <time>2026-06-05T14:50:03</time>
      </trkpt>
      <trkpt lat="36.01030197925866" lon="129.3383269943297">
        <ele>16.0</ele>
        <time>2026-06-05T14:50:04</time>
      </trkpt>
      <trkpt lat="36.01028295233846" lon="129.3383029382676">
        <ele>16.0</ele>
        <time>2026-06-05T14:50:05</time>
      </trkpt>
      <trkpt lat="36.01026794873178" lon="129.33827695436776">
        <ele>16.0</ele>
        <time>2026-06-05T14:50:06</time>
      </trkpt>
      <trkpt lat="36.010253950953484" lon="129.33824895881116">
        <ele>16.0</ele>
        <time>2026-06-05T14:50:07</time>
      </trkpt>
      <trkpt lat="36.010237941518426" lon="129.3382199574262">
        <ele>16.0</ele>
        <time>2026-06-05T14:50:08</time>
      </trkpt>
      <trkpt lat="36.01021899841726" lon="129.3381919618696">
        <ele>16.0</ele>
        <time>2026-06-05T14:50:09</time>
      </trkpt>
      <trkpt lat="36.01019896566868" lon="129.33816798962653">
        <ele>16.0</ele>
        <time>2026-06-05T14:50:10</time>
      </trkpt>
      <trkpt lat="36.010170970112085" lon="129.33815793134272">
        <ele>16.0</ele>
        <time>2026-06-05T14:50:11</time>
      </trkpt>
      <trkpt lat="36.01014196872711" lon="129.33814896270633">
        <ele>16.0</ele>
        <time>2026-06-05T14:50:12</time>
      </trkpt>
      <trkpt lat="36.01011296734214" lon="129.33813798241317">
        <ele>16.0</ele>
        <time>2026-06-05T14:50:13</time>
      </trkpt>
      <trkpt lat="36.010084971785545" lon="129.33811593800783">
        <ele>16.0</ele>
        <time>2026-06-05T14:50:14</time>
      </trkpt>
      <trkpt lat="36.010059993714094" lon="129.3380849249661">
        <ele>15.8</ele>
        <time>2026-06-05T14:50:15</time>
      </trkpt>
      <trkpt lat="36.01003694348037" lon="129.33804695494473">
        <ele>15.8</ele>
        <time>2026-06-05T14:50:16</time>
      </trkpt>
      <trkpt lat="36.01001498289406" lon="129.3380019441247">
        <ele>15.6</ele>
        <time>2026-06-05T14:50:17</time>
      </trkpt>
      <trkpt lat="36.0099939443171" lon="129.33795399963856">
        <ele>15.6</ele>
        <time>2026-06-05T14:50:18</time>
      </trkpt>
      <trkpt lat="36.00997097790241" lon="129.337904965505">
        <ele>15.6</ele>
        <time>2026-06-05T14:50:19</time>
      </trkpt>
      <trkpt lat="36.00994893349707" lon="129.3378579430282">
        <ele>15.6</ele>
        <time>2026-06-05T14:50:20</time>
      </trkpt>
      <trkpt lat="36.009924961254" lon="129.3378119263798">
        <ele>15.6</ele>
        <time>2026-06-05T14:50:21</time>
      </trkpt>
      <trkpt lat="36.00990199483931" lon="129.3377669993788">
        <ele>15.4</ele>
        <time>2026-06-05T14:50:22</time>
      </trkpt>
      <trkpt lat="36.00987894460559" lon="129.3377209827304">
        <ele>15.4</ele>
        <time>2026-06-05T14:50:23</time>
      </trkpt>
      <trkpt lat="36.00985396653414" lon="129.33767295442522">
        <ele>15.4</ele>
        <time>2026-06-05T14:50:24</time>
      </trkpt>
      <trkpt lat="36.00982898846269" lon="129.33762199245393">
        <ele>15.4</ele>
        <time>2026-06-05T14:50:25</time>
      </trkpt>
      <trkpt lat="36.00979998707771" lon="129.33757094666362">
        <ele>15.4</ele>
        <time>2026-06-05T14:50:26</time>
      </trkpt>
      <trkpt lat="36.00976997986436" lon="129.33751897886395">
        <ele>15.4</ele>
        <time>2026-06-05T14:50:27</time>
      </trkpt>
      <trkpt lat="36.009738966822624" lon="129.33746499940753">
        <ele>15.4</ele>
        <time>2026-06-05T14:50:28</time>
      </trkpt>
      <trkpt lat="36.00970895960927" lon="129.33740791864693">
        <ele>15.4</ele>
        <time>2026-06-05T14:50:29</time>
      </trkpt>
      <trkpt lat="36.00968096405268" lon="129.33734698221087">
        <ele>15.2</ele>
        <time>2026-06-05T14:50:30</time>
      </trkpt>
      <trkpt lat="36.009653974324465" lon="129.3372849561274">
        <ele>15.2</ele>
        <time>2026-06-05T14:50:31</time>
      </trkpt>
      <trkpt lat="36.00962799042463" lon="129.3372249417007">
        <ele>15.2</ele>
        <time>2026-06-05T14:50:32</time>
      </trkpt>
      <trkpt lat="36.00960091687739" lon="129.33716693893075">
        <ele>15.2</ele>
        <time>2026-06-05T14:50:33</time>
      </trkpt>
      <trkpt lat="36.00957493297756" lon="129.33711195364594">
        <ele>15.2</ele>
        <time>2026-06-05T14:50:34</time>
      </trkpt>
      <trkpt lat="36.009548949077725" lon="129.3370589800179">
        <ele>15.2</ele>
        <time>2026-06-05T14:50:35</time>
      </trkpt>
      <trkpt lat="36.009524976834655" lon="129.33700592257082">
        <ele>15.0</ele>
        <time>2026-06-05T14:50:36</time>
      </trkpt>
      <trkpt lat="36.00950192660093" lon="129.33695294894278">
        <ele>15.0</ele>
        <time>2026-06-05T14:50:37</time>
      </trkpt>
      <trkpt lat="36.00947795435786" lon="129.33689896948636">
        <ele>15.0</ele>
        <time>2026-06-05T14:50:38</time>
      </trkpt>
      <trkpt lat="36.00945297628641" lon="129.33684499002993">
        <ele>15.0</ele>
        <time>2026-06-05T14:50:39</time>
      </trkpt>
      <trkpt lat="36.00942799821496" lon="129.33679092675447">
        <ele>14.8</ele>
        <time>2026-06-05T14:50:40</time>
      </trkpt>
      <trkpt lat="36.009400924667716" lon="129.33673795312643">
        <ele>14.8</ele>
        <time>2026-06-05T14:50:41</time>
      </trkpt>
      <trkpt lat="36.00937091745436" lon="129.33668699115515">
        <ele>14.8</ele>
        <time>2026-06-05T14:50:42</time>
      </trkpt>
      <trkpt lat="36.00933898240328" lon="129.33663594536483">
        <ele>14.8</ele>
        <time>2026-06-05T14:50:43</time>
      </trkpt>
      <trkpt lat="36.00930696353316" lon="129.3365829717368">
        <ele>14.8</ele>
        <time>2026-06-05T14:50:44</time>
      </trkpt>
      <trkpt lat="36.00927796214819" lon="129.3365269806236">
        <ele>14.8</ele>
        <time>2026-06-05T14:50:45</time>
      </trkpt>
      <trkpt lat="36.0092549957335" lon="129.33646897785366">
        <ele>14.6</ele>
        <time>2026-06-05T14:50:46</time>
      </trkpt>
      <trkpt lat="36.00923395715654" lon="129.33640896342695">
        <ele>14.6</ele>
        <time>2026-06-05T14:50:47</time>
      </trkpt>
      <trkpt lat="36.0092169418931" lon="129.33634894900024">
        <ele>14.6</ele>
        <time>2026-06-05T14:50:48</time>
      </trkpt>
      <trkpt lat="36.00920797325671" lon="129.3362909462303">
        <ele>14.6</ele>
        <time>2026-06-05T14:50:49</time>
      </trkpt>
      <trkpt lat="36.00921099074185" lon="129.3362349551171">
        <ele>14.4</ele>
        <time>2026-06-05T14:50:50</time>
      </trkpt>
      <trkpt lat="36.009223982691765" lon="129.33618592098355">
        <ele>14.4</ele>
        <time>2026-06-05T14:50:51</time>
      </trkpt>
      <trkpt lat="36.00924292579293" lon="129.3361469451338">
        <ele>14.2</ele>
        <time>2026-06-05T14:50:52</time>
      </trkpt>
      <trkpt lat="36.00926195271313" lon="129.33611794374883">
        <ele>14.2</ele>
        <time>2026-06-05T14:50:53</time>
      </trkpt>
      <trkpt lat="36.00928198546171" lon="129.33609598316252">
        <ele>14.0</ele>
        <time>2026-06-05T14:50:54</time>
      </trkpt>
      <trkpt lat="36.00929891690612" lon="129.3360779620707">
        <ele>14.0</ele>
        <time>2026-06-05T14:50:55</time>
      </trkpt>
      <trkpt lat="36.009310986846685" lon="129.33606295846403">
        <ele>14.0</ele>
        <time>2026-06-05T14:50:56</time>
      </trkpt>
      <trkpt lat="36.00931593216956" lon="129.33604896068573">
        <ele>14.0</ele>
        <time>2026-06-05T14:50:57</time>
      </trkpt>
      <trkpt lat="36.009313920512795" lon="129.33603295125067">
        <ele>14.0</ele>
        <time>2026-06-05T14:50:58</time>
      </trkpt>
      <trkpt lat="36.009308975189924" lon="129.33601593598723">
        <ele>14.0</ele>
        <time>2026-06-05T14:50:59</time>
      </trkpt>
      <trkpt lat="36.00930294021964" lon="129.33599799871445">
        <ele>14.0</ele>
        <time>2026-06-05T14:51:00</time>
      </trkpt>
      <trkpt lat="36.00929698906839" lon="129.33597897179425">
        <ele>14.0</ele>
        <time>2026-06-05T14:51:01</time>
      </trkpt>
      <trkpt lat="36.00929296575487" lon="129.33596095070243">
        <ele>14.0</ele>
        <time>2026-06-05T14:51:02</time>
      </trkpt>
      <trkpt lat="36.009288942441344" lon="129.3359429296106">
        <ele>14.0</ele>
        <time>2026-06-05T14:51:03</time>
      </trkpt>
      <trkpt lat="36.00928399711847" lon="129.33592792600393">
        <ele>14.0</ele>
        <time>2026-06-05T14:51:04</time>
      </trkpt>
      <trkpt lat="36.00927896797657" lon="129.33591493405402">
        <ele>14.0</ele>
        <time>2026-06-05T14:51:05</time>
      </trkpt>
      <trkpt lat="36.00927393883467" lon="129.33590294793248">
        <ele>14.0</ele>
        <time>2026-06-05T14:51:06</time>
      </trkpt>
      <trkpt lat="36.00926999934018" lon="129.33589196763933">
        <ele>14.0</ele>
        <time>2026-06-05T14:51:07</time>
      </trkpt>
      <trkpt lat="36.009266981855035" lon="129.33588098734617">
        <ele>14.0</ele>
        <time>2026-06-05T14:51:08</time>
      </trkpt>
      <trkpt lat="36.00926396436989" lon="129.3358689174056">
        <ele>14.0</ele>
        <time>2026-06-05T14:51:09</time>
      </trkpt>
      <trkpt lat="36.00926094688475" lon="129.33585793711245">
        <ele>14.0</ele>
        <time>2026-06-05T14:51:10</time>
      </trkpt>
      <trkpt lat="36.00925893522799" lon="129.33584494516253">
        <ele>14.0</ele>
        <time>2026-06-05T14:51:11</time>
      </trkpt>
      <trkpt lat="36.00925591774285" lon="129.33582994155586">
        <ele>14.0</ele>
        <time>2026-06-05T14:51:12</time>
      </trkpt>
      <trkpt lat="36.0092549957335" lon="129.33581292629242">
        <ele>14.0</ele>
        <time>2026-06-05T14:51:13</time>
      </trkpt>
      <trkpt lat="36.00925398990512" lon="129.33579297736287">
        <ele>14.0</ele>
        <time>2026-06-05T14:51:14</time>
      </trkpt>
      <trkpt lat="36.00925298407674" lon="129.33577093295753">
        <ele>14.0</ele>
        <time>2026-06-05T14:51:15</time>
      </trkpt>
      <trkpt lat="36.00925197824836" lon="129.33574796654284">
        <ele>14.0</ele>
        <time>2026-06-05T14:51:16</time>
      </trkpt>
      <trkpt lat="36.0092499665916" lon="129.335721982643">
        <ele>14.0</ele>
        <time>2026-06-05T14:51:17</time>
      </trkpt>
      <trkpt lat="36.009247954934835" lon="129.33569298125803">
        <ele>14.0</ele>
        <time>2026-06-05T14:51:18</time>
      </trkpt>
      <trkpt lat="36.009244937449694" lon="129.3356619682163">
        <ele>14.0</ele>
        <time>2026-06-05T14:51:19</time>
      </trkpt>
      <trkpt lat="36.0092409979552" lon="129.33562994934618">
        <ele>14.0</ele>
        <time>2026-06-05T14:51:20</time>
      </trkpt>
      <trkpt lat="36.0092359688133" lon="129.33559893630445">
        <ele>14.0</ele>
        <time>2026-06-05T14:51:21</time>
      </trkpt>
      <trkpt lat="36.0092309396714" lon="129.33556792326272">
        <ele>14.0</ele>
        <time>2026-06-05T14:51:22</time>
      </trkpt>
      <trkpt lat="36.009224988520145" lon="129.3355379998684">
        <ele>14.0</ele>
        <time>2026-06-05T14:51:23</time>
      </trkpt>
      <trkpt lat="36.00922096520662" lon="129.33550992049277">
        <ele>14.0</ele>
        <time>2026-06-05T14:51:24</time>
      </trkpt>
      <trkpt lat="36.00921493023634" lon="129.33548494242132">
        <ele>14.0</ele>
        <time>2026-06-05T14:51:25</time>
      </trkpt>
      <trkpt lat="36.00920797325671" lon="129.33546097017825">
        <ele>14.0</ele>
        <time>2026-06-05T14:51:26</time>
      </trkpt>
      <trkpt lat="36.009201938286424" lon="129.3354359921068">
        <ele>14.0</ele>
        <time>2026-06-05T14:51:27</time>
      </trkpt>
      <trkpt lat="36.00919397547841" lon="129.33540992438793">
        <ele>14.0</ele>
        <time>2026-06-05T14:51:28</time>
      </trkpt>
      <trkpt lat="36.009185928851366" lon="129.33538092300296">
        <ele>14.0</ele>
        <time>2026-06-05T14:51:29</time>
      </trkpt>
      <trkpt lat="36.009178971871734" lon="129.33534898795187">
        <ele>14.0</ele>
        <time>2026-06-05T14:51:30</time>
      </trkpt>
      <trkpt lat="36.00917394272983" lon="129.33531898073852">
        <ele>14.0</ele>
        <time>2026-06-05T14:51:31</time>
      </trkpt>
      <trkpt lat="36.00917394272983" lon="129.33529492467642">
        <ele>14.0</ele>
        <time>2026-06-05T14:51:32</time>
      </trkpt>
      <trkpt lat="36.009178971871734" lon="129.33528092689812">
        <ele>14.0</ele>
        <time>2026-06-05T14:51:33</time>
      </trkpt>
      <trkpt lat="36.009184923022985" lon="129.3352739699185">
        <ele>14.0</ele>
        <time>2026-06-05T14:51:34</time>
      </trkpt>
      <trkpt lat="36.00918995216489" lon="129.33527598157525">
        <ele>14.0</ele>
        <time>2026-06-05T14:51:35</time>
      </trkpt>
      <trkpt lat="36.00919397547841" lon="129.33528092689812">
        <ele>14.0</ele>
        <time>2026-06-05T14:51:36</time>
      </trkpt>
      <trkpt lat="36.00919699296355" lon="129.33528897352517">
        <ele>14.0</ele>
        <time>2026-06-05T14:51:37</time>
      </trkpt>
      <trkpt lat="36.00915793329477" lon="129.33530498296022">
        <ele>13.8</ele>
        <time>2026-06-05T14:51:44</time>
      </trkpt>
      <trkpt lat="36.009138990193605" lon="129.33531093411148">
        <ele>13.8</ele>
        <time>2026-06-05T14:51:45</time>
      </trkpt>
      <trkpt lat="36.009119963273406" lon="129.33531696908176">
        <ele>13.8</ele>
        <time>2026-06-05T14:51:46</time>
      </trkpt>
      <trkpt lat="36.00910093635321" lon="129.33532199822366">
        <ele>13.8</ele>
        <time>2026-06-05T14:51:47</time>
      </trkpt>
      <trkpt lat="36.00908392108977" lon="129.33532694354653">
        <ele>14.0</ele>
        <time>2026-06-05T14:51:48</time>
      </trkpt>
      <trkpt lat="36.009072940796614" lon="129.33533096686006">
        <ele>14.0</ele>
        <time>2026-06-05T14:51:49</time>
      </trkpt>
      <trkpt lat="36.00906397216022" lon="129.3353339843452">
        <ele>14.0</ele>
        <time>2026-06-05T14:51:50</time>
      </trkpt>
      <trkpt lat="36.009054919704795" lon="129.3353369180113">
        <ele>13.8</ele>
        <time>2026-06-05T14:51:51</time>
      </trkpt>
      <trkpt lat="36.0090459510684" lon="129.33534496463835">
        <ele>13.8</ele>
        <time>2026-06-05T14:51:52</time>
      </trkpt>
      <trkpt lat="36.00903798826039" lon="129.33535896241665">
        <ele>13.8</ele>
        <time>2026-06-05T14:51:53</time>
      </trkpt>
      <trkpt lat="36.009030947461724" lon="129.33537899516523">
        <ele>13.8</ele>
        <time>2026-06-05T14:51:54</time>
      </trkpt>
      <trkpt lat="36.00902399048209" lon="129.33540196157992">
        <ele>13.8</ele>
        <time>2026-06-05T14:51:55</time>
      </trkpt>
      <trkpt lat="36.00902097299695" lon="129.33542392216623">
        <ele>13.8</ele>
        <time>2026-06-05T14:51:56</time>
      </trkpt>
      <trkpt lat="36.00901996716857" lon="129.33544194325805">
        <ele>13.6</ele>
        <time>2026-06-05T14:51:57</time>
      </trkpt>
      <trkpt lat="36.00902097299695" lon="129.33545392937958">
        <ele>13.6</ele>
        <time>2026-06-05T14:51:58</time>
      </trkpt>
      <trkpt lat="36.00902298465371" lon="129.33546599932015">
        <ele>13.6</ele>
        <time>2026-06-05T14:51:59</time>
      </trkpt>
      <trkpt lat="36.00902591831982" lon="129.3354769796133">
        <ele>13.6</ele>
        <time>2026-06-05T14:52:00</time>
      </trkpt>
      <trkpt lat="36.00902893580496" lon="129.33548896573484">
        <ele>13.6</ele>
        <time>2026-06-05T14:52:01</time>
      </trkpt>
      <trkpt lat="36.009032959118485" lon="129.33550396934152">
        <ele>13.6</ele>
        <time>2026-06-05T14:52:02</time>
      </trkpt>
      <trkpt lat="36.00903698243201" lon="129.33552391827106">
        <ele>13.6</ele>
        <time>2026-06-05T14:52:03</time>
      </trkpt>
      <trkpt lat="36.00903597660363" lon="129.33554797433317">
        <ele>13.6</ele>
        <time>2026-06-05T14:52:04</time>
      </trkpt>
      <trkpt lat="36.00902591831982" lon="129.33557295240462">
        <ele>13.6</ele>
        <time>2026-06-05T14:52:05</time>
      </trkpt>
      <trkpt lat="36.009007981047034" lon="129.3355969246477">
        <ele>13.6</ele>
        <time>2026-06-05T14:52:06</time>
      </trkpt>
      <trkpt lat="36.00898593664169" lon="129.33561796322465">
        <ele>13.6</ele>
        <time>2026-06-05T14:52:07</time>
      </trkpt>
      <trkpt lat="36.008963976055384" lon="129.33563598431647">
        <ele>13.6</ele>
        <time>2026-06-05T14:52:08</time>
      </trkpt>
      <trkpt lat="36.00894193165004" lon="129.33564897626638">
        <ele>13.6</ele>
        <time>2026-06-05T14:52:09</time>
      </trkpt>
      <trkpt lat="36.00891896523535" lon="129.33565794490278">
        <ele>13.6</ele>
        <time>2026-06-05T14:52:10</time>
      </trkpt>
      <trkpt lat="36.00889499299228" lon="129.33566791936755">
        <ele>13.6</ele>
        <time>2026-06-05T14:52:11</time>
      </trkpt>
      <trkpt lat="36.00886498577893" lon="129.33567797765136">
        <ele>13.6</ele>
        <time>2026-06-05T14:52:12</time>
      </trkpt>
      <trkpt lat="36.00882994942367" lon="129.33569298125803">
        <ele>13.6</ele>
        <time>2026-06-05T14:52:13</time>
      </trkpt>
      <trkpt lat="36.00878996774554" lon="129.33571293018758">
        <ele>13.6</ele>
        <time>2026-06-05T14:52:14</time>
      </trkpt>
      <trkpt lat="36.008748980239034" lon="129.33573396876454">
        <ele>13.6</ele>
        <time>2026-06-05T14:52:15</time>
      </trkpt>
      <trkpt lat="36.00870497524738" lon="129.33575693517923">
        <ele>13.6</ele>
        <time>2026-06-05T14:52:16</time>
      </trkpt>
      <trkpt lat="36.00866097025573" lon="129.33577897958457">
        <ele>13.6</ele>
        <time>2026-06-05T14:52:17</time>
      </trkpt>
      <trkpt lat="36.00861696526408" lon="129.33580194599926">
        <ele>13.4</ele>
        <time>2026-06-05T14:52:18</time>
      </trkpt>
      <trkpt lat="36.00857296027243" lon="129.3358239904046">
        <ele>13.4</ele>
        <time>2026-06-05T14:52:19</time>
      </trkpt>
      <trkpt lat="36.00852996110916" lon="129.33584494516253">
        <ele>13.4</ele>
        <time>2026-06-05T14:52:20</time>
      </trkpt>
      <trkpt lat="36.00848897360265" lon="129.33586497791111">
        <ele>13.2</ele>
        <time>2026-06-05T14:52:21</time>
      </trkpt>
      <trkpt lat="36.008450919762254" lon="129.33588098734617">
        <ele>13.2</ele>
        <time>2026-06-05T14:52:22</time>
      </trkpt>
      <trkpt lat="36.00841294974089" lon="129.3358939792961">
        <ele>13.0</ele>
        <time>2026-06-05T14:52:23</time>
      </trkpt>
      <trkpt lat="36.00837799720466" lon="129.33590294793248">
        <ele>12.8</ele>
        <time>2026-06-05T14:52:24</time>
      </trkpt>
      <trkpt lat="36.008344972506166" lon="129.33591099455953">
        <ele>12.8</ele>
        <time>2026-06-05T14:52:25</time>
      </trkpt>
      <trkpt lat="36.00831496529281" lon="129.33591996319592">
        <ele>12.6</ele>
        <time>2026-06-05T14:52:26</time>
      </trkpt>
      <trkpt lat="36.00828495807946" lon="129.33593194931746">
        <ele>12.6</ele>
        <time>2026-06-05T14:52:27</time>
      </trkpt>
      <trkpt lat="36.008256962522864" lon="129.33594494126737">
        <ele>12.4</ele>
        <time>2026-06-05T14:52:28</time>
      </trkpt>
      <trkpt lat="36.00822796113789" lon="129.33595994487405">
        <ele>12.4</ele>
        <time>2026-06-05T14:52:29</time>
      </trkpt>
      <trkpt lat="36.00820097140968" lon="129.33597494848073">
        <ele>12.4</ele>
        <time>2026-06-05T14:52:30</time>
      </trkpt>
      <trkpt lat="36.008173981681466" lon="129.33598894625902">
        <ele>12.2</ele>
        <time>2026-06-05T14:52:31</time>
      </trkpt>
      <trkpt lat="36.00814891979098" lon="129.33600294403732">
        <ele>12.2</ele>
        <time>2026-06-05T14:52:32</time>
      </trkpt>
      <trkpt lat="36.00812494754791" lon="129.33601593598723">
        <ele>12.2</ele>
        <time>2026-06-05T14:52:33</time>
      </trkpt>
      <trkpt lat="36.00810198113322" lon="129.33602599427104">
        <ele>12.2</ele>
        <time>2026-06-05T14:52:34</time>
      </trkpt>
      <trkpt lat="36.00808194838464" lon="129.33602599427104">
        <ele>12.2</ele>
        <time>2026-06-05T14:52:35</time>
      </trkpt>
      <trkpt lat="36.008065938949585" lon="129.33601493015885">
        <ele>12.2</ele>
        <time>2026-06-05T14:52:36</time>
      </trkpt>
      <trkpt lat="36.00805697031319" lon="129.3359989207238">
        <ele>12.4</ele>
        <time>2026-06-05T14:52:37</time>
      </trkpt>
      <trkpt lat="36.00805093534291" lon="129.33598299510777">
        <ele>12.4</ele>
        <time>2026-06-05T14:52:38</time>
      </trkpt>
      <trkpt lat="36.008044984191656" lon="129.33596396818757">
        <ele>12.6</ele>
        <time>2026-06-05T14:52:39</time>
      </trkpt>
      <trkpt lat="36.00803995504975" lon="129.33594494126737">
        <ele>12.8</ele>
        <time>2026-06-05T14:52:40</time>
      </trkpt>
      <trkpt lat="36.00803392007947" lon="129.3359289318323">
        <ele>13.0</ele>
        <time>2026-06-05T14:52:41</time>
      </trkpt>
      <trkpt lat="36.00803098641336" lon="129.33591996319592">
        <ele>13.0</ele>
        <time>2026-06-05T14:52:42</time>
      </trkpt>
      <trkpt lat="36.0080289747566" lon="129.33591694571078">
        <ele>13.2</ele>
        <time>2026-06-05T14:52:43</time>
      </trkpt>
      <trkpt lat="36.0080289747566" lon="129.33591694571078">
        <ele>13.4</ele>
        <time>2026-06-05T14:52:44</time>
      </trkpt>
      <trkpt lat="36.0080289747566" lon="129.33591795153916">
        <ele>13.4</ele>
        <time>2026-06-05T14:52:45</time>
      </trkpt>
      <trkpt lat="36.00799393840134" lon="129.3358939792961">
        <ele>13.8</ele>
        <time>2026-06-05T14:54:06</time>
      </trkpt>
      <trkpt lat="36.00798396393657" lon="129.3358659837395">
        <ele>13.8</ele>
        <time>2026-06-05T14:54:07</time>
      </trkpt>
      <trkpt lat="36.00797398947179" lon="129.33583195321262">
        <ele>13.8</ele>
        <time>2026-06-05T14:54:08</time>
      </trkpt>
      <trkpt lat="36.00796393118799" lon="129.33579498901963">
        <ele>13.6</ele>
        <time>2026-06-05T14:54:09</time>
      </trkpt>
      <trkpt lat="36.00795395672321" lon="129.33575693517923">
        <ele>13.6</ele>
        <time>2026-06-05T14:54:10</time>
      </trkpt>
      <trkpt lat="36.00794297643006" lon="129.3357179593295">
        <ele>13.6</ele>
        <time>2026-06-05T14:54:11</time>
      </trkpt>
      <trkpt lat="36.00793291814625" lon="129.33567797765136">
        <ele>13.6</ele>
        <time>2026-06-05T14:54:12</time>
      </trkpt>
      <trkpt lat="36.00792294368148" lon="129.3356349784881">
        <ele>13.6</ele>
        <time>2026-06-05T14:54:13</time>
      </trkpt>
      <trkpt lat="36.007911963388324" lon="129.33558996766806">
        <ele>13.6</ele>
        <time>2026-06-05T14:54:14</time>
      </trkpt>
      <trkpt lat="36.00790391676128" lon="129.33554495684803">
        <ele>13.6</ele>
        <time>2026-06-05T14:54:15</time>
      </trkpt>
      <trkpt lat="36.00789695978165" lon="129.33549793437123">
        <ele>13.6</ele>
        <time>2026-06-05T14:54:16</time>
      </trkpt>
      <trkpt lat="36.00789092481136" lon="129.33545099571347">
        <ele>13.8</ele>
        <time>2026-06-05T14:54:17</time>
      </trkpt>
      <trkpt lat="36.00788497366011" lon="129.33540598489344">
        <ele>13.8</ele>
        <time>2026-06-05T14:54:18</time>
      </trkpt>
      <trkpt lat="36.007875921204686" lon="129.3353619799018">
        <ele>13.8</ele>
        <time>2026-06-05T14:54:19</time>
      </trkpt>
      <trkpt lat="36.00786494091153" lon="129.33532099239528">
        <ele>13.8</ele>
        <time>2026-06-05T14:54:20</time>
      </trkpt>
      <trkpt lat="36.007851948961616" lon="129.33528092689812">
        <ele>13.8</ele>
        <time>2026-06-05T14:54:21</time>
      </trkpt>
      <trkpt lat="36.00783996284008" lon="129.33524094522">
        <ele>13.8</ele>
        <time>2026-06-05T14:54:22</time>
      </trkpt>
      <trkpt lat="36.007827976718545" lon="129.33520297519863">
        <ele>13.8</ele>
        <time>2026-06-05T14:54:23</time>
      </trkpt>
      <trkpt lat="36.00781498476863" lon="129.3351659271866">
        <ele>14.0</ele>
        <time>2026-06-05T14:54:24</time>
      </trkpt>
      <trkpt lat="36.007802998647094" lon="129.33513097465038">
        <ele>14.0</ele>
        <time>2026-06-05T14:54:25</time>
      </trkpt>
      <trkpt lat="36.007789922878146" lon="129.33509895578027">
        <ele>14.0</ele>
        <time>2026-06-05T14:54:26</time>
      </trkpt>
      <trkpt lat="36.00777793675661" lon="129.33506693691015">
        <ele>14.0</ele>
        <time>2026-06-05T14:54:27</time>
      </trkpt>
      <trkpt lat="36.007765950635076" lon="129.3350329902023">
        <ele>14.0</ele>
        <time>2026-06-05T14:54:28</time>
      </trkpt>
      <trkpt lat="36.00775396451354" lon="129.33499795384705">
        <ele>14.0</ele>
        <time>2026-06-05T14:54:29</time>
      </trkpt>
      <trkpt lat="36.007741978392005" lon="129.33496098965406">
        <ele>13.8</ele>
        <time>2026-06-05T14:54:30</time>
      </trkpt>
      <trkpt lat="36.0077319201082" lon="129.33492394164205">
        <ele>13.8</ele>
        <time>2026-06-05T14:54:31</time>
      </trkpt>
      <trkpt lat="36.007722951471806" lon="129.33488697744906">
        <ele>13.8</ele>
        <time>2026-06-05T14:54:32</time>
      </trkpt>
      <trkpt lat="36.00771498866379" lon="129.33484992943704">
        <ele>13.8</ele>
        <time>2026-06-05T14:54:33</time>
      </trkpt>
      <trkpt lat="36.00770794786513" lon="129.33481397107244">
        <ele>13.8</ele>
        <time>2026-06-05T14:54:34</time>
      </trkpt>
      <trkpt lat="36.007700990885496" lon="129.33477893471718">
        <ele>13.8</ele>
        <time>2026-06-05T14:54:35</time>
      </trkpt>
      <trkpt lat="36.00769495591521" lon="129.3347469996661">
        <ele>13.8</ele>
        <time>2026-06-05T14:54:36</time>
      </trkpt>
      <trkpt lat="36.00768799893558" lon="129.33471498079598">
        <ele>13.8</ele>
        <time>2026-06-05T14:54:37</time>
      </trkpt>
      <trkpt lat="36.00768296979368" lon="129.334685979411">
        <ele>13.8</ele>
        <time>2026-06-05T14:54:38</time>
      </trkpt>
      <trkpt lat="36.007679952308536" lon="129.33465999551117">
        <ele>13.8</ele>
        <time>2026-06-05T14:54:39</time>
      </trkpt>
      <trkpt lat="36.007678946480155" lon="129.33463795110583">
        <ele>14.0</ele>
        <time>2026-06-05T14:54:40</time>
      </trkpt>
      <trkpt lat="36.00767391733825" lon="129.33462294749916">
        <ele>14.0</ele>
        <time>2026-06-05T14:54:41</time>
      </trkpt>
      <trkpt lat="36.007667966187" lon="129.33461498469114">
        <ele>14.0</ele>
        <time>2026-06-05T14:54:42</time>
      </trkpt>
      <trkpt lat="36.00766494870186" lon="129.33461297303438">
        <ele>14.0</ele>
        <time>2026-06-05T14:54:43</time>
      </trkpt>
      <trkpt lat="36.0076629370451" lon="129.33461498469114">
        <ele>14.0</ele>
        <time>2026-06-05T14:54:44</time>
      </trkpt>
      <trkpt lat="36.0076629370451" lon="129.33461791835725">
        <ele>14.0</ele>
        <time>2026-06-05T14:54:45</time>
      </trkpt>
      <trkpt lat="36.00760493427515" lon="129.33463694527745">
        <ele>14.0</ele>
        <time>2026-06-05T14:56:41</time>
      </trkpt>
      <trkpt lat="36.00758096203208" lon="129.33464398607612">
        <ele>13.8</ele>
        <time>2026-06-05T14:56:42</time>
      </trkpt>
      <trkpt lat="36.00755497813225" lon="129.33465094305575">
        <ele>13.8</ele>
        <time>2026-06-05T14:56:43</time>
      </trkpt>
      <trkpt lat="36.007526982575655" lon="129.33465597219765">
        <ele>13.8</ele>
        <time>2026-06-05T14:56:44</time>
      </trkpt>
      <trkpt lat="36.00749496370554" lon="129.3346589896828">
        <ele>13.8</ele>
        <time>2026-06-05T14:56:45</time>
      </trkpt>
      <trkpt lat="36.007464956492186" lon="129.33466594666243">
        <ele>13.8</ele>
        <time>2026-06-05T14:56:46</time>
      </trkpt>
      <trkpt lat="36.007438972592354" lon="129.33467399328947">
        <ele>13.8</ele>
        <time>2026-06-05T14:56:47</time>
      </trkpt>
      <trkpt lat="36.00741491653025" lon="129.33468195609748">
        <ele>13.8</ele>
        <time>2026-06-05T14:56:48</time>
      </trkpt>
      <trkpt lat="36.0073899384588" lon="129.33469092473388">
        <ele>13.6</ele>
        <time>2026-06-05T14:56:49</time>
      </trkpt>
      <trkpt lat="36.00736596621573" lon="129.33470592834055">
        <ele>13.6</ele>
        <time>2026-06-05T14:56:50</time>
      </trkpt>
      <trkpt lat="36.00734199397266" lon="129.3347279727459">
        <ele>13.8</ele>
        <time>2026-06-05T14:56:51</time>
      </trkpt>
      <trkpt lat="36.00732497870922" lon="129.334759991616">
        <ele>13.8</ele>
        <time>2026-06-05T14:56:52</time>
      </trkpt>
      <trkpt lat="36.00731793791056" lon="129.33480097912252">
        <ele>13.8</ele>
        <time>2026-06-05T14:56:53</time>
      </trkpt>
      <trkpt lat="36.00732196122408" lon="129.33484791778028">
        <ele>13.8</ele>
        <time>2026-06-05T14:56:54</time>
      </trkpt>
      <trkpt lat="36.007332941517234" lon="129.3348979577422">
        <ele>13.8</ele>
        <time>2026-06-05T14:56:55</time>
      </trkpt>
      <trkpt lat="36.00734794512391" lon="129.33494992554188">
        <ele>13.8</ele>
        <time>2026-06-05T14:56:56</time>
      </trkpt>
      <trkpt lat="36.00736395455897" lon="129.33499694801867">
        <ele>13.8</ele>
        <time>2026-06-05T14:56:57</time>
      </trkpt>
      <trkpt lat="36.007377952337265" lon="129.3350339960307">
        <ele>13.8</ele>
        <time>2026-06-05T14:56:58</time>
      </trkpt>
      <trkpt lat="36.00738792680204" lon="129.3350609857589">
        <ele>13.8</ele>
        <time>2026-06-05T14:56:59</time>
      </trkpt>
      <trkpt lat="36.0073949676007" lon="129.3350829463452">
        <ele>13.8</ele>
        <time>2026-06-05T14:57:00</time>
      </trkpt>
      <trkpt lat="36.007398990914226" lon="129.3351029790938">
        <ele>13.8</ele>
        <time>2026-06-05T14:57:01</time>
      </trkpt>
      <trkpt lat="36.0074039362371" lon="129.33512594550848">
        <ele>13.6</ele>
        <time>2026-06-05T14:57:02</time>
      </trkpt>
      <trkpt lat="36.007408965379" lon="129.33515394106507">
        <ele>13.6</ele>
        <time>2026-06-05T14:57:03</time>
      </trkpt>
      <trkpt lat="36.00741592235863" lon="129.3351859599352">
        <ele>13.6</ele>
        <time>2026-06-05T14:57:04</time>
      </trkpt>
      <trkpt lat="36.00742598064244" lon="129.33522493578494">
        <ele>13.6</ele>
        <time>2026-06-05T14:57:05</time>
      </trkpt>
      <trkpt lat="36.00743796676397" lon="129.33526994660497">
        <ele>13.8</ele>
        <time>2026-06-05T14:57:06</time>
      </trkpt>
      <trkpt lat="36.00745095871389" lon="129.33531898073852">
        <ele>13.8</ele>
        <time>2026-06-05T14:57:07</time>
      </trkpt>
      <trkpt lat="36.007465962320566" lon="129.33537195436656">
        <ele>13.8</ele>
        <time>2026-06-05T14:57:08</time>
      </trkpt>
      <trkpt lat="36.00747996009886" lon="129.335425933823">
        <ele>14.0</ele>
        <time>2026-06-05T14:57:09</time>
      </trkpt>
      <trkpt lat="36.00749295204878" lon="129.3354809191078">
        <ele>14.0</ele>
        <time>2026-06-05T14:57:10</time>
      </trkpt>
      <trkpt lat="36.007505943998694" lon="129.33553498238325">
        <ele>14.0</ele>
        <time>2026-06-05T14:57:11</time>
      </trkpt>
      <trkpt lat="36.00751793012023" lon="129.33559097349644">
        <ele>14.0</ele>
        <time>2026-06-05T14:57:12</time>
      </trkpt>
      <trkpt lat="36.00753293372691" lon="129.33564696460962">
        <ele>14.0</ele>
        <time>2026-06-05T14:57:13</time>
      </trkpt>
      <trkpt lat="36.007548943161964" lon="129.33570496737957">
        <ele>14.0</ele>
        <time>2026-06-05T14:57:14</time>
      </trkpt>
      <trkpt lat="36.00756696425378" lon="129.33576699346304">
        <ele>14.0</ele>
        <time>2026-06-05T14:57:15</time>
      </trkpt>
      <trkpt lat="36.00758397951722" lon="129.33583195321262">
        <ele>14.0</ele>
        <time>2026-06-05T14:57:16</time>
      </trkpt>
      <trkpt lat="36.00760099478066" lon="129.33589993044734">
        <ele>14.0</ele>
        <time>2026-06-05T14:57:17</time>
      </trkpt>
      <trkpt lat="36.007616920396686" lon="129.33596991933882">
        <ele>14.0</ele>
        <time>2026-06-05T14:57:18</time>
      </trkpt>
      <trkpt lat="36.00763292983174" lon="129.33604292571545">
        <ele>14.0</ele>
        <time>2026-06-05T14:57:19</time>
      </trkpt>
      <trkpt lat="36.00764994509518" lon="129.33611593209207">
        <ele>14.0</ele>
        <time>2026-06-05T14:57:20</time>
      </trkpt>
      <trkpt lat="36.00766897201538" lon="129.3361889384687">
        <ele>13.8</ele>
        <time>2026-06-05T14:57:21</time>
      </trkpt>
      <trkpt lat="36.00768992677331" lon="129.33625993318856">
        <ele>14.0</ele>
        <time>2026-06-05T14:57:22</time>
      </trkpt>
      <trkpt lat="36.00771096535027" lon="129.33633092790842">
        <ele>14.0</ele>
        <time>2026-06-05T14:57:23</time>
      </trkpt>
      <trkpt lat="36.00772898644209" lon="129.33640192262828">
        <ele>14.0</ele>
        <time>2026-06-05T14:57:24</time>
      </trkpt>
      <trkpt lat="36.007745917886496" lon="129.33647392317653">
        <ele>13.8</ele>
        <time>2026-06-05T14:57:25</time>
      </trkpt>
      <trkpt lat="36.00776192732155" lon="129.33654692955315">
        <ele>13.8</ele>
        <time>2026-06-05T14:57:26</time>
      </trkpt>
      <trkpt lat="36.00777894258499" lon="129.33661993592978">
        <ele>13.8</ele>
        <time>2026-06-05T14:57:27</time>
      </trkpt>
      <trkpt lat="36.00779595784843" lon="129.33669193647802">
        <ele>13.8</ele>
        <time>2026-06-05T14:57:28</time>
      </trkpt>
      <trkpt lat="36.00781397894025" lon="129.33676293119788">
        <ele>13.8</ele>
        <time>2026-06-05T14:57:29</time>
      </trkpt>
      <trkpt lat="36.007831916213036" lon="129.33683392591774">
        <ele>13.8</ele>
        <time>2026-06-05T14:57:30</time>
      </trkpt>
      <trkpt lat="36.00784792564809" lon="129.3369019869715">
        <ele>13.6</ele>
        <time>2026-06-05T14:57:31</time>
      </trkpt>
      <trkpt lat="36.00786494091153" lon="129.33696996420622">
        <ele>13.6</ele>
        <time>2026-06-05T14:57:32</time>
      </trkpt>
      <trkpt lat="36.00788195617497" lon="129.33703693561256">
        <ele>13.8</ele>
        <time>2026-06-05T14:57:33</time>
      </trkpt>
      <trkpt lat="36.00789897143841" lon="129.3371049966663">
        <ele>13.8</ele>
        <time>2026-06-05T14:57:34</time>
      </trkpt>
      <trkpt lat="36.007915986701846" lon="129.33717297390103">
        <ele>13.6</ele>
        <time>2026-06-05T14:57:35</time>
      </trkpt>
      <trkpt lat="36.007934929803014" lon="129.33724195696414">
        <ele>13.6</ele>
        <time>2026-06-05T14:57:36</time>
      </trkpt>
      <trkpt lat="36.00795395672321" lon="129.33731094002724">
        <ele>13.6</ele>
        <time>2026-06-05T14:57:37</time>
      </trkpt>
      <trkpt lat="36.00797398947179" lon="129.33737992309034">
        <ele>13.6</ele>
        <time>2026-06-05T14:57:38</time>
      </trkpt>
      <trkpt lat="36.00799293257296" lon="129.33744999580085">
        <ele>13.6</ele>
        <time>2026-06-05T14:57:39</time>
      </trkpt>
      <trkpt lat="36.00801095366478" lon="129.33752099052072">
        <ele>13.6</ele>
        <time>2026-06-05T14:57:40</time>
      </trkpt>
      <trkpt lat="36.00802696309984" lon="129.33759198524058">
        <ele>13.6</ele>
        <time>2026-06-05T14:57:41</time>
      </trkpt>
      <trkpt lat="36.008042972534895" lon="129.33766297996044">
        <ele>13.6</ele>
        <time>2026-06-05T14:57:42</time>
      </trkpt>
      <trkpt lat="36.00805998779833" lon="129.33773196302354">
        <ele>13.6</ele>
        <time>2026-06-05T14:57:43</time>
      </trkpt>
      <trkpt lat="36.0080789308995" lon="129.33779994025826">
        <ele>13.6</ele>
        <time>2026-06-05T14:57:44</time>
      </trkpt>
      <trkpt lat="36.00809695199132" lon="129.33786699548364">
        <ele>13.6</ele>
        <time>2026-06-05T14:57:45</time>
      </trkpt>
      <trkpt lat="36.00811497308314" lon="129.33793396688998">
        <ele>13.6</ele>
        <time>2026-06-05T14:57:46</time>
      </trkpt>
      <trkpt lat="36.00813492201269" lon="129.3380019441247">
        <ele>13.6</ele>
        <time>2026-06-05T14:57:47</time>
      </trkpt>
      <trkpt lat="36.008151937276125" lon="129.3380629643798">
        <ele>13.6</ele>
        <time>2026-06-05T14:57:48</time>
      </trkpt>
      <trkpt lat="36.00816794671118" lon="129.33812499046326">
        <ele>13.6</ele>
        <time>2026-06-05T14:57:49</time>
      </trkpt>
      <trkpt lat="36.00818295031786" lon="129.33818793855608">
        <ele>13.6</ele>
        <time>2026-06-05T14:57:50</time>
      </trkpt>
      <trkpt lat="36.00819795392454" lon="129.3382519762963">
        <ele>13.6</ele>
        <time>2026-06-05T14:57:51</time>
      </trkpt>
      <trkpt lat="36.00821195170283" lon="129.33831492438912">
        <ele>13.6</ele>
        <time>2026-06-05T14:57:52</time>
      </trkpt>
      <trkpt lat="36.00822695530951" lon="129.33837795630097">
        <ele>13.6</ele>
        <time>2026-06-05T14:57:53</time>
      </trkpt>
      <trkpt lat="36.00824095308781" lon="129.33843998238444">
        <ele>13.6</ele>
        <time>2026-06-05T14:57:54</time>
      </trkpt>
      <trkpt lat="36.008255956694484" lon="129.33850192464888">
        <ele>13.6</ele>
        <time>2026-06-05T14:57:55</time>
      </trkpt>
      <trkpt lat="36.00827096030116" lon="129.33856395073235">
        <ele>13.6</ele>
        <time>2026-06-05T14:57:56</time>
      </trkpt>
      <trkpt lat="36.00828596390784" lon="129.33862396515906">
        <ele>13.6</ele>
        <time>2026-06-05T14:57:57</time>
      </trkpt>
      <trkpt lat="36.008300967514515" lon="129.33867895044386">
        <ele>13.6</ele>
        <time>2026-06-05T14:57:58</time>
      </trkpt>
      <trkpt lat="36.00831295363605" lon="129.3387239612639">
        <ele>13.6</ele>
        <time>2026-06-05T14:57:59</time>
      </trkpt>
      <trkpt lat="36.008323933929205" lon="129.3387599196285">
        <ele>13.4</ele>
        <time>2026-06-05T14:58:00</time>
      </trkpt>
      <trkpt lat="36.00833692587912" lon="129.33878799900413">
        <ele>13.4</ele>
        <time>2026-06-05T14:58:01</time>
      </trkpt>
      <trkpt lat="36.0083519294858" lon="129.33881096541882">
        <ele>13.4</ele>
        <time>2026-06-05T14:58:02</time>
      </trkpt>
      <trkpt lat="36.00837196223438" lon="129.33882697485387">
        <ele>13.4</ele>
        <time>2026-06-05T14:58:03</time>
      </trkpt>
      <trkpt lat="36.00839694030583" lon="129.33883594349027">
        <ele>13.2</ele>
        <time>2026-06-05T14:58:04</time>
      </trkpt>
      <trkpt lat="36.00842292420566" lon="129.3388399668038">
        <ele>13.2</ele>
        <time>2026-06-05T14:58:05</time>
      </trkpt>
      <trkpt lat="36.00844396278262" lon="129.33884298428893">
        <ele>13.2</ele>
        <time>2026-06-05T14:58:06</time>
      </trkpt>
      <trkpt lat="36.00845997221768" lon="129.33884994126856">
        <ele>13.2</ele>
        <time>2026-06-05T14:58:07</time>
      </trkpt>
      <trkpt lat="36.008471958339214" lon="129.33886494487524">
        <ele>13.4</ele>
        <time>2026-06-05T14:58:08</time>
      </trkpt>
      <trkpt lat="36.00848394446075" lon="129.33888497762382">
        <ele>13.4</ele>
        <time>2026-06-05T14:58:09</time>
      </trkpt>
      <trkpt lat="36.008495930582285" lon="129.3389139790088">
        <ele>13.4</ele>
        <time>2026-06-05T14:58:10</time>
      </trkpt>
      <trkpt lat="36.00850699469447" lon="129.33895094320178">
        <ele>13.6</ele>
        <time>2026-06-05T14:58:11</time>
      </trkpt>
      <trkpt lat="36.008517974987626" lon="129.33899394236505">
        <ele>13.6</ele>
        <time>2026-06-05T14:58:12</time>
      </trkpt>
      <trkpt lat="36.0085329785943" lon="129.33904197067022">
        <ele>13.8</ele>
        <time>2026-06-05T14:58:13</time>
      </trkpt>
      <trkpt lat="36.00855192169547" lon="129.33909494429827">
        <ele>13.8</ele>
        <time>2026-06-05T14:58:14</time>
      </trkpt>
      <trkpt lat="36.00857597775757" lon="129.3391479179263">
        <ele>13.8</ele>
        <time>2026-06-05T14:58:15</time>
      </trkpt>
      <trkpt lat="36.008600955829024" lon="129.33920298703015">
        <ele>14.0</ele>
        <time>2026-06-05T14:58:16</time>
      </trkpt>
      <trkpt lat="36.008625933900476" lon="129.3392609898001">
        <ele>14.2</ele>
        <time>2026-06-05T14:58:17</time>
      </trkpt>
      <trkpt lat="36.0086489841342" lon="129.33931899257004">
        <ele>14.2</ele>
        <time>2026-06-05T14:58:18</time>
      </trkpt>
      <trkpt lat="36.008669938892126" lon="129.3393759895116">
        <ele>14.4</ele>
        <time>2026-06-05T14:58:19</time>
      </trkpt>
      <trkpt lat="36.008686954155564" lon="129.33943499810994">
        <ele>14.4</ele>
        <time>2026-06-05T14:58:20</time>
      </trkpt>
      <trkpt lat="36.00869592279196" lon="129.33949694037437">
        <ele>14.4</ele>
        <time>2026-06-05T14:58:21</time>
      </trkpt>
      <trkpt lat="36.00869491696358" lon="129.3395609781146">
        <ele>14.4</ele>
        <time>2026-06-05T14:58:22</time>
      </trkpt>
      <trkpt lat="36.008689971640706" lon="129.33962794952095">
        <ele>14.4</ele>
        <time>2026-06-05T14:58:23</time>
      </trkpt>
      <trkpt lat="36.00868091918528" lon="129.3396949209273">
        <ele>14.4</ele>
        <time>2026-06-05T14:58:24</time>
      </trkpt>
      <trkpt lat="36.008665999397635" lon="129.33976197615266">
        <ele>14.2</ele>
        <time>2026-06-05T14:58:25</time>
      </trkpt>
      <trkpt lat="36.008642949163914" lon="129.33982794173062">
        <ele>14.2</ele>
        <time>2026-06-05T14:58:26</time>
      </trkpt>
      <trkpt lat="36.00861193612218" lon="129.33989197947085">
        <ele>14.0</ele>
        <time>2026-06-05T14:58:27</time>
      </trkpt>
      <trkpt lat="36.008576983585954" lon="129.33995593339205">
        <ele>14.0</ele>
        <time>2026-06-05T14:58:28</time>
      </trkpt>
      <trkpt lat="36.008540941402316" lon="129.3400189653039">
        <ele>14.0</ele>
        <time>2026-06-05T14:58:29</time>
      </trkpt>
      <trkpt lat="36.00850598886609" lon="129.34008199721575">
        <ele>13.8</ele>
        <time>2026-06-05T14:58:30</time>
      </trkpt>
      <trkpt lat="36.008473969995975" lon="129.34014494530857">
        <ele>13.8</ele>
        <time>2026-06-05T14:58:31</time>
      </trkpt>
      <trkpt lat="36.00844295695424" lon="129.34020697139204">
        <ele>13.8</ele>
        <time>2026-06-05T14:58:32</time>
      </trkpt>
      <trkpt lat="36.00841395556927" lon="129.34026799164712">
        <ele>13.8</ele>
        <time>2026-06-05T14:58:33</time>
      </trkpt>
      <trkpt lat="36.008384954184294" lon="129.34032691642642">
        <ele>13.8</ele>
        <time>2026-06-05T14:58:34</time>
      </trkpt>
      <trkpt lat="36.00835595279932" lon="129.34038693085313">
        <ele>13.8</ele>
        <time>2026-06-05T14:58:35</time>
      </trkpt>
      <trkpt lat="36.00832695141435" lon="129.34044493362308">
        <ele>13.8</ele>
        <time>2026-06-05T14:58:36</time>
      </trkpt>
      <trkpt lat="36.00829392671585" lon="129.34049799107015">
        <ele>13.6</ele>
        <time>2026-06-05T14:58:37</time>
      </trkpt>
      <trkpt lat="36.008258974179626" lon="129.34054995886981">
        <ele>13.6</ele>
        <time>2026-06-05T14:58:38</time>
      </trkpt>
      <trkpt lat="36.00822695530951" lon="129.34060293249786">
        <ele>13.4</ele>
        <time>2026-06-05T14:58:39</time>
      </trkpt>
      <trkpt lat="36.008196948096156" lon="129.34065699577332">
        <ele>13.4</ele>
        <time>2026-06-05T14:58:40</time>
      </trkpt>
      <trkpt lat="36.00816794671118" lon="129.3407129868865">
        <ele>13.4</ele>
        <time>2026-06-05T14:58:41</time>
      </trkpt>
      <trkpt lat="36.00814095698297" lon="129.34076998382807">
        <ele>13.4</ele>
        <time>2026-06-05T14:58:42</time>
      </trkpt>
      <trkpt lat="36.00811497308314" lon="129.34082798659801">
        <ele>13.2</ele>
        <time>2026-06-05T14:58:43</time>
      </trkpt>
      <trkpt lat="36.00808999501169" lon="129.34088498353958">
        <ele>13.2</ele>
        <time>2026-06-05T14:58:44</time>
      </trkpt>
      <trkpt lat="36.008067950606346" lon="129.34093795716763">
        <ele>13.2</ele>
        <time>2026-06-05T14:58:45</time>
      </trkpt>
      <trkpt lat="36.008047917857766" lon="129.3409859854728">
        <ele>13.2</ele>
        <time>2026-06-05T14:58:46</time>
      </trkpt>
      <trkpt lat="36.00803098641336" lon="129.3410279788077">
        <ele>13.2</ele>
        <time>2026-06-05T14:58:47</time>
      </trkpt>
      <trkpt lat="36.00801598280668" lon="129.3410639371723">
        <ele>13.0</ele>
        <time>2026-06-05T14:58:48</time>
      </trkpt>
      <trkpt lat="36.007998967543244" lon="129.34109997935593">
        <ele>13.0</ele>
        <time>2026-06-05T14:58:49</time>
      </trkpt>
      <trkpt lat="36.007979940623045" lon="129.3411379493773">
        <ele>13.0</ele>
        <time>2026-06-05T14:58:50</time>
      </trkpt>
      <trkpt lat="36.007956974208355" lon="129.34118094854057">
        <ele>12.8</ele>
        <time>2026-06-05T14:58:51</time>
      </trkpt>
      <trkpt lat="36.00793099030852" lon="129.3412309885025">
        <ele>12.8</ele>
        <time>2026-06-05T14:58:52</time>
      </trkpt>
      <trkpt lat="36.00790299475193" lon="129.3412859737873">
        <ele>12.8</ele>
        <time>2026-06-05T14:58:53</time>
      </trkpt>
      <trkpt lat="36.007875921204686" lon="129.34134297072887">
        <ele>12.8</ele>
        <time>2026-06-05T14:58:54</time>
      </trkpt>
      <trkpt lat="36.007848931476474" lon="129.34139996767044">
        <ele>12.6</ele>
        <time>2026-06-05T14:58:55</time>
      </trkpt>
      <trkpt lat="36.00782294757664" lon="129.34145595878363">
        <ele>12.6</ele>
        <time>2026-06-05T14:58:56</time>
      </trkpt>
      <trkpt lat="36.00779796950519" lon="129.34150993824005">
        <ele>12.6</ele>
        <time>2026-06-05T14:58:57</time>
      </trkpt>
      <trkpt lat="36.00777491927147" lon="129.34156299568713">
        <ele>12.6</ele>
        <time>2026-06-05T14:58:58</time>
      </trkpt>
      <trkpt lat="36.00775195285678" lon="129.3416149634868">
        <ele>12.6</ele>
        <time>2026-06-05T14:58:59</time>
      </trkpt>
      <trkpt lat="36.00773099809885" lon="129.34166793711483">
        <ele>12.6</ele>
        <time>2026-06-05T14:59:00</time>
      </trkpt>
      <trkpt lat="36.00771297700703" lon="129.34171998873353">
        <ele>12.6</ele>
        <time>2026-06-05T14:59:01</time>
      </trkpt>
      <trkpt lat="36.00769596174359" lon="129.3417709507048">
        <ele>12.4</ele>
        <time>2026-06-05T14:59:02</time>
      </trkpt>
      <trkpt lat="36.007676934823394" lon="129.34181998483837">
        <ele>12.4</ele>
        <time>2026-06-05T14:59:03</time>
      </trkpt>
      <trkpt lat="36.007656985893846" lon="129.34186591766775">
        <ele>12.2</ele>
        <time>2026-06-05T14:59:04</time>
      </trkpt>
      <trkpt lat="36.007635947316885" lon="129.34191193431616">
        <ele>12.2</ele>
        <time>2026-06-05T14:59:05</time>
      </trkpt>
      <trkpt lat="36.007612980902195" lon="129.3419569451362">
        <ele>12.2</ele>
        <time>2026-06-05T14:59:06</time>
      </trkpt>
      <trkpt lat="36.00758993066847" lon="129.3420029617846">
        <ele>12.2</ele>
        <time>2026-06-05T14:59:07</time>
      </trkpt>
      <trkpt lat="36.0075659584254" lon="129.3420529179275">
        <ele>12.2</ele>
        <time>2026-06-05T14:59:08</time>
      </trkpt>
      <trkpt lat="36.00753896869719" lon="129.34210698120296">
        <ele>12.0</ele>
        <time>2026-06-05T14:59:09</time>
      </trkpt>
      <trkpt lat="36.00751197896898" lon="129.34216397814453">
        <ele>12.0</ele>
        <time>2026-06-05T14:59:10</time>
      </trkpt>
      <trkpt lat="36.007482977584004" lon="129.34222198091447">
        <ele>12.0</ele>
        <time>2026-06-05T14:59:11</time>
      </trkpt>
      <trkpt lat="36.00745598785579" lon="129.34227897785604">
        <ele>12.0</ele>
        <time>2026-06-05T14:59:12</time>
      </trkpt>
      <trkpt lat="36.0074279922992" lon="129.3423359747976">
        <ele>12.0</ele>
        <time>2026-06-05T14:59:13</time>
      </trkpt>
      <trkpt lat="36.007401924580336" lon="129.3423919659108">
        <ele>12.0</ele>
        <time>2026-06-05T14:59:14</time>
      </trkpt>
      <trkpt lat="36.007375940680504" lon="129.34244795702398">
        <ele>12.0</ele>
        <time>2026-06-05T14:59:15</time>
      </trkpt>
      <trkpt lat="36.00734895095229" lon="129.34250394813716">
        <ele>12.2</ele>
        <time>2026-06-05T14:59:16</time>
      </trkpt>
      <trkpt lat="36.00732296705246" lon="129.34255993925035">
        <ele>12.2</ele>
        <time>2026-06-05T14:59:17</time>
      </trkpt>
      <trkpt lat="36.00729597732425" lon="129.34261492453516">
        <ele>12.2</ele>
        <time>2026-06-05T14:59:18</time>
      </trkpt>
      <trkpt lat="36.007268987596035" lon="129.342669993639">
        <ele>12.2</ele>
        <time>2026-06-05T14:59:19</time>
      </trkpt>
      <trkpt lat="36.00724291987717" lon="129.3427249789238">
        <ele>12.2</ele>
        <time>2026-06-05T14:59:20</time>
      </trkpt>
      <trkpt lat="36.00721593014896" lon="129.34278197586536">
        <ele>12.2</ele>
        <time>2026-06-05T14:59:21</time>
      </trkpt>
      <trkpt lat="36.00718994624913" lon="129.3428399786353">
        <ele>12.2</ele>
        <time>2026-06-05T14:59:22</time>
      </trkpt>
      <trkpt lat="36.007161950692534" lon="129.34289898723364">
        <ele>12.0</ele>
        <time>2026-06-05T14:59:23</time>
      </trkpt>
      <trkpt lat="36.00713395513594" lon="129.34296092949808">
        <ele>12.2</ele>
        <time>2026-06-05T14:59:24</time>
      </trkpt>
      <trkpt lat="36.00710394792259" lon="129.34302295558155">
        <ele>12.2</ele>
        <time>2026-06-05T14:59:25</time>
      </trkpt>
      <trkpt lat="36.00707293488085" lon="129.34308699332178">
        <ele>12.2</ele>
        <time>2026-06-05T14:59:26</time>
      </trkpt>
      <trkpt lat="36.00704192183912" lon="129.34315195307136">
        <ele>12.2</ele>
        <time>2026-06-05T14:59:27</time>
      </trkpt>
      <trkpt lat="36.007010992616415" lon="129.3432189244777">
        <ele>12.2</ele>
        <time>2026-06-05T14:59:28</time>
      </trkpt>
      <trkpt lat="36.00697997957468" lon="129.3432849738747">
        <ele>12.2</ele>
        <time>2026-06-05T14:59:29</time>
      </trkpt>
      <trkpt lat="36.006947960704565" lon="129.34335194528103">
        <ele>12.2</ele>
        <time>2026-06-05T14:59:30</time>
      </trkpt>
      <trkpt lat="36.00691694766283" lon="129.34341891668737">
        <ele>12.0</ele>
        <time>2026-06-05T14:59:31</time>
      </trkpt>
      <trkpt lat="36.006885934621096" lon="129.34348697774112">
        <ele>12.0</ele>
        <time>2026-06-05T14:59:32</time>
      </trkpt>
      <trkpt lat="36.00685592740774" lon="129.34355394914746">
        <ele>12.0</ele>
        <time>2026-06-05T14:59:33</time>
      </trkpt>
      <trkpt lat="36.00682399235666" lon="129.34361999854445">
        <ele>12.0</ele>
        <time>2026-06-05T14:59:34</time>
      </trkpt>
      <trkpt lat="36.00679297931492" lon="129.34368395246565">
        <ele>12.0</ele>
        <time>2026-06-05T14:59:35</time>
      </trkpt>
      <trkpt lat="36.00676196627319" lon="129.3437469843775">
        <ele>12.0</ele>
        <time>2026-06-05T14:59:36</time>
      </trkpt>
      <trkpt lat="36.006731959059834" lon="129.34380892664194">
        <ele>12.0</ele>
        <time>2026-06-05T14:59:37</time>
      </trkpt>
      <trkpt lat="36.00670295767486" lon="129.34386994689703">
        <ele>12.0</ele>
        <time>2026-06-05T14:59:38</time>
      </trkpt>
      <trkpt lat="36.00667395628989" lon="129.34392895549536">
        <ele>12.0</ele>
        <time>2026-06-05T14:59:39</time>
      </trkpt>
      <trkpt lat="36.006645960733294" lon="129.3439869582653">
        <ele>12.0</ele>
        <time>2026-06-05T14:59:40</time>
      </trkpt>
      <trkpt lat="36.00661897100508" lon="129.34404395520687">
        <ele>12.0</ele>
        <time>2026-06-05T14:59:41</time>
      </trkpt>
      <trkpt lat="36.00659298710525" lon="129.34409994632006">
        <ele>12.0</ele>
        <time>2026-06-05T14:59:42</time>
      </trkpt>
      <trkpt lat="36.00656691938639" lon="129.34415493160486">
        <ele>12.2</ele>
        <time>2026-06-05T14:59:43</time>
      </trkpt>
      <trkpt lat="36.006540935486555" lon="129.34420798905194">
        <ele>12.2</ele>
        <time>2026-06-05T14:59:44</time>
      </trkpt>
      <trkpt lat="36.006515957415104" lon="129.3442599568516">
        <ele>12.2</ele>
        <time>2026-06-05T14:59:45</time>
      </trkpt>
      <trkpt lat="36.00649097934365" lon="129.34431091882288">
        <ele>12.4</ele>
        <time>2026-06-05T14:59:46</time>
      </trkpt>
      <trkpt lat="36.00646692328155" lon="129.34435995295644">
        <ele>12.4</ele>
        <time>2026-06-05T14:59:47</time>
      </trkpt>
      <trkpt lat="36.00644295103848" lon="129.34440697543323">
        <ele>12.4</ele>
        <time>2026-06-05T14:59:48</time>
      </trkpt>
      <trkpt lat="36.00641596131027" lon="129.34445098042488">
        <ele>12.4</ele>
        <time>2026-06-05T14:59:49</time>
      </trkpt>
      <trkpt lat="36.00638595409691" lon="129.344490962103">
        <ele>12.4</ele>
        <time>2026-06-05T14:59:50</time>
      </trkpt>
      <trkpt lat="36.00635494105518" lon="129.34452599845827">
        <ele>12.4</ele>
        <time>2026-06-05T14:59:51</time>
      </trkpt>
      <trkpt lat="36.006323928013444" lon="129.34455793350935">
        <ele>12.4</ele>
        <time>2026-06-05T14:59:52</time>
      </trkpt>
      <trkpt lat="36.00629593245685" lon="129.3445879407227">
        <ele>12.4</ele>
        <time>2026-06-05T14:59:53</time>
      </trkpt>
      <trkpt lat="36.00626793690026" lon="129.34461392462254">
        <ele>12.4</ele>
        <time>2026-06-05T14:59:54</time>
      </trkpt>
      <trkpt lat="36.006240947172046" lon="129.34463697485626">
        <ele>12.4</ele>
        <time>2026-06-05T14:59:55</time>
      </trkpt>
      <trkpt lat="36.006214963272214" lon="129.34465298429132">
        <ele>12.4</ele>
        <time>2026-06-05T14:59:56</time>
      </trkpt>
      <trkpt lat="36.00619099102914" lon="129.34466396458447">
        <ele>12.4</ele>
        <time>2026-06-05T14:59:57</time>
      </trkpt>
      <trkpt lat="36.00616995245218" lon="129.344667987898">
        <ele>12.2</ele>
        <time>2026-06-05T14:59:58</time>
      </trkpt>
      <trkpt lat="36.006152937188745" lon="129.3446669820696">
        <ele>12.2</ele>
        <time>2026-06-05T14:59:59</time>
      </trkpt>
      <trkpt lat="36.00614497438073" lon="129.34466396458447">
        <ele>12.2</ele>
        <time>2026-06-05T15:00:00</time>
      </trkpt>
      <trkpt lat="36.00614195689559" lon="129.34466094709933">
        <ele>12.2</ele>
        <time>2026-06-05T15:00:01</time>
      </trkpt>
      <trkpt lat="36.00614396855235" lon="129.3446579296142">
        <ele>12.2</ele>
        <time>2026-06-05T15:00:02</time>
      </trkpt>
      <trkpt lat="36.00614698603749" lon="129.34465591795743">
        <ele>12.2</ele>
        <time>2026-06-05T15:00:03</time>
      </trkpt>
      <trkpt lat="36.0062019713223" lon="129.3447229731828">
        <ele>11.6</ele>
        <time>2026-06-05T15:00:25</time>
      </trkpt>
      <trkpt lat="36.0062209982425" lon="129.3447559978813">
        <ele>11.6</ele>
        <time>2026-06-05T15:00:26</time>
      </trkpt>
      <trkpt lat="36.00623692385852" lon="129.34478994458914">
        <ele>11.8</ele>
        <time>2026-06-05T15:00:27</time>
      </trkpt>
      <trkpt lat="36.00624798797071" lon="129.3448199518025">
        <ele>11.8</ele>
        <time>2026-06-05T15:00:28</time>
      </trkpt>
      <trkpt lat="36.00625293329358" lon="129.34484291821718">
        <ele>11.8</ele>
        <time>2026-06-05T15:00:29</time>
      </trkpt>
      <trkpt lat="36.006239941343665" lon="129.34484199620783">
        <ele>11.8</ele>
        <time>2026-06-05T15:00:30</time>
      </trkpt>
      <trkpt lat="36.00622694939375" lon="129.34482598677278">
        <ele>12.0</ele>
        <time>2026-06-05T15:00:31</time>
      </trkpt>
      <trkpt lat="36.00621295161545" lon="129.34480897150934">
        <ele>12.0</ele>
        <time>2026-06-05T15:00:32</time>
      </trkpt>
      <trkpt lat="36.006198953837156" lon="129.34479296207428">
        <ele>12.2</ele>
        <time>2026-06-05T15:00:33</time>
      </trkpt>
      <trkpt lat="36.00618596188724" lon="129.34477695263922">
        <ele>11.6</ele>
        <time>2026-06-05T15:01:38</time>
      </trkpt>
      <trkpt lat="36.006171964108944" lon="129.34476094320416">
        <ele>11.6</ele>
        <time>2026-06-05T15:01:39</time>
      </trkpt>
      <trkpt lat="36.00612795911729" lon="129.3447559978813">
        <ele>11.6</ele>
        <time>2026-06-05T15:01:40</time>
      </trkpt>
      <trkpt lat="36.00607892498374" lon="129.34475792571902">
        <ele>11.6</ele>
        <time>2026-06-05T15:01:41</time>
      </trkpt>
      <trkpt lat="36.006025951355696" lon="129.3447639606893">
        <ele>11.6</ele>
        <time>2026-06-05T15:01:42</time>
      </trkpt>
      <trkpt lat="36.00596996024251" lon="129.3447689898312">
        <ele>11.6</ele>
        <time>2026-06-05T15:01:43</time>
      </trkpt>
      <trkpt lat="36.00591296330094" lon="129.3447689898312">
        <ele>11.6</ele>
        <time>2026-06-05T15:01:44</time>
      </trkpt>
      <trkpt lat="36.005854960530996" lon="129.3447639606893">
        <ele>11.8</ele>
        <time>2026-06-05T15:01:45</time>
      </trkpt>
      <trkpt lat="36.00579796358943" lon="129.34475398622453">
        <ele>11.8</ele>
        <time>2026-06-05T15:01:46</time>
      </trkpt>
      <trkpt lat="36.00574096664786" lon="129.34473898261786">
        <ele>11.8</ele>
        <time>2026-06-05T15:01:47</time>
      </trkpt>
      <trkpt lat="36.0056839697063" lon="129.34472096152604">
        <ele>11.8</ele>
        <time>2026-06-05T15:01:48</time>
      </trkpt>
      <trkpt lat="36.00562697276473" lon="129.34470495209098">
        <ele>11.8</ele>
        <time>2026-06-05T15:01:49</time>
      </trkpt>
      <trkpt lat="36.00556896999478" lon="129.34469296596944">
        <ele>12.0</ele>
        <time>2026-06-05T15:01:50</time>
      </trkpt>
      <trkpt lat="36.005509961396456" lon="129.34468592517078">
        <ele>12.0</ele>
        <time>2026-06-05T15:01:51</time>
      </trkpt>
      <trkpt lat="36.00545095279813" lon="129.3446809798479">
        <ele>12.2</ele>
        <time>2026-06-05T15:01:52</time>
      </trkpt>
      <trkpt lat="36.0053919441998" lon="129.34467695653439">
        <ele>12.2</ele>
        <time>2026-06-05T15:01:53</time>
      </trkpt>
      <trkpt lat="36.00533192977309" lon="129.34466999955475">
        <ele>12.4</ele>
        <time>2026-06-05T15:01:54</time>
      </trkpt>
      <trkpt lat="36.005271999165416" lon="129.34466094709933">
        <ele>12.4</ele>
        <time>2026-06-05T15:01:55</time>
      </trkpt>
      <trkpt lat="36.005209973081946" lon="129.34465097263455">
        <ele>12.8</ele>
        <time>2026-06-05T15:01:56</time>
      </trkpt>
      <trkpt lat="36.005145935341716" lon="129.34464099816978">
        <ele>13.0</ele>
        <time>2026-06-05T15:01:57</time>
      </trkpt>
      <trkpt lat="36.005080975592136" lon="129.34463295154274">
        <ele>13.2</ele>
        <time>2026-06-05T15:01:58</time>
      </trkpt>
      <trkpt lat="36.005016937851906" lon="129.34462691657245">
        <ele>13.6</ele>
        <time>2026-06-05T15:01:59</time>
      </trkpt>
      <trkpt lat="36.00495591759682" lon="129.34461995959282">
        <ele>13.8</ele>
        <time>2026-06-05T15:02:00</time>
      </trkpt>
      <trkpt lat="36.00489992648363" lon="129.3446119967848">
        <ele>14.2</ele>
        <time>2026-06-05T15:02:01</time>
      </trkpt>
      <trkpt lat="36.00484795868397" lon="129.344601938501">
        <ele>14.4</ele>
        <time>2026-06-05T15:02:02</time>
      </trkpt>
      <trkpt lat="36.004802947863936" lon="129.34459196403623">
        <ele>14.6</ele>
        <time>2026-06-05T15:02:03</time>
      </trkpt>
      <trkpt lat="36.00476397201419" lon="129.34458391740918">
        <ele>14.6</ele>
        <time>2026-06-05T15:02:04</time>
      </trkpt>
      <trkpt lat="36.00472792983055" lon="129.34457796625793">
        <ele>14.8</ele>
        <time>2026-06-05T15:02:05</time>
      </trkpt>
      <trkpt lat="36.00469599477947" lon="129.34457193128765">
        <ele>15.0</ele>
        <time>2026-06-05T15:02:06</time>
      </trkpt>
      <trkpt lat="36.00466498173773" lon="129.3445659801364">
        <ele>15.0</ele>
        <time>2026-06-05T15:02:07</time>
      </trkpt>
      <trkpt lat="36.004633968696" lon="129.34456195682287">
        <ele>15.2</ele>
        <time>2026-06-05T15:02:08</time>
      </trkpt>
      <trkpt lat="36.0046009439975" lon="129.34455893933773">
        <ele>15.4</ele>
        <time>2026-06-05T15:02:09</time>
      </trkpt>
      <trkpt lat="36.00456791929901" lon="129.34455692768097">
        <ele>15.6</ele>
        <time>2026-06-05T15:02:10</time>
      </trkpt>
      <trkpt lat="36.00453397259116" lon="129.34455399401486">
        <ele>15.6</ele>
        <time>2026-06-05T15:02:11</time>
      </trkpt>
      <trkpt lat="36.004498936235905" lon="129.34455097652972">
        <ele>15.8</ele>
        <time>2026-06-05T15:02:12</time>
      </trkpt>
      <trkpt lat="36.00446398369968" lon="129.3445469532162">
        <ele>16.0</ele>
        <time>2026-06-05T15:02:13</time>
      </trkpt>
      <trkpt lat="36.00443095900118" lon="129.34454292990267">
        <ele>16.0</ele>
        <time>2026-06-05T15:02:14</time>
      </trkpt>
      <trkpt lat="36.00439894013107" lon="129.34453899040818">
        <ele>16.2</ele>
        <time>2026-06-05T15:02:15</time>
      </trkpt>
      <trkpt lat="36.00436692126095" lon="129.34453496709466">
        <ele>16.4</ele>
        <time>2026-06-05T15:02:16</time>
      </trkpt>
      <trkpt lat="36.00433699786663" lon="129.34453194960952">
        <ele>16.6</ele>
        <time>2026-06-05T15:02:17</time>
      </trkpt>
      <trkpt lat="36.00430992431939" lon="129.34453094378114">
        <ele>16.6</ele>
        <time>2026-06-05T15:02:18</time>
      </trkpt>
      <trkpt lat="36.004284946247935" lon="129.344527926296">
        <ele>16.6</ele>
        <time>2026-06-05T15:02:19</time>
      </trkpt>
      <trkpt lat="36.004262985661626" lon="129.34452197514474">
        <ele>16.8</ele>
        <time>2026-06-05T15:02:20</time>
      </trkpt>
      <trkpt lat="36.004242952913046" lon="129.3445139285177">
        <ele>17.0</ele>
        <time>2026-06-05T15:02:21</time>
      </trkpt>
      <trkpt lat="36.00422199815512" lon="129.34450697153807">
        <ele>17.0</ele>
        <time>2026-06-05T15:02:22</time>
      </trkpt>
      <trkpt lat="36.004199953749776" lon="129.34450093656778">
        <ele>17.2</ele>
        <time>2026-06-05T15:02:23</time>
      </trkpt>
      <trkpt lat="36.00417799316347" lon="129.3444959912449">
        <ele>17.2</ele>
        <time>2026-06-05T15:02:24</time>
      </trkpt>
      <trkpt lat="36.004156954586506" lon="129.3444919679314">
        <ele>17.0</ele>
        <time>2026-06-05T15:02:25</time>
      </trkpt>
      <trkpt lat="36.00413993932307" lon="129.34448895044625">
        <ele>17.0</ele>
        <time>2026-06-05T15:02:26</time>
      </trkpt>
      <trkpt lat="36.004131976515055" lon="129.3444869387895">
        <ele>17.0</ele>
        <time>2026-06-05T15:02:27</time>
      </trkpt>
      <trkpt lat="36.00412895902991" lon="129.3444859329611">
        <ele>17.0</ele>
        <time>2026-06-05T15:02:28</time>
      </trkpt>
      <trkpt lat="36.00412996485829" lon="129.3444859329611">
        <ele>17.0</ele>
        <time>2026-06-05T15:02:29</time>
      </trkpt>
      <trkpt lat="36.004132982343435" lon="129.3444869387895">
        <ele>17.0</ele>
        <time>2026-06-05T15:02:30</time>
      </trkpt>
      <trkpt lat="36.00410599261522" lon="129.34446799568832">
        <ele>16.4</ele>
        <time>2026-06-05T15:02:49</time>
      </trkpt>
      <trkpt lat="36.00408696569502" lon="129.34445693157613">
        <ele>16.6</ele>
        <time>2026-06-05T15:02:50</time>
      </trkpt>
      <trkpt lat="36.004067938774824" lon="129.34444092214108">
        <ele>16.6</ele>
        <time>2026-06-05T15:02:51</time>
      </trkpt>
      <trkpt lat="36.004046984016895" lon="129.34442399069667">
        <ele>16.8</ele>
        <time>2026-06-05T15:02:52</time>
      </trkpt>
      <trkpt lat="36.004027957096696" lon="129.34441795572639">
        <ele>16.8</ele>
        <time>2026-06-05T15:02:53</time>
      </trkpt>
      <trkpt lat="36.00401597097516" lon="129.34439599514008">
        <ele>16.8</ele>
        <time>2026-06-05T15:02:54</time>
      </trkpt>
      <trkpt lat="36.00401597097516" lon="129.34437193907797">
        <ele>16.8</ele>
        <time>2026-06-05T15:02:55</time>
      </trkpt>
      <trkpt lat="36.00401697680354" lon="129.34434696100652">
        <ele>16.8</ele>
        <time>2026-06-05T15:02:56</time>
      </trkpt>
      <trkpt lat="36.00401697680354" lon="129.34432198293507">
        <ele>16.6</ele>
        <time>2026-06-05T15:02:57</time>
      </trkpt>
      <trkpt lat="36.00401697680354" lon="129.34429792687297">
        <ele>17.4</ele>
        <time>2026-06-05T15:03:16</time>
      </trkpt>
      <trkpt lat="36.00401697680354" lon="129.34427294880152">
        <ele>17.4</ele>
        <time>2026-06-05T15:03:17</time>
      </trkpt>
      <trkpt lat="36.004026951268315" lon="129.34421595185995">
        <ele>17.4</ele>
        <time>2026-06-05T15:03:18</time>
      </trkpt>
      <trkpt lat="36.00403793156147" lon="129.34415099211037">
        <ele>17.2</ele>
        <time>2026-06-05T15:03:19</time>
      </trkpt>
      <trkpt lat="36.004050923511386" lon="129.3440799973905">
        <ele>17.0</ele>
        <time>2026-06-05T15:03:20</time>
      </trkpt>
      <trkpt lat="36.00406198762357" lon="129.34400397352874">
        <ele>17.0</ele>
        <time>2026-06-05T15:03:21</time>
      </trkpt>
      <trkpt lat="36.004069950431585" lon="129.34392593801022">
        <ele>16.8</ele>
        <time>2026-06-05T15:03:22</time>
      </trkpt>
      <trkpt lat="36.00407497957349" lon="129.3438489921391">
        <ele>16.6</ele>
        <time>2026-06-05T15:03:23</time>
      </trkpt>
      <trkpt lat="36.00407992489636" lon="129.34377296827734">
        <ele>16.6</ele>
        <time>2026-06-05T15:03:24</time>
      </trkpt>
      <trkpt lat="36.00408595986664" lon="129.3437009677291">
        <ele>16.4</ele>
        <time>2026-06-05T15:03:25</time>
      </trkpt>
      <trkpt lat="36.004090989008546" lon="129.34363299049437">
        <ele>16.2</ele>
        <time>2026-06-05T15:03:26</time>
      </trkpt>
      <trkpt lat="36.0040969401598" lon="129.34356794692576">
        <ele>16.2</ele>
        <time>2026-06-05T15:03:27</time>
      </trkpt>
      <trkpt lat="36.00410096347332" lon="129.34350499883294">
        <ele>16.0</ele>
        <time>2026-06-05T15:03:28</time>
      </trkpt>
      <trkpt lat="36.0041069984436" lon="129.3434459902346">
        <ele>15.8</ele>
        <time>2026-06-05T15:03:29</time>
      </trkpt>
      <trkpt lat="36.004111943766475" lon="129.34339092113078">
        <ele>15.8</ele>
        <time>2026-06-05T15:03:30</time>
      </trkpt>
      <trkpt lat="36.00411596708" lon="129.34333694167435">
        <ele>15.8</ele>
        <time>2026-06-05T15:03:31</time>
      </trkpt>
      <trkpt lat="36.00411999039352" lon="129.3432849738747">
        <ele>15.8</ele>
        <time>2026-06-05T15:03:32</time>
      </trkpt>
      <trkpt lat="36.00412292405963" lon="129.34323392808437">
        <ele>15.8</ele>
        <time>2026-06-05T15:03:33</time>
      </trkpt>
      <trkpt lat="36.00412795320153" lon="129.34318095445633">
        <ele>15.8</ele>
        <time>2026-06-05T15:03:34</time>
      </trkpt>
      <trkpt lat="36.004131976515055" lon="129.34312898665667">
        <ele>15.8</ele>
        <time>2026-06-05T15:03:35</time>
      </trkpt>
      <trkpt lat="36.004136921837926" lon="129.34307693503797">
        <ele>15.8</ele>
        <time>2026-06-05T15:03:36</time>
      </trkpt>
      <trkpt lat="36.00413993932307" lon="129.34302396140993">
        <ele>15.8</ele>
        <time>2026-06-05T15:03:37</time>
      </trkpt>
      <trkpt lat="36.00414295680821" lon="129.34297199361026">
        <ele>15.8</ele>
        <time>2026-06-05T15:03:38</time>
      </trkpt>
      <trkpt lat="36.00414698012173" lon="129.34291994199157">
        <ele>15.8</ele>
        <time>2026-06-05T15:03:39</time>
      </trkpt>
      <trkpt lat="36.00415293127298" lon="129.3428679741919">
        <ele>15.8</ele>
        <time>2026-06-05T15:03:40</time>
      </trkpt>
      <trkpt lat="36.00415896624327" lon="129.34281793422997">
        <ele>15.6</ele>
        <time>2026-06-05T15:03:41</time>
      </trkpt>
      <trkpt lat="36.00416399538517" lon="129.3427659664303">
        <ele>15.6</ele>
        <time>2026-06-05T15:03:42</time>
      </trkpt>
      <trkpt lat="36.00416894070804" lon="129.34271492064">
        <ele>15.2</ele>
        <time>2026-06-05T15:03:43</time>
      </trkpt>
      <trkpt lat="36.00417195819318" lon="129.3426649644971">
        <ele>15.0</ele>
        <time>2026-06-05T15:03:44</time>
      </trkpt>
      <trkpt lat="36.004174975678325" lon="129.34261693619192">
        <ele>15.0</ele>
        <time>2026-06-05T15:03:45</time>
      </trkpt>
      <trkpt lat="36.004176987335086" lon="129.34257192537189">
        <ele>14.8</ele>
        <time>2026-06-05T15:03:46</time>
      </trkpt>
      <trkpt lat="36.00417799316347" lon="129.34253294952214">
        <ele>14.8</ele>
        <time>2026-06-05T15:03:47</time>
      </trkpt>
      <trkpt lat="36.004176987335086" lon="129.34250897727907">
        <ele>14.8</ele>
        <time>2026-06-05T15:03:48</time>
      </trkpt>
      <trkpt lat="36.004174975678325" lon="129.34250093065202">
        <ele>14.6</ele>
        <time>2026-06-05T15:03:49</time>
      </trkpt>
      <trkpt lat="36.004173969849944" lon="129.3424979969859">
        <ele>14.6</ele>
        <time>2026-06-05T15:03:50</time>
      </trkpt>
      <trkpt lat="36.004173969849944" lon="129.34249095618725">
        <ele>14.6</ele>
        <time>2026-06-05T15:03:51</time>
      </trkpt>
      <trkpt lat="36.0041709523648" lon="129.3424749467522">
        <ele>14.6</ele>
        <time>2026-06-05T15:03:52</time>
      </trkpt>
      <trkpt lat="36.00416399538517" lon="129.34244896285236">
        <ele>14.6</ele>
        <time>2026-06-05T15:03:53</time>
      </trkpt>
      <trkpt lat="36.004153937101364" lon="129.34241292066872">
        <ele>14.6</ele>
        <time>2026-06-05T15:03:54</time>
      </trkpt>
      <trkpt lat="36.00414798595011" lon="129.34236799366772">
        <ele>14.6</ele>
        <time>2026-06-05T15:03:55</time>
      </trkpt>
      <trkpt lat="36.00414899177849" lon="129.34232097119093">
        <ele>14.6</ele>
        <time>2026-06-05T15:03:56</time>
      </trkpt>
      <trkpt lat="36.004154942929745" lon="129.34227294288576">
        <ele>14.4</ele>
        <time>2026-06-05T15:03:57</time>
      </trkpt>
      <trkpt lat="36.00416298955679" lon="129.34222793206573">
        <ele>14.4</ele>
        <time>2026-06-05T15:03:58</time>
      </trkpt>
      <trkpt lat="36.00416994653642" lon="129.34218996204436">
        <ele>14.2</ele>
        <time>2026-06-05T15:03:59</time>
      </trkpt>
      <trkpt lat="36.004175981506705" lon="129.34215794317424">
        <ele>14.2</ele>
        <time>2026-06-05T15:04:00</time>
      </trkpt>
      <trkpt lat="36.004175981506705" lon="129.3421319592744">
        <ele>14.2</ele>
        <time>2026-06-05T15:04:01</time>
      </trkpt>
      <trkpt lat="36.00416793487966" lon="129.34211695566773">
        <ele>14.2</ele>
        <time>2026-06-05T15:04:02</time>
      </trkpt>
      <trkpt lat="36.004154942929745" lon="129.34211796149611">
        <ele>14.2</ele>
        <time>2026-06-05T15:04:03</time>
      </trkpt>
      <trkpt lat="36.00413993932307" lon="129.3421379942447">
        <ele>14.0</ele>
        <time>2026-06-05T15:04:04</time>
      </trkpt>
      <trkpt lat="36.00412594154477" lon="129.34217093512416">
        <ele>14.0</ele>
        <time>2026-06-05T15:04:05</time>
      </trkpt>
      <trkpt lat="36.004113955423236" lon="129.34221393428743">
        <ele>14.0</ele>
        <time>2026-06-05T15:04:06</time>
      </trkpt>
      <trkpt lat="36.0041019693017" lon="129.34226296842098">
        <ele>14.0</ele>
        <time>2026-06-05T15:04:07</time>
      </trkpt>
      <trkpt lat="36.004088977351785" lon="129.34231594204903">
        <ele>13.8</ele>
        <time>2026-06-05T15:04:08</time>
      </trkpt>
      <trkpt lat="36.00407598540187" lon="129.34237092733383">
        <ele>13.8</ele>
        <time>2026-06-05T15:04:09</time>
      </trkpt>
      <trkpt lat="36.00406399928033" lon="129.34242893010378">
        <ele>13.8</ele>
        <time>2026-06-05T15:04:10</time>
      </trkpt>
      <trkpt lat="36.00405494682491" lon="129.34248995035887">
        <ele>13.8</ele>
        <time>2026-06-05T15:04:11</time>
      </trkpt>
      <trkpt lat="36.004047989845276" lon="129.34255298227072">
        <ele>13.8</ele>
        <time>2026-06-05T15:04:12</time>
      </trkpt>
      <trkpt lat="36.00404094904661" lon="129.34261894784868">
        <ele>13.8</ele>
        <time>2026-06-05T15:04:13</time>
      </trkpt>
      <trkpt lat="36.00403198041022" lon="129.34268591925502">
        <ele>13.8</ele>
        <time>2026-06-05T15:04:14</time>
      </trkpt>
      <trkpt lat="36.0040189884603" lon="129.34275398030877">
        <ele>13.8</ele>
        <time>2026-06-05T15:04:15</time>
      </trkpt>
      <trkpt lat="36.004004990682006" lon="129.3428219575435">
        <ele>13.8</ele>
        <time>2026-06-05T15:04:16</time>
      </trkpt>
      <trkpt lat="36.00399099290371" lon="129.3428899347782">
        <ele>13.8</ele>
        <time>2026-06-05T15:04:17</time>
      </trkpt>
      <trkpt lat="36.00397892296314" lon="129.34295891784132">
        <ele>13.8</ele>
        <time>2026-06-05T15:04:18</time>
      </trkpt>
      <trkpt lat="36.00396593101323" lon="129.34302899055183">
        <ele>13.8</ele>
        <time>2026-06-05T15:04:19</time>
      </trkpt>
      <trkpt lat="36.00395293906331" lon="129.3430999852717">
        <ele>13.6</ele>
        <time>2026-06-05T15:04:20</time>
      </trkpt>
      <trkpt lat="36.003938941285014" lon="129.3431739974767">
        <ele>13.6</ele>
        <time>2026-06-05T15:04:21</time>
      </trkpt>
      <trkpt lat="36.00392494350672" lon="129.34324993751943">
        <ele>13.4</ele>
        <time>2026-06-05T15:04:22</time>
      </trkpt>
      <trkpt lat="36.00390993990004" lon="129.34332797303796">
        <ele>13.4</ele>
        <time>2026-06-05T15:04:23</time>
      </trkpt>
      <trkpt lat="36.00389393046498" lon="129.34340793639421">
        <ele>13.2</ele>
        <time>2026-06-05T15:04:24</time>
      </trkpt>
      <trkpt lat="36.003878926858306" lon="129.34348999522626">
        <ele>13.0</ele>
        <time>2026-06-05T15:04:25</time>
      </trkpt>
      <trkpt lat="36.00386392325163" lon="129.34357498772442">
        <ele>12.8</ele>
        <time>2026-06-05T15:04:26</time>
      </trkpt>
      <trkpt lat="36.00384992547333" lon="129.34366098605096">
        <ele>12.6</ele>
        <time>2026-06-05T15:04:27</time>
      </trkpt>
      <trkpt lat="36.003835927695036" lon="129.34374799020588">
        <ele>12.4</ele>
        <time>2026-06-05T15:04:28</time>
      </trkpt>
      <trkpt lat="36.00382092408836" lon="129.34383792802691">
        <ele>12.2</ele>
        <time>2026-06-05T15:04:29</time>
      </trkpt>
      <trkpt lat="36.00380692631006" lon="129.34392895549536">
        <ele>12.0</ele>
        <time>2026-06-05T15:04:30</time>
      </trkpt>
      <trkpt lat="36.003792928531766" lon="129.34402098879218">
        <ele>11.8</ele>
        <time>2026-06-05T15:04:31</time>
      </trkpt>
      <trkpt lat="36.00377599708736" lon="129.34411394409835">
        <ele>11.6</ele>
        <time>2026-06-05T15:04:32</time>
      </trkpt>
      <trkpt lat="36.00375898182392" lon="129.34420899488032">
        <ele>11.4</ele>
        <time>2026-06-05T15:04:33</time>
      </trkpt>
      <trkpt lat="36.0037409607321" lon="129.34430496767163">
        <ele>11.0</ele>
        <time>2026-06-05T15:04:34</time>
      </trkpt>
      <trkpt lat="36.00372092798352" lon="129.34440094046295">
        <ele>10.8</ele>
        <time>2026-06-05T15:04:35</time>
      </trkpt>
      <trkpt lat="36.003701984882355" lon="129.34449498541653">
        <ele>10.6</ele>
        <time>2026-06-05T15:04:36</time>
      </trkpt>
      <trkpt lat="36.00367893464863" lon="129.34458492323756">
        <ele>10.6</ele>
        <time>2026-06-05T15:04:37</time>
      </trkpt>
      <trkpt lat="36.00365093909204" lon="129.34467695653439">
        <ele>10.4</ele>
        <time>2026-06-05T15:04:38</time>
      </trkpt>
      <trkpt lat="36.003620931878686" lon="129.3447639606893">
        <ele>10.4</ele>
        <time>2026-06-05T15:04:39</time>
      </trkpt>
      <trkpt lat="36.00359293632209" lon="129.34484995901585">
        <ele>10.4</ele>
        <time>2026-06-05T15:04:40</time>
      </trkpt>
      <trkpt lat="36.00356896407902" lon="129.3449399806559">
        <ele>10.2</ele>
        <time>2026-06-05T15:04:41</time>
      </trkpt>
      <trkpt lat="36.003550942987204" lon="129.34502991847694">
        <ele>10.2</ele>
        <time>2026-06-05T15:04:42</time>
      </trkpt>
      <trkpt lat="36.00353795103729" lon="129.345119940117">
        <ele>10.2</ele>
        <time>2026-06-05T15:04:43</time>
      </trkpt>
      <trkpt lat="36.003529988229275" lon="129.34520895592868">
        <ele>10.2</ele>
        <time>2026-06-05T15:04:44</time>
      </trkpt>
      <trkpt lat="36.00352495908737" lon="129.34529495425522">
        <ele>10.2</ele>
        <time>2026-06-05T15:04:45</time>
      </trkpt>
      <trkpt lat="36.00352294743061" lon="129.345378940925">
        <ele>10.0</ele>
        <time>2026-06-05T15:04:46</time>
      </trkpt>
      <trkpt lat="36.00352495908737" lon="129.3454619217664">
        <ele>10.0</ele>
        <time>2026-06-05T15:04:47</time>
      </trkpt>
      <trkpt lat="36.003527976572514" lon="129.34554398059845">
        <ele>10.0</ele>
        <time>2026-06-05T15:04:48</time>
      </trkpt>
      <trkpt lat="36.003532921895385" lon="129.34562696143985">
        <ele>10.0</ele>
        <time>2026-06-05T15:04:49</time>
      </trkpt>
      <trkpt lat="36.00353593938053" lon="129.345711953938">
        <ele>10.0</ele>
        <time>2026-06-05T15:04:50</time>
      </trkpt>
      <trkpt lat="36.00353795103729" lon="129.3457999639213">
        <ele>9.8</ele>
        <time>2026-06-05T15:04:51</time>
      </trkpt>
      <trkpt lat="36.00353694520891" lon="129.34589199721813">
        <ele>9.8</ele>
        <time>2026-06-05T15:04:52</time>
      </trkpt>
      <trkpt lat="36.00353593938053" lon="129.34598595835268">
        <ele>9.8</ele>
        <time>2026-06-05T15:04:53</time>
      </trkpt>
      <trkpt lat="36.003534933552146" lon="129.34608293697238">
        <ele>9.8</ele>
        <time>2026-06-05T15:04:54</time>
      </trkpt>
      <trkpt lat="36.00353593938053" lon="129.3461799994111">
        <ele>9.8</ele>
        <time>2026-06-05T15:04:55</time>
      </trkpt>
      <trkpt lat="36.00353694520891" lon="129.34627798385918">
        <ele>9.6</ele>
        <time>2026-06-05T15:04:56</time>
      </trkpt>
      <trkpt lat="36.00353694520891" lon="129.34637697413564">
        <ele>9.6</ele>
        <time>2026-06-05T15:04:57</time>
      </trkpt>
      <trkpt lat="36.00353795103729" lon="129.3464759644121">
        <ele>9.6</ele>
        <time>2026-06-05T15:04:58</time>
      </trkpt>
      <trkpt lat="36.00353795103729" lon="129.3465769663453">
        <ele>9.6</ele>
        <time>2026-06-05T15:04:59</time>
      </trkpt>
      <trkpt lat="36.00353795103729" lon="129.34667696245015">
        <ele>9.4</ele>
        <time>2026-06-05T15:05:00</time>
      </trkpt>
      <trkpt lat="36.00353795103729" lon="129.34677796438336">
        <ele>9.4</ele>
        <time>2026-06-05T15:05:01</time>
      </trkpt>
      <trkpt lat="36.00353795103729" lon="129.34687896631658">
        <ele>9.4</ele>
        <time>2026-06-05T15:05:02</time>
      </trkpt>
      <trkpt lat="36.00353795103729" lon="129.3469799682498">
        <ele>9.4</ele>
        <time>2026-06-05T15:05:03</time>
      </trkpt>
      <trkpt lat="36.00353795103729" lon="129.34708097018301">
        <ele>9.4</ele>
        <time>2026-06-05T15:05:04</time>
      </trkpt>
      <trkpt lat="36.00353996269405" lon="129.34717996045947">
        <ele>9.4</ele>
        <time>2026-06-05T15:05:05</time>
      </trkpt>
      <trkpt lat="36.00354197435081" lon="129.34727794490755">
        <ele>9.4</ele>
        <time>2026-06-05T15:05:06</time>
      </trkpt>
      <trkpt lat="36.00354398600757" lon="129.34737391769886">
        <ele>9.4</ele>
        <time>2026-06-05T15:05:07</time>
      </trkpt>
      <trkpt lat="36.00354599766433" lon="129.34746796265244">
        <ele>9.4</ele>
        <time>2026-06-05T15:05:08</time>
      </trkpt>
      <trkpt lat="36.00354792550206" lon="129.347561923787">
        <ele>9.4</ele>
        <time>2026-06-05T15:05:09</time>
      </trkpt>
      <trkpt lat="36.00354893133044" lon="129.3476549629122">
        <ele>9.4</ele>
        <time>2026-06-05T15:05:10</time>
      </trkpt>
      <trkpt lat="36.00354893133044" lon="129.34774791821837">
        <ele>9.4</ele>
        <time>2026-06-05T15:05:11</time>
      </trkpt>
      <trkpt lat="36.00354893133044" lon="129.34784095734358">
        <ele>9.4</ele>
        <time>2026-06-05T15:05:12</time>
      </trkpt>
      <trkpt lat="36.00354993715882" lon="129.34793198481202">
        <ele>9.6</ele>
        <time>2026-06-05T15:05:13</time>
      </trkpt>
      <trkpt lat="36.003551948815584" lon="129.34802292846143">
        <ele>9.8</ele>
        <time>2026-06-05T15:05:14</time>
      </trkpt>
      <trkpt lat="36.003553960472345" lon="129.34811093844473">
        <ele>10.2</ele>
        <time>2026-06-05T15:05:15</time>
      </trkpt>
      <trkpt lat="36.00355597212911" lon="129.34819693677127">
        <ele>10.4</ele>
        <time>2026-06-05T15:05:16</time>
      </trkpt>
      <trkpt lat="36.00355798378587" lon="129.34827698394656">
        <ele>10.6</ele>
        <time>2026-06-05T15:05:17</time>
      </trkpt>
      <trkpt lat="36.00356393493712" lon="129.34835099615157">
        <ele>11.0</ele>
        <time>2026-06-05T15:05:18</time>
      </trkpt>
      <trkpt lat="36.003573993220925" lon="129.3484179675579">
        <ele>11.2</ele>
        <time>2026-06-05T15:05:19</time>
      </trkpt>
      <trkpt lat="36.00358597934246" lon="129.34848099946976">
        <ele>11.6</ele>
        <time>2026-06-05T15:05:20</time>
      </trkpt>
      <trkpt lat="36.00359897129238" lon="129.3485429417342">
        <ele>11.8</ele>
        <time>2026-06-05T15:05:21</time>
      </trkpt>
      <trkpt lat="36.00361095741391" lon="129.34860597364604">
        <ele>12.0</ele>
        <time>2026-06-05T15:05:22</time>
      </trkpt>
      <trkpt lat="36.003620931878686" lon="129.34866992756724">
        <ele>12.2</ele>
        <time>2026-06-05T15:05:23</time>
      </trkpt>
      <trkpt lat="36.00362696684897" lon="129.34873597696424">
        <ele>12.4</ele>
        <time>2026-06-05T15:05:24</time>
      </trkpt>
      <trkpt lat="36.00362998433411" lon="129.34880596585572">
        <ele>12.4</ele>
        <time>2026-06-05T15:05:25</time>
      </trkpt>
      <trkpt lat="36.00362797267735" lon="129.34887696057558">
        <ele>12.6</ele>
        <time>2026-06-05T15:05:26</time>
      </trkpt>
      <trkpt lat="36.00362495519221" lon="129.3489499669522">
        <ele>12.8</ele>
        <time>2026-06-05T15:05:27</time>
      </trkpt>
      <trkpt lat="36.00362193770707" lon="129.34902297332883">
        <ele>12.8</ele>
        <time>2026-06-05T15:05:28</time>
      </trkpt>
      <trkpt lat="36.003618920221925" lon="129.34909597970545">
        <ele>12.8</ele>
        <time>2026-06-05T15:05:29</time>
      </trkpt>
      <trkpt lat="36.003614980727434" lon="129.34916898608208">
        <ele>12.8</ele>
        <time>2026-06-05T15:05:30</time>
      </trkpt>
      <trkpt lat="36.00361095741391" lon="129.34924299828708">
        <ele>12.8</ele>
        <time>2026-06-05T15:05:31</time>
      </trkpt>
      <trkpt lat="36.00360894575715" lon="129.34931592084467">
        <ele>12.8</ele>
        <time>2026-06-05T15:05:32</time>
      </trkpt>
      <trkpt lat="36.00360592827201" lon="129.3493889272213">
        <ele>12.8</ele>
        <time>2026-06-05T15:05:33</time>
      </trkpt>
      <trkpt lat="36.00360391661525" lon="129.34946193359792">
        <ele>12.8</ele>
        <time>2026-06-05T15:05:34</time>
      </trkpt>
      <trkpt lat="36.00360198877752" lon="129.3495369516313">
        <ele>12.8</ele>
        <time>2026-06-05T15:05:35</time>
      </trkpt>
      <trkpt lat="36.00359897129238" lon="129.3496119696647">
        <ele>12.8</ele>
        <time>2026-06-05T15:05:36</time>
      </trkpt>
      <trkpt lat="36.003596959635615" lon="129.34968698769808">
        <ele>12.8</ele>
        <time>2026-06-05T15:05:37</time>
      </trkpt>
      <trkpt lat="36.003595953807235" lon="129.34976192191243">
        <ele>12.8</ele>
        <time>2026-06-05T15:05:38</time>
      </trkpt>
      <trkpt lat="36.003594947978854" lon="129.3498379457742">
        <ele>12.8</ele>
        <time>2026-06-05T15:05:39</time>
      </trkpt>
      <trkpt lat="36.003593942150474" lon="129.34991396963596">
        <ele>12.8</ele>
        <time>2026-06-05T15:05:40</time>
      </trkpt>
      <trkpt lat="36.00359193049371" lon="129.34998999349773">
        <ele>12.8</ele>
        <time>2026-06-05T15:05:41</time>
      </trkpt>
      <trkpt lat="36.00358991883695" lon="129.35006593354046">
        <ele>12.8</ele>
        <time>2026-06-05T15:05:42</time>
      </trkpt>
      <trkpt lat="36.0035889968276" lon="129.3501429632306">
        <ele>12.8</ele>
        <time>2026-06-05T15:05:43</time>
      </trkpt>
      <trkpt lat="36.00358698517084" lon="129.35022099874914">
        <ele>12.8</ele>
        <time>2026-06-05T15:05:44</time>
      </trkpt>
      <trkpt lat="36.00358497351408" lon="129.35029693879187">
        <ele>12.8</ele>
        <time>2026-06-05T15:05:45</time>
      </trkpt>
      <trkpt lat="36.00358296185732" lon="129.35037195682526">
        <ele>12.8</ele>
        <time>2026-06-05T15:05:46</time>
      </trkpt>
      <trkpt lat="36.00358095020056" lon="129.35044697485864">
        <ele>12.8</ele>
        <time>2026-06-05T15:05:47</time>
      </trkpt>
      <trkpt lat="36.00358095020056" lon="129.35052199289203">
        <ele>12.8</ele>
        <time>2026-06-05T15:05:48</time>
      </trkpt>
      <trkpt lat="36.00357994437218" lon="129.35059793293476">
        <ele>12.8</ele>
        <time>2026-06-05T15:05:49</time>
      </trkpt>
      <trkpt lat="36.0035789385438" lon="129.35067295096815">
        <ele>13.0</ele>
        <time>2026-06-05T15:05:50</time>
      </trkpt>
      <trkpt lat="36.0035789385438" lon="129.3507489748299">
        <ele>13.0</ele>
        <time>2026-06-05T15:05:51</time>
      </trkpt>
      <trkpt lat="36.0035789385438" lon="129.35082592070103">
        <ele>12.8</ele>
        <time>2026-06-05T15:05:52</time>
      </trkpt>
      <trkpt lat="36.00357994437218" lon="129.3509019445628">
        <ele>12.8</ele>
        <time>2026-06-05T15:05:53</time>
      </trkpt>
      <trkpt lat="36.00358095020056" lon="129.35097998008132">
        <ele>12.8</ele>
        <time>2026-06-05T15:05:54</time>
      </trkpt>
      <trkpt lat="36.00358195602894" lon="129.35105793178082">
        <ele>12.8</ele>
        <time>2026-06-05T15:05:55</time>
      </trkpt>
      <trkpt lat="36.00358296185732" lon="129.35113496147096">
        <ele>12.8</ele>
        <time>2026-06-05T15:05:56</time>
      </trkpt>
      <trkpt lat="36.0035839676857" lon="129.35121098533273">
        <ele>12.6</ele>
        <time>2026-06-05T15:05:57</time>
      </trkpt>
      <trkpt lat="36.00358296185732" lon="129.35128591954708">
        <ele>12.6</ele>
        <time>2026-06-05T15:05:58</time>
      </trkpt>
      <trkpt lat="36.00358195602894" lon="129.35135993175209">
        <ele>12.6</ele>
        <time>2026-06-05T15:05:59</time>
      </trkpt>
      <trkpt lat="36.00358095020056" lon="129.35143494978547">
        <ele>12.6</ele>
        <time>2026-06-05T15:06:00</time>
      </trkpt>
      <trkpt lat="36.00358195602894" lon="129.35150996781886">
        <ele>12.6</ele>
        <time>2026-06-05T15:06:01</time>
      </trkpt>
      <trkpt lat="36.00358296185732" lon="129.35158498585224">
        <ele>12.6</ele>
        <time>2026-06-05T15:06:02</time>
      </trkpt>
      <trkpt lat="36.00358597934246" lon="129.3516599200666">
        <ele>12.6</ele>
        <time>2026-06-05T15:06:03</time>
      </trkpt>
      <trkpt lat="36.0035889968276" lon="129.35173292644322">
        <ele>12.6</ele>
        <time>2026-06-05T15:06:04</time>
      </trkpt>
      <trkpt lat="36.00359193049371" lon="129.35180392116308">
        <ele>12.6</ele>
        <time>2026-06-05T15:06:05</time>
      </trkpt>
      <trkpt lat="36.003595953807235" lon="129.3518739938736">
        <ele>12.6</ele>
        <time>2026-06-05T15:06:06</time>
      </trkpt>
      <trkpt lat="36.00360198877752" lon="129.35194498859346">
        <ele>12.6</ele>
        <time>2026-06-05T15:06:07</time>
      </trkpt>
      <trkpt lat="36.00360894575715" lon="129.3520169891417">
        <ele>12.6</ele>
        <time>2026-06-05T15:06:08</time>
      </trkpt>
      <trkpt lat="36.003615986555815" lon="129.35209091752768">
        <ele>12.6</ele>
        <time>2026-06-05T15:06:09</time>
      </trkpt>
      <trkpt lat="36.003620931878686" lon="129.35216794721782">
        <ele>12.6</ele>
        <time>2026-06-05T15:06:10</time>
      </trkpt>
      <trkpt lat="36.00362495519221" lon="129.35224598273635">
        <ele>12.6</ele>
        <time>2026-06-05T15:06:11</time>
      </trkpt>
      <trkpt lat="36.00362797267735" lon="129.3523259460926">
        <ele>12.6</ele>
        <time>2026-06-05T15:06:12</time>
      </trkpt>
      <trkpt lat="36.00363099016249" lon="129.3524059932679">
        <ele>12.6</ele>
        <time>2026-06-05T15:06:13</time>
      </trkpt>
      <trkpt lat="36.0036339238286" lon="129.35248495079577">
        <ele>12.6</ele>
        <time>2026-06-05T15:06:14</time>
      </trkpt>
      <trkpt lat="36.003637947142124" lon="129.3525629863143">
        <ele>12.6</ele>
        <time>2026-06-05T15:06:15</time>
      </trkpt>
      <trkpt lat="36.00364398211241" lon="129.3526409380138">
        <ele>12.6</ele>
        <time>2026-06-05T15:06:16</time>
      </trkpt>
      <trkpt lat="36.00365093909204" lon="129.35271897353232">
        <ele>12.8</ele>
        <time>2026-06-05T15:06:17</time>
      </trkpt>
      <trkpt lat="36.003657979890704" lon="129.35279591940343">
        <ele>12.8</ele>
        <time>2026-06-05T15:06:18</time>
      </trkpt>
      <trkpt lat="36.00366493687034" lon="129.35287496075034">
        <ele>12.8</ele>
        <time>2026-06-05T15:06:19</time>
      </trkpt>
      <trkpt lat="36.00367097184062" lon="129.3529549241066">
        <ele>12.8</ele>
        <time>2026-06-05T15:06:20</time>
      </trkpt>
      <trkpt lat="36.00367893464863" lon="129.35303698293865">
        <ele>12.8</ele>
        <time>2026-06-05T15:06:21</time>
      </trkpt>
      <trkpt lat="36.0036859754473" lon="129.35312096960843">
        <ele>12.8</ele>
        <time>2026-06-05T15:06:22</time>
      </trkpt>
      <trkpt lat="36.00369494408369" lon="129.35320596210659">
        <ele>12.8</ele>
        <time>2026-06-05T15:06:23</time>
      </trkpt>
      <trkpt lat="36.003704918548465" lon="129.35329095460474">
        <ele>12.8</ele>
        <time>2026-06-05T15:06:24</time>
      </trkpt>
      <trkpt lat="36.00371497683227" lon="129.3533759471029">
        <ele>12.8</ele>
        <time>2026-06-05T15:06:25</time>
      </trkpt>
      <trkpt lat="36.003723945468664" lon="129.35346093960106">
        <ele>12.8</ele>
        <time>2026-06-05T15:06:26</time>
      </trkpt>
      <trkpt lat="36.00373199209571" lon="129.3535469379276">
        <ele>12.8</ele>
        <time>2026-06-05T15:06:27</time>
      </trkpt>
      <trkpt lat="36.00373894907534" lon="129.35363394208252">
        <ele>12.8</ele>
        <time>2026-06-05T15:06:28</time>
      </trkpt>
      <trkpt lat="36.003746995702386" lon="129.35372094623744">
        <ele>12.8</ele>
        <time>2026-06-05T15:06:29</time>
      </trkpt>
      <trkpt lat="36.00375697016716" lon="129.35380694456398">
        <ele>12.8</ele>
        <time>2026-06-05T15:06:30</time>
      </trkpt>
      <trkpt lat="36.003767950460315" lon="129.3538939487189">
        <ele>12.8</ele>
        <time>2026-06-05T15:06:31</time>
      </trkpt>
      <trkpt lat="36.00377792492509" lon="129.3539819587022">
        <ele>12.8</ele>
        <time>2026-06-05T15:06:32</time>
      </trkpt>
      <trkpt lat="36.003787983208895" lon="129.35406896285713">
        <ele>12.8</ele>
        <time>2026-06-05T15:06:33</time>
      </trkpt>
      <trkpt lat="36.00379996933043" lon="129.35415596701205">
        <ele>12.8</ele>
        <time>2026-06-05T15:06:34</time>
      </trkpt>
      <trkpt lat="36.003810949623585" lon="129.3542409595102">
        <ele>12.8</ele>
        <time>2026-06-05T15:06:35</time>
      </trkpt>
      <trkpt lat="36.00382192991674" lon="129.35432695783675">
        <ele>12.8</ele>
        <time>2026-06-05T15:06:36</time>
      </trkpt>
      <trkpt lat="36.003832994028926" lon="129.3544119503349">
        <ele>12.8</ele>
        <time>2026-06-05T15:06:37</time>
      </trkpt>
      <trkpt lat="36.0038429684937" lon="129.35449895448983">
        <ele>12.8</ele>
        <time>2026-06-05T15:06:38</time>
      </trkpt>
      <trkpt lat="36.003854954615235" lon="129.35458595864475">
        <ele>12.8</ele>
        <time>2026-06-05T15:06:39</time>
      </trkpt>
      <trkpt lat="36.00386694073677" lon="129.35467396862805">
        <ele>12.8</ele>
        <time>2026-06-05T15:06:40</time>
      </trkpt>
      <trkpt lat="36.00387993268669" lon="129.35476197861135">
        <ele>12.8</ele>
        <time>2026-06-05T15:06:41</time>
      </trkpt>
      <trkpt lat="36.00389191880822" lon="129.35484998859465">
        <ele>12.8</ele>
        <time>2026-06-05T15:06:42</time>
      </trkpt>
      <trkpt lat="36.00390591658652" lon="129.35493699274957">
        <ele>12.8</ele>
        <time>2026-06-05T15:06:43</time>
      </trkpt>
      <trkpt lat="36.003918992355466" lon="129.35502198524773">
        <ele>12.8</ele>
        <time>2026-06-05T15:06:44</time>
      </trkpt>
      <trkpt lat="36.00393299013376" lon="129.3551059719175">
        <ele>12.6</ele>
        <time>2026-06-05T15:06:45</time>
      </trkpt>
      <trkpt lat="36.00394698791206" lon="129.3551899585873">
        <ele>12.6</ele>
        <time>2026-06-05T15:06:46</time>
      </trkpt>
      <trkpt lat="36.003959979861975" lon="129.35527495108545">
        <ele>12.6</ele>
        <time>2026-06-05T15:06:47</time>
      </trkpt>
      <trkpt lat="36.00397297181189" lon="129.3553599435836">
        <ele>12.6</ele>
        <time>2026-06-05T15:06:48</time>
      </trkpt>
      <trkpt lat="36.00398596376181" lon="129.35544594191015">
        <ele>12.6</ele>
        <time>2026-06-05T15:06:49</time>
      </trkpt>
      <trkpt lat="36.00400096736848" lon="129.3555319402367">
        <ele>12.6</ele>
        <time>2026-06-05T15:06:50</time>
      </trkpt>
      <trkpt lat="36.00401597097516" lon="129.3556189443916">
        <ele>12.6</ele>
        <time>2026-06-05T15:06:51</time>
      </trkpt>
      <trkpt lat="36.00403198041022" lon="129.35570594854653">
        <ele>12.8</ele>
        <time>2026-06-05T15:06:52</time>
      </trkpt>
      <trkpt lat="36.004047989845276" lon="129.35579295270145">
        <ele>12.8</ele>
        <time>2026-06-05T15:06:53</time>
      </trkpt>
      <trkpt lat="36.00406299345195" lon="129.355878951028">
        <ele>12.8</ele>
        <time>2026-06-05T15:06:54</time>
      </trkpt>
      <trkpt lat="36.00407799705863" lon="129.35596394352615">
        <ele>12.8</ele>
        <time>2026-06-05T15:06:55</time>
      </trkpt>
      <trkpt lat="36.00409492850304" lon="129.35604793019593">
        <ele>12.8</ele>
        <time>2026-06-05T15:06:56</time>
      </trkpt>
      <trkpt lat="36.004111943766475" lon="129.35612797737122">
        <ele>12.8</ele>
        <time>2026-06-05T15:06:57</time>
      </trkpt>
      <trkpt lat="36.00412895902991" lon="129.3562069348991">
        <ele>12.8</ele>
        <time>2026-06-05T15:06:58</time>
      </trkpt>
      <trkpt lat="36.00414396263659" lon="129.356285976246">
        <ele>12.6</ele>
        <time>2026-06-05T15:06:59</time>
      </trkpt>
      <trkpt lat="36.004156954586506" lon="129.35636493377388">
        <ele>12.6</ele>
        <time>2026-06-05T15:07:00</time>
      </trkpt>
      <trkpt lat="36.0041709523648" lon="129.35644598677754">
        <ele>12.6</ele>
        <time>2026-06-05T15:07:01</time>
      </trkpt>
      <trkpt lat="36.00418595597148" lon="129.35652796179056">
        <ele>12.6</ele>
        <time>2026-06-05T15:07:02</time>
      </trkpt>
      <trkpt lat="36.00420095957816" lon="129.35661194846034">
        <ele>12.6</ele>
        <time>2026-06-05T15:07:03</time>
      </trkpt>
      <trkpt lat="36.004217974841595" lon="129.3566969409585">
        <ele>12.6</ele>
        <time>2026-06-05T15:07:04</time>
      </trkpt>
      <trkpt lat="36.00423599593341" lon="129.35678193345666">
        <ele>12.6</ele>
        <time>2026-06-05T15:07:05</time>
      </trkpt>
      <trkpt lat="36.00425493903458" lon="129.35686692595482">
        <ele>12.6</ele>
        <time>2026-06-05T15:07:06</time>
      </trkpt>
      <trkpt lat="36.0042729601264" lon="129.35695191845298">
        <ele>12.6</ele>
        <time>2026-06-05T15:07:07</time>
      </trkpt>
      <trkpt lat="36.0042919870466" lon="129.3570359889418">
        <ele>12.6</ele>
        <time>2026-06-05T15:07:08</time>
      </trkpt>
      <trkpt lat="36.00431193597615" lon="129.35711997561157">
        <ele>12.6</ele>
        <time>2026-06-05T15:07:09</time>
      </trkpt>
      <trkpt lat="36.00433096289635" lon="129.35720295645297">
        <ele>12.6</ele>
        <time>2026-06-05T15:07:10</time>
      </trkpt>
      <trkpt lat="36.004348983988166" lon="129.3572839256376">
        <ele>12.6</ele>
        <time>2026-06-05T15:07:11</time>
      </trkpt>
      <trkpt lat="36.00436692126095" lon="129.3573639728129">
        <ele>12.6</ele>
        <time>2026-06-05T15:07:12</time>
      </trkpt>
      <trkpt lat="36.00438393652439" lon="129.35744293034077">
        <ele>12.8</ele>
        <time>2026-06-05T15:07:13</time>
      </trkpt>
      <trkpt lat="36.00440195761621" lon="129.35751895420253">
        <ele>12.8</ele>
        <time>2026-06-05T15:07:14</time>
      </trkpt>
      <trkpt lat="36.00441897287965" lon="129.3575949780643">
        <ele>12.8</ele>
        <time>2026-06-05T15:07:15</time>
      </trkpt>
      <trkpt lat="36.004435988143086" lon="129.3576689902693">
        <ele>12.8</ele>
        <time>2026-06-05T15:07:16</time>
      </trkpt>
      <trkpt lat="36.004451997578144" lon="129.35774199664593">
        <ele>12.8</ele>
        <time>2026-06-05T15:07:17</time>
      </trkpt>
      <trkpt lat="36.00446892902255" lon="129.3578129913658">
        <ele>12.8</ele>
        <time>2026-06-05T15:07:18</time>
      </trkpt>
      <trkpt lat="36.00448594428599" lon="129.35788298025727">
        <ele>12.8</ele>
        <time>2026-06-05T15:07:19</time>
      </trkpt>
      <trkpt lat="36.00450295954943" lon="129.357950957492">
        <ele>12.8</ele>
        <time>2026-06-05T15:07:20</time>
      </trkpt>
      <trkpt lat="36.004517963156104" lon="129.35801792889833">
        <ele>12.8</ele>
        <time>2026-06-05T15:07:21</time>
      </trkpt>
      <trkpt lat="36.00453296676278" lon="129.35808297246695">
        <ele>12.8</ele>
        <time>2026-06-05T15:07:22</time>
      </trkpt>
      <trkpt lat="36.00454696454108" lon="129.35814793221653">
        <ele>13.0</ele>
        <time>2026-06-05T15:07:23</time>
      </trkpt>
      <trkpt lat="36.004560962319374" lon="129.35821196995676">
        <ele>12.8</ele>
        <time>2026-06-05T15:07:24</time>
      </trkpt>
      <trkpt lat="36.00457797758281" lon="129.35827491804957">
        <ele>12.8</ele>
        <time>2026-06-05T15:07:25</time>
      </trkpt>
      <trkpt lat="36.00459398701787" lon="129.35833794996142">
        <ele>12.8</ele>
        <time>2026-06-05T15:07:26</time>
      </trkpt>
      <trkpt lat="36.00461192429066" lon="129.3583989702165">
        <ele>12.8</ele>
        <time>2026-06-05T15:07:27</time>
      </trkpt>
      <trkpt lat="36.004627933725715" lon="129.35845898464322">
        <ele>12.8</ele>
        <time>2026-06-05T15:07:28</time>
      </trkpt>
      <trkpt lat="36.00463799200952" lon="129.35851992107928">
        <ele>12.8</ele>
        <time>2026-06-05T15:07:29</time>
      </trkpt>
      <trkpt lat="36.00463991984725" lon="129.35858194716275">
        <ele>12.6</ele>
        <time>2026-06-05T15:07:30</time>
      </trkpt>
      <trkpt lat="36.0046389978379" lon="129.3586449790746">
        <ele>12.6</ele>
        <time>2026-06-05T15:07:31</time>
      </trkpt>
      <trkpt lat="36.00464293733239" lon="129.3587089329958">
        <ele>12.2</ele>
        <time>2026-06-05T15:07:32</time>
      </trkpt>
      <trkpt lat="36.00465592928231" lon="129.35877095907927">
        <ele>12.2</ele>
        <time>2026-06-05T15:07:33</time>
      </trkpt>
      <trkpt lat="36.00467797368765" lon="129.35882795602083">
        <ele>12.2</ele>
        <time>2026-06-05T15:07:34</time>
      </trkpt>
      <trkpt lat="36.00470596924424" lon="129.3588799238205">
        <ele>12.2</ele>
        <time>2026-06-05T15:07:35</time>
      </trkpt>
      <trkpt lat="36.004734970629215" lon="129.35892795212567">
        <ele>12.2</ele>
        <time>2026-06-05T15:07:36</time>
      </trkpt>
      <trkpt lat="36.00476296618581" lon="129.35897195711732">
        <ele>12.2</ele>
        <time>2026-06-05T15:07:37</time>
      </trkpt>
      <trkpt lat="36.00478794425726" lon="129.35901294462383">
        <ele>12.2</ele>
        <time>2026-06-05T15:07:38</time>
      </trkpt>
      <trkpt lat="36.00480797700584" lon="129.35905292630196">
        <ele>12.2</ele>
        <time>2026-06-05T15:07:39</time>
      </trkpt>
      <trkpt lat="36.00482499226928" lon="129.35909198597074">
        <ele>12.4</ele>
        <time>2026-06-05T15:07:40</time>
      </trkpt>
      <trkpt lat="36.004838990047574" lon="129.35913297347724">
        <ele>12.4</ele>
        <time>2026-06-05T15:07:41</time>
      </trkpt>
      <trkpt lat="36.00484997034073" lon="129.35917496681213">
        <ele>12.4</ele>
        <time>2026-06-05T15:07:42</time>
      </trkpt>
      <trkpt lat="36.00486095063388" lon="129.35921997763216">
        <ele>12.4</ele>
        <time>2026-06-05T15:07:43</time>
      </trkpt>
      <trkpt lat="36.00487293675542" lon="129.3592679221183">
        <ele>12.4</ele>
        <time>2026-06-05T15:07:44</time>
      </trkpt>
      <trkpt lat="36.004885928705335" lon="129.35931896790862">
        <ele>12.4</ele>
        <time>2026-06-05T15:07:45</time>
      </trkpt>
      <trkpt lat="36.00489992648363" lon="129.35937194153666">
        <ele>12.4</ele>
        <time>2026-06-05T15:07:46</time>
      </trkpt>
      <trkpt lat="36.00491593591869" lon="129.35942793264985">
        <ele>12.2</ele>
        <time>2026-06-05T15:07:47</time>
      </trkpt>
      <trkpt lat="36.00493395701051" lon="129.35948492959142">
        <ele>12.2</ele>
        <time>2026-06-05T15:07:48</time>
      </trkpt>
      <trkpt lat="36.004951978102326" lon="129.35954293236136">
        <ele>12.2</ele>
        <time>2026-06-05T15:07:49</time>
      </trkpt>
      <trkpt lat="36.004967987537384" lon="129.3596009351313">
        <ele>12.2</ele>
        <time>2026-06-05T15:07:50</time>
      </trkpt>
      <trkpt lat="36.00497896783054" lon="129.35965893790126">
        <ele>12.2</ele>
        <time>2026-06-05T15:07:51</time>
      </trkpt>
      <trkpt lat="36.00498198531568" lon="129.35971593484282">
        <ele>12.0</ele>
        <time>2026-06-05T15:07:52</time>
      </trkpt>
      <trkpt lat="36.00497997365892" lon="129.3597729317844">
        <ele>12.0</ele>
        <time>2026-06-05T15:07:53</time>
      </trkpt>
      <trkpt lat="36.00497997365892" lon="129.35983194038272">
        <ele>11.8</ele>
        <time>2026-06-05T15:07:54</time>
      </trkpt>
      <trkpt lat="36.00498793646693" lon="129.3598939664662">
        <ele>11.8</ele>
        <time>2026-06-05T15:07:55</time>
      </trkpt>
      <trkpt lat="36.00500595755875" lon="129.35995498672128">
        <ele>11.6</ele>
        <time>2026-06-05T15:07:56</time>
      </trkpt>
      <trkpt lat="36.005033953115344" lon="129.36001491732895">
        <ele>11.6</ele>
        <time>2026-06-05T15:07:57</time>
      </trkpt>
      <trkpt lat="36.00506798364222" lon="129.36007099226117">
        <ele>11.6</ele>
        <time>2026-06-05T15:07:58</time>
      </trkpt>
      <trkpt lat="36.00510494783521" lon="129.36012597754598">
        <ele>11.8</ele>
        <time>2026-06-05T15:07:59</time>
      </trkpt>
      <trkpt lat="36.005141995847225" lon="129.36018096283078">
        <ele>11.8</ele>
        <time>2026-06-05T15:08:00</time>
      </trkpt>
      <trkpt lat="36.00517896004021" lon="129.36023192480206">
        <ele>12.0</ele>
        <time>2026-06-05T15:08:01</time>
      </trkpt>
      <trkpt lat="36.005208967253566" lon="129.36028598807752">
        <ele>12.0</ele>
        <time>2026-06-05T15:08:02</time>
      </trkpt>
      <trkpt lat="36.005232939496636" lon="129.3603429850191">
        <ele>12.2</ele>
        <time>2026-06-05T15:08:03</time>
      </trkpt>
      <trkpt lat="36.005252972245216" lon="129.3604029994458">
        <ele>12.4</ele>
        <time>2026-06-05T15:08:04</time>
      </trkpt>
      <trkpt lat="36.005270993337035" lon="129.36046594753861">
        <ele>12.6</ele>
        <time>2026-06-05T15:08:05</time>
      </trkpt>
      <trkpt lat="36.00528893060982" lon="129.36052797362208">
        <ele>12.6</ele>
        <time>2026-06-05T15:08:06</time>
      </trkpt>
      <trkpt lat="36.00530494004488" lon="129.36058999970555">
        <ele>12.8</ele>
        <time>2026-06-05T15:08:07</time>
      </trkpt>
      <trkpt lat="36.0053229611367" lon="129.3606509361416">
        <ele>12.8</ele>
        <time>2026-06-05T15:08:08</time>
      </trkpt>
      <trkpt lat="36.0053419880569" lon="129.36070994473994">
        <ele>12.8</ele>
        <time>2026-06-05T15:08:09</time>
      </trkpt>
      <trkpt lat="36.005360931158066" lon="129.36076794750988">
        <ele>13.0</ele>
        <time>2026-06-05T15:08:10</time>
      </trkpt>
      <trkpt lat="36.005381969735026" lon="129.36082595027983">
        <ele>13.0</ele>
        <time>2026-06-05T15:08:11</time>
      </trkpt>
      <trkpt lat="36.005402924492955" lon="129.36088495887816">
        <ele>13.0</ele>
        <time>2026-06-05T15:08:12</time>
      </trkpt>
      <trkpt lat="36.005424968898296" lon="129.3609439674765">
        <ele>13.0</ele>
        <time>2026-06-05T15:08:13</time>
      </trkpt>
      <trkpt lat="36.005446929484606" lon="129.36100498773158">
        <ele>13.0</ele>
        <time>2026-06-05T15:08:14</time>
      </trkpt>
      <trkpt lat="36.00546997971833" lon="129.36106592416763">
        <ele>13.0</ele>
        <time>2026-06-05T15:08:15</time>
      </trkpt>
      <trkpt lat="36.005490934476256" lon="129.36112694442272">
        <ele>13.2</ele>
        <time>2026-06-05T15:08:16</time>
      </trkpt>
      <trkpt lat="36.0055129788816" lon="129.36118494719267">
        <ele>13.2</ele>
        <time>2026-06-05T15:08:17</time>
      </trkpt>
      <trkpt lat="36.00553493946791" lon="129.36124294996262">
        <ele>13.2</ele>
        <time>2026-06-05T15:08:18</time>
      </trkpt>
      <trkpt lat="36.00555798970163" lon="129.36130095273256">
        <ele>13.2</ele>
        <time>2026-06-05T15:08:19</time>
      </trkpt>
      <trkpt lat="36.00558095611632" lon="129.3613589555025">
        <ele>13.2</ele>
        <time>2026-06-05T15:08:20</time>
      </trkpt>
      <trkpt lat="36.00560492835939" lon="129.36141595244408">
        <ele>13.2</ele>
        <time>2026-06-05T15:08:21</time>
      </trkpt>
      <trkpt lat="36.00562797859311" lon="129.36147395521402">
        <ele>13.2</ele>
        <time>2026-06-05T15:08:22</time>
      </trkpt>
      <trkpt lat="36.0056509450078" lon="129.36153396964073">
        <ele>13.0</ele>
        <time>2026-06-05T15:08:23</time>
      </trkpt>
      <trkpt lat="36.00567298941314" lon="129.36159498989582">
        <ele>13.0</ele>
        <time>2026-06-05T15:08:24</time>
      </trkpt>
      <trkpt lat="36.00569696165621" lon="129.36165592633188">
        <ele>13.0</ele>
        <time>2026-06-05T15:08:25</time>
      </trkpt>
      <trkpt lat="36.00572093389928" lon="129.36171895824373">
        <ele>13.0</ele>
        <time>2026-06-05T15:08:26</time>
      </trkpt>
      <trkpt lat="36.005745995789766" lon="129.36178199015558">
        <ele>13.0</ele>
        <time>2026-06-05T15:08:27</time>
      </trkpt>
      <trkpt lat="36.00577298551798" lon="129.3618449382484">
        <ele>13.0</ele>
        <time>2026-06-05T15:08:28</time>
      </trkpt>
      <trkpt lat="36.00579997524619" lon="129.36190897598863">
        <ele>13.0</ele>
        <time>2026-06-05T15:08:29</time>
      </trkpt>
      <trkpt lat="36.005827970802784" lon="129.3619739357382">
        <ele>13.0</ele>
        <time>2026-06-05T15:08:30</time>
      </trkpt>
      <trkpt lat="36.00585596635938" lon="129.3620399851352">
        <ele>13.0</ele>
        <time>2026-06-05T15:08:31</time>
      </trkpt>
      <trkpt lat="36.00588396191597" lon="129.36210796236992">
        <ele>13.0</ele>
        <time>2026-06-05T15:08:32</time>
      </trkpt>
      <trkpt lat="36.005913969129324" lon="129.3621779512614">
        <ele>13.0</ele>
        <time>2026-06-05T15:08:33</time>
      </trkpt>
      <trkpt lat="36.00594498217106" lon="129.36224894598126">
        <ele>13.0</ele>
        <time>2026-06-05T15:08:34</time>
      </trkpt>
      <trkpt lat="36.00597792305052" lon="129.3623209465295">
        <ele>13.0</ele>
        <time>2026-06-05T15:08:35</time>
      </trkpt>
      <trkpt lat="36.0060119535774" lon="129.3623949587345">
        <ele>13.0</ele>
        <time>2026-06-05T15:08:36</time>
      </trkpt>
      <trkpt lat="36.006044978275895" lon="129.36247098259628">
        <ele>13.0</ele>
        <time>2026-06-05T15:08:37</time>
      </trkpt>
      <trkpt lat="36.00607791915536" lon="129.3625479284674">
        <ele>13.0</ele>
        <time>2026-06-05T15:08:38</time>
      </trkpt>
      <trkpt lat="36.006111949682236" lon="129.3626269698143">
        <ele>13.0</ele>
        <time>2026-06-05T15:08:39</time>
      </trkpt>
      <trkpt lat="36.00614497438073" lon="129.36270592734218">
        <ele>13.0</ele>
        <time>2026-06-05T15:08:40</time>
      </trkpt>
      <trkpt lat="36.00618093274534" lon="129.36278597451746">
        <ele>13.0</ele>
        <time>2026-06-05T15:08:41</time>
      </trkpt>
      <trkpt lat="36.006216974928975" lon="129.36286593787372">
        <ele>13.0</ele>
        <time>2026-06-05T15:08:42</time>
      </trkpt>
      <trkpt lat="36.00625393912196" lon="129.36294497922063">
        <ele>12.8</ele>
        <time>2026-06-05T15:08:43</time>
      </trkpt>
      <trkpt lat="36.00629098713398" lon="129.36302494257689">
        <ele>13.0</ele>
        <time>2026-06-05T15:08:44</time>
      </trkpt>
      <trkpt lat="36.006327951326966" lon="129.3631029780954">
        <ele>13.0</ele>
        <time>2026-06-05T15:08:45</time>
      </trkpt>
      <trkpt lat="36.006363993510604" lon="129.36317992396653">
        <ele>13.0</ele>
        <time>2026-06-05T15:08:46</time>
      </trkpt>
      <trkpt lat="36.00639894604683" lon="129.3632559478283">
        <ele>13.0</ele>
        <time>2026-06-05T15:08:47</time>
      </trkpt>
      <trkpt lat="36.006433982402086" lon="129.36333096586168">
        <ele>13.0</ele>
        <time>2026-06-05T15:08:48</time>
      </trkpt>
      <trkpt lat="36.00646893493831" lon="129.3634039722383">
        <ele>13.0</ele>
        <time>2026-06-05T15:08:49</time>
      </trkpt>
      <trkpt lat="36.00650195963681" lon="129.36347597278655">
        <ele>13.0</ele>
        <time>2026-06-05T15:08:50</time>
      </trkpt>
      <trkpt lat="36.006535990163684" lon="129.36354596167803">
        <ele>13.0</ele>
        <time>2026-06-05T15:08:51</time>
      </trkpt>
      <trkpt lat="36.00656893104315" lon="129.3636159505695">
        <ele>13.0</ele>
        <time>2026-06-05T15:08:52</time>
      </trkpt>
      <trkpt lat="36.006601955741644" lon="129.3636849336326">
        <ele>13.2</ele>
        <time>2026-06-05T15:08:53</time>
      </trkpt>
      <trkpt lat="36.00663296878338" lon="129.36375299468637">
        <ele>13.2</ele>
        <time>2026-06-05T15:08:54</time>
      </trkpt>
      <trkpt lat="36.00666398182511" lon="129.36381896026433">
        <ele>13.2</ele>
        <time>2026-06-05T15:08:55</time>
      </trkpt>
      <trkpt lat="36.00669499486685" lon="129.36388492584229">
        <ele>13.2</ele>
        <time>2026-06-05T15:08:56</time>
      </trkpt>
      <trkpt lat="36.00672692991793" lon="129.36394896358252">
        <ele>13.2</ele>
        <time>2026-06-05T15:08:57</time>
      </trkpt>
      <trkpt lat="36.00675894878805" lon="129.36401291750371">
        <ele>13.4</ele>
        <time>2026-06-05T15:08:58</time>
      </trkpt>
      <trkpt lat="36.00679197348654" lon="129.36407594941556">
        <ele>13.4</ele>
        <time>2026-06-05T15:08:59</time>
      </trkpt>
      <trkpt lat="36.00682592019439" lon="129.36413898132741">
        <ele>13.4</ele>
        <time>2026-06-05T15:09:00</time>
      </trkpt>
      <trkpt lat="36.006859950721264" lon="129.36419991776347">
        <ele>13.4</ele>
        <time>2026-06-05T15:09:01</time>
      </trkpt>
      <trkpt lat="36.00689398124814" lon="129.36425993219018">
        <ele>13.4</ele>
        <time>2026-06-05T15:09:02</time>
      </trkpt>
      <trkpt lat="36.006925916299224" lon="129.3643189407885">
        <ele>13.4</ele>
        <time>2026-06-05T15:09:03</time>
      </trkpt>
      <trkpt lat="36.00695692934096" lon="129.36437694355845">
        <ele>13.4</ele>
        <time>2026-06-05T15:09:04</time>
      </trkpt>
      <trkpt lat="36.00698693655431" lon="129.36443293467164">
        <ele>13.4</ele>
        <time>2026-06-05T15:09:05</time>
      </trkpt>
      <trkpt lat="36.00701694376767" lon="129.36448791995645">
        <ele>13.4</ele>
        <time>2026-06-05T15:09:06</time>
      </trkpt>
      <trkpt lat="36.00704594515264" lon="129.3645419832319">
        <ele>13.4</ele>
        <time>2026-06-05T15:09:07</time>
      </trkpt>
      <trkpt lat="36.007074946537614" lon="129.36459596268833">
        <ele>13.4</ele>
        <time>2026-06-05T15:09:08</time>
      </trkpt>
      <trkpt lat="36.00710394792259" lon="129.36465094797313">
        <ele>13.2</ele>
        <time>2026-06-05T15:09:09</time>
      </trkpt>
      <trkpt lat="36.00713496096432" lon="129.3647079449147">
        <ele>13.2</ele>
        <time>2026-06-05T15:09:10</time>
      </trkpt>
      <trkpt lat="36.00716697983444" lon="129.36476393602788">
        <ele>13.2</ele>
        <time>2026-06-05T15:09:11</time>
      </trkpt>
      <trkpt lat="36.0071999207139" lon="129.36482193879783">
        <ele>13.2</ele>
        <time>2026-06-05T15:09:12</time>
      </trkpt>
      <trkpt lat="36.00723193958402" lon="129.36488094739616">
        <ele>13.2</ele>
        <time>2026-06-05T15:09:13</time>
      </trkpt>
      <trkpt lat="36.00726395845413" lon="129.3649389501661">
        <ele>13.0</ele>
        <time>2026-06-05T15:09:14</time>
      </trkpt>
      <trkpt lat="36.00729597732425" lon="129.36499594710767">
        <ele>13.0</ele>
        <time>2026-06-05T15:09:15</time>
      </trkpt>
      <trkpt lat="36.00732699036598" lon="129.36505093239248">
        <ele>13.0</ele>
        <time>2026-06-05T15:09:16</time>
      </trkpt>
      <trkpt lat="36.007356997579336" lon="129.36510499566793">
        <ele>12.8</ele>
        <time>2026-06-05T15:09:17</time>
      </trkpt>
      <trkpt lat="36.00738792680204" lon="129.3651569634676">
        <ele>12.8</ele>
        <time>2026-06-05T15:09:18</time>
      </trkpt>
      <trkpt lat="36.007418939843774" lon="129.36520893126726">
        <ele>12.6</ele>
        <time>2026-06-05T15:09:19</time>
      </trkpt>
      <trkpt lat="36.00744894705713" lon="129.36525997705758">
        <ele>12.6</ele>
        <time>2026-06-05T15:09:20</time>
      </trkpt>
      <trkpt lat="36.00747895427048" lon="129.365313956514">
        <ele>12.6</ele>
        <time>2026-06-05T15:09:21</time>
      </trkpt>
      <trkpt lat="36.00750996731222" lon="129.36537095345557">
        <ele>12.4</ele>
        <time>2026-06-05T15:09:22</time>
      </trkpt>
      <trkpt lat="36.00754098035395" lon="129.36542795039713">
        <ele>12.4</ele>
        <time>2026-06-05T15:09:23</time>
      </trkpt>
      <trkpt lat="36.007573921233416" lon="129.36548595316708">
        <ele>12.6</ele>
        <time>2026-06-05T15:09:24</time>
      </trkpt>
      <trkpt lat="36.00760795176029" lon="129.36554395593703">
        <ele>12.6</ele>
        <time>2026-06-05T15:09:25</time>
      </trkpt>
      <trkpt lat="36.00764499977231" lon="129.3655999470502">
        <ele>12.6</ele>
        <time>2026-06-05T15:09:26</time>
      </trkpt>
      <trkpt lat="36.007680958136916" lon="129.36565794982016">
        <ele>12.6</ele>
        <time>2026-06-05T15:09:27</time>
      </trkpt>
      <trkpt lat="36.0077179223299" lon="129.3657159525901">
        <ele>12.6</ele>
        <time>2026-06-05T15:09:28</time>
      </trkpt>
      <trkpt lat="36.00775295868516" lon="129.36577496118844">
        <ele>12.6</ele>
        <time>2026-06-05T15:09:29</time>
      </trkpt>
      <trkpt lat="36.007786989212036" lon="129.36583396978676">
        <ele>12.6</ele>
        <time>2026-06-05T15:09:30</time>
      </trkpt>
      <trkpt lat="36.00782093591988" lon="129.3658919725567">
        <ele>12.8</ele>
        <time>2026-06-05T15:09:31</time>
      </trkpt>
      <trkpt lat="36.00785597227514" lon="129.36594896949828">
        <ele>12.8</ele>
        <time>2026-06-05T15:09:32</time>
      </trkpt>
      <trkpt lat="36.00789092481136" lon="129.36600596643984">
        <ele>12.8</ele>
        <time>2026-06-05T15:09:33</time>
      </trkpt>
      <trkpt lat="36.00792596116662" lon="129.3660629633814">
        <ele>12.8</ele>
        <time>2026-06-05T15:09:34</time>
      </trkpt>
      <trkpt lat="36.00796099752188" lon="129.36611996032298">
        <ele>12.8</ele>
        <time>2026-06-05T15:09:35</time>
      </trkpt>
      <trkpt lat="36.007997961714864" lon="129.36617796309292">
        <ele>12.8</ele>
        <time>2026-06-05T15:09:36</time>
      </trkpt>
      <trkpt lat="36.00803492590785" lon="129.36623697169125">
        <ele>12.8</ele>
        <time>2026-06-05T15:09:37</time>
      </trkpt>
      <trkpt lat="36.00807197391987" lon="129.36629698611796">
        <ele>12.8</ele>
        <time>2026-06-05T15:09:38</time>
      </trkpt>
      <trkpt lat="36.008109943941236" lon="129.36635993421078">
        <ele>12.8</ele>
        <time>2026-06-05T15:09:39</time>
      </trkpt>
      <trkpt lat="36.008147997781634" lon="129.366423971951">
        <ele>12.8</ele>
        <time>2026-06-05T15:09:40</time>
      </trkpt>
      <trkpt lat="36.00818697363138" lon="129.3664889317006">
        <ele>12.6</ele>
        <time>2026-06-05T15:09:41</time>
      </trkpt>
      <trkpt lat="36.00822796113789" lon="129.36655498109758">
        <ele>12.6</ele>
        <time>2026-06-05T15:09:42</time>
      </trkpt>
      <trkpt lat="36.00826794281602" lon="129.36662195250392">
        <ele>12.6</ele>
        <time>2026-06-05T15:09:43</time>
      </trkpt>
      <trkpt lat="36.00830893032253" lon="129.36668892391026">
        <ele>12.6</ele>
        <time>2026-06-05T15:09:44</time>
      </trkpt>
      <trkpt lat="36.00834991782904" lon="129.36675497330725">
        <ele>12.6</ele>
        <time>2026-06-05T15:09:45</time>
      </trkpt>
      <trkpt lat="36.00839199498296" lon="129.3668219447136">
        <ele>12.6</ele>
        <time>2026-06-05T15:09:46</time>
      </trkpt>
      <trkpt lat="36.00843298248947" lon="129.3668869882822">
        <ele>12.6</ele>
        <time>2026-06-05T15:09:47</time>
      </trkpt>
      <trkpt lat="36.008473969995975" lon="129.36695295386016">
        <ele>12.6</ele>
        <time>2026-06-05T15:09:48</time>
      </trkpt>
      <trkpt lat="36.008513951674104" lon="129.36701799742877">
        <ele>12.6</ele>
        <time>2026-06-05T15:09:49</time>
      </trkpt>
      <trkpt lat="36.00855292752385" lon="129.36708295717835">
        <ele>12.6</ele>
        <time>2026-06-05T15:09:50</time>
      </trkpt>
      <trkpt lat="36.00859299302101" lon="129.36714699491858">
        <ele>12.4</ele>
        <time>2026-06-05T15:09:51</time>
      </trkpt>
      <trkpt lat="36.00863196887076" lon="129.36720893718302">
        <ele>12.4</ele>
        <time>2026-06-05T15:09:52</time>
      </trkpt>
      <trkpt lat="36.008669938892126" lon="129.36726895160973">
        <ele>12.2</ele>
        <time>2026-06-05T15:09:53</time>
      </trkpt>
      <trkpt lat="36.008705981075764" lon="129.36732896603644">
        <ele>12.2</ele>
        <time>2026-06-05T15:09:54</time>
      </trkpt>
      <trkpt lat="36.00874193944037" lon="129.36738797463477">
        <ele>12.2</ele>
        <time>2026-06-05T15:09:55</time>
      </trkpt>
      <trkpt lat="36.00877798162401" lon="129.3674469832331">
        <ele>12.2</ele>
        <time>2026-06-05T15:09:56</time>
      </trkpt>
      <trkpt lat="36.00881293416023" lon="129.36750791966915">
        <ele>12.2</ele>
        <time>2026-06-05T15:09:57</time>
      </trkpt>
      <trkpt lat="36.00884998217225" lon="129.36756893992424">
        <ele>12.2</ele>
        <time>2026-06-05T15:09:58</time>
      </trkpt>
      <trkpt lat="36.008888958022" lon="129.36762996017933">
        <ele>12.0</ele>
        <time>2026-06-05T15:09:59</time>
      </trkpt>
      <trkpt lat="36.00892893970013" lon="129.36769098043442">
        <ele>12.0</ele>
        <time>2026-06-05T15:10:00</time>
      </trkpt>
      <trkpt lat="36.008968921378255" lon="129.36775099486113">
        <ele>12.0</ele>
        <time>2026-06-05T15:10:01</time>
      </trkpt>
      <trkpt lat="36.009007981047034" lon="129.36781193129718">
        <ele>12.0</ele>
        <time>2026-06-05T15:10:02</time>
      </trkpt>
      <trkpt lat="36.00904695689678" lon="129.3678719457239">
        <ele>12.0</ele>
        <time>2026-06-05T15:10:03</time>
      </trkpt>
      <trkpt lat="36.00908593274653" lon="129.36792994849384">
        <ele>12.0</ele>
        <time>2026-06-05T15:10:04</time>
      </trkpt>
      <trkpt lat="36.00912298075855" lon="129.36798795126379">
        <ele>12.0</ele>
        <time>2026-06-05T15:10:05</time>
      </trkpt>
      <trkpt lat="36.009161956608295" lon="129.36804595403373">
        <ele>12.0</ele>
        <time>2026-06-05T15:10:06</time>
      </trkpt>
      <trkpt lat="36.00919992662966" lon="129.36810395680368">
        <ele>11.8</ele>
        <time>2026-06-05T15:10:07</time>
      </trkpt>
      <trkpt lat="36.00923898629844" lon="129.36816195957363">
        <ele>11.8</ele>
        <time>2026-06-05T15:10:08</time>
      </trkpt>
      <trkpt lat="36.00927796214819" lon="129.3682189565152">
        <ele>12.0</ele>
        <time>2026-06-05T15:10:09</time>
      </trkpt>
      <trkpt lat="36.00931794382632" lon="129.36827494762838">
        <ele>12.0</ele>
        <time>2026-06-05T15:10:10</time>
      </trkpt>
      <trkpt lat="36.009357925504446" lon="129.36832993291318">
        <ele>12.0</ele>
        <time>2026-06-05T15:10:11</time>
      </trkpt>
      <trkpt lat="36.009397991001606" lon="129.368384918198">
        <ele>12.0</ele>
        <time>2026-06-05T15:10:12</time>
      </trkpt>
      <trkpt lat="36.009437972679734" lon="129.36843797564507">
        <ele>12.0</ele>
        <time>2026-06-05T15:10:13</time>
      </trkpt>
      <trkpt lat="36.00947795435786" lon="129.3684909492731">
        <ele>12.0</ele>
        <time>2026-06-05T15:10:14</time>
      </trkpt>
      <trkpt lat="36.00951994769275" lon="129.36854291707277">
        <ele>12.0</ele>
        <time>2026-06-05T15:10:15</time>
      </trkpt>
      <trkpt lat="36.00956093519926" lon="129.36859597451985">
        <ele>12.0</ele>
        <time>2026-06-05T15:10:16</time>
      </trkpt>
      <trkpt lat="36.00960292853415" lon="129.36865095980465">
        <ele>12.0</ele>
        <time>2026-06-05T15:10:17</time>
      </trkpt>
      <trkpt lat="36.00964399985969" lon="129.36870594508946">
        <ele>12.0</ele>
        <time>2026-06-05T15:10:18</time>
      </trkpt>
      <trkpt lat="36.0096849873662" lon="129.36876193620265">
        <ele>12.0</ele>
        <time>2026-06-05T15:10:19</time>
      </trkpt>
      <trkpt lat="36.00972597487271" lon="129.36881792731583">
        <ele>12.0</ele>
        <time>2026-06-05T15:10:20</time>
      </trkpt>
      <trkpt lat="36.0097679682076" lon="129.36887299641967">
        <ele>12.0</ele>
        <time>2026-06-05T15:10:21</time>
      </trkpt>
      <trkpt lat="36.00980996154249" lon="129.3689269758761">
        <ele>12.0</ele>
        <time>2026-06-05T15:10:22</time>
      </trkpt>
      <trkpt lat="36.00985195487738" lon="129.36898095533252">
        <ele>12.0</ele>
        <time>2026-06-05T15:10:23</time>
      </trkpt>
      <trkpt lat="36.00989495404065" lon="129.36903493478894">
        <ele>12.0</ele>
        <time>2026-06-05T15:10:24</time>
      </trkpt>
      <trkpt lat="36.00993795320392" lon="129.36908698640764">
        <ele>12.0</ele>
        <time>2026-06-05T15:10:25</time>
      </trkpt>
      <trkpt lat="36.00998296402395" lon="129.3691389542073">
        <ele>12.0</ele>
        <time>2026-06-05T15:10:26</time>
      </trkpt>
      <trkpt lat="36.01002898067236" lon="129.36919192783535">
        <ele>12.0</ele>
        <time>2026-06-05T15:10:27</time>
      </trkpt>
      <trkpt lat="36.01007591933012" lon="129.3692459911108">
        <ele>12.0</ele>
        <time>2026-06-05T15:10:28</time>
      </trkpt>
      <trkpt lat="36.01012294180691" lon="129.3693009763956">
        <ele>11.8</ele>
        <time>2026-06-05T15:10:29</time>
      </trkpt>
      <trkpt lat="36.010170970112085" lon="129.3693559616804">
        <ele>11.8</ele>
        <time>2026-06-05T15:10:30</time>
      </trkpt>
      <trkpt lat="36.01021799258888" lon="129.3694119527936">
        <ele>11.8</ele>
        <time>2026-06-05T15:10:31</time>
      </trkpt>
      <trkpt lat="36.01026493124664" lon="129.3694669380784">
        <ele>11.8</ele>
        <time>2026-06-05T15:10:32</time>
      </trkpt>
      <trkpt lat="36.01031195372343" lon="129.3695219233632">
        <ele>11.8</ele>
        <time>2026-06-05T15:10:33</time>
      </trkpt>
      <trkpt lat="36.01035797037184" lon="129.36957498081028">
        <ele>11.8</ele>
        <time>2026-06-05T15:10:34</time>
      </trkpt>
      <trkpt lat="36.010403987020254" lon="129.36962795443833">
        <ele>11.8</ele>
        <time>2026-06-05T15:10:35</time>
      </trkpt>
      <trkpt lat="36.010449919849634" lon="129.36968092806637">
        <ele>11.8</ele>
        <time>2026-06-05T15:10:36</time>
      </trkpt>
      <trkpt lat="36.010494930669665" lon="129.36973398551345">
        <ele>11.8</ele>
        <time>2026-06-05T15:10:37</time>
      </trkpt>
      <trkpt lat="36.010538935661316" lon="129.36978494748473">
        <ele>11.8</ele>
        <time>2026-06-05T15:10:38</time>
      </trkpt>
      <trkpt lat="36.01058294065297" lon="129.36983498744667">
        <ele>11.6</ele>
        <time>2026-06-05T15:10:39</time>
      </trkpt>
      <trkpt lat="36.01062694564462" lon="129.36988192610443">
        <ele>11.6</ele>
        <time>2026-06-05T15:10:40</time>
      </trkpt>
      <trkpt lat="36.01066994480789" lon="129.36992794275284">
        <ele>11.6</ele>
        <time>2026-06-05T15:10:41</time>
      </trkpt>
      <trkpt lat="36.01071193814278" lon="129.3699719477445">
        <ele>11.6</ele>
        <time>2026-06-05T15:10:42</time>
      </trkpt>
      <trkpt lat="36.010752925649285" lon="129.37001595273614">
        <ele>11.4</ele>
        <time>2026-06-05T15:10:43</time>
      </trkpt>
      <trkpt lat="36.010792991146445" lon="129.3700599577278">
        <ele>11.4</ele>
        <time>2026-06-05T15:10:44</time>
      </trkpt>
      <trkpt lat="36.01083297282457" lon="129.37010295689106">
        <ele>11.4</ele>
        <time>2026-06-05T15:10:45</time>
      </trkpt>
      <trkpt lat="36.01087194867432" lon="129.37014495022595">
        <ele>11.4</ele>
        <time>2026-06-05T15:10:46</time>
      </trkpt>
      <trkpt lat="36.01091092452407" lon="129.37018694356084">
        <ele>11.4</ele>
        <time>2026-06-05T15:10:47</time>
      </trkpt>
      <trkpt lat="36.01094998419285" lon="129.37022893689573">
        <ele>11.4</ele>
        <time>2026-06-05T15:10:48</time>
      </trkpt>
      <trkpt lat="36.01098996587098" lon="129.37027093023062">
        <ele>11.4</ele>
        <time>2026-06-05T15:10:49</time>
      </trkpt>
      <trkpt lat="36.011029947549105" lon="129.37031191773713">
        <ele>11.2</ele>
        <time>2026-06-05T15:10:50</time>
      </trkpt>
      <trkpt lat="36.011071940883994" lon="129.37034896574914">
        <ele>11.2</ele>
        <time>2026-06-05T15:10:51</time>
      </trkpt>
      <trkpt lat="36.01111393421888" lon="129.37038492411375">
        <ele>11.0</ele>
        <time>2026-06-05T15:10:52</time>
      </trkpt>
      <trkpt lat="36.01115592755377" lon="129.37041895464063">
        <ele>11.0</ele>
        <time>2026-06-05T15:10:53</time>
      </trkpt>
      <trkpt lat="36.01119792088866" lon="129.37045499682426">
        <ele>11.0</ele>
        <time>2026-06-05T15:10:54</time>
      </trkpt>
      <trkpt lat="36.01124092005193" lon="129.37049296684563">
        <ele>11.0</ele>
        <time>2026-06-05T15:10:55</time>
      </trkpt>
      <trkpt lat="36.01128593087196" lon="129.37053395435214">
        <ele>11.0</ele>
        <time>2026-06-05T15:10:56</time>
      </trkpt>
      <trkpt lat="36.011330941691995" lon="129.37057594768703">
        <ele>11.0</ele>
        <time>2026-06-05T15:10:57</time>
      </trkpt>
      <trkpt lat="36.01137796416879" lon="129.3706189468503">
        <ele>11.0</ele>
        <time>2026-06-05T15:10:58</time>
      </trkpt>
      <trkpt lat="36.0114239808172" lon="129.3706649634987">
        <ele>11.0</ele>
        <time>2026-06-05T15:10:59</time>
      </trkpt>
      <trkpt lat="36.01147091947496" lon="129.37070997431874">
        <ele>11.0</ele>
        <time>2026-06-05T15:11:00</time>
      </trkpt>
      <trkpt lat="36.01151794195175" lon="129.37075599096715">
        <ele>11.0</ele>
        <time>2026-06-05T15:11:01</time>
      </trkpt>
      <trkpt lat="36.011564964428544" lon="129.3708039354533">
        <ele>11.0</ele>
        <time>2026-06-05T15:11:02</time>
      </trkpt>
      <trkpt lat="36.0116139985621" lon="129.3708509579301">
        <ele>11.2</ele>
        <time>2026-06-05T15:11:03</time>
      </trkpt>
      <trkpt lat="36.01166194304824" lon="129.37089898623526">
        <ele>11.2</ele>
        <time>2026-06-05T15:11:04</time>
      </trkpt>
      <trkpt lat="36.01170896552503" lon="129.3709429912269">
        <ele>11.2</ele>
        <time>2026-06-05T15:11:05</time>
      </trkpt>
      <trkpt lat="36.011757999658585" lon="129.37098297290504">
        <ele>11.2</ele>
        <time>2026-06-05T15:11:06</time>
      </trkpt>
      <trkpt lat="36.01180896162987" lon="129.37101599760354">
        <ele>11.2</ele>
        <time>2026-06-05T15:11:07</time>
      </trkpt>
      <trkpt lat="36.01185698993504" lon="129.37104692682624">
        <ele>11.2</ele>
        <time>2026-06-05T15:11:08</time>
      </trkpt>
      <trkpt lat="36.01189395412803" lon="129.37107995152473">
        <ele>11.2</ele>
        <time>2026-06-05T15:11:09</time>
      </trkpt>
      <trkpt lat="36.011911975219846" lon="129.3711139820516">
        <ele>11.4</ele>
        <time>2026-06-05T15:11:10</time>
      </trkpt>
      <trkpt lat="36.011912981048226" lon="129.37114792875946">
        <ele>11.4</ele>
        <time>2026-06-05T15:11:11</time>
      </trkpt>
      <trkpt lat="36.01189898326993" lon="129.37117693014443">
        <ele>11.6</ele>
        <time>2026-06-05T15:11:12</time>
      </trkpt>
      <trkpt lat="36.01187492720783" lon="129.37120391987264">
        <ele>11.6</ele>
        <time>2026-06-05T15:11:13</time>
      </trkpt>
      <trkpt lat="36.011845925822854" lon="129.37123292125762">
        <ele>11.8</ele>
        <time>2026-06-05T15:11:14</time>
      </trkpt>
      <trkpt lat="36.0118159186095" lon="129.3712669517845">
        <ele>12.0</ele>
        <time>2026-06-05T15:11:15</time>
      </trkpt>
      <trkpt lat="36.01178599521518" lon="129.37130592763424">
        <ele>12.2</ele>
        <time>2026-06-05T15:11:16</time>
      </trkpt>
      <trkpt lat="36.01175498217344" lon="129.3713499326259">
        <ele>12.4</ele>
        <time>2026-06-05T15:11:17</time>
      </trkpt>
      <trkpt lat="36.01172396913171" lon="129.3713959492743">
        <ele>12.6</ele>
        <time>2026-06-05T15:11:18</time>
      </trkpt>
      <trkpt lat="36.01169295608997" lon="129.37144498340786">
        <ele>12.8</ele>
        <time>2026-06-05T15:11:19</time>
      </trkpt>
      <trkpt lat="36.01166194304824" lon="129.37149493955076">
        <ele>13.0</ele>
        <time>2026-06-05T15:11:20</time>
      </trkpt>
      <trkpt lat="36.011630930006504" lon="129.3715449795127">
        <ele>13.4</ele>
        <time>2026-06-05T15:11:21</time>
      </trkpt>
      <trkpt lat="36.01160192862153" lon="129.37159594148397">
        <ele>13.6</ele>
        <time>2026-06-05T15:11:22</time>
      </trkpt>
      <trkpt lat="36.01157292723656" lon="129.3716469872743">
        <ele>13.8</ele>
        <time>2026-06-05T15:11:23</time>
      </trkpt>
      <trkpt lat="36.01154392585158" lon="129.37169794924557">
        <ele>13.8</ele>
        <time>2026-06-05T15:11:24</time>
      </trkpt>
      <trkpt lat="36.01151492446661" lon="129.37174597755075">
        <ele>14.0</ele>
        <time>2026-06-05T15:11:25</time>
      </trkpt>
      <trkpt lat="36.01148994639516" lon="129.37178696505725">
        <ele>14.0</ele>
        <time>2026-06-05T15:11:26</time>
      </trkpt>
      <trkpt lat="36.01147091947496" lon="129.37181898392737">
        <ele>14.0</ele>
        <time>2026-06-05T15:11:27</time>
      </trkpt>
      <trkpt lat="36.011462956666946" lon="129.37183692120016">
        <ele>14.0</ele>
        <time>2026-06-05T15:11:28</time>
      </trkpt>
      <trkpt lat="36.011461950838566" lon="129.37184295617044">
        <ele>14.0</ele>
        <time>2026-06-05T15:11:29</time>
      </trkpt>
      <trkpt lat="36.01146496832371" lon="129.37184195034206">
        <ele>14.2</ele>
        <time>2026-06-05T15:11:30</time>
      </trkpt>
      <trkpt lat="36.01146798580885" lon="129.37183792702854">
        <ele>14.2</ele>
        <time>2026-06-05T15:11:31</time>
      </trkpt>
      <trkpt lat="36.01144594140351" lon="129.37185594812036">
        <ele>13.6</ele>
        <time>2026-06-05T15:11:40</time>
      </trkpt>
      <trkpt lat="36.01142993196845" lon="129.37187992036343">
        <ele>13.8</ele>
        <time>2026-06-05T15:11:41</time>
      </trkpt>
      <trkpt lat="36.01141291670501" lon="129.37190992757678">
        <ele>14.0</ele>
        <time>2026-06-05T15:11:42</time>
      </trkpt>
      <trkpt lat="36.011392967775464" lon="129.37194496393204">
        <ele>14.2</ele>
        <time>2026-06-05T15:11:43</time>
      </trkpt>
      <trkpt lat="36.01136991754174" lon="129.37198494561017">
        <ele>14.2</ele>
        <time>2026-06-05T15:11:44</time>
      </trkpt>
      <trkpt lat="36.01134594529867" lon="129.37202693894506">
        <ele>14.2</ele>
        <time>2026-06-05T15:11:45</time>
      </trkpt>
      <trkpt lat="36.01131895557046" lon="129.3720709439367">
        <ele>14.4</ele>
        <time>2026-06-05T15:11:46</time>
      </trkpt>
      <trkpt lat="36.01129297167063" lon="129.37211696058512">
        <ele>14.4</ele>
        <time>2026-06-05T15:11:47</time>
      </trkpt>
      <trkpt lat="36.011264976114035" lon="129.37216297723353">
        <ele>14.6</ele>
        <time>2026-06-05T15:11:48</time>
      </trkpt>
      <trkpt lat="36.01123698055744" lon="129.37220899388194">
        <ele>14.6</ele>
        <time>2026-06-05T15:11:49</time>
      </trkpt>
      <trkpt lat="36.01120797917247" lon="129.3722559325397">
        <ele>14.6</ele>
        <time>2026-06-05T15:11:50</time>
      </trkpt>
      <trkpt lat="36.011179983615875" lon="129.37230396084487">
        <ele>14.8</ele>
        <time>2026-06-05T15:11:51</time>
      </trkpt>
      <trkpt lat="36.01115198805928" lon="129.37235299497843">
        <ele>14.8</ele>
        <time>2026-06-05T15:11:52</time>
      </trkpt>
      <trkpt lat="36.01112399250269" lon="129.3723999336362">
        <ele>14.8</ele>
        <time>2026-06-05T15:11:53</time>
      </trkpt>
      <trkpt lat="36.011096918955445" lon="129.37244695611298">
        <ele>15.0</ele>
        <time>2026-06-05T15:11:54</time>
      </trkpt>
      <trkpt lat="36.01106892339885" lon="129.37249397858977">
        <ele>15.0</ele>
        <time>2026-06-05T15:11:55</time>
      </trkpt>
      <trkpt lat="36.01104092784226" lon="129.3725389894098">
        <ele>15.2</ele>
        <time>2026-06-05T15:11:56</time>
      </trkpt>
      <trkpt lat="36.01101293228567" lon="129.3725839164108">
        <ele>15.4</ele>
        <time>2026-06-05T15:11:57</time>
      </trkpt>
      <trkpt lat="36.010985942557454" lon="129.37262792140245">
        <ele>15.4</ele>
        <time>2026-06-05T15:11:58</time>
      </trkpt>
      <trkpt lat="36.01095895282924" lon="129.37267092056572">
        <ele>15.6</ele>
        <time>2026-06-05T15:11:59</time>
      </trkpt>
      <trkpt lat="36.01093196310103" lon="129.37271492555737">
        <ele>15.6</ele>
        <time>2026-06-05T15:12:00</time>
      </trkpt>
      <trkpt lat="36.01090497337282" lon="129.3727599363774">
        <ele>15.8</ele>
        <time>2026-06-05T15:12:01</time>
      </trkpt>
      <trkpt lat="36.010876977816224" lon="129.37280494719744">
        <ele>15.8</ele>
        <time>2026-06-05T15:12:02</time>
      </trkpt>
      <trkpt lat="36.01084898225963" lon="129.37285096384585">
        <ele>16.0</ele>
        <time>2026-06-05T15:12:03</time>
      </trkpt>
      <trkpt lat="36.01082098670304" lon="129.37289698049426">
        <ele>16.0</ele>
        <time>2026-06-05T15:12:04</time>
      </trkpt>
      <trkpt lat="36.010792991146445" lon="129.37294593080878">
        <ele>16.0</ele>
        <time>2026-06-05T15:12:05</time>
      </trkpt>
      <trkpt lat="36.01076398976147" lon="129.37299496494234">
        <ele>16.0</ele>
        <time>2026-06-05T15:12:06</time>
      </trkpt>
      <trkpt lat="36.01073297671974" lon="129.37304592691362">
        <ele>16.2</ele>
        <time>2026-06-05T15:12:07</time>
      </trkpt>
      <trkpt lat="36.010701963678" lon="129.37309697270393">
        <ele>16.2</ele>
        <time>2026-06-05T15:12:08</time>
      </trkpt>
      <trkpt lat="36.01066994480789" lon="129.37315095216036">
        <ele>16.2</ele>
        <time>2026-06-05T15:12:09</time>
      </trkpt>
      <trkpt lat="36.01063599810004" lon="129.37320694327354">
        <ele>16.2</ele>
        <time>2026-06-05T15:12:10</time>
      </trkpt>
      <trkpt lat="36.010600961744785" lon="129.3732649460435">
        <ele>16.4</ele>
        <time>2026-06-05T15:12:11</time>
      </trkpt>
      <trkpt lat="36.01056592538953" lon="129.3733249604702">
        <ele>16.4</ele>
        <time>2026-06-05T15:12:12</time>
      </trkpt>
      <trkpt lat="36.01052996702492" lon="129.37338698655367">
        <ele>16.4</ele>
        <time>2026-06-05T15:12:13</time>
      </trkpt>
      <trkpt lat="36.010492919012904" lon="129.37344792298973">
        <ele>16.4</ele>
        <time>2026-06-05T15:12:14</time>
      </trkpt>
      <trkpt lat="36.01045494899154" lon="129.3735099490732">
        <ele>16.4</ele>
        <time>2026-06-05T15:12:15</time>
      </trkpt>
      <trkpt lat="36.01041697897017" lon="129.37357096932828">
        <ele>16.2</ele>
        <time>2026-06-05T15:12:16</time>
      </trkpt>
      <trkpt lat="36.01037791930139" lon="129.37363299541175">
        <ele>16.2</ele>
        <time>2026-06-05T15:12:17</time>
      </trkpt>
      <trkpt lat="36.010339949280024" lon="129.37369594350457">
        <ele>16.0</ele>
        <time>2026-06-05T15:12:18</time>
      </trkpt>
      <trkpt lat="36.01030197925866" lon="129.37375897541642">
        <ele>16.0</ele>
        <time>2026-06-05T15:12:19</time>
      </trkpt>
      <trkpt lat="36.01026392541826" lon="129.37382292933762">
        <ele>15.8</ele>
        <time>2026-06-05T15:12:20</time>
      </trkpt>
      <trkpt lat="36.01022595539689" lon="129.37388696707785">
        <ele>15.8</ele>
        <time>2026-06-05T15:12:21</time>
      </trkpt>
      <trkpt lat="36.01018697954714" lon="129.37395192682743">
        <ele>15.6</ele>
        <time>2026-06-05T15:12:22</time>
      </trkpt>
      <trkpt lat="36.010147919878364" lon="129.37401797622442">
        <ele>15.6</ele>
        <time>2026-06-05T15:12:23</time>
      </trkpt>
      <trkpt lat="36.010108944028616" lon="129.374082935974">
        <ele>15.4</ele>
        <time>2026-06-05T15:12:24</time>
      </trkpt>
      <trkpt lat="36.01006996817887" lon="129.374148985371">
        <ele>15.2</ele>
        <time>2026-06-05T15:12:25</time>
      </trkpt>
      <trkpt lat="36.01002998650074" lon="129.37421394512057">
        <ele>15.2</ele>
        <time>2026-06-05T15:12:26</time>
      </trkpt>
      <trkpt lat="36.00998992100358" lon="129.37427999451756">
        <ele>15.0</ele>
        <time>2026-06-05T15:12:27</time>
      </trkpt>
      <trkpt lat="36.00994893349707" lon="129.3743469659239">
        <ele>14.8</ele>
        <time>2026-06-05T15:12:28</time>
      </trkpt>
      <trkpt lat="36.00990794599056" lon="129.37441393733025">
        <ele>14.8</ele>
        <time>2026-06-05T15:12:29</time>
      </trkpt>
      <trkpt lat="36.009867964312434" lon="129.374481998384">
        <ele>14.6</ele>
        <time>2026-06-05T15:12:30</time>
      </trkpt>
      <trkpt lat="36.009827982634306" lon="129.3745509814471">
        <ele>14.4</ele>
        <time>2026-06-05T15:12:31</time>
      </trkpt>
      <trkpt lat="36.0097869951278" lon="129.37462097033858">
        <ele>14.4</ele>
        <time>2026-06-05T15:12:32</time>
      </trkpt>
      <trkpt lat="36.00974592380226" lon="129.37469095923007">
        <ele>14.2</ele>
        <time>2026-06-05T15:12:33</time>
      </trkpt>
      <trkpt lat="36.00970493629575" lon="129.37476094812155">
        <ele>14.2</ele>
        <time>2026-06-05T15:12:34</time>
      </trkpt>
      <trkpt lat="36.00966294296086" lon="129.37483093701303">
        <ele>14.0</ele>
        <time>2026-06-05T15:12:35</time>
      </trkpt>
      <trkpt lat="36.00962094962597" lon="129.3749009259045">
        <ele>13.8</ele>
        <time>2026-06-05T15:12:36</time>
      </trkpt>
      <trkpt lat="36.0095779504627" lon="129.37497099861503">
        <ele>13.8</ele>
        <time>2026-06-05T15:12:37</time>
      </trkpt>
      <trkpt lat="36.00953696295619" lon="129.37503797002137">
        <ele>13.6</ele>
        <time>2026-06-05T15:12:38</time>
      </trkpt>
      <trkpt lat="36.009499998763204" lon="129.37510091811419">
        <ele>13.4</ele>
        <time>2026-06-05T15:12:39</time>
      </trkpt>
      <trkpt lat="36.00946797989309" lon="129.37515397556126">
        <ele>13.2</ele>
        <time>2026-06-05T15:12:40</time>
      </trkpt>
      <trkpt lat="36.009440990164876" lon="129.37519596889615">
        <ele>13.0</ele>
        <time>2026-06-05T15:12:41</time>
      </trkpt>
      <trkpt lat="36.00941492244601" lon="129.37522497028112">
        <ele>12.8</ele>
        <time>2026-06-05T15:12:42</time>
      </trkpt>
      <trkpt lat="36.00938592106104" lon="129.37524592503905">
        <ele>12.8</ele>
        <time>2026-06-05T15:12:43</time>
      </trkpt>
      <trkpt lat="36.009354991838336" lon="129.37526394613087">
        <ele>12.6</ele>
        <time>2026-06-05T15:12:44</time>
      </trkpt>
      <trkpt lat="36.0093239787966" lon="129.37528892420232">
        <ele>12.4</ele>
        <time>2026-06-05T15:12:45</time>
      </trkpt>
      <trkpt lat="36.00929497741163" lon="129.3753229547292">
        <ele>12.2</ele>
        <time>2026-06-05T15:12:46</time>
      </trkpt>
      <trkpt lat="36.009267987683415" lon="129.37536796554923">
        <ele>12.0</ele>
        <time>2026-06-05T15:12:47</time>
      </trkpt>
      <trkpt lat="36.00924393162131" lon="129.3754199333489">
        <ele>11.8</ele>
        <time>2026-06-05T15:12:48</time>
      </trkpt>
      <trkpt lat="36.00921895354986" lon="129.37547592446208">
        <ele>11.8</ele>
        <time>2026-06-05T15:12:49</time>
      </trkpt>
      <trkpt lat="36.00919296965003" lon="129.37553099356592">
        <ele>11.8</ele>
        <time>2026-06-05T15:12:50</time>
      </trkpt>
      <trkpt lat="36.00916597992182" lon="129.37558296136558">
        <ele>11.8</ele>
        <time>2026-06-05T15:12:51</time>
      </trkpt>
      <trkpt lat="36.009139996021986" lon="129.37562696635723">
        <ele>11.8</ele>
        <time>2026-06-05T15:12:52</time>
      </trkpt>
      <trkpt lat="36.009118957445025" lon="129.3756609968841">
        <ele>11.8</ele>
        <time>2026-06-05T15:12:53</time>
      </trkpt>
      <trkpt lat="36.009099930524826" lon="129.37568798661232">
        <ele>11.8</ele>
        <time>2026-06-05T15:12:54</time>
      </trkpt>
      <trkpt lat="36.00908392108977" lon="129.3757119588554">
        <ele>11.6</ele>
        <time>2026-06-05T15:12:55</time>
      </trkpt>
      <trkpt lat="36.00906799547374" lon="129.37573492527008">
        <ele>11.6</ele>
        <time>2026-06-05T15:12:56</time>
      </trkpt>
      <trkpt lat="36.009052991867065" lon="129.3757579755038">
        <ele>11.6</ele>
        <time>2026-06-05T15:12:57</time>
      </trkpt>
      <trkpt lat="36.00903597660363" lon="129.37578295357525">
        <ele>11.4</ele>
        <time>2026-06-05T15:12:58</time>
      </trkpt>
      <trkpt lat="36.00901493802667" lon="129.37581094913185">
        <ele>11.4</ele>
        <time>2026-06-05T15:12:59</time>
      </trkpt>
      <trkpt lat="36.008989959955215" lon="129.37584196217358">
        <ele>11.4</ele>
        <time>2026-06-05T15:13:00</time>
      </trkpt>
      <trkpt lat="36.00896196439862" lon="129.3758779205382">
        <ele>11.4</ele>
        <time>2026-06-05T15:13:01</time>
      </trkpt>
      <trkpt lat="36.00892994552851" lon="129.37591798603535">
        <ele>11.2</ele>
        <time>2026-06-05T15:13:02</time>
      </trkpt>
      <trkpt lat="36.00889499299228" lon="129.37596299685538">
        <ele>11.2</ele>
        <time>2026-06-05T15:13:03</time>
      </trkpt>
      <trkpt lat="36.00885693915188" lon="129.3760119471699">
        <ele>11.2</ele>
        <time>2026-06-05T15:13:04</time>
      </trkpt>
      <trkpt lat="36.008815951645374" lon="129.37606299296021">
        <ele>11.2</ele>
        <time>2026-06-05T15:13:05</time>
      </trkpt>
      <trkpt lat="36.008772952482104" lon="129.37611294910312">
        <ele>11.2</ele>
        <time>2026-06-05T15:13:06</time>
      </trkpt>
      <trkpt lat="36.00872794166207" lon="129.37616298906505">
        <ele>11.0</ele>
        <time>2026-06-05T15:13:07</time>
      </trkpt>
      <trkpt lat="36.0086849424988" lon="129.37620892189443">
        <ele>11.0</ele>
        <time>2026-06-05T15:13:08</time>
      </trkpt>
      <trkpt lat="36.008643954992294" lon="129.37625099904835">
        <ele>11.0</ele>
        <time>2026-06-05T15:13:09</time>
      </trkpt>
      <trkpt lat="36.00860699079931" lon="129.37628796324134">
        <ele>10.8</ele>
        <time>2026-06-05T15:13:10</time>
      </trkpt>
      <trkpt lat="36.00857195444405" lon="129.37632392160594">
        <ele>10.8</ele>
        <time>2026-06-05T15:13:11</time>
      </trkpt>
      <trkpt lat="36.008537923917174" lon="129.37635694630444">
        <ele>10.8</ele>
        <time>2026-06-05T15:13:12</time>
      </trkpt>
      <trkpt lat="36.00850397720933" lon="129.3763869535178">
        <ele>10.6</ele>
        <time>2026-06-05T15:13:13</time>
      </trkpt>
      <trkpt lat="36.00846994668245" lon="129.37641595490277">
        <ele>10.6</ele>
        <time>2026-06-05T15:13:14</time>
      </trkpt>
      <trkpt lat="36.00843692198396" lon="129.37644294463098">
        <ele>10.6</ele>
        <time>2026-06-05T15:13:15</time>
      </trkpt>
      <trkpt lat="36.00840398110449" lon="129.37647094018757">
        <ele>10.6</ele>
        <time>2026-06-05T15:13:16</time>
      </trkpt>
      <trkpt lat="36.00836995057762" lon="129.37649893574417">
        <ele>10.4</ele>
        <time>2026-06-05T15:13:17</time>
      </trkpt>
      <trkpt lat="36.00833592005074" lon="129.37652592547238">
        <ele>10.4</ele>
        <time>2026-06-05T15:13:18</time>
      </trkpt>
      <trkpt lat="36.008301973342896" lon="129.37655098736286">
        <ele>10.4</ele>
        <time>2026-06-05T15:13:19</time>
      </trkpt>
      <trkpt lat="36.00826693698764" lon="129.3765759654343">
        <ele>10.4</ele>
        <time>2026-06-05T15:13:20</time>
      </trkpt>
      <trkpt lat="36.00823097862303" lon="129.37660194933414">
        <ele>10.2</ele>
        <time>2026-06-05T15:13:21</time>
      </trkpt>
      <trkpt lat="36.008193930611014" lon="129.37663095071912">
        <ele>10.2</ele>
        <time>2026-06-05T15:13:22</time>
      </trkpt>
      <trkpt lat="36.00815495476127" lon="129.3766599521041">
        <ele>10.2</ele>
        <time>2026-06-05T15:13:23</time>
      </trkpt>
      <trkpt lat="36.00811296142638" lon="129.37668995931745">
        <ele>10.2</ele>
        <time>2026-06-05T15:13:24</time>
      </trkpt>
      <trkpt lat="36.00806996226311" lon="129.3767199665308">
        <ele>10.2</ele>
        <time>2026-06-05T15:13:25</time>
      </trkpt>
      <trkpt lat="36.00802595727146" lon="129.3767479620874">
        <ele>10.4</ele>
        <time>2026-06-05T15:13:26</time>
      </trkpt>
      <trkpt lat="36.007980946451426" lon="129.37677696347237">
        <ele>10.4</ele>
        <time>2026-06-05T15:13:27</time>
      </trkpt>
      <trkpt lat="36.007934929803014" lon="129.37680697068572">
        <ele>10.4</ele>
        <time>2026-06-05T15:13:28</time>
      </trkpt>
      <trkpt lat="36.00788991898298" lon="129.3768359720707">
        <ele>10.4</ele>
        <time>2026-06-05T15:13:29</time>
      </trkpt>
      <trkpt lat="36.0078439861536" lon="129.3768629617989">
        <ele>10.4</ele>
        <time>2026-06-05T15:13:30</time>
      </trkpt>
      <trkpt lat="36.00779897533357" lon="129.37688995152712">
        <ele>10.4</ele>
        <time>2026-06-05T15:13:31</time>
      </trkpt>
      <trkpt lat="36.00775295868516" lon="129.3769139237702">
        <ele>10.4</ele>
        <time>2026-06-05T15:13:32</time>
      </trkpt>
      <trkpt lat="36.00770593620837" lon="129.3769369740039">
        <ele>10.4</ele>
        <time>2026-06-05T15:13:33</time>
      </trkpt>
      <trkpt lat="36.007657991722226" lon="129.3769599404186">
        <ele>10.4</ele>
        <time>2026-06-05T15:13:34</time>
      </trkpt>
      <trkpt lat="36.00760795176029" lon="129.37698299065232">
        <ele>10.4</ele>
        <time>2026-06-05T15:13:35</time>
      </trkpt>
      <trkpt lat="36.00755598396063" lon="129.37700495123863">
        <ele>10.4</ele>
        <time>2026-06-05T15:13:36</time>
      </trkpt>
      <trkpt lat="36.00750393234193" lon="129.37702992931008">
        <ele>10.4</ele>
        <time>2026-06-05T15:13:37</time>
      </trkpt>
      <trkpt lat="36.00745196454227" lon="129.37705398537219">
        <ele>10.4</ele>
        <time>2026-06-05T15:13:38</time>
      </trkpt>
      <trkpt lat="36.007398990914226" lon="129.37707896344364">
        <ele>10.4</ele>
        <time>2026-06-05T15:13:39</time>
      </trkpt>
      <trkpt lat="36.00734593346715" lon="129.3771029356867">
        <ele>10.6</ele>
        <time>2026-06-05T15:13:40</time>
      </trkpt>
      <trkpt lat="36.007292959839106" lon="129.3771269917488">
        <ele>10.6</ele>
        <time>2026-06-05T15:13:41</time>
      </trkpt>
      <trkpt lat="36.00724099203944" lon="129.3771499581635">
        <ele>10.6</ele>
        <time>2026-06-05T15:13:42</time>
      </trkpt>
      <trkpt lat="36.00719095207751" lon="129.3771729245782">
        <ele>10.6</ele>
        <time>2026-06-05T15:13:43</time>
      </trkpt>
      <trkpt lat="36.007141917943954" lon="129.3771969806403">
        <ele>10.6</ele>
        <time>2026-06-05T15:13:44</time>
      </trkpt>
      <trkpt lat="36.007096990942955" lon="129.37721793539822">
        <ele>10.6</ele>
        <time>2026-06-05T15:13:45</time>
      </trkpt>
      <trkpt lat="36.007052985951304" lon="129.37723696231842">
        <ele>10.6</ele>
        <time>2026-06-05T15:13:46</time>
      </trkpt>
      <trkpt lat="36.007011998444796" lon="129.37725397758186">
        <ele>10.8</ele>
        <time>2026-06-05T15:13:47</time>
      </trkpt>
      <trkpt lat="36.006971932947636" lon="129.3772709928453">
        <ele>10.8</ele>
        <time>2026-06-05T15:13:48</time>
      </trkpt>
      <trkpt lat="36.00693295709789" lon="129.37728893011808">
        <ele>10.8</ele>
        <time>2026-06-05T15:13:49</time>
      </trkpt>
      <trkpt lat="36.00689699873328" lon="129.37730594538152">
        <ele>10.8</ele>
        <time>2026-06-05T15:13:50</time>
      </trkpt>
      <trkpt lat="36.006861962378025" lon="129.37732396647334">
        <ele>10.8</ele>
        <time>2026-06-05T15:13:51</time>
      </trkpt>
      <trkpt lat="36.00682793185115" lon="129.3773399759084">
        <ele>10.6</ele>
        <time>2026-06-05T15:13:52</time>
      </trkpt>
      <trkpt lat="36.006794990971684" lon="129.37735699117184">
        <ele>10.6</ele>
        <time>2026-06-05T15:13:53</time>
      </trkpt>
      <trkpt lat="36.00676297210157" lon="129.37737492844462">
        <ele>10.6</ele>
        <time>2026-06-05T15:13:54</time>
      </trkpt>
      <trkpt lat="36.00672994740307" lon="129.37739596702158">
        <ele>10.6</ele>
        <time>2026-06-05T15:13:55</time>
      </trkpt>
      <trkpt lat="36.00669298321009" lon="129.37741499394178">
        <ele>10.4</ele>
        <time>2026-06-05T15:13:56</time>
      </trkpt>
      <trkpt lat="36.00665199570358" lon="129.37742899172008">
        <ele>10.4</ele>
        <time>2026-06-05T15:13:57</time>
      </trkpt>
      <trkpt lat="36.00660799071193" lon="129.37744399532676">
        <ele>10.2</ele>
        <time>2026-06-05T15:13:58</time>
      </trkpt>
      <trkpt lat="36.006562979891896" lon="129.37746193259954">
        <ele>10.2</ele>
        <time>2026-06-05T15:13:59</time>
      </trkpt>
      <trkpt lat="36.006517969071865" lon="129.37748498283327">
        <ele>10.2</ele>
        <time>2026-06-05T15:14:00</time>
      </trkpt>
      <trkpt lat="36.006474969908595" lon="129.37751297838986">
        <ele>10.0</ele>
        <time>2026-06-05T15:14:01</time>
      </trkpt>
      <trkpt lat="36.006432976573706" lon="129.3775429856032">
        <ele>10.0</ele>
        <time>2026-06-05T15:14:02</time>
      </trkpt>
      <trkpt lat="36.006389977410436" lon="129.3775709811598">
        <ele>10.0</ele>
        <time>2026-06-05T15:14:03</time>
      </trkpt>
      <trkpt lat="36.006347984075546" lon="129.37759696505964">
        <ele>9.8</ele>
        <time>2026-06-05T15:14:04</time>
      </trkpt>
      <trkpt lat="36.006307918578386" lon="129.37762395478785">
        <ele>9.8</ele>
        <time>2026-06-05T15:14:05</time>
      </trkpt>
      <trkpt lat="36.00627296604216" lon="129.37764993868768">
        <ele>10.0</ele>
        <time>2026-06-05T15:14:06</time>
      </trkpt>
      <trkpt lat="36.00624295882881" lon="129.37767491675913">
        <ele>10.0</ele>
        <time>2026-06-05T15:14:07</time>
      </trkpt>
      <trkpt lat="36.006217980757356" lon="129.37769997864962">
        <ele>10.0</ele>
        <time>2026-06-05T15:14:08</time>
      </trkpt>
      <trkpt lat="36.006194930523634" lon="129.37772495672107">
        <ele>10.0</ele>
        <time>2026-06-05T15:14:09</time>
      </trkpt>
      <trkpt lat="36.00616995245218" lon="129.37774792313576">
        <ele>10.0</ele>
        <time>2026-06-05T15:14:10</time>
      </trkpt>
      <trkpt lat="36.00614195689559" lon="129.3777699675411">
        <ele>10.0</ele>
        <time>2026-06-05T15:14:11</time>
      </trkpt>
      <trkpt lat="36.006110943853855" lon="129.37779494561255">
        <ele>9.8</ele>
        <time>2026-06-05T15:14:12</time>
      </trkpt>
      <trkpt lat="36.00607699714601" lon="129.37782092951238">
        <ele>9.8</ele>
        <time>2026-06-05T15:14:13</time>
      </trkpt>
      <trkpt lat="36.00603894330561" lon="129.37784993089736">
        <ele>9.8</ele>
        <time>2026-06-05T15:14:14</time>
      </trkpt>
      <trkpt lat="36.00599594414234" lon="129.37788295559585">
        <ele>9.8</ele>
        <time>2026-06-05T15:14:15</time>
      </trkpt>
      <trkpt lat="36.00595093332231" lon="129.3779179919511">
        <ele>9.8</ele>
        <time>2026-06-05T15:14:16</time>
      </trkpt>
      <trkpt lat="36.00590399466455" lon="129.3779539503157">
        <ele>9.8</ele>
        <time>2026-06-05T15:14:17</time>
      </trkpt>
      <trkpt lat="36.00585898384452" lon="129.37799192033708">
        <ele>9.8</ele>
        <time>2026-06-05T15:14:18</time>
      </trkpt>
      <trkpt lat="36.00581296719611" lon="129.37803198583424">
        <ele>10.0</ele>
        <time>2026-06-05T15:14:19</time>
      </trkpt>
      <trkpt lat="36.005764938890934" lon="129.3780749849975">
        <ele>10.0</ele>
        <time>2026-06-05T15:14:20</time>
      </trkpt>
      <trkpt lat="36.00571598857641" lon="129.3781209178269">
        <ele>10.0</ele>
        <time>2026-06-05T15:14:21</time>
      </trkpt>
      <trkpt lat="36.00566695444286" lon="129.37816894613206">
        <ele>10.2</ele>
        <time>2026-06-05T15:14:22</time>
      </trkpt>
      <trkpt lat="36.005617920309305" lon="129.37821798026562">
        <ele>10.2</ele>
        <time>2026-06-05T15:14:23</time>
      </trkpt>
      <trkpt lat="36.005569975823164" lon="129.37826693058014">
        <ele>10.2</ele>
        <time>2026-06-05T15:14:24</time>
      </trkpt>
      <trkpt lat="36.00552295334637" lon="129.3783159647137">
        <ele>10.4</ele>
        <time>2026-06-05T15:14:25</time>
      </trkpt>
      <trkpt lat="36.00547693669796" lon="129.37836499884725">
        <ele>10.4</ele>
        <time>2026-06-05T15:14:26</time>
      </trkpt>
      <trkpt lat="36.00543393753469" lon="129.37841394916177">
        <ele>10.4</ele>
        <time>2026-06-05T15:14:27</time>
      </trkpt>
      <trkpt lat="36.00539093837142" lon="129.37846298329532">
        <ele>10.4</ele>
        <time>2026-06-05T15:14:28</time>
      </trkpt>
      <trkpt lat="36.00534793920815" lon="129.37851193360984">
        <ele>10.4</ele>
        <time>2026-06-05T15:14:29</time>
      </trkpt>
      <trkpt lat="36.00530594587326" lon="129.37856197357178">
        <ele>10.4</ele>
        <time>2026-06-05T15:14:30</time>
      </trkpt>
      <trkpt lat="36.00526495836675" lon="129.37861394137144">
        <ele>10.4</ele>
        <time>2026-06-05T15:14:31</time>
      </trkpt>
      <trkpt lat="36.00522296503186" lon="129.37866599299014">
        <ele>10.4</ele>
        <time>2026-06-05T15:14:32</time>
      </trkpt>
      <trkpt lat="36.00517996586859" lon="129.37872097827494">
        <ele>10.4</ele>
        <time>2026-06-05T15:14:33</time>
      </trkpt>
      <trkpt lat="36.00513394922018" lon="129.37877998687327">
        <ele>10.4</ele>
        <time>2026-06-05T15:14:34</time>
      </trkpt>
      <trkpt lat="36.00508793257177" lon="129.37884092330933">
        <ele>10.4</ele>
        <time>2026-06-05T15:14:35</time>
      </trkpt>
      <trkpt lat="36.00503998808563" lon="129.3789029493928">
        <ele>10.4</ele>
        <time>2026-06-05T15:14:36</time>
      </trkpt>
      <trkpt lat="36.004992965608835" lon="129.3789629638195">
        <ele>10.4</ele>
        <time>2026-06-05T15:14:37</time>
      </trkpt>
      <trkpt lat="36.00494694896042" lon="129.37901996076107">
        <ele>10.4</ele>
        <time>2026-06-05T15:14:38</time>
      </trkpt>
      <trkpt lat="36.00490193814039" lon="129.37907595187426">
        <ele>10.4</ele>
        <time>2026-06-05T15:14:39</time>
      </trkpt>
      <trkpt lat="36.00485893897712" lon="129.37913194298744">
        <ele>10.4</ele>
        <time>2026-06-05T15:14:40</time>
      </trkpt>
      <trkpt lat="36.004818957298994" lon="129.3791899457574">
        <ele>10.4</ele>
        <time>2026-06-05T15:14:41</time>
      </trkpt>
      <trkpt lat="36.004779981449246" lon="129.3792449310422">
        <ele>10.2</ele>
        <time>2026-06-05T15:14:42</time>
      </trkpt>
      <trkpt lat="36.00474092178047" lon="129.37929798848927">
        <ele>10.2</ele>
        <time>2026-06-05T15:14:43</time>
      </trkpt>
      <trkpt lat="36.00470094010234" lon="129.37934995628893">
        <ele>10.2</ele>
        <time>2026-06-05T15:14:44</time>
      </trkpt>
      <trkpt lat="36.00466095842421" lon="129.3794019240886">
        <ele>10.2</ele>
        <time>2026-06-05T15:14:45</time>
      </trkpt>
      <trkpt lat="36.00462298840284" lon="129.3794529698789">
        <ele>10.2</ele>
        <time>2026-06-05T15:14:46</time>
      </trkpt>
      <trkpt lat="36.004585940390825" lon="129.37950493767858">
        <ele>10.4</ele>
        <time>2026-06-05T15:14:47</time>
      </trkpt>
      <trkpt lat="36.00454696454108" lon="129.3795559834689">
        <ele>10.4</ele>
        <time>2026-06-05T15:14:48</time>
      </trkpt>
      <trkpt lat="36.00450798869133" lon="129.37960694544017">
        <ele>10.4</ele>
        <time>2026-06-05T15:14:49</time>
      </trkpt>
      <trkpt lat="36.00446892902255" lon="129.3796579912305">
        <ele>10.4</ele>
        <time>2026-06-05T15:14:50</time>
      </trkpt>
      <trkpt lat="36.00442894734442" lon="129.37970895320177">
        <ele>10.2</ele>
        <time>2026-06-05T15:14:51</time>
      </trkpt>
      <trkpt lat="36.00438795983791" lon="129.37976092100143">
        <ele>10.2</ele>
        <time>2026-06-05T15:14:52</time>
      </trkpt>
      <trkpt lat="36.004348983988166" lon="129.37981196679175">
        <ele>10.2</ele>
        <time>2026-06-05T15:14:53</time>
      </trkpt>
      <trkpt lat="36.00430992431939" lon="129.3798639345914">
        <ele>10.2</ele>
        <time>2026-06-05T15:14:54</time>
      </trkpt>
      <trkpt lat="36.00426994264126" lon="129.3799159862101">
        <ele>10.0</ele>
        <time>2026-06-05T15:14:55</time>
      </trkpt>
      <trkpt lat="36.00422996096313" lon="129.3799669481814">
        <ele>10.0</ele>
        <time>2026-06-05T15:14:56</time>
      </trkpt>
      <trkpt lat="36.00419098511338" lon="129.3800189998001">
        <ele>10.0</ele>
        <time>2026-06-05T15:14:57</time>
      </trkpt>
      <trkpt lat="36.00415293127298" lon="129.38006996177137">
        <ele>10.0</ele>
        <time>2026-06-05T15:14:58</time>
      </trkpt>
      <trkpt lat="36.00411596708" lon="129.38011899590492">
        <ele>10.0</ele>
        <time>2026-06-05T15:14:59</time>
      </trkpt>
      <trkpt lat="36.00408093072474" lon="129.3801649287343">
        <ele>10.0</ele>
        <time>2026-06-05T15:15:00</time>
      </trkpt>
      <trkpt lat="36.004045978188515" lon="129.38020893372595">
        <ele>10.0</ele>
        <time>2026-06-05T15:15:01</time>
      </trkpt>
      <trkpt lat="36.00401295349002" lon="129.38024992123246">
        <ele>10.0</ele>
        <time>2026-06-05T15:15:02</time>
      </trkpt>
      <trkpt lat="36.003981940448284" lon="129.38028998672962">
        <ele>10.0</ele>
        <time>2026-06-05T15:15:03</time>
      </trkpt>
      <trkpt lat="36.00395193323493" lon="129.38032996840775">
        <ele>10.0</ele>
        <time>2026-06-05T15:15:04</time>
      </trkpt>
      <trkpt lat="36.00392293184996" lon="129.38036995008588">
        <ele>10.0</ele>
        <time>2026-06-05T15:15:05</time>
      </trkpt>
      <trkpt lat="36.003894936293364" lon="129.380409931764">
        <ele>10.0</ele>
        <time>2026-06-05T15:15:06</time>
      </trkpt>
      <trkpt lat="36.00386694073677" lon="129.3804489914328">
        <ele>10.0</ele>
        <time>2026-06-05T15:15:07</time>
      </trkpt>
      <trkpt lat="36.0038379393518" lon="129.38048897311091">
        <ele>10.0</ele>
        <time>2026-06-05T15:15:08</time>
      </trkpt>
      <trkpt lat="36.003808937966824" lon="129.38052694313228">
        <ele>10.0</ele>
        <time>2026-06-05T15:15:09</time>
      </trkpt>
      <trkpt lat="36.00377792492509" lon="129.38056499697268">
        <ele>10.0</ele>
        <time>2026-06-05T15:15:10</time>
      </trkpt>
      <trkpt lat="36.003747917711735" lon="129.38060296699405">
        <ele>10.0</ele>
        <time>2026-06-05T15:15:11</time>
      </trkpt>
      <trkpt lat="36.00371598266065" lon="129.38064093701541">
        <ele>10.2</ele>
        <time>2026-06-05T15:15:12</time>
      </trkpt>
      <trkpt lat="36.003683963790536" lon="129.3806789908558">
        <ele>10.2</ele>
        <time>2026-06-05T15:15:13</time>
      </trkpt>
      <trkpt lat="36.00365194492042" lon="129.38071897253394">
        <ele>10.2</ele>
        <time>2026-06-05T15:15:14</time>
      </trkpt>
      <trkpt lat="36.003619926050305" lon="129.38075996004045">
        <ele>10.2</ele>
        <time>2026-06-05T15:15:15</time>
      </trkpt>
      <trkpt lat="36.0035889968276" lon="129.38080094754696">
        <ele>10.2</ele>
        <time>2026-06-05T15:15:16</time>
      </trkpt>
      <trkpt lat="36.00355697795749" lon="129.38084193505347">
        <ele>10.2</ele>
        <time>2026-06-05T15:15:17</time>
      </trkpt>
      <trkpt lat="36.00352495908737" lon="129.3808819167316">
        <ele>10.2</ele>
        <time>2026-06-05T15:15:18</time>
      </trkpt>
      <trkpt lat="36.003491934388876" lon="129.38092298805714">
        <ele>10.2</ele>
        <time>2026-06-05T15:15:19</time>
      </trkpt>
      <trkpt lat="36.00345999933779" lon="129.38096498139203">
        <ele>10.0</ele>
        <time>2026-06-05T15:15:20</time>
      </trkpt>
      <trkpt lat="36.00342798046768" lon="129.38100496307015">
        <ele>10.0</ele>
        <time>2026-06-05T15:15:21</time>
      </trkpt>
      <trkpt lat="36.0033939499408" lon="129.38103396445513">
        <ele>10.0</ele>
        <time>2026-06-05T15:15:22</time>
      </trkpt>
      <trkpt lat="36.003359919413924" lon="129.38104695640504">
        <ele>9.8</ele>
        <time>2026-06-05T15:15:23</time>
      </trkpt>
      <trkpt lat="36.00332295522094" lon="129.38105491921306">
        <ele>9.8</ele>
        <time>2026-06-05T15:15:24</time>
      </trkpt>
      <trkpt lat="36.00328791886568" lon="129.3810719344765">
        <ele>9.8</ele>
        <time>2026-06-05T15:15:25</time>
      </trkpt>
      <trkpt lat="36.00325698964298" lon="129.38110194168985">
        <ele>9.8</ele>
        <time>2026-06-05T15:15:26</time>
      </trkpt>
      <trkpt lat="36.003230921924114" lon="129.38114393502474">
        <ele>9.8</ele>
        <time>2026-06-05T15:15:27</time>
      </trkpt>
      <trkpt lat="36.00320594385266" lon="129.3811919633299">
        <ele>9.8</ele>
        <time>2026-06-05T15:15:28</time>
      </trkpt>
      <trkpt lat="36.00318197160959" lon="129.38124393112957">
        <ele>9.8</ele>
        <time>2026-06-05T15:15:29</time>
      </trkpt>
      <trkpt lat="36.00315699353814" lon="129.3812949769199">
        <ele>9.6</ele>
        <time>2026-06-05T15:15:30</time>
      </trkpt>
      <trkpt lat="36.0031299199909" lon="129.38134199939668">
        <ele>9.6</ele>
        <time>2026-06-05T15:15:31</time>
      </trkpt>
      <trkpt lat="36.003102930262685" lon="129.38138399273157">
        <ele>9.6</ele>
        <time>2026-06-05T15:15:32</time>
      </trkpt>
      <trkpt lat="36.00307594053447" lon="129.38142296858132">
        <ele>9.6</ele>
        <time>2026-06-05T15:15:33</time>
      </trkpt>
      <trkpt lat="36.00304895080626" lon="129.38145892694592">
        <ele>9.6</ele>
        <time>2026-06-05T15:15:34</time>
      </trkpt>
      <trkpt lat="36.00301994942129" lon="129.38149396330118">
        <ele>9.6</ele>
        <time>2026-06-05T15:15:35</time>
      </trkpt>
      <trkpt lat="36.00299094803631" lon="129.38152899965644">
        <ele>9.6</ele>
        <time>2026-06-05T15:15:36</time>
      </trkpt>
      <trkpt lat="36.0029589291662" lon="129.3815619405359">
        <ele>9.6</ele>
        <time>2026-06-05T15:15:37</time>
      </trkpt>
      <trkpt lat="36.00292196497321" lon="129.38158398494124">
        <ele>9.6</ele>
        <time>2026-06-05T15:15:38</time>
      </trkpt>
      <trkpt lat="36.0028809774667" lon="129.3815899360925">
        <ele>9.6</ele>
        <time>2026-06-05T15:15:39</time>
      </trkpt>
      <trkpt lat="36.00283898413181" lon="129.38158297911286">
        <ele>9.8</ele>
        <time>2026-06-05T15:15:40</time>
      </trkpt>
      <trkpt lat="36.002797996625304" lon="129.38156898133457">
        <ele>9.8</ele>
        <time>2026-06-05T15:15:41</time>
      </trkpt>
      <trkpt lat="36.002757931128144" lon="129.3815529718995">
        <ele>9.8</ele>
        <time>2026-06-05T15:15:42</time>
      </trkpt>
      <trkpt lat="36.00272297859192" lon="129.38153796829283">
        <ele>10.0</ele>
        <time>2026-06-05T15:15:43</time>
      </trkpt>
      <trkpt lat="36.0026999283582" lon="129.3815299216658">
        <ele>10.0</ele>
        <time>2026-06-05T15:15:44</time>
      </trkpt>
      <trkpt lat="36.00268995389342" lon="129.38152497634292">
        <ele>10.0</ele>
        <time>2026-06-05T15:15:45</time>
      </trkpt>
      <trkpt lat="36.0026859305799" lon="129.38152296468616">
        <ele>10.0</ele>
        <time>2026-06-05T15:15:46</time>
      </trkpt>
      <trkpt lat="36.00268299691379" lon="129.38152296468616">
        <ele>10.0</ele>
        <time>2026-06-05T15:15:47</time>
      </trkpt>
      <trkpt lat="36.00266698747873" lon="129.38154391944408">
        <ele>10.2</ele>
        <time>2026-06-05T15:15:50</time>
      </trkpt>
      <trkpt lat="36.00265894085169" lon="129.38155598938465">
        <ele>10.4</ele>
        <time>2026-06-05T15:15:51</time>
      </trkpt>
      <trkpt lat="36.002649972215295" lon="129.38156395219266">
        <ele>10.4</ele>
        <time>2026-06-05T15:15:52</time>
      </trkpt>
      <trkpt lat="36.00264091975987" lon="129.38156596384943">
        <ele>10.6</ele>
        <time>2026-06-05T15:15:53</time>
      </trkpt>
      <trkpt lat="36.002631951123476" lon="129.38156898133457">
        <ele>10.6</ele>
        <time>2026-06-05T15:15:54</time>
      </trkpt>
      <trkpt lat="36.002627927809954" lon="129.38157292082906">
        <ele>10.6</ele>
        <time>2026-06-05T15:15:55</time>
      </trkpt>
      <trkpt lat="36.002625999972224" lon="129.38157694414258">
        <ele>10.6</ele>
        <time>2026-06-05T15:15:56</time>
      </trkpt>
      <trkpt lat="36.0026219766587" lon="129.38157895579934">
        <ele>10.6</ele>
        <time>2026-06-05T15:15:57</time>
      </trkpt>
      <trkpt lat="36.00261996500194" lon="129.3815719988197">
        <ele>10.8</ele>
        <time>2026-06-05T15:15:58</time>
      </trkpt>
      <trkpt lat="36.00275298580527" lon="129.38160192221403">
        <ele>10.0</ele>
        <time>2026-06-05T15:23:12</time>
      </trkpt>
      <trkpt lat="36.002758936956525" lon="129.3815949652344">
        <ele>10.0</ele>
        <time>2026-06-05T15:23:13</time>
      </trkpt>
      <trkpt lat="36.00276497192681" lon="129.38158691860735">
        <ele>10.0</ele>
        <time>2026-06-05T15:23:14</time>
      </trkpt>
      <trkpt lat="36.00277092307806" lon="129.38157895579934">
        <ele>9.8</ele>
        <time>2026-06-05T15:23:15</time>
      </trkpt>
      <trkpt lat="36.00277494639158" lon="129.38157099299133">
        <ele>9.8</ele>
        <time>2026-06-05T15:23:16</time>
      </trkpt>
      <trkpt lat="36.0027739405632" lon="129.38156395219266">
        <ele>9.8</ele>
        <time>2026-06-05T15:23:17</time>
      </trkpt>
      <trkpt lat="36.00277192890644" lon="129.38156093470752">
        <ele>9.8</ele>
        <time>2026-06-05T15:23:18</time>
      </trkpt>
      <trkpt lat="36.00276899524033" lon="129.38155892305076">
        <ele>9.8</ele>
        <time>2026-06-05T15:23:19</time>
      </trkpt>
      <trkpt lat="36.002694983035326" lon="129.38165992498398">
        <ele>9.8</ele>
        <time>2026-06-05T15:24:01</time>
      </trkpt>
      <trkpt lat="36.00267897360027" lon="129.38167895190418">
        <ele>10.0</ele>
        <time>2026-06-05T15:24:02</time>
      </trkpt>
      <trkpt lat="36.00266095250845" lon="129.3817059416324">
        <ele>10.0</ele>
        <time>2026-06-05T15:24:03</time>
      </trkpt>
      <trkpt lat="36.00264293141663" lon="129.3817389663309">
        <ele>10.0</ele>
        <time>2026-06-05T15:24:04</time>
      </trkpt>
      <trkpt lat="36.002629939466715" lon="129.3817799538374">
        <ele>10.0</ele>
        <time>2026-06-05T15:24:05</time>
      </trkpt>
      <trkpt lat="36.002624994143844" lon="129.38182496465743">
        <ele>10.0</ele>
        <time>2026-06-05T15:24:06</time>
      </trkpt>
      <trkpt lat="36.002629939466715" lon="129.38186997547746">
        <ele>10.0</ele>
        <time>2026-06-05T15:24:07</time>
      </trkpt>
      <trkpt lat="36.00263999775052" lon="129.3819139804691">
        <ele>10.0</ele>
        <time>2026-06-05T15:24:08</time>
      </trkpt>
      <trkpt lat="36.002647960558534" lon="129.38195697963238">
        <ele>10.0</ele>
        <time>2026-06-05T15:24:09</time>
      </trkpt>
      <trkpt lat="36.002647960558534" lon="129.3819979671389">
        <ele>10.0</ele>
        <time>2026-06-05T15:24:10</time>
      </trkpt>
      <trkpt lat="36.00263798609376" lon="129.38203593716025">
        <ele>10.0</ele>
        <time>2026-06-05T15:24:11</time>
      </trkpt>
      <trkpt lat="36.00261895917356" lon="129.38206996768713">
        <ele>9.8</ele>
        <time>2026-06-05T15:24:12</time>
      </trkpt>
      <trkpt lat="36.00259498693049" lon="129.38210098072886">
        <ele>9.8</ele>
        <time>2026-06-05T15:24:13</time>
      </trkpt>
      <trkpt lat="36.00256992504001" lon="129.38213098794222">
        <ele>9.8</ele>
        <time>2026-06-05T15:24:14</time>
      </trkpt>
      <trkpt lat="36.002542935311794" lon="129.3821599893272">
        <ele>9.6</ele>
        <time>2026-06-05T15:24:15</time>
      </trkpt>
      <trkpt lat="36.0025149397552" lon="129.3821909185499">
        <ele>9.6</ele>
        <time>2026-06-05T15:24:16</time>
      </trkpt>
      <trkpt lat="36.00248593837023" lon="129.3822239432484">
        <ele>9.8</ele>
        <time>2026-06-05T15:24:17</time>
      </trkpt>
      <trkpt lat="36.002455931156874" lon="129.38225998543203">
        <ele>9.8</ele>
        <time>2026-06-05T15:24:18</time>
      </trkpt>
      <trkpt lat="36.0024269297719" lon="129.38229594379663">
        <ele>10.0</ele>
        <time>2026-06-05T15:24:19</time>
      </trkpt>
      <trkpt lat="36.00240195170045" lon="129.3823299743235">
        <ele>10.0</ele>
        <time>2026-06-05T15:24:20</time>
      </trkpt>
      <trkpt lat="36.00237898528576" lon="129.38236098736525">
        <ele>10.0</ele>
        <time>2026-06-05T15:24:21</time>
      </trkpt>
      <trkpt lat="36.00235694088042" lon="129.3823909945786">
        <ele>10.0</ele>
        <time>2026-06-05T15:24:22</time>
      </trkpt>
      <trkpt lat="36.00233397446573" lon="129.38241999596357">
        <ele>10.0</ele>
        <time>2026-06-05T15:24:23</time>
      </trkpt>
      <trkpt lat="36.00231293588877" lon="129.38244497403502">
        <ele>10.0</ele>
        <time>2026-06-05T15:24:24</time>
      </trkpt>
      <trkpt lat="36.0022939927876" lon="129.38246299512684">
        <ele>9.8</ele>
        <time>2026-06-05T15:24:25</time>
      </trkpt>
      <trkpt lat="36.00227597169578" lon="129.38247397542">
        <ele>9.8</ele>
        <time>2026-06-05T15:24:26</time>
      </trkpt>
      <trkpt lat="36.00225694477558" lon="129.38247799873352">
        <ele>9.8</ele>
        <time>2026-06-05T15:24:27</time>
      </trkpt>
      <trkpt lat="36.00223892368376" lon="129.38247598707676">
        <ele>9.8</ele>
        <time>2026-06-05T15:24:28</time>
      </trkpt>
      <trkpt lat="36.002223920077085" lon="129.38247296959162">
        <ele>9.8</ele>
        <time>2026-06-05T15:24:29</time>
      </trkpt>
      <trkpt lat="36.00221193395555" lon="129.38246995210648">
        <ele>9.8</ele>
        <time>2026-06-05T15:24:30</time>
      </trkpt>
      <trkpt lat="36.00220698863268" lon="129.38246794044971">
        <ele>9.6</ele>
        <time>2026-06-05T15:24:31</time>
      </trkpt>
      <trkpt lat="36.0022059828043" lon="129.38246592879295">
        <ele>9.6</ele>
        <time>2026-06-05T15:24:32</time>
      </trkpt>
      <trkpt lat="36.00220698863268" lon="129.38246492296457">
        <ele>9.6</ele>
        <time>2026-06-05T15:24:33</time>
      </trkpt>
      <trkpt lat="36.00216499529779" lon="129.3825429584831">
        <ele>10.2</ele>
        <time>2026-06-05T15:25:52</time>
      </trkpt>
      <trkpt lat="36.00215099751949" lon="129.38257497735322">
        <ele>10.2</ele>
        <time>2026-06-05T15:25:53</time>
      </trkpt>
      <trkpt lat="36.002132976427674" lon="129.38261093571782">
        <ele>10.0</ele>
        <time>2026-06-05T15:25:54</time>
      </trkpt>
      <trkpt lat="36.002112943679094" lon="129.38264798372984">
        <ele>10.0</ele>
        <time>2026-06-05T15:25:55</time>
      </trkpt>
      <trkpt lat="36.002091988921165" lon="129.3826859537512">
        <ele>10.0</ele>
        <time>2026-06-05T15:25:56</time>
      </trkpt>
      <trkpt lat="36.002072962000966" lon="129.38272593542933">
        <ele>9.8</ele>
        <time>2026-06-05T15:25:57</time>
      </trkpt>
      <trkpt lat="36.00205896422267" lon="129.3827649950981">
        <ele>9.8</ele>
        <time>2026-06-05T15:25:58</time>
      </trkpt>
      <trkpt lat="36.002049995586276" lon="129.38279994763434">
        <ele>9.8</ele>
        <time>2026-06-05T15:25:59</time>
      </trkpt>
      <trkpt lat="36.00204295478761" lon="129.38283196650445">
        <ele>9.8</ele>
        <time>2026-06-05T15:26:00</time>
      </trkpt>
      <trkpt lat="36.002029962837696" lon="129.3828629795462">
        <ele>9.8</ele>
        <time>2026-06-05T15:26:01</time>
      </trkpt>
      <trkpt lat="36.00201294757426" lon="129.38289298675954">
        <ele>9.8</ele>
        <time>2026-06-05T15:26:02</time>
      </trkpt>
      <trkpt lat="36.00198998115957" lon="129.38292399980128">
        <ele>9.8</ele>
        <time>2026-06-05T15:26:03</time>
      </trkpt>
      <trkpt lat="36.001962991431355" lon="129.38295694068074">
        <ele>9.8</ele>
        <time>2026-06-05T15:26:04</time>
      </trkpt>
      <trkpt lat="36.00193197838962" lon="129.38299298286438">
        <ele>9.8</ele>
        <time>2026-06-05T15:26:05</time>
      </trkpt>
      <trkpt lat="36.001899959519506" lon="129.38303195871413">
        <ele>9.8</ele>
        <time>2026-06-05T15:26:06</time>
      </trkpt>
      <trkpt lat="36.00186592899263" lon="129.38307194039226">
        <ele>10.0</ele>
        <time>2026-06-05T15:26:07</time>
      </trkpt>
      <trkpt lat="36.001830976456404" lon="129.38311493955553">
        <ele>10.0</ele>
        <time>2026-06-05T15:26:08</time>
      </trkpt>
      <trkpt lat="36.001794934272766" lon="129.38316095620394">
        <ele>10.2</ele>
        <time>2026-06-05T15:26:09</time>
      </trkpt>
      <trkpt lat="36.0017569642514" lon="129.3832089845091">
        <ele>10.2</ele>
        <time>2026-06-05T15:26:10</time>
      </trkpt>
      <trkpt lat="36.00171798840165" lon="129.383258940652">
        <ele>10.2</ele>
        <time>2026-06-05T15:26:11</time>
      </trkpt>
      <trkpt lat="36.00167892873287" lon="129.38330898061395">
        <ele>10.2</ele>
        <time>2026-06-05T15:26:12</time>
      </trkpt>
      <trkpt lat="36.001640958711505" lon="129.3833569251001">
        <ele>10.2</ele>
        <time>2026-06-05T15:26:13</time>
      </trkpt>
      <trkpt lat="36.00160491652787" lon="129.38340394757688">
        <ele>10.2</ele>
        <time>2026-06-05T15:26:14</time>
      </trkpt>
      <trkpt lat="36.00156996399164" lon="129.3834499642253">
        <ele>10.2</ele>
        <time>2026-06-05T15:26:15</time>
      </trkpt>
      <trkpt lat="36.001535933464766" lon="129.38349497504532">
        <ele>10.2</ele>
        <time>2026-06-05T15:26:16</time>
      </trkpt>
      <trkpt lat="36.00150198675692" lon="129.3835379742086">
        <ele>10.2</ele>
        <time>2026-06-05T15:26:17</time>
      </trkpt>
      <trkpt lat="36.001467956230044" lon="129.38357996754348">
        <ele>10.2</ele>
        <time>2026-06-05T15:26:18</time>
      </trkpt>
      <trkpt lat="36.00143392570317" lon="129.38362397253513">
        <ele>10.2</ele>
        <time>2026-06-05T15:26:19</time>
      </trkpt>
      <trkpt lat="36.00139997899532" lon="129.38366797752678">
        <ele>10.0</ele>
        <time>2026-06-05T15:26:20</time>
      </trkpt>
      <trkpt lat="36.00136695429683" lon="129.38370997086167">
        <ele>10.0</ele>
        <time>2026-06-05T15:26:21</time>
      </trkpt>
      <trkpt lat="36.00133493542671" lon="129.38375196419656">
        <ele>10.0</ele>
        <time>2026-06-05T15:26:22</time>
      </trkpt>
      <trkpt lat="36.00130392238498" lon="129.38379295170307">
        <ele>9.8</ele>
        <time>2026-06-05T15:26:23</time>
      </trkpt>
      <trkpt lat="36.001275926828384" lon="129.38383092172444">
        <ele>9.8</ele>
        <time>2026-06-05T15:26:24</time>
      </trkpt>
      <trkpt lat="36.00124994292855" lon="129.38386394642293">
        <ele>9.8</ele>
        <time>2026-06-05T15:26:25</time>
      </trkpt>
      <trkpt lat="36.001229993999004" lon="129.38389194197953">
        <ele>9.8</ele>
        <time>2026-06-05T15:26:26</time>
      </trkpt>
      <trkpt lat="36.00121499039233" lon="129.38391398638487">
        <ele>9.8</ele>
        <time>2026-06-05T15:26:27</time>
      </trkpt>
      <trkpt lat="36.00120392628014" lon="129.38392999581993">
        <ele>9.6</ele>
        <time>2026-06-05T15:26:28</time>
      </trkpt>
      <trkpt lat="36.00119395181537" lon="129.38394399359822">
        <ele>9.6</ele>
        <time>2026-06-05T15:26:29</time>
      </trkpt>
      <trkpt lat="36.00118297152221" lon="129.3839589972049">
        <ele>9.6</ele>
        <time>2026-06-05T15:26:30</time>
      </trkpt>
      <trkpt lat="36.001169979572296" lon="129.38397492282093">
        <ele>9.6</ele>
        <time>2026-06-05T15:26:31</time>
      </trkpt>
      <trkpt lat="36.00115397013724" lon="129.38399394974113">
        <ele>9.6</ele>
        <time>2026-06-05T15:26:32</time>
      </trkpt>
      <trkpt lat="36.00113594904542" lon="129.3840139824897">
        <ele>9.6</ele>
        <time>2026-06-05T15:26:33</time>
      </trkpt>
      <trkpt lat="36.00111398845911" lon="129.38403292559087">
        <ele>9.6</ele>
        <time>2026-06-05T15:26:34</time>
      </trkpt>
      <trkpt lat="36.00108993239701" lon="129.3840549699962">
        <ele>9.6</ele>
        <time>2026-06-05T15:26:35</time>
      </trkpt>
      <trkpt lat="36.00106596015394" lon="129.38408095389605">
        <ele>9.6</ele>
        <time>2026-06-05T15:26:36</time>
      </trkpt>
      <trkpt lat="36.00104592740536" lon="129.38410794362426">
        <ele>9.6</ele>
        <time>2026-06-05T15:26:37</time>
      </trkpt>
      <trkpt lat="36.00102799013257" lon="129.3841329216957">
        <ele>9.6</ele>
        <time>2026-06-05T15:26:38</time>
      </trkpt>
      <trkpt lat="36.00101298652589" lon="129.3841569777578">
        <ele>9.6</ele>
        <time>2026-06-05T15:26:39</time>
      </trkpt>
      <trkpt lat="36.00099999457598" lon="129.38418095000088">
        <ele>9.6</ele>
        <time>2026-06-05T15:26:40</time>
      </trkpt>
      <trkpt lat="36.00098599679768" lon="129.38420098274946">
        <ele>9.4</ele>
        <time>2026-06-05T15:26:41</time>
      </trkpt>
      <trkpt lat="36.000970993191004" lon="129.38421196304262">
        <ele>9.4</ele>
        <time>2026-06-05T15:26:42</time>
      </trkpt>
      <trkpt lat="36.00095598958433" lon="129.384212968871">
        <ele>9.4</ele>
        <time>2026-06-05T15:26:43</time>
      </trkpt>
      <trkpt lat="36.0009469371289" lon="129.38420995138586">
        <ele>9.4</ele>
        <time>2026-06-05T15:26:44</time>
      </trkpt>
      <trkpt lat="36.00094391964376" lon="129.38420592807233">
        <ele>9.4</ele>
        <time>2026-06-05T15:26:45</time>
      </trkpt>
      <trkpt lat="36.00094299763441" lon="129.38420299440622">
        <ele>9.6</ele>
        <time>2026-06-05T15:26:46</time>
      </trkpt>
      <trkpt lat="36.00094492547214" lon="129.38419997692108">
        <ele>9.6</ele>
        <time>2026-06-05T15:26:47</time>
      </trkpt>
      <trkpt lat="36.00091399624944" lon="129.3842409644276">
        <ele>9.0</ele>
        <time>2026-06-05T15:28:31</time>
      </trkpt>
      <trkpt lat="36.00089899264276" lon="129.38426493667066">
        <ele>9.2</ele>
        <time>2026-06-05T15:28:32</time>
      </trkpt>
      <trkpt lat="36.0008829832077" lon="129.3842959497124">
        <ele>9.2</ele>
        <time>2026-06-05T15:28:33</time>
      </trkpt>
      <trkpt lat="36.000864962115884" lon="129.38433593139052">
        <ele>9.4</ele>
        <time>2026-06-05T15:28:34</time>
      </trkpt>
      <trkpt lat="36.000841995701194" lon="129.3843789305538">
        <ele>9.4</ele>
        <time>2026-06-05T15:28:35</time>
      </trkpt>
      <trkpt lat="36.00081299431622" lon="129.38442293554544">
        <ele>9.4</ele>
        <time>2026-06-05T15:28:36</time>
      </trkpt>
      <trkpt lat="36.000779969617724" lon="129.38446492888033">
        <ele>9.4</ele>
        <time>2026-06-05T15:28:37</time>
      </trkpt>
      <trkpt lat="36.00074593909085" lon="129.3845079280436">
        <ele>9.2</ele>
        <time>2026-06-05T15:28:38</time>
      </trkpt>
      <trkpt lat="36.000712998211384" lon="129.38455293886364">
        <ele>9.2</ele>
        <time>2026-06-05T15:28:39</time>
      </trkpt>
      <trkpt lat="36.00068198516965" lon="129.38459794968367">
        <ele>9.0</ele>
        <time>2026-06-05T15:28:40</time>
      </trkpt>
      <trkpt lat="36.000651977956295" lon="129.38464497216046">
        <ele>9.0</ele>
        <time>2026-06-05T15:28:41</time>
      </trkpt>
      <trkpt lat="36.00062096491456" lon="129.38469199463725">
        <ele>9.0</ele>
        <time>2026-06-05T15:28:42</time>
      </trkpt>
      <trkpt lat="36.000588946044445" lon="129.38473792746663">
        <ele>9.0</ele>
        <time>2026-06-05T15:28:43</time>
      </trkpt>
      <trkpt lat="36.0005549993366" lon="129.38478293828666">
        <ele>9.0</ele>
        <time>2026-06-05T15:28:44</time>
      </trkpt>
      <trkpt lat="36.00051795132458" lon="129.38482996076345">
        <ele>9.2</ele>
        <time>2026-06-05T15:28:45</time>
      </trkpt>
      <trkpt lat="36.000478975474834" lon="129.38487798906863">
        <ele>9.2</ele>
        <time>2026-06-05T15:28:46</time>
      </trkpt>
      <trkpt lat="36.000438993796706" lon="129.38492794521153">
        <ele>9.2</ele>
        <time>2026-06-05T15:28:47</time>
      </trkpt>
      <trkpt lat="36.000398928299546" lon="129.38498091883957">
        <ele>9.2</ele>
        <time>2026-06-05T15:28:48</time>
      </trkpt>
      <trkpt lat="36.00035693496466" lon="129.3850359879434">
        <ele>9.2</ele>
        <time>2026-06-05T15:28:49</time>
      </trkpt>
      <trkpt lat="36.00031594745815" lon="129.38509097322822">
        <ele>9.2</ele>
        <time>2026-06-05T15:28:50</time>
      </trkpt>
      <trkpt lat="36.00027596578002" lon="129.38514495268464">
        <ele>9.2</ele>
        <time>2026-06-05T15:28:51</time>
      </trkpt>
      <trkpt lat="36.00023598410189" lon="129.3851969204843">
        <ele>9.2</ele>
        <time>2026-06-05T15:28:52</time>
      </trkpt>
      <trkpt lat="36.00019793026149" lon="129.38524595461786">
        <ele>9.2</ele>
        <time>2026-06-05T15:28:53</time>
      </trkpt>
      <trkpt lat="36.000159960240126" lon="129.38529398292303">
        <ele>9.2</ele>
        <time>2026-06-05T15:28:54</time>
      </trkpt>
      <trkpt lat="36.00012391805649" lon="129.38534192740917">
        <ele>9.4</ele>
        <time>2026-06-05T15:28:55</time>
      </trkpt>
      <trkpt lat="36.00008795969188" lon="129.38538794405758">
        <ele>9.4</ele>
        <time>2026-06-05T15:28:56</time>
      </trkpt>
      <trkpt lat="36.000052923336625" lon="129.38543295487761">
        <ele>9.4</ele>
        <time>2026-06-05T15:28:57</time>
      </trkpt>
      <trkpt lat="36.00001595914364" lon="129.38547897152603">
        <ele>9.4</ele>
        <time>2026-06-05T15:28:58</time>
      </trkpt>
      <trkpt lat="35.99997899495065" lon="129.38552599400282">
        <ele>9.4</ele>
        <time>2026-06-05T15:28:59</time>
      </trkpt>
      <trkpt lat="35.999942952767015" lon="129.38557393848896">
        <ele>9.6</ele>
        <time>2026-06-05T15:29:00</time>
      </trkpt>
      <trkpt lat="35.99990699440241" lon="129.385618949309">
        <ele>9.6</ele>
        <time>2026-06-05T15:29:01</time>
      </trkpt>
      <trkpt lat="35.99987195804715" lon="129.38566194847226">
        <ele>9.6</ele>
        <time>2026-06-05T15:29:02</time>
      </trkpt>
      <trkpt lat="35.999838933348656" lon="129.38570293597877">
        <ele>9.6</ele>
        <time>2026-06-05T15:29:03</time>
      </trkpt>
      <trkpt lat="35.99980792030692" lon="129.38574392348528">
        <ele>9.6</ele>
        <time>2026-06-05T15:29:04</time>
      </trkpt>
      <trkpt lat="35.9997779969126" lon="129.38578499481082">
        <ele>9.6</ele>
        <time>2026-06-05T15:29:05</time>
      </trkpt>
      <trkpt lat="35.999746983870864" lon="129.3858279939741">
        <ele>9.6</ele>
        <time>2026-06-05T15:29:06</time>
      </trkpt>
      <trkpt lat="35.99971194751561" lon="129.38587099313736">
        <ele>9.6</ele>
        <time>2026-06-05T15:29:07</time>
      </trkpt>
      <trkpt lat="35.99967498332262" lon="129.385914998129">
        <ele>9.6</ele>
        <time>2026-06-05T15:29:08</time>
      </trkpt>
      <trkpt lat="35.99963692948222" lon="129.38596193678677">
        <ele>9.6</ele>
        <time>2026-06-05T15:29:09</time>
      </trkpt>
      <trkpt lat="35.999597953632474" lon="129.38601097092032">
        <ele>9.6</ele>
        <time>2026-06-05T15:29:10</time>
      </trkpt>
      <trkpt lat="35.99955998361111" lon="129.3860589992255">
        <ele>9.6</ele>
        <time>2026-06-05T15:29:11</time>
      </trkpt>
      <trkpt lat="35.99952192977071" lon="129.38610593788326">
        <ele>9.6</ele>
        <time>2026-06-05T15:29:12</time>
      </trkpt>
      <trkpt lat="35.99948496557772" lon="129.38615195453167">
        <ele>9.8</ele>
        <time>2026-06-05T15:29:13</time>
      </trkpt>
      <trkpt lat="35.999448923394084" lon="129.38619897700846">
        <ele>9.8</ele>
        <time>2026-06-05T15:29:14</time>
      </trkpt>
      <trkpt lat="35.99941296502948" lon="129.38624499365687">
        <ele>9.8</ele>
        <time>2026-06-05T15:29:15</time>
      </trkpt>
      <trkpt lat="35.99937591701746" lon="129.38629092648625">
        <ele>9.8</ele>
        <time>2026-06-05T15:29:16</time>
      </trkpt>
      <trkpt lat="35.999339958652854" lon="129.38633794896305">
        <ele>9.8</ele>
        <time>2026-06-05T15:29:17</time>
      </trkpt>
      <trkpt lat="35.99930299445987" lon="129.38638295978308">
        <ele>9.8</ele>
        <time>2026-06-05T15:29:18</time>
      </trkpt>
      <trkpt lat="35.99926594644785" lon="129.3864289764315">
        <ele>9.8</ele>
        <time>2026-06-05T15:29:19</time>
      </trkpt>
      <trkpt lat="35.99922898225486" lon="129.38647692091763">
        <ele>9.8</ele>
        <time>2026-06-05T15:29:20</time>
      </trkpt>
      <trkpt lat="35.999191934242845" lon="129.38652595505118">
        <ele>9.8</ele>
        <time>2026-06-05T15:29:21</time>
      </trkpt>
      <trkpt lat="35.99915396422148" lon="129.38657599501312">
        <ele>9.8</ele>
        <time>2026-06-05T15:29:22</time>
      </trkpt>
      <trkpt lat="35.99911599420011" lon="129.38662494532764">
        <ele>9.8</ele>
        <time>2026-06-05T15:29:23</time>
      </trkpt>
      <trkpt lat="35.99907794035971" lon="129.3866739794612">
        <ele>9.8</ele>
        <time>2026-06-05T15:29:24</time>
      </trkpt>
      <trkpt lat="35.99903795868158" lon="129.38672292977571">
        <ele>9.8</ele>
        <time>2026-06-05T15:29:25</time>
      </trkpt>
      <trkpt lat="35.998998982831836" lon="129.38677296973765">
        <ele>9.8</ele>
        <time>2026-06-05T15:29:26</time>
      </trkpt>
      <trkpt lat="35.998959923163056" lon="129.38682393170893">
        <ele>9.8</ele>
        <time>2026-06-05T15:29:27</time>
      </trkpt>
      <trkpt lat="35.99892094731331" lon="129.38687497749925">
        <ele>9.8</ele>
        <time>2026-06-05T15:29:28</time>
      </trkpt>
      <trkpt lat="35.99888197146356" lon="129.38692593947053">
        <ele>9.8</ele>
        <time>2026-06-05T15:29:29</time>
      </trkpt>
      <trkpt lat="35.99884198978543" lon="129.3869789969176">
        <ele>9.8</ele>
        <time>2026-06-05T15:29:30</time>
      </trkpt>
      <trkpt lat="35.99880192428827" lon="129.38703297637403">
        <ele>9.8</ele>
        <time>2026-06-05T15:29:31</time>
      </trkpt>
      <trkpt lat="35.99875993095338" lon="129.38708595000207">
        <ele>9.8</ele>
        <time>2026-06-05T15:29:32</time>
      </trkpt>
      <trkpt lat="35.998717937618494" lon="129.3871399294585">
        <ele>9.8</ele>
        <time>2026-06-05T15:29:33</time>
      </trkpt>
      <trkpt lat="35.998674938455224" lon="129.38719399273396">
        <ele>9.8</ele>
        <time>2026-06-05T15:29:34</time>
      </trkpt>
      <trkpt lat="35.998631939291954" lon="129.38724797219038">
        <ele>9.8</ele>
        <time>2026-06-05T15:29:35</time>
      </trkpt>
      <trkpt lat="35.998588940128684" lon="129.3873019516468">
        <ele>9.8</ele>
        <time>2026-06-05T15:29:36</time>
      </trkpt>
      <trkpt lat="35.99854392930865" lon="129.38735794276">
        <ele>9.8</ele>
        <time>2026-06-05T15:29:37</time>
      </trkpt>
      <trkpt lat="35.99849891848862" lon="129.38741493970156">
        <ele>9.8</ele>
        <time>2026-06-05T15:29:38</time>
      </trkpt>
      <trkpt lat="35.99845399148762" lon="129.38747193664312">
        <ele>9.8</ele>
        <time>2026-06-05T15:29:39</time>
      </trkpt>
      <trkpt lat="35.99840898066759" lon="129.38752993941307">
        <ele>9.6</ele>
        <time>2026-06-05T15:29:40</time>
      </trkpt>
      <trkpt lat="35.99836396984756" lon="129.38758693635464">
        <ele>9.6</ele>
        <time>2026-06-05T15:29:41</time>
      </trkpt>
      <trkpt lat="35.99832097068429" lon="129.38764292746782">
        <ele>9.6</ele>
        <time>2026-06-05T15:29:42</time>
      </trkpt>
      <trkpt lat="35.9982789773494" lon="129.38769799657166">
        <ele>9.6</ele>
        <time>2026-06-05T15:29:43</time>
      </trkpt>
      <trkpt lat="35.99823798984289" lon="129.38775197602808">
        <ele>9.6</ele>
        <time>2026-06-05T15:29:44</time>
      </trkpt>
      <trkpt lat="35.99819792434573" lon="129.38780394382775">
        <ele>9.6</ele>
        <time>2026-06-05T15:29:45</time>
      </trkpt>
      <trkpt lat="35.998158948495984" lon="129.38785398378968">
        <ele>9.6</ele>
        <time>2026-06-05T15:29:46</time>
      </trkpt>
      <trkpt lat="35.99812097847462" lon="129.3879029341042">
        <ele>9.6</ele>
        <time>2026-06-05T15:29:47</time>
      </trkpt>
      <trkpt lat="35.99808292463422" lon="129.38795397989452">
        <ele>9.6</ele>
        <time>2026-06-05T15:29:48</time>
      </trkpt>
      <trkpt lat="35.99804495461285" lon="129.38800393603742">
        <ele>9.8</ele>
        <time>2026-06-05T15:29:49</time>
      </trkpt>
      <trkpt lat="35.998007990419865" lon="129.38805397599936">
        <ele>9.8</ele>
        <time>2026-06-05T15:29:50</time>
      </trkpt>
      <trkpt lat="35.99797194823623" lon="129.38810393214226">
        <ele>9.8</ele>
        <time>2026-06-05T15:29:51</time>
      </trkpt>
      <trkpt lat="35.99793498404324" lon="129.3881529662758">
        <ele>9.8</ele>
        <time>2026-06-05T15:29:52</time>
      </trkpt>
      <trkpt lat="35.99789693020284" lon="129.3881999887526">
        <ele>9.8</ele>
        <time>2026-06-05T15:29:53</time>
      </trkpt>
      <trkpt lat="35.997858960181475" lon="129.38824692741036">
        <ele>9.8</ele>
        <time>2026-06-05T15:29:54</time>
      </trkpt>
      <trkpt lat="35.99782291799784" lon="129.38829294405878">
        <ele>9.8</ele>
        <time>2026-06-05T15:29:55</time>
      </trkpt>
      <trkpt lat="35.99778695963323" lon="129.38833493739367">
        <ele>9.8</ele>
        <time>2026-06-05T15:29:56</time>
      </trkpt>
      <trkpt lat="35.997752929106355" lon="129.3883749190718">
        <ele>9.6</ele>
        <time>2026-06-05T15:29:57</time>
      </trkpt>
      <trkpt lat="35.997722921893" lon="129.38841699622571">
        <ele>9.6</ele>
        <time>2026-06-05T15:29:58</time>
      </trkpt>
      <trkpt lat="35.99769593216479" lon="129.38846091739833">
        <ele>9.6</ele>
        <time>2026-06-05T15:29:59</time>
      </trkpt>
      <trkpt lat="35.997666930779815" lon="129.3885039165616">
        <ele>9.4</ele>
        <time>2026-06-05T15:30:00</time>
      </trkpt>
      <trkpt lat="35.99763499572873" lon="129.38854599371552">
        <ele>9.4</ele>
        <time>2026-06-05T15:30:01</time>
      </trkpt>
      <trkpt lat="35.997602976858616" lon="129.38859092071652">
        <ele>9.4</ele>
        <time>2026-06-05T15:30:02</time>
      </trkpt>
      <trkpt lat="35.99757296964526" lon="129.3886389490217">
        <ele>9.6</ele>
        <time>2026-06-05T15:30:03</time>
      </trkpt>
      <trkpt lat="35.99754296243191" lon="129.3886859714985">
        <ele>9.6</ele>
        <time>2026-06-05T15:30:04</time>
      </trkpt>
      <trkpt lat="35.997513961046934" lon="129.38873299397528">
        <ele>9.6</ele>
        <time>2026-06-05T15:30:05</time>
      </trkpt>
      <trkpt lat="35.99748093634844" lon="129.3887739814818">
        <ele>9.8</ele>
        <time>2026-06-05T15:30:06</time>
      </trkpt>
      <trkpt lat="35.99744698964059" lon="129.38881195150316">
        <ele>9.8</ele>
        <time>2026-06-05T15:30:07</time>
      </trkpt>
      <trkpt lat="35.99741698242724" lon="129.38885293900967">
        <ele>9.8</ele>
        <time>2026-06-05T15:30:08</time>
      </trkpt>
      <trkpt lat="35.997386975213885" lon="129.38889694400132">
        <ele>9.8</ele>
        <time>2026-06-05T15:30:09</time>
      </trkpt>
      <trkpt lat="35.99735495634377" lon="129.3889389373362">
        <ele>9.8</ele>
        <time>2026-06-05T15:30:10</time>
      </trkpt>
      <trkpt lat="35.997322937473655" lon="129.38898294232786">
        <ele>9.8</ele>
        <time>2026-06-05T15:30:11</time>
      </trkpt>
      <trkpt lat="35.99728899076581" lon="129.38902895897627">
        <ele>10.0</ele>
        <time>2026-06-05T15:30:12</time>
      </trkpt>
      <trkpt lat="35.99725294858217" lon="129.38907799310982">
        <ele>10.0</ele>
        <time>2026-06-05T15:30:13</time>
      </trkpt>
      <trkpt lat="35.99721699021757" lon="129.38912694342434">
        <ele>10.0</ele>
        <time>2026-06-05T15:30:14</time>
      </trkpt>
      <trkpt lat="35.99717994220555" lon="129.3891759775579">
        <ele>10.0</ele>
        <time>2026-06-05T15:30:15</time>
      </trkpt>
      <trkpt lat="35.99714297801256" lon="129.38922693952918">
        <ele>10.0</ele>
        <time>2026-06-05T15:30:16</time>
      </trkpt>
      <trkpt lat="35.997105930000544" lon="129.38927999697626">
        <ele>10.2</ele>
        <time>2026-06-05T15:30:17</time>
      </trkpt>
      <trkpt lat="35.99706997163594" lon="129.3893329706043">
        <ele>10.2</ele>
        <time>2026-06-05T15:30:18</time>
      </trkpt>
      <trkpt lat="35.99703594110906" lon="129.3893879558891">
        <ele>10.2</ele>
        <time>2026-06-05T15:30:19</time>
      </trkpt>
      <trkpt lat="35.99700199440122" lon="129.3894429411739">
        <ele>10.2</ele>
        <time>2026-06-05T15:30:20</time>
      </trkpt>
      <trkpt lat="35.99696695804596" lon="129.3894989322871">
        <ele>10.2</ele>
        <time>2026-06-05T15:30:21</time>
      </trkpt>
      <trkpt lat="35.99693292751908" lon="129.38955693505704">
        <ele>10.4</ele>
        <time>2026-06-05T15:30:22</time>
      </trkpt>
      <trkpt lat="35.99689998663962" lon="129.389614937827">
        <ele>10.4</ele>
        <time>2026-06-05T15:30:23</time>
      </trkpt>
      <trkpt lat="35.99686495028436" lon="129.38967092894018">
        <ele>10.4</ele>
        <time>2026-06-05T15:30:24</time>
      </trkpt>
      <trkpt lat="35.996831925585866" lon="129.38972792588174">
        <ele>10.4</ele>
        <time>2026-06-05T15:30:25</time>
      </trkpt>
      <trkpt lat="35.9967989847064" lon="129.38978391699493">
        <ele>10.4</ele>
        <time>2026-06-05T15:30:26</time>
      </trkpt>
      <trkpt lat="35.996765960007906" lon="129.38983999192715">
        <ele>10.4</ele>
        <time>2026-06-05T15:30:27</time>
      </trkpt>
      <trkpt lat="35.99673394113779" lon="129.38989497721195">
        <ele>10.6</ele>
        <time>2026-06-05T15:30:28</time>
      </trkpt>
      <trkpt lat="35.996701922267675" lon="129.3899529799819">
        <ele>10.6</ele>
        <time>2026-06-05T15:30:29</time>
      </trkpt>
      <trkpt lat="35.99666898138821" lon="129.39000997692347">
        <ele>10.6</ele>
        <time>2026-06-05T15:30:30</time>
      </trkpt>
      <trkpt lat="35.996636962518096" lon="129.39006596803665">
        <ele>10.6</ele>
        <time>2026-06-05T15:30:31</time>
      </trkpt>
      <trkpt lat="35.99660293199122" lon="129.39012095332146">
        <ele>10.6</ele>
        <time>2026-06-05T15:30:32</time>
      </trkpt>
      <trkpt lat="35.996568985283375" lon="129.39017593860626">
        <ele>10.6</ele>
        <time>2026-06-05T15:30:33</time>
      </trkpt>
      <trkpt lat="35.99653696641326" lon="129.3902299180627">
        <ele>10.6</ele>
        <time>2026-06-05T15:30:34</time>
      </trkpt>
      <trkpt lat="35.996504947543144" lon="129.39028398133814">
        <ele>10.6</ele>
        <time>2026-06-05T15:30:35</time>
      </trkpt>
      <trkpt lat="35.99647292867303" lon="129.3903369549662">
        <ele>10.6</ele>
        <time>2026-06-05T15:30:36</time>
      </trkpt>
      <trkpt lat="35.996440993621945" lon="129.39038992859423">
        <ele>10.8</ele>
        <time>2026-06-05T15:30:37</time>
      </trkpt>
      <trkpt lat="35.99640796892345" lon="129.3904439918697">
        <ele>10.8</ele>
        <time>2026-06-05T15:30:38</time>
      </trkpt>
      <trkpt lat="35.99637393839657" lon="129.3904989771545">
        <ele>10.8</ele>
        <time>2026-06-05T15:30:39</time>
      </trkpt>
      <trkpt lat="35.99634191952646" lon="129.39055496826768">
        <ele>10.8</ele>
        <time>2026-06-05T15:30:40</time>
      </trkpt>
      <trkpt lat="35.996308978646994" lon="129.39061297103763">
        <ele>11.0</ele>
        <time>2026-06-05T15:30:41</time>
      </trkpt>
      <trkpt lat="35.9962759539485" lon="129.3906699679792">
        <ele>11.0</ele>
        <time>2026-06-05T15:30:42</time>
      </trkpt>
      <trkpt lat="35.99624091759324" lon="129.39072696492076">
        <ele>11.0</ele>
        <time>2026-06-05T15:30:43</time>
      </trkpt>
      <trkpt lat="35.996206970885396" lon="129.39078697934747">
        <ele>11.0</ele>
        <time>2026-06-05T15:30:44</time>
      </trkpt>
      <trkpt lat="35.99617193453014" lon="129.3908489216119">
        <ele>11.2</ele>
        <time>2026-06-05T15:30:45</time>
      </trkpt>
      <trkpt lat="35.99613497033715" lon="129.39091295935214">
        <ele>11.2</ele>
        <time>2026-06-05T15:30:46</time>
      </trkpt>
      <trkpt lat="35.996095994487405" lon="129.39097993075848">
        <ele>11.2</ele>
        <time>2026-06-05T15:30:47</time>
      </trkpt>
      <trkpt lat="35.996055928990245" lon="129.39105193130672">
        <ele>11.2</ele>
        <time>2026-06-05T15:30:48</time>
      </trkpt>
      <trkpt lat="35.996014941483736" lon="129.39112594351172">
        <ele>11.2</ele>
        <time>2026-06-05T15:30:49</time>
      </trkpt>
      <trkpt lat="35.995971942320466" lon="129.3912019673735">
        <ele>11.2</ele>
        <time>2026-06-05T15:30:50</time>
      </trkpt>
      <trkpt lat="35.99592994898558" lon="129.39127497375011">
        <ele>11.2</ele>
        <time>2026-06-05T15:30:51</time>
      </trkpt>
      <trkpt lat="35.99588896147907" lon="129.39134596846998">
        <ele>11.2</ele>
        <time>2026-06-05T15:30:52</time>
      </trkpt>
      <trkpt lat="35.99584797397256" lon="129.39141293987632">
        <ele>11.2</ele>
        <time>2026-06-05T15:30:53</time>
      </trkpt>
      <trkpt lat="35.99580799229443" lon="129.39147597178817">
        <ele>11.2</ele>
        <time>2026-06-05T15:30:54</time>
      </trkpt>
      <trkpt lat="35.99576599895954" lon="129.39153699204326">
        <ele>11.2</ele>
        <time>2026-06-05T15:30:55</time>
      </trkpt>
      <trkpt lat="35.995724927634" lon="129.39159692265093">
        <ele>11.2</ele>
        <time>2026-06-05T15:30:56</time>
      </trkpt>
      <trkpt lat="35.99568394012749" lon="129.39165693707764">
        <ele>11.2</ele>
        <time>2026-06-05T15:30:57</time>
      </trkpt>
      <trkpt lat="35.99564295262098" lon="129.3917139340192">
        <ele>11.2</ele>
        <time>2026-06-05T15:30:58</time>
      </trkpt>
      <trkpt lat="35.995601965114474" lon="129.391768919304">
        <ele>11.2</ele>
        <time>2026-06-05T15:30:59</time>
      </trkpt>
      <trkpt lat="35.995564917102456" lon="129.3918209709227">
        <ele>11.2</ele>
        <time>2026-06-05T15:31:00</time>
      </trkpt>
      <trkpt lat="35.99553298205137" lon="129.39186397008598">
        <ele>11.2</ele>
        <time>2026-06-05T15:31:01</time>
      </trkpt>
      <trkpt lat="35.99550297483802" lon="129.39190294593573">
        <ele>11.0</ele>
        <time>2026-06-05T15:31:02</time>
      </trkpt>
      <trkpt lat="35.995475985109806" lon="129.39193999394774">
        <ele>11.0</ele>
        <time>2026-06-05T15:31:03</time>
      </trkpt>
      <trkpt lat="35.99544798955321" lon="129.39197092317045">
        <ele>11.0</ele>
        <time>2026-06-05T15:31:04</time>
      </trkpt>
      <trkpt lat="35.9954159706831" lon="129.3919919617474">
        <ele>10.8</ele>
        <time>2026-06-05T15:31:05</time>
      </trkpt>
      <trkpt lat="35.99538194015622" lon="129.392011994496">
        <ele>10.8</ele>
        <time>2026-06-05T15:31:06</time>
      </trkpt>
      <trkpt lat="35.99535092711449" lon="129.39203797839582">
        <ele>10.8</ele>
        <time>2026-06-05T15:31:07</time>
      </trkpt>
      <trkpt lat="35.99532192572951" lon="129.39206899143755">
        <ele>10.6</ele>
        <time>2026-06-05T15:31:08</time>
      </trkpt>
      <trkpt lat="35.9952949360013" lon="129.39210595563054">
        <ele>10.6</ele>
        <time>2026-06-05T15:31:09</time>
      </trkpt>
      <trkpt lat="35.99526694044471" lon="129.3921449314803">
        <ele>10.6</ele>
        <time>2026-06-05T15:31:10</time>
      </trkpt>
      <trkpt lat="35.995239950716496" lon="129.39218793064356">
        <ele>10.6</ele>
        <time>2026-06-05T15:31:11</time>
      </trkpt>
      <trkpt lat="35.99521094933152" lon="129.39223394729197">
        <ele>10.6</ele>
        <time>2026-06-05T15:31:12</time>
      </trkpt>
      <trkpt lat="35.995177924633026" lon="129.39228197559714">
        <ele>10.6</ele>
        <time>2026-06-05T15:31:13</time>
      </trkpt>
      <trkpt lat="35.99513995461166" lon="129.39233193174005">
        <ele>10.6</ele>
        <time>2026-06-05T15:31:14</time>
      </trkpt>
      <trkpt lat="35.99509796127677" lon="129.39238297753036">
        <ele>10.6</ele>
        <time>2026-06-05T15:31:15</time>
      </trkpt>
      <trkpt lat="35.99505194462836" lon="129.3924359511584">
        <ele>10.6</ele>
        <time>2026-06-05T15:31:16</time>
      </trkpt>
      <trkpt lat="35.995002994313836" lon="129.3924909364432">
        <ele>10.6</ele>
        <time>2026-06-05T15:31:17</time>
      </trkpt>
      <trkpt lat="35.9949529543519" lon="129.3925469275564">
        <ele>10.6</ele>
        <time>2026-06-05T15:31:18</time>
      </trkpt>
      <trkpt lat="35.99490199238062" lon="129.39260291866958">
        <ele>10.6</ele>
        <time>2026-06-05T15:31:19</time>
      </trkpt>
      <trkpt lat="35.994850946590304" lon="129.39265798777342">
        <ele>10.6</ele>
        <time>2026-06-05T15:31:20</time>
      </trkpt>
      <trkpt lat="35.9948009904474" lon="129.39270995557308">
        <ele>10.6</ele>
        <time>2026-06-05T15:31:21</time>
      </trkpt>
      <trkpt lat="35.99475195631385" lon="129.39275999553502">
        <ele>10.8</ele>
        <time>2026-06-05T15:31:22</time>
      </trkpt>
      <trkpt lat="35.994703928008676" lon="129.39280894584954">
        <ele>10.8</ele>
        <time>2026-06-05T15:31:23</time>
      </trkpt>
      <trkpt lat="35.994655983522534" lon="129.39285496249795">
        <ele>10.8</ele>
        <time>2026-06-05T15:31:24</time>
      </trkpt>
      <trkpt lat="35.99460896104574" lon="129.39289796166122">
        <ele>10.8</ele>
        <time>2026-06-05T15:31:25</time>
      </trkpt>
      <trkpt lat="35.99456395022571" lon="129.3929409608245">
        <ele>10.8</ele>
        <time>2026-06-05T15:31:26</time>
      </trkpt>
      <trkpt lat="35.99451893940568" lon="129.392981948331">
        <ele>10.8</ele>
        <time>2026-06-05T15:31:27</time>
      </trkpt>
      <trkpt lat="35.99447392858565" lon="129.3930229358375">
        <ele>10.8</ele>
        <time>2026-06-05T15:31:28</time>
      </trkpt>
      <trkpt lat="35.99442891776562" lon="129.39306291751564">
        <ele>10.8</ele>
        <time>2026-06-05T15:31:29</time>
      </trkpt>
      <trkpt lat="35.99438692443073" lon="129.39310197718441">
        <ele>10.8</ele>
        <time>2026-06-05T15:31:30</time>
      </trkpt>
      <trkpt lat="35.99434593692422" lon="129.39314195886254">
        <ele>10.8</ele>
        <time>2026-06-05T15:31:31</time>
      </trkpt>
      <trkpt lat="35.99430394358933" lon="129.39318194054067">
        <ele>10.8</ele>
        <time>2026-06-05T15:31:32</time>
      </trkpt>
      <trkpt lat="35.99426195025444" lon="129.39321999438107">
        <ele>11.0</ele>
        <time>2026-06-05T15:31:33</time>
      </trkpt>
      <trkpt lat="35.99421995691955" lon="129.39325796440244">
        <ele>11.0</ele>
        <time>2026-06-05T15:31:34</time>
      </trkpt>
      <trkpt lat="35.99417796358466" lon="129.3932959344238">
        <ele>11.0</ele>
        <time>2026-06-05T15:31:35</time>
      </trkpt>
      <trkpt lat="35.99413697607815" lon="129.39333298243582">
        <ele>11.0</ele>
        <time>2026-06-05T15:31:36</time>
      </trkpt>
      <trkpt lat="35.99409791640937" lon="129.39336692914367">
        <ele>11.0</ele>
        <time>2026-06-05T15:31:37</time>
      </trkpt>
      <trkpt lat="35.99406296387315" lon="129.39339894801378">
        <ele>11.2</ele>
        <time>2026-06-05T15:31:38</time>
      </trkpt>
      <trkpt lat="35.99403195083141" lon="129.39342895522714">
        <ele>11.2</ele>
        <time>2026-06-05T15:31:39</time>
      </trkpt>
      <trkpt lat="35.99400395527482" lon="129.39345996826887">
        <ele>11.2</ele>
        <time>2026-06-05T15:31:40</time>
      </trkpt>
      <trkpt lat="35.993972942233086" lon="129.3934909813106">
        <ele>11.2</ele>
        <time>2026-06-05T15:31:41</time>
      </trkpt>
      <trkpt lat="35.99393899552524" lon="129.3935229163617">
        <ele>11.2</ele>
        <time>2026-06-05T15:31:42</time>
      </trkpt>
      <trkpt lat="35.99390194751322" lon="129.39355694688857">
        <ele>11.2</ele>
        <time>2026-06-05T15:31:43</time>
      </trkpt>
      <trkpt lat="35.993862971663475" lon="129.39359399490058">
        <ele>11.2</ele>
        <time>2026-06-05T15:31:44</time>
      </trkpt>
      <trkpt lat="35.993820978328586" lon="129.39363196492195">
        <ele>11.2</ele>
        <time>2026-06-05T15:31:45</time>
      </trkpt>
      <trkpt lat="35.993778984993696" lon="129.39367194660008">
        <ele>11.2</ele>
        <time>2026-06-05T15:31:46</time>
      </trkpt>
      <trkpt lat="35.99373699165881" lon="129.3937129341066">
        <ele>11.2</ele>
        <time>2026-06-05T15:31:47</time>
      </trkpt>
      <trkpt lat="35.99369399249554" lon="129.39375593326986">
        <ele>11.2</ele>
        <time>2026-06-05T15:31:48</time>
      </trkpt>
      <trkpt lat="35.99365099333227" lon="129.39380194991827">
        <ele>11.2</ele>
        <time>2026-06-05T15:31:49</time>
      </trkpt>
      <trkpt lat="35.993607994169" lon="129.39385098405182">
        <ele>11.0</ele>
        <time>2026-06-05T15:31:50</time>
      </trkpt>
      <trkpt lat="35.99356499500573" lon="129.3939019460231">
        <ele>11.0</ele>
        <time>2026-06-05T15:31:51</time>
      </trkpt>
      <trkpt lat="35.993522917851806" lon="129.3939539976418">
        <ele>11.0</ele>
        <time>2026-06-05T15:31:52</time>
      </trkpt>
      <trkpt lat="35.9934819303453" lon="129.39400495961308">
        <ele>11.0</ele>
        <time>2026-06-05T15:31:53</time>
      </trkpt>
      <trkpt lat="35.99344295449555" lon="129.39405499957502">
        <ele>11.0</ele>
        <time>2026-06-05T15:31:54</time>
      </trkpt>
      <trkpt lat="35.99340699613094" lon="129.39410696737468">
        <ele>10.8</ele>
        <time>2026-06-05T15:31:55</time>
      </trkpt>
      <trkpt lat="35.993370953947306" lon="129.39415893517435">
        <ele>10.8</ele>
        <time>2026-06-05T15:31:56</time>
      </trkpt>
      <trkpt lat="35.9933349955827" lon="129.39421098679304">
        <ele>10.8</ele>
        <time>2026-06-05T15:31:57</time>
      </trkpt>
      <trkpt lat="35.99329895339906" lon="129.39426496624947">
        <ele>10.6</ele>
        <time>2026-06-05T15:31:58</time>
      </trkpt>
      <trkpt lat="35.993263917043805" lon="129.39431995153427">
        <ele>10.6</ele>
        <time>2026-06-05T15:31:59</time>
      </trkpt>
      <trkpt lat="35.99322997033596" lon="129.39437493681908">
        <ele>10.6</ele>
        <time>2026-06-05T15:32:00</time>
      </trkpt>
      <trkpt lat="35.993197951465845" lon="129.3944289162755">
        <ele>10.6</ele>
        <time>2026-06-05T15:32:01</time>
      </trkpt>
      <trkpt lat="35.99316693842411" lon="129.39448297955096">
        <ele>10.6</ele>
        <time>2026-06-05T15:32:02</time>
      </trkpt>
      <trkpt lat="35.99313793703914" lon="129.39453695900738">
        <ele>10.6</ele>
        <time>2026-06-05T15:32:03</time>
      </trkpt>
      <trkpt lat="35.993110947310925" lon="129.39458993263543">
        <ele>10.6</ele>
        <time>2026-06-05T15:32:04</time>
      </trkpt>
      <trkpt lat="35.99308496341109" lon="129.39464399591088">
        <ele>10.4</ele>
        <time>2026-06-05T15:32:05</time>
      </trkpt>
      <trkpt lat="35.99305897951126" lon="129.3946979753673">
        <ele>10.4</ele>
        <time>2026-06-05T15:32:06</time>
      </trkpt>
      <trkpt lat="35.99303492344916" lon="129.39475195482373">
        <ele>10.4</ele>
        <time>2026-06-05T15:32:07</time>
      </trkpt>
      <trkpt lat="35.99300994537771" lon="129.3948039226234">
        <ele>10.4</ele>
        <time>2026-06-05T15:32:08</time>
      </trkpt>
      <trkpt lat="35.9929879847914" lon="129.3948549684137">
        <ele>10.4</ele>
        <time>2026-06-05T15:32:09</time>
      </trkpt>
      <trkpt lat="35.99296795204282" lon="129.39490391872823">
        <ele>10.2</ele>
        <time>2026-06-05T15:32:10</time>
      </trkpt>
      <trkpt lat="35.99295194260776" lon="129.3949529528618">
        <ele>10.2</ele>
        <time>2026-06-05T15:32:11</time>
      </trkpt>
      <trkpt lat="35.99293693900108" lon="129.39500198699534">
        <ele>10.2</ele>
        <time>2026-06-05T15:32:12</time>
      </trkpt>
      <trkpt lat="35.992919923737645" lon="129.39504791982472">
        <ele>10.0</ele>
        <time>2026-06-05T15:32:13</time>
      </trkpt>
      <trkpt lat="35.99290492013097" lon="129.39509393647313">
        <ele>10.0</ele>
        <time>2026-06-05T15:32:14</time>
      </trkpt>
      <trkpt lat="35.99289293400943" lon="129.3951419647783">
        <ele>10.0</ele>
        <time>2026-06-05T15:32:15</time>
      </trkpt>
      <trkpt lat="35.992878936231136" lon="129.3951889872551">
        <ele>10.0</ele>
        <time>2026-06-05T15:32:16</time>
      </trkpt>
      <trkpt lat="35.99286594428122" lon="129.39523693174124">
        <ele>9.8</ele>
        <time>2026-06-05T15:32:17</time>
      </trkpt>
      <trkpt lat="35.992852952331305" lon="129.39528898335993">
        <ele>9.8</ele>
        <time>2026-06-05T15:32:18</time>
      </trkpt>
      <trkpt lat="35.99283895455301" lon="129.3953409511596">
        <ele>9.8</ele>
        <time>2026-06-05T15:32:19</time>
      </trkpt>
      <trkpt lat="35.99282395094633" lon="129.39539493061602">
        <ele>9.8</ele>
        <time>2026-06-05T15:32:20</time>
      </trkpt>
      <trkpt lat="35.99280794151127" lon="129.39544698223472">
        <ele>9.6</ele>
        <time>2026-06-05T15:32:21</time>
      </trkpt>
      <trkpt lat="35.99279494956136" lon="129.395497944206">
        <ele>9.6</ele>
        <time>2026-06-05T15:32:22</time>
      </trkpt>
      <trkpt lat="35.99278195761144" lon="129.3955489899963">
        <ele>9.8</ele>
        <time>2026-06-05T15:32:23</time>
      </trkpt>
      <trkpt lat="35.992769971489906" lon="129.3955999519676">
        <ele>9.8</ele>
        <time>2026-06-05T15:32:24</time>
      </trkpt>
      <trkpt lat="35.99275899119675" lon="129.39565594308078">
        <ele>9.8</ele>
        <time>2026-06-05T15:32:25</time>
      </trkpt>
      <trkpt lat="35.992748932912946" lon="129.39571394585073">
        <ele>9.8</ele>
        <time>2026-06-05T15:32:26</time>
      </trkpt>
      <trkpt lat="35.99273795261979" lon="129.39577697776258">
        <ele>9.8</ele>
        <time>2026-06-05T15:32:27</time>
      </trkpt>
      <trkpt lat="35.99272797815502" lon="129.39584093168378">
        <ele>9.8</ele>
        <time>2026-06-05T15:32:28</time>
      </trkpt>
      <trkpt lat="35.99271892569959" lon="129.3959059752524">
        <ele>9.8</ele>
        <time>2026-06-05T15:32:29</time>
      </trkpt>
      <trkpt lat="35.99271196871996" lon="129.39597093500197">
        <ele>9.8</ele>
        <time>2026-06-05T15:32:30</time>
      </trkpt>
      <trkpt lat="35.992703922092915" lon="129.39603195525706">
        <ele>9.8</ele>
        <time>2026-06-05T15:32:31</time>
      </trkpt>
      <trkpt lat="35.99269897677004" lon="129.39609096385539">
        <ele>9.8</ele>
        <time>2026-06-05T15:32:32</time>
      </trkpt>
      <trkpt lat="35.99269495345652" lon="129.3961499724537">
        <ele>9.8</ele>
        <time>2026-06-05T15:32:33</time>
      </trkpt>
      <trkpt lat="35.99269294179976" lon="129.39620898105204">
        <ele>9.6</ele>
        <time>2026-06-05T15:32:34</time>
      </trkpt>
      <trkpt lat="35.99268992431462" lon="129.396266983822">
        <ele>9.8</ele>
        <time>2026-06-05T15:32:35</time>
      </trkpt>
      <trkpt lat="35.99268699064851" lon="129.3963269982487">
        <ele>9.8</ele>
        <time>2026-06-05T15:32:36</time>
      </trkpt>
      <trkpt lat="35.992683973163366" lon="129.39638692885637">
        <ele>9.8</ele>
        <time>2026-06-05T15:32:37</time>
      </trkpt>
      <trkpt lat="35.992681961506605" lon="129.3964459374547">
        <ele>9.8</ele>
        <time>2026-06-05T15:32:38</time>
      </trkpt>
      <trkpt lat="35.992679949849844" lon="129.39650394022465">
        <ele>9.8</ele>
        <time>2026-06-05T15:32:39</time>
      </trkpt>
      <trkpt lat="35.9926769323647" lon="129.3965609371662">
        <ele>9.8</ele>
        <time>2026-06-05T15:32:40</time>
      </trkpt>
      <trkpt lat="35.99267198704183" lon="129.39661592245102">
        <ele>9.8</ele>
        <time>2026-06-05T15:32:41</time>
      </trkpt>
      <trkpt lat="35.992663940414786" lon="129.3966689798981">
        <ele>9.6</ele>
        <time>2026-06-05T15:32:42</time>
      </trkpt>
      <trkpt lat="35.99265296012163" lon="129.39671994186938">
        <ele>9.6</ele>
        <time>2026-06-05T15:32:43</time>
      </trkpt>
      <trkpt lat="35.992639968171716" lon="129.39676797017455">
        <ele>9.6</ele>
        <time>2026-06-05T15:32:44</time>
      </trkpt>
      <trkpt lat="35.99262597039342" lon="129.39681599847972">
        <ele>9.6</ele>
        <time>2026-06-05T15:32:45</time>
      </trkpt>
      <trkpt lat="35.992617923766375" lon="129.39686394296587">
        <ele>9.6</ele>
        <time>2026-06-05T15:32:46</time>
      </trkpt>
      <trkpt lat="35.992615995928645" lon="129.39691096544266">
        <ele>9.8</ele>
        <time>2026-06-05T15:32:47</time>
      </trkpt>
      <trkpt lat="35.992617923766375" lon="129.39695798791945">
        <ele>9.8</ele>
        <time>2026-06-05T15:32:48</time>
      </trkpt>
      <trkpt lat="35.9926219470799" lon="129.39700392074883">
        <ele>9.8</ele>
        <time>2026-06-05T15:32:49</time>
      </trkpt>
      <trkpt lat="35.99262295290828" lon="129.39704599790275">
        <ele>9.8</ele>
        <time>2026-06-05T15:32:50</time>
      </trkpt>
      <trkpt lat="35.992620941251516" lon="129.39708597958088">
        <ele>9.8</ele>
        <time>2026-06-05T15:32:51</time>
      </trkpt>
      <trkpt lat="35.992616917937994" lon="129.39712294377387">
        <ele>10.0</ele>
        <time>2026-06-05T15:32:52</time>
      </trkpt>
      <trkpt lat="35.99261197261512" lon="129.39715596847236">
        <ele>10.0</ele>
        <time>2026-06-05T15:32:53</time>
      </trkpt>
      <trkpt lat="35.9926029201597" lon="129.39718496985734">
        <ele>10.0</ele>
        <time>2026-06-05T15:32:54</time>
      </trkpt>
      <trkpt lat="35.99259294569492" lon="129.39721296541393">
        <ele>10.0</ele>
        <time>2026-06-05T15:32:55</time>
      </trkpt>
      <trkpt lat="35.99258699454367" lon="129.39723894931376">
        <ele>10.0</ele>
        <time>2026-06-05T15:32:56</time>
      </trkpt>
      <trkpt lat="35.99258498288691" lon="129.39725898206234">
        <ele>10.0</ele>
        <time>2026-06-05T15:32:57</time>
      </trkpt>
      <trkpt lat="35.99258498288691" lon="129.3972699623555">
        <ele>10.0</ele>
        <time>2026-06-05T15:32:58</time>
      </trkpt>
      <trkpt lat="35.99258498288691" lon="129.39727297984064">
        <ele>10.0</ele>
        <time>2026-06-05T15:32:59</time>
      </trkpt>
      <trkpt lat="35.99258598871529" lon="129.39727197401226">
        <ele>10.0</ele>
        <time>2026-06-05T15:33:00</time>
      </trkpt>
      <trkpt lat="35.99258598871529" lon="129.3972689565271">
        <ele>10.0</ele>
        <time>2026-06-05T15:33:01</time>
      </trkpt>
      <trkpt lat="35.99259193986654" lon="129.39734498038888">
        <ele>9.8</ele>
        <time>2026-06-05T15:33:19</time>
      </trkpt>
      <trkpt lat="35.992593951523304" lon="129.39738093875349">
        <ele>9.8</ele>
        <time>2026-06-05T15:33:20</time>
      </trkpt>
      <trkpt lat="35.992594957351685" lon="129.3974209204316">
        <ele>9.8</ele>
        <time>2026-06-05T15:33:21</time>
      </trkpt>
      <trkpt lat="35.992593951523304" lon="129.39746391959488">
        <ele>9.6</ele>
        <time>2026-06-05T15:33:22</time>
      </trkpt>
      <trkpt lat="35.99258498288691" lon="129.39751094207168">
        <ele>9.6</ele>
        <time>2026-06-05T15:33:23</time>
      </trkpt>
      <trkpt lat="35.992572996765375" lon="129.397561987862">
        <ele>9.6</ele>
        <time>2026-06-05T15:33:24</time>
      </trkpt>
      <trkpt lat="35.99256696179509" lon="129.3976169731468">
        <ele>9.6</ele>
        <time>2026-06-05T15:33:25</time>
      </trkpt>
      <trkpt lat="35.99256796762347" lon="129.39767497591674">
        <ele>9.6</ele>
        <time>2026-06-05T15:33:26</time>
      </trkpt>
      <trkpt lat="35.99256897345185" lon="129.39773691818118">
        <ele>9.6</ele>
        <time>2026-06-05T15:33:27</time>
      </trkpt>
      <trkpt lat="35.99256997928023" lon="129.3978009559214">
        <ele>9.6</ele>
        <time>2026-06-05T15:33:28</time>
      </trkpt>
      <trkpt lat="35.99256997928023" lon="129.39786692149937">
        <ele>9.6</ele>
        <time>2026-06-05T15:33:29</time>
      </trkpt>
      <trkpt lat="35.99256997928023" lon="129.39793498255312">
        <ele>9.6</ele>
        <time>2026-06-05T15:33:30</time>
      </trkpt>
      <trkpt lat="35.99256997928023" lon="129.3980049714446">
        <ele>9.6</ele>
        <time>2026-06-05T15:33:31</time>
      </trkpt>
      <trkpt lat="35.99256897345185" lon="129.3980749603361">
        <ele>9.6</ele>
        <time>2026-06-05T15:33:32</time>
      </trkpt>
      <trkpt lat="35.99256696179509" lon="129.39814696088433">
        <ele>9.6</ele>
        <time>2026-06-05T15:33:33</time>
      </trkpt>
      <trkpt lat="35.99256495013833" lon="129.39821694977582">
        <ele>9.6</ele>
        <time>2026-06-05T15:33:34</time>
      </trkpt>
      <trkpt lat="35.99256092682481" lon="129.39828593283892">
        <ele>9.8</ele>
        <time>2026-06-05T15:33:35</time>
      </trkpt>
      <trkpt lat="35.9925579931587" lon="129.39835097640753">
        <ele>9.8</ele>
        <time>2026-06-05T15:33:36</time>
      </trkpt>
      <trkpt lat="35.99255698733032" lon="129.39841291867197">
        <ele>9.8</ele>
        <time>2026-06-05T15:33:37</time>
      </trkpt>
      <trkpt lat="35.99255698733032" lon="129.39847293309867">
        <ele>9.8</ele>
        <time>2026-06-05T15:33:38</time>
      </trkpt>
      <trkpt lat="35.99255698733032" lon="129.398531941697">
        <ele>9.8</ele>
        <time>2026-06-05T15:33:39</time>
      </trkpt>
      <trkpt lat="35.9925579931587" lon="129.39858994446695">
        <ele>9.8</ele>
        <time>2026-06-05T15:33:40</time>
      </trkpt>
      <trkpt lat="35.99255992099643" lon="129.39864694140851">
        <ele>10.0</ele>
        <time>2026-06-05T15:33:41</time>
      </trkpt>
      <trkpt lat="35.99256193265319" lon="129.39870494417846">
        <ele>10.0</ele>
        <time>2026-06-05T15:33:42</time>
      </trkpt>
      <trkpt lat="35.99256193265319" lon="129.39876596443355">
        <ele>10.0</ele>
        <time>2026-06-05T15:33:43</time>
      </trkpt>
      <trkpt lat="35.99256293848157" lon="129.39882991835475">
        <ele>10.2</ele>
        <time>2026-06-05T15:33:44</time>
      </trkpt>
      <trkpt lat="35.99256394430995" lon="129.39889596775174">
        <ele>10.2</ele>
        <time>2026-06-05T15:33:45</time>
      </trkpt>
      <trkpt lat="35.99256595596671" lon="129.39896092750132">
        <ele>10.2</ele>
        <time>2026-06-05T15:33:46</time>
      </trkpt>
      <trkpt lat="35.99256696179509" lon="129.39902597106993">
        <ele>10.2</ele>
        <time>2026-06-05T15:33:47</time>
      </trkpt>
      <trkpt lat="35.99256696179509" lon="129.39908891916275">
        <ele>10.4</ele>
        <time>2026-06-05T15:33:48</time>
      </trkpt>
      <trkpt lat="35.99256796762347" lon="129.3991519510746">
        <ele>10.4</ele>
        <time>2026-06-05T15:33:49</time>
      </trkpt>
      <trkpt lat="35.99256897345185" lon="129.3992129713297">
        <ele>10.4</ele>
        <time>2026-06-05T15:33:50</time>
      </trkpt>
      <trkpt lat="35.99256897345185" lon="129.39927197992802">
        <ele>10.6</ele>
        <time>2026-06-05T15:33:51</time>
      </trkpt>
      <trkpt lat="35.992570985108614" lon="129.3993279710412">
        <ele>10.6</ele>
        <time>2026-06-05T15:33:52</time>
      </trkpt>
      <trkpt lat="35.992572996765375" lon="129.39938094466925">
        <ele>10.6</ele>
        <time>2026-06-05T15:33:53</time>
      </trkpt>
      <trkpt lat="35.992576936259866" lon="129.39943299628794">
        <ele>10.8</ele>
        <time>2026-06-05T15:33:54</time>
      </trkpt>
      <trkpt lat="35.99258095957339" lon="129.39948295243084">
        <ele>10.8</ele>
        <time>2026-06-05T15:33:55</time>
      </trkpt>
      <trkpt lat="35.99258598871529" lon="129.3995319865644">
        <ele>11.0</ele>
        <time>2026-06-05T15:33:56</time>
      </trkpt>
      <trkpt lat="35.99259294569492" lon="129.39957993105054">
        <ele>11.0</ele>
        <time>2026-06-05T15:33:57</time>
      </trkpt>
      <trkpt lat="35.99260099232197" lon="129.39962594769895">
        <ele>11.0</ele>
        <time>2026-06-05T15:33:58</time>
      </trkpt>
      <trkpt lat="35.99261197261512" lon="129.39967297017574">
        <ele>11.0</ele>
        <time>2026-06-05T15:33:59</time>
      </trkpt>
      <trkpt lat="35.99262496456504" lon="129.39971898682415">
        <ele>11.0</ele>
        <time>2026-06-05T15:34:00</time>
      </trkpt>
      <trkpt lat="35.992637956514955" lon="129.39976491965353">
        <ele>11.2</ele>
        <time>2026-06-05T15:34:01</time>
      </trkpt>
      <trkpt lat="35.99264893680811" lon="129.39980993047357">
        <ele>11.2</ele>
        <time>2026-06-05T15:34:02</time>
      </trkpt>
      <trkpt lat="35.99265396595001" lon="129.39985393546522">
        <ele>11.2</ele>
        <time>2026-06-05T15:34:03</time>
      </trkpt>
      <trkpt lat="35.99265296012163" lon="129.39989492297173">
        <ele>11.2</ele>
        <time>2026-06-05T15:34:04</time>
      </trkpt>
      <trkpt lat="35.99264399148524" lon="129.39993297681212">
        <ele>11.2</ele>
        <time>2026-06-05T15:34:05</time>
      </trkpt>
      <trkpt lat="35.99263493902981" lon="129.39996692351997">
        <ele>11.2</ele>
        <time>2026-06-05T15:34:06</time>
      </trkpt>
      <trkpt lat="35.99262898787856" lon="129.39999693073332">
        <ele>11.2</ele>
        <time>2026-06-05T15:34:07</time>
      </trkpt>
      <trkpt lat="35.99262898787856" lon="129.40001897513866">
        <ele>11.2</ele>
        <time>2026-06-05T15:34:08</time>
      </trkpt>
      <trkpt lat="35.99263493902981" lon="129.40003297291696">
        <ele>11.2</ele>
        <time>2026-06-05T15:34:09</time>
      </trkpt>
      <trkpt lat="35.99264499731362" lon="129.40004596486688">
        <ele>11.2</ele>
        <time>2026-06-05T15:34:10</time>
      </trkpt>
      <trkpt lat="35.992658995091915" lon="129.40006096847355">
        <ele>11.2</ele>
        <time>2026-06-05T15:34:11</time>
      </trkpt>
      <trkpt lat="35.99267399869859" lon="129.40008292905986">
        <ele>11.2</ele>
        <time>2026-06-05T15:34:12</time>
      </trkpt>
      <trkpt lat="35.99268891848624" lon="129.40010597929358">
        <ele>11.2</ele>
        <time>2026-06-05T15:34:13</time>
      </trkpt>
      <trkpt lat="35.992705933749676" lon="129.40013095736504">
        <ele>11.2</ele>
        <time>2026-06-05T15:34:14</time>
      </trkpt>
      <trkpt lat="35.992724960669875" lon="129.40015794709325">
        <ele>11.2</ele>
        <time>2026-06-05T15:34:15</time>
      </trkpt>
      <trkpt lat="35.992747927084565" lon="129.40019197762012">
        <ele>11.2</ele>
        <time>2026-06-05T15:34:16</time>
      </trkpt>
      <trkpt lat="35.99277491681278" lon="129.40023397095501">
        <ele>11.2</ele>
        <time>2026-06-05T15:34:17</time>
      </trkpt>
      <trkpt lat="35.9928029961884" lon="129.40028593875468">
        <ele>11.2</ele>
        <time>2026-06-05T15:34:18</time>
      </trkpt>
      <trkpt lat="35.992834931239486" lon="129.40034695900977">
        <ele>11.2</ele>
        <time>2026-06-05T15:34:19</time>
      </trkpt>
      <trkpt lat="35.9928669501096" lon="129.4004149362445">
        <ele>11.4</ele>
        <time>2026-06-05T15:34:20</time>
      </trkpt>
      <trkpt lat="35.99290399812162" lon="129.40048199146986">
        <ele>11.4</ele>
        <time>2026-06-05T15:34:21</time>
      </trkpt>
      <trkpt lat="35.99294699728489" lon="129.4005399942398">
        <ele>11.4</ele>
        <time>2026-06-05T15:34:22</time>
      </trkpt>
      <trkpt lat="35.99299293011427" lon="129.4005849212408">
        <ele>11.4</ele>
        <time>2026-06-05T15:34:23</time>
      </trkpt>
      <trkpt lat="35.99303693510592" lon="129.4006179459393">
        <ele>11.4</ele>
        <time>2026-06-05T15:34:24</time>
      </trkpt>
      <trkpt lat="35.99307398311794" lon="129.40063999034464">
        <ele>11.4</ele>
        <time>2026-06-05T15:34:25</time>
      </trkpt>
      <trkpt lat="35.99310298450291" lon="129.4006599392742">
        <ele>11.4</ele>
        <time>2026-06-05T15:34:26</time>
      </trkpt>
      <trkpt lat="35.99311999976635" lon="129.4006829895079">
        <ele>11.6</ele>
        <time>2026-06-05T15:34:27</time>
      </trkpt>
      <trkpt lat="35.99312796257436" lon="129.4007119908929">
        <ele>11.8</ele>
        <time>2026-06-05T15:34:28</time>
      </trkpt>
      <trkpt lat="35.993129974231124" lon="129.40073093399405">
        <ele>12.0</ele>
        <time>2026-06-05T15:34:29</time>
      </trkpt>
      <trkpt lat="35.99312695674598" lon="129.4007389806211">
        <ele>12.0</ele>
        <time>2026-06-05T15:34:30</time>
      </trkpt>
      <trkpt lat="35.99312293343246" lon="129.40073998644948">
        <ele>12.2</ele>
        <time>2026-06-05T15:34:31</time>
      </trkpt>
      <trkpt lat="35.99311698228121" lon="129.40073797479272">
        <ele>12.2</ele>
        <time>2026-06-05T15:34:32</time>
      </trkpt>
      <trkpt lat="35.99312896840274" lon="129.400677960366">
        <ele>12.6</ele>
        <time>2026-06-05T15:34:49</time>
      </trkpt>
      <trkpt lat="35.993129974231124" lon="129.4006639625877">
        <ele>12.6</ele>
        <time>2026-06-05T15:34:50</time>
      </trkpt>
      <trkpt lat="35.993132991716266" lon="129.4006509706378">
        <ele>12.6</ele>
        <time>2026-06-05T15:34:51</time>
      </trkpt>
      <trkpt lat="35.993135925382376" lon="129.40064292401075">
        <ele>12.6</ele>
        <time>2026-06-05T15:34:52</time>
      </trkpt>
      <trkpt lat="35.993136931210756" lon="129.40063999034464">
        <ele>12.6</ele>
        <time>2026-06-05T15:34:53</time>
      </trkpt>
      <trkpt lat="35.99313793703914" lon="129.40063898451626">
        <ele>12.6</ele>
        <time>2026-06-05T15:34:54</time>
      </trkpt>
      <trkpt lat="35.993136931210756" lon="129.40063999034464">
        <ele>12.6</ele>
        <time>2026-06-05T15:34:55</time>
      </trkpt>
      <trkpt lat="35.99320499226451" lon="129.40067494288087">
        <ele>12.0</ele>
        <time>2026-06-05T15:35:17</time>
      </trkpt>
      <trkpt lat="35.993220917880535" lon="129.40067695453763">
        <ele>12.0</ele>
        <time>2026-06-05T15:35:18</time>
      </trkpt>
      <trkpt lat="35.993238938972354" lon="129.4006829895079">
        <ele>12.0</ele>
        <time>2026-06-05T15:35:19</time>
      </trkpt>
      <trkpt lat="35.993260983377695" lon="129.40069598145783">
        <ele>12.0</ele>
        <time>2026-06-05T15:35:20</time>
      </trkpt>
      <trkpt lat="35.993282943964005" lon="129.40071894787252">
        <ele>12.0</ele>
        <time>2026-06-05T15:35:21</time>
      </trkpt>
      <trkpt lat="35.993304988369346" lon="129.4007529783994">
        <ele>12.0</ele>
        <time>2026-06-05T15:35:22</time>
      </trkpt>
      <trkpt lat="35.993326948955655" lon="129.40079698339105">
        <ele>12.2</ele>
        <time>2026-06-05T15:35:23</time>
      </trkpt>
      <trkpt lat="35.99334999918938" lon="129.4008499570191">
        <ele>12.2</ele>
        <time>2026-06-05T15:35:24</time>
      </trkpt>
      <trkpt lat="35.99337397143245" lon="129.40090795978904">
        <ele>12.4</ele>
        <time>2026-06-05T15:35:25</time>
      </trkpt>
      <trkpt lat="35.99339995533228" lon="129.40096797421575">
        <ele>12.4</ele>
        <time>2026-06-05T15:35:26</time>
      </trkpt>
      <trkpt lat="35.99342795088887" lon="129.40102899447083">
        <ele>12.6</ele>
        <time>2026-06-05T15:35:27</time>
      </trkpt>
      <trkpt lat="35.993454940617085" lon="129.4010889250785">
        <ele>12.6</ele>
        <time>2026-06-05T15:35:28</time>
      </trkpt>
      <trkpt lat="35.993480924516916" lon="129.40114793367684">
        <ele>12.8</ele>
        <time>2026-06-05T15:35:29</time>
      </trkpt>
      <trkpt lat="35.9935059864074" lon="129.40120694227517">
        <ele>12.8</ele>
        <time>2026-06-05T15:35:30</time>
      </trkpt>
      <trkpt lat="35.99352995865047" lon="129.40126796253026">
        <ele>13.0</ele>
        <time>2026-06-05T15:35:31</time>
      </trkpt>
      <trkpt lat="35.99355493672192" lon="129.4013309944421">
        <ele>13.0</ele>
        <time>2026-06-05T15:35:32</time>
      </trkpt>
      <trkpt lat="35.99358092062175" lon="129.4013949483633">
        <ele>13.0</ele>
        <time>2026-06-05T15:35:33</time>
      </trkpt>
      <trkpt lat="35.99360899999738" lon="129.40145999193192">
        <ele>13.0</ele>
        <time>2026-06-05T15:35:34</time>
      </trkpt>
      <trkpt lat="35.99363598972559" lon="129.4015249516815">
        <ele>13.2</ele>
        <time>2026-06-05T15:35:35</time>
      </trkpt>
      <trkpt lat="35.99366398528218" lon="129.40158898942173">
        <ele>13.2</ele>
        <time>2026-06-05T15:35:36</time>
      </trkpt>
      <trkpt lat="35.993692986667156" lon="129.40164992585778">
        <ele>13.2</ele>
        <time>2026-06-05T15:35:37</time>
      </trkpt>
      <trkpt lat="35.99372098222375" lon="129.4017099402845">
        <ele>13.2</ele>
        <time>2026-06-05T15:35:38</time>
      </trkpt>
      <trkpt lat="35.99374797195196" lon="129.40176894888282">
        <ele>13.2</ele>
        <time>2026-06-05T15:35:39</time>
      </trkpt>
      <trkpt lat="35.99377395585179" lon="129.40182695165277">
        <ele>13.2</ele>
        <time>2026-06-05T15:35:40</time>
      </trkpt>
      <trkpt lat="35.993799939751625" lon="129.40188394859433">
        <ele>13.4</ele>
        <time>2026-06-05T15:35:41</time>
      </trkpt>
      <trkpt lat="35.99382399581373" lon="129.40193893387914">
        <ele>13.4</ele>
        <time>2026-06-05T15:35:42</time>
      </trkpt>
      <trkpt lat="35.9938479680568" lon="129.4019919913262">
        <ele>13.4</ele>
        <time>2026-06-05T15:35:43</time>
      </trkpt>
      <trkpt lat="35.99386992864311" lon="129.4020429532975">
        <ele>13.4</ele>
        <time>2026-06-05T15:35:44</time>
      </trkpt>
      <trkpt lat="35.99388996139169" lon="129.4020899757743">
        <ele>13.4</ele>
        <time>2026-06-05T15:35:45</time>
      </trkpt>
      <trkpt lat="35.993903959169984" lon="129.40213398076594">
        <ele>13.4</ele>
        <time>2026-06-05T15:35:46</time>
      </trkpt>
      <trkpt lat="35.99390898831189" lon="129.40217396244407">
        <ele>13.4</ele>
        <time>2026-06-05T15:35:47</time>
      </trkpt>
      <trkpt lat="35.993907982483506" lon="129.40221092663705">
        <ele>13.4</ele>
        <time>2026-06-05T15:35:48</time>
      </trkpt>
      <trkpt lat="35.993903959169984" lon="129.40224294550717">
        <ele>13.4</ele>
        <time>2026-06-05T15:35:49</time>
      </trkpt>
      <trkpt lat="35.99389993585646" lon="129.40226398408413">
        <ele>13.4</ele>
        <time>2026-06-05T15:35:50</time>
      </trkpt>
      <trkpt lat="35.99389599636197" lon="129.4022739585489">
        <ele>13.4</ele>
        <time>2026-06-05T15:35:51</time>
      </trkpt>
      <trkpt lat="35.99389398470521" lon="129.40227597020566">
        <ele>13.4</ele>
        <time>2026-06-05T15:35:52</time>
      </trkpt>
      <trkpt lat="35.99389297887683" lon="129.40227194689214">
        <ele>13.4</ele>
        <time>2026-06-05T15:35:53</time>
      </trkpt>
      <trkpt lat="35.99389297887683" lon="129.40226691775024">
        <ele>13.2</ele>
        <time>2026-06-05T15:35:54</time>
      </trkpt>
      <trkpt lat="35.99387395195663" lon="129.4023479707539">
        <ele>12.6</ele>
        <time>2026-06-05T15:36:24</time>
      </trkpt>
      <trkpt lat="35.99386598914862" lon="129.40238694660366">
        <ele>12.6</ele>
        <time>2026-06-05T15:36:25</time>
      </trkpt>
      <trkpt lat="35.993862971663475" lon="129.40243497490883">
        <ele>12.6</ele>
        <time>2026-06-05T15:36:26</time>
      </trkpt>
      <trkpt lat="35.99386992864311" lon="129.4024869427085">
        <ele>12.6</ele>
        <time>2026-06-05T15:36:27</time>
      </trkpt>
      <trkpt lat="35.99388996139169" lon="129.40253991633654">
        <ele>12.6</ele>
        <time>2026-06-05T15:36:28</time>
      </trkpt>
      <trkpt lat="35.993924997746944" lon="129.40258995629847">
        <ele>12.6</ele>
        <time>2026-06-05T15:36:29</time>
      </trkpt>
      <trkpt lat="35.993969924747944" lon="129.40263899043202">
        <ele>12.6</ele>
        <time>2026-06-05T15:36:30</time>
      </trkpt>
      <trkpt lat="35.99402097053826" lon="129.40268592908978">
        <ele>12.6</ele>
        <time>2026-06-05T15:36:31</time>
      </trkpt>
      <trkpt lat="35.9940739441663" lon="129.40272993408144">
        <ele>12.6</ele>
        <time>2026-06-05T15:36:32</time>
      </trkpt>
      <trkpt lat="35.994121972471476" lon="129.40276597626507">
        <ele>12.4</ele>
        <time>2026-06-05T15:36:33</time>
      </trkpt>
      <trkpt lat="35.99415994249284" lon="129.40279397182167">
        <ele>12.2</ele>
        <time>2026-06-05T15:36:34</time>
      </trkpt>
      <trkpt lat="35.99419095553458" lon="129.40281794406474">
        <ele>12.0</ele>
        <time>2026-06-05T15:36:35</time>
      </trkpt>
      <trkpt lat="35.99421895109117" lon="129.4028389826417">
        <ele>11.8</ele>
        <time>2026-06-05T15:36:36</time>
      </trkpt>
      <trkpt lat="35.994247952476144" lon="129.40285893157125">
        <ele>11.6</ele>
        <time>2026-06-05T15:36:37</time>
      </trkpt>
      <trkpt lat="35.99427997134626" lon="129.40287695266306">
        <ele>11.4</ele>
        <time>2026-06-05T15:36:38</time>
      </trkpt>
      <trkpt lat="35.994313918054104" lon="129.40289296209812">
        <ele>11.2</ele>
        <time>2026-06-05T15:36:39</time>
      </trkpt>
      <trkpt lat="35.99435096606612" lon="129.4029079657048">
        <ele>11.2</ele>
        <time>2026-06-05T15:36:40</time>
      </trkpt>
      <trkpt lat="35.99438994191587" lon="129.40292296931148">
        <ele>11.0</ele>
        <time>2026-06-05T15:36:41</time>
      </trkpt>
      <trkpt lat="35.99442799575627" lon="129.40294291824102">
        <ele>11.0</ele>
        <time>2026-06-05T15:36:42</time>
      </trkpt>
      <trkpt lat="35.994463954120874" lon="129.40297099761665">
        <ele>10.8</ele>
        <time>2026-06-05T15:36:43</time>
      </trkpt>
      <trkpt lat="35.99449899047613" lon="129.4030039384961">
        <ele>10.8</ele>
        <time>2026-06-05T15:36:44</time>
      </trkpt>
      <trkpt lat="35.99453595466912" lon="129.40303394570947">
        <ele>10.6</ele>
        <time>2026-06-05T15:36:45</time>
      </trkpt>
      <trkpt lat="35.99457794800401" lon="129.40306194126606">
        <ele>10.6</ele>
        <time>2026-06-05T15:36:46</time>
      </trkpt>
      <trkpt lat="35.99462195299566" lon="129.40308499149978">
        <ele>10.6</ele>
        <time>2026-06-05T15:36:47</time>
      </trkpt>
      <trkpt lat="35.99467098712921" lon="129.40310494042933">
        <ele>10.6</ele>
        <time>2026-06-05T15:36:48</time>
      </trkpt>
      <trkpt lat="35.994724966585636" lon="129.40312296152115">
        <ele>10.6</ele>
        <time>2026-06-05T15:36:49</time>
      </trkpt>
      <trkpt lat="35.9947819635272" lon="129.40314098261297">
        <ele>10.6</ele>
        <time>2026-06-05T15:36:50</time>
      </trkpt>
      <trkpt lat="35.99483896046877" lon="129.40316294319928">
        <ele>10.6</ele>
        <time>2026-06-05T15:36:51</time>
      </trkpt>
      <trkpt lat="35.994895957410336" lon="129.40319194458425">
        <ele>10.4</ele>
        <time>2026-06-05T15:36:52</time>
      </trkpt>
      <trkpt lat="35.99495094269514" lon="129.40322496928275">
        <ele>10.4</ele>
        <time>2026-06-05T15:36:53</time>
      </trkpt>
      <trkpt lat="35.99500693380833" lon="129.40326092764735">
        <ele>10.2</ele>
        <time>2026-06-05T15:36:54</time>
      </trkpt>
      <trkpt lat="35.99506393074989" lon="129.4032959640026">
        <ele>10.2</ele>
        <time>2026-06-05T15:36:55</time>
      </trkpt>
      <trkpt lat="35.99512193351984" lon="129.4033239595592">
        <ele>10.0</ele>
        <time>2026-06-05T15:36:56</time>
      </trkpt>
      <trkpt lat="35.99518194794655" lon="129.4033469259739">
        <ele>9.8</ele>
        <time>2026-06-05T15:36:57</time>
      </trkpt>
      <trkpt lat="35.995240956544876" lon="129.40336897037923">
        <ele>9.8</ele>
        <time>2026-06-05T15:36:58</time>
      </trkpt>
      <trkpt lat="35.99529594182968" lon="129.40338891930878">
        <ele>9.6</ele>
        <time>2026-06-05T15:36:59</time>
      </trkpt>
      <trkpt lat="35.995345981791615" lon="129.40340492874384">
        <ele>9.6</ele>
        <time>2026-06-05T15:37:00</time>
      </trkpt>
      <trkpt lat="35.99539493210614" lon="129.40342194400728">
        <ele>9.6</ele>
        <time>2026-06-05T15:37:01</time>
      </trkpt>
      <trkpt lat="35.99544698372483" lon="129.403444994241">
        <ele>9.8</ele>
        <time>2026-06-05T15:37:02</time>
      </trkpt>
      <trkpt lat="35.99549995735288" lon="129.40347097814083">
        <ele>9.8</ele>
        <time>2026-06-05T15:37:03</time>
      </trkpt>
      <trkpt lat="35.99555494263768" lon="129.40350199118257">
        <ele>10.0</ele>
        <time>2026-06-05T15:37:04</time>
      </trkpt>
      <trkpt lat="35.99560992792249" lon="129.4035359378904">
        <ele>10.0</ele>
        <time>2026-06-05T15:37:05</time>
      </trkpt>
      <trkpt lat="35.995664997026324" lon="129.40357298590243">
        <ele>10.2</ele>
        <time>2026-06-05T15:37:06</time>
      </trkpt>
      <trkpt lat="35.99571797065437" lon="129.40360995009542">
        <ele>10.2</ele>
        <time>2026-06-05T15:37:07</time>
      </trkpt>
      <trkpt lat="35.99576792679727" lon="129.40364892594516">
        <ele>10.2</ele>
        <time>2026-06-05T15:37:08</time>
      </trkpt>
      <trkpt lat="35.995819978415966" lon="129.40368899144232">
        <ele>10.2</ele>
        <time>2026-06-05T15:37:09</time>
      </trkpt>
      <trkpt lat="35.99587194621563" lon="129.40372997894883">
        <ele>10.4</ele>
        <time>2026-06-05T15:37:10</time>
      </trkpt>
      <trkpt lat="35.995923997834325" lon="129.40377197228372">
        <ele>10.4</ele>
        <time>2026-06-05T15:37:11</time>
      </trkpt>
      <trkpt lat="35.99597697146237" lon="129.403814971447">
        <ele>10.4</ele>
        <time>2026-06-05T15:37:12</time>
      </trkpt>
      <trkpt lat="35.99602893926203" lon="129.40385897643864">
        <ele>10.4</ele>
        <time>2026-06-05T15:37:13</time>
      </trkpt>
      <trkpt lat="35.99607897922397" lon="129.40390398725867">
        <ele>10.6</ele>
        <time>2026-06-05T15:37:14</time>
      </trkpt>
      <trkpt lat="35.99612591788173" lon="129.40395092591643">
        <ele>10.6</ele>
        <time>2026-06-05T15:37:15</time>
      </trkpt>
      <trkpt lat="35.99617193453014" lon="129.40399694256485">
        <ele>10.6</ele>
        <time>2026-06-05T15:37:16</time>
      </trkpt>
      <trkpt lat="35.99621795117855" lon="129.40403994172812">
        <ele>10.6</ele>
        <time>2026-06-05T15:37:17</time>
      </trkpt>
      <trkpt lat="35.99626296199858" lon="129.40408092923462">
        <ele>10.8</ele>
        <time>2026-06-05T15:37:18</time>
      </trkpt>
      <trkpt lat="35.99630696699023" lon="129.40412191674113">
        <ele>10.8</ele>
        <time>2026-06-05T15:37:19</time>
      </trkpt>
      <trkpt lat="35.99634896032512" lon="129.40416298806667">
        <ele>10.8</ele>
        <time>2026-06-05T15:37:20</time>
      </trkpt>
      <trkpt lat="35.99639095366001" lon="129.40420498140156">
        <ele>10.8</ele>
        <time>2026-06-05T15:37:21</time>
      </trkpt>
      <trkpt lat="35.99642892368138" lon="129.40425493754447">
        <ele>10.8</ele>
        <time>2026-06-05T15:37:22</time>
      </trkpt>
      <trkpt lat="35.996463960036635" lon="129.40431193448603">
        <ele>10.8</ele>
        <time>2026-06-05T15:37:23</time>
      </trkpt>
      <trkpt lat="35.99649597890675" lon="129.40437496639788">
        <ele>10.8</ele>
        <time>2026-06-05T15:37:24</time>
      </trkpt>
      <trkpt lat="35.996524980291724" lon="129.4044429436326">
        <ele>11.0</ele>
        <time>2026-06-05T15:37:25</time>
      </trkpt>
      <trkpt lat="35.996548952534795" lon="129.40451293252409">
        <ele>11.0</ele>
        <time>2026-06-05T15:37:26</time>
      </trkpt>
      <trkpt lat="35.996567979454994" lon="129.40457998774946">
        <ele>11.0</ele>
        <time>2026-06-05T15:37:27</time>
      </trkpt>
      <trkpt lat="35.99658197723329" lon="129.40464595332742">
        <ele>10.8</ele>
        <time>2026-06-05T15:37:28</time>
      </trkpt>
      <trkpt lat="35.99659899249673" lon="129.40470898523927">
        <ele>10.8</ele>
        <time>2026-06-05T15:37:29</time>
      </trkpt>
      <trkpt lat="35.996616929769516" lon="129.4047709275037">
        <ele>10.8</ele>
        <time>2026-06-05T15:37:30</time>
      </trkpt>
      <trkpt lat="35.99662992171943" lon="129.40483395941556">
        <ele>10.8</ele>
        <time>2026-06-05T15:37:31</time>
      </trkpt>
      <trkpt lat="35.996634950861335" lon="129.40489598549902">
        <ele>10.8</ele>
        <time>2026-06-05T15:37:32</time>
      </trkpt>
      <trkpt lat="35.99663796834648" lon="129.40495692193508">
        <ele>10.8</ele>
        <time>2026-06-05T15:37:33</time>
      </trkpt>
      <trkpt lat="35.99664098583162" lon="129.40501995384693">
        <ele>10.8</ele>
        <time>2026-06-05T15:37:34</time>
      </trkpt>
      <trkpt lat="35.99664794281125" lon="129.40508097410202">
        <ele>10.8</ele>
        <time>2026-06-05T15:37:35</time>
      </trkpt>
      <trkpt lat="35.99666093476117" lon="129.40513897687197">
        <ele>10.8</ele>
        <time>2026-06-05T15:37:36</time>
      </trkpt>
      <trkpt lat="35.996676944196224" lon="129.40519396215677">
        <ele>10.8</ele>
        <time>2026-06-05T15:37:37</time>
      </trkpt>
      <trkpt lat="35.99669295363128" lon="129.40525095909834">
        <ele>10.8</ele>
        <time>2026-06-05T15:37:38</time>
      </trkpt>
      <trkpt lat="35.9967059455812" lon="129.40531097352505">
        <ele>11.0</ele>
        <time>2026-06-05T15:37:39</time>
      </trkpt>
      <trkpt lat="35.99671499803662" lon="129.40537492744625">
        <ele>11.0</ele>
        <time>2026-06-05T15:37:40</time>
      </trkpt>
      <trkpt lat="35.9967249725014" lon="129.40544198267162">
        <ele>11.2</ele>
        <time>2026-06-05T15:37:41</time>
      </trkpt>
      <trkpt lat="35.99673293530941" lon="129.40551398321986">
        <ele>11.2</ele>
        <time>2026-06-05T15:37:42</time>
      </trkpt>
      <trkpt lat="35.996739976108074" lon="129.40559193491936">
        <ele>11.4</ele>
        <time>2026-06-05T15:37:43</time>
      </trkpt>
      <trkpt lat="35.99674793891609" lon="129.40567198209465">
        <ele>11.4</ele>
        <time>2026-06-05T15:37:44</time>
      </trkpt>
      <trkpt lat="35.99675497971475" lon="129.40575295127928">
        <ele>11.4</ele>
        <time>2026-06-05T15:37:45</time>
      </trkpt>
      <trkpt lat="35.996761936694384" lon="129.40583593212068">
        <ele>11.6</ele>
        <time>2026-06-05T15:37:46</time>
      </trkpt>
      <trkpt lat="35.996765960007906" lon="129.4059189967811">
        <ele>11.6</ele>
        <time>2026-06-05T15:37:47</time>
      </trkpt>
      <trkpt lat="35.99676897749305" lon="129.4060019776225">
        <ele>11.6</ele>
        <time>2026-06-05T15:37:48</time>
      </trkpt>
      <trkpt lat="35.99676797166467" lon="129.406079929322">
        <ele>11.6</ele>
        <time>2026-06-05T15:37:49</time>
      </trkpt>
      <trkpt lat="35.996762942522764" lon="129.4061549473554">
        <ele>11.6</ele>
        <time>2026-06-05T15:37:50</time>
      </trkpt>
      <trkpt lat="35.99675497971475" lon="129.40622594207525">
        <ele>11.8</ele>
        <time>2026-06-05T15:37:51</time>
      </trkpt>
      <trkpt lat="35.996745927259326" lon="129.40629492513835">
        <ele>11.8</ele>
        <time>2026-06-05T15:37:52</time>
      </trkpt>
      <trkpt lat="35.99673595279455" lon="129.40636097453535">
        <ele>11.8</ele>
        <time>2026-06-05T15:37:53</time>
      </trkpt>
      <trkpt lat="35.99672597832978" lon="129.4064269401133">
        <ele>11.8</ele>
        <time>2026-06-05T15:37:54</time>
      </trkpt>
      <trkpt lat="35.99671592004597" lon="129.40649097785354">
        <ele>12.0</ele>
        <time>2026-06-05T15:37:55</time>
      </trkpt>
      <trkpt lat="35.9967059455812" lon="129.4065569434315">
        <ele>12.0</ele>
        <time>2026-06-05T15:37:56</time>
      </trkpt>
      <trkpt lat="35.99669496528804" lon="129.40662399865687">
        <ele>12.0</ele>
        <time>2026-06-05T15:37:57</time>
      </trkpt>
      <trkpt lat="35.99668398499489" lon="129.40669692121446">
        <ele>12.2</ele>
        <time>2026-06-05T15:37:58</time>
      </trkpt>
      <trkpt lat="35.9966729208827" lon="129.40677093341947">
        <ele>12.2</ele>
        <time>2026-06-05T15:37:59</time>
      </trkpt>
      <trkpt lat="35.99666194058955" lon="129.40684695728123">
        <ele>12.2</ele>
        <time>2026-06-05T15:38:00</time>
      </trkpt>
      <trkpt lat="35.99664794281125" lon="129.40692398697138">
        <ele>12.4</ele>
        <time>2026-06-05T15:38:01</time>
      </trkpt>
      <trkpt lat="35.996632939204574" lon="129.4069999270141">
        <ele>12.4</ele>
        <time>2026-06-05T15:38:02</time>
      </trkpt>
      <trkpt lat="35.99661894142628" lon="129.40707595087588">
        <ele>12.6</ele>
        <time>2026-06-05T15:38:03</time>
      </trkpt>
      <trkpt lat="35.99660494364798" lon="129.40715096890926">
        <ele>12.6</ele>
        <time>2026-06-05T15:38:04</time>
      </trkpt>
      <trkpt lat="35.996592957526445" lon="129.4072239752859">
        <ele>12.6</ele>
        <time>2026-06-05T15:38:05</time>
      </trkpt>
      <trkpt lat="35.99658097140491" lon="129.40729497000575">
        <ele>12.8</ele>
        <time>2026-06-05T15:38:06</time>
      </trkpt>
      <trkpt lat="35.996568985283375" lon="129.40736395306885">
        <ele>12.8</ele>
        <time>2026-06-05T15:38:07</time>
      </trkpt>
      <trkpt lat="35.99655699916184" lon="129.4074299186468">
        <ele>13.0</ele>
        <time>2026-06-05T15:38:08</time>
      </trkpt>
      <trkpt lat="35.99654492922127" lon="129.40749295055866">
        <ele>13.0</ele>
        <time>2026-06-05T15:38:09</time>
      </trkpt>
      <trkpt lat="35.99653294309974" lon="129.4075559824705">
        <ele>13.2</ele>
        <time>2026-06-05T15:38:10</time>
      </trkpt>
      <trkpt lat="35.99651995114982" lon="129.4076209422201">
        <ele>13.2</ele>
        <time>2026-06-05T15:38:11</time>
      </trkpt>
      <trkpt lat="35.996503941714764" lon="129.40768699161708">
        <ele>13.4</ele>
        <time>2026-06-05T15:38:12</time>
      </trkpt>
      <trkpt lat="35.996486926451325" lon="129.40775195136666">
        <ele>13.4</ele>
        <time>2026-06-05T15:38:13</time>
      </trkpt>
      <trkpt lat="35.99646898917854" lon="129.4078159891069">
        <ele>13.4</ele>
        <time>2026-06-05T15:38:14</time>
      </trkpt>
      <trkpt lat="35.99644895642996" lon="129.40787499770522">
        <ele>13.4</ele>
        <time>2026-06-05T15:38:15</time>
      </trkpt>
      <trkpt lat="35.99642992950976" lon="129.4079259596765">
        <ele>13.4</ele>
        <time>2026-06-05T15:38:16</time>
      </trkpt>
      <trkpt lat="35.99641299806535" lon="129.4079679530114">
        <ele>13.4</ele>
        <time>2026-06-05T15:38:17</time>
      </trkpt>
      <trkpt lat="35.996400928124785" lon="129.4079999718815">
        <ele>13.4</ele>
        <time>2026-06-05T15:38:18</time>
      </trkpt>
      <trkpt lat="35.996394976973534" lon="129.40802193246782">
        <ele>13.2</ele>
        <time>2026-06-05T15:38:19</time>
      </trkpt>
      <trkpt lat="35.99638994783163" lon="129.40803492441773">
        <ele>13.2</ele>
        <time>2026-06-05T15:38:20</time>
      </trkpt>
      <trkpt lat="35.996382990852" lon="129.40804498270154">
        <ele>13.2</ele>
        <time>2026-06-05T15:38:21</time>
      </trkpt>
      <trkpt lat="35.996375950053334" lon="129.4080559629947">
        <ele>13.2</ele>
        <time>2026-06-05T15:38:22</time>
      </trkpt>
      <trkpt lat="35.99636798724532" lon="129.40807297825813">
        <ele>13.2</ele>
        <time>2026-06-05T15:38:23</time>
      </trkpt>
      <trkpt lat="35.996357928961515" lon="129.40809996798635">
        <ele>13.4</ele>
        <time>2026-06-05T15:38:24</time>
      </trkpt>
      <trkpt lat="35.99634393118322" lon="129.40813492052257">
        <ele>13.6</ele>
        <time>2026-06-05T15:38:25</time>
      </trkpt>
      <trkpt lat="35.99632993340492" lon="129.40817398019135">
        <ele>13.6</ele>
        <time>2026-06-05T15:38:26</time>
      </trkpt>
      <trkpt lat="35.996315935626626" lon="129.4082129560411">
        <ele>13.8</ele>
        <time>2026-06-05T15:38:27</time>
      </trkpt>
      <trkpt lat="35.99630193784833" lon="129.40825193189085">
        <ele>13.8</ele>
        <time>2026-06-05T15:38:28</time>
      </trkpt>
      <trkpt lat="35.99628794007003" lon="129.40829099155962">
        <ele>14.0</ele>
        <time>2026-06-05T15:38:29</time>
      </trkpt>
      <trkpt lat="35.99627494812012" lon="129.40833197906613">
        <ele>14.0</ele>
        <time>2026-06-05T15:38:30</time>
      </trkpt>
      <trkpt lat="35.9962619561702" lon="129.40837598405778">
        <ele>14.0</ele>
        <time>2026-06-05T15:38:31</time>
      </trkpt>
      <trkpt lat="35.996247958391905" lon="129.40842392854393">
        <ele>14.2</ele>
        <time>2026-06-05T15:38:32</time>
      </trkpt>
      <trkpt lat="35.99623094312847" lon="129.40847598016262">
        <ele>14.2</ele>
        <time>2026-06-05T15:38:33</time>
      </trkpt>
      <trkpt lat="35.99621392786503" lon="129.40853096544743">
        <ele>14.2</ele>
        <time>2026-06-05T15:38:34</time>
      </trkpt>
      <trkpt lat="35.99619699642062" lon="129.408587962389">
        <ele>14.4</ele>
        <time>2026-06-05T15:38:35</time>
      </trkpt>
      <trkpt lat="35.9961789753288" lon="129.4086479768157">
        <ele>14.4</ele>
        <time>2026-06-05T15:38:36</time>
      </trkpt>
      <trkpt lat="35.99615793675184" lon="129.40870597958565">
        <ele>14.6</ele>
        <time>2026-06-05T15:38:37</time>
      </trkpt>
      <trkpt lat="35.99613396450877" lon="129.4087639823556">
        <ele>14.6</ele>
        <time>2026-06-05T15:38:38</time>
      </trkpt>
      <trkpt lat="35.99611099809408" lon="129.40882299095392">
        <ele>14.6</ele>
        <time>2026-06-05T15:38:39</time>
      </trkpt>
      <trkpt lat="35.99608895368874" lon="129.4088799878955">
        <ele>14.6</ele>
        <time>2026-06-05T15:38:40</time>
      </trkpt>
      <trkpt lat="35.99606992676854" lon="129.40893597900867">
        <ele>14.6</ele>
        <time>2026-06-05T15:38:41</time>
      </trkpt>
      <trkpt lat="35.996052995324135" lon="129.40898895263672">
        <ele>14.6</ele>
        <time>2026-06-05T15:38:42</time>
      </trkpt>
      <trkpt lat="35.99603799171746" lon="129.40904092043638">
        <ele>14.6</ele>
        <time>2026-06-05T15:38:43</time>
      </trkpt>
      <trkpt lat="35.99601997062564" lon="129.40909297205508">
        <ele>14.6</ele>
        <time>2026-06-05T15:38:44</time>
      </trkpt>
      <trkpt lat="35.99599993787706" lon="129.4091469515115">
        <ele>14.6</ele>
        <time>2026-06-05T15:38:45</time>
      </trkpt>
      <trkpt lat="35.99597797729075" lon="129.40920495428145">
        <ele>14.4</ele>
        <time>2026-06-05T15:38:46</time>
      </trkpt>
      <trkpt lat="35.99595794454217" lon="129.40926496870816">
        <ele>14.4</ele>
        <time>2026-06-05T15:38:47</time>
      </trkpt>
      <trkpt lat="35.99593698978424" lon="129.40932892262936">
        <ele>14.4</ele>
        <time>2026-06-05T15:38:48</time>
      </trkpt>
      <trkpt lat="35.99591595120728" lon="129.4093919545412">
        <ele>14.4</ele>
        <time>2026-06-05T15:38:49</time>
      </trkpt>
      <trkpt lat="35.99589399062097" lon="129.40945792011917">
        <ele>14.2</ele>
        <time>2026-06-05T15:38:50</time>
      </trkpt>
      <trkpt lat="35.99587295204401" lon="129.40952296368778">
        <ele>14.2</ele>
        <time>2026-06-05T15:38:51</time>
      </trkpt>
      <trkpt lat="35.99584998562932" lon="129.40958599559963">
        <ele>14.0</ele>
        <time>2026-06-05T15:38:52</time>
      </trkpt>
      <trkpt lat="35.9958269353956" lon="129.40964793786407">
        <ele>14.0</ele>
        <time>2026-06-05T15:38:53</time>
      </trkpt>
      <trkpt lat="35.99580396898091" lon="129.40970795229077">
        <ele>14.0</ele>
        <time>2026-06-05T15:38:54</time>
      </trkpt>
      <trkpt lat="35.99578192457557" lon="129.40976897254586">
        <ele>13.8</ele>
        <time>2026-06-05T15:38:55</time>
      </trkpt>
      <trkpt lat="35.9957629814744" lon="129.40982898697257">
        <ele>13.8</ele>
        <time>2026-06-05T15:38:56</time>
      </trkpt>
      <trkpt lat="35.9957439545542" lon="129.40988992340863">
        <ele>13.6</ele>
        <time>2026-06-05T15:38:57</time>
      </trkpt>
      <trkpt lat="35.995724927634" lon="129.40995295532048">
        <ele>13.6</ele>
        <time>2026-06-05T15:38:58</time>
      </trkpt>
      <trkpt lat="35.99570397287607" lon="129.41001892089844">
        <ele>13.6</ele>
        <time>2026-06-05T15:38:59</time>
      </trkpt>
      <trkpt lat="35.99568192847073" lon="129.4100859761238">
        <ele>13.6</ele>
        <time>2026-06-05T15:39:00</time>
      </trkpt>
      <trkpt lat="35.99565795622766" lon="129.4101509358734">
        <ele>13.4</ele>
        <time>2026-06-05T15:39:01</time>
      </trkpt>
      <trkpt lat="35.99563498981297" lon="129.41021799109876">
        <ele>13.4</ele>
        <time>2026-06-05T15:39:02</time>
      </trkpt>
      <trkpt lat="35.99561093375087" lon="129.41028395667672">
        <ele>13.2</ele>
        <time>2026-06-05T15:39:03</time>
      </trkpt>
      <trkpt lat="35.99558897316456" lon="129.4103489164263">
        <ele>13.2</ele>
        <time>2026-06-05T15:39:04</time>
      </trkpt>
      <trkpt lat="35.995564917102456" lon="129.4104139599949">
        <ele>13.0</ele>
        <time>2026-06-05T15:39:05</time>
      </trkpt>
      <trkpt lat="35.995539939031005" lon="129.41047799773514">
        <ele>13.0</ele>
        <time>2026-06-05T15:39:06</time>
      </trkpt>
      <trkpt lat="35.995514960959554" lon="129.41054094582796">
        <ele>13.0</ele>
        <time>2026-06-05T15:39:07</time>
      </trkpt>
      <trkpt lat="35.995491994544864" lon="129.4106049835682">
        <ele>12.8</ele>
        <time>2026-06-05T15:39:08</time>
      </trkpt>
      <trkpt lat="35.99546894431114" lon="129.410667931661">
        <ele>12.8</ele>
        <time>2026-06-05T15:39:09</time>
      </trkpt>
      <trkpt lat="35.99544798955321" lon="129.41073096357286">
        <ele>12.6</ele>
        <time>2026-06-05T15:39:10</time>
      </trkpt>
      <trkpt lat="35.995428962633014" lon="129.41079298965633">
        <ele>12.6</ele>
        <time>2026-06-05T15:39:11</time>
      </trkpt>
      <trkpt lat="35.995411947369576" lon="129.410852920264">
        <ele>12.4</ele>
        <time>2026-06-05T15:39:12</time>
      </trkpt>
      <trkpt lat="35.99539493210614" lon="129.41090698353946">
        <ele>12.4</ele>
        <time>2026-06-05T15:39:13</time>
      </trkpt>
      <trkpt lat="35.99537892267108" lon="129.4109549280256">
        <ele>12.2</ele>
        <time>2026-06-05T15:39:14</time>
      </trkpt>
      <trkpt lat="35.99536199122667" lon="129.41099599935114">
        <ele>12.2</ele>
        <time>2026-06-05T15:39:15</time>
      </trkpt>
      <trkpt lat="35.995343970134854" lon="129.41103296354413">
        <ele>12.2</ele>
        <time>2026-06-05T15:39:16</time>
      </trkpt>
      <trkpt lat="35.99533097818494" lon="129.41106992773712">
        <ele>12.2</ele>
        <time>2026-06-05T15:39:17</time>
      </trkpt>
      <trkpt lat="35.9953189920634" lon="129.41110999323428">
        <ele>12.2</ele>
        <time>2026-06-05T15:39:18</time>
      </trkpt>
      <trkpt lat="35.995305916294456" lon="129.41115198656917">
        <ele>12.2</ele>
        <time>2026-06-05T15:39:19</time>
      </trkpt>
      <trkpt lat="35.99529099650681" lon="129.4111969973892">
        <ele>12.4</ele>
        <time>2026-06-05T15:39:20</time>
      </trkpt>
      <trkpt lat="35.99527498707175" lon="129.4112469535321">
        <ele>12.4</ele>
        <time>2026-06-05T15:39:21</time>
      </trkpt>
      <trkpt lat="35.99525495432317" lon="129.41130294464529">
        <ele>12.4</ele>
        <time>2026-06-05T15:39:22</time>
      </trkpt>
      <trkpt lat="35.995233999565244" lon="129.411362959072">
        <ele>12.2</ele>
        <time>2026-06-05T15:39:23</time>
      </trkpt>
      <trkpt lat="35.9952119551599" lon="129.41142096184194">
        <ele>12.2</ele>
        <time>2026-06-05T15:39:24</time>
      </trkpt>
      <trkpt lat="35.99518999457359" lon="129.41147494129837">
        <ele>12.0</ele>
        <time>2026-06-05T15:39:25</time>
      </trkpt>
      <trkpt lat="35.99516795016825" lon="129.4115249812603">
        <ele>11.8</ele>
        <time>2026-06-05T15:39:26</time>
      </trkpt>
      <trkpt lat="35.99514699541032" lon="129.41157191991806">
        <ele>11.8</ele>
        <time>2026-06-05T15:39:27</time>
      </trkpt>
      <trkpt lat="35.995128974318504" lon="129.41161491908133">
        <ele>11.6</ele>
        <time>2026-06-05T15:39:28</time>
      </trkpt>
      <trkpt lat="35.99511296488345" lon="129.41165599040687">
        <ele>11.6</ele>
        <time>2026-06-05T15:39:29</time>
      </trkpt>
      <trkpt lat="35.99509695544839" lon="129.41169496625662">
        <ele>11.4</ele>
        <time>2026-06-05T15:39:30</time>
      </trkpt>
      <trkpt lat="35.99508295767009" lon="129.41173595376313">
        <ele>11.4</ele>
        <time>2026-06-05T15:39:31</time>
      </trkpt>
      <trkpt lat="35.995068959891796" lon="129.41177794709802">
        <ele>11.2</ele>
        <time>2026-06-05T15:39:32</time>
      </trkpt>
      <trkpt lat="35.99505395628512" lon="129.4118199404329">
        <ele>11.2</ele>
        <time>2026-06-05T15:39:33</time>
      </trkpt>
      <trkpt lat="35.99503995850682" lon="129.4118619337678">
        <ele>11.2</ele>
        <time>2026-06-05T15:39:34</time>
      </trkpt>
      <trkpt lat="35.995024954900146" lon="129.41190199926496">
        <ele>11.0</ele>
        <time>2026-06-05T15:39:35</time>
      </trkpt>
      <trkpt lat="35.99501095712185" lon="129.41194298677146">
        <ele>11.0</ele>
        <time>2026-06-05T15:39:36</time>
      </trkpt>
      <trkpt lat="35.99499494768679" lon="129.4119829684496">
        <ele>11.0</ele>
        <time>2026-06-05T15:39:37</time>
      </trkpt>
      <trkpt lat="35.99497793242335" lon="129.41202295012772">
        <ele>11.0</ele>
        <time>2026-06-05T15:39:38</time>
      </trkpt>
      <trkpt lat="35.994962928816676" lon="129.41206192597747">
        <ele>11.0</ele>
        <time>2026-06-05T15:39:39</time>
      </trkpt>
      <trkpt lat="35.99494893103838" lon="129.41209997981787">
        <ele>10.8</ele>
        <time>2026-06-05T15:39:40</time>
      </trkpt>
      <trkpt lat="35.994936944916844" lon="129.41213794983923">
        <ele>10.8</ele>
        <time>2026-06-05T15:39:41</time>
      </trkpt>
      <trkpt lat="35.99492697045207" lon="129.4121759198606">
        <ele>10.8</ele>
        <time>2026-06-05T15:39:42</time>
      </trkpt>
      <trkpt lat="35.994916995987296" lon="129.412213973701">
        <ele>10.8</ele>
        <time>2026-06-05T15:39:43</time>
      </trkpt>
      <trkpt lat="35.99490693770349" lon="129.412250937894">
        <ele>10.8</ele>
        <time>2026-06-05T15:39:44</time>
      </trkpt>
      <trkpt lat="35.994895957410336" lon="129.41228597424924">
        <ele>10.8</ele>
        <time>2026-06-05T15:39:45</time>
      </trkpt>
      <trkpt lat="35.99488497711718" lon="129.4123199209571">
        <ele>10.8</ele>
        <time>2026-06-05T15:39:46</time>
      </trkpt>
      <trkpt lat="35.994873996824026" lon="129.4123519398272">
        <ele>10.8</ele>
        <time>2026-06-05T15:39:47</time>
      </trkpt>
      <trkpt lat="35.99486293271184" lon="129.41238295286894">
        <ele>11.0</ele>
        <time>2026-06-05T15:39:49</time>
      </trkpt>
      <trkpt lat="35.994851952418685" lon="129.4124129600823">
        <ele>11.0</ele>
        <time>2026-06-05T15:39:50</time>
      </trkpt>
      <trkpt lat="35.99484197795391" lon="129.41244095563889">
        <ele>11.0</ele>
        <time>2026-06-05T15:39:51</time>
      </trkpt>
      <trkpt lat="35.994832925498486" lon="129.41246693953872">
        <ele>11.0</ele>
        <time>2026-06-05T15:39:52</time>
      </trkpt>
      <trkpt lat="35.99482496269047" lon="129.41249292343855">
        <ele>11.0</ele>
        <time>2026-06-05T15:39:53</time>
      </trkpt>
      <trkpt lat="35.99481792189181" lon="129.4125199969858">
        <ele>11.2</ele>
        <time>2026-06-05T15:39:54</time>
      </trkpt>
      <trkpt lat="35.994810964912176" lon="129.4125509262085">
        <ele>11.2</ele>
        <time>2026-06-05T15:39:55</time>
      </trkpt>
      <trkpt lat="35.99480199627578" lon="129.41258797422051">
        <ele>11.2</ele>
        <time>2026-06-05T15:39:56</time>
      </trkpt>
      <trkpt lat="35.99479193799198" lon="129.41262896172702">
        <ele>11.2</ele>
        <time>2026-06-05T15:39:57</time>
      </trkpt>
      <trkpt lat="35.99477995187044" lon="129.41267296671867">
        <ele>11.2</ele>
        <time>2026-06-05T15:39:58</time>
      </trkpt>
      <trkpt lat="35.994766959920526" lon="129.41271697171032">
        <ele>11.4</ele>
        <time>2026-06-05T15:39:59</time>
      </trkpt>
      <trkpt lat="35.99475497379899" lon="129.41275795921683">
        <ele>11.4</ele>
        <time>2026-06-05T15:40:00</time>
      </trkpt>
      <trkpt lat="35.994740976020694" lon="129.4127959292382">
        <ele>11.4</ele>
        <time>2026-06-05T15:40:01</time>
      </trkpt>
      <trkpt lat="35.99472597241402" lon="129.41282694227993">
        <ele>11.4</ele>
        <time>2026-06-05T15:40:02</time>
      </trkpt>
      <trkpt lat="35.99471096880734" lon="129.41285393200815">
        <ele>11.4</ele>
        <time>2026-06-05T15:40:03</time>
      </trkpt>
      <trkpt lat="35.99469697102904" lon="129.41287698224187">
        <ele>11.4</ele>
        <time>2026-06-05T15:40:04</time>
      </trkpt>
      <trkpt lat="35.994677944108844" lon="129.4129119347781">
        <ele>11.4</ele>
        <time>2026-06-05T15:40:05</time>
      </trkpt>
      <trkpt lat="35.994661934673786" lon="129.41294294781983">
        <ele>11.4</ele>
        <time>2026-06-05T15:40:06</time>
      </trkpt>
      <trkpt lat="35.99464894272387" lon="129.41296993754804">
        <ele>11.4</ele>
        <time>2026-06-05T15:40:07</time>
      </trkpt>
      <trkpt lat="35.994638968259096" lon="129.41299692727625">
        <ele>11.2</ele>
        <time>2026-06-05T15:40:08</time>
      </trkpt>
      <trkpt lat="35.99463192746043" lon="129.41302592866123">
        <ele>11.2</ele>
        <time>2026-06-05T15:40:09</time>
      </trkpt>
      <trkpt lat="35.9946249704808" lon="129.41305392421782">
        <ele>11.2</ele>
        <time>2026-06-05T15:40:10</time>
      </trkpt>
      <trkpt lat="35.994614996016026" lon="129.4130789861083">
        <ele>11.2</ele>
        <time>2026-06-05T15:40:11</time>
      </trkpt>
      <trkpt lat="35.99460292607546" lon="129.4131009466946">
        <ele>11.4</ele>
        <time>2026-06-05T15:40:12</time>
      </trkpt>
      <trkpt lat="35.994594963267446" lon="129.41312399692833">
        <ele>11.4</ele>
        <time>2026-06-05T15:40:13</time>
      </trkpt>
      <trkpt lat="35.994593957439065" lon="129.41314897499979">
        <ele>11.6</ele>
        <time>2026-06-05T15:40:14</time>
      </trkpt>
      <trkpt lat="35.99459898658097" lon="129.41317898221314">
        <ele>11.6</ele>
        <time>2026-06-05T15:40:15</time>
      </trkpt>
      <trkpt lat="35.99460795521736" lon="129.41321292892098">
        <ele>11.6</ele>
        <time>2026-06-05T15:40:16</time>
      </trkpt>
      <trkpt lat="35.994615918025374" lon="129.41325098276138">
        <ele>11.6</ele>
        <time>2026-06-05T15:40:17</time>
      </trkpt>
      <trkpt lat="35.99462094716728" lon="129.41329297609627">
        <ele>11.8</ele>
        <time>2026-06-05T15:40:18</time>
      </trkpt>
      <trkpt lat="35.99462094716728" lon="129.41333698108792">
        <ele>11.8</ele>
        <time>2026-06-05T15:40:19</time>
      </trkpt>
      <trkpt lat="35.994611978530884" lon="129.41338199190795">
        <ele>11.6</ele>
        <time>2026-06-05T15:40:20</time>
      </trkpt>
      <trkpt lat="35.99459898658097" lon="129.4134299363941">
        <ele>11.6</ele>
        <time>2026-06-05T15:40:21</time>
      </trkpt>
      <trkpt lat="35.99458498880267" lon="129.41347897052765">
        <ele>11.6</ele>
        <time>2026-06-05T15:40:22</time>
      </trkpt>
      <trkpt lat="35.994570991024375" lon="129.4135309383273">
        <ele>11.4</ele>
        <time>2026-06-05T15:40:23</time>
      </trkpt>
      <trkpt lat="35.9945559874177" lon="129.41358198411763">
        <ele>11.4</ele>
        <time>2026-06-05T15:40:24</time>
      </trkpt>
      <trkpt lat="35.99454098381102" lon="129.4136339519173">
        <ele>11.4</ele>
        <time>2026-06-05T15:40:25</time>
      </trkpt>
      <trkpt lat="35.99452396854758" lon="129.41368793137372">
        <ele>11.4</ele>
        <time>2026-06-05T15:40:26</time>
      </trkpt>
      <trkpt lat="35.99450494162738" lon="129.41374492831528">
        <ele>11.2</ele>
        <time>2026-06-05T15:40:27</time>
      </trkpt>
      <trkpt lat="35.994485998526216" lon="129.4138039369136">
        <ele>11.2</ele>
        <time>2026-06-05T15:40:28</time>
      </trkpt>
      <trkpt lat="35.9944679774344" lon="129.4138649571687">
        <ele>11.2</ele>
        <time>2026-06-05T15:40:29</time>
      </trkpt>
      <trkpt lat="35.99444995634258" lon="129.4139249715954">
        <ele>11.2</ele>
        <time>2026-06-05T15:40:30</time>
      </trkpt>
      <trkpt lat="35.9944349527359" lon="129.41398498602211">
        <ele>11.2</ele>
        <time>2026-06-05T15:40:31</time>
      </trkpt>
      <trkpt lat="35.994419949129224" lon="129.41404399462044">
        <ele>11.2</ele>
        <time>2026-06-05T15:40:32</time>
      </trkpt>
      <trkpt lat="35.994403939694166" lon="129.4141019973904">
        <ele>11.2</ele>
        <time>2026-06-05T15:40:33</time>
      </trkpt>
      <trkpt lat="35.99438793025911" lon="129.41415899433196">
        <ele>11.2</ele>
        <time>2026-06-05T15:40:34</time>
      </trkpt>
      <trkpt lat="35.99436999298632" lon="129.41421599127352">
        <ele>11.2</ele>
        <time>2026-06-05T15:40:35</time>
      </trkpt>
      <trkpt lat="35.9943519718945" lon="129.41427097655833">
        <ele>11.2</ele>
        <time>2026-06-05T15:40:36</time>
      </trkpt>
      <trkpt lat="35.994335962459445" lon="129.41432495601475">
        <ele>11.2</ele>
        <time>2026-06-05T15:40:37</time>
      </trkpt>
      <trkpt lat="35.99432095885277" lon="129.41437893547118">
        <ele>11.2</ele>
        <time>2026-06-05T15:40:38</time>
      </trkpt>
      <trkpt lat="35.99430494941771" lon="129.41443098708987">
        <ele>11.4</ele>
        <time>2026-06-05T15:40:39</time>
      </trkpt>
      <trkpt lat="35.99428793415427" lon="129.41448597237468">
        <ele>11.4</ele>
        <time>2026-06-05T15:40:40</time>
      </trkpt>
      <trkpt lat="35.994270918890834" lon="129.41454196348786">
        <ele>11.4</ele>
        <time>2026-06-05T15:40:41</time>
      </trkpt>
      <trkpt lat="35.99425398744643" lon="129.4146009720862">
        <ele>11.4</ele>
        <time>2026-06-05T15:40:42</time>
      </trkpt>
      <trkpt lat="35.99423697218299" lon="129.41466199234128">
        <ele>11.4</ele>
        <time>2026-06-05T15:40:43</time>
      </trkpt>
      <trkpt lat="35.99421995691955" lon="129.41472695209086">
        <ele>11.4</ele>
        <time>2026-06-05T15:40:44</time>
      </trkpt>
      <trkpt lat="35.99420193582773" lon="129.41479291766882">
        <ele>11.4</ele>
        <time>2026-06-05T15:40:45</time>
      </trkpt>
      <trkpt lat="35.994184920564294" lon="129.4148589670658">
        <ele>11.4</ele>
        <time>2026-06-05T15:40:46</time>
      </trkpt>
      <trkpt lat="35.99416698329151" lon="129.4149239268154">
        <ele>11.4</ele>
        <time>2026-06-05T15:40:47</time>
      </trkpt>
      <trkpt lat="35.99414896219969" lon="129.414988970384">
        <ele>11.4</ele>
        <time>2026-06-05T15:40:48</time>
      </trkpt>
      <trkpt lat="35.99412993527949" lon="129.41505393013358">
        <ele>11.4</ele>
        <time>2026-06-05T15:40:49</time>
      </trkpt>
      <trkpt lat="35.99411292001605" lon="129.41511997953057">
        <ele>11.4</ele>
        <time>2026-06-05T15:40:50</time>
      </trkpt>
      <trkpt lat="35.994096994400024" lon="129.41518393345177">
        <ele>11.4</ele>
        <time>2026-06-05T15:40:51</time>
      </trkpt>
      <trkpt lat="35.994078973308206" lon="129.41524595953524">
        <ele>11.4</ele>
        <time>2026-06-05T15:40:52</time>
      </trkpt>
      <trkpt lat="35.994059946388006" lon="129.41530597396195">
        <ele>11.4</ele>
        <time>2026-06-05T15:40:53</time>
      </trkpt>
      <trkpt lat="35.99404091946781" lon="129.41536598838866">
        <ele>11.4</ele>
        <time>2026-06-05T15:40:54</time>
      </trkpt>
      <trkpt lat="35.99402298219502" lon="129.4154239911586">
        <ele>11.4</ele>
        <time>2026-06-05T15:40:55</time>
      </trkpt>
      <trkpt lat="35.99400797858834" lon="129.41548098810017">
        <ele>11.4</ele>
        <time>2026-06-05T15:40:56</time>
      </trkpt>
      <trkpt lat="35.99399498663843" lon="129.41553697921336">
        <ele>11.4</ele>
        <time>2026-06-05T15:40:57</time>
      </trkpt>
      <trkpt lat="35.99397998303175" lon="129.4155899528414">
        <ele>11.4</ele>
        <time>2026-06-05T15:40:58</time>
      </trkpt>
      <trkpt lat="35.99396296776831" lon="129.41563898697495">
        <ele>11.2</ele>
        <time>2026-06-05T15:40:59</time>
      </trkpt>
      <trkpt lat="35.99394595250487" lon="129.41568399779499">
        <ele>11.2</ele>
        <time>2026-06-05T15:41:00</time>
      </trkpt>
      <trkpt lat="35.993929943069816" lon="129.41572892479599">
        <ele>11.2</ele>
        <time>2026-06-05T15:41:01</time>
      </trkpt>
      <trkpt lat="35.99391594529152" lon="129.41577292978764">
        <ele>11.2</ele>
        <time>2026-06-05T15:41:02</time>
      </trkpt>
      <trkpt lat="35.99389993585646" lon="129.41581894643605">
        <ele>11.2</ele>
        <time>2026-06-05T15:41:03</time>
      </trkpt>
      <trkpt lat="35.993884932249784" lon="129.41587099805474">
        <ele>11.4</ele>
        <time>2026-06-05T15:41:04</time>
      </trkpt>
      <trkpt lat="35.993867916986346" lon="129.41592891700566">
        <ele>11.4</ele>
        <time>2026-06-05T15:41:05</time>
      </trkpt>
      <trkpt lat="35.99384897388518" lon="129.41599094308913">
        <ele>11.4</ele>
        <time>2026-06-05T15:41:06</time>
      </trkpt>
      <trkpt lat="35.99382793530822" lon="129.41605699248612">
        <ele>11.4</ele>
        <time>2026-06-05T15:41:07</time>
      </trkpt>
      <trkpt lat="35.99380496889353" lon="129.41612496972084">
        <ele>11.6</ele>
        <time>2026-06-05T15:41:08</time>
      </trkpt>
      <trkpt lat="35.99377999082208" lon="129.41619495861232">
        <ele>11.6</ele>
        <time>2026-06-05T15:41:09</time>
      </trkpt>
      <trkpt lat="35.993754928931594" lon="129.41626595333219">
        <ele>11.6</ele>
        <time>2026-06-05T15:41:10</time>
      </trkpt>
      <trkpt lat="35.99372995086014" lon="129.41633694805205">
        <ele>11.6</ele>
        <time>2026-06-05T15:41:11</time>
      </trkpt>
      <trkpt lat="35.99370597861707" lon="129.41640693694353">
        <ele>11.6</ele>
        <time>2026-06-05T15:41:12</time>
      </trkpt>
      <trkpt lat="35.99368292838335" lon="129.41647499799728">
        <ele>11.6</ele>
        <time>2026-06-05T15:41:13</time>
      </trkpt>
      <trkpt lat="35.99366096779704" lon="129.41653895191848">
        <ele>11.6</ele>
        <time>2026-06-05T15:41:14</time>
      </trkpt>
      <trkpt lat="35.9936389233917" lon="129.41660097800195">
        <ele>11.6</ele>
        <time>2026-06-05T15:41:15</time>
      </trkpt>
      <trkpt lat="35.99361796863377" lon="129.41666199825704">
        <ele>11.6</ele>
        <time>2026-06-05T15:41:16</time>
      </trkpt>
      <trkpt lat="35.99359793588519" lon="129.41671991720796">
        <ele>11.6</ele>
        <time>2026-06-05T15:41:17</time>
      </trkpt>
      <trkpt lat="35.99357899278402" lon="129.41677599214017">
        <ele>11.6</ele>
        <time>2026-06-05T15:41:18</time>
      </trkpt>
      <trkpt lat="35.99355896003544" lon="129.41683298908174">
        <ele>11.6</ele>
        <time>2026-06-05T15:41:19</time>
      </trkpt>
      <trkpt lat="35.99353792145848" lon="129.4168899860233">
        <ele>11.6</ele>
        <time>2026-06-05T15:41:20</time>
      </trkpt>
      <trkpt lat="35.993516966700554" lon="129.41694991663098">
        <ele>11.6</ele>
        <time>2026-06-05T15:41:21</time>
      </trkpt>
      <trkpt lat="35.99349492229521" lon="129.41701093688607">
        <ele>11.6</ele>
        <time>2026-06-05T15:41:22</time>
      </trkpt>
      <trkpt lat="35.99347195588052" lon="129.41707598045468">
        <ele>11.6</ele>
        <time>2026-06-05T15:41:23</time>
      </trkpt>
      <trkpt lat="35.99344697780907" lon="129.41714295186102">
        <ele>11.6</ele>
        <time>2026-06-05T15:41:24</time>
      </trkpt>
      <trkpt lat="35.99341998808086" lon="129.4172129407525">
        <ele>11.6</ele>
        <time>2026-06-05T15:41:25</time>
      </trkpt>
      <trkpt lat="35.99339299835265" lon="129.41728494130075">
        <ele>11.6</ele>
        <time>2026-06-05T15:41:26</time>
      </trkpt>
      <trkpt lat="35.99336693063378" lon="129.417356941849">
        <ele>11.6</ele>
        <time>2026-06-05T15:41:27</time>
      </trkpt>
      <trkpt lat="35.99333994090557" lon="129.41742894239724">
        <ele>11.8</ele>
        <time>2026-06-05T15:41:28</time>
      </trkpt>
      <trkpt lat="35.99331395700574" lon="129.4174999371171">
        <ele>11.8</ele>
        <time>2026-06-05T15:41:29</time>
      </trkpt>
      <trkpt lat="35.99328696727753" lon="129.41756799817085">
        <ele>11.8</ele>
        <time>2026-06-05T15:41:30</time>
      </trkpt>
      <trkpt lat="35.993261989206076" lon="129.4176349695772">
        <ele>11.8</ele>
        <time>2026-06-05T15:41:31</time>
      </trkpt>
      <trkpt lat="35.99323793314397" lon="129.41770093515515">
        <ele>11.8</ele>
        <time>2026-06-05T15:41:32</time>
      </trkpt>
      <trkpt lat="35.99321194924414" lon="129.41776698455215">
        <ele>11.8</ele>
        <time>2026-06-05T15:41:33</time>
      </trkpt>
      <trkpt lat="35.99318697117269" lon="129.41783093847334">
        <ele>11.8</ele>
        <time>2026-06-05T15:41:34</time>
      </trkpt>
      <trkpt lat="35.99316392093897" lon="129.4178929645568">
        <ele>11.8</ele>
        <time>2026-06-05T15:41:35</time>
      </trkpt>
      <trkpt lat="35.99314095452428" lon="129.41795297898352">
        <ele>11.8</ele>
        <time>2026-06-05T15:41:36</time>
      </trkpt>
      <trkpt lat="35.99311899393797" lon="129.41801098175347">
        <ele>11.8</ele>
        <time>2026-06-05T15:41:37</time>
      </trkpt>
      <trkpt lat="35.99309896118939" lon="129.41806697286665">
        <ele>11.8</ele>
        <time>2026-06-05T15:41:38</time>
      </trkpt>
      <trkpt lat="35.99307792261243" lon="129.41812195815146">
        <ele>11.8</ele>
        <time>2026-06-05T15:41:39</time>
      </trkpt>
      <trkpt lat="35.99305797368288" lon="129.41817694343626">
        <ele>11.6</ele>
        <time>2026-06-05T15:41:40</time>
      </trkpt>
      <trkpt lat="35.99303592927754" lon="129.4182349462062">
        <ele>11.6</ele>
        <time>2026-06-05T15:41:41</time>
      </trkpt>
      <trkpt lat="35.99301296286285" lon="129.41829496063292">
        <ele>11.8</ele>
        <time>2026-06-05T15:41:42</time>
      </trkpt>
      <trkpt lat="35.9929879847914" lon="129.41835497505963">
        <ele>11.8</ele>
        <time>2026-06-05T15:41:43</time>
      </trkpt>
      <trkpt lat="35.992963928729296" lon="129.41841398365796">
        <ele>11.8</ele>
        <time>2026-06-05T15:41:44</time>
      </trkpt>
      <trkpt lat="35.992939956486225" lon="129.418474920094">
        <ele>11.8</ele>
        <time>2026-06-05T15:41:45</time>
      </trkpt>
      <trkpt lat="35.992914978414774" lon="129.41853996366262">
        <ele>11.8</ele>
        <time>2026-06-05T15:41:46</time>
      </trkpt>
      <trkpt lat="35.99288698285818" lon="129.41860693506896">
        <ele>11.8</ele>
        <time>2026-06-05T15:41:47</time>
      </trkpt>
      <trkpt lat="35.99285898730159" lon="129.41867792978883">
        <ele>11.8</ele>
        <time>2026-06-05T15:41:48</time>
      </trkpt>
      <trkpt lat="35.992830991744995" lon="129.41874993033707">
        <ele>11.8</ele>
        <time>2026-06-05T15:41:49</time>
      </trkpt>
      <trkpt lat="35.9928029961884" lon="129.41882494837046">
        <ele>11.8</ele>
        <time>2026-06-05T15:41:50</time>
      </trkpt>
      <trkpt lat="35.99277592264116" lon="129.41890097223222">
        <ele>11.8</ele>
        <time>2026-06-05T15:41:51</time>
      </trkpt>
      <trkpt lat="35.992746921256185" lon="129.41897791810334">
        <ele>11.8</ele>
        <time>2026-06-05T15:41:52</time>
      </trkpt>
      <trkpt lat="35.99271993152797" lon="129.41905595362186">
        <ele>11.8</ele>
        <time>2026-06-05T15:41:53</time>
      </trkpt>
      <trkpt lat="35.99269294179976" lon="129.41913197748363">
        <ele>11.8</ele>
        <time>2026-06-05T15:41:54</time>
      </trkpt>
      <trkpt lat="35.99266595207155" lon="129.41920598968863">
        <ele>11.8</ele>
        <time>2026-06-05T15:41:55</time>
      </trkpt>
      <trkpt lat="35.99264197982848" lon="129.4192799180746">
        <ele>11.8</ele>
        <time>2026-06-05T15:41:56</time>
      </trkpt>
      <trkpt lat="35.992618929594755" lon="129.419354936108">
        <ele>11.8</ele>
        <time>2026-06-05T15:41:57</time>
      </trkpt>
      <trkpt lat="35.992596969008446" lon="129.419428948313">
        <ele>11.8</ele>
        <time>2026-06-05T15:41:58</time>
      </trkpt>
      <trkpt lat="35.992574924603105" lon="129.41950497217476">
        <ele>11.8</ele>
        <time>2026-06-05T15:41:59</time>
      </trkpt>
      <trkpt lat="35.992552964016795" lon="129.41957898437977">
        <ele>11.6</ele>
        <time>2026-06-05T15:42:00</time>
      </trkpt>
      <trkpt lat="35.992531925439835" lon="129.4196519907564">
        <ele>11.6</ele>
        <time>2026-06-05T15:42:01</time>
      </trkpt>
      <trkpt lat="35.992511976510286" lon="129.41972399130464">
        <ele>11.6</ele>
        <time>2026-06-05T15:42:02</time>
      </trkpt>
      <trkpt lat="35.992491943761706" lon="129.41979196853936">
        <ele>11.6</ele>
        <time>2026-06-05T15:42:03</time>
      </trkpt>
      <trkpt lat="35.99247199483216" lon="129.4198589399457">
        <ele>11.6</ele>
        <time>2026-06-05T15:42:04</time>
      </trkpt>
      <trkpt lat="35.99245296791196" lon="129.41992297768593">
        <ele>11.4</ele>
        <time>2026-06-05T15:42:05</time>
      </trkpt>
      <trkpt lat="35.99243595264852" lon="129.41998491995037">
        <ele>11.4</ele>
        <time>2026-06-05T15:42:06</time>
      </trkpt>
      <trkpt lat="35.99241994321346" lon="129.42004694603384">
        <ele>11.4</ele>
        <time>2026-06-05T15:42:07</time>
      </trkpt>
      <trkpt lat="35.992402927950025" lon="129.42010494880378">
        <ele>11.4</ele>
        <time>2026-06-05T15:42:08</time>
      </trkpt>
      <trkpt lat="35.99238893017173" lon="129.4201589282602">
        <ele>11.2</ele>
        <time>2026-06-05T15:42:09</time>
      </trkpt>
      <trkpt lat="35.99237593822181" lon="129.42020896822214">
        <ele>11.2</ele>
        <time>2026-06-05T15:42:10</time>
      </trkpt>
      <trkpt lat="35.99236495792866" lon="129.42025498487055">
        <ele>11.2</ele>
        <time>2026-06-05T15:42:11</time>
      </trkpt>
      <trkpt lat="35.9923539776355" lon="129.42029798403382">
        <ele>11.2</ele>
        <time>2026-06-05T15:42:12</time>
      </trkpt>
      <trkpt lat="35.99234098568559" lon="129.42033897154033">
        <ele>11.2</ele>
        <time>2026-06-05T15:42:13</time>
      </trkpt>
      <trkpt lat="35.99232799373567" lon="129.42038096487522">
        <ele>11.2</ele>
        <time>2026-06-05T15:42:14</time>
      </trkpt>
      <trkpt lat="35.992317935451865" lon="129.42041994072497">
        <ele>11.2</ele>
        <time>2026-06-05T15:42:15</time>
      </trkpt>
      <trkpt lat="35.99230695515871" lon="129.420456988737">
        <ele>11.2</ele>
        <time>2026-06-05T15:42:16</time>
      </trkpt>
      <trkpt lat="35.992296980693936" lon="129.42049495875835">
        <ele>11.2</ele>
        <time>2026-06-05T15:42:17</time>
      </trkpt>
      <trkpt lat="35.99228692241013" lon="129.42053594626486">
        <ele>11.2</ele>
        <time>2026-06-05T15:42:18</time>
      </trkpt>
      <trkpt lat="35.992275942116976" lon="129.4205809570849">
        <ele>11.4</ele>
        <time>2026-06-05T15:42:19</time>
      </trkpt>
      <trkpt lat="35.99226395599544" lon="129.42063099704683">
        <ele>11.4</ele>
        <time>2026-06-05T15:42:20</time>
      </trkpt>
      <trkpt lat="35.992250964045525" lon="129.42068497650325">
        <ele>11.4</ele>
        <time>2026-06-05T15:42:21</time>
      </trkpt>
      <trkpt lat="35.99223696626723" lon="129.42074197344482">
        <ele>11.4</ele>
        <time>2026-06-05T15:42:22</time>
      </trkpt>
      <trkpt lat="35.99222196266055" lon="129.4207989703864">
        <ele>11.4</ele>
        <time>2026-06-05T15:42:23</time>
      </trkpt>
      <trkpt lat="35.992206959053874" lon="129.42085596732795">
        <ele>11.4</ele>
        <time>2026-06-05T15:42:24</time>
      </trkpt>
      <trkpt lat="35.9921919554472" lon="129.42091095261276">
        <ele>11.4</ele>
        <time>2026-06-05T15:42:25</time>
      </trkpt>
      <trkpt lat="35.99217896349728" lon="129.42096292041242">
        <ele>11.4</ele>
        <time>2026-06-05T15:42:26</time>
      </trkpt>
      <trkpt lat="35.992165971547365" lon="129.42101296037436">
        <ele>11.4</ele>
        <time>2026-06-05T15:42:27</time>
      </trkpt>
      <trkpt lat="35.99215197376907" lon="129.4210659340024">
        <ele>11.2</ele>
        <time>2026-06-05T15:42:28</time>
      </trkpt>
      <trkpt lat="35.99213797599077" lon="129.4211209192872">
        <ele>11.2</ele>
        <time>2026-06-05T15:42:29</time>
      </trkpt>
      <trkpt lat="35.992123978212476" lon="129.42117498256266">
        <ele>11.2</ele>
        <time>2026-06-05T15:42:30</time>
      </trkpt>
      <trkpt lat="35.99210998043418" lon="129.4212289620191">
        <ele>11.2</ele>
        <time>2026-06-05T15:42:31</time>
      </trkpt>
      <trkpt lat="35.99209598265588" lon="129.42128495313227">
        <ele>11.2</ele>
        <time>2026-06-05T15:42:32</time>
      </trkpt>
      <trkpt lat="35.992080979049206" lon="129.42134195007384">
        <ele>11.2</ele>
        <time>2026-06-05T15:42:33</time>
      </trkpt>
      <trkpt lat="35.99206496961415" lon="129.4213989470154">
        <ele>11.2</ele>
        <time>2026-06-05T15:42:34</time>
      </trkpt>
      <trkpt lat="35.99204896017909" lon="129.4214549381286">
        <ele>11.2</ele>
        <time>2026-06-05T15:42:35</time>
      </trkpt>
      <trkpt lat="35.99203295074403" lon="129.42151294089854">
        <ele>11.2</ele>
        <time>2026-06-05T15:42:36</time>
      </trkpt>
      <trkpt lat="35.992014929652214" lon="129.42157194949687">
        <ele>11.2</ele>
        <time>2026-06-05T15:42:37</time>
      </trkpt>
      <trkpt lat="35.99199699237943" lon="129.42163498140872">
        <ele>11.2</ele>
        <time>2026-06-05T15:42:38</time>
      </trkpt>
      <trkpt lat="35.99197897128761" lon="129.4216989353299">
        <ele>11.4</ele>
        <time>2026-06-05T15:42:39</time>
      </trkpt>
      <trkpt lat="35.99196195602417" lon="129.42176397889853">
        <ele>11.4</ele>
        <time>2026-06-05T15:42:40</time>
      </trkpt>
      <trkpt lat="35.99194494076073" lon="129.42182793281972">
        <ele>11.4</ele>
        <time>2026-06-05T15:42:41</time>
      </trkpt>
      <trkpt lat="35.99192792549729" lon="129.42189197055995">
        <ele>11.4</ele>
        <time>2026-06-05T15:42:42</time>
      </trkpt>
      <trkpt lat="35.99191099405289" lon="129.42195592448115">
        <ele>11.4</ele>
        <time>2026-06-05T15:42:43</time>
      </trkpt>
      <trkpt lat="35.99189498461783" lon="129.42202096804976">
        <ele>11.4</ele>
        <time>2026-06-05T15:42:44</time>
      </trkpt>
      <trkpt lat="35.99187796935439" lon="129.42208693362772">
        <ele>11.6</ele>
        <time>2026-06-05T15:42:45</time>
      </trkpt>
      <trkpt lat="35.99186095409095" lon="129.4221539888531">
        <ele>11.6</ele>
        <time>2026-06-05T15:42:46</time>
      </trkpt>
      <trkpt lat="35.991842932999134" lon="129.42222096025944">
        <ele>11.6</ele>
        <time>2026-06-05T15:42:47</time>
      </trkpt>
      <trkpt lat="35.99182499572635" lon="129.42228893749416">
        <ele>11.6</ele>
        <time>2026-06-05T15:42:48</time>
      </trkpt>
      <trkpt lat="35.991802951321006" lon="129.4223569985479">
        <ele>11.8</ele>
        <time>2026-06-05T15:42:49</time>
      </trkpt>
      <trkpt lat="35.99178199656308" lon="129.422425981611">
        <ele>11.8</ele>
        <time>2026-06-05T15:42:50</time>
      </trkpt>
      <trkpt lat="35.991760957986116" lon="129.42249697633088">
        <ele>11.8</ele>
        <time>2026-06-05T15:42:51</time>
      </trkpt>
      <trkpt lat="35.99174193106592" lon="129.42256595939398">
        <ele>11.8</ele>
        <time>2026-06-05T15:42:52</time>
      </trkpt>
      <trkpt lat="35.99172298796475" lon="129.42263494245708">
        <ele>11.8</ele>
        <time>2026-06-05T15:42:53</time>
      </trkpt>
      <trkpt lat="35.99170396104455" lon="129.42270392552018">
        <ele>11.8</ele>
        <time>2026-06-05T15:42:54</time>
      </trkpt>
      <trkpt lat="35.99168392829597" lon="129.42277198657393">
        <ele>11.8</ele>
        <time>2026-06-05T15:42:55</time>
      </trkpt>
      <trkpt lat="35.9916649851948" lon="129.42283996380866">
        <ele>11.8</ele>
        <time>2026-06-05T15:42:56</time>
      </trkpt>
      <trkpt lat="35.99164696410298" lon="129.422906935215">
        <ele>11.8</ele>
        <time>2026-06-05T15:42:57</time>
      </trkpt>
      <trkpt lat="35.991630954667926" lon="129.422972984612">
        <ele>11.8</ele>
        <time>2026-06-05T15:42:58</time>
      </trkpt>
      <trkpt lat="35.99161595106125" lon="129.42303895018995">
        <ele>11.8</ele>
        <time>2026-06-05T15:42:59</time>
      </trkpt>
      <trkpt lat="35.99159994162619" lon="129.42310499958694">
        <ele>11.8</ele>
        <time>2026-06-05T15:43:00</time>
      </trkpt>
      <trkpt lat="35.99158192053437" lon="129.4231709651649">
        <ele>11.8</ele>
        <time>2026-06-05T15:43:01</time>
      </trkpt>
      <trkpt lat="35.991564989089966" lon="129.42323894239962">
        <ele>11.8</ele>
        <time>2026-06-05T15:43:02</time>
      </trkpt>
      <trkpt lat="35.99154897965491" lon="129.42330792546272">
        <ele>11.8</ele>
        <time>2026-06-05T15:43:03</time>
      </trkpt>
      <trkpt lat="35.99153297021985" lon="129.42337892018259">
        <ele>11.8</ele>
        <time>2026-06-05T15:43:04</time>
      </trkpt>
      <trkpt lat="35.99151796661317" lon="129.4234489928931">
        <ele>11.8</ele>
        <time>2026-06-05T15:43:05</time>
      </trkpt>
      <trkpt lat="35.991501957178116" lon="129.4235179759562">
        <ele>11.8</ele>
        <time>2026-06-05T15:43:06</time>
      </trkpt>
      <trkpt lat="35.99148594774306" lon="129.42358494736254">
        <ele>11.8</ele>
        <time>2026-06-05T15:43:07</time>
      </trkpt>
      <trkpt lat="35.991469938308" lon="129.42364999093115">
        <ele>11.6</ele>
        <time>2026-06-05T15:43:08</time>
      </trkpt>
      <trkpt lat="35.99145392887294" lon="129.42371495068073">
        <ele>11.6</ele>
        <time>2026-06-05T15:43:09</time>
      </trkpt>
      <trkpt lat="35.991438925266266" lon="129.42377999424934">
        <ele>11.6</ele>
        <time>2026-06-05T15:43:10</time>
      </trkpt>
      <trkpt lat="35.99142392165959" lon="129.4238459598273">
        <ele>11.6</ele>
        <time>2026-06-05T15:43:11</time>
      </trkpt>
      <trkpt lat="35.99140799604356" lon="129.42391192540526">
        <ele>11.4</ele>
        <time>2026-06-05T15:43:12</time>
      </trkpt>
      <trkpt lat="35.991394920274615" lon="129.4239809922874">
        <ele>11.4</ele>
        <time>2026-06-05T15:43:13</time>
      </trkpt>
      <trkpt lat="35.99137991666794" lon="129.42405299283564">
        <ele>11.4</ele>
        <time>2026-06-05T15:43:14</time>
      </trkpt>
      <trkpt lat="35.99136499688029" lon="129.42412792705">
        <ele>11.4</ele>
        <time>2026-06-05T15:43:15</time>
      </trkpt>
      <trkpt lat="35.991348987445235" lon="129.42420294508338">
        <ele>11.4</ele>
        <time>2026-06-05T15:43:16</time>
      </trkpt>
      <trkpt lat="35.99133398383856" lon="129.42427595146">
        <ele>11.4</ele>
        <time>2026-06-05T15:43:17</time>
      </trkpt>
      <trkpt lat="35.99131898023188" lon="129.42434694617987">
        <ele>11.4</ele>
        <time>2026-06-05T15:43:18</time>
      </trkpt>
      <trkpt lat="35.991303976625204" lon="129.42441592924297">
        <ele>11.4</ele>
        <time>2026-06-05T15:43:19</time>
      </trkpt>
      <trkpt lat="35.991287967190146" lon="129.42448197863996">
        <ele>11.4</ele>
        <time>2026-06-05T15:43:20</time>
      </trkpt>
      <trkpt lat="35.99127396941185" lon="129.42454693838954">
        <ele>11.4</ele>
        <time>2026-06-05T15:43:21</time>
      </trkpt>
      <trkpt lat="35.99125997163355" lon="129.42461198195815">
        <ele>11.4</ele>
        <time>2026-06-05T15:43:22</time>
      </trkpt>
      <trkpt lat="35.99124496802688" lon="129.42467694170773">
        <ele>11.4</ele>
        <time>2026-06-05T15:43:23</time>
      </trkpt>
      <trkpt lat="35.9912299644202" lon="129.42474097944796">
        <ele>11.4</ele>
        <time>2026-06-05T15:43:24</time>
      </trkpt>
      <trkpt lat="35.99121395498514" lon="129.4248029217124">
        <ele>11.4</ele>
        <time>2026-06-05T15:43:25</time>
      </trkpt>
      <trkpt lat="35.991198951378465" lon="129.42486494779587">
        <ele>11.4</ele>
        <time>2026-06-05T15:43:26</time>
      </trkpt>
      <trkpt lat="35.99118394777179" lon="129.42492697387934">
        <ele>11.4</ele>
        <time>2026-06-05T15:43:27</time>
      </trkpt>
      <trkpt lat="35.99116994999349" lon="129.42498992197216">
        <ele>11.4</ele>
        <time>2026-06-05T15:43:28</time>
      </trkpt>
      <trkpt lat="35.99115394055843" lon="129.42505194805562">
        <ele>11.4</ele>
        <time>2026-06-05T15:43:29</time>
      </trkpt>
      <trkpt lat="35.991137931123376" lon="129.4251139741391">
        <ele>11.4</ele>
        <time>2026-06-05T15:43:30</time>
      </trkpt>
      <trkpt lat="35.9911229275167" lon="129.4251779280603">
        <ele>11.4</ele>
        <time>2026-06-05T15:43:31</time>
      </trkpt>
      <trkpt lat="35.99110792391002" lon="129.42524397745728">
        <ele>11.4</ele>
        <time>2026-06-05T15:43:32</time>
      </trkpt>
      <trkpt lat="35.991093926131725" lon="129.425311954692">
        <ele>11.4</ele>
        <time>2026-06-05T15:43:33</time>
      </trkpt>
      <trkpt lat="35.99108093418181" lon="129.42537993192673">
        <ele>11.4</ele>
        <time>2026-06-05T15:43:34</time>
      </trkpt>
      <trkpt lat="35.991070959717035" lon="129.42544598132372">
        <ele>11.4</ele>
        <time>2026-06-05T15:43:35</time>
      </trkpt>
      <trkpt lat="35.99106098525226" lon="129.42550993524492">
        <ele>11.4</ele>
        <time>2026-06-05T15:43:36</time>
      </trkpt>
      <trkpt lat="35.991050926968455" lon="129.42557397298515">
        <ele>11.2</ele>
        <time>2026-06-05T15:43:37</time>
      </trkpt>
      <trkpt lat="35.99103894084692" lon="129.42563792690635">
        <ele>11.2</ele>
        <time>2026-06-05T15:43:38</time>
      </trkpt>
      <trkpt lat="35.99102293141186" lon="129.42570297047496">
        <ele>11.2</ele>
        <time>2026-06-05T15:43:39</time>
      </trkpt>
      <trkpt lat="35.991006921976805" lon="129.4257699418813">
        <ele>11.2</ele>
        <time>2026-06-05T15:43:40</time>
      </trkpt>
      <trkpt lat="35.99099191837013" lon="129.4258389249444">
        <ele>11.2</ele>
        <time>2026-06-05T15:43:41</time>
      </trkpt>
      <trkpt lat="35.99097699858248" lon="129.42590899765491">
        <ele>11.2</ele>
        <time>2026-06-05T15:43:42</time>
      </trkpt>
      <trkpt lat="35.99095897749066" lon="129.42598099820316">
        <ele>11.2</ele>
        <time>2026-06-05T15:43:43</time>
      </trkpt>
      <trkpt lat="35.990939950570464" lon="129.42605392076075">
        <ele>11.2</ele>
        <time>2026-06-05T15:43:44</time>
      </trkpt>
      <trkpt lat="35.990922935307026" lon="129.42612994462252">
        <ele>11.2</ele>
        <time>2026-06-05T15:43:45</time>
      </trkpt>
      <trkpt lat="35.99090793170035" lon="129.42620596848428">
        <ele>11.4</ele>
        <time>2026-06-05T15:43:46</time>
      </trkpt>
      <trkpt lat="35.99089393392205" lon="129.4262799806893">
        <ele>11.4</ele>
        <time>2026-06-05T15:43:47</time>
      </trkpt>
      <trkpt lat="35.99088094197214" lon="129.42635198123753">
        <ele>11.4</ele>
        <time>2026-06-05T15:43:48</time>
      </trkpt>
      <trkpt lat="35.99086795002222" lon="129.42641895264387">
        <ele>11.6</ele>
        <time>2026-06-05T15:43:49</time>
      </trkpt>
      <trkpt lat="35.990856969729066" lon="129.42648399621248">
        <ele>11.6</ele>
        <time>2026-06-05T15:43:50</time>
      </trkpt>
      <trkpt lat="35.99084791727364" lon="129.4265469443053">
        <ele>11.6</ele>
        <time>2026-06-05T15:43:51</time>
      </trkpt>
      <trkpt lat="35.99083794280887" lon="129.4266079645604">
        <ele>11.6</ele>
        <time>2026-06-05T15:43:52</time>
      </trkpt>
      <trkpt lat="35.99082796834409" lon="129.4266679789871">
        <ele>11.6</ele>
        <time>2026-06-05T15:43:53</time>
      </trkpt>
      <trkpt lat="35.99081598222256" lon="129.42672497592866">
        <ele>11.8</ele>
        <time>2026-06-05T15:43:54</time>
      </trkpt>
      <trkpt lat="35.99080399610102" lon="129.42678096704185">
        <ele>11.8</ele>
        <time>2026-06-05T15:43:55</time>
      </trkpt>
      <trkpt lat="35.990791926160455" lon="129.42684098146856">
        <ele>11.8</ele>
        <time>2026-06-05T15:43:56</time>
      </trkpt>
      <trkpt lat="35.99077893421054" lon="129.426902923733">
        <ele>11.8</ele>
        <time>2026-06-05T15:43:57</time>
      </trkpt>
      <trkpt lat="35.99076594226062" lon="129.42696696147323">
        <ele>12.0</ele>
        <time>2026-06-05T15:43:58</time>
      </trkpt>
      <trkpt lat="35.990750938653946" lon="129.4270319212228">
        <ele>12.0</ele>
        <time>2026-06-05T15:43:59</time>
      </trkpt>
      <trkpt lat="35.99073492921889" lon="129.42709696479142">
        <ele>12.2</ele>
        <time>2026-06-05T15:44:00</time>
      </trkpt>
      <trkpt lat="35.99071891978383" lon="129.42716494202614">
        <ele>12.2</ele>
        <time>2026-06-05T15:44:01</time>
      </trkpt>
      <trkpt lat="35.990703999996185" lon="129.42723493091762">
        <ele>12.4</ele>
        <time>2026-06-05T15:44:02</time>
      </trkpt>
      <trkpt lat="35.99068899638951" lon="129.42730793729424">
        <ele>12.4</ele>
        <time>2026-06-05T15:44:03</time>
      </trkpt>
      <trkpt lat="35.99067499861121" lon="129.42738295532763">
        <ele>12.6</ele>
        <time>2026-06-05T15:44:04</time>
      </trkpt>
      <trkpt lat="35.990659995004535" lon="129.4274589791894">
        <ele>12.6</ele>
        <time>2026-06-05T15:44:05</time>
      </trkpt>
      <trkpt lat="35.99064398556948" lon="129.42753491923213">
        <ele>12.8</ele>
        <time>2026-06-05T15:44:06</time>
      </trkpt>
      <trkpt lat="35.99062697030604" lon="129.42760993726552">
        <ele>12.8</ele>
        <time>2026-06-05T15:44:07</time>
      </trkpt>
      <trkpt lat="35.9906099550426" lon="129.42768294364214">
        <ele>12.8</ele>
        <time>2026-06-05T15:44:08</time>
      </trkpt>
      <trkpt lat="35.990595957264304" lon="129.42775494419038">
        <ele>13.0</ele>
        <time>2026-06-05T15:44:09</time>
      </trkpt>
      <trkpt lat="35.99058195948601" lon="129.42782593891025">
        <ele>13.0</ele>
        <time>2026-06-05T15:44:10</time>
      </trkpt>
      <trkpt lat="35.99056896753609" lon="129.427893999964">
        <ele>13.0</ele>
        <time>2026-06-05T15:44:11</time>
      </trkpt>
      <trkpt lat="35.990554969757795" lon="129.42796097137034">
        <ele>13.0</ele>
        <time>2026-06-05T15:44:12</time>
      </trkpt>
      <trkpt lat="35.99053896032274" lon="129.4280269369483">
        <ele>13.0</ele>
        <time>2026-06-05T15:44:13</time>
      </trkpt>
      <trkpt lat="35.99052093923092" lon="129.4280919805169">
        <ele>13.0</ele>
        <time>2026-06-05T15:44:14</time>
      </trkpt>
      <trkpt lat="35.99050199612975" lon="129.42815995775163">
        <ele>13.0</ele>
        <time>2026-06-05T15:44:15</time>
      </trkpt>
      <trkpt lat="35.99048196338117" lon="129.42822894081473">
        <ele>13.0</ele>
        <time>2026-06-05T15:44:16</time>
      </trkpt>
      <trkpt lat="35.99046092480421" lon="129.42829792387784">
        <ele>13.2</ele>
        <time>2026-06-05T15:44:17</time>
      </trkpt>
      <trkpt lat="35.99044097587466" lon="129.42836799658835">
        <ele>13.2</ele>
        <time>2026-06-05T15:44:18</time>
      </trkpt>
      <trkpt lat="35.99042094312608" lon="129.42843798547983">
        <ele>13.2</ele>
        <time>2026-06-05T15:44:19</time>
      </trkpt>
      <trkpt lat="35.990399988368154" lon="129.42850596271455">
        <ele>13.4</ele>
        <time>2026-06-05T15:44:20</time>
      </trkpt>
      <trkpt lat="35.99037794396281" lon="129.42857393994927">
        <ele>13.4</ele>
        <time>2026-06-05T15:44:21</time>
      </trkpt>
      <trkpt lat="35.9903559833765" lon="129.428641917184">
        <ele>13.4</ele>
        <time>2026-06-05T15:44:22</time>
      </trkpt>
      <trkpt lat="35.99033595062792" lon="129.42871098406613">
        <ele>13.6</ele>
        <time>2026-06-05T15:44:23</time>
      </trkpt>
      <trkpt lat="35.990316923707724" lon="129.42877996712923">
        <ele>13.6</ele>
        <time>2026-06-05T15:44:24</time>
      </trkpt>
      <trkpt lat="35.99029898643494" lon="129.4288499560207">
        <ele>13.6</ele>
        <time>2026-06-05T15:44:25</time>
      </trkpt>
      <trkpt lat="35.99027995951474" lon="129.42892095074058">
        <ele>13.6</ele>
        <time>2026-06-05T15:44:26</time>
      </trkpt>
      <trkpt lat="35.99026193842292" lon="129.4289939571172">
        <ele>13.6</ele>
        <time>2026-06-05T15:44:27</time>
      </trkpt>
      <trkpt lat="35.9902439173311" lon="129.42906897515059">
        <ele>13.6</ele>
        <time>2026-06-05T15:44:28</time>
      </trkpt>
      <trkpt lat="35.99022497422993" lon="129.42914499901235">
        <ele>13.6</ele>
        <time>2026-06-05T15:44:29</time>
      </trkpt>
      <trkpt lat="35.99020695313811" lon="129.42922093905509">
        <ele>13.6</ele>
        <time>2026-06-05T15:44:30</time>
      </trkpt>
      <trkpt lat="35.990189937874675" lon="129.42929696291685">
        <ele>13.6</ele>
        <time>2026-06-05T15:44:31</time>
      </trkpt>
      <trkpt lat="35.99017292261124" lon="129.42937198095024">
        <ele>13.4</ele>
        <time>2026-06-05T15:44:32</time>
      </trkpt>
      <trkpt lat="35.99015699699521" lon="129.42944699898362">
        <ele>13.4</ele>
        <time>2026-06-05T15:44:33</time>
      </trkpt>
      <trkpt lat="35.990141993388534" lon="129.4295209273696">
        <ele>13.4</ele>
        <time>2026-06-05T15:44:34</time>
      </trkpt>
      <trkpt lat="35.990125983953476" lon="129.4295949395746">
        <ele>13.2</ele>
        <time>2026-06-05T15:44:35</time>
      </trkpt>
      <trkpt lat="35.99010997451842" lon="129.42966794595122">
        <ele>13.2</ele>
        <time>2026-06-05T15:44:36</time>
      </trkpt>
      <trkpt lat="35.99009497091174" lon="129.42973994649947">
        <ele>13.2</ele>
        <time>2026-06-05T15:44:37</time>
      </trkpt>
      <trkpt lat="35.990078961476684" lon="129.4298119470477">
        <ele>13.0</ele>
        <time>2026-06-05T15:44:38</time>
      </trkpt>
      <trkpt lat="35.990062952041626" lon="129.42988495342433">
        <ele>13.0</ele>
        <time>2026-06-05T15:44:39</time>
      </trkpt>
      <trkpt lat="35.99004593677819" lon="129.42995997145772">
        <ele>13.0</ele>
        <time>2026-06-05T15:44:40</time>
      </trkpt>
      <trkpt lat="35.99002699367702" lon="129.4300349894911">
        <ele>13.0</ele>
        <time>2026-06-05T15:44:41</time>
      </trkpt>
      <trkpt lat="35.99000796675682" lon="129.43011193536222">
        <ele>13.0</ele>
        <time>2026-06-05T15:44:42</time>
      </trkpt>
      <trkpt lat="35.989989945665" lon="129.43018795922399">
        <ele>13.0</ele>
        <time>2026-06-05T15:44:43</time>
      </trkpt>
      <trkpt lat="35.9899709187448" lon="129.430261971429">
        <ele>12.8</ele>
        <time>2026-06-05T15:44:44</time>
      </trkpt>
      <trkpt lat="35.989951975643635" lon="129.43033497780561">
        <ele>12.8</ele>
        <time>2026-06-05T15:44:45</time>
      </trkpt>
      <trkpt lat="35.989931942895055" lon="129.4304049666971">
        <ele>12.8</ele>
        <time>2026-06-05T15:44:46</time>
      </trkpt>
      <trkpt lat="35.98991199396551" lon="129.43047294393182">
        <ele>12.8</ele>
        <time>2026-06-05T15:44:47</time>
      </trkpt>
      <trkpt lat="35.98989296704531" lon="129.4305399991572">
        <ele>12.8</ele>
        <time>2026-06-05T15:44:48</time>
      </trkpt>
      <trkpt lat="35.98987394012511" lon="129.43060596473515">
        <ele>12.6</ele>
        <time>2026-06-05T15:44:49</time>
      </trkpt>
      <trkpt lat="35.98985399119556" lon="129.43066991865635">
        <ele>12.6</ele>
        <time>2026-06-05T15:44:50</time>
      </trkpt>
      <trkpt lat="35.9898329526186" lon="129.4307329505682">
        <ele>12.6</ele>
        <time>2026-06-05T15:44:51</time>
      </trkpt>
      <trkpt lat="35.9898139256984" lon="129.43079497665167">
        <ele>12.4</ele>
        <time>2026-06-05T15:44:52</time>
      </trkpt>
      <trkpt lat="35.98979498259723" lon="129.43085499107838">
        <ele>12.4</ele>
        <time>2026-06-05T15:44:53</time>
      </trkpt>
      <trkpt lat="35.98977595567703" lon="129.43091198801994">
        <ele>12.4</ele>
        <time>2026-06-05T15:44:54</time>
      </trkpt>
      <trkpt lat="35.989760952070355" lon="129.43096596747637">
        <ele>12.4</ele>
        <time>2026-06-05T15:44:55</time>
      </trkpt>
      <trkpt lat="35.98975097760558" lon="129.43101793527603">
        <ele>12.2</ele>
        <time>2026-06-05T15:44:56</time>
      </trkpt>
      <trkpt lat="35.98974293097854" lon="129.43106898106635">
        <ele>12.2</ele>
        <time>2026-06-05T15:44:57</time>
      </trkpt>
      <trkpt lat="35.989730944857" lon="129.43111994303763">
        <ele>12.2</ele>
        <time>2026-06-05T15:44:58</time>
      </trkpt>
      <trkpt lat="35.989714935421944" lon="129.43117291666567">
        <ele>12.2</ele>
        <time>2026-06-05T15:44:59</time>
      </trkpt>
      <trkpt lat="35.989693980664015" lon="129.43122999742627">
        <ele>12.0</ele>
        <time>2026-06-05T15:45:00</time>
      </trkpt>
      <trkpt lat="35.98966992460191" lon="129.43129093386233">
        <ele>12.0</ele>
        <time>2026-06-05T15:45:01</time>
      </trkpt>
      <trkpt lat="35.98964595235884" lon="129.43135698325932">
        <ele>11.8</ele>
        <time>2026-06-05T15:45:02</time>
      </trkpt>
      <trkpt lat="35.98961996845901" lon="129.43142596632242">
        <ele>11.8</ele>
        <time>2026-06-05T15:45:03</time>
      </trkpt>
      <trkpt lat="35.9895929787308" lon="129.43149997852743">
        <ele>11.8</ele>
        <time>2026-06-05T15:45:04</time>
      </trkpt>
      <trkpt lat="35.989564983174205" lon="129.4315789360553">
        <ele>11.8</ele>
        <time>2026-06-05T15:45:05</time>
      </trkpt>
      <trkpt lat="35.98953598178923" lon="129.43166099488735">
        <ele>11.8</ele>
        <time>2026-06-05T15:45:06</time>
      </trkpt>
      <trkpt lat="35.98950899206102" lon="129.43174498155713">
        <ele>11.6</ele>
        <time>2026-06-05T15:45:07</time>
      </trkpt>
      <trkpt lat="35.98948493599892" lon="129.4318299740553">
        <ele>11.6</ele>
        <time>2026-06-05T15:45:08</time>
      </trkpt>
      <trkpt lat="35.98946792073548" lon="129.43191496655345">
        <ele>11.6</ele>
        <time>2026-06-05T15:45:09</time>
      </trkpt>
      <trkpt lat="35.989457946270704" lon="129.43199895322323">
        <ele>11.6</ele>
        <time>2026-06-05T15:45:10</time>
      </trkpt>
      <trkpt lat="35.9894529171288" lon="129.4320839457214">
        <ele>11.6</ele>
        <time>2026-06-05T15:45:11</time>
      </trkpt>
      <trkpt lat="35.98945199511945" lon="129.43216893821955">
        <ele>11.6</ele>
        <time>2026-06-05T15:45:12</time>
      </trkpt>
      <trkpt lat="35.98945492878556" lon="129.43225694820285">
        <ele>11.6</ele>
        <time>2026-06-05T15:45:13</time>
      </trkpt>
      <trkpt lat="35.989456940442324" lon="129.43234495818615">
        <ele>11.6</ele>
        <time>2026-06-05T15:45:14</time>
      </trkpt>
      <trkpt lat="35.989459957927465" lon="129.4324349798262">
        <ele>11.6</ele>
        <time>2026-06-05T15:45:15</time>
      </trkpt>
      <trkpt lat="35.98946297541261" lon="129.43252491764724">
        <ele>11.6</ele>
        <time>2026-06-05T15:45:16</time>
      </trkpt>
      <trkpt lat="35.98946498706937" lon="129.43261594511569">
        <ele>11.6</ele>
        <time>2026-06-05T15:45:17</time>
      </trkpt>
      <trkpt lat="35.98946699872613" lon="129.43270697258413">
        <ele>11.6</ele>
        <time>2026-06-05T15:45:18</time>
      </trkpt>
      <trkpt lat="35.98946892656386" lon="129.43279791623354">
        <ele>11.6</ele>
        <time>2026-06-05T15:45:19</time>
      </trkpt>
      <trkpt lat="35.98946993239224" lon="129.43288894370198">
        <ele>11.6</ele>
        <time>2026-06-05T15:45:20</time>
      </trkpt>
      <trkpt lat="35.989471944049" lon="129.43297896534204">
        <ele>11.6</ele>
        <time>2026-06-05T15:45:21</time>
      </trkpt>
      <trkpt lat="35.98947395570576" lon="129.4330689869821">
        <ele>11.6</ele>
        <time>2026-06-05T15:45:22</time>
      </trkpt>
      <trkpt lat="35.98947596736252" lon="129.43315892480314">
        <ele>11.6</ele>
        <time>2026-06-05T15:45:23</time>
      </trkpt>
      <trkpt lat="35.98947596736252" lon="129.43324794061482">
        <ele>11.6</ele>
        <time>2026-06-05T15:45:24</time>
      </trkpt>
      <trkpt lat="35.98947596736252" lon="129.43333796225488">
        <ele>11.6</ele>
        <time>2026-06-05T15:45:25</time>
      </trkpt>
      <trkpt lat="35.989476973190904" lon="129.43342697806656">
        <ele>11.6</ele>
        <time>2026-06-05T15:45:26</time>
      </trkpt>
      <trkpt lat="35.989477979019284" lon="129.43351498804986">
        <ele>11.6</ele>
        <time>2026-06-05T15:45:27</time>
      </trkpt>
      <trkpt lat="35.989478984847665" lon="129.43360299803317">
        <ele>11.6</ele>
        <time>2026-06-05T15:45:28</time>
      </trkpt>
      <trkpt lat="35.989477979019284" lon="129.43368991836905">
        <ele>11.6</ele>
        <time>2026-06-05T15:45:29</time>
      </trkpt>
      <trkpt lat="35.98947496153414" lon="129.43377792835236">
        <ele>11.6</ele>
        <time>2026-06-05T15:45:30</time>
      </trkpt>
      <trkpt lat="35.98946599289775" lon="129.4338689558208">
        <ele>11.6</ele>
        <time>2026-06-05T15:45:31</time>
      </trkpt>
      <trkpt lat="35.98944998346269" lon="129.43395998328924">
        <ele>11.6</ele>
        <time>2026-06-05T15:45:32</time>
      </trkpt>
      <trkpt lat="35.98942793905735" lon="129.43405092693865">
        <ele>11.6</ele>
        <time>2026-06-05T15:45:33</time>
      </trkpt>
      <trkpt lat="35.98939994350076" lon="129.43413793109357">
        <ele>11.6</ele>
        <time>2026-06-05T15:45:34</time>
      </trkpt>
      <trkpt lat="35.98936398513615" lon="129.43421898409724">
        <ele>11.6</ele>
        <time>2026-06-05T15:45:35</time>
      </trkpt>
      <trkpt lat="35.98932199180126" lon="129.43429299630225">
        <ele>11.6</ele>
        <time>2026-06-05T15:45:36</time>
      </trkpt>
      <trkpt lat="35.98927496932447" lon="129.43435795605183">
        <ele>11.6</ele>
        <time>2026-06-05T15:45:37</time>
      </trkpt>
      <trkpt lat="35.989224929362535" lon="129.43441595882177">
        <ele>11.6</ele>
        <time>2026-06-05T15:45:38</time>
      </trkpt>
      <trkpt lat="35.98917296156287" lon="129.43447094410658">
        <ele>11.6</ele>
        <time>2026-06-05T15:45:39</time>
      </trkpt>
      <trkpt lat="35.98912099376321" lon="129.43452391773462">
        <ele>11.6</ele>
        <time>2026-06-05T15:45:40</time>
      </trkpt>
      <trkpt lat="35.98906793631613" lon="129.43457596935332">
        <ele>11.4</ele>
        <time>2026-06-05T15:45:41</time>
      </trkpt>
      <trkpt lat="35.98901496268809" lon="129.43462592549622">
        <ele>11.2</ele>
        <time>2026-06-05T15:45:42</time>
      </trkpt>
      <trkpt lat="35.988962994888425" lon="129.4346739538014">
        <ele>11.0</ele>
        <time>2026-06-05T15:45:43</time>
      </trkpt>
      <trkpt lat="35.98891496658325" lon="129.4347249995917">
        <ele>11.0</ele>
        <time>2026-06-05T15:45:44</time>
      </trkpt>
      <trkpt lat="35.98886894993484" lon="129.43477897904813">
        <ele>10.8</ele>
        <time>2026-06-05T15:45:45</time>
      </trkpt>
      <trkpt lat="35.98882494494319" lon="129.43483195267618">
        <ele>10.8</ele>
        <time>2026-06-05T15:45:46</time>
      </trkpt>
      <trkpt lat="35.98877993412316" lon="129.4348819926381">
        <ele>10.6</ele>
        <time>2026-06-05T15:45:47</time>
      </trkpt>
      <trkpt lat="35.98873098380864" lon="129.43492599762976">
        <ele>10.4</ele>
        <time>2026-06-05T15:45:48</time>
      </trkpt>
      <trkpt lat="35.98867993801832" lon="129.4349599443376">
        <ele>10.4</ele>
        <time>2026-06-05T15:45:49</time>
      </trkpt>
      <trkpt lat="35.98862797021866" lon="129.43498492240906">
        <ele>10.4</ele>
        <time>2026-06-05T15:45:50</time>
      </trkpt>
      <trkpt lat="35.988574996590614" lon="129.4350019376725">
        <ele>10.4</ele>
        <time>2026-06-05T15:45:51</time>
      </trkpt>
      <trkpt lat="35.98852294497192" lon="129.43500998429954">
        <ele>10.4</ele>
        <time>2026-06-05T15:45:52</time>
      </trkpt>
      <trkpt lat="35.9884739946574" lon="129.4350119959563">
        <ele>10.4</ele>
        <time>2026-06-05T15:45:53</time>
      </trkpt>
      <trkpt lat="35.988428983837366" lon="129.43500897847116">
        <ele>10.6</ele>
        <time>2026-06-05T15:45:54</time>
      </trkpt>
      <trkpt lat="35.98839092999697" lon="129.43500294350088">
        <ele>10.6</ele>
        <time>2026-06-05T15:45:55</time>
      </trkpt>
      <trkpt lat="35.98835698328912" lon="129.43499498069286">
        <ele>10.8</ele>
        <time>2026-06-05T15:45:56</time>
      </trkpt>
      <trkpt lat="35.98832597024739" lon="129.4349879398942">
        <ele>11.0</ele>
        <time>2026-06-05T15:45:57</time>
      </trkpt>
      <trkpt lat="35.988295963034034" lon="129.43498098291457">
        <ele>11.2</ele>
        <time>2026-06-05T15:45:58</time>
      </trkpt>
      <trkpt lat="35.98826796747744" lon="129.43497695960104">
        <ele>11.4</ele>
        <time>2026-06-05T15:45:59</time>
      </trkpt>
      <trkpt lat="35.98823796026409" lon="129.43497695960104">
        <ele>11.6</ele>
        <time>2026-06-05T15:46:00</time>
      </trkpt>
      <trkpt lat="35.98820895887911" lon="129.4349789712578">
        <ele>11.8</ele>
        <time>2026-06-05T15:46:01</time>
      </trkpt>
      <trkpt lat="35.98817895166576" lon="129.4349799770862">
        <ele>12.2</ele>
        <time>2026-06-05T15:46:02</time>
      </trkpt>
      <trkpt lat="35.988147938624024" lon="129.43497796542943">
        <ele>12.4</ele>
        <time>2026-06-05T15:46:03</time>
      </trkpt>
      <trkpt lat="35.98811893723905" lon="129.43497494794428">
        <ele>12.6</ele>
        <time>2026-06-05T15:46:04</time>
      </trkpt>
      <trkpt lat="35.98809094168246" lon="129.43497193045914">
        <ele>12.8</ele>
        <time>2026-06-05T15:46:05</time>
      </trkpt>
      <trkpt lat="35.98806696943939" lon="129.43496899679303">
        <ele>13.0</ele>
        <time>2026-06-05T15:46:06</time>
      </trkpt>
      <trkpt lat="35.98804794251919" lon="129.43496396765113">
        <ele>13.2</ele>
        <time>2026-06-05T15:46:07</time>
      </trkpt>
      <trkpt lat="35.98803495056927" lon="129.43495893850923">
        <ele>13.4</ele>
        <time>2026-06-05T15:46:08</time>
      </trkpt>
      <trkpt lat="35.98802992142737" lon="129.43495592102408">
        <ele>13.6</ele>
        <time>2026-06-05T15:46:09</time>
      </trkpt>
      <trkpt lat="35.98802799358964" lon="129.43495298735797">
        <ele>13.6</ele>
        <time>2026-06-05T15:46:10</time>
      </trkpt>
      <trkpt lat="35.98802992142737" lon="129.4349509757012">
        <ele>13.8</ele>
        <time>2026-06-05T15:46:11</time>
      </trkpt>
      <trkpt lat="35.98803193308413" lon="129.4349509757012">
        <ele>13.8</ele>
        <time>2026-06-05T15:46:12</time>
      </trkpt>
      <trkpt lat="35.98803696222603" lon="129.43499598652124">
        <ele>14.2</ele>
        <time>2026-06-05T15:46:21</time>
      </trkpt>
      <trkpt lat="35.98805096000433" lon="129.4350149296224">
        <ele>14.2</ele>
        <time>2026-06-05T15:46:22</time>
      </trkpt>
      <trkpt lat="35.98807292059064" lon="129.43503295071423">
        <ele>14.0</ele>
        <time>2026-06-05T15:46:23</time>
      </trkpt>
      <trkpt lat="35.98810292780399" lon="129.4350479543209">
        <ele>13.8</ele>
        <time>2026-06-05T15:46:24</time>
      </trkpt>
      <trkpt lat="35.98814198747277" lon="129.43505893461406">
        <ele>13.6</ele>
        <time>2026-06-05T15:46:25</time>
      </trkpt>
      <trkpt lat="35.988186998292804" lon="129.43506597541273">
        <ele>13.4</ele>
        <time>2026-06-05T15:46:26</time>
      </trkpt>
      <trkpt lat="35.98823796026409" lon="129.43507393822074">
        <ele>13.2</ele>
        <time>2026-06-05T15:46:27</time>
      </trkpt>
      <trkpt lat="35.98829495720565" lon="129.43507997319102">
        <ele>13.0</ele>
        <time>2026-06-05T15:46:28</time>
      </trkpt>
      <trkpt lat="35.98835698328912" lon="129.43508399650455">
        <ele>12.8</ele>
        <time>2026-06-05T15:46:29</time>
      </trkpt>
      <trkpt lat="35.9884219430387" lon="129.43508793599904">
        <ele>12.4</ele>
        <time>2026-06-05T15:46:30</time>
      </trkpt>
      <trkpt lat="35.988488998264074" lon="129.43509095348418">
        <ele>12.2</ele>
        <time>2026-06-05T15:46:31</time>
      </trkpt>
      <trkpt lat="35.988554963842034" lon="129.43509598262608">
        <ele>11.8</ele>
        <time>2026-06-05T15:46:32</time>
      </trkpt>
      <trkpt lat="35.988616989925504" lon="129.43510696291924">
        <ele>11.4</ele>
        <time>2026-06-05T15:46:33</time>
      </trkpt>
      <trkpt lat="35.98867398686707" lon="129.43512791767716">
        <ele>11.0</ele>
        <time>2026-06-05T15:46:34</time>
      </trkpt>
      <trkpt lat="35.98871991969645" lon="129.43516697734594">
        <ele>10.6</ele>
        <time>2026-06-05T15:46:35</time>
      </trkpt>
      <trkpt lat="35.988749926909804" lon="129.4352239742875">
        <ele>10.4</ele>
        <time>2026-06-05T15:46:36</time>
      </trkpt>
      <trkpt lat="35.98876199685037" lon="129.43529496900737">
        <ele>10.2</ele>
        <time>2026-06-05T15:46:37</time>
      </trkpt>
      <trkpt lat="35.98875696770847" lon="129.43537493236363">
        <ele>10.0</ele>
        <time>2026-06-05T15:46:38</time>
      </trkpt>
      <trkpt lat="35.98874296993017" lon="129.43545699119568">
        <ele>9.8</ele>
        <time>2026-06-05T15:46:39</time>
      </trkpt>
      <trkpt lat="35.98872494883835" lon="129.4355389662087">
        <ele>9.6</ele>
        <time>2026-06-05T15:46:40</time>
      </trkpt>
      <trkpt lat="35.988704999908805" lon="129.43561892956495">
        <ele>9.6</ele>
        <time>2026-06-05T15:46:41</time>
      </trkpt>
      <trkpt lat="35.988684967160225" lon="129.43569696508348">
        <ele>9.6</ele>
        <time>2026-06-05T15:46:42</time>
      </trkpt>
      <trkpt lat="35.98866795189679" lon="129.43577298894525">
        <ele>9.6</ele>
        <time>2026-06-05T15:46:43</time>
      </trkpt>
      <trkpt lat="35.98865395411849" lon="129.43584599532187">
        <ele>9.6</ele>
        <time>2026-06-05T15:46:44</time>
      </trkpt>
      <trkpt lat="35.988643979653716" lon="129.4359139725566">
        <ele>9.6</ele>
        <time>2026-06-05T15:46:45</time>
      </trkpt>
      <trkpt lat="35.98863794468343" lon="129.43597893230617">
        <ele>9.8</ele>
        <time>2026-06-05T15:46:46</time>
      </trkpt>
      <trkpt lat="35.98863392136991" lon="129.43603995256126">
        <ele>10.0</ele>
        <time>2026-06-05T15:46:47</time>
      </trkpt>
      <trkpt lat="35.98862998187542" lon="129.4360979553312">
        <ele>10.0</ele>
        <time>2026-06-05T15:46:48</time>
      </trkpt>
      <trkpt lat="35.988623946905136" lon="129.436152940616">
        <ele>10.2</ele>
        <time>2026-06-05T15:46:49</time>
      </trkpt>
      <trkpt lat="35.988619923591614" lon="129.4362049922347">
        <ele>10.2</ele>
        <time>2026-06-05T15:46:50</time>
      </trkpt>
      <trkpt lat="35.988617995753884" lon="129.43625394254923">
        <ele>10.4</ele>
        <time>2026-06-05T15:46:51</time>
      </trkpt>
      <trkpt lat="35.98861891776323" lon="129.4363019708544">
        <ele>10.4</ele>
        <time>2026-06-05T15:46:52</time>
      </trkpt>
      <trkpt lat="35.988621935248375" lon="129.43634999915957">
        <ele>10.6</ele>
        <time>2026-06-05T15:46:53</time>
      </trkpt>
      <trkpt lat="35.9886259585619" lon="129.43639794364572">
        <ele>10.6</ele>
        <time>2026-06-05T15:46:54</time>
      </trkpt>
      <trkpt lat="35.98862998187542" lon="129.43644798360765">
        <ele>10.6</ele>
        <time>2026-06-05T15:46:55</time>
      </trkpt>
      <trkpt lat="35.98863492719829" lon="129.43649894557893">
        <ele>10.6</ele>
        <time>2026-06-05T15:46:56</time>
      </trkpt>
      <trkpt lat="35.98863794468343" lon="129.43655191920698">
        <ele>10.6</ele>
        <time>2026-06-05T15:46:57</time>
      </trkpt>
      <trkpt lat="35.988640962168574" lon="129.4366069883108">
        <ele>10.6</ele>
        <time>2026-06-05T15:46:58</time>
      </trkpt>
      <trkpt lat="35.988642973825336" lon="129.436662979424">
        <ele>10.6</ele>
        <time>2026-06-05T15:46:59</time>
      </trkpt>
      <trkpt lat="35.98864599131048" lon="129.43672098219395">
        <ele>10.4</ele>
        <time>2026-06-05T15:47:00</time>
      </trkpt>
      <trkpt lat="35.98864892497659" lon="129.4367779791355">
        <ele>10.4</ele>
        <time>2026-06-05T15:47:01</time>
      </trkpt>
      <trkpt lat="35.98865294829011" lon="129.43683497607708">
        <ele>10.2</ele>
        <time>2026-06-05T15:47:02</time>
      </trkpt>
      <trkpt lat="35.98865797743201" lon="129.43689297884703">
        <ele>10.2</ele>
        <time>2026-06-05T15:47:03</time>
      </trkpt>
      <trkpt lat="35.988663928583264" lon="129.4369499757886">
        <ele>10.0</ele>
        <time>2026-06-05T15:47:04</time>
      </trkpt>
      <trkpt lat="35.98866895772517" lon="129.43700898438692">
        <ele>10.0</ele>
        <time>2026-06-05T15:47:05</time>
      </trkpt>
      <trkpt lat="35.98867398686707" lon="129.43706899881363">
        <ele>9.8</ele>
        <time>2026-06-05T15:47:06</time>
      </trkpt>
      <trkpt lat="35.98867993801832" lon="129.4371289294213">
        <ele>9.8</ele>
        <time>2026-06-05T15:47:07</time>
      </trkpt>
      <trkpt lat="35.988684967160225" lon="129.43718793801963">
        <ele>9.8</ele>
        <time>2026-06-05T15:47:08</time>
      </trkpt>
      <trkpt lat="35.98868899047375" lon="129.43724795244634">
        <ele>9.8</ele>
        <time>2026-06-05T15:47:09</time>
      </trkpt>
      <trkpt lat="35.98869192413986" lon="129.43730696104467">
        <ele>9.8</ele>
        <time>2026-06-05T15:47:10</time>
      </trkpt>
      <trkpt lat="35.98869594745338" lon="129.43736496381462">
        <ele>9.6</ele>
        <time>2026-06-05T15:47:11</time>
      </trkpt>
      <trkpt lat="35.9886999707669" lon="129.43742196075618">
        <ele>9.6</ele>
        <time>2026-06-05T15:47:12</time>
      </trkpt>
      <trkpt lat="35.988704999908805" lon="129.43747795186937">
        <ele>9.6</ele>
        <time>2026-06-05T15:47:13</time>
      </trkpt>
      <trkpt lat="35.988709945231676" lon="129.4375319313258">
        <ele>9.2</ele>
        <time>2026-06-05T15:47:14</time>
      </trkpt>
      <trkpt lat="35.98871195688844" lon="129.43758498877287">
        <ele>9.2</ele>
        <time>2026-06-05T15:47:15</time>
      </trkpt>
      <trkpt lat="35.9887139685452" lon="129.4376379624009">
        <ele>9.4</ele>
        <time>2026-06-05T15:47:16</time>
      </trkpt>
      <trkpt lat="35.98871799185872" lon="129.43768993020058">
        <ele>9.4</ele>
        <time>2026-06-05T15:47:17</time>
      </trkpt>
      <trkpt lat="35.98872293718159" lon="129.43774198181927">
        <ele>9.4</ele>
        <time>2026-06-05T15:47:18</time>
      </trkpt>
      <trkpt lat="35.988729977980256" lon="129.43779495544732">
        <ele>9.4</ele>
        <time>2026-06-05T15:47:19</time>
      </trkpt>
      <trkpt lat="35.98873592913151" lon="129.43784893490374">
        <ele>9.4</ele>
        <time>2026-06-05T15:47:20</time>
      </trkpt>
      <trkpt lat="35.98874095827341" lon="129.4379029981792">
        <ele>9.4</ele>
        <time>2026-06-05T15:47:21</time>
      </trkpt>
      <trkpt lat="35.988746993243694" lon="129.43795697763562">
        <ele>9.4</ele>
        <time>2026-06-05T15:47:22</time>
      </trkpt>
      <trkpt lat="35.988750932738185" lon="129.43800995126367">
        <ele>9.4</ele>
        <time>2026-06-05T15:47:23</time>
      </trkpt>
      <trkpt lat="35.988750932738185" lon="129.43806493654847">
        <ele>9.4</ele>
        <time>2026-06-05T15:47:24</time>
      </trkpt>
      <trkpt lat="35.988749926909804" lon="129.43811992183328">
        <ele>9.4</ele>
        <time>2026-06-05T15:47:25</time>
      </trkpt>
      <trkpt lat="35.988748921081424" lon="129.4381759967655">
        <ele>9.4</ele>
        <time>2026-06-05T15:47:26</time>
      </trkpt>
      <trkpt lat="35.988749926909804" lon="129.43823198787868">
        <ele>9.2</ele>
        <time>2026-06-05T15:47:27</time>
      </trkpt>
      <trkpt lat="35.988750932738185" lon="129.4382859673351">
        <ele>9.2</ele>
        <time>2026-06-05T15:47:28</time>
      </trkpt>
      <trkpt lat="35.988752944394946" lon="129.43833894096315">
        <ele>9.2</ele>
        <time>2026-06-05T15:47:29</time>
      </trkpt>
      <trkpt lat="35.98875495605171" lon="129.43838898092508">
        <ele>9.2</ele>
        <time>2026-06-05T15:47:30</time>
      </trkpt>
      <trkpt lat="35.98875596188009" lon="129.4384349975735">
        <ele>9.2</ele>
        <time>2026-06-05T15:47:31</time>
      </trkpt>
      <trkpt lat="35.98875696770847" lon="129.4384709559381">
        <ele>9.2</ele>
        <time>2026-06-05T15:47:32</time>
      </trkpt>
      <trkpt lat="35.98875596188009" lon="129.4384989514947">
        <ele>9.2</ele>
        <time>2026-06-05T15:47:33</time>
      </trkpt>
      <trkpt lat="35.98875495605171" lon="129.43852392956614">
        <ele>9.2</ele>
        <time>2026-06-05T15:47:34</time>
      </trkpt>
      <trkpt lat="35.98875395022333" lon="129.43854899145663">
        <ele>9.2</ele>
        <time>2026-06-05T15:47:35</time>
      </trkpt>
      <trkpt lat="35.98875395022333" lon="129.4385729636997">
        <ele>9.0</ele>
        <time>2026-06-05T15:47:36</time>
      </trkpt>
      <trkpt lat="35.988752944394946" lon="129.43859894759953">
        <ele>9.0</ele>
        <time>2026-06-05T15:47:37</time>
      </trkpt>
      <trkpt lat="35.988752944394946" lon="129.43862694315612">
        <ele>9.0</ele>
        <time>2026-06-05T15:47:38</time>
      </trkpt>
      <trkpt lat="35.988750932738185" lon="129.43865996785462">
        <ele>9.0</ele>
        <time>2026-06-05T15:47:39</time>
      </trkpt>
      <trkpt lat="35.988747999072075" lon="129.43869592621922">
        <ele>8.8</ele>
        <time>2026-06-05T15:47:40</time>
      </trkpt>
      <trkpt lat="35.988745987415314" lon="129.43873599171638">
        <ele>8.8</ele>
        <time>2026-06-05T15:47:41</time>
      </trkpt>
      <trkpt lat="35.98874296993017" lon="129.43877999670804">
        <ele>8.8</ele>
        <time>2026-06-05T15:47:42</time>
      </trkpt>
      <trkpt lat="35.98874095827341" lon="129.43882592953742">
        <ele>8.8</ele>
        <time>2026-06-05T15:47:43</time>
      </trkpt>
      <trkpt lat="35.98873995244503" lon="129.43887496367097">
        <ele>8.6</ele>
        <time>2026-06-05T15:47:44</time>
      </trkpt>
      <trkpt lat="35.98873794078827" lon="129.43892491981387">
        <ele>8.6</ele>
        <time>2026-06-05T15:47:45</time>
      </trkpt>
      <trkpt lat="35.98873492330313" lon="129.43897697143257">
        <ele>8.6</ele>
        <time>2026-06-05T15:47:46</time>
      </trkpt>
      <trkpt lat="35.98873198963702" lon="129.4390299450606">
        <ele>8.6</ele>
        <time>2026-06-05T15:47:47</time>
      </trkpt>
      <trkpt lat="35.988728972151875" lon="129.43908291868865">
        <ele>8.6</ele>
        <time>2026-06-05T15:47:48</time>
      </trkpt>
      <trkpt lat="35.988725954666734" lon="129.43913497030735">
        <ele>8.4</ele>
        <time>2026-06-05T15:47:49</time>
      </trkpt>
      <trkpt lat="35.98872293718159" lon="129.439186938107">
        <ele>8.4</ele>
        <time>2026-06-05T15:47:50</time>
      </trkpt>
      <trkpt lat="35.98872092552483" lon="129.43923798389733">
        <ele>8.4</ele>
        <time>2026-06-05T15:47:51</time>
      </trkpt>
      <trkpt lat="35.98872092552483" lon="129.4392889458686">
        <ele>8.4</ele>
        <time>2026-06-05T15:47:52</time>
      </trkpt>
      <trkpt lat="35.98872293718159" lon="129.4393409974873">
        <ele>8.4</ele>
        <time>2026-06-05T15:47:53</time>
      </trkpt>
      <trkpt lat="35.988726960495114" lon="129.43939296528697">
        <ele>8.4</ele>
        <time>2026-06-05T15:47:54</time>
      </trkpt>
      <trkpt lat="35.98873098380864" lon="129.43944593891501">
        <ele>8.2</ele>
        <time>2026-06-05T15:47:55</time>
      </trkpt>
      <trkpt lat="35.98873592913151" lon="129.43949991837144">
        <ele>8.2</ele>
        <time>2026-06-05T15:47:56</time>
      </trkpt>
      <trkpt lat="35.98874095827341" lon="129.43955599330366">
        <ele>8.2</ele>
        <time>2026-06-05T15:47:57</time>
      </trkpt>
      <trkpt lat="35.98874498158693" lon="129.4396139960736">
        <ele>8.2</ele>
        <time>2026-06-05T15:47:58</time>
      </trkpt>
      <trkpt lat="35.988749926909804" lon="129.4396729208529">
        <ele>8.2</ele>
        <time>2026-06-05T15:47:59</time>
      </trkpt>
      <trkpt lat="35.98875495605171" lon="129.43973092362285">
        <ele>8.2</ele>
        <time>2026-06-05T15:48:00</time>
      </trkpt>
      <trkpt lat="35.98875797353685" lon="129.4397889263928">
        <ele>8.2</ele>
        <time>2026-06-05T15:48:01</time>
      </trkpt>
      <trkpt lat="35.98875998519361" lon="129.43984491750598">
        <ele>8.2</ele>
        <time>2026-06-05T15:48:02</time>
      </trkpt>
      <trkpt lat="35.98876291885972" lon="129.4399009924382">
        <ele>8.0</ele>
        <time>2026-06-05T15:48:03</time>
      </trkpt>
      <trkpt lat="35.98876694217324" lon="129.439955977723">
        <ele>8.0</ele>
        <time>2026-06-05T15:48:04</time>
      </trkpt>
      <trkpt lat="35.988769959658384" lon="129.4400109630078">
        <ele>8.0</ele>
        <time>2026-06-05T15:48:05</time>
      </trkpt>
      <trkpt lat="35.98877398297191" lon="129.44006494246423">
        <ele>8.0</ele>
        <time>2026-06-05T15:48:06</time>
      </trkpt>
      <trkpt lat="35.98877892829478" lon="129.4401179999113">
        <ele>8.0</ele>
        <time>2026-06-05T15:48:07</time>
      </trkpt>
      <trkpt lat="35.98878395743668" lon="129.44016996771097">
        <ele>8.0</ele>
        <time>2026-06-05T15:48:08</time>
      </trkpt>
      <trkpt lat="35.988788986578584" lon="129.44022193551064">
        <ele>8.0</ele>
        <time>2026-06-05T15:48:09</time>
      </trkpt>
      <trkpt lat="35.988792926073074" lon="129.4402749929577">
        <ele>8.0</ele>
        <time>2026-06-05T15:48:10</time>
      </trkpt>
      <trkpt lat="35.988795943558216" lon="129.4403309840709">
        <ele>8.0</ele>
        <time>2026-06-05T15:48:11</time>
      </trkpt>
      <trkpt lat="35.98880097270012" lon="129.44038798101246">
        <ele>8.0</ele>
        <time>2026-06-05T15:48:12</time>
      </trkpt>
      <trkpt lat="35.98880692385137" lon="129.4404469896108">
        <ele>8.0</ele>
        <time>2026-06-05T15:48:13</time>
      </trkpt>
      <trkpt lat="35.988812958821654" lon="129.44050599820912">
        <ele>8.0</ele>
        <time>2026-06-05T15:48:14</time>
      </trkpt>
      <trkpt lat="35.98881899379194" lon="129.44056492298841">
        <ele>8.0</ele>
        <time>2026-06-05T15:48:15</time>
      </trkpt>
      <trkpt lat="35.98882293328643" lon="129.44062393158674">
        <ele>8.0</ele>
        <time>2026-06-05T15:48:16</time>
      </trkpt>
      <trkpt lat="35.98882393911481" lon="129.4406819343567">
        <ele>8.0</ele>
        <time>2026-06-05T15:48:17</time>
      </trkpt>
      <trkpt lat="35.98882192745805" lon="129.44073893129826">
        <ele>8.0</ele>
        <time>2026-06-05T15:48:18</time>
      </trkpt>
      <trkpt lat="35.98881899379194" lon="129.4407969340682">
        <ele>8.0</ele>
        <time>2026-06-05T15:48:19</time>
      </trkpt>
      <trkpt lat="35.988814970478415" lon="129.4408579543233">
        <ele>7.8</ele>
        <time>2026-06-05T15:48:20</time>
      </trkpt>
      <trkpt lat="35.98880893550813" lon="129.44091998040676">
        <ele>7.8</ele>
        <time>2026-06-05T15:48:21</time>
      </trkpt>
      <trkpt lat="35.98879996687174" lon="129.44098292849958">
        <ele>7.8</ele>
        <time>2026-06-05T15:48:22</time>
      </trkpt>
      <trkpt lat="35.9887879807502" lon="129.4410469662398">
        <ele>7.6</ele>
        <time>2026-06-05T15:48:23</time>
      </trkpt>
      <trkpt lat="35.988771971315145" lon="129.4411119259894">
        <ele>7.6</ele>
        <time>2026-06-05T15:48:24</time>
      </trkpt>
      <trkpt lat="35.98875395022333" lon="129.441176969558">
        <ele>7.6</ele>
        <time>2026-06-05T15:48:25</time>
      </trkpt>
      <trkpt lat="35.98873492330313" lon="129.44124293513596">
        <ele>7.6</ele>
        <time>2026-06-05T15:48:26</time>
      </trkpt>
      <trkpt lat="35.98871598020196" lon="129.44130999036133">
        <ele>7.6</ele>
        <time>2026-06-05T15:48:27</time>
      </trkpt>
      <trkpt lat="35.98869795911014" lon="129.44137696176767">
        <ele>7.6</ele>
        <time>2026-06-05T15:48:28</time>
      </trkpt>
      <trkpt lat="35.98867993801832" lon="129.441443933174">
        <ele>7.6</ele>
        <time>2026-06-05T15:48:29</time>
      </trkpt>
      <trkpt lat="35.988660994917154" lon="129.44150897674263">
        <ele>7.6</ele>
        <time>2026-06-05T15:48:30</time>
      </trkpt>
      <trkpt lat="35.988639956340194" lon="129.4415739364922">
        <ele>7.6</ele>
        <time>2026-06-05T15:48:31</time>
      </trkpt>
      <trkpt lat="35.988617995753884" lon="129.44163797423244">
        <ele>7.6</ele>
        <time>2026-06-05T15:48:32</time>
      </trkpt>
      <trkpt lat="35.98859595134854" lon="129.44170293398201">
        <ele>7.6</ele>
        <time>2026-06-05T15:48:33</time>
      </trkpt>
      <trkpt lat="35.98857591859996" lon="129.44176797755063">
        <ele>7.6</ele>
        <time>2026-06-05T15:48:34</time>
      </trkpt>
      <trkpt lat="35.98855898715556" lon="129.44183092564344">
        <ele>7.8</ele>
        <time>2026-06-05T15:48:35</time>
      </trkpt>
      <trkpt lat="35.98854599520564" lon="129.44188599474728">
        <ele>8.0</ele>
        <time>2026-06-05T15:48:36</time>
      </trkpt>
      <trkpt lat="35.988535936921835" lon="129.44192999973893">
        <ele>8.0</ele>
        <time>2026-06-05T15:48:37</time>
      </trkpt>
      <trkpt lat="35.98852797411382" lon="129.44196092896163">
        <ele>8.2</ele>
        <time>2026-06-05T15:48:38</time>
      </trkpt>
      <trkpt lat="35.98852294497192" lon="129.44198397919536">
        <ele>8.4</ele>
        <time>2026-06-05T15:48:39</time>
      </trkpt>
      <trkpt lat="35.98851799964905" lon="129.4419999886304">
        <ele>8.6</ele>
        <time>2026-06-05T15:48:40</time>
      </trkpt>
      <trkpt lat="35.988513976335526" lon="129.44201096892357">
        <ele>8.6</ele>
        <time>2026-06-05T15:48:41</time>
      </trkpt>
      <trkpt lat="35.98850794136524" lon="129.44201692007482">
        <ele>8.8</ele>
        <time>2026-06-05T15:48:42</time>
      </trkpt>
      <trkpt lat="35.98849796690047" lon="129.44202094338834">
        <ele>9.0</ele>
        <time>2026-06-05T15:48:43</time>
      </trkpt>
      <trkpt lat="35.98848698660731" lon="129.44202194921672">
        <ele>9.0</ele>
        <time>2026-06-05T15:48:44</time>
      </trkpt>
      <trkpt lat="35.98847298882902" lon="129.44202094338834">
        <ele>9.0</ele>
        <time>2026-06-05T15:48:45</time>
      </trkpt>
      <trkpt lat="35.98845899105072" lon="129.44201893173158">
        <ele>9.2</ele>
        <time>2026-06-05T15:48:46</time>
      </trkpt>
      <trkpt lat="35.988449938595295" lon="129.44201692007482">
        <ele>9.2</ele>
        <time>2026-06-05T15:48:47</time>
      </trkpt>
      <trkpt lat="35.988444993272424" lon="129.4420149922371">
        <ele>9.6</ele>
        <time>2026-06-05T15:48:48</time>
      </trkpt>
      <trkpt lat="35.98844398744404" lon="129.4420149922371">
        <ele>9.8</ele>
        <time>2026-06-05T15:48:49</time>
      </trkpt>
      <trkpt lat="35.988444993272424" lon="129.4420149922371">
        <ele>9.8</ele>
        <time>2026-06-05T15:48:50</time>
      </trkpt>
      <trkpt lat="35.988408951088786" lon="129.4420789461583">
        <ele>9.4</ele>
        <time>2026-06-05T15:49:13</time>
      </trkpt>
      <trkpt lat="35.98840392194688" lon="129.44210392422974">
        <ele>9.4</ele>
        <time>2026-06-05T15:49:14</time>
      </trkpt>
      <trkpt lat="35.988402999937534" lon="129.44213493727148">
        <ele>9.2</ele>
        <time>2026-06-05T15:49:15</time>
      </trkpt>
      <trkpt lat="35.988406939432025" lon="129.44216796196997">
        <ele>9.2</ele>
        <time>2026-06-05T15:49:16</time>
      </trkpt>
      <trkpt lat="35.98841498605907" lon="129.44220199249685">
        <ele>9.2</ele>
        <time>2026-06-05T15:49:17</time>
      </trkpt>
      <trkpt lat="35.9884219430387" lon="129.44223795086145">
        <ele>9.0</ele>
        <time>2026-06-05T15:49:18</time>
      </trkpt>
      <trkpt lat="35.988424960523844" lon="129.44228095002472">
        <ele>9.0</ele>
        <time>2026-06-05T15:49:19</time>
      </trkpt>
      <trkpt lat="35.98842093721032" lon="129.44233199581504">
        <ele>8.8</ele>
        <time>2026-06-05T15:49:20</time>
      </trkpt>
      <trkpt lat="35.988405933603644" lon="129.44238999858499">
        <ele>8.8</ele>
        <time>2026-06-05T15:49:21</time>
      </trkpt>
      <trkpt lat="35.988383973017335" lon="129.4424529466778">
        <ele>8.8</ele>
        <time>2026-06-05T15:49:22</time>
      </trkpt>
      <trkpt lat="35.988358994945884" lon="129.44251991808414">
        <ele>8.8</ele>
        <time>2026-06-05T15:49:23</time>
      </trkpt>
      <trkpt lat="35.98833493888378" lon="129.44259292446077">
        <ele>8.8</ele>
        <time>2026-06-05T15:49:24</time>
      </trkpt>
      <trkpt lat="35.98830996081233" lon="129.44266894832253">
        <ele>8.6</ele>
        <time>2026-06-05T15:49:25</time>
      </trkpt>
      <trkpt lat="35.98828892223537" lon="129.44274899549782">
        <ele>8.6</ele>
        <time>2026-06-05T15:49:26</time>
      </trkpt>
      <trkpt lat="35.9882699791342" lon="129.44282996468246">
        <ele>8.4</ele>
        <time>2026-06-05T15:49:27</time>
      </trkpt>
      <trkpt lat="35.988255981355906" lon="129.44291395135224">
        <ele>8.4</ele>
        <time>2026-06-05T15:49:28</time>
      </trkpt>
      <trkpt lat="35.98824298940599" lon="129.44299994967878">
        <ele>8.4</ele>
        <time>2026-06-05T15:49:29</time>
      </trkpt>
      <trkpt lat="35.9882319252938" lon="129.44308896549046">
        <ele>8.2</ele>
        <time>2026-06-05T15:49:30</time>
      </trkpt>
      <trkpt lat="35.98822195082903" lon="129.44318192079663">
        <ele>8.2</ele>
        <time>2026-06-05T15:49:31</time>
      </trkpt>
      <trkpt lat="35.988212982192636" lon="129.4432769715786">
        <ele>8.2</ele>
        <time>2026-06-05T15:49:32</time>
      </trkpt>
      <trkpt lat="35.98820493556559" lon="129.4433729443699">
        <ele>8.2</ele>
        <time>2026-06-05T15:49:33</time>
      </trkpt>
      <trkpt lat="35.98819797858596" lon="129.44346891716123">
        <ele>8.0</ele>
        <time>2026-06-05T15:49:34</time>
      </trkpt>
      <trkpt lat="35.988190937787294" lon="129.44356497377157">
        <ele>8.0</ele>
        <time>2026-06-05T15:49:35</time>
      </trkpt>
      <trkpt lat="35.98818297497928" lon="129.4436599407345">
        <ele>7.8</ele>
        <time>2026-06-05T15:49:36</time>
      </trkpt>
      <trkpt lat="35.98817492835224" lon="129.44375499151647">
        <ele>7.6</ele>
        <time>2026-06-05T15:49:37</time>
      </trkpt>
      <trkpt lat="35.988166965544224" lon="129.44385096430779">
        <ele>7.4</ele>
        <time>2026-06-05T15:49:38</time>
      </trkpt>
      <trkpt lat="35.98815992474556" lon="129.4439469370991">
        <ele>7.4</ele>
        <time>2026-06-05T15:49:39</time>
      </trkpt>
      <trkpt lat="35.988150956109166" lon="129.44404299370944">
        <ele>7.4</ele>
        <time>2026-06-05T15:49:40</time>
      </trkpt>
      <trkpt lat="35.98813896998763" lon="129.44413594901562">
        <ele>7.4</ele>
        <time>2026-06-05T15:49:41</time>
      </trkpt>
      <trkpt lat="35.988127989694476" lon="129.44422697648406">
        <ele>7.4</ele>
        <time>2026-06-05T15:49:42</time>
      </trkpt>
      <trkpt lat="35.98811692558229" lon="129.44431498646736">
        <ele>7.4</ele>
        <time>2026-06-05T15:49:43</time>
      </trkpt>
      <trkpt lat="35.988106951117516" lon="129.44440299645066">
        <ele>7.4</ele>
        <time>2026-06-05T15:49:44</time>
      </trkpt>
      <trkpt lat="35.98809798248112" lon="129.44448991678655">
        <ele>7.4</ele>
        <time>2026-06-05T15:49:45</time>
      </trkpt>
      <trkpt lat="35.988087924197316" lon="129.44457599893212">
        <ele>7.4</ele>
        <time>2026-06-05T15:49:46</time>
      </trkpt>
      <trkpt lat="35.98807895556092" lon="129.44466199725866">
        <ele>7.6</ele>
        <time>2026-06-05T15:49:47</time>
      </trkpt>
      <trkpt lat="35.98807199858129" lon="129.44474698975682">
        <ele>7.6</ele>
        <time>2026-06-05T15:49:48</time>
      </trkpt>
      <trkpt lat="35.988064957782626" lon="129.44482997059822">
        <ele>7.8</ele>
        <time>2026-06-05T15:49:49</time>
      </trkpt>
      <trkpt lat="35.98805892281234" lon="129.44491093978286">
        <ele>7.8</ele>
        <time>2026-06-05T15:49:50</time>
      </trkpt>
      <trkpt lat="35.98805096000433" lon="129.4449929986149">
        <ele>7.8</ele>
        <time>2026-06-05T15:49:51</time>
      </trkpt>
      <trkpt lat="35.98804299719632" lon="129.4450759794563">
        <ele>7.8</ele>
        <time>2026-06-05T15:49:52</time>
      </trkpt>
      <trkpt lat="35.98803495056927" lon="129.44516197778285">
        <ele>7.8</ele>
        <time>2026-06-05T15:49:53</time>
      </trkpt>
      <trkpt lat="35.98802598193288" lon="129.44524898193777">
        <ele>7.8</ele>
        <time>2026-06-05T15:49:54</time>
      </trkpt>
      <trkpt lat="35.988018941134214" lon="129.44533699192107">
        <ele>7.8</ele>
        <time>2026-06-05T15:49:55</time>
      </trkpt>
      <trkpt lat="35.98800997249782" lon="129.445423996076">
        <ele>7.8</ele>
        <time>2026-06-05T15:49:56</time>
      </trkpt>
      <trkpt lat="35.988001925870776" lon="129.44551292806864">
        <ele>7.8</ele>
        <time>2026-06-05T15:49:57</time>
      </trkpt>
      <trkpt lat="35.98799396306276" lon="129.4456029497087">
        <ele>7.8</ele>
        <time>2026-06-05T15:49:58</time>
      </trkpt>
      <trkpt lat="35.98798792809248" lon="129.44569498300552">
        <ele>7.8</ele>
        <time>2026-06-05T15:49:59</time>
      </trkpt>
      <trkpt lat="35.98798097111285" lon="129.44578592665493">
        <ele>7.8</ele>
        <time>2026-06-05T15:50:00</time>
      </trkpt>
      <trkpt lat="35.9879729244858" lon="129.445875948295">
        <ele>7.8</ele>
        <time>2026-06-05T15:50:01</time>
      </trkpt>
      <trkpt lat="35.98796395584941" lon="129.44596194662154">
        <ele>7.8</ele>
        <time>2026-06-05T15:50:02</time>
      </trkpt>
      <trkpt lat="35.987955993041396" lon="129.44604392163455">
        <ele>7.8</ele>
        <time>2026-06-05T15:50:03</time>
      </trkpt>
      <trkpt lat="35.98794895224273" lon="129.4461209513247">
        <ele>7.8</ele>
        <time>2026-06-05T15:50:04</time>
      </trkpt>
      <trkpt lat="35.98793998360634" lon="129.44619395770133">
        <ele>7.8</ele>
        <time>2026-06-05T15:50:05</time>
      </trkpt>
      <trkpt lat="35.98792992532253" lon="129.4462639465928">
        <ele>7.8</ele>
        <time>2026-06-05T15:50:06</time>
      </trkpt>
      <trkpt lat="35.98792095668614" lon="129.4463329296559">
        <ele>7.8</ele>
        <time>2026-06-05T15:50:07</time>
      </trkpt>
      <trkpt lat="35.987911988049746" lon="129.44640099070966">
        <ele>7.8</ele>
        <time>2026-06-05T15:50:08</time>
      </trkpt>
      <trkpt lat="35.98790494725108" lon="129.44646997377276">
        <ele>7.8</ele>
        <time>2026-06-05T15:50:09</time>
      </trkpt>
      <trkpt lat="35.98789799027145" lon="129.446541974321">
        <ele>8.0</ele>
        <time>2026-06-05T15:50:10</time>
      </trkpt>
      <trkpt lat="35.98789396695793" lon="129.446615986526">
        <ele>8.2</ele>
        <time>2026-06-05T15:50:11</time>
      </trkpt>
      <trkpt lat="35.987889943644404" lon="129.44669092074037">
        <ele>8.2</ele>
        <time>2026-06-05T15:50:12</time>
      </trkpt>
      <trkpt lat="35.987888937816024" lon="129.44676593877375">
        <ele>8.2</ele>
        <time>2026-06-05T15:50:13</time>
      </trkpt>
      <trkpt lat="35.987888937816024" lon="129.44684397429228">
        <ele>8.4</ele>
        <time>2026-06-05T15:50:14</time>
      </trkpt>
      <trkpt lat="35.987889943644404" lon="129.44692393764853">
        <ele>8.4</ele>
        <time>2026-06-05T15:50:15</time>
      </trkpt>
      <trkpt lat="35.987889943644404" lon="129.44700599648058">
        <ele>8.4</ele>
        <time>2026-06-05T15:50:16</time>
      </trkpt>
      <trkpt lat="35.987888937816024" lon="129.4470879714936">
        <ele>8.6</ele>
        <time>2026-06-05T15:50:17</time>
      </trkpt>
      <trkpt lat="35.987889943644404" lon="129.44716994650662">
        <ele>8.8</ele>
        <time>2026-06-05T15:50:18</time>
      </trkpt>
      <trkpt lat="35.987891955301166" lon="129.44724898785353">
        <ele>9.0</ele>
        <time>2026-06-05T15:50:19</time>
      </trkpt>
      <trkpt lat="35.98789597861469" lon="129.44732492789626">
        <ele>9.2</ele>
        <time>2026-06-05T15:50:20</time>
      </trkpt>
      <trkpt lat="35.98789899609983" lon="129.44739793427289">
        <ele>9.6</ele>
        <time>2026-06-05T15:50:21</time>
      </trkpt>
      <trkpt lat="35.9879039414227" lon="129.44746792316437">
        <ele>9.8</ele>
        <time>2026-06-05T15:50:22</time>
      </trkpt>
      <trkpt lat="35.987909976392984" lon="129.44753296673298">
        <ele>10.0</ele>
        <time>2026-06-05T15:50:23</time>
      </trkpt>
      <trkpt lat="35.987914921715856" lon="129.44759692065418">
        <ele>10.2</ele>
        <time>2026-06-05T15:50:24</time>
      </trkpt>
      <trkpt lat="35.98791894502938" lon="129.4476609583944">
        <ele>10.4</ele>
        <time>2026-06-05T15:50:25</time>
      </trkpt>
      <trkpt lat="35.9879229683429" lon="129.44772499613464">
        <ele>10.8</ele>
        <time>2026-06-05T15:50:26</time>
      </trkpt>
      <trkpt lat="35.98792699165642" lon="129.44779196754098">
        <ele>11.0</ele>
        <time>2026-06-05T15:50:27</time>
      </trkpt>
      <trkpt lat="35.987931936979294" lon="129.44786195643246">
        <ele>11.2</ele>
        <time>2026-06-05T15:50:28</time>
      </trkpt>
      <trkpt lat="35.9879369661212" lon="129.44793295115232">
        <ele>11.6</ele>
        <time>2026-06-05T15:50:29</time>
      </trkpt>
      <trkpt lat="35.98794392310083" lon="129.4480039458722">
        <ele>11.8</ele>
        <time>2026-06-05T15:50:30</time>
      </trkpt>
      <trkpt lat="35.987951969727874" lon="129.44807594642043">
        <ele>12.0</ele>
        <time>2026-06-05T15:50:31</time>
      </trkpt>
      <trkpt lat="35.98796093836427" lon="129.4481459353119">
        <ele>12.2</ele>
        <time>2026-06-05T15:50:32</time>
      </trkpt>
      <trkpt lat="35.98796999081969" lon="129.44821693003178">
        <ele>12.4</ele>
        <time>2026-06-05T15:50:33</time>
      </trkpt>
      <trkpt lat="35.987978959456086" lon="129.44828792475164">
        <ele>12.6</ele>
        <time>2026-06-05T15:50:34</time>
      </trkpt>
      <trkpt lat="35.98798893392086" lon="129.44835799746215">
        <ele>12.8</ele>
        <time>2026-06-05T15:50:35</time>
      </trkpt>
      <trkpt lat="35.98799999803305" lon="129.44842899218202">
        <ele>12.8</ele>
        <time>2026-06-05T15:50:36</time>
      </trkpt>
      <trkpt lat="35.98801198415458" lon="129.44850199855864">
        <ele>13.0</ele>
        <time>2026-06-05T15:50:37</time>
      </trkpt>
      <trkpt lat="35.98802397027612" lon="129.44857399910688">
        <ele>13.2</ele>
        <time>2026-06-05T15:50:38</time>
      </trkpt>
      <trkpt lat="35.98803595639765" lon="129.44864599965513">
        <ele>13.4</ele>
        <time>2026-06-05T15:50:39</time>
      </trkpt>
      <trkpt lat="35.988044925034046" lon="129.44871791638434">
        <ele>13.6</ele>
        <time>2026-06-05T15:50:40</time>
      </trkpt>
      <trkpt lat="35.98805397748947" lon="129.44878798909485">
        <ele>13.8</ele>
        <time>2026-06-05T15:50:41</time>
      </trkpt>
      <trkpt lat="35.988062946125865" lon="129.44885596632957">
        <ele>14.0</ele>
        <time>2026-06-05T15:50:42</time>
      </trkpt>
      <trkpt lat="35.98807099275291" lon="129.44892293773592">
        <ele>14.2</ele>
        <time>2026-06-05T15:50:43</time>
      </trkpt>
      <trkpt lat="35.988080967217684" lon="129.4489899929613">
        <ele>14.4</ele>
        <time>2026-06-05T15:50:44</time>
      </trkpt>
      <trkpt lat="35.98809094168246" lon="129.44905495271087">
        <ele>14.6</ele>
        <time>2026-06-05T15:50:45</time>
      </trkpt>
      <trkpt lat="35.98809999413788" lon="129.44912091828883">
        <ele>14.6</ele>
        <time>2026-06-05T15:50:46</time>
      </trkpt>
      <trkpt lat="35.988107956945896" lon="129.44918696768582">
        <ele>14.8</ele>
        <time>2026-06-05T15:50:47</time>
      </trkpt>
      <trkpt lat="35.98811499774456" lon="129.44925293326378">
        <ele>14.8</ele>
        <time>2026-06-05T15:50:48</time>
      </trkpt>
      <trkpt lat="35.98812195472419" lon="129.44932099431753">
        <ele>14.8</ele>
        <time>2026-06-05T15:50:49</time>
      </trkpt>
      <trkpt lat="35.988130923360586" lon="129.44938897155225">
        <ele>15.0</ele>
        <time>2026-06-05T15:50:50</time>
      </trkpt>
      <trkpt lat="35.98813896998763" lon="129.44945694878697">
        <ele>15.0</ele>
        <time>2026-06-05T15:50:51</time>
      </trkpt>
      <trkpt lat="35.988147938624024" lon="129.4495249260217">
        <ele>15.2</ele>
        <time>2026-06-05T15:50:52</time>
      </trkpt>
      <trkpt lat="35.98815699107945" lon="129.44959298707545">
        <ele>15.2</ele>
        <time>2026-06-05T15:50:53</time>
      </trkpt>
      <trkpt lat="35.988166965544224" lon="129.4496599584818">
        <ele>15.4</ele>
        <time>2026-06-05T15:50:54</time>
      </trkpt>
      <trkpt lat="35.988176940009" lon="129.4497279357165">
        <ele>15.4</ele>
        <time>2026-06-05T15:50:55</time>
      </trkpt>
      <trkpt lat="35.988186998292804" lon="129.44979499094188">
        <ele>15.4</ele>
        <time>2026-06-05T15:50:56</time>
      </trkpt>
      <trkpt lat="35.98819697275758" lon="129.44986095651984">
        <ele>15.6</ele>
        <time>2026-06-05T15:50:57</time>
      </trkpt>
      <trkpt lat="35.98820594139397" lon="129.4499269220978">
        <ele>15.6</ele>
        <time>2026-06-05T15:50:58</time>
      </trkpt>
      <trkpt lat="35.988213988021016" lon="129.44998995400965">
        <ele>15.8</ele>
        <time>2026-06-05T15:50:59</time>
      </trkpt>
      <trkpt lat="35.98822295665741" lon="129.45005198009312">
        <ele>16.0</ele>
        <time>2026-06-05T15:51:00</time>
      </trkpt>
      <trkpt lat="35.988232931122184" lon="129.45011392235756">
        <ele>16.0</ele>
        <time>2026-06-05T15:51:01</time>
      </trkpt>
      <trkpt lat="35.98824399523437" lon="129.45017393678427">
        <ele>16.2</ele>
        <time>2026-06-05T15:51:02</time>
      </trkpt>
      <trkpt lat="35.988254975527525" lon="129.45023395121098">
        <ele>16.4</ele>
        <time>2026-06-05T15:51:03</time>
      </trkpt>
      <trkpt lat="35.9882649499923" lon="129.45029597729445">
        <ele>16.4</ele>
        <time>2026-06-05T15:51:04</time>
      </trkpt>
      <trkpt lat="35.98827492445707" lon="129.45035892538726">
        <ele>16.6</ele>
        <time>2026-06-05T15:51:05</time>
      </trkpt>
      <trkpt lat="35.98828598856926" lon="129.4504219572991">
        <ele>16.8</ele>
        <time>2026-06-05T15:51:06</time>
      </trkpt>
      <trkpt lat="35.988295963034034" lon="129.45048398338258">
        <ele>17.0</ele>
        <time>2026-06-05T15:51:07</time>
      </trkpt>
      <trkpt lat="35.98830794915557" lon="129.45054592564702">
        <ele>17.0</ele>
        <time>2026-06-05T15:51:08</time>
      </trkpt>
      <trkpt lat="35.988319935277104" lon="129.4506079517305">
        <ele>17.0</ele>
        <time>2026-06-05T15:51:09</time>
      </trkpt>
      <trkpt lat="35.98833292722702" lon="129.45066997781396">
        <ele>17.2</ele>
        <time>2026-06-05T15:51:10</time>
      </trkpt>
      <trkpt lat="35.9883479308337" lon="129.45073099806905">
        <ele>17.2</ele>
        <time>2026-06-05T15:51:11</time>
      </trkpt>
      <trkpt lat="35.988362934440374" lon="129.4507919345051">
        <ele>17.4</ele>
        <time>2026-06-05T15:51:12</time>
      </trkpt>
      <trkpt lat="35.98837994970381" lon="129.4508529547602">
        <ele>17.4</ele>
        <time>2026-06-05T15:51:13</time>
      </trkpt>
      <trkpt lat="35.98839595913887" lon="129.45091397501528">
        <ele>17.4</ele>
        <time>2026-06-05T15:51:14</time>
      </trkpt>
      <trkpt lat="35.98841398023069" lon="129.45097499527037">
        <ele>17.6</ele>
        <time>2026-06-05T15:51:15</time>
      </trkpt>
      <trkpt lat="35.98843099549413" lon="129.45103492587805">
        <ele>17.6</ele>
        <time>2026-06-05T15:51:16</time>
      </trkpt>
      <trkpt lat="35.988448932766914" lon="129.45109594613314">
        <ele>17.8</ele>
        <time>2026-06-05T15:51:17</time>
      </trkpt>
      <trkpt lat="35.98846695385873" lon="129.45115696638823">
        <ele>17.8</ele>
        <time>2026-06-05T15:51:18</time>
      </trkpt>
      <trkpt lat="35.98848497495055" lon="129.45121798664331">
        <ele>18.0</ele>
        <time>2026-06-05T15:51:19</time>
      </trkpt>
      <trkpt lat="35.98850199021399" lon="129.45127992890775">
        <ele>18.0</ele>
        <time>2026-06-05T15:51:20</time>
      </trkpt>
      <trkpt lat="35.98851699382067" lon="129.45133994333446">
        <ele>18.2</ele>
        <time>2026-06-05T15:51:21</time>
      </trkpt>
      <trkpt lat="35.98852998577058" lon="129.4513979461044">
        <ele>18.2</ele>
        <time>2026-06-05T15:51:22</time>
      </trkpt>
      <trkpt lat="35.98854197189212" lon="129.4514539372176">
        <ele>18.4</ele>
        <time>2026-06-05T15:51:23</time>
      </trkpt>
      <trkpt lat="35.98855295218527" lon="129.45150699466467">
        <ele>18.4</ele>
        <time>2026-06-05T15:51:24</time>
      </trkpt>
      <trkpt lat="35.98856393247843" lon="129.4515559449792">
        <ele>18.6</ele>
        <time>2026-06-05T15:51:25</time>
      </trkpt>
      <trkpt lat="35.98857591859996" lon="129.4516019616276">
        <ele>18.6</ele>
        <time>2026-06-05T15:51:26</time>
      </trkpt>
      <trkpt lat="35.98858991637826" lon="129.45164596661925">
        <ele>18.8</ele>
        <time>2026-06-05T15:51:27</time>
      </trkpt>
      <trkpt lat="35.98860491998494" lon="129.45168896578252">
        <ele>18.8</ele>
        <time>2026-06-05T15:51:28</time>
      </trkpt>
      <trkpt lat="35.988616989925504" lon="129.45173498243093">
        <ele>19.0</ele>
        <time>2026-06-05T15:51:29</time>
      </trkpt>
      <trkpt lat="35.98862998187542" lon="129.45178493857384">
        <ele>19.0</ele>
        <time>2026-06-05T15:51:30</time>
      </trkpt>
      <trkpt lat="35.9886449854821" lon="129.45183699019253">
        <ele>19.0</ele>
        <time>2026-06-05T15:51:31</time>
      </trkpt>
      <trkpt lat="35.988660994917154" lon="129.45188996382058">
        <ele>19.2</ele>
        <time>2026-06-05T15:51:32</time>
      </trkpt>
      <trkpt lat="35.98867792636156" lon="129.45194494910538">
        <ele>19.2</ele>
        <time>2026-06-05T15:51:33</time>
      </trkpt>
      <trkpt lat="35.98869393579662" lon="129.45200194604695">
        <ele>19.2</ele>
        <time>2026-06-05T15:51:34</time>
      </trkpt>
      <trkpt lat="35.988707933574915" lon="129.45205793716013">
        <ele>19.2</ele>
        <time>2026-06-05T15:51:35</time>
      </trkpt>
      <trkpt lat="35.98872193135321" lon="129.4521149341017">
        <ele>19.2</ele>
        <time>2026-06-05T15:51:36</time>
      </trkpt>
      <trkpt lat="35.98873592913151" lon="129.45217293687165">
        <ele>19.4</ele>
        <time>2026-06-05T15:51:37</time>
      </trkpt>
      <trkpt lat="35.988750932738185" lon="129.45223194546998">
        <ele>19.6</ele>
        <time>2026-06-05T15:51:38</time>
      </trkpt>
      <trkpt lat="35.98876593634486" lon="129.45228994823992">
        <ele>19.6</ele>
        <time>2026-06-05T15:51:39</time>
      </trkpt>
      <trkpt lat="35.98877993412316" lon="129.4523469451815">
        <ele>19.8</ele>
        <time>2026-06-05T15:51:40</time>
      </trkpt>
      <trkpt lat="35.988793931901455" lon="129.4524009246379">
        <ele>19.8</ele>
        <time>2026-06-05T15:51:41</time>
      </trkpt>
      <trkpt lat="35.98880499601364" lon="129.45245599374175">
        <ele>20.0</ele>
        <time>2026-06-05T15:51:42</time>
      </trkpt>
      <trkpt lat="35.988813964650035" lon="129.45250997319818">
        <ele>20.0</ele>
        <time>2026-06-05T15:51:43</time>
      </trkpt>
      <trkpt lat="35.98881999962032" lon="129.45256194099784">
        <ele>20.2</ele>
        <time>2026-06-05T15:51:44</time>
      </trkpt>
      <trkpt lat="35.98882796242833" lon="129.452609969303">
        <ele>20.2</ele>
        <time>2026-06-05T15:51:45</time>
      </trkpt>
      <trkpt lat="35.98883994854987" lon="129.45265296846628">
        <ele>20.4</ele>
        <time>2026-06-05T15:51:46</time>
      </trkpt>
      <trkpt lat="35.988858975470066" lon="129.4526879210025">
        <ele>20.4</ele>
        <time>2026-06-05T15:51:47</time>
      </trkpt>
      <trkpt lat="35.9888849593699" lon="129.452712982893">
        <ele>20.6</ele>
        <time>2026-06-05T15:51:48</time>
      </trkpt>
      <trkpt lat="35.98891597241163" lon="129.45272798649967">
        <ele>20.6</ele>
        <time>2026-06-05T15:51:49</time>
      </trkpt>
      <trkpt lat="35.98895092494786" lon="129.45273192599416">
        <ele>20.6</ele>
        <time>2026-06-05T15:51:50</time>
      </trkpt>
      <trkpt lat="35.988986967131495" lon="129.45272396318614">
        <ele>20.6</ele>
        <time>2026-06-05T15:51:51</time>
      </trkpt>
      <trkpt lat="35.98902493715286" lon="129.4527069479227">
        <ele>20.4</ele>
        <time>2026-06-05T15:51:52</time>
      </trkpt>
      <trkpt lat="35.98906399682164" lon="129.4526879210025">
        <ele>20.4</ele>
        <time>2026-06-05T15:51:53</time>
      </trkpt>
      <trkpt lat="35.98910791799426" lon="129.45267593488097">
        <ele>20.4</ele>
        <time>2026-06-05T15:51:54</time>
      </trkpt>
      <trkpt lat="35.98915494047105" lon="129.4526749290526">
        <ele>20.2</ele>
        <time>2026-06-05T15:51:55</time>
      </trkpt>
      <trkpt lat="35.98920598626137" lon="129.45268196985126">
        <ele>20.0</ele>
        <time>2026-06-05T15:51:56</time>
      </trkpt>
      <trkpt lat="35.98925996571779" lon="129.4526939559728">
        <ele>19.8</ele>
        <time>2026-06-05T15:51:57</time>
      </trkpt>
      <trkpt lat="35.98931696265936" lon="129.45271097123623">
        <ele>19.4</ele>
        <time>2026-06-05T15:51:58</time>
      </trkpt>
      <trkpt lat="35.989373959600925" lon="129.45273192599416">
        <ele>19.2</ele>
        <time>2026-06-05T15:51:59</time>
      </trkpt>
      <trkpt lat="35.98943196237087" lon="129.45275497622788">
        <ele>19.0</ele>
        <time>2026-06-05T15:52:00</time>
      </trkpt>
      <trkpt lat="35.98949197679758" lon="129.4527809601277">
        <ele>18.8</ele>
        <time>2026-06-05T15:52:01</time>
      </trkpt>
      <trkpt lat="35.98955199122429" lon="129.4528089556843">
        <ele>18.6</ele>
        <time>2026-06-05T15:52:02</time>
      </trkpt>
      <trkpt lat="35.98961393348873" lon="129.45283896289766">
        <ele>18.4</ele>
        <time>2026-06-05T15:52:03</time>
      </trkpt>
      <trkpt lat="35.98967797122896" lon="129.45287098176777">
        <ele>18.2</ele>
        <time>2026-06-05T15:52:04</time>
      </trkpt>
      <trkpt lat="35.98974293097854" lon="129.45290492847562">
        <ele>18.0</ele>
        <time>2026-06-05T15:52:05</time>
      </trkpt>
      <trkpt lat="35.98980797454715" lon="129.45293996483088">
        <ele>17.8</ele>
        <time>2026-06-05T15:52:06</time>
      </trkpt>
      <trkpt lat="35.989869916811585" lon="129.452979946509">
        <ele>17.4</ele>
        <time>2026-06-05T15:52:07</time>
      </trkpt>
      <trkpt lat="35.98992498591542" lon="129.45302898064256">
        <ele>17.0</ele>
        <time>2026-06-05T15:52:08</time>
      </trkpt>
      <trkpt lat="35.98996798507869" lon="129.45308899506927">
        <ele>16.6</ele>
        <time>2026-06-05T15:52:09</time>
      </trkpt>
      <trkpt lat="35.989994974806905" lon="129.4531609956175">
        <ele>16.2</ele>
        <time>2026-06-05T15:52:10</time>
      </trkpt>
      <trkpt lat="35.9900039434433" lon="129.45324196480215">
        <ele>15.8</ele>
        <time>2026-06-05T15:52:11</time>
      </trkpt>
      <trkpt lat="35.989993968978524" lon="129.4533269573003">
        <ele>15.6</ele>
        <time>2026-06-05T15:52:12</time>
      </trkpt>
      <trkpt lat="35.98997192457318" lon="129.4534099381417">
        <ele>15.2</ele>
        <time>2026-06-05T15:52:13</time>
      </trkpt>
      <trkpt lat="35.98994694650173" lon="129.45349099114537">
        <ele>15.2</ele>
        <time>2026-06-05T15:52:14</time>
      </trkpt>
      <trkpt lat="35.9899209626019" lon="129.45356994867325">
        <ele>15.0</ele>
        <time>2026-06-05T15:52:15</time>
      </trkpt>
      <trkpt lat="35.98989598453045" lon="129.45364496670663">
        <ele>15.0</ele>
        <time>2026-06-05T15:52:16</time>
      </trkpt>
      <trkpt lat="35.98987394012511" lon="129.45371696725488">
        <ele>15.0</ele>
        <time>2026-06-05T15:52:17</time>
      </trkpt>
      <trkpt lat="35.98985298536718" lon="129.45378595031798">
        <ele>15.0</ele>
        <time>2026-06-05T15:52:18</time>
      </trkpt>
      <trkpt lat="35.98983496427536" lon="129.45385199971497">
        <ele>15.2</ele>
        <time>2026-06-05T15:52:19</time>
      </trkpt>
      <trkpt lat="35.98981694318354" lon="129.45391796529293">
        <ele>15.4</ele>
        <time>2026-06-05T15:52:20</time>
      </trkpt>
      <trkpt lat="35.98979892209172" lon="129.4539839308709">
        <ele>15.6</ele>
        <time>2026-06-05T15:52:21</time>
      </trkpt>
      <trkpt lat="35.9897829964757" lon="129.45404998026788">
        <ele>15.8</ele>
        <time>2026-06-05T15:52:22</time>
      </trkpt>
      <trkpt lat="35.98976598121226" lon="129.45411594584584">
        <ele>16.0</ele>
        <time>2026-06-05T15:52:23</time>
      </trkpt>
      <trkpt lat="35.9897499717772" lon="129.45418098941445">
        <ele>16.2</ele>
        <time>2026-06-05T15:52:24</time>
      </trkpt>
      <trkpt lat="35.98973295651376" lon="129.45424594916403">
        <ele>16.6</ele>
        <time>2026-06-05T15:52:25</time>
      </trkpt>
      <trkpt lat="35.989716947078705" lon="129.45430898107588">
        <ele>16.8</ele>
        <time>2026-06-05T15:52:26</time>
      </trkpt>
      <trkpt lat="35.98970093764365" lon="129.4543719291687">
        <ele>17.2</ele>
        <time>2026-06-05T15:52:27</time>
      </trkpt>
      <trkpt lat="35.98968392238021" lon="129.45443395525217">
        <ele>17.6</ele>
        <time>2026-06-05T15:52:28</time>
      </trkpt>
      <trkpt lat="35.98966799676418" lon="129.45449497550726">
        <ele>18.0</ele>
        <time>2026-06-05T15:52:29</time>
      </trkpt>
      <trkpt lat="35.989651987329125" lon="129.45455197244883">
        <ele>18.4</ele>
        <time>2026-06-05T15:52:30</time>
      </trkpt>
      <trkpt lat="35.98963698372245" lon="129.45460595190525">
        <ele>18.8</ele>
        <time>2026-06-05T15:52:31</time>
      </trkpt>
      <trkpt lat="35.98962097428739" lon="129.4546589255333">
        <ele>19.0</ele>
        <time>2026-06-05T15:52:32</time>
      </trkpt>
      <trkpt lat="35.989606976509094" lon="129.45471198298037">
        <ele>19.4</ele>
        <time>2026-06-05T15:52:33</time>
      </trkpt>
      <trkpt lat="35.9895929787308" lon="129.45476395078003">
        <ele>19.8</ele>
        <time>2026-06-05T15:52:34</time>
      </trkpt>
      <trkpt lat="35.9895789809525" lon="129.45481399074197">
        <ele>20.0</ele>
        <time>2026-06-05T15:52:35</time>
      </trkpt>
      <trkpt lat="35.989564983174205" lon="129.45486394688487">
        <ele>20.4</ele>
        <time>2026-06-05T15:52:36</time>
      </trkpt>
      <trkpt lat="35.98955098539591" lon="129.45491298101842">
        <ele>20.6</ele>
        <time>2026-06-05T15:52:37</time>
      </trkpt>
      <trkpt lat="35.98953698761761" lon="129.45496193133295">
        <ele>21.0</ele>
        <time>2026-06-05T15:52:38</time>
      </trkpt>
      <trkpt lat="35.989522989839315" lon="129.45500995963812">
        <ele>21.4</ele>
        <time>2026-06-05T15:52:39</time>
      </trkpt>
      <trkpt lat="35.98950798623264" lon="129.45505899377167">
        <ele>21.6</ele>
        <time>2026-06-05T15:52:40</time>
      </trkpt>
      <trkpt lat="35.98949398845434" lon="129.45510894991457">
        <ele>22.0</ele>
        <time>2026-06-05T15:52:41</time>
      </trkpt>
      <trkpt lat="35.989480996504426" lon="129.45516091771424">
        <ele>22.4</ele>
        <time>2026-06-05T15:52:42</time>
      </trkpt>
      <trkpt lat="35.98946792073548" lon="129.45521296933293">
        <ele>22.6</ele>
        <time>2026-06-05T15:52:43</time>
      </trkpt>
      <trkpt lat="35.98945392295718" lon="129.45526393130422">
        <ele>23.0</ele>
        <time>2026-06-05T15:52:44</time>
      </trkpt>
      <trkpt lat="35.989439925178885" lon="129.4553119596094">
        <ele>23.2</ele>
        <time>2026-06-05T15:52:45</time>
      </trkpt>
      <trkpt lat="35.98942592740059" lon="129.45535898208618">
        <ele>23.4</ele>
        <time>2026-06-05T15:52:46</time>
      </trkpt>
      <trkpt lat="35.98941192962229" lon="129.4554049987346">
        <ele>23.8</ele>
        <time>2026-06-05T15:52:47</time>
      </trkpt>
      <trkpt lat="35.98939893767238" lon="129.45545294322073">
        <ele>24.0</ele>
        <time>2026-06-05T15:52:48</time>
      </trkpt>
      <trkpt lat="35.98938594572246" lon="129.4555009715259">
        <ele>24.4</ele>
        <time>2026-06-05T15:52:49</time>
      </trkpt>
      <trkpt lat="35.989371947944164" lon="129.4555519334972">
        <ele>24.6</ele>
        <time>2026-06-05T15:52:50</time>
      </trkpt>
      <trkpt lat="35.98935795016587" lon="129.4556029792875">
        <ele>24.8</ele>
        <time>2026-06-05T15:52:51</time>
      </trkpt>
      <trkpt lat="35.98934194073081" lon="129.4556539412588">
        <ele>25.2</ele>
        <time>2026-06-05T15:52:52</time>
      </trkpt>
      <trkpt lat="35.98932693712413" lon="129.45570398122072">
        <ele>25.4</ele>
        <time>2026-06-05T15:52:53</time>
      </trkpt>
      <trkpt lat="35.98931394517422" lon="129.45575293153524">
        <ele>25.8</ele>
        <time>2026-06-05T15:52:54</time>
      </trkpt>
      <trkpt lat="35.9893009532243" lon="129.45579995401204">
        <ele>26.2</ele>
        <time>2026-06-05T15:52:55</time>
      </trkpt>
      <trkpt lat="35.989288967102766" lon="129.4558479823172">
        <ele>26.4</ele>
        <time>2026-06-05T15:52:56</time>
      </trkpt>
      <trkpt lat="35.98927698098123" lon="129.45589592680335">
        <ele>26.8</ele>
        <time>2026-06-05T15:52:57</time>
      </trkpt>
      <trkpt lat="35.989264994859695" lon="129.4559449609369">
        <ele>27.0</ele>
        <time>2026-06-05T15:52:58</time>
      </trkpt>
      <trkpt lat="35.98925191909075" lon="129.45599399507046">
        <ele>27.4</ele>
        <time>2026-06-05T15:52:59</time>
      </trkpt>
      <trkpt lat="35.98923993296921" lon="129.4560419395566">
        <ele>27.6</ele>
        <time>2026-06-05T15:53:00</time>
      </trkpt>
      <trkpt lat="35.9892269410193" lon="129.45608996786177">
        <ele>28.0</ele>
        <time>2026-06-05T15:53:01</time>
      </trkpt>
      <trkpt lat="35.98921394906938" lon="129.45613799616694">
        <ele>28.2</ele>
        <time>2026-06-05T15:53:02</time>
      </trkpt>
      <trkpt lat="35.989200957119465" lon="129.45618392899632">
        <ele>28.4</ele>
        <time>2026-06-05T15:53:03</time>
      </trkpt>
      <trkpt lat="35.98918695934117" lon="129.4562269281596">
        <ele>28.6</ele>
        <time>2026-06-05T15:53:04</time>
      </trkpt>
      <trkpt lat="35.98917396739125" lon="129.45626992732286">
        <ele>29.0</ele>
        <time>2026-06-05T15:53:05</time>
      </trkpt>
      <trkpt lat="35.9891629870981" lon="129.4563109986484">
        <ele>29.2</ele>
        <time>2026-06-05T15:53:06</time>
      </trkpt>
      <trkpt lat="35.98915292881429" lon="129.45635098032653">
        <ele>29.4</ele>
        <time>2026-06-05T15:53:07</time>
      </trkpt>
      <trkpt lat="35.98914295434952" lon="129.4563889503479">
        <ele>29.6</ele>
        <time>2026-06-05T15:53:08</time>
      </trkpt>
      <trkpt lat="35.989133985713124" lon="129.45642599835992">
        <ele>30.0</ele>
        <time>2026-06-05T15:53:09</time>
      </trkpt>
      <trkpt lat="35.98912392742932" lon="129.45646095089614">
        <ele>30.2</ele>
        <time>2026-06-05T15:53:10</time>
      </trkpt>
      <trkpt lat="35.989113952964544" lon="129.45649699307978">
        <ele>30.2</ele>
        <time>2026-06-05T15:53:11</time>
      </trkpt>
      <trkpt lat="35.98910397849977" lon="129.456531945616">
        <ele>30.4</ele>
        <time>2026-06-05T15:53:12</time>
      </trkpt>
      <trkpt lat="35.989093920215964" lon="129.45656798779964">
        <ele>30.6</ele>
        <time>2026-06-05T15:53:13</time>
      </trkpt>
      <trkpt lat="35.98908495157957" lon="129.45660495199263">
        <ele>30.8</ele>
        <time>2026-06-05T15:53:14</time>
      </trkpt>
      <trkpt lat="35.98907598294318" lon="129.45664493367076">
        <ele>31.0</ele>
        <time>2026-06-05T15:53:15</time>
      </trkpt>
      <trkpt lat="35.98906793631613" lon="129.45668592117727">
        <ele>31.0</ele>
        <time>2026-06-05T15:53:16</time>
      </trkpt>
      <trkpt lat="35.98905997350812" lon="129.4567269925028">
        <ele>31.2</ele>
        <time>2026-06-05T15:53:17</time>
      </trkpt>
      <trkpt lat="35.989051926881075" lon="129.4567689858377">
        <ele>31.2</ele>
        <time>2026-06-05T15:53:18</time>
      </trkpt>
      <trkpt lat="35.98904396407306" lon="129.4568099733442">
        <ele>31.4</ele>
        <time>2026-06-05T15:53:19</time>
      </trkpt>
      <trkpt lat="35.98903499543667" lon="129.45685096085072">
        <ele>31.4</ele>
        <time>2026-06-05T15:53:20</time>
      </trkpt>
      <trkpt lat="35.989026948809624" lon="129.45688893087208">
        <ele>31.4</ele>
        <time>2026-06-05T15:53:21</time>
      </trkpt>
      <trkpt lat="35.98901798017323" lon="129.45692698471248">
        <ele>31.6</ele>
        <time>2026-06-05T15:53:22</time>
      </trkpt>
      <trkpt lat="35.989009933546185" lon="129.45696495473385">
        <ele>31.6</ele>
        <time>2026-06-05T15:53:23</time>
      </trkpt>
      <trkpt lat="35.98900197073817" lon="129.45700594224036">
        <ele>31.8</ele>
        <time>2026-06-05T15:53:24</time>
      </trkpt>
      <trkpt lat="35.98899392411113" lon="129.45704793557525">
        <ele>32.0</ele>
        <time>2026-06-05T15:53:25</time>
      </trkpt>
      <trkpt lat="35.988984955474734" lon="129.4570919405669">
        <ele>32.2</ele>
        <time>2026-06-05T15:53:26</time>
      </trkpt>
      <trkpt lat="35.98897699266672" lon="129.45713594555855">
        <ele>32.2</ele>
        <time>2026-06-05T15:53:27</time>
      </trkpt>
      <trkpt lat="35.988967940211296" lon="129.45718095637858">
        <ele>32.4</ele>
        <time>2026-06-05T15:53:28</time>
      </trkpt>
      <trkpt lat="35.98895796574652" lon="129.45722797885537">
        <ele>32.6</ele>
        <time>2026-06-05T15:53:29</time>
      </trkpt>
      <trkpt lat="35.98894698545337" lon="129.45727793499827">
        <ele>32.6</ele>
        <time>2026-06-05T15:53:30</time>
      </trkpt>
      <trkpt lat="35.98893692716956" lon="129.45733099244535">
        <ele>32.8</ele>
        <time>2026-06-05T15:53:31</time>
      </trkpt>
      <trkpt lat="35.98892695270479" lon="129.4573839660734">
        <ele>33.0</ele>
        <time>2026-06-05T15:53:32</time>
      </trkpt>
      <trkpt lat="35.98891697824001" lon="129.45743593387306">
        <ele>33.2</ele>
        <time>2026-06-05T15:53:33</time>
      </trkpt>
      <trkpt lat="35.98890691995621" lon="129.45748697966337">
        <ele>33.2</ele>
        <time>2026-06-05T15:53:34</time>
      </trkpt>
      <trkpt lat="35.98889694549143" lon="129.45753693580627">
        <ele>33.4</ele>
        <time>2026-06-05T15:53:35</time>
      </trkpt>
      <trkpt lat="35.98888697102666" lon="129.45758596993983">
        <ele>33.6</ele>
        <time>2026-06-05T15:53:36</time>
      </trkpt>
      <trkpt lat="35.988878924399614" lon="129.457633998245">
        <ele>33.8</ele>
        <time>2026-06-05T15:53:37</time>
      </trkpt>
      <trkpt lat="35.98887196741998" lon="129.45768194273114">
        <ele>33.8</ele>
        <time>2026-06-05T15:53:38</time>
      </trkpt>
      <trkpt lat="35.9888659324497" lon="129.45772896520793">
        <ele>34.0</ele>
        <time>2026-06-05T15:53:39</time>
      </trkpt>
      <trkpt lat="35.98885998129845" lon="129.45777498185635">
        <ele>34.2</ele>
        <time>2026-06-05T15:53:40</time>
      </trkpt>
      <trkpt lat="35.988854952156544" lon="129.45782099850476">
        <ele>34.2</ele>
        <time>2026-06-05T15:53:41</time>
      </trkpt>
      <trkpt lat="35.98885092884302" lon="129.45786491967738">
        <ele>34.4</ele>
        <time>2026-06-05T15:53:42</time>
      </trkpt>
      <trkpt lat="35.98884598352015" lon="129.45790791884065">
        <ele>34.6</ele>
        <time>2026-06-05T15:53:43</time>
      </trkpt>
      <trkpt lat="35.988838942721486" lon="129.45795091800392">
        <ele>34.6</ele>
        <time>2026-06-05T15:53:44</time>
      </trkpt>
      <trkpt lat="35.98883097991347" lon="129.45799299515784">
        <ele>34.8</ele>
        <time>2026-06-05T15:53:45</time>
      </trkpt>
      <trkpt lat="35.98882293328643" lon="129.4580359943211">
        <ele>34.8</ele>
        <time>2026-06-05T15:53:46</time>
      </trkpt>
      <trkpt lat="35.988815976306796" lon="129.4580809213221">
        <ele>35.0</ele>
        <time>2026-06-05T15:53:47</time>
      </trkpt>
      <trkpt lat="35.98880994133651" lon="129.4581279437989">
        <ele>35.0</ele>
        <time>2026-06-05T15:53:48</time>
      </trkpt>
      <trkpt lat="35.9888019785285" lon="129.4581749662757">
        <ele>35.0</ele>
        <time>2026-06-05T15:53:49</time>
      </trkpt>
      <trkpt lat="35.988793931901455" lon="129.45822299458086">
        <ele>35.2</ele>
        <time>2026-06-05T15:53:50</time>
      </trkpt>
      <trkpt lat="35.98878596909344" lon="129.458270939067">
        <ele>35.4</ele>
        <time>2026-06-05T15:53:51</time>
      </trkpt>
      <trkpt lat="35.9887779224664" lon="129.4583179615438">
        <ele>35.4</ele>
        <time>2026-06-05T15:53:52</time>
      </trkpt>
      <trkpt lat="35.988768953830004" lon="129.4583639781922">
        <ele>35.6</ele>
        <time>2026-06-05T15:53:53</time>
      </trkpt>
      <trkpt lat="35.98876099102199" lon="129.45840999484062">
        <ele>35.8</ele>
        <time>2026-06-05T15:53:54</time>
      </trkpt>
      <trkpt lat="35.98875395022333" lon="129.45845592767">
        <ele>36.0</ele>
        <time>2026-06-05T15:53:55</time>
      </trkpt>
      <trkpt lat="35.988746993243694" lon="129.4585029501468">
        <ele>36.2</ele>
        <time>2026-06-05T15:53:56</time>
      </trkpt>
      <trkpt lat="35.98874095827341" lon="129.45855097845197">
        <ele>36.4</ele>
        <time>2026-06-05T15:53:57</time>
      </trkpt>
      <trkpt lat="35.9887329954654" lon="129.4585989229381">
        <ele>36.6</ele>
        <time>2026-06-05T15:53:58</time>
      </trkpt>
      <trkpt lat="35.98872494883835" lon="129.45864896290004">
        <ele>36.6</ele>
        <time>2026-06-05T15:53:59</time>
      </trkpt>
      <trkpt lat="35.98871598020196" lon="129.45869891904294">
        <ele>36.8</ele>
        <time>2026-06-05T15:54:00</time>
      </trkpt>
      <trkpt lat="35.988708939403296" lon="129.45875097066164">
        <ele>36.8</ele>
        <time>2026-06-05T15:54:01</time>
      </trkpt>
      <trkpt lat="35.98870198242366" lon="129.45880193263292">
        <ele>37.0</ele>
        <time>2026-06-05T15:54:02</time>
      </trkpt>
      <trkpt lat="35.98869594745338" lon="129.45885297842324">
        <ele>37.2</ele>
        <time>2026-06-05T15:54:03</time>
      </trkpt>
      <trkpt lat="35.98868899047375" lon="129.45890293456614">
        <ele>37.2</ele>
        <time>2026-06-05T15:54:04</time>
      </trkpt>
      <trkpt lat="35.98868194967508" lon="129.4589509628713">
        <ele>37.4</ele>
        <time>2026-06-05T15:54:05</time>
      </trkpt>
      <trkpt lat="35.98867499269545" lon="129.45899697951972">
        <ele>37.4</ele>
        <time>2026-06-05T15:54:06</time>
      </trkpt>
      <trkpt lat="35.98866895772517" lon="129.45903796702623">
        <ele>37.6</ele>
        <time>2026-06-05T15:54:07</time>
      </trkpt>
      <trkpt lat="35.988662922754884" lon="129.45907392539084">
        <ele>37.6</ele>
        <time>2026-06-05T15:54:08</time>
      </trkpt>
      <trkpt lat="35.98865898326039" lon="129.45910594426095">
        <ele>37.8</ele>
        <time>2026-06-05T15:54:09</time>
      </trkpt>
      <trkpt lat="35.98865596577525" lon="129.45913393981755">
        <ele>38.0</ele>
        <time>2026-06-05T15:54:10</time>
      </trkpt>
      <trkpt lat="35.98865294829011" lon="129.45915799587965">
        <ele>38.2</ele>
        <time>2026-06-05T15:54:11</time>
      </trkpt>
      <trkpt lat="35.98865093663335" lon="129.4591779448092">
        <ele>38.2</ele>
        <time>2026-06-05T15:54:12</time>
      </trkpt>
      <trkpt lat="35.98864892497659" lon="129.45919395424426">
        <ele>38.4</ele>
        <time>2026-06-05T15:54:13</time>
      </trkpt>
      <trkpt lat="35.98864791914821" lon="129.45920694619417">
        <ele>38.4</ele>
        <time>2026-06-05T15:54:14</time>
      </trkpt>
      <trkpt lat="35.98864699713886" lon="129.45921499282122">
        <ele>38.6</ele>
        <time>2026-06-05T15:54:15</time>
      </trkpt>
      <trkpt lat="35.98864599131048" lon="129.45922295562923">
        <ele>38.8</ele>
        <time>2026-06-05T15:54:16</time>
      </trkpt>
      <trkpt lat="35.988643979653716" lon="129.45923091843724">
        <ele>38.8</ele>
        <time>2026-06-05T15:54:17</time>
      </trkpt>
      <trkpt lat="35.988642973825336" lon="129.45923997089267">
        <ele>39.0</ele>
        <time>2026-06-05T15:54:18</time>
      </trkpt>
      <trkpt lat="35.988642973825336" lon="129.45925095118582">
        <ele>39.0</ele>
        <time>2026-06-05T15:54:19</time>
      </trkpt>
      <trkpt lat="35.988640962168574" lon="129.45926293730736">
        <ele>39.0</ele>
        <time>2026-06-05T15:54:20</time>
      </trkpt>
      <trkpt lat="35.98863895051181" lon="129.45927693508565">
        <ele>39.0</ele>
        <time>2026-06-05T15:54:21</time>
      </trkpt>
      <trkpt lat="35.98863593302667" lon="129.45929093286395">
        <ele>39.2</ele>
        <time>2026-06-05T15:54:22</time>
      </trkpt>
      <trkpt lat="35.98863199353218" lon="129.4593079481274">
        <ele>39.2</ele>
        <time>2026-06-05T15:54:23</time>
      </trkpt>
      <trkpt lat="35.9886259585619" lon="129.45932898670435">
        <ele>39.2</ele>
        <time>2026-06-05T15:54:24</time>
      </trkpt>
      <trkpt lat="35.988621935248375" lon="129.45935497060418">
        <ele>39.2</ele>
        <time>2026-06-05T15:54:25</time>
      </trkpt>
      <trkpt lat="35.988616989925504" lon="129.4593869894743">
        <ele>39.2</ele>
        <time>2026-06-05T15:54:26</time>
      </trkpt>
      <trkpt lat="35.9886119607836" lon="129.45942194201052">
        <ele>39.2</ele>
        <time>2026-06-05T15:54:27</time>
      </trkpt>
      <trkpt lat="35.98860592581332" lon="129.45946091786027">
        <ele>39.4</ele>
        <time>2026-06-05T15:54:28</time>
      </trkpt>
      <trkpt lat="35.988598968833685" lon="129.45950492285192">
        <ele>39.4</ele>
        <time>2026-06-05T15:54:29</time>
      </trkpt>
      <trkpt lat="35.98859192803502" lon="129.45955395698547">
        <ele>39.4</ele>
        <time>2026-06-05T15:54:30</time>
      </trkpt>
      <trkpt lat="35.98858497105539" lon="129.45960693061352">
        <ele>39.6</ele>
        <time>2026-06-05T15:54:31</time>
      </trkpt>
      <trkpt lat="35.988576924428344" lon="129.45966099388897">
        <ele>39.6</ele>
        <time>2026-06-05T15:54:32</time>
      </trkpt>
      <trkpt lat="35.98856996744871" lon="129.45971597917378">
        <ele>39.8</ele>
        <time>2026-06-05T15:54:33</time>
      </trkpt>
      <trkpt lat="35.98856292665005" lon="129.4597699586302">
        <ele>39.8</ele>
        <time>2026-06-05T15:54:34</time>
      </trkpt>
      <trkpt lat="35.988555969670415" lon="129.45982293225825">
        <ele>40.0</ele>
        <time>2026-06-05T15:54:35</time>
      </trkpt>
      <trkpt lat="35.98854993470013" lon="129.45987598970532">
        <ele>40.0</ele>
        <time>2026-06-05T15:54:36</time>
      </trkpt>
      <trkpt lat="35.9885429777205" lon="129.45992996916175">
        <ele>40.2</ele>
        <time>2026-06-05T15:54:37</time>
      </trkpt>
      <trkpt lat="35.988535936921835" lon="129.45998596027493">
        <ele>40.4</ele>
        <time>2026-06-05T15:54:38</time>
      </trkpt>
      <trkpt lat="35.9885289799422" lon="129.46004195138812">
        <ele>40.6</ele>
        <time>2026-06-05T15:54:39</time>
      </trkpt>
      <trkpt lat="35.98852294497192" lon="129.46009995415807">
        <ele>40.8</ele>
        <time>2026-06-05T15:54:40</time>
      </trkpt>
      <trkpt lat="35.98851598799229" lon="129.46015594527125">
        <ele>40.8</ele>
        <time>2026-06-05T15:54:41</time>
      </trkpt>
      <trkpt lat="35.988509953022" lon="129.46021294221282">
        <ele>41.0</ele>
        <time>2026-06-05T15:54:42</time>
      </trkpt>
      <trkpt lat="35.9885049238801" lon="129.46026692166924">
        <ele>41.2</ele>
        <time>2026-06-05T15:54:43</time>
      </trkpt>
      <trkpt lat="35.9885049238801" lon="129.46031897328794">
        <ele>41.4</ele>
        <time>2026-06-05T15:54:44</time>
      </trkpt>
      <trkpt lat="35.988511964678764" lon="129.46037194691598">
        <ele>41.6</ele>
        <time>2026-06-05T15:54:45</time>
      </trkpt>
      <trkpt lat="35.98851992748678" lon="129.46042894385755">
        <ele>41.8</ele>
        <time>2026-06-05T15:54:46</time>
      </trkpt>
      <trkpt lat="35.98852495662868" lon="129.46048895828426">
        <ele>41.8</ele>
        <time>2026-06-05T15:54:47</time>
      </trkpt>
      <trkpt lat="35.98852596245706" lon="129.46054897271097">
        <ele>42.0</ele>
        <time>2026-06-05T15:54:48</time>
      </trkpt>
      <trkpt lat="35.9885239508003" lon="129.46060596965253">
        <ele>42.2</ele>
        <time>2026-06-05T15:54:49</time>
      </trkpt>
      <trkpt lat="35.98851992748678" lon="129.46066095493734">
        <ele>42.2</ele>
        <time>2026-06-05T15:54:50</time>
      </trkpt>
      <trkpt lat="35.98851799964905" lon="129.46071493439376">
        <ele>42.4</ele>
        <time>2026-06-05T15:54:51</time>
      </trkpt>
      <trkpt lat="35.98851598799229" lon="129.46076799184084">
        <ele>42.6</ele>
        <time>2026-06-05T15:54:52</time>
      </trkpt>
      <trkpt lat="35.988511964678764" lon="129.46082297712564">
        <ele>42.6</ele>
        <time>2026-06-05T15:54:53</time>
      </trkpt>
      <trkpt lat="35.98850592970848" lon="129.4608799740672">
        <ele>42.8</ele>
        <time>2026-06-05T15:54:54</time>
      </trkpt>
      <trkpt lat="35.98849997855723" lon="129.46093697100878">
        <ele>42.8</ele>
        <time>2026-06-05T15:54:55</time>
      </trkpt>
      <trkpt lat="35.988493943586946" lon="129.46099497377872">
        <ele>43.0</ele>
        <time>2026-06-05T15:54:56</time>
      </trkpt>
      <trkpt lat="35.988488998264074" lon="129.4610519707203">
        <ele>43.2</ele>
        <time>2026-06-05T15:54:57</time>
      </trkpt>
      <trkpt lat="35.98848497495055" lon="129.46110796183348">
        <ele>43.2</ele>
        <time>2026-06-05T15:54:58</time>
      </trkpt>
      <trkpt lat="35.98848195746541" lon="129.46116395294666">
        <ele>43.4</ele>
        <time>2026-06-05T15:54:59</time>
      </trkpt>
      <trkpt lat="35.98847893998027" lon="129.46121994405985">
        <ele>43.6</ele>
        <time>2026-06-05T15:55:00</time>
      </trkpt>
      <trkpt lat="35.9884739946574" lon="129.46127492934465">
        <ele>43.6</ele>
        <time>2026-06-05T15:55:01</time>
      </trkpt>
      <trkpt lat="35.988469971343875" lon="129.4613289926201">
        <ele>43.8</ele>
        <time>2026-06-05T15:55:02</time>
      </trkpt>
      <trkpt lat="35.98846494220197" lon="129.46138196624815">
        <ele>44.0</ele>
        <time>2026-06-05T15:55:03</time>
      </trkpt>
      <trkpt lat="35.98846091888845" lon="129.46143393404782">
        <ele>44.0</ele>
        <time>2026-06-05T15:55:04</time>
      </trkpt>
      <trkpt lat="35.98845798522234" lon="129.46148397400975">
        <ele>44.2</ele>
        <time>2026-06-05T15:55:05</time>
      </trkpt>
      <trkpt lat="35.98845597356558" lon="129.46153493598104">
        <ele>44.4</ele>
        <time>2026-06-05T15:55:06</time>
      </trkpt>
      <trkpt lat="35.98845597356558" lon="129.46158497594297">
        <ele>44.4</ele>
        <time>2026-06-05T15:55:07</time>
      </trkpt>
      <trkpt lat="35.98845396190882" lon="129.4616329204291">
        <ele>44.6</ele>
        <time>2026-06-05T15:55:08</time>
      </trkpt>
      <trkpt lat="35.988450944423676" lon="129.46168094873428">
        <ele>44.8</ele>
        <time>2026-06-05T15:55:09</time>
      </trkpt>
      <trkpt lat="35.988445999100804" lon="129.46172797121108">
        <ele>44.8</ele>
        <time>2026-06-05T15:55:10</time>
      </trkpt>
      <trkpt lat="35.98844197578728" lon="129.4617739878595">
        <ele>45.0</ele>
        <time>2026-06-05T15:55:11</time>
      </trkpt>
      <trkpt lat="35.98843795247376" lon="129.46181799285114">
        <ele>45.2</ele>
        <time>2026-06-05T15:55:12</time>
      </trkpt>
      <trkpt lat="35.98843493498862" lon="129.4618619978428">
        <ele>45.2</ele>
        <time>2026-06-05T15:55:13</time>
      </trkpt>
      <trkpt lat="35.988431917503476" lon="129.46190399117768">
        <ele>45.4</ele>
        <time>2026-06-05T15:55:14</time>
      </trkpt>
      <trkpt lat="35.988428983837366" lon="129.4619439728558">
        <ele>45.6</ele>
        <time>2026-06-05T15:55:15</time>
      </trkpt>
      <trkpt lat="35.988424960523844" lon="129.4619799312204">
        <ele>45.6</ele>
        <time>2026-06-05T15:55:16</time>
      </trkpt>
      <trkpt lat="35.98842294886708" lon="129.4620129559189">
        <ele>45.8</ele>
        <time>2026-06-05T15:55:17</time>
      </trkpt>
      <trkpt lat="35.98841993138194" lon="129.46204396896064">
        <ele>46.0</ele>
        <time>2026-06-05T15:55:18</time>
      </trkpt>
      <trkpt lat="35.98841791972518" lon="129.462073976174">
        <ele>46.0</ele>
        <time>2026-06-05T15:55:19</time>
      </trkpt>
      <trkpt lat="35.98841599188745" lon="129.46210691705346">
        <ele>46.2</ele>
        <time>2026-06-05T15:55:20</time>
      </trkpt>
      <trkpt lat="35.98841498605907" lon="129.4621429592371">
        <ele>46.4</ele>
        <time>2026-06-05T15:55:21</time>
      </trkpt>
      <trkpt lat="35.98841297440231" lon="129.462184952572">
        <ele>46.6</ele>
        <time>2026-06-05T15:55:22</time>
      </trkpt>
      <trkpt lat="35.98841096274555" lon="129.46223197504878">
        <ele>46.6</ele>
        <time>2026-06-05T15:55:23</time>
      </trkpt>
      <trkpt lat="35.988407945260406" lon="129.46228394284844">
        <ele>46.8</ele>
        <time>2026-06-05T15:55:24</time>
      </trkpt>
      <trkpt lat="35.988405933603644" lon="129.46233792230487">
        <ele>47.0</ele>
        <time>2026-06-05T15:55:25</time>
      </trkpt>
      <trkpt lat="35.98840392194688" lon="129.46239198558033">
        <ele>47.2</ele>
        <time>2026-06-05T15:55:26</time>
      </trkpt>
      <trkpt lat="35.988401994109154" lon="129.46244395338">
        <ele>47.2</ele>
        <time>2026-06-05T15:55:27</time>
      </trkpt>
      <trkpt lat="35.98840098828077" lon="129.46249298751354">
        <ele>47.4</ele>
        <time>2026-06-05T15:55:28</time>
      </trkpt>
      <trkpt lat="35.98839797079563" lon="129.4625399261713">
        <ele>47.6</ele>
        <time>2026-06-05T15:55:29</time>
      </trkpt>
      <trkpt lat="35.98839495331049" lon="129.46258292533457">
        <ele>47.6</ele>
        <time>2026-06-05T15:55:30</time>
      </trkpt>
      <trkpt lat="35.98839193582535" lon="129.46262491866946">
        <ele>47.8</ele>
        <time>2026-06-05T15:55:31</time>
      </trkpt>
      <trkpt lat="35.98838799633086" lon="129.46266699582338">
        <ele>48.0</ele>
        <time>2026-06-05T15:55:32</time>
      </trkpt>
      <trkpt lat="35.988384978845716" lon="129.4627069775015">
        <ele>48.2</ele>
        <time>2026-06-05T15:55:33</time>
      </trkpt>
      <trkpt lat="35.988381961360574" lon="129.46274595335126">
        <ele>48.2</ele>
        <time>2026-06-05T15:55:34</time>
      </trkpt>
      <trkpt lat="35.98837894387543" lon="129.46278392337263">
        <ele>48.4</ele>
        <time>2026-06-05T15:55:35</time>
      </trkpt>
      <trkpt lat="35.98837693221867" lon="129.46282097138464">
        <ele>48.6</ele>
        <time>2026-06-05T15:55:36</time>
      </trkpt>
      <trkpt lat="35.98837492056191" lon="129.462858941406">
        <ele>48.6</ele>
        <time>2026-06-05T15:55:37</time>
      </trkpt>
      <trkpt lat="35.9883719868958" lon="129.46289598941803">
        <ele>48.8</ele>
        <time>2026-06-05T15:55:38</time>
      </trkpt>
      <trkpt lat="35.98836997523904" lon="129.4629339594394">
        <ele>49.0</ele>
        <time>2026-06-05T15:55:39</time>
      </trkpt>
      <trkpt lat="35.98836796358228" lon="129.46297192946076">
        <ele>49.0</ele>
        <time>2026-06-05T15:55:40</time>
      </trkpt>
      <trkpt lat="35.9883669577539" lon="129.46301098912954">
        <ele>49.2</ele>
        <time>2026-06-05T15:55:41</time>
      </trkpt>
      <trkpt lat="35.988363940268755" lon="129.46305097080767">
        <ele>49.2</ele>
        <time>2026-06-05T15:55:42</time>
      </trkpt>
      <trkpt lat="35.988361928611994" lon="129.46309195831418">
        <ele>49.4</ele>
        <time>2026-06-05T15:55:43</time>
      </trkpt>
      <trkpt lat="35.98836092278361" lon="129.4631329458207">
        <ele>49.4</ele>
        <time>2026-06-05T15:55:44</time>
      </trkpt>
      <trkpt lat="35.988358994945884" lon="129.4631739333272">
        <ele>49.4</ele>
        <time>2026-06-05T15:55:45</time>
      </trkpt>
      <trkpt lat="35.98835597746074" lon="129.4632159266621">
        <ele>49.6</ele>
        <time>2026-06-05T15:55:46</time>
      </trkpt>
      <trkpt lat="35.98835195414722" lon="129.46325892582536">
        <ele>49.8</ele>
        <time>2026-06-05T15:55:47</time>
      </trkpt>
      <trkpt lat="35.98834692500532" lon="129.463302930817">
        <ele>49.8</ele>
        <time>2026-06-05T15:55:48</time>
      </trkpt>
      <trkpt lat="35.988340973854065" lon="129.46334794163704">
        <ele>50.0</ele>
        <time>2026-06-05T15:55:49</time>
      </trkpt>
      <trkpt lat="35.98833795636892" lon="129.46339295245707">
        <ele>50.2</ele>
        <time>2026-06-05T15:55:50</time>
      </trkpt>
      <trkpt lat="35.98833594471216" lon="129.4634379632771">
        <ele>50.4</ele>
        <time>2026-06-05T15:55:51</time>
      </trkpt>
      <trkpt lat="35.98833493888378" lon="129.4634849857539">
        <ele>50.4</ele>
        <time>2026-06-05T15:55:52</time>
      </trkpt>
      <trkpt lat="35.98833292722702" lon="129.46353293024004">
        <ele>50.6</ele>
        <time>2026-06-05T15:55:53</time>
      </trkpt>
      <trkpt lat="35.98833099938929" lon="129.46357995271683">
        <ele>50.8</ele>
        <time>2026-06-05T15:55:54</time>
      </trkpt>
      <trkpt lat="35.98832798190415" lon="129.46362697519362">
        <ele>50.8</ele>
        <time>2026-06-05T15:55:55</time>
      </trkpt>
      <trkpt lat="35.98832395859063" lon="129.46367491967976">
        <ele>51.0</ele>
        <time>2026-06-05T15:55:56</time>
      </trkpt>
      <trkpt lat="35.988319935277104" lon="129.46372596547008">
        <ele>51.2</ele>
        <time>2026-06-05T15:55:57</time>
      </trkpt>
      <trkpt lat="35.98831498995423" lon="129.46377793326974">
        <ele>51.2</ele>
        <time>2026-06-05T15:55:58</time>
      </trkpt>
      <trkpt lat="35.98830996081233" lon="129.46382998488843">
        <ele>51.4</ele>
        <time>2026-06-05T15:55:59</time>
      </trkpt>
      <trkpt lat="35.98830694332719" lon="129.46388295851648">
        <ele>51.4</ele>
        <time>2026-06-05T15:56:00</time>
      </trkpt>
      <trkpt lat="35.988302920013666" lon="129.46393593214452">
        <ele>51.6</ele>
        <time>2026-06-05T15:56:01</time>
      </trkpt>
      <trkpt lat="35.98830099217594" lon="129.46398798376322">
        <ele>51.6</ele>
        <time>2026-06-05T15:56:02</time>
      </trkpt>
      <trkpt lat="35.988298980519176" lon="129.4640389457345">
        <ele>51.8</ele>
        <time>2026-06-05T15:56:03</time>
      </trkpt>
      <trkpt lat="35.988296968862414" lon="129.46408999152482">
        <ele>51.8</ele>
        <time>2026-06-05T15:56:04</time>
      </trkpt>
      <trkpt lat="35.98829495720565" lon="129.46413994766772">
        <ele>52.0</ele>
        <time>2026-06-05T15:56:05</time>
      </trkpt>
      <trkpt lat="35.98829093389213" lon="129.46419099345803">
        <ele>52.0</ele>
        <time>2026-06-05T15:56:06</time>
      </trkpt>
      <trkpt lat="35.98828598856926" lon="129.46424195542932">
        <ele>52.2</ele>
        <time>2026-06-05T15:56:07</time>
      </trkpt>
      <trkpt lat="35.98828196525574" lon="129.46429593488574">
        <ele>52.2</ele>
        <time>2026-06-05T15:56:08</time>
      </trkpt>
      <trkpt lat="35.988278947770596" lon="129.4643499981612">
        <ele>52.2</ele>
        <time>2026-06-05T15:56:09</time>
      </trkpt>
      <trkpt lat="35.988276936113834" lon="129.46440699510276">
        <ele>52.4</ele>
        <time>2026-06-05T15:56:10</time>
      </trkpt>
      <trkpt lat="35.988272996619344" lon="129.46446399204433">
        <ele>52.4</ele>
        <time>2026-06-05T15:56:11</time>
      </trkpt>
      <trkpt lat="35.98826796747744" lon="129.46452291682363">
        <ele>52.4</ele>
        <time>2026-06-05T15:56:12</time>
      </trkpt>
      <trkpt lat="35.98826394416392" lon="129.46458393707871">
        <ele>52.6</ele>
        <time>2026-06-05T15:56:13</time>
      </trkpt>
      <trkpt lat="35.988259920850396" lon="129.46464696899056">
        <ele>52.6</ele>
        <time>2026-06-05T15:56:14</time>
      </trkpt>
      <trkpt lat="35.988255981355906" lon="129.46471092291176">
        <ele>52.8</ele>
        <time>2026-06-05T15:56:15</time>
      </trkpt>
      <trkpt lat="35.988250952214" lon="129.46477697230875">
        <ele>52.8</ele>
        <time>2026-06-05T15:56:16</time>
      </trkpt>
      <trkpt lat="35.9882459230721" lon="129.46484494954348">
        <ele>52.8</ele>
        <time>2026-06-05T15:56:17</time>
      </trkpt>
      <trkpt lat="35.98824097774923" lon="129.46491493843496">
        <ele>53.0</ele>
        <time>2026-06-05T15:56:18</time>
      </trkpt>
      <trkpt lat="35.98823796026409" lon="129.46498492732644">
        <ele>53.0</ele>
        <time>2026-06-05T15:56:19</time>
      </trkpt>
      <trkpt lat="35.988233936950564" lon="129.46505491621792">
        <ele>53.2</ele>
        <time>2026-06-05T15:56:20</time>
      </trkpt>
      <trkpt lat="35.988229997456074" lon="129.46512498892844">
        <ele>53.2</ele>
        <time>2026-06-05T15:56:21</time>
      </trkpt>
      <trkpt lat="35.98822496831417" lon="129.4651959836483">
        <ele>53.4</ele>
        <time>2026-06-05T15:56:22</time>
      </trkpt>
      <trkpt lat="35.98821993917227" lon="129.46526697836816">
        <ele>53.4</ele>
        <time>2026-06-05T15:56:23</time>
      </trkpt>
      <trkpt lat="35.98821599967778" lon="129.46533797308803">
        <ele>53.4</ele>
        <time>2026-06-05T15:56:24</time>
      </trkpt>
      <trkpt lat="35.988212982192636" lon="129.4654079619795">
        <ele>53.4</ele>
        <time>2026-06-05T15:56:25</time>
      </trkpt>
      <trkpt lat="35.988209964707494" lon="129.46547895669937">
        <ele>53.4</ele>
        <time>2026-06-05T15:56:26</time>
      </trkpt>
      <trkpt lat="35.98820694722235" lon="129.46554995141923">
        <ele>53.6</ele>
        <time>2026-06-05T15:56:27</time>
      </trkpt>
      <trkpt lat="35.98820392973721" lon="129.46562195196748">
        <ele>53.6</ele>
        <time>2026-06-05T15:56:28</time>
      </trkpt>
      <trkpt lat="35.9882009960711" lon="129.46569395251572">
        <ele>53.6</ele>
        <time>2026-06-05T15:56:29</time>
      </trkpt>
      <trkpt lat="35.98819697275758" lon="129.4657639414072">
        <ele>53.6</ele>
        <time>2026-06-05T15:56:30</time>
      </trkpt>
      <trkpt lat="35.988193955272436" lon="129.4658299908042">
        <ele>53.8</ele>
        <time>2026-06-05T15:56:31</time>
      </trkpt>
      <trkpt lat="35.988190937787294" lon="129.46589193306863">
        <ele>53.8</ele>
        <time>2026-06-05T15:56:32</time>
      </trkpt>
      <trkpt lat="35.98818792030215" lon="129.46594993583858">
        <ele>53.8</ele>
        <time>2026-06-05T15:56:33</time>
      </trkpt>
      <trkpt lat="35.98818398080766" lon="129.46600693278015">
        <ele>53.8</ele>
        <time>2026-06-05T15:56:34</time>
      </trkpt>
      <trkpt lat="35.98817794583738" lon="129.4660639297217">
        <ele>53.8</ele>
        <time>2026-06-05T15:56:35</time>
      </trkpt>
      <trkpt lat="35.98816595971584" lon="129.46611799299717">
        <ele>53.8</ele>
        <time>2026-06-05T15:56:36</time>
      </trkpt>
      <trkpt lat="35.988148944452405" lon="129.4661719724536">
        <ele>53.8</ele>
        <time>2026-06-05T15:56:37</time>
      </trkpt>
      <trkpt lat="35.988129917532206" lon="129.46622796356678">
        <ele>53.8</ele>
        <time>2026-06-05T15:56:38</time>
      </trkpt>
      <trkpt lat="35.98811591975391" lon="129.4662869721651">
        <ele>53.8</ele>
        <time>2026-06-05T15:56:39</time>
      </trkpt>
      <trkpt lat="35.988105945289135" lon="129.46634899824858">
        <ele>54.0</ele>
        <time>2026-06-05T15:56:40</time>
      </trkpt>
      <trkpt lat="35.98809798248112" lon="129.46641395799816">
        <ele>54.0</ele>
        <time>2026-06-05T15:56:41</time>
      </trkpt>
      <trkpt lat="35.98809094168246" lon="129.4664809294045">
        <ele>54.2</ele>
        <time>2026-06-05T15:56:42</time>
      </trkpt>
      <trkpt lat="35.988083984702826" lon="129.46654899045825">
        <ele>54.2</ele>
        <time>2026-06-05T15:56:43</time>
      </trkpt>
      <trkpt lat="35.98807694390416" lon="129.46661797352135">
        <ele>54.4</ele>
        <time>2026-06-05T15:56:44</time>
      </trkpt>
      <trkpt lat="35.98806998692453" lon="129.46668695658445">
        <ele>54.4</ele>
        <time>2026-06-05T15:56:45</time>
      </trkpt>
      <trkpt lat="35.988063951954246" lon="129.46675593964756">
        <ele>54.4</ele>
        <time>2026-06-05T15:56:46</time>
      </trkpt>
      <trkpt lat="35.98805791698396" lon="129.46682391688228">
        <ele>54.6</ele>
        <time>2026-06-05T15:56:47</time>
      </trkpt>
      <trkpt lat="35.98805297166109" lon="129.46688996627927">
        <ele>54.6</ele>
        <time>2026-06-05T15:56:48</time>
      </trkpt>
      <trkpt lat="35.98804693669081" lon="129.46695392020047">
        <ele>54.6</ele>
        <time>2026-06-05T15:56:49</time>
      </trkpt>
      <trkpt lat="35.988040985539556" lon="129.46701594628394">
        <ele>54.6</ele>
        <time>2026-06-05T15:56:50</time>
      </trkpt>
      <trkpt lat="35.98803595639765" lon="129.46707495488226">
        <ele>54.6</ele>
        <time>2026-06-05T15:56:51</time>
      </trkpt>
      <trkpt lat="35.98802992142737" lon="129.46713195182383">
        <ele>54.6</ele>
        <time>2026-06-05T15:56:52</time>
      </trkpt>
      <trkpt lat="35.98802296444774" lon="129.4671889487654">
        <ele>54.8</ele>
        <time>2026-06-05T15:56:53</time>
      </trkpt>
      <trkpt lat="35.98801692947745" lon="129.4672439340502">
        <ele>54.8</ele>
        <time>2026-06-05T15:56:54</time>
      </trkpt>
      <trkpt lat="35.98801198415458" lon="129.4672999251634">
        <ele>54.8</ele>
        <time>2026-06-05T15:56:55</time>
      </trkpt>
      <trkpt lat="35.9880059491843" lon="129.46735591627657">
        <ele>55.0</ele>
        <time>2026-06-05T15:56:56</time>
      </trkpt>
      <trkpt lat="35.98799999803305" lon="129.46741299703717">
        <ele>55.0</ele>
        <time>2026-06-05T15:56:57</time>
      </trkpt>
      <trkpt lat="35.98799396306276" lon="129.46747192181647">
        <ele>55.0</ele>
        <time>2026-06-05T15:56:58</time>
      </trkpt>
      <trkpt lat="35.98798993974924" lon="129.46753294207156">
        <ele>55.2</ele>
        <time>2026-06-05T15:56:59</time>
      </trkpt>
      <trkpt lat="35.9879869222641" lon="129.4675959739834">
        <ele>55.2</ele>
        <time>2026-06-05T15:57:00</time>
      </trkpt>
      <trkpt lat="35.98798298276961" lon="129.467660933733">
        <ele>55.2</ele>
        <time>2026-06-05T15:57:01</time>
      </trkpt>
      <trkpt lat="35.987976947799325" lon="129.46772698312998">
        <ele>55.2</ele>
        <time>2026-06-05T15:57:02</time>
      </trkpt>
      <trkpt lat="35.98796797916293" lon="129.46779294870794">
        <ele>55.2</ele>
        <time>2026-06-05T15:57:03</time>
      </trkpt>
      <trkpt lat="35.987958926707506" lon="129.46785799227655">
        <ele>55.4</ele>
        <time>2026-06-05T15:57:04</time>
      </trkpt>
      <trkpt lat="35.98794794641435" lon="129.46792194619775">
        <ele>55.4</ele>
        <time>2026-06-05T15:57:05</time>
      </trkpt>
      <trkpt lat="35.9879369661212" lon="129.4679849781096">
        <ele>55.4</ele>
        <time>2026-06-05T15:57:06</time>
      </trkpt>
      <trkpt lat="35.98792497999966" lon="129.4680489320308">
        <ele>55.4</ele>
        <time>2026-06-05T15:57:07</time>
      </trkpt>
      <trkpt lat="35.987912993878126" lon="129.4681139755994">
        <ele>55.6</ele>
        <time>2026-06-05T15:57:08</time>
      </trkpt>
      <trkpt lat="35.98790092393756" lon="129.4681779295206">
        <ele>55.6</ele>
        <time>2026-06-05T15:57:09</time>
      </trkpt>
      <trkpt lat="35.987888937816024" lon="129.46824297308922">
        <ele>55.6</ele>
        <time>2026-06-05T15:57:10</time>
      </trkpt>
      <trkpt lat="35.98787594586611" lon="129.46830692701042">
        <ele>55.6</ele>
        <time>2026-06-05T15:57:11</time>
      </trkpt>
      <trkpt lat="35.98786295391619" lon="129.46837096475065">
        <ele>55.6</ele>
        <time>2026-06-05T15:57:12</time>
      </trkpt>
      <trkpt lat="35.987849961966276" lon="129.46843491867185">
        <ele>55.8</ele>
        <time>2026-06-05T15:57:13</time>
      </trkpt>
      <trkpt lat="35.98783797584474" lon="129.4684979505837">
        <ele>55.8</ele>
        <time>2026-06-05T15:57:14</time>
      </trkpt>
      <trkpt lat="35.987826995551586" lon="129.46856098249555">
        <ele>55.8</ele>
        <time>2026-06-05T15:57:15</time>
      </trkpt>
      <trkpt lat="35.98781492561102" lon="129.46862292475998">
        <ele>56.0</ele>
        <time>2026-06-05T15:57:16</time>
      </trkpt>
      <trkpt lat="35.9878019336611" lon="129.46868495084345">
        <ele>56.0</ele>
        <time>2026-06-05T15:57:17</time>
      </trkpt>
      <trkpt lat="35.98778994753957" lon="129.46874496527016">
        <ele>56.2</ele>
        <time>2026-06-05T15:57:18</time>
      </trkpt>
      <trkpt lat="35.98777896724641" lon="129.46880497969687">
        <ele>56.2</ele>
        <time>2026-06-05T15:57:19</time>
      </trkpt>
      <trkpt lat="35.98776698112488" lon="129.46886298246682">
        <ele>56.4</ele>
        <time>2026-06-05T15:57:20</time>
      </trkpt>
      <trkpt lat="35.98775499500334" lon="129.46892098523676">
        <ele>56.4</ele>
        <time>2026-06-05T15:57:21</time>
      </trkpt>
      <trkpt lat="35.987743930891156" lon="129.4689789880067">
        <ele>56.6</ele>
        <time>2026-06-05T15:57:22</time>
      </trkpt>
      <trkpt lat="35.98773194476962" lon="129.46903699077666">
        <ele>56.8</ele>
        <time>2026-06-05T15:57:23</time>
      </trkpt>
      <trkpt lat="35.987719958648086" lon="129.46909398771822">
        <ele>56.8</ele>
        <time>2026-06-05T15:57:24</time>
      </trkpt>
      <trkpt lat="35.98770696669817" lon="129.4691509846598">
        <ele>57.0</ele>
        <time>2026-06-05T15:57:25</time>
      </trkpt>
      <trkpt lat="35.987693974748254" lon="129.46920798160136">
        <ele>57.0</ele>
        <time>2026-06-05T15:57:26</time>
      </trkpt>
      <trkpt lat="35.98768198862672" lon="129.46926497854292">
        <ele>57.2</ele>
        <time>2026-06-05T15:57:27</time>
      </trkpt>
      <trkpt lat="35.98766991868615" lon="129.46931895799935">
        <ele>57.2</ele>
        <time>2026-06-05T15:57:28</time>
      </trkpt>
      <trkpt lat="35.98766095004976" lon="129.46936396881938">
        <ele>57.4</ele>
        <time>2026-06-05T15:57:29</time>
      </trkpt>
      <trkpt lat="35.9876499697566" lon="129.46939699351788">
        <ele>57.4</ele>
        <time>2026-06-05T15:57:30</time>
      </trkpt>
      <trkpt lat="35.98764091730118" lon="129.4694179482758">
        <ele>57.4</ele>
        <time>2026-06-05T15:57:31</time>
      </trkpt>
      <trkpt lat="35.98763597197831" lon="129.4694269169122">
        <ele>57.4</ele>
        <time>2026-06-05T15:57:32</time>
      </trkpt>
      <trkpt lat="35.987633960321546" lon="129.4694269169122">
        <ele>57.4</ele>
        <time>2026-06-05T15:57:33</time>
      </trkpt>
      <trkpt lat="35.987631948664784" lon="129.4694239832461">
        <ele>57.6</ele>
        <time>2026-06-05T15:57:34</time>
      </trkpt>
      <trkpt lat="35.987630942836404" lon="129.46941895410419">
        <ele>57.6</ele>
        <time>2026-06-05T15:57:35</time>
      </trkpt>
      <trkpt lat="35.987632954493165" lon="129.46944192051888">
        <ele>57.4</ele>
        <time>2026-06-05T16:02:04</time>
      </trkpt>
      <trkpt lat="35.98762893117964" lon="129.46946295909584">
        <ele>57.6</ele>
        <time>2026-06-05T16:02:05</time>
      </trkpt>
      <trkpt lat="35.98762298002839" lon="129.46948994882405">
        <ele>57.6</ele>
        <time>2026-06-05T16:02:06</time>
      </trkpt>
      <trkpt lat="35.98761694505811" lon="129.46952096186578">
        <ele>57.6</ele>
        <time>2026-06-05T16:02:07</time>
      </trkpt>
      <trkpt lat="35.987609988078475" lon="129.4695569202304">
        <ele>57.6</ele>
        <time>2026-06-05T16:02:08</time>
      </trkpt>
      <trkpt lat="35.98760294727981" lon="129.46959597989917">
        <ele>57.6</ele>
        <time>2026-06-05T16:02:09</time>
      </trkpt>
      <trkpt lat="35.9875949844718" lon="129.46963696740568">
        <ele>57.8</ele>
        <time>2026-06-05T16:02:10</time>
      </trkpt>
      <trkpt lat="35.987587943673134" lon="129.4696769490838">
        <ele>57.8</ele>
        <time>2026-06-05T16:02:11</time>
      </trkpt>
      <trkpt lat="35.98757998086512" lon="129.4697189424187">
        <ele>58.0</ele>
        <time>2026-06-05T16:02:12</time>
      </trkpt>
      <trkpt lat="35.987570928409696" lon="129.46976294741035">
        <ele>58.0</ele>
        <time>2026-06-05T16:02:13</time>
      </trkpt>
      <trkpt lat="35.98756296560168" lon="129.4698119815439">
        <ele>58.2</ele>
        <time>2026-06-05T16:02:14</time>
      </trkpt>
      <trkpt lat="35.98755491897464" lon="129.46986495517194">
        <ele>58.2</ele>
        <time>2026-06-05T16:02:15</time>
      </trkpt>
      <trkpt lat="35.987546956166625" lon="129.46991994045675">
        <ele>58.4</ele>
        <time>2026-06-05T16:02:16</time>
      </trkpt>
      <trkpt lat="35.98753899335861" lon="129.46997391991317">
        <ele>58.6</ele>
        <time>2026-06-05T16:02:17</time>
      </trkpt>
      <trkpt lat="35.98753094673157" lon="129.47002597153187">
        <ele>58.6</ele>
        <time>2026-06-05T16:02:18</time>
      </trkpt>
      <trkpt lat="35.987522983923554" lon="129.47007592767477">
        <ele>58.8</ele>
        <time>2026-06-05T16:02:19</time>
      </trkpt>
      <trkpt lat="35.98751393146813" lon="129.47012194432318">
        <ele>59.0</ele>
        <time>2026-06-05T16:02:20</time>
      </trkpt>
      <trkpt lat="35.987505968660116" lon="129.47016494348645">
        <ele>59.2</ele>
        <time>2026-06-05T16:02:21</time>
      </trkpt>
      <trkpt lat="35.98749792203307" lon="129.47020693682134">
        <ele>59.2</ele>
        <time>2026-06-05T16:02:22</time>
      </trkpt>
      <trkpt lat="35.98749096505344" lon="129.47024599649012">
        <ele>59.4</ele>
        <time>2026-06-05T16:02:23</time>
      </trkpt>
      <trkpt lat="35.987482918426394" lon="129.47028497233987">
        <ele>59.6</ele>
        <time>2026-06-05T16:02:24</time>
      </trkpt>
      <trkpt lat="35.98747696727514" lon="129.47032394818962">
        <ele>59.8</ele>
        <time>2026-06-05T16:02:25</time>
      </trkpt>
      <trkpt lat="35.98747093230486" lon="129.47036191821098">
        <ele>60.0</ele>
        <time>2026-06-05T16:02:26</time>
      </trkpt>
      <trkpt lat="35.98746498115361" lon="129.47040298953652">
        <ele>60.0</ele>
        <time>2026-06-05T16:02:27</time>
      </trkpt>
      <trkpt lat="35.987458946183324" lon="129.4704449828714">
        <ele>60.2</ele>
        <time>2026-06-05T16:02:28</time>
      </trkpt>
      <trkpt lat="35.98745098337531" lon="129.47048798203468">
        <ele>60.4</ele>
        <time>2026-06-05T16:02:29</time>
      </trkpt>
      <trkpt lat="35.98744494840503" lon="129.47053098119795">
        <ele>60.6</ele>
        <time>2026-06-05T16:02:30</time>
      </trkpt>
      <trkpt lat="35.987437991425395" lon="129.47057398036122">
        <ele>60.8</ele>
        <time>2026-06-05T16:02:31</time>
      </trkpt>
      <trkpt lat="35.98743195645511" lon="129.47061496786773">
        <ele>61.0</ele>
        <time>2026-06-05T16:02:32</time>
      </trkpt>
      <trkpt lat="35.98742692731321" lon="129.47065494954586">
        <ele>61.2</ele>
        <time>2026-06-05T16:02:33</time>
      </trkpt>
      <trkpt lat="35.987419970333576" lon="129.4706909917295">
        <ele>61.2</ele>
        <time>2026-06-05T16:02:34</time>
      </trkpt>
      <trkpt lat="35.98741393536329" lon="129.47072594426572">
        <ele>61.4</ele>
        <time>2026-06-05T16:02:35</time>
      </trkpt>
      <trkpt lat="35.98740899004042" lon="129.4707599747926">
        <ele>61.6</ele>
        <time>2026-06-05T16:02:36</time>
      </trkpt>
      <trkpt lat="35.98740295507014" lon="129.47079392150044">
        <ele>61.8</ele>
        <time>2026-06-05T16:02:37</time>
      </trkpt>
      <trkpt lat="35.987398931756616" lon="129.47082996368408">
        <ele>61.8</ele>
        <time>2026-06-05T16:02:38</time>
      </trkpt>
      <trkpt lat="35.98739197477698" lon="129.47086793370545">
        <ele>62.0</ele>
        <time>2026-06-05T16:02:39</time>
      </trkpt>
      <trkpt lat="35.98738392814994" lon="129.47090892121196">
        <ele>62.2</ele>
        <time>2026-06-05T16:02:40</time>
      </trkpt>
      <trkpt lat="35.987374959513545" lon="129.47095192037523">
        <ele>62.2</ele>
        <time>2026-06-05T16:02:41</time>
      </trkpt>
      <trkpt lat="35.98736699670553" lon="129.47099894285202">
        <ele>62.4</ele>
        <time>2026-06-05T16:02:42</time>
      </trkpt>
      <trkpt lat="35.98735794425011" lon="129.4710469711572">
        <ele>62.6</ele>
        <time>2026-06-05T16:02:43</time>
      </trkpt>
      <trkpt lat="35.98734897561371" lon="129.4710969273001">
        <ele>62.8</ele>
        <time>2026-06-05T16:02:44</time>
      </trkpt>
      <trkpt lat="35.98734092898667" lon="129.47114495560527">
        <ele>62.8</ele>
        <time>2026-06-05T16:02:45</time>
      </trkpt>
      <trkpt lat="35.987332966178656" lon="129.47119197808206">
        <ele>63.0</ele>
        <time>2026-06-05T16:02:46</time>
      </trkpt>
      <trkpt lat="35.98732592537999" lon="129.47123799473047">
        <ele>63.2</ele>
        <time>2026-06-05T16:02:47</time>
      </trkpt>
      <trkpt lat="35.98731796257198" lon="129.47128199972212">
        <ele>63.4</ele>
        <time>2026-06-05T16:02:48</time>
      </trkpt>
      <trkpt lat="35.987311927601695" lon="129.4713249988854">
        <ele>63.6</ele>
        <time>2026-06-05T16:02:49</time>
      </trkpt>
      <trkpt lat="35.98730497062206" lon="129.47136699222028">
        <ele>63.8</ele>
        <time>2026-06-05T16:02:50</time>
      </trkpt>
      <trkpt lat="35.98729893565178" lon="129.4714079797268">
        <ele>64.0</ele>
        <time>2026-06-05T16:02:51</time>
      </trkpt>
      <trkpt lat="35.98729298450053" lon="129.47144695557654">
        <ele>64.0</ele>
        <time>2026-06-05T16:02:52</time>
      </trkpt>
      <trkpt lat="35.987286949530244" lon="129.4714859314263">
        <ele>64.2</ele>
        <time>2026-06-05T16:02:53</time>
      </trkpt>
      <trkpt lat="35.98728099837899" lon="129.47152398526669">
        <ele>64.4</ele>
        <time>2026-06-05T16:02:54</time>
      </trkpt>
      <trkpt lat="35.98727395758033" lon="129.47156296111643">
        <ele>64.6</ele>
        <time>2026-06-05T16:02:55</time>
      </trkpt>
      <trkpt lat="35.987266916781664" lon="129.47160294279456">
        <ele>64.8</ele>
        <time>2026-06-05T16:02:56</time>
      </trkpt>
      <trkpt lat="35.98726096563041" lon="129.47164393030107">
        <ele>65.0</ele>
        <time>2026-06-05T16:02:57</time>
      </trkpt>
      <trkpt lat="35.98725493066013" lon="129.47168298996985">
        <ele>65.2</ele>
        <time>2026-06-05T16:02:58</time>
      </trkpt>
      <trkpt lat="35.987247973680496" lon="129.47172297164798">
        <ele>65.2</ele>
        <time>2026-06-05T16:02:59</time>
      </trkpt>
      <trkpt lat="35.98724093288183" lon="129.4717639591545">
        <ele>65.4</ele>
        <time>2026-06-05T16:03:00</time>
      </trkpt>
      <trkpt lat="35.9872339759022" lon="129.47180595248938">
        <ele>65.6</ele>
        <time>2026-06-05T16:03:01</time>
      </trkpt>
      <trkpt lat="35.987224923446774" lon="129.47184995748103">
        <ele>65.8</ele>
        <time>2026-06-05T16:03:02</time>
      </trkpt>
      <trkpt lat="35.98721595481038" lon="129.47189396247268">
        <ele>66.0</ele>
        <time>2026-06-05T16:03:03</time>
      </trkpt>
      <trkpt lat="35.98720799200237" lon="129.4719389732927">
        <ele>66.2</ele>
        <time>2026-06-05T16:03:04</time>
      </trkpt>
      <trkpt lat="35.98719994537532" lon="129.4719859957695">
        <ele>66.4</ele>
        <time>2026-06-05T16:03:05</time>
      </trkpt>
      <trkpt lat="35.98719198256731" lon="129.47203192859888">
        <ele>66.6</ele>
        <time>2026-06-05T16:03:06</time>
      </trkpt>
      <trkpt lat="35.98718594759703" lon="129.47207492776215">
        <ele>66.6</ele>
        <time>2026-06-05T16:03:07</time>
      </trkpt>
      <trkpt lat="35.987179996445775" lon="129.47211792692542">
        <ele>66.8</ele>
        <time>2026-06-05T16:03:08</time>
      </trkpt>
      <trkpt lat="35.98717396147549" lon="129.47215799242258">
        <ele>67.0</ele>
        <time>2026-06-05T16:03:09</time>
      </trkpt>
      <trkpt lat="35.98716893233359" lon="129.4721979741007">
        <ele>67.2</ele>
        <time>2026-06-05T16:03:10</time>
      </trkpt>
      <trkpt lat="35.98716398701072" lon="129.47223694995046">
        <ele>67.4</ele>
        <time>2026-06-05T16:03:11</time>
      </trkpt>
      <trkpt lat="35.987157952040434" lon="129.47227693162858">
        <ele>67.6</ele>
        <time>2026-06-05T16:03:12</time>
      </trkpt>
      <trkpt lat="35.98714998923242" lon="129.47231699712574">
        <ele>67.6</ele>
        <time>2026-06-05T16:03:13</time>
      </trkpt>
      <trkpt lat="35.98714294843376" lon="129.4723559729755">
        <ele>67.8</ele>
        <time>2026-06-05T16:03:14</time>
      </trkpt>
      <trkpt lat="35.987135991454124" lon="129.47239394299686">
        <ele>68.0</ele>
        <time>2026-06-05T16:03:15</time>
      </trkpt>
      <trkpt lat="35.98712995648384" lon="129.47243099100888">
        <ele>68.2</ele>
        <time>2026-06-05T16:03:16</time>
      </trkpt>
      <trkpt lat="35.98712492734194" lon="129.47246694937348">
        <ele>68.4</ele>
        <time>2026-06-05T16:03:17</time>
      </trkpt>
      <trkpt lat="35.98711998201907" lon="129.4725039973855">
        <ele>68.6</ele>
        <time>2026-06-05T16:03:18</time>
      </trkpt>
      <trkpt lat="35.987114952877164" lon="129.47254297323525">
        <ele>68.8</ele>
        <time>2026-06-05T16:03:19</time>
      </trkpt>
      <trkpt lat="35.98710891790688" lon="129.47258396074176">
        <ele>68.8</ele>
        <time>2026-06-05T16:03:20</time>
      </trkpt>
      <trkpt lat="35.98710397258401" lon="129.47262494824827">
        <ele>69.0</ele>
        <time>2026-06-05T16:03:21</time>
      </trkpt>
      <trkpt lat="35.987097937613726" lon="129.4726649299264">
        <ele>69.2</ele>
        <time>2026-06-05T16:03:22</time>
      </trkpt>
      <trkpt lat="35.98709098063409" lon="129.47270398959517">
        <ele>69.4</ele>
        <time>2026-06-05T16:03:23</time>
      </trkpt>
      <trkpt lat="35.98708393983543" lon="129.47274095378816">
        <ele>69.6</ele>
        <time>2026-06-05T16:03:24</time>
      </trkpt>
      <trkpt lat="35.98707798868418" lon="129.47277791798115">
        <ele>69.8</ele>
        <time>2026-06-05T16:03:25</time>
      </trkpt>
      <trkpt lat="35.987072959542274" lon="129.47281597182155">
        <ele>70.0</ele>
        <time>2026-06-05T16:03:26</time>
      </trkpt>
      <trkpt lat="35.98706793040037" lon="129.4728539418429">
        <ele>70.2</ele>
        <time>2026-06-05T16:03:27</time>
      </trkpt>
      <trkpt lat="35.98706197924912" lon="129.4728919956833">
        <ele>70.4</ele>
        <time>2026-06-05T16:03:28</time>
      </trkpt>
      <trkpt lat="35.987055944278836" lon="129.47293197736144">
        <ele>70.4</ele>
        <time>2026-06-05T16:03:29</time>
      </trkpt>
      <trkpt lat="35.987049993127584" lon="129.47297195903957">
        <ele>70.6</ele>
        <time>2026-06-05T16:03:30</time>
      </trkpt>
      <trkpt lat="35.98704496398568" lon="129.47301395237446">
        <ele>70.8</ele>
        <time>2026-06-05T16:03:31</time>
      </trkpt>
      <trkpt lat="35.98703993484378" lon="129.47305594570935">
        <ele>71.0</ele>
        <time>2026-06-05T16:03:32</time>
      </trkpt>
      <trkpt lat="35.98703498952091" lon="129.47309793904424">
        <ele>71.2</ele>
        <time>2026-06-05T16:03:33</time>
      </trkpt>
      <trkpt lat="35.987029960379004" lon="129.47313993237913">
        <ele>71.4</ele>
        <time>2026-06-05T16:03:34</time>
      </trkpt>
      <trkpt lat="35.9870249312371" lon="129.47318192571402">
        <ele>71.4</ele>
        <time>2026-06-05T16:03:35</time>
      </trkpt>
      <trkpt lat="35.98701998591423" lon="129.47322299703956">
        <ele>71.6</ele>
        <time>2026-06-05T16:03:36</time>
      </trkpt>
      <trkpt lat="35.98701495677233" lon="129.47326398454607">
        <ele>71.8</ele>
        <time>2026-06-05T16:03:37</time>
      </trkpt>
      <trkpt lat="35.987009927630424" lon="129.47330497205257">
        <ele>72.0</ele>
        <time>2026-06-05T16:03:38</time>
      </trkpt>
      <trkpt lat="35.98700397647917" lon="129.47334797121584">
        <ele>72.2</ele>
        <time>2026-06-05T16:03:39</time>
      </trkpt>
      <trkpt lat="35.98699794150889" lon="129.47338895872235">
        <ele>72.4</ele>
        <time>2026-06-05T16:03:40</time>
      </trkpt>
      <trkpt lat="35.98699199035764" lon="129.47343095205724">
        <ele>72.4</ele>
        <time>2026-06-05T16:03:41</time>
      </trkpt>
      <trkpt lat="35.986986961215734" lon="129.47347193956375">
        <ele>72.6</ele>
        <time>2026-06-05T16:03:42</time>
      </trkpt>
      <trkpt lat="35.98698092624545" lon="129.47351292707026">
        <ele>72.8</ele>
        <time>2026-06-05T16:03:43</time>
      </trkpt>
      <trkpt lat="35.9869749750942" lon="129.47355299256742">
        <ele>73.0</ele>
        <time>2026-06-05T16:03:44</time>
      </trkpt>
      <trkpt lat="35.986969945952296" lon="129.47359297424555">
        <ele>73.2</ele>
        <time>2026-06-05T16:03:45</time>
      </trkpt>
      <trkpt lat="35.986966928467155" lon="129.47363396175206">
        <ele>73.4</ele>
        <time>2026-06-05T16:03:46</time>
      </trkpt>
      <trkpt lat="35.986962988972664" lon="129.47367394343019">
        <ele>73.6</ele>
        <time>2026-06-05T16:03:47</time>
      </trkpt>
      <trkpt lat="35.98695795983076" lon="129.4737139251083">
        <ele>73.8</ele>
        <time>2026-06-05T16:03:48</time>
      </trkpt>
      <trkpt lat="35.98695293068886" lon="129.47375399060547">
        <ele>74.0</ele>
        <time>2026-06-05T16:03:49</time>
      </trkpt>
      <trkpt lat="35.986946979537606" lon="129.47379196062684">
        <ele>74.2</ele>
        <time>2026-06-05T16:03:50</time>
      </trkpt>
      <trkpt lat="35.9869419503957" lon="129.47382892481983">
        <ele>74.4</ele>
        <time>2026-06-05T16:03:51</time>
      </trkpt>
      <trkpt lat="35.9869369212538" lon="129.47386496700346">
        <ele>74.6</ele>
        <time>2026-06-05T16:03:52</time>
      </trkpt>
      <trkpt lat="35.98693097010255" lon="129.47390193119645">
        <ele>74.8</ele>
        <time>2026-06-05T16:03:53</time>
      </trkpt>
      <trkpt lat="35.986925940960646" lon="129.47393897920847">
        <ele>75.0</ele>
        <time>2026-06-05T16:03:54</time>
      </trkpt>
      <trkpt lat="35.986919989809394" lon="129.47397694922984">
        <ele>75.2</ele>
        <time>2026-06-05T16:03:55</time>
      </trkpt>
      <trkpt lat="35.98691596649587" lon="129.47401592507958">
        <ele>75.2</ele>
        <time>2026-06-05T16:03:56</time>
      </trkpt>
      <trkpt lat="35.98691093735397" lon="129.47405397891998">
        <ele>75.4</ele>
        <time>2026-06-05T16:03:57</time>
      </trkpt>
      <trkpt lat="35.98690699785948" lon="129.47409094311297">
        <ele>75.6</ele>
        <time>2026-06-05T16:03:58</time>
      </trkpt>
      <trkpt lat="35.986901968717575" lon="129.4741269852966">
        <ele>75.8</ele>
        <time>2026-06-05T16:03:59</time>
      </trkpt>
      <trkpt lat="35.98689693957567" lon="129.4741639494896">
        <ele>76.0</ele>
        <time>2026-06-05T16:04:00</time>
      </trkpt>
      <trkpt lat="35.98689291626215" lon="129.47419999167323">
        <ele>76.2</ele>
        <time>2026-06-05T16:04:01</time>
      </trkpt>
      <trkpt lat="35.98688897676766" lon="129.47423595003784">
        <ele>76.2</ele>
        <time>2026-06-05T16:04:02</time>
      </trkpt>
      <trkpt lat="35.98688495345414" lon="129.4742699805647">
        <ele>76.4</ele>
        <time>2026-06-05T16:04:03</time>
      </trkpt>
      <trkpt lat="35.986880930140615" lon="129.47430292144418">
        <ele>76.6</ele>
        <time>2026-06-05T16:04:04</time>
      </trkpt>
      <trkpt lat="35.986877996474504" lon="129.47433695197105">
        <ele>76.8</ele>
        <time>2026-06-05T16:04:05</time>
      </trkpt>
      <trkpt lat="35.98687397316098" lon="129.47437098249793">
        <ele>77.0</ele>
        <time>2026-06-05T16:04:06</time>
      </trkpt>
      <trkpt lat="35.98686994984746" lon="129.47440593503416">
        <ele>77.0</ele>
        <time>2026-06-05T16:04:07</time>
      </trkpt>
      <trkpt lat="35.98686592653394" lon="129.4744419772178">
        <ele>77.2</ele>
        <time>2026-06-05T16:04:08</time>
      </trkpt>
      <trkpt lat="35.986860981211066" lon="129.47447994723916">
        <ele>77.2</ele>
        <time>2026-06-05T16:04:09</time>
      </trkpt>
      <trkpt lat="35.986856957897544" lon="129.4745189230889">
        <ele>77.4</ele>
        <time>2026-06-05T16:04:10</time>
      </trkpt>
      <trkpt lat="35.98685192875564" lon="129.47455898858607">
        <ele>77.4</ele>
        <time>2026-06-05T16:04:11</time>
      </trkpt>
      <trkpt lat="35.98684798926115" lon="129.47460198774934">
        <ele>77.6</ele>
        <time>2026-06-05T16:04:12</time>
      </trkpt>
      <trkpt lat="35.98684296011925" lon="129.474645992741">
        <ele>77.8</ele>
        <time>2026-06-05T16:04:13</time>
      </trkpt>
      <trkpt lat="35.986837930977345" lon="129.474690919742">
        <ele>78.0</ele>
        <time>2026-06-05T16:04:14</time>
      </trkpt>
      <trkpt lat="35.98683197982609" lon="129.47473391890526">
        <ele>78.0</ele>
        <time>2026-06-05T16:04:15</time>
      </trkpt>
      <trkpt lat="35.98682594485581" lon="129.47477599605918">
        <ele>78.2</ele>
        <time>2026-06-05T16:04:16</time>
      </trkpt>
      <trkpt lat="35.98681999370456" lon="129.4748159777373">
        <ele>78.4</ele>
        <time>2026-06-05T16:04:17</time>
      </trkpt>
      <trkpt lat="35.986815970391035" lon="129.47485495358706">
        <ele>78.6</ele>
        <time>2026-06-05T16:04:18</time>
      </trkpt>
      <trkpt lat="35.98681194707751" lon="129.47489191778004">
        <ele>78.6</ele>
        <time>2026-06-05T16:04:19</time>
      </trkpt>
      <trkpt lat="35.98680892959237" lon="129.47492795996368">
        <ele>78.8</ele>
        <time>2026-06-05T16:04:20</time>
      </trkpt>
      <trkpt lat="35.98680599592626" lon="129.47496492415667">
        <ele>78.8</ele>
        <time>2026-06-05T16:04:21</time>
      </trkpt>
      <trkpt lat="35.98680297844112" lon="129.47500197216868">
        <ele>79.0</ele>
        <time>2026-06-05T16:04:22</time>
      </trkpt>
      <trkpt lat="35.98679996095598" lon="129.47503893636167">
        <ele>79.0</ele>
        <time>2026-06-05T16:04:23</time>
      </trkpt>
      <trkpt lat="35.986796943470836" lon="129.47507799603045">
        <ele>79.2</ele>
        <time>2026-06-05T16:04:24</time>
      </trkpt>
      <trkpt lat="35.98679292015731" lon="129.47511797770858">
        <ele>79.2</ele>
        <time>2026-06-05T16:04:25</time>
      </trkpt>
      <trkpt lat="35.98678797483444" lon="129.4751589652151">
        <ele>79.4</ele>
        <time>2026-06-05T16:04:26</time>
      </trkpt>
      <trkpt lat="35.98678193986416" lon="129.4751999527216">
        <ele>79.6</ele>
        <time>2026-06-05T16:04:27</time>
      </trkpt>
      <trkpt lat="35.98677699454129" lon="129.47524295188487">
        <ele>79.6</ele>
        <time>2026-06-05T16:04:28</time>
      </trkpt>
      <trkpt lat="35.986770959571004" lon="129.47528494521976">
        <ele>79.8</ele>
        <time>2026-06-05T16:04:29</time>
      </trkpt>
      <trkpt lat="35.98676794208586" lon="129.47532693855464">
        <ele>80.0</ele>
        <time>2026-06-05T16:04:30</time>
      </trkpt>
      <trkpt lat="35.98676492460072" lon="129.47536893188953">
        <ele>80.2</ele>
        <time>2026-06-05T16:04:31</time>
      </trkpt>
      <trkpt lat="35.98676299676299" lon="129.47541092522442">
        <ele>80.4</ele>
        <time>2026-06-05T16:04:32</time>
      </trkpt>
      <trkpt lat="35.98675897344947" lon="129.47545099072158">
        <ele>80.6</ele>
        <time>2026-06-05T16:04:33</time>
      </trkpt>
      <trkpt lat="35.986754950135946" lon="129.4754909723997">
        <ele>80.6</ele>
        <time>2026-06-05T16:04:34</time>
      </trkpt>
      <trkpt lat="35.98674992099404" lon="129.47552994824946">
        <ele>80.8</ele>
        <time>2026-06-05T16:04:35</time>
      </trkpt>
      <trkpt lat="35.98674497567117" lon="129.4755689240992">
        <ele>81.0</ele>
        <time>2026-06-05T16:04:36</time>
      </trkpt>
      <trkpt lat="35.98673994652927" lon="129.47560597211123">
        <ele>81.2</ele>
        <time>2026-06-05T16:04:37</time>
      </trkpt>
      <trkpt lat="35.986734917387366" lon="129.47564494796097">
        <ele>81.4</ele>
        <time>2026-06-05T16:04:38</time>
      </trkpt>
      <trkpt lat="35.986730977892876" lon="129.47568392381072">
        <ele>81.6</ele>
        <time>2026-06-05T16:04:39</time>
      </trkpt>
      <trkpt lat="35.98672695457935" lon="129.47572499513626">
        <ele>81.8</ele>
        <time>2026-06-05T16:04:40</time>
      </trkpt>
      <trkpt lat="35.98672192543745" lon="129.47576698847115">
        <ele>82.0</ele>
        <time>2026-06-05T16:04:41</time>
      </trkpt>
      <trkpt lat="35.98671698011458" lon="129.47580998763442">
        <ele>82.0</ele>
        <time>2026-06-05T16:04:42</time>
      </trkpt>
      <trkpt lat="35.98671295680106" lon="129.4758519809693">
        <ele>82.2</ele>
        <time>2026-06-05T16:04:43</time>
      </trkpt>
      <trkpt lat="35.986708933487535" lon="129.47589296847582">
        <ele>82.4</ele>
        <time>2026-06-05T16:04:44</time>
      </trkpt>
      <trkpt lat="35.98670398816466" lon="129.47593295015395">
        <ele>82.6</ele>
        <time>2026-06-05T16:04:45</time>
      </trkpt>
      <trkpt lat="35.98669895902276" lon="129.47597293183208">
        <ele>82.6</ele>
        <time>2026-06-05T16:04:46</time>
      </trkpt>
      <trkpt lat="35.98669392988086" lon="129.47601299732924">
        <ele>82.8</ele>
        <time>2026-06-05T16:04:47</time>
      </trkpt>
      <trkpt lat="35.98668999038637" lon="129.47605398483574">
        <ele>83.0</ele>
        <time>2026-06-05T16:04:48</time>
      </trkpt>
      <trkpt lat="35.986685967072845" lon="129.47609597817063">
        <ele>83.0</ele>
        <time>2026-06-05T16:04:49</time>
      </trkpt>
      <trkpt lat="35.98668194375932" lon="129.47613797150552">
        <ele>83.2</ele>
        <time>2026-06-05T16:04:50</time>
      </trkpt>
      <trkpt lat="35.9866779204458" lon="129.4761799648404">
        <ele>83.4</ele>
        <time>2026-06-05T16:04:51</time>
      </trkpt>
      <trkpt lat="35.98667196929455" lon="129.47621994651854">
        <ele>83.6</ele>
        <time>2026-06-05T16:04:52</time>
      </trkpt>
      <trkpt lat="35.986666940152645" lon="129.47625992819667">
        <ele>83.6</ele>
        <time>2026-06-05T16:04:53</time>
      </trkpt>
      <trkpt lat="35.986661994829774" lon="129.47629898786545">
        <ele>83.8</ele>
        <time>2026-06-05T16:04:54</time>
      </trkpt>
      <trkpt lat="35.98665696568787" lon="129.4763379637152">
        <ele>83.8</ele>
        <time>2026-06-05T16:04:55</time>
      </trkpt>
      <trkpt lat="35.98665093071759" lon="129.47637794539332">
        <ele>84.0</ele>
        <time>2026-06-05T16:04:56</time>
      </trkpt>
      <trkpt lat="35.986645985394716" lon="129.47641792707145">
        <ele>84.0</ele>
        <time>2026-06-05T16:04:57</time>
      </trkpt>
      <trkpt lat="35.98664095625281" lon="129.476458998397">
        <ele>84.2</ele>
        <time>2026-06-05T16:04:58</time>
      </trkpt>
      <trkpt lat="35.98663793876767" lon="129.4764999859035">
        <ele>84.2</ele>
        <time>2026-06-05T16:04:59</time>
      </trkpt>
      <trkpt lat="35.98663492128253" lon="129.4765419792384">
        <ele>84.4</ele>
        <time>2026-06-05T16:05:00</time>
      </trkpt>
      <trkpt lat="35.98663098178804" lon="129.47658397257328">
        <ele>84.6</ele>
        <time>2026-06-05T16:05:01</time>
      </trkpt>
      <trkpt lat="35.986625952646136" lon="129.47662596590817">
        <ele>84.8</ele>
        <time>2026-06-05T16:05:02</time>
      </trkpt>
      <trkpt lat="35.986621929332614" lon="129.47666997089982">
        <ele>84.8</ele>
        <time>2026-06-05T16:05:03</time>
      </trkpt>
      <trkpt lat="35.98661798983812" lon="129.4767129700631">
        <ele>85.0</ele>
        <time>2026-06-05T16:05:04</time>
      </trkpt>
      <trkpt lat="35.9866139665246" lon="129.47675596922636">
        <ele>85.2</ele>
        <time>2026-06-05T16:05:05</time>
      </trkpt>
      <trkpt lat="35.98660994321108" lon="129.4767959509045">
        <ele>85.4</ele>
        <time>2026-06-05T16:05:06</time>
      </trkpt>
      <trkpt lat="35.986605919897556" lon="129.47683593258262">
        <ele>85.6</ele>
        <time>2026-06-05T16:05:07</time>
      </trkpt>
      <trkpt lat="35.986600974574685" lon="129.4768749922514">
        <ele>85.8</ele>
        <time>2026-06-05T16:05:08</time>
      </trkpt>
      <trkpt lat="35.98659695126116" lon="129.47691296227276">
        <ele>86.0</ele>
        <time>2026-06-05T16:05:09</time>
      </trkpt>
      <trkpt lat="35.98659192211926" lon="129.4769529439509">
        <ele>86.0</ele>
        <time>2026-06-05T16:05:10</time>
      </trkpt>
      <trkpt lat="35.98658798262477" lon="129.47699292562902">
        <ele>86.2</ele>
        <time>2026-06-05T16:05:11</time>
      </trkpt>
      <trkpt lat="35.986582953482866" lon="129.47703399695456">
        <ele>86.4</ele>
        <time>2026-06-05T16:05:12</time>
      </trkpt>
      <trkpt lat="35.98657792434096" lon="129.47707599028945">
        <ele>86.6</ele>
        <time>2026-06-05T16:05:13</time>
      </trkpt>
      <trkpt lat="35.98657297901809" lon="129.47711898945272">
        <ele>86.6</ele>
        <time>2026-06-05T16:05:14</time>
      </trkpt>
      <trkpt lat="35.98656794987619" lon="129.4771609827876">
        <ele>86.8</ele>
        <time>2026-06-05T16:05:15</time>
      </trkpt>
      <trkpt lat="35.986562920734286" lon="129.4772029761225">
        <ele>87.0</ele>
        <time>2026-06-05T16:05:16</time>
      </trkpt>
      <trkpt lat="35.986558981239796" lon="129.47724597528577">
        <ele>87.0</ele>
        <time>2026-06-05T16:05:17</time>
      </trkpt>
      <trkpt lat="35.98655395209789" lon="129.47728696279228">
        <ele>87.2</ele>
        <time>2026-06-05T16:05:18</time>
      </trkpt>
      <trkpt lat="35.98654992878437" lon="129.47732895612717">
        <ele>87.4</ele>
        <time>2026-06-05T16:05:19</time>
      </trkpt>
      <trkpt lat="35.9865449834615" lon="129.47736994363368">
        <ele>87.4</ele>
        <time>2026-06-05T16:05:20</time>
      </trkpt>
      <trkpt lat="35.98654096014798" lon="129.47741193696856">
        <ele>87.6</ele>
        <time>2026-06-05T16:05:21</time>
      </trkpt>
      <trkpt lat="35.986536936834455" lon="129.47745292447507">
        <ele>87.8</ele>
        <time>2026-06-05T16:05:22</time>
      </trkpt>
      <trkpt lat="35.98653199151158" lon="129.47749399580061">
        <ele>88.0</ele>
        <time>2026-06-05T16:05:23</time>
      </trkpt>
      <trkpt lat="35.98652796819806" lon="129.47753297165036">
        <ele>88.0</ele>
        <time>2026-06-05T16:05:24</time>
      </trkpt>
      <trkpt lat="35.98652394488454" lon="129.47757094167173">
        <ele>88.2</ele>
        <time>2026-06-05T16:05:25</time>
      </trkpt>
      <trkpt lat="35.98651899956167" lon="129.47760899551213">
        <ele>88.4</ele>
        <time>2026-06-05T16:05:26</time>
      </trkpt>
      <trkpt lat="35.986513970419765" lon="129.4776469655335">
        <ele>88.6</ele>
        <time>2026-06-05T16:05:27</time>
      </trkpt>
      <trkpt lat="35.98650894127786" lon="129.47768594138324">
        <ele>88.6</ele>
        <time>2026-06-05T16:05:28</time>
      </trkpt>
      <trkpt lat="35.98650399595499" lon="129.47772692888975">
        <ele>88.8</ele>
        <time>2026-06-05T16:05:29</time>
      </trkpt>
      <trkpt lat="35.98649997264147" lon="129.47776598855853">
        <ele>89.0</ele>
        <time>2026-06-05T16:05:30</time>
      </trkpt>
      <trkpt lat="35.986495949327946" lon="129.47780496440828">
        <ele>89.2</ele>
        <time>2026-06-05T16:05:31</time>
      </trkpt>
      <trkpt lat="35.98649192601442" lon="129.47784192860126">
        <ele>89.2</ele>
        <time>2026-06-05T16:05:32</time>
      </trkpt>
      <trkpt lat="35.98648798651993" lon="129.4778779707849">
        <ele>89.4</ele>
        <time>2026-06-05T16:05:33</time>
      </trkpt>
      <trkpt lat="35.98648396320641" lon="129.4779139291495">
        <ele>89.6</ele>
        <time>2026-06-05T16:05:34</time>
      </trkpt>
      <trkpt lat="35.98648094572127" lon="129.47794896550477">
        <ele>89.8</ele>
        <time>2026-06-05T16:05:35</time>
      </trkpt>
      <trkpt lat="35.98647792823613" lon="129.477983918041">
        <ele>90.0</ele>
        <time>2026-06-05T16:05:36</time>
      </trkpt>
      <trkpt lat="35.986473988741636" lon="129.47801895439625">
        <ele>90.0</ele>
        <time>2026-06-05T16:05:37</time>
      </trkpt>
      <trkpt lat="35.986469965428114" lon="129.47805499657989">
        <ele>90.2</ele>
        <time>2026-06-05T16:05:38</time>
      </trkpt>
      <trkpt lat="35.98646694794297" lon="129.47809196077287">
        <ele>90.4</ele>
        <time>2026-06-05T16:05:39</time>
      </trkpt>
      <trkpt lat="35.98646292462945" lon="129.47812892496586">
        <ele>90.6</ele>
        <time>2026-06-05T16:05:40</time>
      </trkpt>
      <trkpt lat="35.98645898513496" lon="129.47816798463464">
        <ele>90.6</ele>
        <time>2026-06-05T16:05:41</time>
      </trkpt>
      <trkpt lat="35.98645496182144" lon="129.47820796631277">
        <ele>90.8</ele>
        <time>2026-06-05T16:05:42</time>
      </trkpt>
      <trkpt lat="35.986449932679534" lon="129.47824995964766">
        <ele>91.0</ele>
        <time>2026-06-05T16:05:43</time>
      </trkpt>
      <trkpt lat="35.98644599318504" lon="129.47829094715416">
        <ele>91.2</ele>
        <time>2026-06-05T16:05:44</time>
      </trkpt>
      <trkpt lat="35.98644096404314" lon="129.4783309288323">
        <ele>91.4</ele>
        <time>2026-06-05T16:05:45</time>
      </trkpt>
      <trkpt lat="35.98643593490124" lon="129.4783689826727">
        <ele>91.4</ele>
        <time>2026-06-05T16:05:46</time>
      </trkpt>
      <trkpt lat="35.986430989578366" lon="129.47840695269406">
        <ele>91.6</ele>
        <time>2026-06-05T16:05:47</time>
      </trkpt>
      <trkpt lat="35.98642596043646" lon="129.47844198904932">
        <ele>91.8</ele>
        <time>2026-06-05T16:05:48</time>
      </trkpt>
      <trkpt lat="35.98642093129456" lon="129.47847794741392">
        <ele>92.0</ele>
        <time>2026-06-05T16:05:49</time>
      </trkpt>
      <trkpt lat="35.98641598597169" lon="129.47851298376918">
        <ele>92.0</ele>
        <time>2026-06-05T16:05:50</time>
      </trkpt>
      <trkpt lat="35.986410956829786" lon="129.4785479363054">
        <ele>92.2</ele>
        <time>2026-06-05T16:05:51</time>
      </trkpt>
      <trkpt lat="35.98640592768788" lon="129.4785859901458">
        <ele>92.4</ele>
        <time>2026-06-05T16:05:52</time>
      </trkpt>
      <trkpt lat="35.98640198819339" lon="129.47862597182393">
        <ele>92.4</ele>
        <time>2026-06-05T16:05:53</time>
      </trkpt>
      <trkpt lat="35.98639897070825" lon="129.47866595350206">
        <ele>92.6</ele>
        <time>2026-06-05T16:05:54</time>
      </trkpt>
      <trkpt lat="35.98639595322311" lon="129.4787059351802">
        <ele>92.8</ele>
        <time>2026-06-05T16:05:55</time>
      </trkpt>
      <trkpt lat="35.98639293573797" lon="129.4787439890206">
        <ele>92.8</ele>
        <time>2026-06-05T16:05:56</time>
      </trkpt>
      <trkpt lat="35.986389918252826" lon="129.47878095321357">
        <ele>93.0</ele>
        <time>2026-06-05T16:05:57</time>
      </trkpt>
      <trkpt lat="35.986387990415096" lon="129.47881598956883">
        <ele>93.2</ele>
        <time>2026-06-05T16:05:58</time>
      </trkpt>
      <trkpt lat="35.986384972929955" lon="129.47885094210505">
        <ele>93.2</ele>
        <time>2026-06-05T16:05:59</time>
      </trkpt>
      <trkpt lat="35.98638094961643" lon="129.4788859784603">
        <ele>93.4</ele>
        <time>2026-06-05T16:06:00</time>
      </trkpt>
      <trkpt lat="35.9863739926368" lon="129.47891992516816">
        <ele>93.4</ele>
        <time>2026-06-05T16:06:01</time>
      </trkpt>
      <trkpt lat="35.98636091686785" lon="129.4789509382099">
        <ele>93.6</ele>
        <time>2026-06-05T16:06:02</time>
      </trkpt>
      <trkpt lat="35.986343985423446" lon="129.47898195125163">
        <ele>93.6</ele>
        <time>2026-06-05T16:06:03</time>
      </trkpt>
      <trkpt lat="35.986322946846485" lon="129.47901296429336">
        <ele>93.6</ele>
        <time>2026-06-05T16:06:04</time>
      </trkpt>
      <trkpt lat="35.986304925754666" lon="129.4790479168296">
        <ele>93.8</ele>
        <time>2026-06-05T16:06:05</time>
      </trkpt>
      <trkpt lat="35.98629293963313" lon="129.47908395901322">
        <ele>94.0</ele>
        <time>2026-06-05T16:06:06</time>
      </trkpt>
      <trkpt lat="35.98628698848188" lon="129.4791209232062">
        <ele>94.0</ele>
        <time>2026-06-05T16:06:07</time>
      </trkpt>
      <trkpt lat="35.98628497682512" lon="129.47915696538985">
        <ele>94.2</ele>
        <time>2026-06-05T16:06:08</time>
      </trkpt>
      <trkpt lat="35.98628397099674" lon="129.47919292375445">
        <ele>94.4</ele>
        <time>2026-06-05T16:06:09</time>
      </trkpt>
      <trkpt lat="35.986281959339976" lon="129.4792289659381">
        <ele>94.6</ele>
        <time>2026-06-05T16:06:10</time>
      </trkpt>
      <trkpt lat="35.986279947683215" lon="129.47926693595946">
        <ele>94.8</ele>
        <time>2026-06-05T16:06:11</time>
      </trkpt>
      <trkpt lat="35.986277936026454" lon="129.47930792346597">
        <ele>95.0</ele>
        <time>2026-06-05T16:06:12</time>
      </trkpt>
      <trkpt lat="35.98627693019807" lon="129.47935192845762">
        <ele>95.2</ele>
        <time>2026-06-05T16:06:13</time>
      </trkpt>
      <trkpt lat="35.98627491854131" lon="129.4793989509344">
        <ele>95.4</ele>
        <time>2026-06-05T16:06:14</time>
      </trkpt>
      <trkpt lat="35.98627299070358" lon="129.47944999672472">
        <ele>95.6</ele>
        <time>2026-06-05T16:06:15</time>
      </trkpt>
      <trkpt lat="35.9862719848752" lon="129.47949894703925">
        <ele>95.8</ele>
        <time>2026-06-05T16:06:16</time>
      </trkpt>
      <trkpt lat="35.98626997321844" lon="129.47954496368766">
        <ele>96.0</ele>
        <time>2026-06-05T16:06:17</time>
      </trkpt>
      <trkpt lat="35.98626796156168" lon="129.47958796285093">
        <ele>96.2</ele>
        <time>2026-06-05T16:06:18</time>
      </trkpt>
      <trkpt lat="35.9862669557333" lon="129.47962693870068">
        <ele>96.4</ele>
        <time>2026-06-05T16:06:19</time>
      </trkpt>
      <trkpt lat="35.98626594990492" lon="129.4796639867127">
        <ele>96.6</ele>
        <time>2026-06-05T16:06:20</time>
      </trkpt>
      <trkpt lat="35.98626393824816" lon="129.4796999450773">
        <ele>96.8</ele>
        <time>2026-06-05T16:06:21</time>
      </trkpt>
      <trkpt lat="35.986261926591396" lon="129.47973498143256">
        <ele>97.0</ele>
        <time>2026-06-05T16:06:22</time>
      </trkpt>
      <trkpt lat="35.986258992925286" lon="129.47977295145392">
        <ele>97.2</ele>
        <time>2026-06-05T16:06:23</time>
      </trkpt>
      <trkpt lat="35.986256981268525" lon="129.4798109214753">
        <ele>97.2</ele>
        <time>2026-06-05T16:06:24</time>
      </trkpt>
      <trkpt lat="35.986254969611764" lon="129.47984998114407">
        <ele>97.4</ele>
        <time>2026-06-05T16:06:25</time>
      </trkpt>
      <trkpt lat="35.98625396378338" lon="129.47988895699382">
        <ele>97.6</ele>
        <time>2026-06-05T16:06:26</time>
      </trkpt>
      <trkpt lat="35.986252957955" lon="129.47992893867195">
        <ele>97.8</ele>
        <time>2026-06-05T16:06:27</time>
      </trkpt>
      <trkpt lat="35.98625195212662" lon="129.47996799834073">
        <ele>97.8</ele>
        <time>2026-06-05T16:06:28</time>
      </trkpt>
      <trkpt lat="35.98624893464148" lon="129.4800059683621">
        <ele>98.0</ele>
        <time>2026-06-05T16:06:29</time>
      </trkpt>
      <trkpt lat="35.98624692298472" lon="129.48004393838346">
        <ele>98.2</ele>
        <time>2026-06-05T16:06:30</time>
      </trkpt>
      <trkpt lat="35.98624398931861" lon="129.48008199222386">
        <ele>98.4</ele>
        <time>2026-06-05T16:06:31</time>
      </trkpt>
      <trkpt lat="35.98624197766185" lon="129.48011795058846">
        <ele>98.6</ele>
        <time>2026-06-05T16:06:32</time>
      </trkpt>
      <trkpt lat="35.986238960176706" lon="129.48015298694372">
        <ele>98.8</ele>
        <time>2026-06-05T16:06:33</time>
      </trkpt>
      <trkpt lat="35.986235942691565" lon="129.48018894530833">
        <ele>99.0</ele>
        <time>2026-06-05T16:06:34</time>
      </trkpt>
      <trkpt lat="35.98623191937804" lon="129.48022398166358">
        <ele>99.0</ele>
        <time>2026-06-05T16:06:35</time>
      </trkpt>
      <trkpt lat="35.98622797988355" lon="129.4802599400282">
        <ele>99.2</ele>
        <time>2026-06-05T16:06:36</time>
      </trkpt>
      <trkpt lat="35.98622395657003" lon="129.48029598221183">
        <ele>99.4</ele>
        <time>2026-06-05T16:06:37</time>
      </trkpt>
      <trkpt lat="35.986218927428126" lon="129.48033093474805">
        <ele>99.6</ele>
        <time>2026-06-05T16:06:38</time>
      </trkpt>
      <trkpt lat="35.986212976276875" lon="129.4803669769317">
        <ele>99.6</ele>
        <time>2026-06-05T16:06:39</time>
      </trkpt>
      <trkpt lat="35.98620694130659" lon="129.4804029352963">
        <ele>99.8</ele>
        <time>2026-06-05T16:06:40</time>
      </trkpt>
      <trkpt lat="35.98620099015534" lon="129.48043998330832">
        <ele>100.0</ele>
        <time>2026-06-05T16:06:41</time>
      </trkpt>
      <trkpt lat="35.986194955185056" lon="129.48047594167292">
        <ele>100.2</ele>
        <time>2026-06-05T16:06:42</time>
      </trkpt>
      <trkpt lat="35.98618992604315" lon="129.48051592335105">
        <ele>100.2</ele>
        <time>2026-06-05T16:06:43</time>
      </trkpt>
      <trkpt lat="35.98618498072028" lon="129.48055892251432">
        <ele>100.4</ele>
        <time>2026-06-05T16:06:44</time>
      </trkpt>
      <trkpt lat="35.98617894575" lon="129.48060493916273">
        <ele>100.6</ele>
        <time>2026-06-05T16:06:45</time>
      </trkpt>
      <trkpt lat="35.986170982941985" lon="129.48065497912467">
        <ele>100.8</ele>
        <time>2026-06-05T16:06:46</time>
      </trkpt>
      <trkpt lat="35.98616293631494" lon="129.48070694692433">
        <ele>100.8</ele>
        <time>2026-06-05T16:06:47</time>
      </trkpt>
      <trkpt lat="35.98615396767855" lon="129.48075899854302">
        <ele>101.0</ele>
        <time>2026-06-05T16:06:48</time>
      </trkpt>
      <trkpt lat="35.9861459210515" lon="129.48081197217107">
        <ele>101.2</ele>
        <time>2026-06-05T16:06:49</time>
      </trkpt>
      <trkpt lat="35.98613494075835" lon="129.4808649457991">
        <ele>101.2</ele>
        <time>2026-06-05T16:06:50</time>
      </trkpt>
      <trkpt lat="35.98612396046519" lon="129.4809169974178">
        <ele>101.4</ele>
        <time>2026-06-05T16:06:51</time>
      </trkpt>
      <trkpt lat="35.98611298017204" lon="129.48096997104585">
        <ele>101.4</ele>
        <time>2026-06-05T16:06:52</time>
      </trkpt>
      <trkpt lat="35.98610199987888" lon="129.4810229446739">
        <ele>101.6</ele>
        <time>2026-06-05T16:06:53</time>
      </trkpt>
      <trkpt lat="35.9860909357667" lon="129.48107591830194">
        <ele>101.6</ele>
        <time>2026-06-05T16:06:54</time>
      </trkpt>
      <trkpt lat="35.9860769379884" lon="129.48112696409225">
        <ele>101.8</ele>
        <time>2026-06-05T16:06:55</time>
      </trkpt>
      <trkpt lat="35.986062940210104" lon="129.48117792606354">
        <ele>101.8</ele>
        <time>2026-06-05T16:06:56</time>
      </trkpt>
      <trkpt lat="35.98604793660343" lon="129.48122897185385">
        <ele>102.0</ele>
        <time>2026-06-05T16:06:57</time>
      </trkpt>
      <trkpt lat="35.98603192716837" lon="129.48127792216837">
        <ele>102.0</ele>
        <time>2026-06-05T16:06:58</time>
      </trkpt>
      <trkpt lat="35.98601591773331" lon="129.48132595047355">
        <ele>102.0</ele>
        <time>2026-06-05T16:06:59</time>
      </trkpt>
      <trkpt lat="35.985999992117286" lon="129.48137196712196">
        <ele>102.2</ele>
        <time>2026-06-05T16:07:00</time>
      </trkpt>
      <trkpt lat="35.98598197102547" lon="129.48141798377037">
        <ele>102.2</ele>
        <time>2026-06-05T16:07:01</time>
      </trkpt>
      <trkpt lat="35.98596294410527" lon="129.4814629945904">
        <ele>102.4</ele>
        <time>2026-06-05T16:07:02</time>
      </trkpt>
      <trkpt lat="35.98594391718507" lon="129.48150699958205">
        <ele>102.4</ele>
        <time>2026-06-05T16:07:03</time>
      </trkpt>
      <trkpt lat="35.98592396825552" lon="129.48155192658305">
        <ele>102.4</ele>
        <time>2026-06-05T16:07:04</time>
      </trkpt>
      <trkpt lat="35.98590494133532" lon="129.48159794323146">
        <ele>102.6</ele>
        <time>2026-06-05T16:07:05</time>
      </trkpt>
      <trkpt lat="35.98588298074901" lon="129.48164395987988">
        <ele>102.6</ele>
        <time>2026-06-05T16:07:06</time>
      </trkpt>
      <trkpt lat="35.98586093634367" lon="129.48169098235667">
        <ele>102.6</ele>
        <time>2026-06-05T16:07:07</time>
      </trkpt>
      <trkpt lat="35.98583796992898" lon="129.48173792101443">
        <ele>102.8</ele>
        <time>2026-06-05T16:07:08</time>
      </trkpt>
      <trkpt lat="35.98581399768591" lon="129.4817859493196">
        <ele>102.8</ele>
        <time>2026-06-05T16:07:09</time>
      </trkpt>
      <trkpt lat="35.98578994162381" lon="129.48183397762477">
        <ele>102.8</ele>
        <time>2026-06-05T16:07:10</time>
      </trkpt>
      <trkpt lat="35.985763957723975" lon="129.4818829279393">
        <ele>102.8</ele>
        <time>2026-06-05T16:07:11</time>
      </trkpt>
      <trkpt lat="35.985738979652524" lon="129.4819299504161">
        <ele>102.8</ele>
        <time>2026-06-05T16:07:12</time>
      </trkpt>
      <trkpt lat="35.98571299575269" lon="129.48197697289288">
        <ele>103.0</ele>
        <time>2026-06-05T16:07:13</time>
      </trkpt>
      <trkpt lat="35.98568692803383" lon="129.4820219837129">
        <ele>103.0</ele>
        <time>2026-06-05T16:07:14</time>
      </trkpt>
      <trkpt lat="35.985660944134" lon="129.4820679165423">
        <ele>103.0</ele>
        <time>2026-06-05T16:07:15</time>
      </trkpt>
      <trkpt lat="35.985632948577404" lon="129.48211292736232">
        <ele>103.0</ele>
        <time>2026-06-05T16:07:16</time>
      </trkpt>
      <trkpt lat="35.98560394719243" lon="129.48215693235397">
        <ele>103.0</ele>
        <time>2026-06-05T16:07:17</time>
      </trkpt>
      <trkpt lat="35.985573939979076" lon="129.48220093734562">
        <ele>102.8</ele>
        <time>2026-06-05T16:07:18</time>
      </trkpt>
      <trkpt lat="35.98554393276572" lon="129.4822439365089">
        <ele>102.8</ele>
        <time>2026-06-05T16:07:19</time>
      </trkpt>
      <trkpt lat="35.98551199771464" lon="129.4822849240154">
        <ele>102.8</ele>
        <time>2026-06-05T16:07:20</time>
      </trkpt>
      <trkpt lat="35.98547997884452" lon="129.4823269173503">
        <ele>102.8</ele>
        <time>2026-06-05T16:07:21</time>
      </trkpt>
      <trkpt lat="35.98544695414603" lon="129.4823689945042">
        <ele>102.6</ele>
        <time>2026-06-05T16:07:22</time>
      </trkpt>
      <trkpt lat="35.98541292361915" lon="129.48241199366748">
        <ele>102.6</ele>
        <time>2026-06-05T16:07:23</time>
      </trkpt>
      <trkpt lat="35.985376965254545" lon="129.48245599865913">
        <ele>102.6</ele>
        <time>2026-06-05T16:07:24</time>
      </trkpt>
      <trkpt lat="35.98533991724253" lon="129.48250092566013">
        <ele>102.6</ele>
        <time>2026-06-05T16:07:25</time>
      </trkpt>
      <trkpt lat="35.98530194722116" lon="129.48254593648016">
        <ele>102.4</ele>
        <time>2026-06-05T16:07:26</time>
      </trkpt>
      <trkpt lat="35.98526196554303" lon="129.48259195312858">
        <ele>102.4</ele>
        <time>2026-06-05T16:07:27</time>
      </trkpt>
      <trkpt lat="35.98522097803652" lon="129.48263897560537">
        <ele>102.6</ele>
        <time>2026-06-05T16:07:28</time>
      </trkpt>
      <trkpt lat="35.98517797887325" lon="129.48268499225378">
        <ele>102.6</ele>
        <time>2026-06-05T16:07:29</time>
      </trkpt>
      <trkpt lat="35.98513296805322" lon="129.48273193091154">
        <ele>102.6</ele>
        <time>2026-06-05T16:07:30</time>
      </trkpt>
      <trkpt lat="35.98508594557643" lon="129.4827809650451">
        <ele>102.6</ele>
        <time>2026-06-05T16:07:31</time>
      </trkpt>
      <trkpt lat="35.98503699526191" lon="129.482830921188">
        <ele>102.6</ele>
        <time>2026-06-05T16:07:32</time>
      </trkpt>
      <trkpt lat="35.98498594947159" lon="129.48288397863507">
        <ele>102.6</ele>
        <time>2026-06-05T16:07:33</time>
      </trkpt>
      <trkpt lat="35.98493398167193" lon="129.48293695226312">
        <ele>102.4</ele>
        <time>2026-06-05T16:07:34</time>
      </trkpt>
      <trkpt lat="35.984881930053234" lon="129.48299093171954">
        <ele>102.4</ele>
        <time>2026-06-05T16:07:35</time>
      </trkpt>
      <trkpt lat="35.98482895642519" lon="129.48304398916662">
        <ele>102.4</ele>
        <time>2026-06-05T16:07:36</time>
      </trkpt>
      <trkpt lat="35.984775982797146" lon="129.48309595696628">
        <ele>102.4</ele>
        <time>2026-06-05T16:07:37</time>
      </trkpt>
      <trkpt lat="35.98472393117845" lon="129.48314691893756">
        <ele>102.2</ele>
        <time>2026-06-05T16:07:38</time>
      </trkpt>
      <trkpt lat="35.98467296920717" lon="129.48319796472788">
        <ele>102.2</ele>
        <time>2026-06-05T16:07:39</time>
      </trkpt>
      <trkpt lat="35.98462192341685" lon="129.48324892669916">
        <ele>102.0</ele>
        <time>2026-06-05T16:07:40</time>
      </trkpt>
      <trkpt lat="35.98457096144557" lon="129.48329997248948">
        <ele>102.0</ele>
        <time>2026-06-05T16:07:41</time>
      </trkpt>
      <trkpt lat="35.984520921483636" lon="129.48335093446076">
        <ele>101.8</ele>
        <time>2026-06-05T16:07:42</time>
      </trkpt>
      <trkpt lat="35.98447096534073" lon="129.48340198025107">
        <ele>101.6</ele>
        <time>2026-06-05T16:07:43</time>
      </trkpt>
      <trkpt lat="35.9844209253788" lon="129.48345294222236">
        <ele>101.6</ele>
        <time>2026-06-05T16:07:44</time>
      </trkpt>
      <trkpt lat="35.9843709692359" lon="129.48350499384105">
        <ele>101.4</ele>
        <time>2026-06-05T16:07:45</time>
      </trkpt>
      <trkpt lat="35.98432092927396" lon="129.48355595581234">
        <ele>101.4</ele>
        <time>2026-06-05T16:07:46</time>
      </trkpt>
      <trkpt lat="35.98427197895944" lon="129.48360691778362">
        <ele>101.2</ele>
        <time>2026-06-05T16:07:47</time>
      </trkpt>
      <trkpt lat="35.98422193899751" lon="129.48365796357393">
        <ele>101.2</ele>
        <time>2026-06-05T16:07:48</time>
      </trkpt>
      <trkpt lat="35.984171982854605" lon="129.48370791971684">
        <ele>101.0</ele>
        <time>2026-06-05T16:07:49</time>
      </trkpt>
      <trkpt lat="35.98412093706429" lon="129.48375896550715">
        <ele>101.0</ele>
        <time>2026-06-05T16:07:50</time>
      </trkpt>
      <trkpt lat="35.98406997509301" lon="129.4838109333068">
        <ele>100.8</ele>
        <time>2026-06-05T16:07:51</time>
      </trkpt>
      <trkpt lat="35.98401792347431" lon="129.4838629849255">
        <ele>100.8</ele>
        <time>2026-06-05T16:07:52</time>
      </trkpt>
      <trkpt lat="35.98396595567465" lon="129.48391595855355">
        <ele>100.8</ele>
        <time>2026-06-05T16:07:53</time>
      </trkpt>
      <trkpt lat="35.983912982046604" lon="129.4839689321816">
        <ele>100.6</ele>
        <time>2026-06-05T16:07:54</time>
      </trkpt>
      <trkpt lat="35.98386093042791" lon="129.48402198962867">
        <ele>100.6</ele>
        <time>2026-06-05T16:07:55</time>
      </trkpt>
      <trkpt lat="35.983809968456626" lon="129.48407395742834">
        <ele>100.6</ele>
        <time>2026-06-05T16:07:56</time>
      </trkpt>
      <trkpt lat="35.98376093432307" lon="129.48412491939962">
        <ele>100.6</ele>
        <time>2026-06-05T16:07:57</time>
      </trkpt>
      <trkpt lat="35.98371298983693" lon="129.48417596518993">
        <ele>100.4</ele>
        <time>2026-06-05T16:07:58</time>
      </trkpt>
      <trkpt lat="35.98366496153176" lon="129.4842249993235">
        <ele>100.4</ele>
        <time>2026-06-05T16:07:59</time>
      </trkpt>
      <trkpt lat="35.98361894488335" lon="129.48427294380963">
        <ele>100.4</ele>
        <time>2026-06-05T16:08:00</time>
      </trkpt>
      <trkpt lat="35.983572928234935" lon="129.48431996628642">
        <ele>100.4</ele>
        <time>2026-06-05T16:08:01</time>
      </trkpt>
      <trkpt lat="35.983527917414904" lon="129.4843679945916">
        <ele>100.4</ele>
        <time>2026-06-05T16:08:02</time>
      </trkpt>
      <trkpt lat="35.983482990413904" lon="129.48441593907773">
        <ele>100.4</ele>
        <time>2026-06-05T16:08:03</time>
      </trkpt>
      <trkpt lat="35.98343797959387" lon="129.4844639673829">
        <ele>100.4</ele>
        <time>2026-06-05T16:08:04</time>
      </trkpt>
      <trkpt lat="35.98339397460222" lon="129.4845139235258">
        <ele>100.4</ele>
        <time>2026-06-05T16:08:05</time>
      </trkpt>
      <trkpt lat="35.98334996961057" lon="129.48456396348774">
        <ele>100.4</ele>
        <time>2026-06-05T16:08:06</time>
      </trkpt>
      <trkpt lat="35.98330797627568" lon="129.4846159312874">
        <ele>100.4</ele>
        <time>2026-06-05T16:08:07</time>
      </trkpt>
      <trkpt lat="35.98326598294079" lon="129.48466999456286">
        <ele>100.4</ele>
        <time>2026-06-05T16:08:08</time>
      </trkpt>
      <trkpt lat="35.983223989605904" lon="129.48472598567605">
        <ele>100.4</ele>
        <time>2026-06-05T16:08:09</time>
      </trkpt>
      <trkpt lat="35.983181996271014" lon="129.484783988446">
        <ele>100.4</ele>
        <time>2026-06-05T16:08:10</time>
      </trkpt>
      <trkpt lat="35.983140924945474" lon="129.48484299704432">
        <ele>100.4</ele>
        <time>2026-06-05T16:08:11</time>
      </trkpt>
      <trkpt lat="35.983097925782204" lon="129.484902927652">
        <ele>100.4</ele>
        <time>2026-06-05T16:08:12</time>
      </trkpt>
      <trkpt lat="35.983052998781204" lon="129.4849629420787">
        <ele>100.2</ele>
        <time>2026-06-05T16:08:13</time>
      </trkpt>
      <trkpt lat="35.983008993789554" lon="129.4850239623338">
        <ele>100.2</ele>
        <time>2026-06-05T16:08:14</time>
      </trkpt>
      <trkpt lat="35.98296398296952" lon="129.48508699424565">
        <ele>100.2</ele>
        <time>2026-06-05T16:08:15</time>
      </trkpt>
      <trkpt lat="35.98291997797787" lon="129.48515094816685">
        <ele>100.0</ele>
        <time>2026-06-05T16:08:16</time>
      </trkpt>
      <trkpt lat="35.98287496715784" lon="129.48521498590708">
        <ele>100.0</ele>
        <time>2026-06-05T16:08:17</time>
      </trkpt>
      <trkpt lat="35.98282995633781" lon="129.48528195731342">
        <ele>99.8</ele>
        <time>2026-06-05T16:08:18</time>
      </trkpt>
      <trkpt lat="35.98278494551778" lon="129.48534993454814">
        <ele>99.8</ele>
        <time>2026-06-05T16:08:19</time>
      </trkpt>
      <trkpt lat="35.98273892886937" lon="129.48541891761124">
        <ele>99.8</ele>
        <time>2026-06-05T16:08:20</time>
      </trkpt>
      <trkpt lat="35.98269299603999" lon="129.48548798449337">
        <ele>99.6</ele>
        <time>2026-06-05T16:08:21</time>
      </trkpt>
      <trkpt lat="35.982646979391575" lon="129.48555897921324">
        <ele>99.6</ele>
        <time>2026-06-05T16:08:22</time>
      </trkpt>
      <trkpt lat="35.98260096274316" lon="129.48563097976148">
        <ele>99.4</ele>
        <time>2026-06-05T16:08:23</time>
      </trkpt>
      <trkpt lat="35.98255595192313" lon="129.4857039861381">
        <ele>99.4</ele>
        <time>2026-06-05T16:08:24</time>
      </trkpt>
      <trkpt lat="35.98250993527472" lon="129.48577699251473">
        <ele>99.2</ele>
        <time>2026-06-05T16:08:25</time>
      </trkpt>
      <trkpt lat="35.98246492445469" lon="129.48585192672908">
        <ele>99.0</ele>
        <time>2026-06-05T16:08:26</time>
      </trkpt>
      <trkpt lat="35.98241999745369" lon="129.48592895641923">
        <ele>98.8</ele>
        <time>2026-06-05T16:08:27</time>
      </trkpt>
      <trkpt lat="35.98237498663366" lon="129.4860089197755">
        <ele>98.6</ele>
        <time>2026-06-05T16:08:28</time>
      </trkpt>
      <trkpt lat="35.98233098164201" lon="129.48608997277915">
        <ele>98.4</ele>
        <time>2026-06-05T16:08:29</time>
      </trkpt>
      <trkpt lat="35.98228697665036" lon="129.48617395944893">
        <ele>98.2</ele>
        <time>2026-06-05T16:08:30</time>
      </trkpt>
      <trkpt lat="35.98224297165871" lon="129.48625995777547">
        <ele>98.0</ele>
        <time>2026-06-05T16:08:31</time>
      </trkpt>
      <trkpt lat="35.982198966667056" lon="129.48634796775877">
        <ele>97.6</ele>
        <time>2026-06-05T16:08:32</time>
      </trkpt>
      <trkpt lat="35.982155967503786" lon="129.48643798939884">
        <ele>97.4</ele>
        <time>2026-06-05T16:08:33</time>
      </trkpt>
      <trkpt lat="35.982111962512136" lon="129.486530944705">
        <ele>97.0</ele>
        <time>2026-06-05T16:08:34</time>
      </trkpt>
      <trkpt lat="35.982065945863724" lon="129.48662297800183">
        <ele>96.8</ele>
        <time>2026-06-05T16:08:35</time>
      </trkpt>
      <trkpt lat="35.98201791755855" lon="129.48671492747962">
        <ele>96.4</ele>
        <time>2026-06-05T16:08:36</time>
      </trkpt>
      <trkpt lat="35.98196695558727" lon="129.48680796660483">
        <ele>96.2</ele>
        <time>2026-06-05T16:08:37</time>
      </trkpt>
      <trkpt lat="35.981916999444366" lon="129.48690192773938">
        <ele>95.8</ele>
        <time>2026-06-05T16:08:38</time>
      </trkpt>
      <trkpt lat="35.981870982795954" lon="129.48700091801584">
        <ele>95.6</ele>
        <time>2026-06-05T16:08:39</time>
      </trkpt>
      <trkpt lat="35.981827983632684" lon="129.48710292577744">
        <ele>95.2</ele>
        <time>2026-06-05T16:08:40</time>
      </trkpt>
      <trkpt lat="35.981787918135524" lon="129.4872069451958">
        <ele>95.0</ele>
        <time>2026-06-05T16:08:41</time>
      </trkpt>
      <trkpt lat="35.98174994811416" lon="129.4873129762709">
        <ele>94.6</ele>
        <time>2026-06-05T16:08:42</time>
      </trkpt>
      <trkpt lat="35.98171298392117" lon="129.48742194101214">
        <ele>94.4</ele>
        <time>2026-06-05T16:08:43</time>
      </trkpt>
      <trkpt lat="35.98167794756591" lon="129.4875319954008">
        <ele>94.0</ele>
        <time>2026-06-05T16:08:44</time>
      </trkpt>
      <trkpt lat="35.98164299502969" lon="129.4876419659704">
        <ele>93.6</ele>
        <time>2026-06-05T16:08:45</time>
      </trkpt>
      <trkpt lat="35.98160997033119" lon="129.48775394819677">
        <ele>93.4</ele>
        <time>2026-06-05T16:08:46</time>
      </trkpt>
      <trkpt lat="35.981575939804316" lon="129.48786693625152">
        <ele>93.0</ele>
        <time>2026-06-05T16:08:47</time>
      </trkpt>
      <trkpt lat="35.9815439209342" lon="129.48798093013465">
        <ele>92.6</ele>
        <time>2026-06-05T16:08:48</time>
      </trkpt>
      <trkpt lat="35.98151198588312" lon="129.48809693567455">
        <ele>92.2</ele>
        <time>2026-06-05T16:08:49</time>
      </trkpt>
      <trkpt lat="35.98148097284138" lon="129.48821394704282">
        <ele>91.8</ele>
        <time>2026-06-05T16:08:50</time>
      </trkpt>
      <trkpt lat="35.98145096562803" lon="129.48833297006786">
        <ele>91.4</ele>
        <time>2026-06-05T16:08:51</time>
      </trkpt>
      <trkpt lat="35.98141995258629" lon="129.48845299892128">
        <ele>91.0</ele>
        <time>2026-06-05T16:08:52</time>
      </trkpt>
      <trkpt lat="35.98138994537294" lon="129.4885759614408">
        <ele>90.6</ele>
        <time>2026-06-05T16:08:53</time>
      </trkpt>
      <trkpt lat="35.981360943987966" lon="129.4886999297887">
        <ele>90.2</ele>
        <time>2026-06-05T16:08:54</time>
      </trkpt>
      <trkpt lat="35.98133093677461" lon="129.48882498778403">
        <ele>89.8</ele>
        <time>2026-06-05T16:08:55</time>
      </trkpt>
      <trkpt lat="35.98130092956126" lon="129.48895197361708">
        <ele>89.2</ele>
        <time>2026-06-05T16:08:56</time>
      </trkpt>
      <trkpt lat="35.98126991651952" lon="129.4890809711069">
        <ele>88.8</ele>
        <time>2026-06-05T16:08:57</time>
      </trkpt>
      <trkpt lat="35.98123898729682" lon="129.4892099685967">
        <ele>88.2</ele>
        <time>2026-06-05T16:08:58</time>
      </trkpt>
      <trkpt lat="35.981208980083466" lon="129.48934097774327">
        <ele>87.8</ele>
        <time>2026-06-05T16:08:59</time>
      </trkpt>
      <trkpt lat="35.98117796704173" lon="129.48947198688984">
        <ele>87.2</ele>
        <time>2026-06-05T16:09:00</time>
      </trkpt>
      <trkpt lat="35.981146953999996" lon="129.48960391804576">
        <ele>86.8</ele>
        <time>2026-06-05T16:09:01</time>
      </trkpt>
      <trkpt lat="35.98111694678664" lon="129.4897359330207">
        <ele>86.4</ele>
        <time>2026-06-05T16:09:02</time>
      </trkpt>
      <trkpt lat="35.98108794540167" lon="129.48986694216728">
        <ele>85.8</ele>
        <time>2026-06-05T16:09:03</time>
      </trkpt>
      <trkpt lat="35.981058944016695" lon="129.48999694548547">
        <ele>85.4</ele>
        <time>2026-06-05T16:09:04</time>
      </trkpt>
      <trkpt lat="35.9810309484601" lon="129.49012393131852">
        <ele>85.0</ele>
        <time>2026-06-05T16:09:05</time>
      </trkpt>
      <trkpt lat="35.98100295290351" lon="129.49024697765708">
        <ele>84.6</ele>
        <time>2026-06-05T16:09:06</time>
      </trkpt>
      <trkpt lat="35.980972945690155" lon="129.49036692269146">
        <ele>84.2</ele>
        <time>2026-06-05T16:09:07</time>
      </trkpt>
      <trkpt lat="35.9809429384768" lon="129.49048493988812">
        <ele>83.8</ele>
        <time>2026-06-05T16:09:08</time>
      </trkpt>
      <trkpt lat="35.98091293126345" lon="129.4906019512564">
        <ele>83.4</ele>
        <time>2026-06-05T16:09:09</time>
      </trkpt>
      <trkpt lat="35.98088392987847" lon="129.4907179567963">
        <ele>83.2</ele>
        <time>2026-06-05T16:09:10</time>
      </trkpt>
      <trkpt lat="35.98085694015026" lon="129.49083195067942">
        <ele>83.0</ele>
        <time>2026-06-05T16:09:11</time>
      </trkpt>
      <trkpt lat="35.98083095625043" lon="129.49094493873417">
        <ele>82.8</ele>
        <time>2026-06-05T16:09:12</time>
      </trkpt>
      <trkpt lat="35.98080597817898" lon="129.49105792678893">
        <ele>82.6</ele>
        <time>2026-06-05T16:09:13</time>
      </trkpt>
      <trkpt lat="35.980782927945256" lon="129.49116898700595">
        <ele>82.4</ele>
        <time>2026-06-05T16:09:14</time>
      </trkpt>
      <trkpt lat="35.980758955702186" lon="129.49127895757556">
        <ele>82.2</ele>
        <time>2026-06-05T16:09:15</time>
      </trkpt>
      <trkpt lat="35.980734983459115" lon="129.4913879223168">
        <ele>82.2</ele>
        <time>2026-06-05T16:09:16</time>
      </trkpt>
      <trkpt lat="35.98071193322539" lon="129.49149697087705">
        <ele>82.0</ele>
        <time>2026-06-05T16:09:17</time>
      </trkpt>
      <trkpt lat="35.9806889668107" lon="129.49160593561828">
        <ele>81.8</ele>
        <time>2026-06-05T16:09:18</time>
      </trkpt>
      <trkpt lat="35.98066692240536" lon="129.49171297252178">
        <ele>81.8</ele>
        <time>2026-06-05T16:09:19</time>
      </trkpt>
      <trkpt lat="35.980648985132575" lon="129.49181992560625">
        <ele>81.8</ele>
        <time>2026-06-05T16:09:20</time>
      </trkpt>
      <trkpt lat="35.98063699901104" lon="129.49192696250975">
        <ele>81.6</ele>
        <time>2026-06-05T16:09:21</time>
      </trkpt>
      <trkpt lat="35.980628952383995" lon="129.49203299358487">
        <ele>81.6</ele>
        <time>2026-06-05T16:09:22</time>
      </trkpt>
      <trkpt lat="35.9806199837476" lon="129.49213894084096">
        <ele>81.6</ele>
        <time>2026-06-05T16:09:23</time>
      </trkpt>
      <trkpt lat="35.980609925463796" lon="129.49224296025932">
        <ele>81.4</ele>
        <time>2026-06-05T16:09:24</time>
      </trkpt>
      <trkpt lat="35.98059793934226" lon="129.49234697967768">
        <ele>81.4</ele>
        <time>2026-06-05T16:09:25</time>
      </trkpt>
      <trkpt lat="35.980584947392344" lon="129.49245099909604">
        <ele>81.2</ele>
        <time>2026-06-05T16:09:26</time>
      </trkpt>
      <trkpt lat="35.98056994378567" lon="129.4925529230386">
        <ele>81.2</ele>
        <time>2026-06-05T16:09:27</time>
      </trkpt>
      <trkpt lat="35.98055594600737" lon="129.4926549308002">
        <ele>81.2</ele>
        <time>2026-06-05T16:09:28</time>
      </trkpt>
      <trkpt lat="35.980540942400694" lon="129.49275593273342">
        <ele>81.0</ele>
        <time>2026-06-05T16:09:29</time>
      </trkpt>
      <trkpt lat="35.9805269446224" lon="129.49285592883825">
        <ele>80.8</ele>
        <time>2026-06-05T16:09:30</time>
      </trkpt>
      <trkpt lat="35.9805129468441" lon="129.4929559249431">
        <ele>80.8</ele>
        <time>2026-06-05T16:09:31</time>
      </trkpt>
      <trkpt lat="35.980499954894185" lon="129.49305499903858">
        <ele>80.6</ele>
        <time>2026-06-05T16:09:32</time>
      </trkpt>
      <trkpt lat="35.98048796877265" lon="129.49315298348665">
        <ele>80.4</ele>
        <time>2026-06-05T16:09:33</time>
      </trkpt>
      <trkpt lat="35.980474976822734" lon="129.4932519737631">
        <ele>80.4</ele>
        <time>2026-06-05T16:09:34</time>
      </trkpt>
      <trkpt lat="35.98046198487282" lon="129.4933489523828">
        <ele>80.2</ele>
        <time>2026-06-05T16:09:35</time>
      </trkpt>
      <trkpt lat="35.98044798709452" lon="129.4934459310025">
        <ele>80.0</ele>
        <time>2026-06-05T16:09:36</time>
      </trkpt>
      <trkpt lat="35.980434995144606" lon="129.49354198761284">
        <ele>80.0</ele>
        <time>2026-06-05T16:09:37</time>
      </trkpt>
      <trkpt lat="35.98042393103242" lon="129.49363997206092">
        <ele>79.8</ele>
        <time>2026-06-05T16:09:38</time>
      </trkpt>
      <trkpt lat="35.980413956567645" lon="129.49373896233737">
        <ele>79.6</ele>
        <time>2026-06-05T16:09:39</time>
      </trkpt>
      <trkpt lat="35.98040498793125" lon="129.49383795261383">
        <ele>79.6</ele>
        <time>2026-06-05T16:09:40</time>
      </trkpt>
      <trkpt lat="35.98039694130421" lon="129.4939369428903">
        <ele>79.4</ele>
        <time>2026-06-05T16:09:41</time>
      </trkpt>
      <trkpt lat="35.980389984324574" lon="129.49403593316674">
        <ele>79.2</ele>
        <time>2026-06-05T16:09:42</time>
      </trkpt>
      <trkpt lat="35.98038294352591" lon="129.4941349234432">
        <ele>79.0</ele>
        <time>2026-06-05T16:09:43</time>
      </trkpt>
      <trkpt lat="35.98037699237466" lon="129.4942339975387">
        <ele>79.0</ele>
        <time>2026-06-05T16:09:44</time>
      </trkpt>
      <trkpt lat="35.980369951575994" lon="129.49433399364352">
        <ele>78.8</ele>
        <time>2026-06-05T16:09:45</time>
      </trkpt>
      <trkpt lat="35.98036198876798" lon="129.49443298391998">
        <ele>78.6</ele>
        <time>2026-06-05T16:09:46</time>
      </trkpt>
      <trkpt lat="35.98035494796932" lon="129.49453298002481">
        <ele>78.6</ele>
        <time>2026-06-05T16:09:47</time>
      </trkpt>
      <trkpt lat="35.980347990989685" lon="129.49463297612965">
        <ele>78.4</ele>
        <time>2026-06-05T16:09:48</time>
      </trkpt>
      <trkpt lat="35.98033994436264" lon="129.4947329722345">
        <ele>78.2</ele>
        <time>2026-06-05T16:09:49</time>
      </trkpt>
      <trkpt lat="35.98033198155463" lon="129.49483296833932">
        <ele>78.2</ele>
        <time>2026-06-05T16:09:50</time>
      </trkpt>
      <trkpt lat="35.98032393492758" lon="129.49493296444416">
        <ele>78.0</ele>
        <time>2026-06-05T16:09:51</time>
      </trkpt>
      <trkpt lat="35.98031697794795" lon="129.495032960549">
        <ele>78.0</ele>
        <time>2026-06-05T16:09:52</time>
      </trkpt>
      <trkpt lat="35.98031094297767" lon="129.49513195082545">
        <ele>77.8</ele>
        <time>2026-06-05T16:09:53</time>
      </trkpt>
      <trkpt lat="35.980303985998034" lon="129.4952309411019">
        <ele>77.8</ele>
        <time>2026-06-05T16:09:54</time>
      </trkpt>
      <trkpt lat="35.98029694519937" lon="129.49532892554998">
        <ele>77.6</ele>
        <time>2026-06-05T16:09:55</time>
      </trkpt>
      <trkpt lat="35.98028998821974" lon="129.4954259879887">
        <ele>77.6</ele>
        <time>2026-06-05T16:09:56</time>
      </trkpt>
      <trkpt lat="35.980282947421074" lon="129.49552196078002">
        <ele>77.4</ele>
        <time>2026-06-05T16:09:57</time>
      </trkpt>
      <trkpt lat="35.98027599044144" lon="129.49561692774296">
        <ele>77.4</ele>
        <time>2026-06-05T16:09:58</time>
      </trkpt>
      <trkpt lat="35.98026894964278" lon="129.4957129843533">
        <ele>77.2</ele>
        <time>2026-06-05T16:09:59</time>
      </trkpt>
      <trkpt lat="35.980261992663145" lon="129.49580795131624">
        <ele>77.2</ele>
        <time>2026-06-05T16:10:00</time>
      </trkpt>
      <trkpt lat="35.98025495186448" lon="129.49590199626982">
        <ele>77.0</ele>
        <time>2026-06-05T16:10:01</time>
      </trkpt>
      <trkpt lat="35.98024799488485" lon="129.495994951576">
        <ele>77.0</ele>
        <time>2026-06-05T16:10:02</time>
      </trkpt>
      <trkpt lat="35.980241959914565" lon="129.49608698487282">
        <ele>77.0</ele>
        <time>2026-06-05T16:10:03</time>
      </trkpt>
      <trkpt lat="35.9802349191159" lon="129.49617692269385">
        <ele>77.0</ele>
        <time>2026-06-05T16:10:04</time>
      </trkpt>
      <trkpt lat="35.98022896796465" lon="129.49626493267715">
        <ele>77.0</ele>
        <time>2026-06-05T16:10:05</time>
      </trkpt>
      <trkpt lat="35.980222932994366" lon="129.49634891934693">
        <ele>77.0</ele>
        <time>2026-06-05T16:10:06</time>
      </trkpt>
      <trkpt lat="35.980216981843114" lon="129.49643097817898">
        <ele>77.0</ele>
        <time>2026-06-05T16:10:07</time>
      </trkpt>
      <trkpt lat="35.98021195270121" lon="129.49650892987847">
        <ele>76.8</ele>
        <time>2026-06-05T16:10:08</time>
      </trkpt>
      <trkpt lat="35.98020591773093" lon="129.49658294208348">
        <ele>76.8</ele>
        <time>2026-06-05T16:10:09</time>
      </trkpt>
      <trkpt lat="35.980200972408056" lon="129.49665393680334">
        <ele>76.8</ele>
        <time>2026-06-05T16:10:10</time>
      </trkpt>
      <trkpt lat="35.98019594326615" lon="129.4967209920287">
        <ele>76.8</ele>
        <time>2026-06-05T16:10:11</time>
      </trkpt>
      <trkpt lat="35.9801899921149" lon="129.49678695760667">
        <ele>76.8</ele>
        <time>2026-06-05T16:10:12</time>
      </trkpt>
      <trkpt lat="35.98018596880138" lon="129.4968509953469">
        <ele>76.8</ele>
        <time>2026-06-05T16:10:13</time>
      </trkpt>
      <trkpt lat="35.980180939659476" lon="129.49691394343972">
        <ele>77.0</ele>
        <time>2026-06-05T16:10:14</time>
      </trkpt>
      <trkpt lat="35.980176916345954" lon="129.4969759695232">
        <ele>77.0</ele>
        <time>2026-06-05T16:10:15</time>
      </trkpt>
      <trkpt lat="35.98017297685146" lon="129.49703698977828">
        <ele>77.2</ele>
        <time>2026-06-05T16:10:16</time>
      </trkpt>
      <trkpt lat="35.98016895353794" lon="129.49709893204272">
        <ele>77.4</ele>
        <time>2026-06-05T16:10:17</time>
      </trkpt>
      <trkpt lat="35.98016493022442" lon="129.4971599522978">
        <ele>77.4</ele>
        <time>2026-06-05T16:10:18</time>
      </trkpt>
      <trkpt lat="35.98016099072993" lon="129.49721996672451">
        <ele>77.6</ele>
        <time>2026-06-05T16:10:19</time>
      </trkpt>
      <trkpt lat="35.980156967416406" lon="129.49727897532284">
        <ele>77.8</ele>
        <time>2026-06-05T16:10:20</time>
      </trkpt>
      <trkpt lat="35.98015294410288" lon="129.49733798392117">
        <ele>77.8</ele>
        <time>2026-06-05T16:10:21</time>
      </trkpt>
      <trkpt lat="35.98014799878001" lon="129.49739498086274">
        <ele>78.0</ele>
        <time>2026-06-05T16:10:22</time>
      </trkpt>
      <trkpt lat="35.98013894632459" lon="129.49744896031916">
        <ele>78.2</ele>
        <time>2026-06-05T16:10:23</time>
      </trkpt>
      <trkpt lat="35.98012696020305" lon="129.4975019339472">
        <ele>78.2</ele>
        <time>2026-06-05T16:10:24</time>
      </trkpt>
      <trkpt lat="35.980111956596375" lon="129.49755297973752">
        <ele>78.4</ele>
        <time>2026-06-05T16:10:25</time>
      </trkpt>
      <trkpt lat="35.980094941332936" lon="129.4976039417088">
        <ele>78.6</ele>
        <time>2026-06-05T16:10:26</time>
      </trkpt>
      <trkpt lat="35.98007893189788" lon="129.49765398167074">
        <ele>78.6</ele>
        <time>2026-06-05T16:10:27</time>
      </trkpt>
      <trkpt lat="35.980067951604724" lon="129.49770494364202">
        <ele>78.8</ele>
        <time>2026-06-05T16:10:28</time>
      </trkpt>
      <trkpt lat="35.98006099462509" lon="129.49775699526072">
        <ele>79.0</ele>
        <time>2026-06-05T16:10:29</time>
      </trkpt>
      <trkpt lat="35.98005797713995" lon="129.49780896306038">
        <ele>79.2</ele>
        <time>2026-06-05T16:10:30</time>
      </trkpt>
      <trkpt lat="35.98005697131157" lon="129.49785891920328">
        <ele>79.4</ele>
        <time>2026-06-05T16:10:31</time>
      </trkpt>
      <trkpt lat="35.98005596548319" lon="129.49790895916522">
        <ele>79.6</ele>
        <time>2026-06-05T16:10:32</time>
      </trkpt>
      <trkpt lat="35.98005495965481" lon="129.4979599211365">
        <ele>79.8</ele>
        <time>2026-06-05T16:10:33</time>
      </trkpt>
      <trkpt lat="35.98005395382643" lon="129.49800996109843">
        <ele>80.0</ele>
        <time>2026-06-05T16:10:34</time>
      </trkpt>
      <trkpt lat="35.98005395382643" lon="129.4980619288981">
        <ele>80.2</ele>
        <time>2026-06-05T16:10:35</time>
      </trkpt>
      <trkpt lat="35.98005294799805" lon="129.49811699800193">
        <ele>80.4</ele>
        <time>2026-06-05T16:10:36</time>
      </trkpt>
      <trkpt lat="35.980049930512905" lon="129.49817592278123">
        <ele>80.6</ele>
        <time>2026-06-05T16:10:37</time>
      </trkpt>
      <trkpt lat="35.980044985190034" lon="129.49823895469308">
        <ele>80.8</ele>
        <time>2026-06-05T16:10:38</time>
      </trkpt>
      <trkpt lat="35.98003794439137" lon="129.4983069319278">
        <ele>81.0</ele>
        <time>2026-06-05T16:10:39</time>
      </trkpt>
      <trkpt lat="35.980027969926596" lon="129.49837792664766">
        <ele>81.2</ele>
        <time>2026-06-05T16:10:40</time>
      </trkpt>
      <trkpt lat="35.98001698963344" lon="129.49845193885267">
        <ele>81.4</ele>
        <time>2026-06-05T16:10:41</time>
      </trkpt>
      <trkpt lat="35.980005925521255" lon="129.49852796271443">
        <ele>81.6</ele>
        <time>2026-06-05T16:10:42</time>
      </trkpt>
      <trkpt lat="35.97999595105648" lon="129.49860499240458">
        <ele>81.8</ele>
        <time>2026-06-05T16:10:43</time>
      </trkpt>
      <trkpt lat="35.979985976591706" lon="129.49868093244731">
        <ele>82.2</ele>
        <time>2026-06-05T16:10:44</time>
      </trkpt>
      <trkpt lat="35.97997692413628" lon="129.49875192716718">
        <ele>82.4</ele>
        <time>2026-06-05T16:10:45</time>
      </trkpt>
      <trkpt lat="35.97996694967151" lon="129.49881797656417">
        <ele>82.6</ele>
        <time>2026-06-05T16:10:46</time>
      </trkpt>
      <trkpt lat="35.97995798103511" lon="129.49887597933412">
        <ele>82.8</ele>
        <time>2026-06-05T16:10:47</time>
      </trkpt>
      <trkpt lat="35.97995094023645" lon="129.49892895296216">
        <ele>83.2</ele>
        <time>2026-06-05T16:10:48</time>
      </trkpt>
      <trkpt lat="35.979942977428436" lon="129.4989779870957">
        <ele>83.4</ele>
        <time>2026-06-05T16:10:49</time>
      </trkpt>
      <trkpt lat="35.97993493080139" lon="129.49902299791574">
        <ele>83.6</ele>
        <time>2026-06-05T16:10:50</time>
      </trkpt>
      <trkpt lat="35.979925962165" lon="129.49906792491674">
        <ele>83.8</ele>
        <time>2026-06-05T16:10:51</time>
      </trkpt>
      <trkpt lat="35.979917999356985" lon="129.49911394156516">
        <ele>83.8</ele>
        <time>2026-06-05T16:10:52</time>
      </trkpt>
      <trkpt lat="35.97990995272994" lon="129.4991629756987">
        <ele>84.0</ele>
        <time>2026-06-05T16:10:53</time>
      </trkpt>
      <trkpt lat="35.97990098409355" lon="129.49921192601323">
        <ele>84.2</ele>
        <time>2026-06-05T16:10:54</time>
      </trkpt>
      <trkpt lat="35.97989193163812" lon="129.49926196597517">
        <ele>84.4</ele>
        <time>2026-06-05T16:10:55</time>
      </trkpt>
      <trkpt lat="35.97988195717335" lon="129.49931192211807">
        <ele>84.6</ele>
        <time>2026-06-05T16:10:56</time>
      </trkpt>
      <trkpt lat="35.97987097688019" lon="129.49936095625162">
        <ele>84.6</ele>
        <time>2026-06-05T16:10:57</time>
      </trkpt>
      <trkpt lat="35.97985899075866" lon="129.4994089845568">
        <ele>84.8</ele>
        <time>2026-06-05T16:10:58</time>
      </trkpt>
      <trkpt lat="35.97984599880874" lon="129.49945692904294">
        <ele>85.0</ele>
        <time>2026-06-05T16:10:59</time>
      </trkpt>
      <trkpt lat="35.979832923039794" lon="129.4995049573481">
        <ele>85.2</ele>
        <time>2026-06-05T16:11:00</time>
      </trkpt>
      <trkpt lat="35.9798189252615" lon="129.4995519798249">
        <ele>85.4</ele>
        <time>2026-06-05T16:11:01</time>
      </trkpt>
      <trkpt lat="35.9798049274832" lon="129.49959992431104">
        <ele>85.6</ele>
        <time>2026-06-05T16:11:02</time>
      </trkpt>
      <trkpt lat="35.979789923876524" lon="129.49964694678783">
        <ele>85.8</ele>
        <time>2026-06-05T16:11:03</time>
      </trkpt>
      <trkpt lat="35.97977492026985" lon="129.499694975093">
        <ele>85.8</ele>
        <time>2026-06-05T16:11:04</time>
      </trkpt>
      <trkpt lat="35.97975991666317" lon="129.49974291957915">
        <ele>86.0</ele>
        <time>2026-06-05T16:11:05</time>
      </trkpt>
      <trkpt lat="35.979744996875525" lon="129.49978893622756">
        <ele>86.2</ele>
        <time>2026-06-05T16:11:06</time>
      </trkpt>
      <trkpt lat="35.97972999326885" lon="129.4998339470476">
        <ele>86.4</ele>
        <time>2026-06-05T16:11:07</time>
      </trkpt>
      <trkpt lat="35.97971498966217" lon="129.49987795203924">
        <ele>86.6</ele>
        <time>2026-06-05T16:11:08</time>
      </trkpt>
      <trkpt lat="35.97969898022711" lon="129.49992396868765">
        <ele>86.8</ele>
        <time>2026-06-05T16:11:09</time>
      </trkpt>
      <trkpt lat="35.979682970792055" lon="129.49996897950768">
        <ele>87.0</ele>
        <time>2026-06-05T16:11:10</time>
      </trkpt>
      <trkpt lat="35.97966595552862" lon="129.50001591816545">
        <ele>87.2</ele>
        <time>2026-06-05T16:11:11</time>
      </trkpt>
      <trkpt lat="35.97964894026518" lon="129.50006394647062">
        <ele>87.4</ele>
        <time>2026-06-05T16:11:12</time>
      </trkpt>
      <trkpt lat="35.97963091917336" lon="129.50011499226093">
        <ele>87.6</ele>
        <time>2026-06-05T16:11:13</time>
      </trkpt>
      <trkpt lat="35.97960996441543" lon="129.50016494840384">
        <ele>87.8</ele>
        <time>2026-06-05T16:11:14</time>
      </trkpt>
      <trkpt lat="35.97958993166685" lon="129.50021792203188">
        <ele>88.0</ele>
        <time>2026-06-05T16:11:15</time>
      </trkpt>
      <trkpt lat="35.97956797108054" lon="129.50027198530734">
        <ele>88.2</ele>
        <time>2026-06-05T16:11:16</time>
      </trkpt>
      <trkpt lat="35.97954492084682" lon="129.50032797642052">
        <ele>88.4</ele>
        <time>2026-06-05T16:11:17</time>
      </trkpt>
      <trkpt lat="35.97952094860375" lon="129.5003839675337">
        <ele>88.4</ele>
        <time>2026-06-05T16:11:18</time>
      </trkpt>
      <trkpt lat="35.9794959705323" lon="129.5004389528185">
        <ele>88.6</ele>
        <time>2026-06-05T16:11:19</time>
      </trkpt>
      <trkpt lat="35.97947099246085" lon="129.50049393810332">
        <ele>88.8</ele>
        <time>2026-06-05T16:11:20</time>
      </trkpt>
      <trkpt lat="35.979445930570364" lon="129.5005469955504">
        <ele>89.0</ele>
        <time>2026-06-05T16:11:21</time>
      </trkpt>
      <trkpt lat="35.97942095249891" lon="129.50059795752168">
        <ele>89.2</ele>
        <time>2026-06-05T16:11:22</time>
      </trkpt>
      <trkpt lat="35.97939698025584" lon="129.50064497999847">
        <ele>89.4</ele>
        <time>2026-06-05T16:11:23</time>
      </trkpt>
      <trkpt lat="35.97937292419374" lon="129.50069099664688">
        <ele>89.6</ele>
        <time>2026-06-05T16:11:24</time>
      </trkpt>
      <trkpt lat="35.97934995777905" lon="129.50073298998177">
        <ele>89.6</ele>
        <time>2026-06-05T16:11:25</time>
      </trkpt>
      <trkpt lat="35.97932891920209" lon="129.50077498331666">
        <ele>89.8</ele>
        <time>2026-06-05T16:11:26</time>
      </trkpt>
      <trkpt lat="35.97930796444416" lon="129.5008149649948">
        <ele>90.0</ele>
        <time>2026-06-05T16:11:27</time>
      </trkpt>
      <trkpt lat="35.97928499802947" lon="129.50085394084454">
        <ele>90.0</ele>
        <time>2026-06-05T16:11:28</time>
      </trkpt>
      <trkpt lat="35.97926194779575" lon="129.50089392252266">
        <ele>90.2</ele>
        <time>2026-06-05T16:11:29</time>
      </trkpt>
      <trkpt lat="35.97923998720944" lon="129.5009349938482">
        <ele>90.2</ele>
        <time>2026-06-05T16:11:30</time>
      </trkpt>
      <trkpt lat="35.97921693697572" lon="129.5009769871831">
        <ele>90.4</ele>
        <time>2026-06-05T16:11:31</time>
      </trkpt>
      <trkpt lat="35.97919296473265" lon="129.50101898051798">
        <ele>90.4</ele>
        <time>2026-06-05T16:11:32</time>
      </trkpt>
      <trkpt lat="35.97916999831796" lon="129.50106097385287">
        <ele>90.6</ele>
        <time>2026-06-05T16:11:33</time>
      </trkpt>
      <trkpt lat="35.979146948084235" lon="129.50110296718776">
        <ele>90.8</ele>
        <time>2026-06-05T16:11:34</time>
      </trkpt>
      <trkpt lat="35.979122975841165" lon="129.50114395469427">
        <ele>90.8</ele>
        <time>2026-06-05T16:11:35</time>
      </trkpt>
      <trkpt lat="35.97909891977906" lon="129.50118494220078">
        <ele>91.0</ele>
        <time>2026-06-05T16:11:36</time>
      </trkpt>
      <trkpt lat="35.97907394170761" lon="129.5012259297073">
        <ele>91.0</ele>
        <time>2026-06-05T16:11:37</time>
      </trkpt>
      <trkpt lat="35.97904896363616" lon="129.50126599520445">
        <ele>91.2</ele>
        <time>2026-06-05T16:11:38</time>
      </trkpt>
      <trkpt lat="35.97902297973633" lon="129.50130698271096">
        <ele>91.2</ele>
        <time>2026-06-05T16:11:39</time>
      </trkpt>
      <trkpt lat="35.978998923674226" lon="129.50134696438909">
        <ele>91.4</ele>
        <time>2026-06-05T16:11:40</time>
      </trkpt>
      <trkpt lat="35.978975957259536" lon="129.50138493441045">
        <ele>91.6</ele>
        <time>2026-06-05T16:11:41</time>
      </trkpt>
      <trkpt lat="35.978953996673226" lon="129.5014209765941">
        <ele>91.8</ele>
        <time>2026-06-05T16:11:42</time>
      </trkpt>
      <trkpt lat="35.978931952267885" lon="129.50145592913032">
        <ele>92.0</ele>
        <time>2026-06-05T16:11:43</time>
      </trkpt>
      <trkpt lat="35.978910997509956" lon="129.5014889538288">
        <ele>92.0</ele>
        <time>2026-06-05T16:11:44</time>
      </trkpt>
      <trkpt lat="35.978888953104615" lon="129.50152097269893">
        <ele>92.2</ele>
        <time>2026-06-05T16:11:45</time>
      </trkpt>
      <trkpt lat="35.978867998346686" lon="129.50155399739742">
        <ele>92.4</ele>
        <time>2026-06-05T16:11:46</time>
      </trkpt>
      <trkpt lat="35.978846959769726" lon="129.50158794410527">
        <ele>92.6</ele>
        <time>2026-06-05T16:11:47</time>
      </trkpt>
      <trkpt lat="35.978825921192765" lon="129.50162197463214">
        <ele>92.8</ele>
        <time>2026-06-05T16:11:48</time>
      </trkpt>
      <trkpt lat="35.978803960606456" lon="129.50165499933064">
        <ele>93.0</ele>
        <time>2026-06-05T16:11:49</time>
      </trkpt>
      <trkpt lat="35.978782922029495" lon="129.5016879402101">
        <ele>93.2</ele>
        <time>2026-06-05T16:11:50</time>
      </trkpt>
      <trkpt lat="35.978760961443186" lon="129.50172197073698">
        <ele>93.2</ele>
        <time>2026-06-05T16:11:51</time>
      </trkpt>
      <trkpt lat="35.978740928694606" lon="129.50175591744483">
        <ele>93.4</ele>
        <time>2026-06-05T16:11:52</time>
      </trkpt>
      <trkpt lat="35.97871997393668" lon="129.50178894214332">
        <ele>93.6</ele>
        <time>2026-06-05T16:11:53</time>
      </trkpt>
      <trkpt lat="35.9786999411881" lon="129.50182196684182">
        <ele>93.8</ele>
        <time>2026-06-05T16:11:54</time>
      </trkpt>
      <trkpt lat="35.97867999225855" lon="129.50185297988355">
        <ele>94.0</ele>
        <time>2026-06-05T16:11:55</time>
      </trkpt>
      <trkpt lat="35.97865995950997" lon="129.5018839929253">
        <ele>94.2</ele>
        <time>2026-06-05T16:11:56</time>
      </trkpt>
      <trkpt lat="35.97864093258977" lon="129.501914922148">
        <ele>94.2</ele>
        <time>2026-06-05T16:11:57</time>
      </trkpt>
      <trkpt lat="35.97862391732633" lon="129.50194593518972">
        <ele>94.4</ele>
        <time>2026-06-05T16:11:58</time>
      </trkpt>
      <trkpt lat="35.978605980053544" lon="129.50197795405984">
        <ele>94.6</ele>
        <time>2026-06-05T16:11:59</time>
      </trkpt>
      <trkpt lat="35.978587958961725" lon="129.5020079612732">
        <ele>94.8</ele>
        <time>2026-06-05T16:12:00</time>
      </trkpt>
      <trkpt lat="35.978569937869906" lon="129.50203796848655">
        <ele>95.0</ele>
        <time>2026-06-05T16:12:01</time>
      </trkpt>
      <trkpt lat="35.97854998894036" lon="129.50206696987152">
        <ele>95.0</ele>
        <time>2026-06-05T16:12:02</time>
      </trkpt>
      <trkpt lat="35.97852995619178" lon="129.50209798291326">
        <ele>95.2</ele>
        <time>2026-06-05T16:12:03</time>
      </trkpt>
      <trkpt lat="35.97851092927158" lon="129.502128995955">
        <ele>95.4</ele>
        <time>2026-06-05T16:12:04</time>
      </trkpt>
      <trkpt lat="35.97849098034203" lon="129.50216193683445">
        <ele>95.6</ele>
        <time>2026-06-05T16:12:05</time>
      </trkpt>
      <trkpt lat="35.97847094759345" lon="129.50219395570457">
        <ele>95.6</ele>
        <time>2026-06-05T16:12:06</time>
      </trkpt>
      <trkpt lat="35.97844999283552" lon="129.50222597457469">
        <ele>95.8</ele>
        <time>2026-06-05T16:12:07</time>
      </trkpt>
      <trkpt lat="35.97842996008694" lon="129.5022609271109">
        <ele>96.0</ele>
        <time>2026-06-05T16:12:08</time>
      </trkpt>
      <trkpt lat="35.97840799950063" lon="129.50229596346617">
        <ele>96.2</ele>
        <time>2026-06-05T16:12:09</time>
      </trkpt>
      <trkpt lat="35.97838092595339" lon="129.50233099982142">
        <ele>96.2</ele>
        <time>2026-06-05T16:12:10</time>
      </trkpt>
      <trkpt lat="35.978351924568415" lon="129.5023679640144">
        <ele>96.4</ele>
        <time>2026-06-05T16:12:11</time>
      </trkpt>
      <trkpt lat="35.97832191735506" lon="129.5024049282074">
        <ele>96.6</ele>
        <time>2026-06-05T16:12:12</time>
      </trkpt>
      <trkpt lat="35.97829492762685" lon="129.50244499370456">
        <ele>97.0</ele>
        <time>2026-06-05T16:12:13</time>
      </trkpt>
      <trkpt lat="35.9782699495554" lon="129.50248799286783">
        <ele>97.2</ele>
        <time>2026-06-05T16:12:14</time>
      </trkpt>
      <trkpt lat="35.978245977312326" lon="129.50253291986883">
        <ele>97.6</ele>
        <time>2026-06-05T16:12:15</time>
      </trkpt>
      <trkpt lat="35.978222927078605" lon="129.50257793068886">
        <ele>97.8</ele>
        <time>2026-06-05T16:12:16</time>
      </trkpt>
      <trkpt lat="35.978200966492295" lon="129.5026219356805">
        <ele>98.2</ele>
        <time>2026-06-05T16:12:17</time>
      </trkpt>
      <trkpt lat="35.97817791625857" lon="129.5026639290154">
        <ele>98.4</ele>
        <time>2026-06-05T16:12:18</time>
      </trkpt>
      <trkpt lat="35.97815494984388" lon="129.50270298868418">
        <ele>98.6</ele>
        <time>2026-06-05T16:12:19</time>
      </trkpt>
      <trkpt lat="35.97813097760081" lon="129.50274196453393">
        <ele>98.8</ele>
        <time>2026-06-05T16:12:20</time>
      </trkpt>
      <trkpt lat="35.97810792736709" lon="129.5027849636972">
        <ele>99.0</ele>
        <time>2026-06-05T16:12:21</time>
      </trkpt>
      <trkpt lat="35.9780849609524" lon="129.502831986174">
        <ele>99.2</ele>
        <time>2026-06-05T16:12:22</time>
      </trkpt>
      <trkpt lat="35.97806291654706" lon="129.5028809364885">
        <ele>99.2</ele>
        <time>2026-06-05T16:12:23</time>
      </trkpt>
      <trkpt lat="35.97804095596075" lon="129.50292896479368">
        <ele>99.4</ele>
        <time>2026-06-05T16:12:24</time>
      </trkpt>
      <trkpt lat="35.97801899537444" lon="129.50297598727047">
        <ele>99.6</ele>
        <time>2026-06-05T16:12:25</time>
      </trkpt>
      <trkpt lat="35.97799996845424" lon="129.50301999226213">
        <ele>99.8</ele>
        <time>2026-06-05T16:12:26</time>
      </trkpt>
      <trkpt lat="35.97798194736242" lon="129.50306198559701">
        <ele>100.0</ele>
        <time>2026-06-05T16:12:27</time>
      </trkpt>
      <trkpt lat="35.977964932098985" lon="129.50310297310352">
        <ele>100.2</ele>
        <time>2026-06-05T16:12:28</time>
      </trkpt>
      <trkpt lat="35.97794892266393" lon="129.50314295478165">
        <ele>100.2</ele>
        <time>2026-06-05T16:12:29</time>
      </trkpt>
      <trkpt lat="35.97793199121952" lon="129.5031819306314">
        <ele>100.4</ele>
        <time>2026-06-05T16:12:30</time>
      </trkpt>
      <trkpt lat="35.97791598178446" lon="129.50321897864342">
        <ele>100.6</ele>
        <time>2026-06-05T16:12:31</time>
      </trkpt>
      <trkpt lat="35.977898966521025" lon="129.50325393117964">
        <ele>100.8</ele>
        <time>2026-06-05T16:12:32</time>
      </trkpt>
      <trkpt lat="35.977880945429206" lon="129.50329097919166">
        <ele>101.0</ele>
        <time>2026-06-05T16:12:33</time>
      </trkpt>
      <trkpt lat="35.97786493599415" lon="129.5033299550414">
        <ele>101.2</ele>
        <time>2026-06-05T16:12:34</time>
      </trkpt>
      <trkpt lat="35.97784792073071" lon="129.50337094254792">
        <ele>101.2</ele>
        <time>2026-06-05T16:12:35</time>
      </trkpt>
      <trkpt lat="35.977831995114684" lon="129.5034139417112">
        <ele>101.4</ele>
        <time>2026-06-05T16:12:36</time>
      </trkpt>
      <trkpt lat="35.977813974022865" lon="129.50345794670284">
        <ele>101.6</ele>
        <time>2026-06-05T16:12:37</time>
      </trkpt>
      <trkpt lat="35.97779796458781" lon="129.50350396335125">
        <ele>101.8</ele>
        <time>2026-06-05T16:12:38</time>
      </trkpt>
      <trkpt lat="35.97778195515275" lon="129.5035529974848">
        <ele>102.0</ele>
        <time>2026-06-05T16:12:39</time>
      </trkpt>
      <trkpt lat="35.97776393406093" lon="129.50360194779932">
        <ele>102.2</ele>
        <time>2026-06-05T16:12:40</time>
      </trkpt>
      <trkpt lat="35.977747924625874" lon="129.50365299358964">
        <ele>102.6</ele>
        <time>2026-06-05T16:12:41</time>
      </trkpt>
      <trkpt lat="35.977728981524706" lon="129.5037049613893">
        <ele>102.8</ele>
        <time>2026-06-05T16:12:42</time>
      </trkpt>
      <trkpt lat="35.977708948776126" lon="129.50375692918897">
        <ele>103.0</ele>
        <time>2026-06-05T16:12:43</time>
      </trkpt>
      <trkpt lat="35.97768992185593" lon="129.50380898080766">
        <ele>103.2</ele>
        <time>2026-06-05T16:12:44</time>
      </trkpt>
      <trkpt lat="35.97766997292638" lon="129.50385893695056">
        <ele>103.6</ele>
        <time>2026-06-05T16:12:45</time>
      </trkpt>
      <trkpt lat="35.97765195183456" lon="129.50390595942736">
        <ele>103.8</ele>
        <time>2026-06-05T16:12:46</time>
      </trkpt>
      <trkpt lat="35.97763493657112" lon="129.503949964419">
        <ele>104.0</ele>
        <time>2026-06-05T16:12:47</time>
      </trkpt>
      <trkpt lat="35.977618927136064" lon="129.50399095192552">
        <ele>104.2</ele>
        <time>2026-06-05T16:12:48</time>
      </trkpt>
      <trkpt lat="35.97760392352939" lon="129.50402992777526">
        <ele>104.4</ele>
        <time>2026-06-05T16:12:49</time>
      </trkpt>
      <trkpt lat="35.97758992575109" lon="129.50406898744404">
        <ele>104.6</ele>
        <time>2026-06-05T16:12:50</time>
      </trkpt>
      <trkpt lat="35.97757492214441" lon="129.5041079632938">
        <ele>104.8</ele>
        <time>2026-06-05T16:12:51</time>
      </trkpt>
      <trkpt lat="35.97756092436612" lon="129.50414794497192">
        <ele>105.0</ele>
        <time>2026-06-05T16:12:52</time>
      </trkpt>
      <trkpt lat="35.9775479324162" lon="129.50418792665005">
        <ele>105.2</ele>
        <time>2026-06-05T16:12:53</time>
      </trkpt>
      <trkpt lat="35.977536952123046" lon="129.5042279921472">
        <ele>105.2</ele>
        <time>2026-06-05T16:12:54</time>
      </trkpt>
      <trkpt lat="35.97752597182989" lon="129.50426696799695">
        <ele>105.4</ele>
        <time>2026-06-05T16:12:55</time>
      </trkpt>
      <trkpt lat="35.97751499153674" lon="129.5043059438467">
        <ele>105.6</ele>
        <time>2026-06-05T16:12:56</time>
      </trkpt>
      <trkpt lat="35.97750593908131" lon="129.5043469313532">
        <ele>105.6</ele>
        <time>2026-06-05T16:12:57</time>
      </trkpt>
      <trkpt lat="35.97749495878816" lon="129.50438699685037">
        <ele>105.8</ele>
        <time>2026-06-05T16:12:58</time>
      </trkpt>
      <trkpt lat="35.977483978495" lon="129.5044269785285">
        <ele>105.8</ele>
        <time>2026-06-05T16:12:59</time>
      </trkpt>
      <trkpt lat="35.977470986545086" lon="129.5044689718634">
        <ele>106.0</ele>
        <time>2026-06-05T16:13:00</time>
      </trkpt>
      <trkpt lat="35.97745799459517" lon="129.50451096519828">
        <ele>106.0</ele>
        <time>2026-06-05T16:13:01</time>
      </trkpt>
      <trkpt lat="35.9774459246546" lon="129.50455295853317">
        <ele>106.0</ele>
        <time>2026-06-05T16:13:02</time>
      </trkpt>
      <trkpt lat="35.97743595018983" lon="129.50459595769644">
        <ele>106.2</ele>
        <time>2026-06-05T16:13:03</time>
      </trkpt>
      <trkpt lat="35.977425975725055" lon="129.50463593937457">
        <ele>106.2</ele>
        <time>2026-06-05T16:13:04</time>
      </trkpt>
      <trkpt lat="35.97741792909801" lon="129.50467499904335">
        <ele>106.4</ele>
        <time>2026-06-05T16:13:05</time>
      </trkpt>
      <trkpt lat="35.97740996629" lon="129.5047129690647">
        <ele>106.4</ele>
        <time>2026-06-05T16:13:06</time>
      </trkpt>
      <trkpt lat="35.97740292549133" lon="129.5047499332577">
        <ele>106.4</ele>
        <time>2026-06-05T16:13:07</time>
      </trkpt>
      <trkpt lat="35.97739395685494" lon="129.50478698126972">
        <ele>106.4</ele>
        <time>2026-06-05T16:13:08</time>
      </trkpt>
      <trkpt lat="35.977384988218546" lon="129.50482495129108">
        <ele>106.6</ele>
        <time>2026-06-05T16:13:09</time>
      </trkpt>
      <trkpt lat="35.97737593576312" lon="129.50486694462597">
        <ele>106.6</ele>
        <time>2026-06-05T16:13:10</time>
      </trkpt>
      <trkpt lat="35.97736797295511" lon="129.50491094961762">
        <ele>106.6</ele>
        <time>2026-06-05T16:13:11</time>
      </trkpt>
      <trkpt lat="35.97735892049968" lon="129.50495998375118">
        <ele>106.6</ele>
        <time>2026-06-05T16:13:12</time>
      </trkpt>
      <trkpt lat="35.97734794020653" lon="129.50501094572246">
        <ele>106.8</ele>
        <time>2026-06-05T16:13:13</time>
      </trkpt>
      <trkpt lat="35.97733595408499" lon="129.50506492517889">
        <ele>106.8</ele>
        <time>2026-06-05T16:13:14</time>
      </trkpt>
      <trkpt lat="35.97732396796346" lon="129.50512192212045">
        <ele>107.0</ele>
        <time>2026-06-05T16:13:15</time>
      </trkpt>
      <trkpt lat="35.97731198184192" lon="129.50518093071878">
        <ele>107.0</ele>
        <time>2026-06-05T16:13:16</time>
      </trkpt>
      <trkpt lat="35.9773029293865" lon="129.5052409451455">
        <ele>107.2</ele>
        <time>2026-06-05T16:13:17</time>
      </trkpt>
      <trkpt lat="35.97729295492172" lon="129.5053009595722">
        <ele>107.2</ele>
        <time>2026-06-05T16:13:18</time>
      </trkpt>
      <trkpt lat="35.97728499211371" lon="129.50536197982728">
        <ele>107.4</ele>
        <time>2026-06-05T16:13:19</time>
      </trkpt>
      <trkpt lat="35.977276945486665" lon="129.505421994254">
        <ele>107.4</ele>
        <time>2026-06-05T16:13:20</time>
      </trkpt>
      <trkpt lat="35.97726797685027" lon="129.5054809190333">
        <ele>107.4</ele>
        <time>2026-06-05T16:13:21</time>
      </trkpt>
      <trkpt lat="35.97726093605161" lon="129.50553892180324">
        <ele>107.4</ele>
        <time>2026-06-05T16:13:22</time>
      </trkpt>
      <trkpt lat="35.977252973243594" lon="129.50559692457318">
        <ele>107.6</ele>
        <time>2026-06-05T16:13:23</time>
      </trkpt>
      <trkpt lat="35.97724593244493" lon="129.50565492734313">
        <ele>107.6</ele>
        <time>2026-06-05T16:13:24</time>
      </trkpt>
      <trkpt lat="35.97723796963692" lon="129.5057119242847">
        <ele>107.6</ele>
        <time>2026-06-05T16:13:25</time>
      </trkpt>
      <trkpt lat="35.97723092883825" lon="129.50576992705464">
        <ele>107.6</ele>
        <time>2026-06-05T16:13:26</time>
      </trkpt>
      <trkpt lat="35.977224977687" lon="129.5058269239962">
        <ele>107.6</ele>
        <time>2026-06-05T16:13:27</time>
      </trkpt>
      <trkpt lat="35.97721793688834" lon="129.50588392093778">
        <ele>107.6</ele>
        <time>2026-06-05T16:13:28</time>
      </trkpt>
      <trkpt lat="35.977210979908705" lon="129.50593999587">
        <ele>107.6</ele>
        <time>2026-06-05T16:13:29</time>
      </trkpt>
      <trkpt lat="35.97720494493842" lon="129.5059949811548">
        <ele>107.6</ele>
        <time>2026-06-05T16:13:30</time>
      </trkpt>
      <trkpt lat="35.9772009216249" lon="129.5060499664396">
        <ele>107.6</ele>
        <time>2026-06-05T16:13:31</time>
      </trkpt>
      <trkpt lat="35.97719698213041" lon="129.50610394589603">
        <ele>107.6</ele>
        <time>2026-06-05T16:13:32</time>
      </trkpt>
      <trkpt lat="35.97719396464527" lon="129.50615893118083">
        <ele>107.6</ele>
        <time>2026-06-05T16:13:33</time>
      </trkpt>
      <trkpt lat="35.977189941331744" lon="129.5062119886279">
        <ele>107.6</ele>
        <time>2026-06-05T16:13:34</time>
      </trkpt>
      <trkpt lat="35.9771869238466" lon="129.50626596808434">
        <ele>107.4</ele>
        <time>2026-06-05T16:13:35</time>
      </trkpt>
      <trkpt lat="35.97718399018049" lon="129.50632095336914">
        <ele>107.4</ele>
        <time>2026-06-05T16:13:36</time>
      </trkpt>
      <trkpt lat="35.97718097269535" lon="129.50637493282557">
        <ele>107.4</ele>
        <time>2026-06-05T16:13:37</time>
      </trkpt>
      <trkpt lat="35.97717795521021" lon="129.50642991811037">
        <ele>107.2</ele>
        <time>2026-06-05T16:13:38</time>
      </trkpt>
      <trkpt lat="35.97717594355345" lon="129.5064859930426">
        <ele>107.2</ele>
        <time>2026-06-05T16:13:39</time>
      </trkpt>
      <trkpt lat="35.97717393189669" lon="129.50654198415577">
        <ele>107.0</ele>
        <time>2026-06-05T16:13:40</time>
      </trkpt>
      <trkpt lat="35.977171920239925" lon="129.50659797526896">
        <ele>107.0</ele>
        <time>2026-06-05T16:13:41</time>
      </trkpt>
      <trkpt lat="35.977169992402196" lon="129.5066569838673">
        <ele>107.0</ele>
        <time>2026-06-05T16:13:42</time>
      </trkpt>
      <trkpt lat="35.977169992402196" lon="129.50671599246562">
        <ele>106.8</ele>
        <time>2026-06-05T16:13:43</time>
      </trkpt>
      <trkpt lat="35.977169992402196" lon="129.50677692890167">
        <ele>106.8</ele>
        <time>2026-06-05T16:13:44</time>
      </trkpt>
      <trkpt lat="35.97717099823058" lon="129.50683895498514">
        <ele>106.6</ele>
        <time>2026-06-05T16:13:45</time>
      </trkpt>
      <trkpt lat="35.977171920239925" lon="129.506901986897">
        <ele>106.6</ele>
        <time>2026-06-05T16:13:46</time>
      </trkpt>
      <trkpt lat="35.97717393189669" lon="129.5069649349898">
        <ele>106.4</ele>
        <time>2026-06-05T16:13:47</time>
      </trkpt>
      <trkpt lat="35.97717594355345" lon="129.50702997855842">
        <ele>106.4</ele>
        <time>2026-06-05T16:13:48</time>
      </trkpt>
      <trkpt lat="35.97717896103859" lon="129.50709694996476">
        <ele>106.2</ele>
        <time>2026-06-05T16:13:49</time>
      </trkpt>
      <trkpt lat="35.97718197852373" lon="129.50716593302786">
        <ele>106.2</ele>
        <time>2026-06-05T16:13:50</time>
      </trkpt>
      <trkpt lat="35.97718591801822" lon="129.50723592191935">
        <ele>106.0</ele>
        <time>2026-06-05T16:13:51</time>
      </trkpt>
      <trkpt lat="35.977188935503364" lon="129.5073079224676">
        <ele>105.8</ele>
        <time>2026-06-05T16:13:52</time>
      </trkpt>
      <trkpt lat="35.977191952988505" lon="129.5073809288442">
        <ele>105.8</ele>
        <time>2026-06-05T16:13:53</time>
      </trkpt>
      <trkpt lat="35.97719698213041" lon="129.50745494104922">
        <ele>105.6</ele>
        <time>2026-06-05T16:13:54</time>
      </trkpt>
      <trkpt lat="35.97720293328166" lon="129.50753096491098">
        <ele>105.6</ele>
        <time>2026-06-05T16:13:55</time>
      </trkpt>
      <trkpt lat="35.977209974080324" lon="129.50760698877275">
        <ele>105.4</ele>
        <time>2026-06-05T16:13:56</time>
      </trkpt>
      <trkpt lat="35.97721793688834" lon="129.50768594630063">
        <ele>105.2</ele>
        <time>2026-06-05T16:13:57</time>
      </trkpt>
      <trkpt lat="35.97722598351538" lon="129.5077669993043">
        <ele>105.0</ele>
        <time>2026-06-05T16:13:58</time>
      </trkpt>
      <trkpt lat="35.977234952151775" lon="129.5078489743173">
        <ele>104.8</ele>
        <time>2026-06-05T16:13:59</time>
      </trkpt>
      <trkpt lat="35.97724492661655" lon="129.50793497264385">
        <ele>104.6</ele>
        <time>2026-06-05T16:14:00</time>
      </trkpt>
      <trkpt lat="35.977254984900355" lon="129.50802398845553">
        <ele>104.2</ele>
        <time>2026-06-05T16:14:01</time>
      </trkpt>
      <trkpt lat="35.97726797685027" lon="129.50811493210495">
        <ele>104.0</ele>
        <time>2026-06-05T16:14:02</time>
      </trkpt>
      <trkpt lat="35.97728298045695" lon="129.50820797123015">
        <ele>103.8</ele>
        <time>2026-06-05T16:14:03</time>
      </trkpt>
      <trkpt lat="35.977298989892006" lon="129.50830394402146">
        <ele>103.6</ele>
        <time>2026-06-05T16:14:04</time>
      </trkpt>
      <trkpt lat="35.977317932993174" lon="129.50840293429792">
        <ele>103.2</ele>
        <time>2026-06-05T16:14:05</time>
      </trkpt>
      <trkpt lat="35.977337965741754" lon="129.50850393623114">
        <ele>103.0</ele>
        <time>2026-06-05T16:14:06</time>
      </trkpt>
      <trkpt lat="35.97735992632806" lon="129.5086079556495">
        <ele>102.6</ele>
        <time>2026-06-05T16:14:07</time>
      </trkpt>
      <trkpt lat="35.977384988218546" lon="129.508714992553">
        <ele>102.2</ele>
        <time>2026-06-05T16:14:08</time>
      </trkpt>
      <trkpt lat="35.97741097211838" lon="129.50882395729423">
        <ele>101.8</ele>
        <time>2026-06-05T16:14:09</time>
      </trkpt>
      <trkpt lat="35.97743896767497" lon="129.5089359395206">
        <ele>101.4</ele>
        <time>2026-06-05T16:14:10</time>
      </trkpt>
      <trkpt lat="35.977468974888325" lon="129.50904993340373">
        <ele>101.0</ele>
        <time>2026-06-05T16:14:11</time>
      </trkpt>
      <trkpt lat="35.97749998793006" lon="129.50916593894362">
        <ele>100.6</ele>
        <time>2026-06-05T16:14:12</time>
      </trkpt>
      <trkpt lat="35.977533934637904" lon="129.50928395614028">
        <ele>100.2</ele>
        <time>2026-06-05T16:14:13</time>
      </trkpt>
      <trkpt lat="35.97756997682154" lon="129.50940499082208">
        <ele>99.8</ele>
        <time>2026-06-05T16:14:14</time>
      </trkpt>
      <trkpt lat="35.97760895267129" lon="129.50952594168484">
        <ele>99.4</ele>
        <time>2026-06-05T16:14:15</time>
      </trkpt>
      <trkpt lat="35.97765094600618" lon="129.50964697636664">
        <ele>99.0</ele>
        <time>2026-06-05T16:14:16</time>
      </trkpt>
      <trkpt lat="35.97769495099783" lon="129.50976993888617">
        <ele>98.4</ele>
        <time>2026-06-05T16:14:17</time>
      </trkpt>
      <trkpt lat="35.97774096764624" lon="129.5098939910531">
        <ele>98.0</ele>
        <time>2026-06-05T16:14:18</time>
      </trkpt>
      <trkpt lat="35.977788995951414" lon="129.51001997105777">
        <ele>97.4</ele>
        <time>2026-06-05T16:14:19</time>
      </trkpt>
      <trkpt lat="35.9778399579227" lon="129.51014494523406">
        <ele>97.0</ele>
        <time>2026-06-05T16:14:20</time>
      </trkpt>
      <trkpt lat="35.9778949432075" lon="129.51027092523873">
        <ele>96.4</ele>
        <time>2026-06-05T16:14:21</time>
      </trkpt>
      <trkpt lat="35.97795093432069" lon="129.51039598323405">
        <ele>95.8</ele>
        <time>2026-06-05T16:14:22</time>
      </trkpt>
      <trkpt lat="35.978008937090635" lon="129.51052095741034">
        <ele>95.4</ele>
        <time>2026-06-05T16:14:23</time>
      </trkpt>
      <trkpt lat="35.97806794568896" lon="129.51064593158662">
        <ele>94.8</ele>
        <time>2026-06-05T16:14:24</time>
      </trkpt>
      <trkpt lat="35.97812695428729" lon="129.51077098958194">
        <ele>94.2</ele>
        <time>2026-06-05T16:14:25</time>
      </trkpt>
      <trkpt lat="35.97818797454238" lon="129.51089596375823">
        <ele>93.6</ele>
        <time>2026-06-05T16:14:26</time>
      </trkpt>
      <trkpt lat="35.97824991680682" lon="129.51101993210614">
        <ele>93.0</ele>
        <time>2026-06-05T16:14:27</time>
      </trkpt>
      <trkpt lat="35.97831294871867" lon="129.5111429784447">
        <ele>92.2</ele>
        <time>2026-06-05T16:14:28</time>
      </trkpt>
      <trkpt lat="35.9783769864589" lon="129.5112669467926">
        <ele>91.6</ele>
        <time>2026-06-05T16:14:29</time>
      </trkpt>
      <trkpt lat="35.978440940380096" lon="129.5113919209689">
        <ele>91.0</ele>
        <time>2026-06-05T16:14:30</time>
      </trkpt>
      <trkpt lat="35.978503972291946" lon="129.5115169789642">
        <ele>90.2</ele>
        <time>2026-06-05T16:14:31</time>
      </trkpt>
      <trkpt lat="35.978567926213145" lon="129.5116419531405">
        <ele>89.6</ele>
        <time>2026-06-05T16:14:32</time>
      </trkpt>
      <trkpt lat="35.978631963953376" lon="129.51176692731678">
        <ele>89.0</ele>
        <time>2026-06-05T16:14:33</time>
      </trkpt>
      <trkpt lat="35.978695917874575" lon="129.5118919853121">
        <ele>88.4</ele>
        <time>2026-06-05T16:14:34</time>
      </trkpt>
      <trkpt lat="35.978759955614805" lon="129.51201595366">
        <ele>88.0</ele>
        <time>2026-06-05T16:14:35</time>
      </trkpt>
      <trkpt lat="35.978824999183416" lon="129.5121409278363">
        <ele>87.4</ele>
        <time>2026-06-05T16:14:36</time>
      </trkpt>
      <trkpt lat="35.978889958932996" lon="129.51226799748838">
        <ele>86.8</ele>
        <time>2026-06-05T16:14:37</time>
      </trkpt>
      <trkpt lat="35.978955924510956" lon="129.51239498332143">
        <ele>86.4</ele>
        <time>2026-06-05T16:14:38</time>
      </trkpt>
      <trkpt lat="35.97902096807957" lon="129.51252297498286">
        <ele>85.8</ele>
        <time>2026-06-05T16:14:39</time>
      </trkpt>
      <trkpt lat="35.97908793948591" lon="129.5126509666443">
        <ele>85.4</ele>
        <time>2026-06-05T16:14:40</time>
      </trkpt>
      <trkpt lat="35.97915298305452" lon="129.5127799641341">
        <ele>84.8</ele>
        <time>2026-06-05T16:14:41</time>
      </trkpt>
      <trkpt lat="35.97921894863248" lon="129.5129099674523">
        <ele>84.0</ele>
        <time>2026-06-05T16:14:42</time>
      </trkpt>
      <trkpt lat="35.97928499802947" lon="129.51303997077048">
        <ele>83.4</ele>
        <time>2026-06-05T16:14:43</time>
      </trkpt>
      <trkpt lat="35.97935096360743" lon="129.51316997408867">
        <ele>82.8</ele>
        <time>2026-06-05T16:14:44</time>
      </trkpt>
      <trkpt lat="35.97941692918539" lon="129.51329997740686">
        <ele>82.2</ele>
        <time>2026-06-05T16:14:45</time>
      </trkpt>
      <trkpt lat="35.97948297858238" lon="129.51342998072505">
        <ele>81.6</ele>
        <time>2026-06-05T16:14:46</time>
      </trkpt>
      <trkpt lat="35.97954894416034" lon="129.51355897821486">
        <ele>81.0</ele>
        <time>2026-06-05T16:14:47</time>
      </trkpt>
      <trkpt lat="35.979614993557334" lon="129.51368898153305">
        <ele>80.2</ele>
        <time>2026-06-05T16:14:48</time>
      </trkpt>
      <trkpt lat="35.979680959135294" lon="129.51381797902286">
        <ele>79.6</ele>
        <time>2026-06-05T16:14:49</time>
      </trkpt>
      <trkpt lat="35.979746924713254" lon="129.51394697651267">
        <ele>79.0</ele>
        <time>2026-06-05T16:14:50</time>
      </trkpt>
      <trkpt lat="35.979812974110246" lon="129.51407597400248">
        <ele>78.2</ele>
        <time>2026-06-05T16:14:51</time>
      </trkpt>
      <trkpt lat="35.979878939688206" lon="129.5142049714923">
        <ele>77.6</ele>
        <time>2026-06-05T16:14:52</time>
      </trkpt>
      <trkpt lat="35.97994398325682" lon="129.5143339689821">
        <ele>77.0</ele>
        <time>2026-06-05T16:14:53</time>
      </trkpt>
      <trkpt lat="35.98000994883478" lon="129.5144629664719">
        <ele>76.2</ele>
        <time>2026-06-05T16:14:54</time>
      </trkpt>
      <trkpt lat="35.98007692024112" lon="129.51459196396172">
        <ele>75.6</ele>
        <time>2026-06-05T16:14:55</time>
      </trkpt>
      <trkpt lat="35.98014397546649" lon="129.51471995562315">
        <ele>75.0</ele>
        <time>2026-06-05T16:14:56</time>
      </trkpt>
      <trkpt lat="35.98021094687283" lon="129.51484794728458">
        <ele>74.2</ele>
        <time>2026-06-05T16:14:57</time>
      </trkpt>
      <trkpt lat="35.98027791827917" lon="129.51497493311763">
        <ele>73.6</ele>
        <time>2026-06-05T16:14:58</time>
      </trkpt>
      <trkpt lat="35.98034396767616" lon="129.51510292477906">
        <ele>73.0</ele>
        <time>2026-06-05T16:14:59</time>
      </trkpt>
      <trkpt lat="35.98040993325412" lon="129.51522999443114">
        <ele>72.4</ele>
        <time>2026-06-05T16:15:00</time>
      </trkpt>
      <trkpt lat="35.980474976822734" lon="129.5153569802642">
        <ele>71.8</ele>
        <time>2026-06-05T16:15:01</time>
      </trkpt>
      <trkpt lat="35.98053993657231" lon="129.51548396609724">
        <ele>71.0</ele>
        <time>2026-06-05T16:15:02</time>
      </trkpt>
      <trkpt lat="35.980603974312544" lon="129.51561095193028">
        <ele>70.4</ele>
        <time>2026-06-05T16:15:03</time>
      </trkpt>
      <trkpt lat="35.98066692240536" lon="129.51573793776333">
        <ele>69.8</ele>
        <time>2026-06-05T16:15:04</time>
      </trkpt>
      <trkpt lat="35.98072995431721" lon="129.51586592942476">
        <ele>69.0</ele>
        <time>2026-06-05T16:15:05</time>
      </trkpt>
      <trkpt lat="35.98079198040068" lon="129.5159939210862">
        <ele>68.4</ele>
        <time>2026-06-05T16:15:06</time>
      </trkpt>
      <trkpt lat="35.98085392266512" lon="129.516122918576">
        <ele>67.6</ele>
        <time>2026-06-05T16:15:07</time>
      </trkpt>
      <trkpt lat="35.98091594874859" lon="129.5162489823997">
        <ele>67.0</ele>
        <time>2026-06-05T16:15:08</time>
      </trkpt>
      <trkpt lat="35.980974957346916" lon="129.51637194491923">
        <ele>66.4</ele>
        <time>2026-06-05T16:15:09</time>
      </trkpt>
      <trkpt lat="35.981033965945244" lon="129.51648996211588">
        <ele>65.8</ele>
        <time>2026-06-05T16:15:10</time>
      </trkpt>
      <trkpt lat="35.98109196871519" lon="129.51660596765578">
        <ele>65.2</ele>
        <time>2026-06-05T16:15:11</time>
      </trkpt>
      <trkpt lat="35.98115097731352" lon="129.5167209673673">
        <ele>64.6</ele>
        <time>2026-06-05T16:15:12</time>
      </trkpt>
      <trkpt lat="35.981208980083466" lon="129.51683496125042">
        <ele>64.0</ele>
        <time>2026-06-05T16:15:13</time>
      </trkpt>
      <trkpt lat="35.98126597702503" lon="129.51694895513356">
        <ele>63.6</ele>
        <time>2026-06-05T16:15:14</time>
      </trkpt>
      <trkpt lat="35.9813229739666" lon="129.5170619431883">
        <ele>63.2</ele>
        <time>2026-06-05T16:15:15</time>
      </trkpt>
      <trkpt lat="35.981379970908165" lon="129.51717392541468">
        <ele>62.8</ele>
        <time>2026-06-05T16:15:16</time>
      </trkpt>
      <trkpt lat="35.98143696784973" lon="129.51728599146008">
        <ele>62.2</ele>
        <time>2026-06-05T16:15:17</time>
      </trkpt>
      <trkpt lat="35.98149295896292" lon="129.51739696785808">
        <ele>61.8</ele>
        <time>2026-06-05T16:15:18</time>
      </trkpt>
      <trkpt lat="35.981549955904484" lon="129.51750794425607">
        <ele>61.4</ele>
        <time>2026-06-05T16:15:19</time>
      </trkpt>
      <trkpt lat="35.98160494118929" lon="129.51761892065406">
        <ele>61.2</ele>
        <time>2026-06-05T16:15:20</time>
      </trkpt>
      <trkpt lat="35.981660932302475" lon="129.51772998087108">
        <ele>60.8</ele>
        <time>2026-06-05T16:15:21</time>
      </trkpt>
      <trkpt lat="35.98171692341566" lon="129.51784095726907">
        <ele>60.6</ele>
        <time>2026-06-05T16:15:22</time>
      </trkpt>
      <trkpt lat="35.9817719925195" lon="129.51794891618192">
        <ele>60.2</ele>
        <time>2026-06-05T16:15:23</time>
      </trkpt>
      <trkpt lat="35.98182597197592" lon="129.51805494725704">
        <ele>60.0</ele>
        <time>2026-06-05T16:15:24</time>
      </trkpt>
      <trkpt lat="35.98187995143235" lon="129.51815997250378">
        <ele>59.6</ele>
        <time>2026-06-05T16:15:25</time>
      </trkpt>
      <trkpt lat="35.98193191923201" lon="129.51826399192214">
        <ele>59.4</ele>
        <time>2026-06-05T16:15:26</time>
      </trkpt>
      <trkpt lat="35.981983970850706" lon="129.51836792752147">
        <ele>59.0</ele>
        <time>2026-06-05T16:15:27</time>
      </trkpt>
      <trkpt lat="35.98203694447875" lon="129.51847094111145">
        <ele>58.8</ele>
        <time>2026-06-05T16:15:28</time>
      </trkpt>
      <trkpt lat="35.982089918106794" lon="129.5185749605298">
        <ele>58.4</ele>
        <time>2026-06-05T16:15:29</time>
      </trkpt>
      <trkpt lat="35.98214297555387" lon="129.51867998577654">
        <ele>58.2</ele>
        <time>2026-06-05T16:15:30</time>
      </trkpt>
      <trkpt lat="35.982194943353534" lon="129.51878199353814">
        <ele>58.0</ele>
        <time>2026-06-05T16:15:31</time>
      </trkpt>
      <trkpt lat="35.98224598914385" lon="129.51888198964298">
        <ele>57.6</ele>
        <time>2026-06-05T16:15:32</time>
      </trkpt>
      <trkpt lat="35.98229594528675" lon="129.51898097991943">
        <ele>57.4</ele>
        <time>2026-06-05T16:15:33</time>
      </trkpt>
      <trkpt lat="35.982345985248685" lon="129.5190789643675">
        <ele>57.2</ele>
        <time>2026-06-05T16:15:34</time>
      </trkpt>
      <trkpt lat="35.98239493556321" lon="129.51917493715882">
        <ele>56.8</ele>
        <time>2026-06-05T16:15:35</time>
      </trkpt>
      <trkpt lat="35.98244296386838" lon="129.5192699879408">
        <ele>56.6</ele>
        <time>2026-06-05T16:15:36</time>
      </trkpt>
      <trkpt lat="35.98249292001128" lon="129.51936394907534">
        <ele>56.4</ele>
        <time>2026-06-05T16:15:37</time>
      </trkpt>
      <trkpt lat="35.982541954144835" lon="129.51945598237216">
        <ele>56.0</ele>
        <time>2026-06-05T16:15:38</time>
      </trkpt>
      <trkpt lat="35.98259098827839" lon="129.51954793184996">
        <ele>55.8</ele>
        <time>2026-06-05T16:15:39</time>
      </trkpt>
      <trkpt lat="35.98263893276453" lon="129.51963996514678">
        <ele>55.6</ele>
        <time>2026-06-05T16:15:40</time>
      </trkpt>
      <trkpt lat="35.9826869610697" lon="129.51973292045295">
        <ele>55.2</ele>
        <time>2026-06-05T16:15:41</time>
      </trkpt>
      <trkpt lat="35.982733983546495" lon="129.51982495374978">
        <ele>55.0</ele>
        <time>2026-06-05T16:15:42</time>
      </trkpt>
      <trkpt lat="35.982776982709765" lon="129.51991899870336">
        <ele>54.8</ele>
        <time>2026-06-05T16:15:43</time>
      </trkpt>
      <trkpt lat="35.98281495273113" lon="129.52001597732306">
        <ele>54.6</ele>
        <time>2026-06-05T16:15:44</time>
      </trkpt>
      <trkpt lat="35.9828529227525" lon="129.52011195011437">
        <ele>54.4</ele>
        <time>2026-06-05T16:15:45</time>
      </trkpt>
      <trkpt lat="35.98289298824966" lon="129.5202069170773">
        <ele>54.0</ele>
        <time>2026-06-05T16:15:46</time>
      </trkpt>
      <trkpt lat="35.98293598741293" lon="129.52029794454575">
        <ele>53.8</ele>
        <time>2026-06-05T16:15:47</time>
      </trkpt>
      <trkpt lat="35.98298192024231" lon="129.5203889720142">
        <ele>53.4</ele>
        <time>2026-06-05T16:15:48</time>
      </trkpt>
      <trkpt lat="35.98302793689072" lon="129.52047999948263">
        <ele>53.0</ele>
        <time>2026-06-05T16:15:49</time>
      </trkpt>
      <trkpt lat="35.98307395353913" lon="129.52057094313204">
        <ele>52.8</ele>
        <time>2026-06-05T16:15:50</time>
      </trkpt>
      <trkpt lat="35.983120976015925" lon="129.5206609647721">
        <ele>52.6</ele>
        <time>2026-06-05T16:15:51</time>
      </trkpt>
      <trkpt lat="35.98316799849272" lon="129.5207489747554">
        <ele>52.4</ele>
        <time>2026-06-05T16:15:52</time>
      </trkpt>
      <trkpt lat="35.98321694880724" lon="129.52083497308195">
        <ele>52.2</ele>
        <time>2026-06-05T16:15:53</time>
      </trkpt>
      <trkpt lat="35.98326497711241" lon="129.5209209714085">
        <ele>52.0</ele>
        <time>2026-06-05T16:15:54</time>
      </trkpt>
      <trkpt lat="35.983311999589205" lon="129.52100696973503">
        <ele>51.8</ele>
        <time>2026-06-05T16:15:55</time>
      </trkpt>
      <trkpt lat="35.983357932418585" lon="129.52109397388995">
        <ele>51.4</ele>
        <time>2026-06-05T16:15:56</time>
      </trkpt>
      <trkpt lat="35.983402943238616" lon="129.52118399553">
        <ele>51.2</ele>
        <time>2026-06-05T16:15:57</time>
      </trkpt>
      <trkpt lat="35.983444936573505" lon="129.52127493917942">
        <ele>50.8</ele>
        <time>2026-06-05T16:15:58</time>
      </trkpt>
      <trkpt lat="35.983485924080014" lon="129.521368984133">
        <ele>50.6</ele>
        <time>2026-06-05T16:15:59</time>
      </trkpt>
      <trkpt lat="35.983524983748794" lon="129.52146395109594">
        <ele>50.4</ele>
        <time>2026-06-05T16:16:00</time>
      </trkpt>
      <trkpt lat="35.98356194794178" lon="129.52155992388725">
        <ele>50.2</ele>
        <time>2026-06-05T16:16:01</time>
      </trkpt>
      <trkpt lat="35.98359698429704" lon="129.52165698632598">
        <ele>49.8</ele>
        <time>2026-06-05T16:16:02</time>
      </trkpt>
      <trkpt lat="35.98363093100488" lon="129.5217529591173">
        <ele>49.6</ele>
        <time>2026-06-05T16:16:03</time>
      </trkpt>
      <trkpt lat="35.983662949875" lon="129.5218489319086">
        <ele>49.4</ele>
        <time>2026-06-05T16:16:04</time>
      </trkpt>
      <trkpt lat="35.98369396291673" lon="129.52194498851895">
        <ele>49.2</ele>
        <time>2026-06-05T16:16:05</time>
      </trkpt>
      <trkpt lat="35.983721958473325" lon="129.52204196713865">
        <ele>48.8</ele>
        <time>2026-06-05T16:16:06</time>
      </trkpt>
      <trkpt lat="35.983746936544776" lon="129.52213894575834">
        <ele>48.6</ele>
        <time>2026-06-05T16:16:07</time>
      </trkpt>
      <trkpt lat="35.9837699867785" lon="129.52223491854966">
        <ele>48.4</ele>
        <time>2026-06-05T16:16:08</time>
      </trkpt>
      <trkpt lat="35.98379295319319" lon="129.52232896350324">
        <ele>48.2</ele>
        <time>2026-06-05T16:16:09</time>
      </trkpt>
      <trkpt lat="35.98381499759853" lon="129.52242393046618">
        <ele>47.8</ele>
        <time>2026-06-05T16:16:10</time>
      </trkpt>
      <trkpt lat="35.98383494652808" lon="129.52251797541976">
        <ele>47.6</ele>
        <time>2026-06-05T16:16:11</time>
      </trkpt>
      <trkpt lat="35.98385397344828" lon="129.52261394821107">
        <ele>47.4</ele>
        <time>2026-06-05T16:16:12</time>
      </trkpt>
      <trkpt lat="35.983871994540095" lon="129.52271092683077">
        <ele>47.2</ele>
        <time>2026-06-05T16:16:13</time>
      </trkpt>
      <trkpt lat="35.98388699814677" lon="129.5228079892695">
        <ele>47.0</ele>
        <time>2026-06-05T16:16:14</time>
      </trkpt>
      <trkpt lat="35.98389999009669" lon="129.5229039620608">
        <ele>47.0</ele>
        <time>2026-06-05T16:16:15</time>
      </trkpt>
      <trkpt lat="35.983912982046604" lon="129.5230009406805">
        <ele>46.8</ele>
        <time>2026-06-05T16:16:16</time>
      </trkpt>
      <trkpt lat="35.98392396233976" lon="129.5230979193002">
        <ele>46.4</ele>
        <time>2026-06-05T16:16:17</time>
      </trkpt>
      <trkpt lat="35.98393293097615" lon="129.52319498173892">
        <ele>46.2</ele>
        <time>2026-06-05T16:16:18</time>
      </trkpt>
      <trkpt lat="35.98393997177482" lon="129.523292966187">
        <ele>45.8</ele>
        <time>2026-06-05T16:16:19</time>
      </trkpt>
      <trkpt lat="35.98394592292607" lon="129.52339095063508">
        <ele>45.6</ele>
        <time>2026-06-05T16:16:20</time>
      </trkpt>
      <trkpt lat="35.98395095206797" lon="129.52348994091153">
        <ele>45.4</ele>
        <time>2026-06-05T16:16:21</time>
      </trkpt>
      <trkpt lat="35.983955981209874" lon="129.523588931188">
        <ele>45.0</ele>
        <time>2026-06-05T16:16:22</time>
      </trkpt>
      <trkpt lat="35.983958998695016" lon="129.52368792146444">
        <ele>44.8</ele>
        <time>2026-06-05T16:16:23</time>
      </trkpt>
      <trkpt lat="35.983959920704365" lon="129.52378791756928">
        <ele>44.6</ele>
        <time>2026-06-05T16:16:24</time>
      </trkpt>
      <trkpt lat="35.983960926532745" lon="129.5238889195025">
        <ele>44.2</ele>
        <time>2026-06-05T16:16:25</time>
      </trkpt>
      <trkpt lat="35.983958998695016" lon="129.52398899942636">
        <ele>44.0</ele>
        <time>2026-06-05T16:16:26</time>
      </trkpt>
      <trkpt lat="35.983956987038255" lon="129.5240889955312">
        <ele>43.8</ele>
        <time>2026-06-05T16:16:27</time>
      </trkpt>
      <trkpt lat="35.98395296372473" lon="129.52419091947377">
        <ele>43.6</ele>
        <time>2026-06-05T16:16:28</time>
      </trkpt>
      <trkpt lat="35.98394793458283" lon="129.52429292723536">
        <ele>43.4</ele>
        <time>2026-06-05T16:16:29</time>
      </trkpt>
      <trkpt lat="35.98394198343158" lon="129.52439694665372">
        <ele>43.0</ele>
        <time>2026-06-05T16:16:30</time>
      </trkpt>
      <trkpt lat="35.98393293097615" lon="129.5244999602437">
        <ele>42.8</ele>
        <time>2026-06-05T16:16:31</time>
      </trkpt>
      <trkpt lat="35.98392295651138" lon="129.52460397966206">
        <ele>42.6</ele>
        <time>2026-06-05T16:16:32</time>
      </trkpt>
      <trkpt lat="35.98390996456146" lon="129.52470799908042">
        <ele>42.4</ele>
        <time>2026-06-05T16:16:33</time>
      </trkpt>
      <trkpt lat="35.983894960954785" lon="129.52481193467975">
        <ele>42.2</ele>
        <time>2026-06-05T16:16:34</time>
      </trkpt>
      <trkpt lat="35.98387895151973" lon="129.52491494826972">
        <ele>42.0</ele>
        <time>2026-06-05T16:16:35</time>
      </trkpt>
      <trkpt lat="35.98386193625629" lon="129.5250179618597">
        <ele>41.8</ele>
        <time>2026-06-05T16:16:36</time>
      </trkpt>
      <trkpt lat="35.9838439989835" lon="129.5251199696213">
        <ele>41.6</ele>
        <time>2026-06-05T16:16:37</time>
      </trkpt>
      <trkpt lat="35.9838249720633" lon="129.52522097155452">
        <ele>41.4</ele>
        <time>2026-06-05T16:16:38</time>
      </trkpt>
      <trkpt lat="35.98380493931472" lon="129.52532197348773">
        <ele>41.2</ele>
        <time>2026-06-05T16:16:39</time>
      </trkpt>
      <trkpt lat="35.983783984556794" lon="129.52542297542095">
        <ele>41.0</ele>
        <time>2026-06-05T16:16:40</time>
      </trkpt>
      <trkpt lat="35.98376194015145" lon="129.5255229715258">
        <ele>40.8</ele>
        <time>2026-06-05T16:16:41</time>
      </trkpt>
      <trkpt lat="35.98373897373676" lon="129.525623973459">
        <ele>40.6</ele>
        <time>2026-06-05T16:16:42</time>
      </trkpt>
      <trkpt lat="35.98371491767466" lon="129.5257259812206">
        <ele>40.4</ele>
        <time>2026-06-05T16:16:43</time>
      </trkpt>
      <trkpt lat="35.98369094543159" lon="129.5258279889822">
        <ele>40.2</ele>
        <time>2026-06-05T16:16:44</time>
      </trkpt>
      <trkpt lat="35.98366697318852" lon="129.52593091875315">
        <ele>40.0</ele>
        <time>2026-06-05T16:16:45</time>
      </trkpt>
      <trkpt lat="35.9836439229548" lon="129.52603393234313">
        <ele>39.8</ele>
        <time>2026-06-05T16:16:46</time>
      </trkpt>
      <trkpt lat="35.98362095654011" lon="129.5261369459331">
        <ele>39.4</ele>
        <time>2026-06-05T16:16:47</time>
      </trkpt>
      <trkpt lat="35.9835989959538" lon="129.52624096535146">
        <ele>39.2</ele>
        <time>2026-06-05T16:16:48</time>
      </trkpt>
      <trkpt lat="35.98357695154846" lon="129.52634498476982">
        <ele>39.0</ele>
        <time>2026-06-05T16:16:49</time>
      </trkpt>
      <trkpt lat="35.98355398513377" lon="129.52644992619753">
        <ele>38.8</ele>
        <time>2026-06-05T16:16:50</time>
      </trkpt>
      <trkpt lat="35.983531940728426" lon="129.5265539456159">
        <ele>38.6</ele>
        <time>2026-06-05T16:16:51</time>
      </trkpt>
      <trkpt lat="35.98350998014212" lon="129.52665796503425">
        <ele>38.4</ele>
        <time>2026-06-05T16:16:52</time>
      </trkpt>
      <trkpt lat="35.983486929908395" lon="129.5267619844526">
        <ele>38.2</ele>
        <time>2026-06-05T16:16:53</time>
      </trkpt>
      <trkpt lat="35.983463963493705" lon="129.52686592005193">
        <ele>38.0</ele>
        <time>2026-06-05T16:16:54</time>
      </trkpt>
      <trkpt lat="35.983441919088364" lon="129.5269689336419">
        <ele>37.8</ele>
        <time>2026-06-05T16:16:55</time>
      </trkpt>
      <trkpt lat="35.983419958502054" lon="129.5270719472319">
        <ele>37.6</ele>
        <time>2026-06-05T16:16:56</time>
      </trkpt>
      <trkpt lat="35.983397997915745" lon="129.52717596665025">
        <ele>37.4</ele>
        <time>2026-06-05T16:16:57</time>
      </trkpt>
      <trkpt lat="35.98337494768202" lon="129.52727898024023">
        <ele>37.2</ele>
        <time>2026-06-05T16:16:58</time>
      </trkpt>
      <trkpt lat="35.983353992924094" lon="129.52738299965858">
        <ele>37.0</ele>
        <time>2026-06-05T16:16:59</time>
      </trkpt>
      <trkpt lat="35.98333194851875" lon="129.52748492360115">
        <ele>36.8</ele>
        <time>2026-06-05T16:17:00</time>
      </trkpt>
      <trkpt lat="35.983309987932444" lon="129.52758693136275">
        <ele>36.6</ele>
        <time>2026-06-05T16:17:01</time>
      </trkpt>
      <trkpt lat="35.9832879435271" lon="129.52768793329597">
        <ele>36.4</ele>
        <time>2026-06-05T16:17:02</time>
      </trkpt>
      <trkpt lat="35.98326598294079" lon="129.52778692357242">
        <ele>36.2</ele>
        <time>2026-06-05T16:17:03</time>
      </trkpt>
      <trkpt lat="35.98324494436383" lon="129.5278859976679">
        <ele>36.0</ele>
        <time>2026-06-05T16:17:04</time>
      </trkpt>
      <trkpt lat="35.983223989605904" lon="129.5279829762876">
        <ele>36.0</ele>
        <time>2026-06-05T16:17:05</time>
      </trkpt>
      <trkpt lat="35.983203956857324" lon="129.52807894907892">
        <ele>35.8</ele>
        <time>2026-06-05T16:17:06</time>
      </trkpt>
      <trkpt lat="35.983183924108744" lon="129.52817399986088">
        <ele>35.6</ele>
        <time>2026-06-05T16:17:07</time>
      </trkpt>
      <trkpt lat="35.983162969350815" lon="129.52826796099544">
        <ele>35.6</ele>
        <time>2026-06-05T16:17:08</time>
      </trkpt>
      <trkpt lat="35.983142936602235" lon="129.52835999429226">
        <ele>35.4</ele>
        <time>2026-06-05T16:17:09</time>
      </trkpt>
      <trkpt lat="35.98312298767269" lon="129.52845093794167">
        <ele>35.4</ele>
        <time>2026-06-05T16:17:10</time>
      </trkpt>
      <trkpt lat="35.98310396075249" lon="129.52854095958173">
        <ele>35.2</ele>
        <time>2026-06-05T16:17:11</time>
      </trkpt>
      <trkpt lat="35.98308493383229" lon="129.52862796373665">
        <ele>35.2</ele>
        <time>2026-06-05T16:17:12</time>
      </trkpt>
      <trkpt lat="35.98306498490274" lon="129.5287139620632">
        <ele>35.2</ele>
        <time>2026-06-05T16:17:13</time>
      </trkpt>
      <trkpt lat="35.98304495215416" lon="129.52879794873297">
        <ele>35.2</ele>
        <time>2026-06-05T16:17:14</time>
      </trkpt>
      <trkpt lat="35.98302491940558" lon="129.528879923746">
        <ele>35.0</ele>
        <time>2026-06-05T16:17:15</time>
      </trkpt>
      <trkpt lat="35.98300497047603" lon="129.52895997092128">
        <ele>35.0</ele>
        <time>2026-06-05T16:17:16</time>
      </trkpt>
      <trkpt lat="35.98298493772745" lon="129.52903993427753">
        <ele>35.0</ele>
        <time>2026-06-05T16:17:17</time>
      </trkpt>
      <trkpt lat="35.982965994626284" lon="129.52911998145282">
        <ele>34.8</ele>
        <time>2026-06-05T16:17:18</time>
      </trkpt>
      <trkpt lat="35.982949985191226" lon="129.52919994480908">
        <ele>34.8</ele>
        <time>2026-06-05T16:17:19</time>
      </trkpt>
      <trkpt lat="35.98293296992779" lon="129.5292779803276">
        <ele>34.8</ele>
        <time>2026-06-05T16:17:20</time>
      </trkpt>
      <trkpt lat="35.98291595466435" lon="129.5293559320271">
        <ele>34.8</ele>
        <time>2026-06-05T16:17:21</time>
      </trkpt>
      <trkpt lat="35.98289994522929" lon="129.52943396754563">
        <ele>34.8</ele>
        <time>2026-06-05T16:17:22</time>
      </trkpt>
      <trkpt lat="35.982884941622615" lon="129.5295099914074">
        <ele>34.8</ele>
        <time>2026-06-05T16:17:23</time>
      </trkpt>
      <trkpt lat="35.98287094384432" lon="129.5295879431069">
        <ele>34.6</ele>
        <time>2026-06-05T16:17:24</time>
      </trkpt>
      <trkpt lat="35.98285694606602" lon="129.52966597862542">
        <ele>34.6</ele>
        <time>2026-06-05T16:17:25</time>
      </trkpt>
      <trkpt lat="35.982841942459345" lon="129.52974594198167">
        <ele>34.6</ele>
        <time>2026-06-05T16:17:26</time>
      </trkpt>
      <trkpt lat="35.982823921367526" lon="129.52982498332858">
        <ele>34.6</ele>
        <time>2026-06-05T16:17:27</time>
      </trkpt>
      <trkpt lat="35.98280497826636" lon="129.52990595251322">
        <ele>34.6</ele>
        <time>2026-06-05T16:17:28</time>
      </trkpt>
      <trkpt lat="35.98278595134616" lon="129.52998792752624">
        <ele>34.6</ele>
        <time>2026-06-05T16:17:29</time>
      </trkpt>
      <trkpt lat="35.98276591859758" lon="129.53007199801505">
        <ele>34.6</ele>
        <time>2026-06-05T16:17:30</time>
      </trkpt>
      <trkpt lat="35.98274697549641" lon="129.5301579963416">
        <ele>34.6</ele>
        <time>2026-06-05T16:17:31</time>
      </trkpt>
      <trkpt lat="35.98272895440459" lon="129.53024592250586">
        <ele>34.6</ele>
        <time>2026-06-05T16:17:32</time>
      </trkpt>
      <trkpt lat="35.98270992748439" lon="129.53033393248916">
        <ele>34.4</ele>
        <time>2026-06-05T16:17:33</time>
      </trkpt>
      <trkpt lat="35.982689978554845" lon="129.53042395412922">
        <ele>34.4</ele>
        <time>2026-06-05T16:17:34</time>
      </trkpt>
      <trkpt lat="35.982668939977884" lon="129.53051598742604">
        <ele>34.4</ele>
        <time>2026-06-05T16:17:35</time>
      </trkpt>
      <trkpt lat="35.982645973563194" lon="129.5306099485606">
        <ele>34.2</ele>
        <time>2026-06-05T16:17:36</time>
      </trkpt>
      <trkpt lat="35.98262191750109" lon="129.5307059213519">
        <ele>34.2</ele>
        <time>2026-06-05T16:17:37</time>
      </trkpt>
      <trkpt lat="35.98259693942964" lon="129.53080398961902">
        <ele>34.2</ele>
        <time>2026-06-05T16:17:38</time>
      </trkpt>
      <trkpt lat="35.98256994970143" lon="129.53090297989547">
        <ele>34.0</ele>
        <time>2026-06-05T16:17:39</time>
      </trkpt>
      <trkpt lat="35.982539942488074" lon="129.5310029760003">
        <ele>33.8</ele>
        <time>2026-06-05T16:17:40</time>
      </trkpt>
      <trkpt lat="35.98250599578023" lon="129.53110196627676">
        <ele>33.8</ele>
        <time>2026-06-05T16:17:41</time>
      </trkpt>
      <trkpt lat="35.98246693611145" lon="129.53120095655322">
        <ele>33.6</ele>
        <time>2026-06-05T16:17:42</time>
      </trkpt>
      <trkpt lat="35.98242494277656" lon="129.5312989410013">
        <ele>33.4</ele>
        <time>2026-06-05T16:17:43</time>
      </trkpt>
      <trkpt lat="35.98237993195653" lon="129.531395919621">
        <ele>33.2</ele>
        <time>2026-06-05T16:17:44</time>
      </trkpt>
      <trkpt lat="35.98233693279326" lon="129.5314939878881">
        <ele>33.0</ele>
        <time>2026-06-05T16:17:45</time>
      </trkpt>
      <trkpt lat="35.98229393362999" lon="129.53159197233617">
        <ele>32.8</ele>
        <time>2026-06-05T16:17:46</time>
      </trkpt>
      <trkpt lat="35.98225294612348" lon="129.53169096261263">
        <ele>32.6</ele>
        <time>2026-06-05T16:17:47</time>
      </trkpt>
      <trkpt lat="35.98221095278859" lon="129.53179095871747">
        <ele>32.4</ele>
        <time>2026-06-05T16:17:48</time>
      </trkpt>
      <trkpt lat="35.98216795362532" lon="129.53188894316554">
        <ele>32.2</ele>
        <time>2026-06-05T16:17:49</time>
      </trkpt>
      <trkpt lat="35.98212294280529" lon="129.53198592178524">
        <ele>32.0</ele>
        <time>2026-06-05T16:17:50</time>
      </trkpt>
      <trkpt lat="35.9820759203285" lon="129.53207896091044">
        <ele>31.8</ele>
        <time>2026-06-05T16:17:51</time>
      </trkpt>
      <trkpt lat="35.982025964185596" lon="129.53216998837888">
        <ele>31.8</ele>
        <time>2026-06-05T16:17:52</time>
      </trkpt>
      <trkpt lat="35.98197592422366" lon="129.5322599261999">
        <ele>31.6</ele>
        <time>2026-06-05T16:17:53</time>
      </trkpt>
      <trkpt lat="35.981923956424" lon="129.5323489420116">
        <ele>31.4</ele>
        <time>2026-06-05T16:17:54</time>
      </trkpt>
      <trkpt lat="35.981872994452715" lon="129.53243795782328">
        <ele>31.2</ele>
        <time>2026-06-05T16:17:55</time>
      </trkpt>
      <trkpt lat="35.98182295449078" lon="129.5325249619782">
        <ele>31.0</ele>
        <time>2026-06-05T16:17:56</time>
      </trkpt>
      <trkpt lat="35.98177098669112" lon="129.53261196613312">
        <ele>31.0</ele>
        <time>2026-06-05T16:17:57</time>
      </trkpt>
      <trkpt lat="35.981721952557564" lon="129.53269897028804">
        <ele>30.8</ele>
        <time>2026-06-05T16:17:58</time>
      </trkpt>
      <trkpt lat="35.98167392425239" lon="129.53278698027134">
        <ele>30.6</ele>
        <time>2026-06-05T16:17:59</time>
      </trkpt>
      <trkpt lat="35.98162799142301" lon="129.53287499025464">
        <ele>30.4</ele>
        <time>2026-06-05T16:18:00</time>
      </trkpt>
      <trkpt lat="35.9815819747746" lon="129.5329629164189">
        <ele>30.2</ele>
        <time>2026-06-05T16:18:01</time>
      </trkpt>
      <trkpt lat="35.98153796978295" lon="129.53304899856448">
        <ele>30.0</ele>
        <time>2026-06-05T16:18:02</time>
      </trkpt>
      <trkpt lat="35.9814939647913" lon="129.53313499689102">
        <ele>30.0</ele>
        <time>2026-06-05T16:18:03</time>
      </trkpt>
      <trkpt lat="35.98144895397127" lon="129.53321998938918">
        <ele>30.0</ele>
        <time>2026-06-05T16:18:04</time>
      </trkpt>
      <trkpt lat="35.981404948979616" lon="129.5333019644022">
        <ele>29.8</ele>
        <time>2026-06-05T16:18:05</time>
      </trkpt>
      <trkpt lat="35.981358932331204" lon="129.53338293358684">
        <ele>29.8</ele>
        <time>2026-06-05T16:18:06</time>
      </trkpt>
      <trkpt lat="35.981312999501824" lon="129.53345996327698">
        <ele>29.8</ele>
        <time>2026-06-05T16:18:07</time>
      </trkpt>
      <trkpt lat="35.98126497119665" lon="129.533533975482">
        <ele>29.6</ele>
        <time>2026-06-05T16:18:08</time>
      </trkpt>
      <trkpt lat="35.98121694289148" lon="129.53360497020185">
        <ele>29.6</ele>
        <time>2026-06-05T16:18:09</time>
      </trkpt>
      <trkpt lat="35.981169920414686" lon="129.53367395326495">
        <ele>29.6</ele>
        <time>2026-06-05T16:18:10</time>
      </trkpt>
      <trkpt lat="35.981122981756926" lon="129.5337399188429">
        <ele>29.6</ele>
        <time>2026-06-05T16:18:11</time>
      </trkpt>
      <trkpt lat="35.981077970936894" lon="129.53380295075476">
        <ele>29.6</ele>
        <time>2026-06-05T16:18:12</time>
      </trkpt>
      <trkpt lat="35.98103296011686" lon="129.53386296518147">
        <ele>29.6</ele>
        <time>2026-06-05T16:18:13</time>
      </trkpt>
      <trkpt lat="35.98098694346845" lon="129.53392096795142">
        <ele>29.6</ele>
        <time>2026-06-05T16:18:14</time>
      </trkpt>
      <trkpt lat="35.98093899898231" lon="129.53397796489298">
        <ele>29.6</ele>
        <time>2026-06-05T16:18:15</time>
      </trkpt>
      <trkpt lat="35.98089097067714" lon="129.53403496183455">
        <ele>29.6</ele>
        <time>2026-06-05T16:18:16</time>
      </trkpt>
      <trkpt lat="35.9808409307152" lon="129.53409195877612">
        <ele>29.4</ele>
        <time>2026-06-05T16:18:17</time>
      </trkpt>
      <trkpt lat="35.98078996874392" lon="129.53415197320282">
        <ele>29.4</ele>
        <time>2026-06-05T16:18:18</time>
      </trkpt>
      <trkpt lat="35.980737917125225" lon="129.5342129934579">
        <ele>29.2</ele>
        <time>2026-06-05T16:18:19</time>
      </trkpt>
      <trkpt lat="35.98068494349718" lon="129.5342769473791">
        <ele>29.0</ele>
        <time>2026-06-05T16:18:20</time>
      </trkpt>
      <trkpt lat="35.980630964040756" lon="129.5343429967761">
        <ele>28.6</ele>
        <time>2026-06-05T16:18:21</time>
      </trkpt>
      <trkpt lat="35.98057899624109" lon="129.5344129856676">
        <ele>28.2</ele>
        <time>2026-06-05T16:18:22</time>
      </trkpt>
      <trkpt lat="35.98052996210754" lon="129.53448892571032">
        <ele>27.8</ele>
        <time>2026-06-05T16:18:23</time>
      </trkpt>
      <trkpt lat="35.98048796877265" lon="129.53457299619913">
        <ele>27.6</ele>
        <time>2026-06-05T16:18:24</time>
      </trkpt>
      <trkpt lat="35.980454944074154" lon="129.53466494567692">
        <ele>27.2</ele>
        <time>2026-06-05T16:18:25</time>
      </trkpt>
      <trkpt lat="35.980432983487844" lon="129.53476494178176">
        <ele>26.8</ele>
        <time>2026-06-05T16:18:26</time>
      </trkpt>
      <trkpt lat="35.98042292520404" lon="129.5348699670285">
        <ele>26.4</ele>
        <time>2026-06-05T16:18:27</time>
      </trkpt>
      <trkpt lat="35.98042099736631" lon="129.53497792594135">
        <ele>26.0</ele>
        <time>2026-06-05T16:18:28</time>
      </trkpt>
      <trkpt lat="35.98042896017432" lon="129.53508596867323">
        <ele>25.8</ele>
        <time>2026-06-05T16:18:29</time>
      </trkpt>
      <trkpt lat="35.98044295795262" lon="129.5351929217577">
        <ele>25.6</ele>
        <time>2026-06-05T16:18:30</time>
      </trkpt>
      <trkpt lat="35.9804629907012" lon="129.53529199585319">
        <ele>25.4</ele>
        <time>2026-06-05T16:18:31</time>
      </trkpt>
      <trkpt lat="35.98048595711589" lon="129.53538897447288">
        <ele>25.2</ele>
        <time>2026-06-05T16:18:32</time>
      </trkpt>
      <trkpt lat="35.98050992935896" lon="129.53548092395067">
        <ele>25.0</ele>
        <time>2026-06-05T16:18:33</time>
      </trkpt>
      <trkpt lat="35.98053499124944" lon="129.53557195141912">
        <ele>24.8</ele>
        <time>2026-06-05T16:18:34</time>
      </trkpt>
      <trkpt lat="35.98055594600737" lon="129.53566197305918">
        <ele>24.8</ele>
        <time>2026-06-05T16:18:35</time>
      </trkpt>
      <trkpt lat="35.98057094961405" lon="129.5357529167086">
        <ele>24.6</ele>
        <time>2026-06-05T16:18:36</time>
      </trkpt>
      <trkpt lat="35.98057597875595" lon="129.53584394417703">
        <ele>24.6</ele>
        <time>2026-06-05T16:18:37</time>
      </trkpt>
      <trkpt lat="35.98057296127081" lon="129.5359329599887">
        <ele>24.4</ele>
        <time>2026-06-05T16:18:38</time>
      </trkpt>
      <trkpt lat="35.980565920472145" lon="129.5360219758004">
        <ele>24.4</ele>
        <time>2026-06-05T16:18:39</time>
      </trkpt>
      <trkpt lat="35.98055795766413" lon="129.5361099857837">
        <ele>24.2</ele>
        <time>2026-06-05T16:18:40</time>
      </trkpt>
      <trkpt lat="35.98055091686547" lon="129.536197995767">
        <ele>24.2</ele>
        <time>2026-06-05T16:18:41</time>
      </trkpt>
      <trkpt lat="35.980544965714216" lon="129.53628499992192">
        <ele>24.0</ele>
        <time>2026-06-05T16:18:42</time>
      </trkpt>
      <trkpt lat="35.98053993657231" lon="129.5363719202578">
        <ele>24.0</ele>
        <time>2026-06-05T16:18:43</time>
      </trkpt>
      <trkpt lat="35.98053599707782" lon="129.53645892441273">
        <ele>23.8</ele>
        <time>2026-06-05T16:18:44</time>
      </trkpt>
      <trkpt lat="35.98053297959268" lon="129.53654592856765">
        <ele>23.6</ele>
        <time>2026-06-05T16:18:45</time>
      </trkpt>
      <trkpt lat="35.98052895627916" lon="129.5366319268942">
        <ele>23.6</ele>
        <time>2026-06-05T16:18:46</time>
      </trkpt>
      <trkpt lat="35.9805269446224" lon="129.53671691939235">
        <ele>23.4</ele>
        <time>2026-06-05T16:18:47</time>
      </trkpt>
      <trkpt lat="35.980522921308875" lon="129.53680199570954">
        <ele>23.4</ele>
        <time>2026-06-05T16:18:48</time>
      </trkpt>
      <trkpt lat="35.980519987642765" lon="129.53688497655094">
        <ele>23.2</ele>
        <time>2026-06-05T16:18:49</time>
      </trkpt>
      <trkpt lat="35.98051596432924" lon="129.53696795739233">
        <ele>23.2</ele>
        <time>2026-06-05T16:18:50</time>
      </trkpt>
      <trkpt lat="35.9805129468441" lon="129.53705093823373">
        <ele>23.2</ele>
        <time>2026-06-05T16:18:51</time>
      </trkpt>
      <trkpt lat="35.98050892353058" lon="129.53713299706578">
        <ele>23.0</ele>
        <time>2026-06-05T16:18:52</time>
      </trkpt>
      <trkpt lat="35.98050598986447" lon="129.53721597790718">
        <ele>22.8</ele>
        <time>2026-06-05T16:18:53</time>
      </trkpt>
      <trkpt lat="35.98050297237933" lon="129.53729996457696">
        <ele>22.6</ele>
        <time>2026-06-05T16:18:54</time>
      </trkpt>
      <trkpt lat="35.980500960722566" lon="129.53738495707512">
        <ele>22.4</ele>
        <time>2026-06-05T16:18:55</time>
      </trkpt>
      <trkpt lat="35.980499954894185" lon="129.53747196123004">
        <ele>22.4</ele>
        <time>2026-06-05T16:18:56</time>
      </trkpt>
      <trkpt lat="35.980498949065804" lon="129.5375619828701">
        <ele>22.2</ele>
        <time>2026-06-05T16:18:57</time>
      </trkpt>
      <trkpt lat="35.980497943237424" lon="129.53765192069113">
        <ele>22.0</ele>
        <time>2026-06-05T16:18:58</time>
      </trkpt>
      <trkpt lat="35.980497943237424" lon="129.53774093650281">
        <ele>21.8</ele>
        <time>2026-06-05T16:18:59</time>
      </trkpt>
      <trkpt lat="35.980497943237424" lon="129.5378299523145">
        <ele>21.8</ele>
        <time>2026-06-05T16:19:00</time>
      </trkpt>
      <trkpt lat="35.980499954894185" lon="129.53791896812618">
        <ele>21.6</ele>
        <time>2026-06-05T16:19:01</time>
      </trkpt>
      <trkpt lat="35.980501966550946" lon="129.53800697810948">
        <ele>21.6</ele>
        <time>2026-06-05T16:19:02</time>
      </trkpt>
      <trkpt lat="35.98050699569285" lon="129.53809197060764">
        <ele>21.4</ele>
        <time>2026-06-05T16:19:03</time>
      </trkpt>
      <trkpt lat="35.98051395267248" lon="129.5381769631058">
        <ele>21.4</ele>
        <time>2026-06-05T16:19:04</time>
      </trkpt>
      <trkpt lat="35.980522921308875" lon="129.53826094977558">
        <ele>21.2</ele>
        <time>2026-06-05T16:19:05</time>
      </trkpt>
      <trkpt lat="35.9805319737643" lon="129.53834493644536">
        <ele>21.2</ele>
        <time>2026-06-05T16:19:06</time>
      </trkpt>
      <trkpt lat="35.980541948229074" lon="129.53842892311513">
        <ele>21.0</ele>
        <time>2026-06-05T16:19:07</time>
      </trkpt>
      <trkpt lat="35.98055393435061" lon="129.53851299360394">
        <ele>21.0</ele>
        <time>2026-06-05T16:19:08</time>
      </trkpt>
      <trkpt lat="35.980567932128906" lon="129.53859597444534">
        <ele>20.8</ele>
        <time>2026-06-05T16:19:09</time>
      </trkpt>
      <trkpt lat="35.980583941563964" lon="129.53867895528674">
        <ele>20.6</ele>
        <time>2026-06-05T16:19:10</time>
      </trkpt>
      <trkpt lat="35.9806009568274" lon="129.53876193612814">
        <ele>20.6</ele>
        <time>2026-06-05T16:19:11</time>
      </trkpt>
      <trkpt lat="35.98061797209084" lon="129.5388469286263">
        <ele>20.4</ele>
        <time>2026-06-05T16:19:12</time>
      </trkpt>
      <trkpt lat="35.98063993267715" lon="129.5389309991151">
        <ele>20.4</ele>
        <time>2026-06-05T16:19:13</time>
      </trkpt>
      <trkpt lat="35.98066398873925" lon="129.53901599161327">
        <ele>20.4</ele>
        <time>2026-06-05T16:19:14</time>
      </trkpt>
      <trkpt lat="35.980690978467464" lon="129.53910098411143">
        <ele>20.4</ele>
        <time>2026-06-05T16:19:15</time>
      </trkpt>
      <trkpt lat="35.98071897402406" lon="129.53918698243797">
        <ele>20.2</ele>
        <time>2026-06-05T16:19:16</time>
      </trkpt>
      <trkpt lat="35.98074998706579" lon="129.53927096910775">
        <ele>20.2</ele>
        <time>2026-06-05T16:19:17</time>
      </trkpt>
      <trkpt lat="35.980781922116876" lon="129.53935394994915">
        <ele>20.2</ele>
        <time>2026-06-05T16:19:18</time>
      </trkpt>
      <trkpt lat="35.98081494681537" lon="129.53943592496216">
        <ele>20.0</ele>
        <time>2026-06-05T16:19:19</time>
      </trkpt>
      <trkpt lat="35.98084696568549" lon="129.53951697796583">
        <ele>20.0</ele>
        <time>2026-06-05T16:19:20</time>
      </trkpt>
      <trkpt lat="35.98087999038398" lon="129.5395969413221">
        <ele>19.8</ele>
        <time>2026-06-05T16:19:21</time>
      </trkpt>
      <trkpt lat="35.98091293126345" lon="129.53967698849738">
        <ele>19.6</ele>
        <time>2026-06-05T16:19:22</time>
      </trkpt>
      <trkpt lat="35.98094495013356" lon="129.53975594602525">
        <ele>19.6</ele>
        <time>2026-06-05T16:19:23</time>
      </trkpt>
      <trkpt lat="35.98097696900368" lon="129.53983599320054">
        <ele>19.4</ele>
        <time>2026-06-05T16:19:24</time>
      </trkpt>
      <trkpt lat="35.98100798204541" lon="129.5399159565568">
        <ele>19.2</ele>
        <time>2026-06-05T16:19:25</time>
      </trkpt>
      <trkpt lat="35.981039917096496" lon="129.5399949979037">
        <ele>19.0</ele>
        <time>2026-06-05T16:19:26</time>
      </trkpt>
      <trkpt lat="35.98107193596661" lon="129.5400729496032">
        <ele>18.8</ele>
        <time>2026-06-05T16:19:27</time>
      </trkpt>
      <trkpt lat="35.98110496066511" lon="129.5401529967785">
        <ele>18.8</ele>
        <time>2026-06-05T16:19:28</time>
      </trkpt>
      <trkpt lat="35.9811379853636" lon="129.5402349717915">
        <ele>18.6</ele>
        <time>2026-06-05T16:19:29</time>
      </trkpt>
      <trkpt lat="35.981169920414686" lon="129.54031996428967">
        <ele>18.4</ele>
        <time>2026-06-05T16:19:30</time>
      </trkpt>
      <trkpt lat="35.9812019392848" lon="129.5404069684446">
        <ele>18.4</ele>
        <time>2026-06-05T16:19:31</time>
      </trkpt>
      <trkpt lat="35.98123596981168" lon="129.54049296677113">
        <ele>18.2</ele>
        <time>2026-06-05T16:19:32</time>
      </trkpt>
      <trkpt lat="35.981271928176284" lon="129.54057896509767">
        <ele>18.0</ele>
        <time>2026-06-05T16:19:33</time>
      </trkpt>
      <trkpt lat="35.98130797035992" lon="129.54066395759583">
        <ele>18.0</ele>
        <time>2026-06-05T16:19:34</time>
      </trkpt>
      <trkpt lat="35.98134099505842" lon="129.54074895009398">
        <ele>17.8</ele>
        <time>2026-06-05T16:19:35</time>
      </trkpt>
      <trkpt lat="35.98137393593788" lon="129.54083394259214">
        <ele>17.6</ele>
        <time>2026-06-05T16:19:36</time>
      </trkpt>
      <trkpt lat="35.981404948979616" lon="129.54091792926192">
        <ele>17.6</ele>
        <time>2026-06-05T16:19:37</time>
      </trkpt>
      <trkpt lat="35.98143495619297" lon="129.54100199975073">
        <ele>17.4</ele>
        <time>2026-06-05T16:19:38</time>
      </trkpt>
      <trkpt lat="35.98146295174956" lon="129.5410869922489">
        <ele>17.2</ele>
        <time>2026-06-05T16:19:39</time>
      </trkpt>
      <trkpt lat="35.981490947306156" lon="129.5411739964038">
        <ele>17.2</ele>
        <time>2026-06-05T16:19:40</time>
      </trkpt>
      <trkpt lat="35.98151994869113" lon="129.54126192256808">
        <ele>17.0</ele>
        <time>2026-06-05T16:19:41</time>
      </trkpt>
      <trkpt lat="35.9815489500761" lon="129.54135194420815">
        <ele>17.0</ele>
        <time>2026-06-05T16:19:42</time>
      </trkpt>
      <trkpt lat="35.98157996311784" lon="129.5414429716766">
        <ele>17.0</ele>
        <time>2026-06-05T16:19:43</time>
      </trkpt>
      <trkpt lat="35.98161097615957" lon="129.54153693281114">
        <ele>16.8</ele>
        <time>2026-06-05T16:19:44</time>
      </trkpt>
      <trkpt lat="35.98164098337293" lon="129.5416329894215">
        <ele>16.8</ele>
        <time>2026-06-05T16:19:45</time>
      </trkpt>
      <trkpt lat="35.98166897892952" lon="129.54173298552632">
        <ele>16.8</ele>
        <time>2026-06-05T16:19:46</time>
      </trkpt>
      <trkpt lat="35.98169295117259" lon="129.54183398745954">
        <ele>16.8</ele>
        <time>2026-06-05T16:19:47</time>
      </trkpt>
      <trkpt lat="35.98171499557793" lon="129.54193599522114">
        <ele>16.8</ele>
        <time>2026-06-05T16:19:48</time>
      </trkpt>
      <trkpt lat="35.9817339386791" lon="129.54203993082047">
        <ele>16.8</ele>
        <time>2026-06-05T16:19:49</time>
      </trkpt>
      <trkpt lat="35.981747936457396" lon="129.54214193858206">
        <ele>16.8</ele>
        <time>2026-06-05T16:19:50</time>
      </trkpt>
      <trkpt lat="35.98175891675055" lon="129.5422419346869">
        <ele>16.6</ele>
        <time>2026-06-05T16:19:51</time>
      </trkpt>
      <trkpt lat="35.981764951720834" lon="129.54233991913497">
        <ele>16.6</ele>
        <time>2026-06-05T16:19:52</time>
      </trkpt>
      <trkpt lat="35.981765957549214" lon="129.54243798740208">
        <ele>16.6</ele>
        <time>2026-06-05T16:19:53</time>
      </trkpt>
      <trkpt lat="35.98176294006407" lon="129.5425339601934">
        <ele>16.4</ele>
        <time>2026-06-05T16:19:54</time>
      </trkpt>
      <trkpt lat="35.98175891675055" lon="129.54262892715633">
        <ele>16.4</ele>
        <time>2026-06-05T16:19:55</time>
      </trkpt>
      <trkpt lat="35.9817529655993" lon="129.5427239779383">
        <ele>16.4</ele>
        <time>2026-06-05T16:19:56</time>
      </trkpt>
      <trkpt lat="35.981745924800634" lon="129.54281894490123">
        <ele>16.4</ele>
        <time>2026-06-05T16:19:57</time>
      </trkpt>
      <trkpt lat="35.981738967821" lon="129.5429139956832">
        <ele>16.4</ele>
        <time>2026-06-05T16:19:58</time>
      </trkpt>
      <trkpt lat="35.98173092119396" lon="129.54300795681775">
        <ele>16.4</ele>
        <time>2026-06-05T16:19:59</time>
      </trkpt>
      <trkpt lat="35.981722958385944" lon="129.54310099594295">
        <ele>16.4</ele>
        <time>2026-06-05T16:20:00</time>
      </trkpt>
      <trkpt lat="35.98171692341566" lon="129.5431949570775">
        <ele>16.6</ele>
        <time>2026-06-05T16:20:01</time>
      </trkpt>
      <trkpt lat="35.98171097226441" lon="129.5432879962027">
        <ele>16.6</ele>
        <time>2026-06-05T16:20:02</time>
      </trkpt>
      <trkpt lat="35.98170795477927" lon="129.54338095150888">
        <ele>16.6</ele>
        <time>2026-06-05T16:20:03</time>
      </trkpt>
      <trkpt lat="35.981704937294126" lon="129.5434729848057">
        <ele>16.6</ele>
        <time>2026-06-05T16:20:04</time>
      </trkpt>
      <trkpt lat="35.981704937294126" lon="129.5435649342835">
        <ele>16.6</ele>
        <time>2026-06-05T16:20:05</time>
      </trkpt>
      <trkpt lat="35.98170694895089" lon="129.54365696758032">
        <ele>16.8</ele>
        <time>2026-06-05T16:20:06</time>
      </trkpt>
      <trkpt lat="35.98171197809279" lon="129.5437499228865">
        <ele>16.8</ele>
        <time>2026-06-05T16:20:07</time>
      </trkpt>
      <trkpt lat="35.98171893507242" lon="129.54384497366846">
        <ele>16.8</ele>
        <time>2026-06-05T16:20:08</time>
      </trkpt>
      <trkpt lat="35.98172899335623" lon="129.54394094645977">
        <ele>16.8</ele>
        <time>2026-06-05T16:20:09</time>
      </trkpt>
      <trkpt lat="35.981744918972254" lon="129.54403893090785">
        <ele>16.8</ele>
        <time>2026-06-05T16:20:10</time>
      </trkpt>
      <trkpt lat="35.981764951720834" lon="129.54413599334657">
        <ele>17.0</ele>
        <time>2026-06-05T16:20:11</time>
      </trkpt>
      <trkpt lat="35.981788923963904" lon="129.5442309603095">
        <ele>17.0</ele>
        <time>2026-06-05T16:20:12</time>
      </trkpt>
      <trkpt lat="35.98181398585439" lon="129.54432492144406">
        <ele>17.2</ele>
        <time>2026-06-05T16:20:13</time>
      </trkpt>
      <trkpt lat="35.98184198141098" lon="129.5444159489125">
        <ele>17.2</ele>
        <time>2026-06-05T16:20:14</time>
      </trkpt>
      <trkpt lat="35.981870982795954" lon="129.54450295306742">
        <ele>17.4</ele>
        <time>2026-06-05T16:20:15</time>
      </trkpt>
      <trkpt lat="35.98190199583769" lon="129.54458492808044">
        <ele>17.6</ele>
        <time>2026-06-05T16:20:16</time>
      </trkpt>
      <trkpt lat="35.98193393088877" lon="129.5446619577706">
        <ele>17.6</ele>
        <time>2026-06-05T16:20:17</time>
      </trkpt>
      <trkpt lat="35.98196695558727" lon="129.54473395831883">
        <ele>17.8</ele>
        <time>2026-06-05T16:20:18</time>
      </trkpt>
      <trkpt lat="35.982000986114144" lon="129.5447999238968">
        <ele>18.0</ele>
        <time>2026-06-05T16:20:19</time>
      </trkpt>
      <trkpt lat="35.98203694447875" lon="129.54486094415188">
        <ele>18.2</ele>
        <time>2026-06-05T16:20:20</time>
      </trkpt>
      <trkpt lat="35.98207399249077" lon="129.54491794109344">
        <ele>18.4</ele>
        <time>2026-06-05T16:20:21</time>
      </trkpt>
      <trkpt lat="35.9821139741689" lon="129.54497292637825">
        <ele>18.4</ele>
        <time>2026-06-05T16:20:22</time>
      </trkpt>
      <trkpt lat="35.982153955847025" lon="129.5450269896537">
        <ele>18.6</ele>
        <time>2026-06-05T16:20:23</time>
      </trkpt>
      <trkpt lat="35.98219393752515" lon="129.54508096911013">
        <ele>18.6</ele>
        <time>2026-06-05T16:20:24</time>
      </trkpt>
      <trkpt lat="35.98223199136555" lon="129.54513595439494">
        <ele>18.8</ele>
        <time>2026-06-05T16:20:25</time>
      </trkpt>
      <trkpt lat="35.98226895555854" lon="129.54519093967974">
        <ele>19.0</ele>
        <time>2026-06-05T16:20:26</time>
      </trkpt>
      <trkpt lat="35.982303991913795" lon="129.54524299129844">
        <ele>19.0</ele>
        <time>2026-06-05T16:20:27</time>
      </trkpt>
      <trkpt lat="35.98233693279326" lon="129.54529294744134">
        <ele>19.2</ele>
        <time>2026-06-05T16:20:28</time>
      </trkpt>
      <trkpt lat="35.982367945834994" lon="129.5453409757465">
        <ele>19.4</ele>
        <time>2026-06-05T16:20:29</time>
      </trkpt>
      <trkpt lat="35.98239594139159" lon="129.54538892023265">
        <ele>19.6</ele>
        <time>2026-06-05T16:20:30</time>
      </trkpt>
      <trkpt lat="35.98242091946304" lon="129.54543694853783">
        <ele>19.8</ele>
        <time>2026-06-05T16:20:31</time>
      </trkpt>
      <trkpt lat="35.98244799301028" lon="129.54548296518624">
        <ele>19.8</ele>
        <time>2026-06-05T16:20:32</time>
      </trkpt>
      <trkpt lat="35.982476994395256" lon="129.5455269701779">
        <ele>20.0</ele>
        <time>2026-06-05T16:20:33</time>
      </trkpt>
      <trkpt lat="35.98250792361796" lon="129.54556896351278">
        <ele>20.2</ele>
        <time>2026-06-05T16:20:34</time>
      </trkpt>
      <trkpt lat="35.982539942488074" lon="129.5456089451909">
        <ele>20.2</ele>
        <time>2026-06-05T16:20:35</time>
      </trkpt>
      <trkpt lat="35.98257397301495" lon="129.54564792104065">
        <ele>20.4</ele>
        <time>2026-06-05T16:20:36</time>
      </trkpt>
      <trkpt lat="35.982607919722795" lon="129.5456879865378">
        <ele>20.4</ele>
        <time>2026-06-05T16:20:37</time>
      </trkpt>
      <trkpt lat="35.98264295607805" lon="129.54572897404432">
        <ele>20.6</ele>
        <time>2026-06-05T16:20:38</time>
      </trkpt>
      <trkpt lat="35.98267799243331" lon="129.5457719732076">
        <ele>20.6</ele>
        <time>2026-06-05T16:20:39</time>
      </trkpt>
      <trkpt lat="35.982712944969535" lon="129.54581597819924">
        <ele>20.6</ele>
        <time>2026-06-05T16:20:40</time>
      </trkpt>
      <trkpt lat="35.98274898715317" lon="129.54585797153413">
        <ele>20.6</ele>
        <time>2026-06-05T16:20:41</time>
      </trkpt>
      <trkpt lat="35.98278695717454" lon="129.54589895904064">
        <ele>20.6</ele>
        <time>2026-06-05T16:20:42</time>
      </trkpt>
      <trkpt lat="35.98282492719591" lon="129.54593994654715">
        <ele>20.6</ele>
        <time>2026-06-05T16:20:43</time>
      </trkpt>
      <trkpt lat="35.982863986864686" lon="129.54597992822528">
        <ele>20.6</ele>
        <time>2026-06-05T16:20:44</time>
      </trkpt>
      <trkpt lat="35.982902962714434" lon="129.5460169762373">
        <ele>20.6</ele>
        <time>2026-06-05T16:20:45</time>
      </trkpt>
      <trkpt lat="35.98294294439256" lon="129.54605394043028">
        <ele>20.6</ele>
        <time>2026-06-05T16:20:46</time>
      </trkpt>
      <trkpt lat="35.98298493772745" lon="129.54608897678554">
        <ele>20.6</ele>
        <time>2026-06-05T16:20:47</time>
      </trkpt>
      <trkpt lat="35.98302793689072" lon="129.54612392932177">
        <ele>20.6</ele>
        <time>2026-06-05T16:20:48</time>
      </trkpt>
      <trkpt lat="35.98307093605399" lon="129.54615896567702">
        <ele>20.4</ele>
        <time>2026-06-05T16:20:49</time>
      </trkpt>
      <trkpt lat="35.98311594687402" lon="129.54619391821325">
        <ele>20.4</ele>
        <time>2026-06-05T16:20:50</time>
      </trkpt>
      <trkpt lat="35.983161963522434" lon="129.54622794874012">
        <ele>20.2</ele>
        <time>2026-06-05T16:20:51</time>
      </trkpt>
      <trkpt lat="35.98320898599923" lon="129.54626298509538">
        <ele>20.0</ele>
        <time>2026-06-05T16:20:52</time>
      </trkpt>
      <trkpt lat="35.98325793631375" lon="129.54629894346">
        <ele>20.0</ele>
        <time>2026-06-05T16:20:53</time>
      </trkpt>
      <trkpt lat="35.98330898210406" lon="129.546335991472">
        <ele>19.8</ele>
        <time>2026-06-05T16:20:54</time>
      </trkpt>
      <trkpt lat="35.98336195573211" lon="129.54637396149337">
        <ele>19.6</ele>
        <time>2026-06-05T16:20:55</time>
      </trkpt>
      <trkpt lat="35.98341694101691" lon="129.5464139431715">
        <ele>19.4</ele>
        <time>2026-06-05T16:20:56</time>
      </trkpt>
      <trkpt lat="35.98347393795848" lon="129.5464559365064">
        <ele>19.0</ele>
        <time>2026-06-05T16:20:57</time>
      </trkpt>
      <trkpt lat="35.98353395238519" lon="129.54649792984128">
        <ele>18.8</ele>
        <time>2026-06-05T16:20:58</time>
      </trkpt>
      <trkpt lat="35.98359698429704" lon="129.54653992317617">
        <ele>18.6</ele>
        <time>2026-06-05T16:20:59</time>
      </trkpt>
      <trkpt lat="35.98366395570338" lon="129.5465809945017">
        <ele>18.2</ele>
        <time>2026-06-05T16:21:00</time>
      </trkpt>
      <trkpt lat="35.98373394459486" lon="129.54662198200822">
        <ele>17.8</ele>
        <time>2026-06-05T16:21:01</time>
      </trkpt>
      <trkpt lat="35.983805945143104" lon="129.54666296951473">
        <ele>17.4</ele>
        <time>2026-06-05T16:21:02</time>
      </trkpt>
      <trkpt lat="35.98388196900487" lon="129.54670395702124">
        <ele>17.0</ele>
        <time>2026-06-05T16:21:03</time>
      </trkpt>
      <trkpt lat="35.983960926532745" lon="129.54674494452775">
        <ele>16.6</ele>
        <time>2026-06-05T16:21:04</time>
      </trkpt>
      <trkpt lat="35.984043991193175" lon="129.54678593203425">
        <ele>16.2</ele>
        <time>2026-06-05T16:21:05</time>
      </trkpt>
      <trkpt lat="35.984129989519715" lon="129.54682691954076">
        <ele>15.6</ele>
        <time>2026-06-05T16:21:06</time>
      </trkpt>
      <trkpt lat="35.984218921512365" lon="129.5468679908663">
        <ele>15.2</ele>
        <time>2026-06-05T16:21:07</time>
      </trkpt>
      <trkpt lat="35.98431095480919" lon="129.5469099842012">
        <ele>14.6</ele>
        <time>2026-06-05T16:21:08</time>
      </trkpt>
      <trkpt lat="35.98440198227763" lon="129.54695197753608">
        <ele>14.2</ele>
        <time>2026-06-05T16:21:09</time>
      </trkpt>
      <trkpt lat="35.98449292592704" lon="129.54699497669935">
        <ele>13.6</ele>
        <time>2026-06-05T16:21:10</time>
      </trkpt>
      <trkpt lat="35.984582947567105" lon="129.54704099334776">
        <ele>13.0</ele>
        <time>2026-06-05T16:21:11</time>
      </trkpt>
      <trkpt lat="35.984669951722026" lon="129.54709094949067">
        <ele>12.6</ele>
        <time>2026-06-05T16:21:12</time>
      </trkpt>
      <trkpt lat="35.98475695587695" lon="129.5471439231187">
        <ele>12.2</ele>
        <time>2026-06-05T16:21:13</time>
      </trkpt>
      <trkpt lat="35.984842954203486" lon="129.54720092006028">
        <ele>11.6</ele>
        <time>2026-06-05T16:21:14</time>
      </trkpt>
      <trkpt lat="35.984927946701646" lon="129.54725892283022">
        <ele>11.2</ele>
        <time>2026-06-05T16:21:15</time>
      </trkpt>
      <trkpt lat="35.985012939199805" lon="129.54731692560017">
        <ele>10.8</ele>
        <time>2026-06-05T16:21:16</time>
      </trkpt>
      <trkpt lat="35.985097931697965" lon="129.54737794585526">
        <ele>10.2</ele>
        <time>2026-06-05T16:21:17</time>
      </trkpt>
      <trkpt lat="35.985179990530014" lon="129.54744399525225">
        <ele>9.8</ele>
        <time>2026-06-05T16:21:18</time>
      </trkpt>
      <trkpt lat="35.98525995388627" lon="129.54751398414373">
        <ele>9.4</ele>
        <time>2026-06-05T16:21:19</time>
      </trkpt>
      <trkpt lat="35.98533698357642" lon="129.54758799634874">
        <ele>9.0</ele>
        <time>2026-06-05T16:21:20</time>
      </trkpt>
      <trkpt lat="35.98540898412466" lon="129.54766695387661">
        <ele>8.8</ele>
        <time>2026-06-05T16:21:21</time>
      </trkpt>
      <trkpt lat="35.98547696135938" lon="129.54774892888963">
        <ele>8.4</ele>
        <time>2026-06-05T16:21:22</time>
      </trkpt>
      <trkpt lat="35.98554099909961" lon="129.54783492721617">
        <ele>8.2</ele>
        <time>2026-06-05T16:21:23</time>
      </trkpt>
      <trkpt lat="35.98559992387891" lon="129.5479219313711">
        <ele>8.0</ele>
        <time>2026-06-05T16:21:24</time>
      </trkpt>
      <trkpt lat="35.985653987154365" lon="129.54801094718277">
        <ele>7.8</ele>
        <time>2026-06-05T16:21:25</time>
      </trkpt>
      <trkpt lat="35.985701931640506" lon="129.54810197465122">
        <ele>7.6</ele>
        <time>2026-06-05T16:21:26</time>
      </trkpt>
      <trkpt lat="35.985745936632156" lon="129.5481949299574">
        <ele>7.4</ele>
        <time>2026-06-05T16:21:27</time>
      </trkpt>
      <trkpt lat="35.985784996300936" lon="129.54828998073936">
        <ele>7.2</ele>
        <time>2026-06-05T16:21:28</time>
      </trkpt>
      <trkpt lat="35.98582196049392" lon="129.5483849477023">
        <ele>7.2</ele>
        <time>2026-06-05T16:21:29</time>
      </trkpt>
      <trkpt lat="35.98585397936404" lon="129.54847999848425">
        <ele>7.0</ele>
        <time>2026-06-05T16:21:30</time>
      </trkpt>
      <trkpt lat="35.98588096909225" lon="129.54857597127557">
        <ele>7.0</ele>
        <time>2026-06-05T16:21:31</time>
      </trkpt>
      <trkpt lat="35.98590192385018" lon="129.54867395572364">
        <ele>7.0</ele>
        <time>2026-06-05T16:21:32</time>
      </trkpt>
      <trkpt lat="35.985917933285236" lon="129.54877194017172">
        <ele>7.0</ele>
        <time>2026-06-05T16:21:33</time>
      </trkpt>
      <trkpt lat="35.985935954377055" lon="129.54886799678206">
        <ele>7.0</ele>
        <time>2026-06-05T16:21:34</time>
      </trkpt>
      <trkpt lat="35.985956992954016" lon="129.54895994625986">
        <ele>6.8</ele>
        <time>2026-06-05T16:21:35</time>
      </trkpt>
      <trkpt lat="35.98598398268223" lon="129.54904795624316">
        <ele>6.8</ele>
        <time>2026-06-05T16:21:36</time>
      </trkpt>
      <trkpt lat="35.986019941046834" lon="129.54913194291294">
        <ele>6.8</ele>
        <time>2026-06-05T16:21:37</time>
      </trkpt>
      <trkpt lat="35.98606193438172" lon="129.54920997843146">
        <ele>6.8</ele>
        <time>2026-06-05T16:21:38</time>
      </trkpt>
      <trkpt lat="35.986109962686896" lon="129.54928399063647">
        <ele>6.6</ele>
        <time>2026-06-05T16:21:39</time>
      </trkpt>
      <trkpt lat="35.98616394214332" lon="129.5493559911847">
        <ele>6.6</ele>
        <time>2026-06-05T16:21:40</time>
      </trkpt>
      <trkpt lat="35.98621993325651" lon="129.5494249742478">
        <ele>6.4</ele>
        <time>2026-06-05T16:21:41</time>
      </trkpt>
      <trkpt lat="35.986278941854835" lon="129.54949295148253">
        <ele>6.2</ele>
        <time>2026-06-05T16:21:42</time>
      </trkpt>
      <trkpt lat="35.98633895628154" lon="129.54956092871726">
        <ele>6.2</ele>
        <time>2026-06-05T16:21:43</time>
      </trkpt>
      <trkpt lat="35.98639695905149" lon="129.54963091760874">
        <ele>6.0</ele>
        <time>2026-06-05T16:21:44</time>
      </trkpt>
      <trkpt lat="35.986453955993056" lon="129.54970392398536">
        <ele>6.0</ele>
        <time>2026-06-05T16:21:45</time>
      </trkpt>
      <trkpt lat="35.98650894127786" lon="129.549776930362">
        <ele>6.2</ele>
        <time>2026-06-05T16:21:46</time>
      </trkpt>
      <trkpt lat="35.98656099289656" lon="129.54985194839537">
        <ele>6.0</ele>
        <time>2026-06-05T16:21:47</time>
      </trkpt>
      <trkpt lat="35.98661195486784" lon="129.54992797225714">
        <ele>6.0</ele>
        <time>2026-06-05T16:21:48</time>
      </trkpt>
      <trkpt lat="35.9866639226675" lon="129.55000299029052">
        <ele>6.0</ele>
        <time>2026-06-05T16:21:49</time>
      </trkpt>
      <trkpt lat="35.98671698011458" lon="129.55007893033326">
        <ele>6.0</ele>
        <time>2026-06-05T16:21:50</time>
      </trkpt>
      <trkpt lat="35.98676995374262" lon="129.5501559600234">
        <ele>6.0</ele>
        <time>2026-06-05T16:21:51</time>
      </trkpt>
      <trkpt lat="35.98682292737067" lon="129.55023298971355">
        <ele>6.0</ele>
        <time>2026-06-05T16:21:52</time>
      </trkpt>
      <trkpt lat="35.98687598481774" lon="129.55031094141304">
        <ele>6.0</ele>
        <time>2026-06-05T16:21:53</time>
      </trkpt>
      <trkpt lat="35.98692996427417" lon="129.55038897693157">
        <ele>6.0</ele>
        <time>2026-06-05T16:21:54</time>
      </trkpt>
      <trkpt lat="35.98698494955897" lon="129.55046692863107">
        <ele>6.0</ele>
        <time>2026-06-05T16:21:55</time>
      </trkpt>
      <trkpt lat="35.98703993484378" lon="129.5505439583212">
        <ele>6.0</ele>
        <time>2026-06-05T16:21:56</time>
      </trkpt>
      <trkpt lat="35.987092992290854" lon="129.55062098801136">
        <ele>6.0</ele>
        <time>2026-06-05T16:21:57</time>
      </trkpt>
      <trkpt lat="35.98714496009052" lon="129.55069793388247">
        <ele>6.0</ele>
        <time>2026-06-05T16:21:58</time>
      </trkpt>
      <trkpt lat="35.98719692789018" lon="129.55077295191586">
        <ele>6.0</ele>
        <time>2026-06-05T16:21:59</time>
      </trkpt>
      <trkpt lat="35.987247973680496" lon="129.55084595829248">
        <ele>6.0</ele>
        <time>2026-06-05T16:22:00</time>
      </trkpt>
      <trkpt lat="35.98729994148016" lon="129.55091795884073">
        <ele>6.0</ele>
        <time>2026-06-05T16:22:01</time>
      </trkpt>
      <trkpt lat="35.987350987270474" lon="129.55098995938897">
        <ele>5.8</ele>
        <time>2026-06-05T16:22:02</time>
      </trkpt>
      <trkpt lat="35.98740295507014" lon="129.55106095410883">
        <ele>5.8</ele>
        <time>2026-06-05T16:22:03</time>
      </trkpt>
      <trkpt lat="35.98745391704142" lon="129.5511319488287">
        <ele>5.8</ele>
        <time>2026-06-05T16:22:04</time>
      </trkpt>
      <trkpt lat="35.987503957003355" lon="129.55120394937694">
        <ele>5.8</ele>
        <time>2026-06-05T16:22:05</time>
      </trkpt>
      <trkpt lat="35.98755399696529" lon="129.55127695575356">
        <ele>5.8</ele>
        <time>2026-06-05T16:22:06</time>
      </trkpt>
      <trkpt lat="35.98760395310819" lon="129.55135197378695">
        <ele>5.6</ele>
        <time>2026-06-05T16:22:07</time>
      </trkpt>
      <trkpt lat="35.987651981413364" lon="129.55142891965806">
        <ele>5.6</ele>
        <time>2026-06-05T16:22:08</time>
      </trkpt>
      <trkpt lat="35.98770193755627" lon="129.5515059493482">
        <ele>5.6</ele>
        <time>2026-06-05T16:22:09</time>
      </trkpt>
      <trkpt lat="35.98775398917496" lon="129.55157996155322">
        <ele>5.6</ele>
        <time>2026-06-05T16:22:10</time>
      </trkpt>
      <trkpt lat="35.987804951146245" lon="129.55165196210146">
        <ele>5.6</ele>
        <time>2026-06-05T16:22:11</time>
      </trkpt>
      <trkpt lat="35.9878539852798" lon="129.5517239626497">
        <ele>5.6</ele>
        <time>2026-06-05T16:22:12</time>
      </trkpt>
      <trkpt lat="35.98790092393756" lon="129.55179395154119">
        <ele>5.8</ele>
        <time>2026-06-05T16:22:13</time>
      </trkpt>
      <trkpt lat="35.98794794641435" lon="129.55186092294753">
        <ele>5.8</ele>
        <time>2026-06-05T16:22:14</time>
      </trkpt>
      <trkpt lat="35.98799396306276" lon="129.55192496068776">
        <ele>5.8</ele>
        <time>2026-06-05T16:22:15</time>
      </trkpt>
      <trkpt lat="35.988038973882794" lon="129.55198698677123">
        <ele>5.8</ele>
        <time>2026-06-05T16:22:16</time>
      </trkpt>
      <trkpt lat="35.988081973046064" lon="129.55204892903566">
        <ele>5.8</ele>
        <time>2026-06-05T16:22:17</time>
      </trkpt>
      <trkpt lat="35.988123966380954" lon="129.55210994929075">
        <ele>5.8</ele>
        <time>2026-06-05T16:22:18</time>
      </trkpt>
      <trkpt lat="35.98816495388746" lon="129.55216895788908">
        <ele>5.8</ele>
        <time>2026-06-05T16:22:19</time>
      </trkpt>
      <trkpt lat="35.98820292390883" lon="129.5522279664874">
        <ele>5.8</ele>
        <time>2026-06-05T16:22:20</time>
      </trkpt>
      <trkpt lat="35.98823896609247" lon="129.55228999257088">
        <ele>5.8</ele>
        <time>2026-06-05T16:22:21</time>
      </trkpt>
      <trkpt lat="35.988272996619344" lon="129.55235495232046">
        <ele>5.8</ele>
        <time>2026-06-05T16:22:22</time>
      </trkpt>
      <trkpt lat="35.98830895498395" lon="129.55242393538356">
        <ele>5.8</ele>
        <time>2026-06-05T16:22:23</time>
      </trkpt>
      <trkpt lat="35.98834499716759" lon="129.55249694176018">
        <ele>5.8</ele>
        <time>2026-06-05T16:22:24</time>
      </trkpt>
      <trkpt lat="35.988382967188954" lon="129.55257195979357">
        <ele>5.8</ele>
        <time>2026-06-05T16:22:25</time>
      </trkpt>
      <trkpt lat="35.9884219430387" lon="129.55265091732144">
        <ele>5.8</ele>
        <time>2026-06-05T16:22:26</time>
      </trkpt>
      <trkpt lat="35.98846192471683" lon="129.55273096449673">
        <ele>5.8</ele>
        <time>2026-06-05T16:22:27</time>
      </trkpt>
      <trkpt lat="35.98850098438561" lon="129.552810927853">
        <ele>5.8</ele>
        <time>2026-06-05T16:22:28</time>
      </trkpt>
      <trkpt lat="35.98854096606374" lon="129.5528899691999">
        <ele>5.8</ele>
        <time>2026-06-05T16:22:29</time>
      </trkpt>
      <trkpt lat="35.98858195357025" lon="129.55296993255615">
        <ele>5.8</ele>
        <time>2026-06-05T16:22:30</time>
      </trkpt>
      <trkpt lat="35.988623946905136" lon="129.55304796807468">
        <ele>5.8</ele>
        <time>2026-06-05T16:22:31</time>
      </trkpt>
      <trkpt lat="35.98866795189679" lon="129.55312399193645">
        <ele>5.8</ele>
        <time>2026-06-05T16:22:32</time>
      </trkpt>
      <trkpt lat="35.98871095106006" lon="129.55319699831307">
        <ele>5.8</ele>
        <time>2026-06-05T16:22:33</time>
      </trkpt>
      <trkpt lat="35.988751938566566" lon="129.55326698720455">
        <ele>5.8</ele>
        <time>2026-06-05T16:22:34</time>
      </trkpt>
      <trkpt lat="35.988790998235345" lon="129.55333597026765">
        <ele>5.6</ele>
        <time>2026-06-05T16:22:35</time>
      </trkpt>
      <trkpt lat="35.98882695659995" lon="129.55340495333076">
        <ele>5.6</ele>
        <time>2026-06-05T16:22:36</time>
      </trkpt>
      <trkpt lat="35.98886098712683" lon="129.5534719247371">
        <ele>5.6</ele>
        <time>2026-06-05T16:22:37</time>
      </trkpt>
      <trkpt lat="35.98889392800629" lon="129.55353897996247">
        <ele>5.6</ele>
        <time>2026-06-05T16:22:38</time>
      </trkpt>
      <trkpt lat="35.98892896436155" lon="129.55360494554043">
        <ele>5.6</ele>
        <time>2026-06-05T16:22:39</time>
      </trkpt>
      <trkpt lat="35.988963916897774" lon="129.55366998910904">
        <ele>5.6</ele>
        <time>2026-06-05T16:22:40</time>
      </trkpt>
      <trkpt lat="35.98899995908141" lon="129.55373494885862">
        <ele>5.6</ele>
        <time>2026-06-05T16:22:41</time>
      </trkpt>
      <trkpt lat="35.98903591744602" lon="129.55379999242723">
        <ele>5.6</ele>
        <time>2026-06-05T16:22:42</time>
      </trkpt>
      <trkpt lat="35.989072965458035" lon="129.5538659580052">
        <ele>5.4</ele>
        <time>2026-06-05T16:22:43</time>
      </trkpt>
      <trkpt lat="35.98910699598491" lon="129.55393292941153">
        <ele>5.4</ele>
        <time>2026-06-05T16:22:44</time>
      </trkpt>
      <trkpt lat="35.98914094269276" lon="129.55400099046528">
        <ele>5.4</ele>
        <time>2026-06-05T16:22:45</time>
      </trkpt>
      <trkpt lat="35.98917497321963" lon="129.55406796187162">
        <ele>5.4</ele>
        <time>2026-06-05T16:22:46</time>
      </trkpt>
      <trkpt lat="35.98920992575586" lon="129.55413593910635">
        <ele>5.6</ele>
        <time>2026-06-05T16:22:47</time>
      </trkpt>
      <trkpt lat="35.989244962111115" lon="129.55420299433172">
        <ele>5.6</ele>
        <time>2026-06-05T16:22:48</time>
      </trkpt>
      <trkpt lat="35.98928092047572" lon="129.5542679540813">
        <ele>5.6</ele>
        <time>2026-06-05T16:22:49</time>
      </trkpt>
      <trkpt lat="35.98931394517422" lon="129.5543329976499">
        <ele>5.6</ele>
        <time>2026-06-05T16:22:50</time>
      </trkpt>
      <trkpt lat="35.98934696987271" lon="129.55439493991435">
        <ele>5.4</ele>
        <time>2026-06-05T16:22:51</time>
      </trkpt>
      <trkpt lat="35.98937999457121" lon="129.55445596016943">
        <ele>5.4</ele>
        <time>2026-06-05T16:22:52</time>
      </trkpt>
      <trkpt lat="35.98941293545067" lon="129.55451496876776">
        <ele>5.4</ele>
        <time>2026-06-05T16:22:53</time>
      </trkpt>
      <trkpt lat="35.98944495432079" lon="129.5545729715377">
        <ele>5.2</ele>
        <time>2026-06-05T16:22:54</time>
      </trkpt>
      <trkpt lat="35.989476973190904" lon="129.55462996847928">
        <ele>5.2</ele>
        <time>2026-06-05T16:22:55</time>
      </trkpt>
      <trkpt lat="35.98950798623264" lon="129.5546839479357">
        <ele>5.2</ele>
        <time>2026-06-05T16:22:56</time>
      </trkpt>
      <trkpt lat="35.98953899927437" lon="129.55473792739213">
        <ele>5.2</ele>
        <time>2026-06-05T16:22:57</time>
      </trkpt>
      <trkpt lat="35.98957093432546" lon="129.55478997901082">
        <ele>5.2</ele>
        <time>2026-06-05T16:22:58</time>
      </trkpt>
      <trkpt lat="35.98960094153881" lon="129.55484295263886">
        <ele>5.2</ele>
        <time>2026-06-05T16:22:59</time>
      </trkpt>
      <trkpt lat="35.989628937095404" lon="129.5548969320953">
        <ele>5.2</ele>
        <time>2026-06-05T16:23:00</time>
      </trkpt>
      <trkpt lat="35.98965793848038" lon="129.55494898371398">
        <ele>5.2</ele>
        <time>2026-06-05T16:23:01</time>
      </trkpt>
      <trkpt lat="35.98968794569373" lon="129.55499994568527">
        <ele>5.2</ele>
        <time>2026-06-05T16:23:02</time>
      </trkpt>
      <trkpt lat="35.989718958735466" lon="129.55504797399044">
        <ele>5.2</ele>
        <time>2026-06-05T16:23:03</time>
      </trkpt>
      <trkpt lat="35.98975198343396" lon="129.5550909731537">
        <ele>5.2</ele>
        <time>2026-06-05T16:23:04</time>
      </trkpt>
      <trkpt lat="35.98978693597019" lon="129.55512693151832">
        <ele>5.2</ele>
        <time>2026-06-05T16:23:05</time>
      </trkpt>
      <trkpt lat="35.989824989810586" lon="129.55515693873167">
        <ele>5.2</ele>
        <time>2026-06-05T16:23:06</time>
      </trkpt>
      <trkpt lat="35.989865977317095" lon="129.5551829226315">
        <ele>5.2</ele>
        <time>2026-06-05T16:23:07</time>
      </trkpt>
      <trkpt lat="35.989908976480365" lon="129.55520496703684">
        <ele>5.2</ele>
        <time>2026-06-05T16:23:08</time>
      </trkpt>
      <trkpt lat="35.98995499312878" lon="129.55522399395704">
        <ele>5.2</ele>
        <time>2026-06-05T16:23:09</time>
      </trkpt>
      <trkpt lat="35.99000293761492" lon="129.55523799173534">
        <ele>5.2</ele>
        <time>2026-06-05T16:23:10</time>
      </trkpt>
      <trkpt lat="35.99005096592009" lon="129.55524997785687">
        <ele>5.2</ele>
        <time>2026-06-05T16:23:11</time>
      </trkpt>
      <trkpt lat="35.990098994225264" lon="129.55525995232165">
        <ele>5.2</ele>
        <time>2026-06-05T16:23:12</time>
      </trkpt>
      <trkpt lat="35.99014392122626" lon="129.55527294427156">
        <ele>5.2</ele>
        <time>2026-06-05T16:23:13</time>
      </trkpt>
      <trkpt lat="35.99018298089504" lon="129.55528895370662">
        <ele>5.2</ele>
        <time>2026-06-05T16:23:14</time>
      </trkpt>
      <trkpt lat="35.99021994508803" lon="129.55531099811196">
        <ele>5.2</ele>
        <time>2026-06-05T16:23:15</time>
      </trkpt>
      <trkpt lat="35.99025892093778" lon="129.55533798784018">
        <ele>5.2</ele>
        <time>2026-06-05T16:23:16</time>
      </trkpt>
      <trkpt lat="35.990297980606556" lon="129.55537092871964">
        <ele>5.2</ele>
        <time>2026-06-05T16:23:17</time>
      </trkpt>
      <trkpt lat="35.990338968113065" lon="129.55540998838842">
        <ele>5.2</ele>
        <time>2026-06-05T16:23:18</time>
      </trkpt>
      <trkpt lat="35.99037794396281" lon="129.55545499920845">
        <ele>5.2</ele>
        <time>2026-06-05T16:23:19</time>
      </trkpt>
      <trkpt lat="35.99041298031807" lon="129.5555069670081">
        <ele>5.2</ele>
        <time>2026-06-05T16:23:20</time>
      </trkpt>
      <trkpt lat="35.990442987531424" lon="129.5555629581213">
        <ele>5.2</ele>
        <time>2026-06-05T16:23:21</time>
      </trkpt>
      <trkpt lat="35.9904719889164" lon="129.55562196671963">
        <ele>5.4</ele>
        <time>2026-06-05T16:23:22</time>
      </trkpt>
      <trkpt lat="35.99050199612975" lon="129.55567996948957">
        <ele>5.4</ele>
        <time>2026-06-05T16:23:23</time>
      </trkpt>
      <trkpt lat="35.990535942837596" lon="129.55573596060276">
        <ele>5.4</ele>
        <time>2026-06-05T16:23:24</time>
      </trkpt>
      <trkpt lat="35.990551952272654" lon="129.55576295033097">
        <ele>5.4</ele>
        <time>2026-06-05T16:23:25</time>
      </trkpt>
      <trkpt lat="35.990597968921065" lon="129.55582397058606">
        <ele>5.4</ele>
        <time>2026-06-05T16:23:26</time>
      </trkpt>
      <trkpt lat="35.99064398556948" lon="129.55588398501277">
        <ele>5.4</ele>
        <time>2026-06-05T16:23:27</time>
      </trkpt>
      <trkpt lat="35.99068799056113" lon="129.55594098195434">
        <ele>5.4</ele>
        <time>2026-06-05T16:23:28</time>
      </trkpt>
      <trkpt lat="35.9907309897244" lon="129.55599596723914">
        <ele>5.4</ele>
        <time>2026-06-05T16:23:29</time>
      </trkpt>
      <trkpt lat="35.99077298305929" lon="129.55604894086719">
        <ele>5.4</ele>
        <time>2026-06-05T16:23:30</time>
      </trkpt>
      <trkpt lat="35.990812964737415" lon="129.5560999866575">
        <ele>5.4</ele>
        <time>2026-06-05T16:23:31</time>
      </trkpt>
      <trkpt lat="35.990852946415544" lon="129.55615094862878">
        <ele>5.4</ele>
        <time>2026-06-05T16:23:32</time>
      </trkpt>
      <trkpt lat="35.9908879827708" lon="129.55620392225683">
        <ele>5.4</ele>
        <time>2026-06-05T16:23:33</time>
      </trkpt>
      <trkpt lat="35.990920923650265" lon="129.55625999718904">
        <ele>5.4</ele>
        <time>2026-06-05T16:23:34</time>
      </trkpt>
      <trkpt lat="35.99094992503524" lon="129.5563209336251">
        <ele>5.4</ele>
        <time>2026-06-05T16:23:35</time>
      </trkpt>
      <trkpt lat="35.99097398109734" lon="129.55638497136533">
        <ele>5.4</ele>
        <time>2026-06-05T16:23:36</time>
      </trkpt>
      <trkpt lat="35.99099292419851" lon="129.55645395442843">
        <ele>5.4</ele>
        <time>2026-06-05T16:23:37</time>
      </trkpt>
      <trkpt lat="35.991008933633566" lon="129.55652595497668">
        <ele>5.4</ele>
        <time>2026-06-05T16:23:38</time>
      </trkpt>
      <trkpt lat="35.9910209197551" lon="129.55660097301006">
        <ele>5.4</ele>
        <time>2026-06-05T16:23:39</time>
      </trkpt>
      <trkpt lat="35.99103097803891" lon="129.55667892470956">
        <ele>5.4</ele>
        <time>2026-06-05T16:23:40</time>
      </trkpt>
      <trkpt lat="35.9910399466753" lon="129.55675897188485">
        <ele>5.4</ele>
        <time>2026-06-05T16:23:41</time>
      </trkpt>
      <trkpt lat="35.991048999130726" lon="129.55683994106948">
        <ele>5.4</ele>
        <time>2026-06-05T16:23:42</time>
      </trkpt>
      <trkpt lat="35.99105595611036" lon="129.55692292191088">
        <ele>5.4</ele>
        <time>2026-06-05T16:23:43</time>
      </trkpt>
      <trkpt lat="35.99106299690902" lon="129.5570069923997">
        <ele>5.4</ele>
        <time>2026-06-05T16:23:44</time>
      </trkpt>
      <trkpt lat="35.991069953888655" lon="129.55709198489785">
        <ele>5.4</ele>
        <time>2026-06-05T16:23:45</time>
      </trkpt>
      <trkpt lat="35.99107892252505" lon="129.5571779832244">
        <ele>5.4</ele>
        <time>2026-06-05T16:23:46</time>
      </trkpt>
      <trkpt lat="35.99108797498047" lon="129.55726398155093">
        <ele>5.4</ele>
        <time>2026-06-05T16:23:47</time>
      </trkpt>
      <trkpt lat="35.99109895527363" lon="129.55735098570585">
        <ele>5.4</ele>
        <time>2026-06-05T16:23:48</time>
      </trkpt>
      <trkpt lat="35.9911089297384" lon="129.55743497237563">
        <ele>5.4</ele>
        <time>2026-06-05T16:23:49</time>
      </trkpt>
      <trkpt lat="35.99111898802221" lon="129.5575189590454">
        <ele>5.6</ele>
        <time>2026-06-05T16:23:50</time>
      </trkpt>
      <trkpt lat="35.99112695083022" lon="129.55759992823005">
        <ele>5.6</ele>
        <time>2026-06-05T16:23:51</time>
      </trkpt>
      <trkpt lat="35.991134997457266" lon="129.55767896957695">
        <ele>5.6</ele>
        <time>2026-06-05T16:23:52</time>
      </trkpt>
      <trkpt lat="35.99114296026528" lon="129.55775692127645">
        <ele>5.6</ele>
        <time>2026-06-05T16:23:53</time>
      </trkpt>
      <trkpt lat="35.99115092307329" lon="129.5578339509666">
        <ele>5.6</ele>
        <time>2026-06-05T16:23:54</time>
      </trkpt>
      <trkpt lat="35.99115896970034" lon="129.55791198648512">
        <ele>5.6</ele>
        <time>2026-06-05T16:23:55</time>
      </trkpt>
      <trkpt lat="35.99116592667997" lon="129.55798993818462">
        <ele>5.6</ele>
        <time>2026-06-05T16:23:56</time>
      </trkpt>
      <trkpt lat="35.99117296747863" lon="129.55806696787477">
        <ele>5.6</ele>
        <time>2026-06-05T16:23:57</time>
      </trkpt>
      <trkpt lat="35.991175984963775" lon="129.55814299173653">
        <ele>5.6</ele>
        <time>2026-06-05T16:23:58</time>
      </trkpt>
      <trkpt lat="35.991174979135394" lon="129.55821792595088">
        <ele>5.6</ele>
        <time>2026-06-05T16:23:59</time>
      </trkpt>
      <trkpt lat="35.99117095582187" lon="129.5582909323275">
        <ele>5.6</ele>
        <time>2026-06-05T16:24:00</time>
      </trkpt>
      <trkpt lat="35.99116399884224" lon="129.55836192704737">
        <ele>5.6</ele>
        <time>2026-06-05T16:24:01</time>
      </trkpt>
      <trkpt lat="35.99115394055843" lon="129.5584309939295">
        <ele>5.6</ele>
        <time>2026-06-05T16:24:02</time>
      </trkpt>
      <trkpt lat="35.99113893695176" lon="129.55849695950747">
        <ele>5.6</ele>
        <time>2026-06-05T16:24:03</time>
      </trkpt>
      <trkpt lat="35.99111898802221" lon="129.5585609972477">
        <ele>5.6</ele>
        <time>2026-06-05T16:24:04</time>
      </trkpt>
      <trkpt lat="35.99109593778849" lon="129.55862193368375">
        <ele>5.6</ele>
        <time>2026-06-05T16:24:05</time>
      </trkpt>
      <trkpt lat="35.991068948060274" lon="129.55868194811046">
        <ele>5.6</ele>
        <time>2026-06-05T16:24:06</time>
      </trkpt>
      <trkpt lat="35.99104296416044" lon="129.55874296836555">
        <ele>5.6</ele>
        <time>2026-06-05T16:24:07</time>
      </trkpt>
      <trkpt lat="35.99101698026061" lon="129.55880398862064">
        <ele>5.6</ele>
        <time>2026-06-05T16:24:08</time>
      </trkpt>
      <trkpt lat="35.99099493585527" lon="129.55886593088508">
        <ele>5.6</ele>
        <time>2026-06-05T16:24:09</time>
      </trkpt>
      <trkpt lat="35.99097297526896" lon="129.55892594531178">
        <ele>5.6</ele>
        <time>2026-06-05T16:24:10</time>
      </trkpt>
      <trkpt lat="35.99095093086362" lon="129.55898394808173">
        <ele>5.6</ele>
        <time>2026-06-05T16:24:11</time>
      </trkpt>
      <trkpt lat="35.99092897027731" lon="129.55903993919492">
        <ele>5.4</ele>
        <time>2026-06-05T16:24:12</time>
      </trkpt>
      <trkpt lat="35.99090893752873" lon="129.5590959303081">
        <ele>5.4</ele>
        <time>2026-06-05T16:24:13</time>
      </trkpt>
      <trkpt lat="35.99088898859918" lon="129.55915099941194">
        <ele>5.4</ele>
        <time>2026-06-05T16:24:14</time>
      </trkpt>
      <trkpt lat="35.9908689558506" lon="129.55920397303998">
        <ele>5.4</ele>
        <time>2026-06-05T16:24:15</time>
      </trkpt>
      <trkpt lat="35.99084892310202" lon="129.55925493501127">
        <ele>5.4</ele>
        <time>2026-06-05T16:24:16</time>
      </trkpt>
      <trkpt lat="35.99082897417247" lon="129.55930598080158">
        <ele>5.4</ele>
        <time>2026-06-05T16:24:17</time>
      </trkpt>
      <trkpt lat="35.990809947252274" lon="129.55935593694448">
        <ele>5.4</ele>
        <time>2026-06-05T16:24:18</time>
      </trkpt>
      <trkpt lat="35.990792931988835" lon="129.55940396524966">
        <ele>5.4</ele>
        <time>2026-06-05T16:24:19</time>
      </trkpt>
      <trkpt lat="35.9907759167254" lon="129.55945199355483">
        <ele>5.4</ele>
        <time>2026-06-05T16:24:20</time>
      </trkpt>
      <trkpt lat="35.99075898528099" lon="129.5594989322126">
        <ele>5.4</ele>
        <time>2026-06-05T16:24:21</time>
      </trkpt>
      <trkpt lat="35.99074398167431" lon="129.559544948861">
        <ele>5.4</ele>
        <time>2026-06-05T16:24:22</time>
      </trkpt>
      <trkpt lat="35.99073291756213" lon="129.55958995968103">
        <ele>5.4</ele>
        <time>2026-06-05T16:24:23</time>
      </trkpt>
      <trkpt lat="35.990723948925734" lon="129.55963094718754">
        <ele>5.4</ele>
        <time>2026-06-05T16:24:24</time>
      </trkpt>
      <trkpt lat="35.99071397446096" lon="129.5596689172089">
        <ele>5.4</ele>
        <time>2026-06-05T16:24:25</time>
      </trkpt>
      <trkpt lat="35.99069897085428" lon="129.5597069710493">
        <ele>5.4</ele>
        <time>2026-06-05T16:24:26</time>
      </trkpt>
      <trkpt lat="35.990680949762464" lon="129.55974695272744">
        <ele>5.4</ele>
        <time>2026-06-05T16:24:27</time>
      </trkpt>
      <trkpt lat="35.990661922842264" lon="129.55979296937585">
        <ele>5.4</ele>
        <time>2026-06-05T16:24:28</time>
      </trkpt>
      <trkpt lat="35.9906429797411" lon="129.55984292551875">
        <ele>5.4</ele>
        <time>2026-06-05T16:24:29</time>
      </trkpt>
      <trkpt lat="35.99062697030604" lon="129.5598979946226">
        <ele>5.4</ele>
        <time>2026-06-05T16:24:30</time>
      </trkpt>
      <trkpt lat="35.99061297252774" lon="129.55995499156415">
        <ele>5.4</ele>
        <time>2026-06-05T16:24:31</time>
      </trkpt>
      <trkpt lat="35.99060299806297" lon="129.56001391634345">
        <ele>5.4</ele>
        <time>2026-06-05T16:24:32</time>
      </trkpt>
      <trkpt lat="35.99060199223459" lon="129.56007099710405">
        <ele>5.4</ele>
        <time>2026-06-05T16:24:33</time>
      </trkpt>
      <trkpt lat="35.99060693755746" lon="129.56012698821723">
        <ele>5.4</ele>
        <time>2026-06-05T16:24:34</time>
      </trkpt>
      <trkpt lat="35.99061196669936" lon="129.56018197350204">
        <ele>5.4</ele>
        <time>2026-06-05T16:24:35</time>
      </trkpt>
      <trkpt lat="35.99061297252774" lon="129.56023494713008">
        <ele>5.4</ele>
        <time>2026-06-05T16:24:36</time>
      </trkpt>
      <trkpt lat="35.9906099550426" lon="129.56028398126364">
        <ele>5.4</ele>
        <time>2026-06-05T16:24:37</time>
      </trkpt>
      <trkpt lat="35.99060593172908" lon="129.56032396294177">
        <ele>5.4</ele>
        <time>2026-06-05T16:24:38</time>
      </trkpt>
      <trkpt lat="35.99060098640621" lon="129.56035296432674">
        <ele>5.4</ele>
        <time>2026-06-05T16:24:39</time>
      </trkpt>
      <trkpt lat="35.990596963092685" lon="129.5603689737618">
        <ele>5.4</ele>
        <time>2026-06-05T16:24:40</time>
      </trkpt>
      <trkpt lat="35.990594951435924" lon="129.56037299707532">
        <ele>5.4</ele>
        <time>2026-06-05T16:24:41</time>
      </trkpt>
      <trkpt lat="35.990594951435924" lon="129.56036997959018">
        <ele>5.2</ele>
        <time>2026-06-05T16:24:42</time>
      </trkpt>
      <trkpt lat="35.99059394560754" lon="129.5603639446199">
        <ele>5.2</ele>
        <time>2026-06-05T16:24:43</time>
      </trkpt>
      <trkpt lat="35.99060098640621" lon="129.56040292046964">
        <ele>5.0</ele>
        <time>2026-06-05T16:25:05</time>
      </trkpt>
      <trkpt lat="35.99060098640621" lon="129.56041792407632">
        <ele>5.0</ele>
        <time>2026-06-05T16:25:06</time>
      </trkpt>
      <trkpt lat="35.99060098640621" lon="129.56042295321822">
        <ele>5.0</ele>
        <time>2026-06-05T16:25:07</time>
      </trkpt>
      <trkpt lat="35.990598974749446" lon="129.56043393351138">
        <ele>5.0</ele>
        <time>2026-06-05T16:25:08</time>
      </trkpt>
      <trkpt lat="35.99059394560754" lon="129.56045296043158">
        <ele>5.0</ele>
        <time>2026-06-05T16:25:09</time>
      </trkpt>
      <trkpt lat="35.99058698862791" lon="129.560469975695">
        <ele>5.0</ele>
        <time>2026-06-05T16:25:10</time>
      </trkpt>
      <trkpt lat="35.99058195948601" lon="129.56048699095845">
        <ele>5.0</ele>
        <time>2026-06-05T16:25:11</time>
      </trkpt>
      <trkpt lat="35.990576930344105" lon="129.56050291657448">
        <ele>5.0</ele>
        <time>2026-06-05T16:25:12</time>
      </trkpt>
      <trkpt lat="35.990573996677995" lon="129.5605169981718">
        <ele>5.0</ele>
        <time>2026-06-05T16:25:13</time>
      </trkpt>
      <trkpt lat="35.99056997336447" lon="129.5605309959501">
        <ele>5.0</ele>
        <time>2026-06-05T16:25:14</time>
      </trkpt>
      <trkpt lat="35.99056695587933" lon="129.5605449937284">
        <ele>5.0</ele>
        <time>2026-06-05T16:25:15</time>
      </trkpt>
      <trkpt lat="35.99056494422257" lon="129.56055597402155">
        <ele>5.0</ele>
        <time>2026-06-05T16:25:16</time>
      </trkpt>
      <trkpt lat="35.99056595005095" lon="129.56056393682957">
        <ele>5.0</ele>
        <time>2026-06-05T16:25:17</time>
      </trkpt>
      <trkpt lat="35.99056695587933" lon="129.5605679601431">
        <ele>5.0</ele>
        <time>2026-06-05T16:25:18</time>
      </trkpt>
      <trkpt lat="35.99056796170771" lon="129.56056896597147">
        <ele>5.0</ele>
        <time>2026-06-05T16:25:19</time>
      </trkpt>
      <trkpt lat="35.99056796170771" lon="129.56056896597147">
        <ele>5.0</ele>
        <time>2026-06-05T16:25:20</time>
      </trkpt>
    </trkseg>
  </trk>
</gpx>